
Distance (Route):
Temperature : 15.4°C
Humidity : 53.5%
Pressure : 938.0hPa| Receiver | Frames | First received | Last received |
|---|---|---|---|
| DK7TD | 775 | 2026-09-05 22:47:38 | 2026-09-06 00:52:34 |
| DM0DOS-11 | 414 | 2026-09-05 23:14:37 | 2026-09-06 00:46:53 |
| DO3MHA-11 | 286 | 2026-09-05 23:15:32 | 2026-09-06 01:00:50 |
| DO3MHA-12 | 277 | 2026-09-05 23:17:19 | 2026-09-06 01:00:48 |
| BIOWL1-15 | 208 | 2026-09-05 23:11:58 | 2026-09-06 00:32:38 |
| IW2NTF | 178 | 2026-09-05 23:35:39 | 2026-09-06 00:44:00 |
| OE5MMP-10 | 104 | 2026-09-05 23:50:20 | 2026-09-06 00:37:26 |
| DJ8HS-15 | 99 | 2026-09-05 23:14:38 | 2026-09-06 00:45:24 |
| PG1ADW-2 | 74 | 2026-09-05 23:31:23 | 2026-09-06 00:45:36 |
| DF3TZ-5 | 71 | 2026-09-05 22:45:52 | 2026-09-06 00:57:50 |
| AZAK | 70 | 2026-09-05 22:45:18 | 2026-09-06 00:44:46 |
| DB0ND-19 | 67 | 2026-09-05 22:46:59 | 2026-09-06 00:58:26 |
| DB0UT-7 | 67 | 2026-09-05 22:47:33 | 2026-09-06 00:56:20 |
| DL1XH1-15 | 65 | 2026-09-06 00:15:11 | 2026-09-06 00:32:47 |
| DF7PN | 63 | 2026-09-05 22:54:46 | 2026-09-06 00:45:34 |
| BAUMI2-15 | 62 | 2026-09-05 23:55:42 | 2026-09-06 00:37:23 |
| HARRO8 | 55 | 2026-09-05 22:52:44 | 2026-09-06 00:54:01 |
| DL6DJ-15 | 53 | 2026-09-05 23:16:16 | 2026-09-06 00:56:43 |
| OE5DRO-10 | 52 | 2026-09-05 23:23:37 | 2026-09-06 00:45:42 |
| OE5DXL-15 | 49 | 2026-09-05 23:21:03 | 2026-09-06 00:55:35 |
| NBG1-10 | 48 | 2026-09-05 23:16:01 | 2026-09-06 00:59:25 |
| DM7RM-13 | 46 | 2026-09-05 23:15:39 | 2026-09-06 00:55:18 |
| DF1GD-15 | 44 | 2026-09-05 23:16:51 | 2026-09-06 00:45:16 |
| DL1ZP-14 | 41 | 2026-09-05 23:02:45 | 2026-09-06 00:43:19 |
| DO9HM | 41 | 2026-09-05 23:31:21 | 2026-09-06 00:45:18 |
| HSKMA3-T | 39 | 2026-09-06 00:21:16 | 2026-09-06 00:32:41 |
| DB0NH | 38 | 2026-09-05 23:15:40 | 2026-09-06 00:58:14 |
| DK5PH-5 | 31 | 2026-09-05 23:31:20 | 2026-09-06 00:29:32 |
| DF9NV-10 | 31 | 2026-09-06 00:01:25 | 2026-09-06 00:54:41 |
| DJ2DS-15 | 26 | 2026-09-06 00:07:27 | 2026-09-06 00:30:48 |
| SONCRA | 24 | 2026-09-05 23:50:12 | 2026-09-06 00:34:43 |
| SONDE2-11 | 21 | 2026-09-05 23:59:44 | 2026-09-06 00:30:17 |
| PETON7-10 | 21 | 2026-09-06 00:09:47 | 2026-09-06 00:30:47 |
| OE5WHR-10 | 18 | 2026-09-06 00:02:31 | 2026-09-06 00:31:13 |
| DG9SBQ-11 | 14 | 2026-09-05 23:16:11 | 2026-09-05 23:31:36 |
| OE9MKV-15 | 14 | 2026-09-05 23:26:55 | 2026-09-05 23:52:25 |
| DC4HF-4 | 13 | 2026-09-05 23:59:50 | 2026-09-06 00:34:41 |
| DH7VM-15 | 8 | 2026-09-05 23:50:47 | 2026-09-06 00:45:19 |
| DJTTGO | 6 | 2026-09-05 23:40:39 | 2026-09-06 00:34:20 |
| BIOWL9-15 | 4 | 2026-09-05 23:24:45 | 2026-09-05 23:27:21 |
| AM1SDL-15 | 4 | 2026-09-05 23:40:59 | 2026-09-06 00:39:42 |
| OE3JTB-15 | 2 | 2026-09-05 23:31:17 | 2026-09-05 23:32:15 |
| HEMX73-6 | 2 | 2026-09-06 00:00:21 | 2026-09-06 00:34:32 |
| KANTATE | 2 | 2026-09-06 00:05:35 | 2026-09-06 00:32:03 |
| DO9LL-15 | 2 | 2026-09-06 00:10:10 | 2026-09-06 00:16:09 |
| EDDB2-11 | 2 | 2026-09-06 00:32:47 | 2026-09-06 00:33:49 |
| HEMX73-11 | 1 | 2026-09-06 00:24:14 | 2026-09-06 00:24:14 |
| Receiver | Date | Latitude | Longitude | Direction | Speed | Altitude | Climb | Temperature | Humidity | Pressure | Voltage | Killtimer | Uptime | BKT | XDATA |
|---|---|---|---|---|---|---|---|---|---|---|---|---|---|---|---|
| DO3MHA-11 | 2026-09-06 01:00:50 | 48.25101 | 10.58069 | 195° | 15km/h | 805m | -11.5m/s | 15.4°C | 53.5% | 938.0hPa | 2.6V | 00:00:00 | 02:31:31 | 00:00:00 | |
| DO3MHA-12 | 2026-09-06 01:00:48 | 48.25108 | 10.58072 | 197° | 15km/h | 828m | -12.1m/s | 15.2°C | 53.9% | 935.6hPa | 2.6V | 08:00:00 | 02:31:29 | 00:00:00 | |
| DO3MHA-11 | 2026-09-06 01:00:48 | 48.25108 | 10.58072 | 197° | 15km/h | 828m | -12.1m/s | 15.2°C | 53.9% | 935.6hPa | 2.6V | 00:00:00 | 02:31:29 | 00:00:00 | |
| DO3MHA-12 | 2026-09-06 01:00:46 | 48.25114 | 10.58075 | 198° | 13km/h | 848m | -8.7m/s | 15.1°C | 53.9% | 933.2hPa | 2.6V | 00:00:00 | 02:31:27 | 00:00:00 | |
| DO3MHA-11 | 2026-09-06 01:00:46 | 48.25114 | 10.58075 | 198° | 13km/h | 848m | -8.7m/s | 15.1°C | 53.9% | 933.2hPa | 2.6V | 00:00:00 | 02:31:27 | 00:00:00 | |
| DO3MHA-11 | 2026-09-06 01:00:44 | 48.25121 | 10.58079 | 198° | 13km/h | 865m | -8.7m/s | 15.0°C | 54.2% | 931.3hPa | 2.6V | 00:00:00 | 02:31:25 | 00:00:00 | |
| DO3MHA-12 | 2026-09-06 01:00:44 | 48.25121 | 10.58079 | 198° | 13km/h | 865m | -8.7m/s | 15.0°C | 54.2% | 931.3hPa | 2.6V | 00:00:00 | 02:31:25 | 00:00:00 | |
| DO3MHA-11 | 2026-09-06 01:00:42 | 48.25127 | 10.58082 | 195° | 11km/h | 885m | -11.6m/s | 14.9°C | 54.0% | 929.3hPa | 2.6V | 00:00:00 | 02:31:23 | 00:00:00 | |
| DO3MHA-12 | 2026-09-06 01:00:42 | 48.25127 | 10.58082 | 195° | 11km/h | 885m | -11.6m/s | 14.9°C | 54.0% | 929.3hPa | 2.6V | 00:00:00 | 02:31:23 | 00:00:00 | |
| DO3MHA-12 | 2026-09-06 01:00:40 | 48.25132 | 10.58084 | 190° | 11km/h | 908m | -10.0m/s | 14.8°C | 53.6% | 926.7hPa | 2.6V | 00:00:00 | 02:31:21 | 00:00:00 | |
| DO3MHA-11 | 2026-09-06 01:00:40 | 48.25132 | 10.58084 | 190° | 11km/h | 908m | -10.0m/s | 14.8°C | 53.6% | 926.7hPa | 2.6V | 00:00:00 | 02:31:21 | 00:00:00 | |
| DO3MHA-12 | 2026-09-06 01:00:38 | 48.25138 | 10.58086 | 191° | 9km/h | 928m | -10.8m/s | 14.6°C | 53.7% | 924.4hPa | 2.6V | 00:00:00 | 02:31:19 | 00:00:00 | |
| DO3MHA-11 | 2026-09-06 01:00:38 | 48.25138 | 10.58086 | 191° | 9km/h | 928m | -10.8m/s | 14.6°C | 53.7% | 924.4hPa | 2.6V | 08:00:00 | 02:31:19 | 00:00:00 | |
| DO3MHA-11 | 2026-09-06 01:00:36 | 48.25143 | 10.58087 | 193° | 9km/h | 950m | -12.5m/s | 14.6°C | 53.1% | 921.8hPa | 2.6V | 00:00:00 | 02:31:17 | 00:00:00 | |
| DO3MHA-12 | 2026-09-06 01:00:36 | 48.25143 | 10.58087 | 193° | 9km/h | 950m | -12.5m/s | 14.6°C | 53.1% | 921.8hPa | 2.6V | 00:00:00 | 02:31:17 | 00:00:00 | |
| DO3MHA-11 | 2026-09-06 01:00:34 | 48.25147 | 10.58088 | 191° | 5km/h | 973m | -10.1m/s | 14.6°C | 52.7% | 919.5hPa | 2.6V | 00:00:00 | 02:31:15 | 00:00:00 | |
| DO3MHA-12 | 2026-09-06 01:00:34 | 48.25147 | 10.58088 | 191° | 5km/h | 973m | -10.1m/s | 14.6°C | 52.7% | 919.5hPa | 2.6V | 00:00:00 | 02:31:15 | 00:00:00 | |
| DO3MHA-12 | 2026-09-06 01:00:32 | 48.25150 | 10.58091 | 212° | 5km/h | 996m | -13.0m/s | 14.7°C | 51.3% | 917.3hPa | 2.6V | 00:00:00 | 02:31:13 | 00:00:00 | |
| DO3MHA-11 | 2026-09-06 01:00:32 | 48.25150 | 10.58091 | 212° | 5km/h | 996m | -13.0m/s | 14.7°C | 51.3% | 917.3hPa | 2.6V | 00:00:00 | 02:31:13 | 00:00:00 | |
| DO3MHA-11 | 2026-09-06 01:00:30 | 48.25153 | 10.58092 | 209° | 5km/h | 1020m | -10.7m/s | 14.6°C | 51.8% | 914.6hPa | 2.6V | 00:00:00 | 02:31:11 | 00:00:00 | |
| DO3MHA-12 | 2026-09-06 01:00:30 | 48.25153 | 10.58092 | 209° | 5km/h | 1020m | -10.7m/s | 14.6°C | 51.8% | 914.6hPa | 2.6V | 08:01:00 | 02:31:11 | 00:00:00 | |
| DO3MHA-11 | 2026-09-06 01:00:28 | 48.25156 | 10.58094 | 190° | 5km/h | 1041m | -11.5m/s | 14.4°C | 51.6% | 912.1hPa | 2.6V | 00:00:00 | 02:31:09 | 00:00:00 | |
| DO3MHA-12 | 2026-09-06 01:00:28 | 48.25156 | 10.58094 | 190° | 5km/h | 1041m | -11.5m/s | 14.4°C | 51.6% | 912.1hPa | 2.6V | 00:00:00 | 02:31:09 | 00:00:00 | |
| DO3MHA-11 | 2026-09-06 01:00:26 | 48.25159 | 10.58095 | 187° | 5km/h | 1064m | -11.9m/s | 14.2°C | 51.9% | 909.7hPa | 2.6V | 00:00:00 | 02:31:07 | 00:00:00 | |
| DO3MHA-12 | 2026-09-06 01:00:26 | 48.25159 | 10.58095 | 187° | 5km/h | 1064m | -11.9m/s | 14.2°C | 51.9% | 909.7hPa | 2.6V | 00:00:00 | 02:31:07 | 00:00:00 | |
| DO3MHA-12 | 2026-09-06 01:00:24 | 48.25163 | 10.58094 | 169° | 5km/h | 1085m | -10.8m/s | 14.1°C | 51.7% | 907.4hPa | 2.6V | 00:00:00 | 02:31:05 | 00:00:00 | |
| DO3MHA-11 | 2026-09-06 01:00:24 | 48.25163 | 10.58094 | 169° | 5km/h | 1085m | -10.8m/s | 14.1°C | 51.7% | 907.4hPa | 2.6V | 00:00:00 | 02:31:05 | 00:00:00 | |
| DO3MHA-12 | 2026-09-06 01:00:22 | 48.25166 | 10.58092 | 140° | 7km/h | 1108m | -12.1m/s | 14.1°C | 49.7% | 905.0hPa | 2.6V | 00:00:00 | 02:31:03 | 00:00:00 | |
| DO3MHA-11 | 2026-09-06 01:00:22 | 48.25166 | 10.58092 | 140° | 7km/h | 1108m | -12.1m/s | 14.1°C | 49.7% | 905.0hPa | 2.6V | 00:00:00 | 02:31:03 | 00:00:00 | |
| DO3MHA-11 | 2026-09-06 01:00:20 | 48.25168 | 10.58088 | 122° | 5km/h | 1130m | -10.7m/s | 14.1°C | 48.7% | 902.4hPa | 2.6V | 08:01:00 | 02:31:01 | 00:00:00 | |
| DO3MHA-12 | 2026-09-06 01:00:20 | 48.25168 | 10.58088 | 122° | 5km/h | 1130m | -10.7m/s | 14.1°C | 48.7% | 902.4hPa | 2.6V | 00:00:00 | 02:31:01 | 00:00:00 | |
| DO3MHA-11 | 2026-09-06 01:00:18 | 48.25170 | 10.58084 | 115° | 9km/h | 1152m | -10.2m/s | 14.0°C | 48.4% | 900.1hPa | 2.6V | 00:00:00 | 02:30:59 | 00:00:00 | |
| DO3MHA-12 | 2026-09-06 01:00:18 | 48.25170 | 10.58084 | 115° | 9km/h | 1152m | -10.2m/s | 14.0°C | 48.4% | 900.1hPa | 2.6V | 00:00:00 | 02:30:59 | 00:00:00 | |
| DO3MHA-12 | 2026-09-06 01:00:17 | 48.25172 | 10.58078 | 114° | 9km/h | 1173m | -11.5m/s | 14.0°C | 47.7% | 897.8hPa | 2.6V | 00:00:00 | 02:30:57 | 00:00:00 | |
| DO3MHA-11 | 2026-09-06 01:00:16 | 48.25172 | 10.58078 | 114° | 9km/h | 1173m | -11.5m/s | 14.0°C | 47.7% | 897.8hPa | 2.6V | 00:00:00 | 02:30:57 | 00:00:00 | |
| DO3MHA-12 | 2026-09-06 01:00:14 | 48.25175 | 10.58072 | 121° | 9km/h | 1194m | -9.2m/s | 14.0°C | 46.0% | 895.6hPa | 2.6V | 00:00:00 | 02:30:55 | 00:00:00 | |
| DO3MHA-11 | 2026-09-06 01:00:14 | 48.25175 | 10.58072 | 121° | 9km/h | 1194m | -9.2m/s | 14.0°C | 46.0% | 895.6hPa | 2.6V | 00:00:00 | 02:30:55 | 00:00:00 | |
| DO3MHA-11 | 2026-09-06 01:00:12 | 48.25177 | 10.58065 | 112° | 13km/h | 1215m | -11.5m/s | 13.8°C | 45.5% | 893.5hPa | 2.6V | 00:00:00 | 02:30:53 | 00:00:00 | |
| DO3MHA-12 | 2026-09-06 01:00:12 | 48.25177 | 10.58065 | 112° | 13km/h | 1215m | -11.5m/s | 13.8°C | 45.5% | 893.5hPa | 2.6V | 08:01:00 | 02:30:53 | 00:00:00 | |
| DO3MHA-11 | 2026-09-06 01:00:10 | 48.25180 | 10.58056 | 117° | 15km/h | 1236m | -11.3m/s | 13.7°C | 45.3% | 891.2hPa | 2.6V | 00:00:00 | 02:30:51 | 00:00:00 | |
| DO3MHA-12 | 2026-09-06 01:00:10 | 48.25180 | 10.58056 | 117° | 15km/h | 1236m | -11.3m/s | 13.7°C | 45.3% | 891.2hPa | 2.6V | 00:00:00 | 02:30:51 | 00:00:00 | |
| DO3MHA-12 | 2026-09-06 01:00:08 | 48.25184 | 10.58046 | 120° | 15km/h | 1259m | -11.4m/s | 13.6°C | 45.0% | 889.0hPa | 2.6V | 00:00:00 | 02:30:49 | 00:00:00 | |
| DO3MHA-11 | 2026-09-06 01:00:08 | 48.25184 | 10.58046 | 120° | 15km/h | 1259m | -11.4m/s | 13.6°C | 45.0% | 889.0hPa | 2.6V | 00:00:00 | 02:30:49 | 00:00:00 | |
| DO3MHA-12 | 2026-09-06 01:00:06 | 48.25188 | 10.58036 | 119° | 15km/h | 1280m | -10.8m/s | 13.5°C | 45.1% | 886.5hPa | 2.6V | 00:00:00 | 02:30:47 | 00:00:00 | |
| DO3MHA-11 | 2026-09-06 01:00:06 | 48.25188 | 10.58036 | 119° | 15km/h | 1280m | -10.8m/s | 13.5°C | 45.1% | 886.5hPa | 2.6V | 00:00:00 | 02:30:47 | 00:00:00 | |
| DO3MHA-11 | 2026-09-06 01:00:04 | 48.25192 | 10.58025 | 121° | 16km/h | 1301m | -11.4m/s | 13.4°C | 45.9% | 884.4hPa | 2.6V | 00:00:00 | 02:30:45 | 00:00:00 | |
| DO3MHA-12 | 2026-09-06 01:00:04 | 48.25192 | 10.58025 | 121° | 16km/h | 1301m | -11.4m/s | 13.4°C | 45.9% | 884.4hPa | 2.6V | 00:00:00 | 02:30:45 | 00:00:00 | |
| DO3MHA-11 | 2026-09-06 01:00:02 | 48.25196 | 10.58014 | 116° | 18km/h | 1323m | -10.9m/s | 13.2°C | 47.4% | 882.3hPa | 2.6V | 08:01:00 | 02:30:43 | 00:00:00 | |
| DO3MHA-12 | 2026-09-06 01:00:02 | 48.25196 | 10.58014 | 116° | 18km/h | 1323m | -10.9m/s | 13.2°C | 47.4% | 882.3hPa | 2.6V | 00:00:00 | 02:30:43 | 00:00:00 | |
| DO3MHA-12 | 2026-09-06 01:00:00 | 48.25200 | 10.58001 | 117° | 20km/h | 1344m | -9.5m/s | 13.1°C | 46.7% | 879.9hPa | 2.6V | 00:00:00 | 02:30:41 | 00:00:00 | |
| DO3MHA-11 | 2026-09-06 01:00:00 | 48.25200 | 10.58001 | 117° | 20km/h | 1344m | -9.5m/s | 13.1°C | 46.7% | 879.9hPa | 2.6V | 00:00:00 | 02:30:41 | 00:00:00 | |
| DO3MHA-12 | 2026-09-06 00:59:58 | 48.25205 | 10.57987 | 115° | 22km/h | 1364m | -10.8m/s | 13.0°C | 47.1% | 877.8hPa | 2.6V | 00:00:00 | 02:30:39 | 00:00:00 | |
| DO3MHA-11 | 2026-09-06 00:59:58 | 48.25205 | 10.57987 | 115° | 22km/h | 1364m | -10.8m/s | 13.0°C | 47.1% | 877.8hPa | 2.6V | 00:00:00 | 02:30:39 | 00:00:00 | |
| DO3MHA-11 | 2026-09-06 00:59:56 | 48.25209 | 10.57972 | 114° | 22km/h | 1385m | -12.0m/s | 12.8°C | 50.6% | 875.8hPa | 2.6V | 00:00:00 | 02:30:37 | 00:00:00 | |
| DO3MHA-12 | 2026-09-06 00:59:56 | 48.25209 | 10.57972 | 114° | 22km/h | 1385m | -12.0m/s | 12.8°C | 50.6% | 875.8hPa | 2.6V | 00:00:00 | 02:30:37 | 00:00:00 | |
| DO3MHA-11 | 2026-09-06 00:59:54 | 48.25213 | 10.57957 | 109° | 22km/h | 1408m | -10.0m/s | 12.6°C | 52.5% | 873.5hPa | 2.6V | 00:00:00 | 02:30:35 | 00:00:00 | |
| DO3MHA-12 | 2026-09-06 00:59:54 | 48.25213 | 10.57957 | 109° | 22km/h | 1408m | -10.0m/s | 12.6°C | 52.5% | 873.5hPa | 2.6V | 08:01:00 | 02:30:35 | 00:00:00 | |
| DO3MHA-12 | 2026-09-06 00:59:52 | 48.25218 | 10.57941 | 112° | 24km/h | 1428m | -11.4m/s | 12.4°C | 54.0% | 871.3hPa | 2.6V | 00:00:00 | 02:30:33 | 00:00:00 | |
| DO3MHA-11 | 2026-09-06 00:59:52 | 48.25218 | 10.57941 | 112° | 24km/h | 1428m | -11.4m/s | 12.4°C | 54.0% | 871.3hPa | 2.6V | 00:00:00 | 02:30:33 | 00:00:00 | |
| DO3MHA-11 | 2026-09-06 00:59:50 | 48.25222 | 10.57924 | 105° | 26km/h | 1449m | -10.1m/s | 12.3°C | 57.3% | 868.8hPa | 2.6V | 00:00:00 | 02:30:31 | 00:00:00 | |
| DO3MHA-12 | 2026-09-06 00:59:50 | 48.25222 | 10.57924 | 105° | 26km/h | 1449m | -10.1m/s | 12.3°C | 57.3% | 868.8hPa | 2.6V | 00:00:00 | 02:30:31 | 00:00:00 | |
| DO3MHA-11 | 2026-09-06 00:59:48 | 48.25225 | 10.57905 | 105° | 26km/h | 1471m | -11.4m/s | 12.2°C | 60.1% | 866.7hPa | 2.6V | 00:00:00 | 02:30:29 | 00:00:00 | |
| DO3MHA-12 | 2026-09-06 00:59:48 | 48.25225 | 10.57905 | 105° | 26km/h | 1471m | -11.4m/s | 12.2°C | 60.1% | 866.7hPa | 2.6V | 00:00:00 | 02:30:29 | 00:00:00 | |
| DO3MHA-11 | 2026-09-06 00:59:46 | 48.25228 | 10.57885 | 99° | 26km/h | 1493m | -11.1m/s | 12.1°C | 61.2% | 864.4hPa | 2.6V | 00:00:00 | 02:30:27 | 00:00:00 | |
| DO3MHA-12 | 2026-09-06 00:59:46 | 48.25228 | 10.57885 | 99° | 27km/h | 1493m | -11.1m/s | 12.1°C | 61.2% | 864.4hPa | 2.6V | 00:00:00 | 02:30:27 | 00:00:00 | |
| DO3MHA-11 | 2026-09-06 00:59:43 | 48.25231 | 10.57856 | 95° | 27km/h | 1527m | -11.7m/s | 12.0°C | 64.9% | 861.1hPa | 2.6V | 08:01:00 | 02:30:24 | 00:00:00 | |
| DO3MHA-12 | 2026-09-06 00:59:42 | 48.25232 | 10.57845 | 95° | 27km/h | 1538m | -11.4m/s | 11.9°C | 68.2% | 860.0hPa | 2.6V | 00:00:00 | 02:30:23 | 00:00:00 | |
| DO3MHA-11 | 2026-09-06 00:59:38 | 48.25234 | 10.57804 | 92° | 27km/h | 1579m | -10.7m/s | 11.6°C | 72.0% | 855.7hPa | 2.6V | 00:00:00 | 02:30:19 | 00:00:00 | |
| DO3MHA-12 | 2026-09-06 00:59:37 | 48.25234 | 10.57794 | 90° | 27km/h | 1589m | -10.2m/s | 11.5°C | 72.9% | 854.5hPa | 2.6V | 00:00:00 | 02:30:18 | 00:00:00 | |
| DO3MHA-11 | 2026-09-06 00:59:33 | 48.25234 | 10.57753 | 89° | 31km/h | 1632m | -11.6m/s | 11.3°C | 69.9% | 850.2hPa | 2.6V | 00:00:00 | 02:30:14 | 00:00:00 | |
| DO3MHA-12 | 2026-09-06 00:59:32 | 48.25233 | 10.57743 | 83° | 31km/h | 1642m | -10.1m/s | 11.3°C | 70.6% | 848.9hPa | 2.6V | 00:00:00 | 02:30:13 | 00:00:00 | |
| DO3MHA-11 | 2026-09-06 00:59:28 | 48.25230 | 10.57698 | 81° | 33km/h | 1688m | -11.6m/s | 10.9°C | 79.4% | 844.6hPa | 2.6V | 00:00:00 | 02:30:09 | 00:00:00 | |
| DO3MHA-12 | 2026-09-06 00:59:27 | 48.25229 | 10.57686 | 81° | 33km/h | 1700m | -12.5m/s | 10.8°C | 80.0% | 843.4hPa | 2.6V | 00:00:00 | 02:30:08 | 00:00:00 | |
| NBG1-10 | 2026-09-06 00:59:25 | 48.25225 | 10.57663 | 79° | 35km/h | 1723m | -11.8m/s | 10.7°C | 77.7% | 841.0hPa | 2.6V | 00:00:00 | 02:30:06 | 00:00:00 | |
| DO3MHA-11 | 2026-09-06 00:59:23 | 48.25222 | 10.57639 | 80° | 33km/h | 1745m | -11.4m/s | 10.6°C | 74.3% | 838.8hPa | 2.6V | 00:00:00 | 02:30:04 | 00:00:00 | |
| DO3MHA-12 | 2026-09-06 00:59:22 | 48.25221 | 10.57627 | 78° | 33km/h | 1755m | -10.9m/s | 10.6°C | 75.0% | 837.8hPa | 2.6V | 08:02:00 | 02:30:03 | 00:00:00 | |
| DO3MHA-11 | 2026-09-06 00:59:18 | 48.25214 | 10.57578 | 78° | 35km/h | 1799m | -11.1m/s | 10.3°C | 77.1% | 833.2hPa | 2.6V | 00:00:00 | 02:29:59 | 00:00:00 | |
| DO3MHA-12 | 2026-09-06 00:59:17 | 48.25213 | 10.57566 | 81° | 35km/h | 1810m | -11.7m/s | 10.2°C | 74.2% | 832.1hPa | 2.6V | 00:00:00 | 02:29:58 | 00:00:00 | |
| DO3MHA-11 | 2026-09-06 00:59:13 | 48.25206 | 10.57514 | 79° | 35km/h | 1853m | -10.4m/s | 10.0°C | 67.5% | 827.7hPa | 2.6V | 00:00:00 | 02:29:54 | 00:00:00 | |
| DO3MHA-12 | 2026-09-06 00:59:12 | 48.25205 | 10.57502 | 77° | 35km/h | 1863m | -11.0m/s | 9.9°C | 67.6% | 826.5hPa | 2.6V | 00:00:00 | 02:29:53 | 00:00:00 | |
| DO3MHA-11 | 2026-09-06 00:59:08 | 48.25199 | 10.57451 | 81° | 33km/h | 1910m | -12.0m/s | 9.6°C | 64.1% | 822.0hPa | 2.6V | 00:00:00 | 02:29:49 | 00:00:00 | |
| NBG1-10 | 2026-09-06 00:59:03 | 48.25195 | 10.57387 | 83° | 33km/h | 1966m | -10.3m/s | 9.5°C | 44.3% | 816.5hPa | 2.6V | 00:00:00 | 02:29:44 | 00:00:00 | |
| DO3MHA-11 | 2026-09-06 00:59:03 | 48.25195 | 10.57387 | 83° | 33km/h | 1966m | -10.3m/s | 9.5°C | 44.3% | 816.5hPa | 2.5V | 00:00:00 | 02:29:44 | 00:00:00 | |
| DO3MHA-12 | 2026-09-06 00:59:02 | 48.25195 | 10.57375 | 83° | 33km/h | 1977m | -12.7m/s | 9.4°C | 44.3% | 815.6hPa | 2.5V | 00:00:00 | 02:29:43 | 00:00:00 | |
| DO3MHA-11 | 2026-09-06 00:58:58 | 48.25192 | 10.57324 | 87° | 33km/h | 2025m | -11.7m/s | 9.1°C | 36.4% | 810.8hPa | 2.5V | 08:02:00 | 02:29:39 | 00:00:00 | |
| DO3MHA-12 | 2026-09-06 00:58:57 | 48.25191 | 10.57312 | 83° | 33km/h | 2036m | -9.8m/s | 9.1°C | 34.7% | 809.7hPa | 2.6V | 00:00:00 | 02:29:38 | 00:00:00 | |
| DO3MHA-11 | 2026-09-06 00:58:53 | 48.25187 | 10.57262 | 83° | 33km/h | 2081m | -11.8m/s | 8.7°C | 34.9% | 805.6hPa | 2.6V | 00:00:00 | 02:29:34 | 00:00:00 | |
| DO3MHA-12 | 2026-09-06 00:58:52 | 48.25186 | 10.57251 | 81° | 33km/h | 2093m | -12.4m/s | 8.6°C | 35.4% | 804.3hPa | 2.6V | 00:00:00 | 02:29:33 | 00:00:00 | |
| DO3MHA-11 | 2026-09-06 00:58:48 | 48.25180 | 10.57201 | 80° | 33km/h | 2137m | -11.0m/s | 8.2°C | 37.2% | 799.7hPa | 2.6V | 00:00:00 | 02:29:29 | 00:00:00 | |
| DO3MHA-12 | 2026-09-06 00:58:47 | 48.25179 | 10.57189 | 74° | 31km/h | 2149m | -12.2m/s | 8.1°C | 38.4% | 798.9hPa | 2.6V | 00:00:00 | 02:29:28 | 00:00:00 | |
| DO3MHA-11 | 2026-09-06 00:58:43 | 48.25172 | 10.57140 | 75° | 29km/h | 2194m | -11.7m/s | 7.8°C | 38.5% | 794.3hPa | 2.6V | 00:00:00 | 02:29:24 | 00:00:00 | |
| DO3MHA-12 | 2026-09-06 00:58:42 | 48.25170 | 10.57129 | 76° | 29km/h | 2206m | -12.6m/s | 7.7°C | 36.8% | 793.2hPa | 2.6V | 00:00:00 | 02:29:23 | 00:00:00 | |
| NBG1-10 | 2026-09-06 00:58:41 | 48.25169 | 10.57118 | 76° | 33km/h | 2218m | -13.1m/s | 7.6°C | 36.1% | 792.0hPa | 2.6V | 00:00:00 | 02:29:22 | 00:00:00 | |
| DO3MHA-11 | 2026-09-06 00:58:38 | 48.25164 | 10.57084 | 81° | 31km/h | 2256m | -13.0m/s | 7.3°C | 32.7% | 788.4hPa | 2.6V | 00:00:00 | 02:29:19 | 00:00:00 | |
| DO3MHA-12 | 2026-09-06 00:58:37 | 48.25163 | 10.57072 | 87° | 31km/h | 2268m | -11.4m/s | 7.2°C | 30.4% | 787.2hPa | 2.6V | 08:02:00 | 02:29:18 | 00:00:00 | |
| DO3MHA-11 | 2026-09-06 00:58:33 | 48.25160 | 10.57025 | 79° | 33km/h | 2313m | -11.6m/s | 6.8°C | 29.5% | 782.9hPa | 2.6V | 00:00:00 | 02:29:14 | 00:00:00 | |
| DO3MHA-12 | 2026-09-06 00:58:32 | 48.25159 | 10.57013 | 81° | 35km/h | 2325m | -13.4m/s | 6.7°C | 29.5% | 781.8hPa | 2.6V | 00:00:00 | 02:29:13 | 00:00:00 | |
| DO3MHA-11 | 2026-09-06 00:58:28 | 48.25157 | 10.56962 | 87° | 35km/h | 2372m | -12.2m/s | 6.6°C | 15.4% | 777.5hPa | 2.6V | 00:00:00 | 02:29:09 | 00:00:00 | |
| DO3MHA-12 | 2026-09-06 00:58:27 | 48.25156 | 10.56948 | 86° | 35km/h | 2384m | -12.2m/s | 6.7°C | 10.7% | 776.3hPa | 2.6V | 00:00:00 | 02:29:08 | 00:00:00 | |
| DB0ND-19 | 2026-09-06 00:58:26 | 48.25156 | 10.56935 | 85° | 33km/h | 2397m | -12.2m/s | 6.7°C | 11.0% | 775.2hPa | 2.6V | 00:00:00 | 00:00:00 | 00:00:00 | |
| DO3MHA-11 | 2026-09-06 00:58:23 | 48.25154 | 10.56897 | 85° | 38km/h | 2430m | -11.3m/s | 6.7°C | 8.9% | 771.9hPa | 2.6V | 00:00:00 | 02:29:04 | 00:00:00 | |
| DO3MHA-12 | 2026-09-06 00:58:22 | 48.25153 | 10.56883 | 86° | 38km/h | 2441m | -11.7m/s | 7.0°C | 7.9% | 770.8hPa | 2.6V | 00:00:00 | 02:29:03 | 00:00:00 | |
| NBG1-10 | 2026-09-06 00:58:19 | 48.25150 | 10.56839 | 87° | 40km/h | 2477m | -11.5m/s | 7.4°C | 5.3% | 767.5hPa | 2.6V | 00:00:00 | 02:29:00 | 00:00:00 | |
| DO3MHA-11 | 2026-09-06 00:58:18 | 48.25150 | 10.56824 | 87° | 38km/h | 2489m | -11.5m/s | 7.4°C | 5.0% | 766.5hPa | 2.6V | 00:00:00 | 02:28:59 | 00:00:00 | |
| DO3MHA-12 | 2026-09-06 00:58:17 | 48.25149 | 10.56809 | 90° | 38km/h | 2501m | -12.6m/s | 7.4°C | 5.4% | 765.4hPa | 2.6V | 00:00:00 | 02:28:58 | 00:00:00 | |
| DB0NH | 2026-09-06 00:58:14 | 48.25150 | 10.56764 | 90° | 42km/h | 2538m | -11.4m/s | 7.2°C | 3.5% | 761.9hPa | 2.6V | 00:00:00 | 02:28:55 | 00:00:00 | |
| DO3MHA-11 | 2026-09-06 00:58:13 | 48.25150 | 10.56751 | 93° | 38km/h | 2550m | -12.6m/s | 7.2°C | 3.4% | 760.9hPa | 2.6V | 08:03:00 | 02:28:54 | 00:00:00 | |
| DO3MHA-12 | 2026-09-06 00:58:12 | 48.25151 | 10.56736 | 96° | 38km/h | 2563m | -13.3m/s | 7.1°C | 3.3% | 759.6hPa | 2.6V | 00:00:00 | 02:28:53 | 00:00:00 | |
| DO3MHA-11 | 2026-09-06 00:58:08 | 48.25154 | 10.56677 | 94° | 40km/h | 2614m | -12.5m/s | 6.8°C | 3.7% | 754.9hPa | 2.6V | 00:00:00 | 02:28:49 | 00:00:00 | |
| DO3MHA-12 | 2026-09-06 00:58:07 | 48.25155 | 10.56662 | 92° | 40km/h | 2626m | -12.3m/s | 6.7°C | 3.9% | 753.6hPa | 2.6V | 00:00:00 | 02:28:48 | 00:00:00 | |
| DO3MHA-11 | 2026-09-06 00:58:03 | 48.25158 | 10.56599 | 96° | 44km/h | 2675m | -11.9m/s | 6.4°C | 4.1% | 749.2hPa | 2.6V | 00:00:00 | 02:28:44 | 00:00:00 | |
| DB0ND-19 | 2026-09-06 00:57:55 | 48.25170 | 10.56468 | 99° | 42km/h | 2763m | -12.0m/s | 5.9°C | 5.3% | 741.0hPa | 2.6V | 00:00:00 | 00:00:00 | 00:00:00 | |
| DF3TZ-5 | 2026-09-06 00:57:50 | 48.25188 | 10.56313 | 102° | 44km/h | 2868m | -11.9m/s | 5.2°C | 6.8% | 731.6hPa | 2.6V | 00:00:00 | 00:00:00 | 00:00:00 | |
| DO3MHA-11 | 2026-09-06 00:57:44 | 48.25193 | 10.56279 | 105° | 46km/h | 2894m | -12.9m/s | 5.1°C | 6.0% | 729.5hPa | 2.6V | 00:00:00 | 02:28:25 | 00:00:00 | |
| DO3MHA-12 | 2026-09-06 00:57:42 | 48.25198 | 10.56245 | 102° | 44km/h | 2918m | -12.9m/s | 5.0°C | 7.1% | 727.3hPa | 2.6V | 00:00:00 | 02:28:23 | 00:00:00 | |
| DO3MHA-11 | 2026-09-06 00:57:39 | 48.25205 | 10.56196 | 102° | 42km/h | 2953m | -13.0m/s | 4.7°C | 5.8% | 724.1hPa | 2.6V | 00:00:00 | 02:28:20 | 00:00:00 | |
| DO3MHA-12 | 2026-09-06 00:57:37 | 48.25210 | 10.56164 | 105° | 42km/h | 2977m | -11.8m/s | 4.6°C | 4.9% | 721.9hPa | 2.6V | 08:03:00 | 02:28:18 | 00:00:00 | |
| NBG1-10 | 2026-09-06 00:57:35 | 48.25215 | 10.56133 | 106° | 38km/h | 3001m | -12.8m/s | 4.5°C | 3.7% | 719.7hPa | 2.6V | 00:00:00 | 02:28:16 | 00:00:00 | |
| DB0NH | 2026-09-06 00:57:34 | 48.25218 | 10.56118 | 107° | 38km/h | 3013m | -11.6m/s | 4.5°C | 3.6% | 718.7hPa | 2.6V | 00:00:00 | 02:28:15 | 00:00:00 | |
| DO3MHA-11 | 2026-09-06 00:57:29 | 48.25233 | 10.56045 | 110° | 40km/h | 3073m | -13.8m/s | 4.4°C | 5.7% | 713.5hPa | 2.6V | 00:00:00 | 02:28:10 | 00:00:00 | |
| DO3MHA-12 | 2026-09-06 00:57:27 | 48.25240 | 10.56018 | 113° | 40km/h | 3101m | -14.4m/s | 4.4°C | 6.0% | 711.2hPa | 2.6V | 00:00:00 | 02:28:08 | 00:00:00 | |
| DO3MHA-11 | 2026-09-06 00:57:24 | 48.25251 | 10.55973 | 112° | 37km/h | 3140m | -13.7m/s | 4.0°C | 19.3% | 707.6hPa | 2.6V | 00:00:00 | 02:28:05 | 00:00:00 | |
| DO3MHA-12 | 2026-09-06 00:57:22 | 48.25258 | 10.55946 | 110° | 37km/h | 3167m | -13.4m/s | 3.9°C | 17.2% | 705.3hPa | 2.6V | 00:00:00 | 02:28:03 | 00:00:00 | |
| DO3MHA-11 | 2026-09-06 00:57:19 | 48.25268 | 10.55906 | 110° | 38km/h | 3204m | -14.6m/s | 3.5°C | 17.6% | 702.2hPa | 2.5V | 08:04:00 | 02:28:00 | 00:00:00 | |
| DO3MHA-12 | 2026-09-06 00:57:17 | 48.25274 | 10.55879 | 107° | 38km/h | 3233m | -13.6m/s | 3.3°C | 18.2% | 699.7hPa | 2.6V | 00:00:00 | 02:27:58 | 00:00:00 | |
| DO3MHA-11 | 2026-09-06 00:57:14 | 48.25284 | 10.55837 | 107° | 37km/h | 3271m | -14.4m/s | 3.1°C | 19.4% | 696.3hPa | 2.6V | 00:00:00 | 02:27:55 | 00:00:00 | |
| NBG1-10 | 2026-09-06 00:57:13 | 48.25287 | 10.55823 | 108° | 40km/h | 3284m | -13.1m/s | 3.0°C | 18.8% | 695.1hPa | 2.6V | 00:00:00 | 02:27:54 | 00:00:00 | |
| DO3MHA-12 | 2026-09-06 00:57:12 | 48.25290 | 10.55810 | 108° | 35km/h | 3296m | -12.5m/s | 2.9°C | 18.7% | 694.0hPa | 2.6V | 00:00:00 | 02:27:53 | 00:00:00 | |
| DO3MHA-11 | 2026-09-06 00:57:09 | 48.25299 | 10.55771 | 111° | 38km/h | 3333m | -14.0m/s | 2.7°C | 18.9% | 691.1hPa | 2.6V | 00:00:00 | 02:27:50 | 00:00:00 | |
| DO3MHA-12 | 2026-09-06 00:57:07 | 48.25305 | 10.55744 | 108° | 38km/h | 3360m | -13.4m/s | 2.6°C | 18.5% | 688.7hPa | 2.6V | 00:00:00 | 02:27:48 | 00:00:00 | |
| DB0NH | 2026-09-06 00:57:04 | 48.25316 | 10.55701 | 112° | 42km/h | 3397m | -12.4m/s | 2.3°C | 18.1% | 685.4hPa | 2.6V | 00:00:00 | 02:27:45 | 00:00:00 | |
| DB0ND-19 | 2026-09-06 00:56:53 | 48.25365 | 10.55547 | 116° | 40km/h | 3534m | -13.7m/s | 2.3°C | 12.7% | 673.9hPa | 2.6V | 00:00:00 | 00:00:00 | 00:00:00 | |
| DF3TZ-5 | 2026-09-06 00:56:48 | 48.25390 | 10.55481 | 119° | 40km/h | 3598m | -12.4m/s | 1.9°C | 12.5% | 668.6hPa | 2.6V | 00:00:00 | 00:00:00 | 00:00:00 | |
| DO3MHA-12 | 2026-09-06 00:56:47 | 48.25395 | 10.55467 | 120° | 42km/h | 3610m | -13.7m/s | 1.9°C | 12.1% | 667.3hPa | 2.6V | 00:00:00 | 02:27:28 | 00:00:00 | |
| DO3MHA-11 | 2026-09-06 00:56:44 | 48.25412 | 10.55426 | 117° | 42km/h | 3651m | -14.9m/s | 1.7°C | 11.6% | 664.3hPa | 2.6V | 00:00:00 | 02:27:25 | 00:00:00 | |
| DL6DJ-15 | 2026-09-06 00:56:43 | 48.25422 | 10.55397 | 118° | 42km/h | 3678m | -13.6m/s | 1.6°C | 11.5% | 662.0hPa | 2.6V | 00:00:00 | 00:00:00 | 00:00:00 | |
| DO3MHA-12 | 2026-09-06 00:56:42 | 48.25422 | 10.55397 | 119° | 42km/h | 3678m | -13.6m/s | 1.6°C | 11.6% | 662.0hPa | 2.6V | 00:00:00 | 02:27:23 | 00:00:00 | |
| NBG1-10 | 2026-09-06 00:56:40 | 48.25433 | 10.55369 | 123° | 42km/h | 3706m | -14.7m/s | 1.4°C | 11.8% | 659.7hPa | 2.6V | 08:04:00 | 02:27:21 | 00:00:00 | |
| DO3MHA-11 | 2026-09-06 00:56:39 | 48.25438 | 10.55356 | 122° | 42km/h | 3719m | -13.3m/s | 1.3°C | 11.8% | 658.6hPa | 2.5V | 00:00:00 | 02:27:20 | 00:00:00 | |
| DO3MHA-12 | 2026-09-06 00:56:37 | 48.25449 | 10.55329 | 119° | 44km/h | 3743m | -11.2m/s | 1.2°C | 12.0% | 656.5hPa | 2.5V | 00:00:00 | 02:27:18 | 00:00:00 | |
| DO3MHA-11 | 2026-09-06 00:56:34 | 48.25466 | 10.55285 | 122° | 44km/h | 3780m | -12.2m/s | 1.1°C | 14.0% | 653.5hPa | 2.6V | 08:04:00 | 02:27:15 | 00:00:00 | |
| DO3MHA-12 | 2026-09-06 00:56:32 | 48.25477 | 10.55256 | 120° | 42km/h | 3805m | -13.7m/s | 1.0°C | 13.4% | 651.7hPa | 2.5V | 00:00:00 | 02:27:13 | 00:00:00 | |
| DO3MHA-11 | 2026-09-06 00:56:29 | 48.25494 | 10.55214 | 122° | 44km/h | 3844m | -14.1m/s | 0.8°C | 13.6% | 648.5hPa | 2.5V | 00:00:00 | 02:27:10 | 00:00:00 | |
| DO3MHA-12 | 2026-09-06 00:56:27 | 48.25506 | 10.55186 | 122° | 42km/h | 3872m | -14.3m/s | 0.7°C | 13.4% | 646.2hPa | 2.5V | 00:00:00 | 02:27:08 | 00:00:00 | |
| DO3MHA-11 | 2026-09-06 00:56:24 | 48.25525 | 10.55144 | 125° | 42km/h | 3914m | -16.0m/s | 0.6°C | 12.8% | 642.9hPa | 2.5V | 00:00:00 | 02:27:05 | 00:00:00 | |
| DO3MHA-12 | 2026-09-06 00:56:22 | 48.25536 | 10.55118 | 125° | 42km/h | 3944m | -15.4m/s | 0.6°C | 11.1% | 640.6hPa | 2.5V | 00:00:00 | 02:27:03 | 00:00:00 | |
| DB0UT-7 | 2026-09-06 00:56:20 | 48.25548 | 10.55092 | 123° | 44km/h | 3972m | -13.3m/s | 0.6°C | 8.9% | 638.1hPa | 2.6V | 00:00:00 | 00:00:00 | 00:00:00 | |
| DO3MHA-11 | 2026-09-06 00:56:19 | 48.25555 | 10.55079 | 126° | 42km/h | 3985m | -13.5m/s | 0.5°C | 8.7% | 637.2hPa | 2.6V | 00:00:00 | 02:27:00 | 00:00:00 | |
| DO3MHA-12 | 2026-09-06 00:56:17 | 48.25567 | 10.55053 | 125° | 44km/h | 4011m | -14.0m/s | 0.4°C | 8.4% | 635.3hPa | 2.6V | 00:00:00 | 02:26:58 | 00:00:00 | |
| DO3MHA-11 | 2026-09-06 00:56:14 | 48.25586 | 10.55014 | 124° | 42km/h | 4054m | -14.2m/s | 0.0°C | 8.2% | 632.0hPa | 2.6V | 00:00:00 | 02:26:55 | 00:00:00 | |
| DO3MHA-12 | 2026-09-06 00:56:12 | 48.25599 | 10.54987 | 126° | 42km/h | 4082m | -14.6m/s | -0.1°C | 8.8% | 629.8hPa | 2.6V | 00:00:00 | 02:26:53 | 00:00:00 | |
| DB0NH | 2026-09-06 00:56:11 | 48.25605 | 10.54974 | 125° | 44km/h | 4097m | -15.4m/s | -0.2°C | 9.0% | 628.6hPa | 2.6V | 00:00:00 | 02:26:52 | 00:00:00 | |
| DO3MHA-11 | 2026-09-06 00:56:09 | 48.25617 | 10.54947 | 125° | 42km/h | 4125m | -13.1m/s | -0.3°C | 8.7% | 626.2hPa | 2.5V | 00:00:00 | 02:26:50 | 00:00:00 | |
| DO3MHA-12 | 2026-09-06 00:56:07 | 48.25629 | 10.54923 | 126° | 42km/h | 4152m | -13.2m/s | -0.4°C | 10.1% | 624.1hPa | 2.5V | 08:05:00 | 02:26:48 | 00:00:00 | |
| DO3MHA-11 | 2026-09-06 00:56:04 | 48.25648 | 10.54884 | 126° | 42km/h | 4193m | -14.1m/s | -0.6°C | 10.7% | 621.1hPa | 2.6V | 00:00:00 | 02:26:45 | 00:00:00 | |
| DB0ND-19 | 2026-09-06 00:55:51 | 48.25747 | 10.54699 | 125° | 42km/h | 4382m | -14.4m/s | -1.0°C | 7.0% | 606.6hPa | 2.6V | 00:00:00 | 00:00:00 | 00:00:00 | |
| DF3TZ-5 | 2026-09-06 00:55:46 | 48.25773 | 10.54644 | 124° | 40km/h | 4433m | -12.6m/s | -1.3°C | 6.6% | 602.7hPa | 2.6V | 00:00:00 | 00:00:00 | 00:00:00 | |
| DO3MHA-11 | 2026-09-06 00:55:44 | 48.25785 | 10.54616 | 123° | 42km/h | 4456m | -10.8m/s | -1.3°C | 5.6% | 600.8hPa | 2.6V | 00:00:00 | 02:26:25 | 00:00:00 | |
| DO3MHA-12 | 2026-09-06 00:55:42 | 48.25797 | 10.54589 | 124° | 42km/h | 4481m | -13.5m/s | -1.3°C | 5.4% | 599.0hPa | 2.6V | 00:00:00 | 02:26:23 | 00:00:00 | |
| DB0NH | 2026-09-06 00:55:41 | 48.25803 | 10.54576 | 121° | 47km/h | 4492m | -11.7m/s | -1.3°C | 4.8% | 598.0hPa | 2.6V | 00:00:00 | 02:26:22 | 00:00:00 | |
| DO3MHA-11 | 2026-09-06 00:55:39 | 48.25814 | 10.54549 | 121° | 44km/h | 4515m | -12.7m/s | -1.4°C | 3.6% | 596.3hPa | 2.6V | 00:00:00 | 02:26:20 | 00:00:00 | |
| DO3MHA-12 | 2026-09-06 00:55:37 | 48.25825 | 10.54520 | 120° | 44km/h | 4538m | -12.0m/s | -1.5°C | 3.2% | 594.5hPa | 2.6V | 00:00:00 | 02:26:18 | 00:00:00 | |
| OE5DXL-15 | 2026-09-06 00:55:35 | 48.25837 | 10.54491 | 123° | 51km/h | 4560m | -10.9m/s | -1.6°C | 3.3% | 592.7hPa | 2.5V | 00:00:00 | 00:00:00 | 00:00:00 | |
| DO3MHA-11 | 2026-09-06 00:55:34 | 48.25843 | 10.54477 | 122° | 44km/h | 4572m | -12.3m/s | -1.7°C | 3.2% | 592.1hPa | 2.5V | 00:00:00 | 02:26:15 | 00:00:00 | |
| DO3MHA-12 | 2026-09-06 00:55:32 | 48.25854 | 10.54449 | 123° | 46km/h | 4597m | -13.1m/s | -1.8°C | 3.0% | 590.3hPa | 2.5V | 00:00:00 | 02:26:13 | 00:00:00 | |
| DO3MHA-11 | 2026-09-06 00:55:29 | 48.25873 | 10.54405 | 124° | 49km/h | 4632m | -12.0m/s | -1.9°C | 3.4% | 587.5hPa | 2.5V | 00:00:00 | 02:26:10 | 00:00:00 | |
| DO3MHA-12 | 2026-09-06 00:55:27 | 48.25886 | 10.54376 | 124° | 51km/h | 4657m | -14.3m/s | -2.0°C | 3.8% | 585.8hPa | 2.5V | 00:00:00 | 02:26:08 | 00:00:00 | |
| DO3MHA-12 | 2026-09-06 00:55:22 | 48.25923 | 10.54297 | 125° | 51km/h | 4721m | -11.5m/s | -2.3°C | 3.2% | 581.1hPa | 2.5V | 08:06:00 | 02:26:03 | 00:00:00 | |
| DB0ND-19 | 2026-09-06 00:55:20 | 48.25946 | 10.54251 | 128° | 51km/h | 4755m | -11.0m/s | -2.5°C | 2.7% | 578.5hPa | 2.6V | 00:00:00 | 00:00:00 | 00:00:00 | |
| DO3MHA-11 | 2026-09-06 00:55:19 | 48.25946 | 10.54251 | 129° | 53km/h | 4755m | -11.0m/s | -2.5°C | 2.8% | 578.4hPa | 2.6V | 00:00:00 | 02:26:00 | 00:00:00 | |
| DM7RM-13 | 2026-09-06 00:55:18 | 48.25946 | 10.54251 | 130° | 51km/h | 4755m | -11.0m/s | -2.5°C | 2.7% | 578.5hPa | 2.5V | 08:06:00 | 00:00:00 | 00:00:00 | |
| DO3MHA-12 | 2026-09-06 00:55:17 | 48.25962 | 10.54220 | 125° | 53km/h | 4778m | -13.2m/s | -2.6°C | 2.7% | 576.9hPa | 2.5V | 00:00:00 | 02:25:58 | 00:00:00 | |
| DO3MHA-11 | 2026-09-06 00:55:14 | 48.25987 | 10.54173 | 130° | 53km/h | 4815m | -12.4m/s | -2.8°C | 2.9% | 574.2hPa | 2.5V | 00:00:00 | 02:25:55 | 00:00:00 | |
| DO3MHA-12 | 2026-09-06 00:55:12 | 48.26003 | 10.54144 | 129° | 55km/h | 4838m | -11.6m/s | -2.8°C | 2.9% | 572.5hPa | 2.5V | 00:00:00 | 02:25:53 | 00:00:00 | |
| DB0NH | 2026-09-06 00:55:11 | 48.26012 | 10.54129 | 129° | 60km/h | 4849m | -10.8m/s | -2.6°C | 2.9% | 571.7hPa | 2.5V | 00:00:00 | 02:25:52 | 00:00:00 | |
| DL6DJ-15 | 2026-09-06 00:55:10 | 48.26029 | 10.54097 | 127° | 55km/h | 4873m | -12.2m/s | -2.8°C | 3.0% | 569.9hPa | 2.5V | 00:00:00 | 00:00:00 | 00:00:00 | |
| DO3MHA-11 | 2026-09-06 00:55:09 | 48.26029 | 10.54097 | 128° | 57km/h | 4873m | -12.1m/s | -2.7°C | 3.1% | 569.8hPa | 2.5V | 00:00:00 | 02:25:50 | 00:00:00 | |
| DO3MHA-12 | 2026-09-06 00:55:07 | 48.26047 | 10.54064 | 128° | 57km/h | 4896m | -13.0m/s | -2.9°C | 3.4% | 568.1hPa | 2.5V | 00:00:00 | 02:25:48 | 00:00:00 | |
| OE5DXL-15 | 2026-09-06 00:55:05 | 48.26065 | 10.54030 | 127° | 62km/h | 4922m | -12.2m/s | -3.1°C | 3.5% | 566.3hPa | 2.6V | 08:06:00 | 00:00:00 | 00:00:00 | |
| DO3MHA-11 | 2026-09-06 00:55:04 | 48.26074 | 10.54013 | 126° | 57km/h | 4934m | -14.2m/s | -3.1°C | 3.5% | 565.6hPa | 2.6V | 08:06:00 | 02:25:45 | 00:00:00 | |
| DB0ND-19 | 2026-09-06 00:54:49 | 48.26218 | 10.53720 | 125° | 64km/h | 5138m | -12.9m/s | -4.1°C | 2.9% | 551.2hPa | 2.6V | 00:00:00 | 00:00:00 | 00:00:00 | |
| DO3MHA-12 | 2026-09-06 00:54:47 | 48.26227 | 10.53700 | 126° | 66km/h | 5150m | -12.3m/s | -4.1°C | 2.6% | 550.3hPa | 2.6V | 00:00:00 | 02:25:28 | 00:00:00 | |
| DF3TZ-5 | 2026-09-06 00:54:44 | 48.26258 | 10.53642 | 128° | 68km/h | 5189m | -13.7m/s | -4.4°C | 3.2% | 547.6hPa | 2.6V | 00:00:00 | 00:00:00 | 00:00:00 | |
| DF9NV-10 | 2026-09-06 00:54:41 | 48.26289 | 10.53581 | 131° | 64km/h | 5229m | -13.0m/s | -4.7°C | 8.3% | 544.7hPa | 2.6V | 08:06:00 | 00:00:00 | 00:00:00 | |
| DO3MHA-11 | 2026-09-06 00:54:40 | 48.26299 | 10.53562 | 131° | 69km/h | 5241m | -12.9m/s | -4.7°C | 7.9% | 543.8hPa | 2.6V | 00:00:00 | 02:25:21 | 00:00:00 | |
| DL6DJ-15 | 2026-09-06 00:54:39 | 48.26322 | 10.53523 | 128° | 68km/h | 5267m | -14.6m/s | -4.9°C | 10.1% | 542.2hPa | 2.6V | 00:00:00 | 00:00:00 | 00:00:00 | |
| DO3MHA-12 | 2026-09-06 00:54:37 | 48.26333 | 10.53503 | 129° | 69km/h | 5281m | -14.0m/s | -4.9°C | 14.9% | 541.2hPa | 2.6V | 00:00:00 | 02:25:18 | 00:00:00 | |
| OE5DXL-15 | 2026-09-06 00:54:35 | 48.26356 | 10.53463 | 132° | 68km/h | 5308m | -15.1m/s | -5.1°C | 22.3% | 539.2hPa | 2.6V | 00:00:00 | 00:00:00 | 00:00:00 | |
| DO3MHA-11 | 2026-09-06 00:54:30 | 48.26415 | 10.53365 | 134° | 69km/h | 5376m | -13.7m/s | -5.6°C | 40.0% | 534.6hPa | 2.6V | 00:00:00 | 02:25:11 | 00:00:00 | |
| NBG1-10 | 2026-09-06 00:54:28 | 48.26439 | 10.53326 | 135° | 66km/h | 5403m | -13.3m/s | -5.7°C | 41.4% | 532.8hPa | 2.6V | 00:00:00 | 02:25:09 | 00:00:00 | |
| DO3MHA-12 | 2026-09-06 00:54:27 | 48.26451 | 10.53307 | 135° | 69km/h | 5416m | -13.5m/s | -5.8°C | 42.8% | 532.0hPa | 2.6V | 00:00:00 | 02:25:08 | 00:00:00 | |
| DO3MHA-11 | 2026-09-06 00:54:20 | 48.26536 | 10.53172 | 135° | 68km/h | 5513m | -13.7m/s | -5.8°C | 34.3% | 525.3hPa | 2.6V | 00:00:00 | 02:25:01 | 00:00:00 | |
| DF9NV-10 | 2026-09-06 00:54:19 | 48.26536 | 10.53172 | 135° | 66km/h | 5513m | -13.8m/s | -5.9°C | 33.6% | 525.4hPa | 2.6V | 08:07:00 | 00:00:00 | 00:00:00 | |
| DB0ND-19 | 2026-09-06 00:54:18 | 48.26572 | 10.53117 | 133° | 68km/h | 5550m | -13.3m/s | -5.8°C | 37.0% | 522.8hPa | 2.6V | 00:00:00 | 00:00:00 | 00:00:00 | |
| DO3MHA-12 | 2026-09-06 00:54:17 | 48.26572 | 10.53117 | 134° | 66km/h | 5551m | -13.3m/s | -5.7°C | 37.8% | 522.8hPa | 2.6V | 08:07:00 | 02:24:58 | 00:00:00 | |
| DM7RM-13 | 2026-09-06 00:54:14 | 48.26596 | 10.53079 | 134° | 69km/h | 5575m | -12.3m/s | -5.8°C | 36.3% | 521.2hPa | 2.5V | 08:07:00 | 00:00:00 | 00:00:00 | |
| DF3TZ-5 | 2026-09-06 00:54:13 | 48.26620 | 10.53042 | 134° | 64km/h | 5599m | -12.9m/s | -5.9°C | 35.1% | 519.6hPa | 2.5V | 00:00:00 | 00:00:00 | 00:00:00 | |
| DB0NH | 2026-09-06 00:54:10 | 48.26655 | 10.52990 | 136° | 68km/h | 5638m | -13.3m/s | -5.9°C | 34.2% | 517.1hPa | 2.5V | 00:00:00 | 02:24:51 | 00:00:00 | |
| DO3MHA-12 | 2026-09-06 00:54:07 | 48.26690 | 10.52938 | 135° | 64km/h | 5676m | -12.5m/s | -5.8°C | 33.7% | 514.7hPa | 2.5V | 00:00:00 | 02:24:48 | 00:00:00 | |
| OE5DXL-15 | 2026-09-06 00:54:05 | 48.26713 | 10.52902 | 132° | 69km/h | 5699m | -12.3m/s | -5.9°C | 34.0% | 513.1hPa | 2.5V | 00:00:00 | 00:00:00 | 00:00:00 | |
| HARRO8 | 2026-09-06 00:54:01 | 48.26768 | 10.52811 | 133° | 62km/h | 5760m | -12.4m/s | -6.1°C | 31.4% | 509.2hPa | 2.5V | 00:00:00 | 00:00:00 | 00:00:00 | |
| DB0ND-19 | 2026-09-06 00:53:47 | 48.26937 | 10.52555 | 136° | 68km/h | 5926m | -11.7m/s | -7.2°C | 31.5% | 498.4hPa | 2.5V | 00:00:00 | 00:00:00 | 00:00:00 | |
| DF3TZ-5 | 2026-09-06 00:53:42 | 48.26988 | 10.52480 | 137° | 71km/h | 5974m | -13.1m/s | -7.5°C | 31.3% | 495.4hPa | 2.5V | 00:00:00 | 00:00:00 | 00:00:00 | |
| DO3MHA-12 | 2026-09-06 00:53:41 | 48.27001 | 10.52461 | 134° | 71km/h | 5987m | -12.8m/s | -7.5°C | 32.0% | 494.6hPa | 2.5V | 00:00:00 | 02:24:22 | 00:00:00 | |
| DB0NH | 2026-09-06 00:53:40 | 48.27014 | 10.52442 | 136° | 75km/h | 5999m | -13.3m/s | -7.6°C | 31.8% | 493.8hPa | 2.6V | 00:00:00 | 02:24:21 | 00:00:00 | |
| DO3MHA-11 | 2026-09-06 00:53:39 | 48.27027 | 10.52423 | 137° | 71km/h | 6012m | -13.2m/s | -7.7°C | 31.8% | 493.0hPa | 2.6V | 08:07:00 | 02:24:20 | 00:00:00 | |
| DL6DJ-15 | 2026-09-06 00:53:37 | 48.27066 | 10.52367 | 135° | 69km/h | 6050m | -12.7m/s | -8.0°C | 31.1% | 490.7hPa | 2.6V | 00:00:00 | 00:00:00 | 00:00:00 | |
| OE5DXL-15 | 2026-09-06 00:53:34 | 48.27092 | 10.52330 | 136° | 77km/h | 6074m | -13.1m/s | -8.1°C | 32.0% | 489.1hPa | 2.6V | 00:00:00 | 02:24:15 | 00:00:00 | |
| DM7RM-13 | 2026-09-06 00:53:33 | 48.27092 | 10.52330 | 136° | 71km/h | 6074m | -13.1m/s | -8.2°C | 31.1% | 489.2hPa | 2.5V | 08:08:00 | 00:00:00 | 00:00:00 | |
| DO3MHA-12 | 2026-09-06 00:53:31 | 48.27131 | 10.52270 | 133° | 75km/h | 6109m | -12.4m/s | -8.3°C | 31.7% | 486.8hPa | 2.5V | 00:00:00 | 02:24:12 | 00:00:00 | |
| HARRO8 | 2026-09-06 00:53:30 | 48.27157 | 10.52229 | 133° | 73km/h | 6133m | -12.1m/s | -8.5°C | 31.4% | 485.3hPa | 2.5V | 00:00:00 | 00:00:00 | 00:00:00 | |
| DO3MHA-11 | 2026-09-06 00:53:29 | 48.27157 | 10.52229 | 134° | 77km/h | 6133m | -12.0m/s | -8.4°C | 32.2% | 485.3hPa | 2.5V | 00:00:00 | 02:24:10 | 00:00:00 | |
| NBG1-10 | 2026-09-06 00:53:22 | 48.27254 | 10.52087 | 136° | 78km/h | 6219m | -13.3m/s | -8.7°C | 29.2% | 480.0hPa | 2.5V | 00:00:00 | 02:24:03 | 00:00:00 | |
| DO3MHA-12 | 2026-09-06 00:53:21 | 48.27268 | 10.52067 | 139° | 77km/h | 6232m | -13.8m/s | -8.8°C | 28.5% | 479.1hPa | 2.5V | 00:00:00 | 02:24:02 | 00:00:00 | |
| DO3MHA-11 | 2026-09-06 00:53:19 | 48.27297 | 10.52027 | 137° | 77km/h | 6259m | -14.5m/s | -9.0°C | 28.7% | 477.5hPa | 2.5V | 00:00:00 | 02:24:00 | 00:00:00 | |
| DB0ND-19 | 2026-09-06 00:53:16 | 48.27355 | 10.51949 | 137° | 78km/h | 6308m | -13.4m/s | -9.5°C | 29.0% | 474.5hPa | 2.5V | 00:00:00 | 00:00:00 | 00:00:00 | |
| DM7RM-13 | 2026-09-06 00:53:13 | 48.27369 | 10.51928 | 137° | 78km/h | 6321m | -13.0m/s | -9.6°C | 29.5% | 473.7hPa | 2.5V | 08:08:00 | 00:00:00 | 00:00:00 | |
| DO3MHA-12 | 2026-09-06 00:53:11 | 48.27412 | 10.51869 | 138° | 77km/h | 6358m | -12.9m/s | -9.9°C | 31.4% | 471.4hPa | 2.5V | 00:00:00 | 02:23:52 | 00:00:00 | |
| DB0NH | 2026-09-06 00:53:10 | 48.27427 | 10.51849 | 136° | 78km/h | 6371m | -13.7m/s | -10.0°C | 31.6% | 470.6hPa | 2.5V | 08:08:00 | 02:23:51 | 00:00:00 | |
| DL6DJ-15 | 2026-09-06 00:53:06 | 48.27498 | 10.51749 | 135° | 77km/h | 6436m | -12.7m/s | -10.6°C | 30.4% | 466.6hPa | 2.5V | 00:00:00 | 00:00:00 | 00:00:00 | |
| DO3MHA-11 | 2026-09-06 00:53:05 | 48.27498 | 10.51749 | 136° | 78km/h | 6436m | -12.7m/s | -10.6°C | 31.3% | 466.5hPa | 2.5V | 00:00:00 | 02:23:46 | 00:00:00 | |
| OE5DXL-15 | 2026-09-06 00:53:04 | 48.27512 | 10.51728 | 134° | 80km/h | 6448m | -12.2m/s | -10.7°C | 31.2% | 465.8hPa | 2.6V | 00:00:00 | 00:00:00 | 00:00:00 | |
| HARRO8 | 2026-09-06 00:52:59 | 48.27597 | 10.51602 | 134° | 80km/h | 6522m | -13.3m/s | -11.3°C | 30.4% | 461.4hPa | 2.6V | 00:00:00 | 00:00:00 | 00:00:00 | |
| DF9NV-10 | 2026-09-06 00:52:56 | 48.27626 | 10.51560 | 137° | 77km/h | 6547m | -13.2m/s | -11.5°C | 31.0% | 459.9hPa | 2.6V | 08:09:00 | 00:00:00 | 00:00:00 | |
| DO3MHA-11 | 2026-09-06 00:52:55 | 48.27640 | 10.51538 | 136° | 80km/h | 6560m | -13.3m/s | -11.6°C | 32.2% | 459.2hPa | 2.6V | 00:00:00 | 02:23:36 | 00:00:00 | |
| DM7RM-13 | 2026-09-06 00:52:53 | 48.27655 | 10.51517 | 135° | 80km/h | 6572m | -13.8m/s | -11.7°C | 31.5% | 458.4hPa | 2.6V | 08:09:00 | 00:00:00 | 00:00:00 | |
| DK7TD | 2026-09-06 00:52:34 | 48.27951 | 10.51088 | 136° | 84km/h | 6828m | -13m/s | -14.2°C | 45.6% | 443.3hPa | 2.6V | 08:09:23 | 02:23:15 | 00:00:00 | |
| DK7TD | 2026-09-06 00:52:23 | 48.28119 | 10.50848 | 137° | 84km/h | 6972m | -13.1m/s | -15.5°C | 48.3% | 434.9hPa | 2.5V | 08:09:23 | 02:23:04 | 00:00:00 | |
| DK7TD | 2026-09-06 00:52:12 | 48.28290 | 10.50604 | 135° | 88km/h | 7113m | -12.8m/s | -16.6°C | 46.7% | 427.1hPa | 2.5V | 08:09:23 | 02:22:53 | 00:00:00 | |
| DK7TD | 2026-09-06 00:52:01 | 48.28461 | 10.50345 | 133° | 88km/h | 7251m | -12.7m/s | -17.6°C | 46.6% | 419.2hPa | 2.5V | 08:10:14 | 02:22:42 | 00:00:00 | |
| DK7TD | 2026-09-06 00:51:51 | 48.28613 | 10.50111 | 134° | 88km/h | 7375m | -12.9m/s | -18.6°C | 46.3% | 412.3hPa | 2.5V | 08:10:14 | 02:22:32 | 00:00:00 | |
| DK7TD | 2026-09-06 00:51:41 | 48.28759 | 10.49873 | 129° | 86km/h | 7500m | -13m/s | -19.6°C | 45% | 405.5hPa | 2.5V | 08:10:14 | 02:22:22 | 00:00:00 | |
| DK7TD | 2026-09-06 00:51:30 | 48.28910 | 10.49598 | 129° | 84km/h | 7637m | -12.9m/s | -20.7°C | 44.6% | 398.1hPa | 2.5V | 08:10:14 | 02:22:11 | 00:00:00 | |
| DK7TD | 2026-09-06 00:51:20 | 48.29045 | 10.49335 | 125° | 88km/h | 7760m | -12.3m/s | -21.8°C | 36.4% | 391.4hPa | 2.5V | 08:10:14 | 02:22:01 | 00:00:00 | |
| DK7TD | 2026-09-06 00:51:09 | 48.29183 | 10.49044 | 124° | 84km/h | 7895m | -14.4m/s | -22.8°C | 40.5% | 384.3hPa | 2.5V | 08:11:05 | 02:21:50 | 00:00:00 | |
| DK7TD | 2026-09-06 00:50:59 | 48.29300 | 10.48786 | 123° | 82km/h | 8024m | -13.1m/s | -23.7°C | 37.6% | 377.7hPa | 2.5V | 08:11:05 | 02:21:40 | 00:00:00 | |
| DK7TD | 2026-09-06 00:50:49 | 48.29416 | 10.48519 | 123° | 82km/h | 8151m | -13.1m/s | -24.8°C | 37% | 371hPa | 2.5V | 08:11:05 | 02:21:30 | 00:00:00 | |
| DK7TD | 2026-09-06 00:50:38 | 48.29539 | 10.48221 | 122° | 82km/h | 8292m | -13.2m/s | -26.2°C | 43.9% | 363.9hPa | 2.5V | 08:11:05 | 02:21:19 | 00:00:00 | |
| DK7TD | 2026-09-06 00:50:28 | 48.29645 | 10.47944 | 119° | 84km/h | 8418m | -12.8m/s | -27.3°C | 44.8% | 357.6hPa | 2.5V | 08:11:05 | 02:21:09 | 00:00:00 | |
| DK7TD | 2026-09-06 00:50:18 | 48.29748 | 10.47657 | 117° | 86km/h | 8548m | -12.9m/s | -27.9°C | 28% | 351.3hPa | 2.5V | 08:11:56 | 02:20:59 | 00:00:00 | |
| DK7TD | 2026-09-06 00:50:07 | 48.29862 | 10.47338 | 118° | 89km/h | 8687m | -13.1m/s | -29°C | 25.1% | 344.7hPa | 2.6V | 08:11:56 | 02:20:48 | 00:00:00 | |
| DK7TD | 2026-09-06 00:49:56 | 48.29981 | 10.47017 | 120° | 91km/h | 8833m | -13.7m/s | -30.3°C | 26.4% | 337.8hPa | 2.5V | 08:11:56 | 02:20:37 | 00:00:00 | |
| DK7TD | 2026-09-06 00:49:46 | 48.30096 | 10.46703 | 117° | 100km/h | 8968m | -12.4m/s | -31.5°C | 26.2% | 331.5hPa | 2.5V | 08:11:56 | 02:20:27 | 00:00:00 | |
| DK7TD | 2026-09-06 00:49:35 | 48.30230 | 10.46335 | 120° | 99km/h | 9108m | -12.8m/s | -32°C | 15.1% | 325hPa | 2.5V | 08:11:56 | 02:20:16 | 00:00:00 | |
| DK7TD | 2026-09-06 00:49:25 | 48.30358 | 10.46013 | 120° | 100km/h | 9237m | -13.7m/s | -33.1°C | 19.3% | 319.2hPa | 2.5V | 08:12:47 | 02:20:06 | 00:00:00 | |
| DK7TD | 2026-09-06 00:49:14 | 48.30500 | 10.45665 | 122° | 99km/h | 9379m | -13.5m/s | -34.4°C | 19.7% | 312.7hPa | 2.5V | 08:12:47 | 02:19:55 | 00:00:00 | |
| DK7TD | 2026-09-06 00:49:04 | 48.30633 | 10.45362 | 125° | 97km/h | 9513m | -13.4m/s | -35.2°C | 14.4% | 306.8hPa | 2.6V | 08:12:47 | 02:19:45 | 00:00:00 | |
| DK7TD | 2026-09-06 00:48:54 | 48.30782 | 10.45059 | 127° | 104km/h | 9644m | -13.3m/s | -35.8°C | 9.5% | 301hPa | 2.5V | 08:12:47 | 02:19:35 | 00:00:00 | |
| HARRO8 | 2026-09-06 00:48:50 | 48.30847 | 10.44932 | 126° | 106km/h | 9692m | -12.4m/s | -36.0°C | 6.8% | 298.9hPa | 2.5V | 00:00:00 | 00:00:00 | 00:00:00 | |
| DK7TD | 2026-09-06 00:48:43 | 48.30958 | 10.44703 | 127° | 106km/h | 9781m | -13.4m/s | -36.4°C | 9.2% | 295.2hPa | 2.5V | 08:12:47 | 02:19:24 | 00:00:00 | |
| DK7TD | 2026-09-06 00:48:33 | 48.31121 | 10.44369 | 127° | 111km/h | 9918m | -13.7m/s | -37.4°C | 9.9% | 289.4hPa | 2.6V | 08:13:38 | 02:19:14 | 00:00:00 | |
| DK7TD | 2026-09-06 00:48:22 | 48.31296 | 10.43990 | 124° | 108km/h | 10068m | -13.4m/s | -38.5°C | 14.4% | 283.2hPa | 2.5V | 08:13:38 | 02:19:03 | 00:00:00 | |
| DK7TD | 2026-09-06 00:48:11 | 48.31465 | 10.43617 | 125° | 110km/h | 10217m | -14.8m/s | -39.5°C | 18.6% | 277.2hPa | 2.5V | 08:13:38 | 02:18:52 | 00:00:00 | |
| DK7TD | 2026-09-06 00:48:00 | 48.31641 | 10.43245 | 124° | 111km/h | 10364m | -12.3m/s | -40.9°C | 21.3% | 271.3hPa | 2.6V | 08:13:38 | 02:18:41 | 00:00:00 | |
| DK7TD | 2026-09-06 00:47:49 | 48.31821 | 10.42865 | 127° | 113km/h | 10519m | -15.1m/s | -42.3°C | 21.6% | 265.2hPa | 2.5V | 08:14:29 | 02:18:30 | 00:00:00 | |
| HARRO8 | 2026-09-06 00:47:48 | 48.31838 | 10.42830 | 126° | 115km/h | 10534m | -15.0m/s | -42.3°C | 15.5% | 264.7hPa | 2.5V | 00:00:00 | 00:00:00 | 00:00:00 | |
| DK7TD | 2026-09-06 00:47:38 | 48.32010 | 10.42478 | 128° | 115km/h | 10674m | -15.2m/s | -43.6°C | 22.6% | 259.2hPa | 2.5V | 08:14:29 | 02:18:19 | 00:00:00 | |
| DK7TD | 2026-09-06 00:47:27 | 48.32205 | 10.42088 | 127° | 122km/h | 10830m | -13.8m/s | -44.9°C | 21.3% | 253.2hPa | 2.5V | 08:14:29 | 02:18:08 | 00:00:00 | |
| DK7TD | 2026-09-06 00:47:17 | 48.32399 | 10.41719 | 129° | 128km/h | 10965m | -14m/s | -45.9°C | 22.7% | 248hPa | 2.5V | 08:14:29 | 02:17:58 | 00:00:00 | |
| DK7TD | 2026-09-06 00:47:06 | 48.32617 | 10.41303 | 127° | 126km/h | 11120m | -15.7m/s | -47.2°C | 28.1% | 242.4hPa | 2.5V | 08:14:29 | 02:17:47 | 00:00:00 | |
| DK7TD | 2026-09-06 00:46:55 | 48.32831 | 10.40884 | 127° | 124km/h | 11282m | -15.8m/s | -48.6°C | 32.2% | 236.6hPa | 2.6V | 08:15:20 | 02:17:36 | 00:00:00 | |
| DO3MHA-11 | 2026-09-06 00:46:55 | 48.32831 | 10.40884 | 128° | 126km/h | 11282m | -15.8m/s | -48.6°C | 26.9% | 236.5hPa | 2.5V | 00:00:00 | 02:17:36 | 00:00:00 | |
| DM0DOS-11 | 2026-09-06 00:46:53 | 48.32889 | 10.40769 | 126° | 124km/h | 11329m | -16.1m/s | -49.1°C | 28.3% | 234.9hPa | 2.5V | 08:14:38 | 02:17:33 | 00:00:00 | |
| DL6DJ-15 | 2026-09-06 00:46:53 | 48.32889 | 10.40768 | 126° | 124km/h | 11330m | -16.1m/s | -49.1°C | 24.1% | 234.9hPa | 2.5V | 00:00:00 | 00:00:00 | 00:00:00 | |
| HARRO8 | 2026-09-06 00:46:46 | 48.33004 | 10.40539 | 127° | 126km/h | 11420m | -15.1m/s | -50.0°C | 26.4% | 231.6hPa | 2.5V | 00:00:00 | 00:00:00 | 00:00:00 | |
| DM0DOS-11 | 2026-09-06 00:46:46 | 48.33080 | 10.40384 | 127° | 124km/h | 11477m | -14.3m/s | -50.5°C | 32.1% | 229.5hPa | 2.6V | 08:14:48 | 02:17:23 | 00:00:00 | |
| DK7TD | 2026-09-06 00:46:44 | 48.33042 | 10.40461 | 126° | 128km/h | 11449m | -14.5m/s | -50.2°C | 36.9% | 230.6hPa | 2.5V | 08:15:20 | 02:17:25 | 00:00:00 | |
| DK7TD | 2026-09-06 00:46:34 | 48.33235 | 10.40081 | 128° | 128km/h | 11595m | -13.9m/s | -51.7°C | 39.2% | 225.6hPa | 2.5V | 08:15:20 | 02:17:15 | 00:00:00 | |
| DM0DOS-11 | 2026-09-06 00:46:33 | 48.33274 | 10.40004 | 127° | 128km/h | 11622m | -13.8m/s | -51.9°C | 34.2% | 224.5hPa | 2.5V | 08:14:58 | 02:17:13 | 00:00:00 | |
| DK7TD | 2026-09-06 00:46:24 | 48.33433 | 10.39705 | 128° | 124km/h | 11739m | -15.2m/s | -53°C | 40.1% | 220.6hPa | 2.5V | 08:15:20 | 02:17:05 | 00:00:00 | |
| DK7TD | 2026-09-06 00:46:13 | 48.33649 | 10.39290 | 128° | 126km/h | 11900m | -15.9m/s | -54.3°C | 45.2% | 215.1hPa | 2.5V | 08:15:20 | 02:16:54 | 00:00:00 | |
| DK7TD | 2026-09-06 00:46:03 | 48.33847 | 10.38913 | 129° | 124km/h | 12042m | -15.2m/s | -55.6°C | 49.2% | 210.2hPa | 2.6V | 08:16:11 | 02:16:44 | 00:00:00 | |
| DF3TZ-5 | 2026-09-06 00:45:56 | 48.33979 | 10.38650 | 124° | 124km/h | 12147m | -14.2m/s | -56.6°C | 39.3% | 206.8hPa | 2.5V | 00:00:00 | 00:00:00 | 00:00:00 | |
| DO3MHA-11 | 2026-09-06 00:45:55 | 48.33997 | 10.38611 | 125° | 126km/h | 12162m | -14.3m/s | -56.6°C | 46.4% | 206.2hPa | 2.5V | 00:00:00 | 02:16:36 | 00:00:00 | |
| DM0DOS-11 | 2026-09-06 00:45:54 | 48.34137 | 10.38291 | 123° | 128km/h | 12272m | -15.4m/s | -57.4°C | 45% | 202.7hPa | 2.5V | 08:15:43 | 02:16:28 | 00:00:00 | |
| DK7TD | 2026-09-06 00:45:53 | 48.34032 | 10.38533 | 124° | 122km/h | 12191m | -14.2m/s | -56.8°C | 50.6% | 205.4hPa | 2.5V | 08:16:11 | 02:16:34 | 00:00:00 | |
| DL6DJ-15 | 2026-09-06 00:45:51 | 48.34084 | 10.38414 | 122° | 126km/h | 12231m | -13.2m/s | -57.2°C | 38.9% | 204.1hPa | 2.6V | 00:00:00 | 00:00:00 | 00:00:00 | |
| DK7TD | 2026-09-06 00:45:43 | 48.34208 | 10.38128 | 124° | 128km/h | 12328m | -15.4m/s | -57.6°C | 47.1% | 200.9hPa | 2.6V | 08:16:11 | 02:16:24 | 00:00:00 | |
| OE5DRO-10 | 2026-09-06 00:45:42 | 48.34226 | 10.38087 | 124° | 130km/h | 12343m | -14.0m/s | -57.7°C | 43.0% | 200.4hPa | 2.5V | 00:00:00 | 00:00:00 | 00:00:00 | |
| DO3MHA-12 | 2026-09-06 00:45:40 | 48.34262 | 10.38003 | 123° | 130km/h | 12373m | -16.0m/s | -57.9°C | 42.9% | 199.5hPa | 2.5V | 00:00:00 | 02:16:21 | 00:00:00 | |
| DM7RM-13 | 2026-09-06 00:45:38 | 48.34299 | 10.37921 | 125° | 131km/h | 12403m | -15.0m/s | -58.1°C | 35.6% | 198.6hPa | 2.6V | 08:16:00 | 00:00:00 | 00:00:00 | |
| PG1ADW-2 | 2026-09-06 00:45:36 | 48.34335 | 10.37839 | 124° | 130km/h | 12435m | -16.8m/s | -58.2°C | 42.3% | 197.6hPa | 2.6V | 08:15:00 | 00:00:00 | 00:00:00 | |
| DO3MHA-11 | 2026-09-06 00:45:35 | 48.34354 | 10.37798 | 124° | 130km/h | 12451m | -16.1m/s | -58.3°C | 42.4% | 197.1hPa | 2.5V | 00:00:00 | 02:16:16 | 00:00:00 | |
| DF7PN | 2026-09-06 00:45:34 | 48.34390 | 10.37714 | 122° | 130km/h | 12484m | -15.6m/s | -58.5°C | 35.4% | 196.1hPa | 2.5V | 00:00:00 | 00:00:00 | 00:00:00 | |
| DM0DOS-11 | 2026-09-06 00:45:32 | 48.34497 | 10.37465 | 122° | 130km/h | 12578m | -17.2m/s | -59.1°C | 42.8% | 193.2hPa | 2.5V | 08:16:03 | 02:16:08 | 00:00:00 | |
| DK7TD | 2026-09-06 00:45:32 | 48.34408 | 10.37673 | 124° | 128km/h | 12499m | -15.6m/s | -58.6°C | 47.7% | 195.7hPa | 2.5V | 08:16:11 | 02:16:13 | 00:00:00 | |
| DO3MHA-12 | 2026-09-06 00:45:30 | 48.34444 | 10.37590 | 123° | 130km/h | 12531m | -16.4m/s | -58.7°C | 42.2% | 194.7hPa | 2.6V | 00:00:00 | 02:16:11 | 00:00:00 | |
| OE5DXL-15 | 2026-09-06 00:45:27 | 48.34497 | 10.37465 | 123° | 130km/h | 12578m | -17.2m/s | -59.1°C | 42.8% | 193.2hPa | 2.6V | 00:00:00 | 00:00:00 | 00:00:00 | |
| DB0ND-19 | 2026-09-06 00:45:26 | 48.34515 | 10.37424 | 121° | 131km/h | 12595m | -16.4m/s | -59.3°C | 36.1% | 192.7hPa | 2.6V | 00:00:00 | 00:00:00 | 00:00:00 | |
| DO3MHA-11 | 2026-09-06 00:45:25 | 48.34532 | 10.37381 | 122° | 130km/h | 12611m | -15.9m/s | -59.4°C | 43.3% | 192.1hPa | 2.6V | 00:00:00 | 02:16:06 | 00:00:00 | |
| DJ8HS-15 | 2026-09-06 00:45:24 | 48.34549 | 10.37339 | 123° | 130km/h | 12626m | -15.9m/s | -59.5°C | 43.5% | 191.6hPa | 2.6V | 00:00:00 | 02:16:05 | 00:00:00 | |
| OE5DRO-10 | 2026-09-06 00:45:23 | 48.34567 | 10.37297 | 121° | 130km/h | 12642m | -16.9m/s | -59.7°C | 43.4% | 191.2hPa | 2.6V | 00:00:00 | 00:00:00 | 00:00:00 | |
| DM0DOS-11 | 2026-09-06 00:45:22 | 48.34670 | 10.37045 | 121° | 131km/h | 12741m | -17.2m/s | -60.7°C | 44.6% | 188.2hPa | 2.6V | 08:16:13 | 02:15:58 | 00:00:00 | |
| DK7TD | 2026-09-06 00:45:22 | 48.34584 | 10.37255 | 122° | 128km/h | 12658m | -16.8m/s | -59.9°C | 49.4% | 190.7hPa | 2.5V | 08:16:11 | 02:16:03 | 00:00:00 | |
| DL6DJ-15 | 2026-09-06 00:45:20 | 48.34635 | 10.37130 | 122° | 128km/h | 12707m | -17.1m/s | -60.3°C | 36.4% | 189.3hPa | 2.5V | 00:00:00 | 00:00:00 | 00:00:00 | |
| DH7VM-15 | 2026-09-06 00:45:19 | 48.34635 | 10.37130 | 123° | 128km/h | 12707m | -17.1m/s | -60.3°C | 36.4% | 189.3hPa | 2.5V | 08:16:00 | 00:00:00 | 00:00:00 | |
| DO9HM | 2026-09-06 00:45:18 | 48.34635 | 10.37130 | 123° | 128km/h | 12707m | -17.1m/s | -60.3°C | 36.4% | 189.3hPa | 2.5V | 08:16:00 | 00:00:00 | 00:00:00 | |
| DM7RM-13 | 2026-09-06 00:45:17 | 48.34653 | 10.37088 | 122° | 131km/h | 12724m | -17.8m/s | -60.5°C | 36.5% | 188.8hPa | 2.5V | 08:17:00 | 00:00:00 | 00:00:00 | |
| DF1GD-15 | 2026-09-06 00:45:16 | 48.34687 | 10.37003 | 123° | 131km/h | 12757m | -15.7m/s | -60.9°C | 37.4% | 187.6hPa | 2.5V | 08:17:00 | 00:00:00 | 00:00:00 | |
| DO3MHA-11 | 2026-09-06 00:45:15 | 48.34705 | 10.36961 | 123° | 130km/h | 12771m | -14.0m/s | -61.0°C | 45.1% | 187.1hPa | 2.5V | 00:00:00 | 02:15:56 | 00:00:00 | |
| HARRO8 | 2026-09-06 00:45:13 | 48.34739 | 10.36876 | 120° | 130km/h | 12800m | -15.8m/s | -61.3°C | 36.9% | 186.3hPa | 2.5V | 00:00:00 | 00:00:00 | 00:00:00 | |
| DM0DOS-11 | 2026-09-06 00:45:12 | 48.34860 | 10.36583 | 121° | 131km/h | 12911m | -16.1m/s | -62.4°C | 44.1% | 183hPa | 2.5V | 08:16:24 | 02:15:47 | 00:00:00 | |
| DK7TD | 2026-09-06 00:45:11 | 48.34773 | 10.36792 | 122° | 128km/h | 12831m | -16.5m/s | -61.6°C | 48.9% | 185.4hPa | 2.6V | 08:17:02 | 02:15:52 | 00:00:00 | |
| DO3MHA-12 | 2026-09-06 00:45:10 | 48.34790 | 10.36750 | 123° | 130km/h | 12847m | -16.2m/s | -61.7°C | 44.3% | 184.9hPa | 2.6V | 08:16:00 | 02:15:51 | 00:00:00 | |
| NBG1-10 | 2026-09-06 00:45:07 | 48.34842 | 10.36625 | 123° | 130km/h | 12896m | -16.4m/s | -62.1°C | 44.0% | 183.5hPa | 2.5V | 00:00:00 | 02:15:48 | 00:00:00 | |
| DB0UT-7 | 2026-09-06 00:45:06 | 48.34860 | 10.36583 | 122° | 130km/h | 12911m | -16.0m/s | -62.3°C | 44.1% | 182.9hPa | 2.6V | 00:00:00 | 00:00:00 | 00:00:00 | |
| DO3MHA-11 | 2026-09-06 00:45:05 | 48.34877 | 10.36541 | 122° | 130km/h | 12927m | -16.3m/s | -62.5°C | 44.0% | 182.5hPa | 2.6V | 00:00:00 | 02:15:46 | 00:00:00 | |
| DJ8HS-15 | 2026-09-06 00:45:04 | 48.34894 | 10.36499 | 123° | 130km/h | 12942m | -15.7m/s | -62.6°C | 43.6% | 182.0hPa | 2.5V | 00:00:00 | 02:15:45 | 00:00:00 | |
| DM0DOS-11 | 2026-09-06 00:45:01 | 48.35028 | 10.36162 | 121° | 128km/h | 13079m | -17.8m/s | -63.8°C | 40.9% | 178.2hPa | 2.5V | 08:16:34 | 02:15:37 | 00:00:00 | |
| DK7TD | 2026-09-06 00:45:01 | 48.34945 | 10.36374 | 121° | 131km/h | 12992m | -17.5m/s | -63.1°C | 45.7% | 180.7hPa | 2.5V | 08:17:02 | 02:15:42 | 00:00:00 | |
| DK7TD | 2026-09-06 00:44:51 | 48.35109 | 10.35946 | 118° | 130km/h | 13168m | -16.6m/s | -64.6°C | 41.4% | 175.7hPa | 2.6V | 08:17:02 | 02:15:32 | 00:00:00 | |
| DL6DJ-15 | 2026-09-06 00:44:48 | 48.35154 | 10.35815 | 116° | 128km/h | 13221m | -16.8m/s | -65.0°C | 30.6% | 174.3hPa | 2.6V | 00:00:00 | 00:00:00 | 00:00:00 | |
| DM0DOS-11 | 2026-09-06 00:44:46 | 48.35183 | 10.35727 | 115° | 131km/h | 13254m | -17.1m/s | -65.2°C | 38% | 173.3hPa | 2.6V | 08:16:44 | 02:15:27 | 00:00:00 | |
| AZAK | 2026-09-06 00:44:46 | 48.35197 | 10.35682 | 117° | 128km/h | 13271m | -17.2m/s | -65.3°C | 29.4% | 172.9hPa | 2.5V | 08:17:00 | 00:00:00 | 00:00:00 | |
| DO3MHA-11 | 2026-09-06 00:44:45 | 48.35197 | 10.35682 | 117° | 130km/h | 13271m | -17.2m/s | -65.2°C | 37.7% | 172.9hPa | 2.5V | 00:00:00 | 02:15:26 | 00:00:00 | |
| HARRO8 | 2026-09-06 00:44:42 | 48.35240 | 10.35548 | 115° | 128km/h | 13323m | -18.9m/s | -65.6°C | 28.5% | 171.4hPa | 2.5V | 00:00:00 | 00:00:00 | 00:00:00 | |
| DM0DOS-11 | 2026-09-06 00:44:41 | 48.35322 | 10.35279 | 114° | 128km/h | 13432m | -18.2m/s | -66.4°C | 34.8% | 168.5hPa | 2.5V | 08:16:54 | 02:15:17 | 00:00:00 | |
| DO3MHA-12 | 2026-09-06 00:44:40 | 48.35268 | 10.35459 | 114° | 130km/h | 13360m | -17.7m/s | -65.8°C | 35.9% | 170.3hPa | 2.6V | 00:00:00 | 02:15:21 | 00:00:00 | |
| DK7TD | 2026-09-06 00:44:40 | 48.35268 | 10.35459 | 114° | 131km/h | 13360m | -17.8m/s | -65.8°C | 35.7% | 170.4hPa | 2.6V | 08:17:02 | 02:15:21 | 00:00:00 | |
| DO9HM | 2026-09-06 00:44:38 | 48.35282 | 10.35414 | 116° | 128km/h | 13377m | -18.4m/s | -65.9°C | 27.4% | 169.9hPa | 2.5V | 08:17:00 | 00:00:00 | 00:00:00 | |
| DB0UT-7 | 2026-09-06 00:44:36 | 48.35322 | 10.35279 | 115° | 124km/h | 13432m | -18.2m/s | -66.4°C | 34.8% | 168.4hPa | 2.5V | 08:16:00 | 02:15:17 | 00:00:00 | |
| DO3MHA-11 | 2026-09-06 00:44:35 | 48.35335 | 10.35234 | 115° | 128km/h | 13451m | -18.0m/s | -66.5°C | 34.6% | 167.9hPa | 2.5V | 08:16:00 | 02:15:16 | 00:00:00 | |
| NBG1-10 | 2026-09-06 00:44:34 | 48.35349 | 10.35189 | 115° | 120km/h | 13468m | -16.5m/s | -66.7°C | 34.5% | 167.3hPa | 2.6V | 00:00:00 | 02:15:15 | 00:00:00 | |
| DF7PN | 2026-09-06 00:44:32 | 48.35391 | 10.35056 | 115° | 128km/h | 13519m | -16.9m/s | -67.2°C | 25.3% | 166.0hPa | 2.6V | 00:00:00 | 00:00:00 | 00:00:00 | |
| DM0DOS-11 | 2026-09-06 00:44:31 | 48.35465 | 10.34842 | 119° | 126km/h | 13602m | -15.9m/s | -67.2°C | 32.3% | 163.7hPa | 2.6V | 08:17:04 | 02:15:07 | 00:00:00 | |
| DK7TD | 2026-09-06 00:44:29 | 48.35420 | 10.34969 | 117° | 128km/h | 13553m | -17.1m/s | -67.4°C | 31.1% | 165.1hPa | 2.5V | 08:17:02 | 02:15:10 | 00:00:00 | |
| DK7TD | 2026-09-06 00:44:19 | 48.35583 | 10.34563 | 122° | 124km/h | 13714m | -16m/s | -67.2°C | 26.6% | 160.7hPa | 2.5V | 08:17:53 | 02:15:00 | 00:00:00 | |
| DK7TD | 2026-09-06 00:44:08 | 48.35765 | 10.34143 | 124° | 113km/h | 13893m | -18.7m/s | -68.2°C | 21.6% | 155.9hPa | 2.6V | 08:17:53 | 02:14:49 | 00:00:00 | |
| OE5DRO-10 | 2026-09-06 00:44:07 | 48.35781 | 10.34107 | 122° | 104km/h | 13912m | -18.8m/s | -67.7°C | 25.0% | 155.4hPa | 2.5V | 08:17:00 | 00:00:00 | 00:00:00 | |
| DB0UT-7 | 2026-09-06 00:44:06 | 48.35796 | 10.34071 | 123° | 102km/h | 13930m | -18.5m/s | -67.5°C | 23.8% | 154.9hPa | 2.5V | 00:00:00 | 00:00:00 | 00:00:00 | |
| DO3MHA-11 | 2026-09-06 00:44:05 | 48.35812 | 10.34036 | 124° | 106km/h | 13948m | -18.0m/s | -67.4°C | 22.9% | 154.4hPa | 2.5V | 00:00:00 | 02:14:46 | 00:00:00 | |
| DH7VM-15 | 2026-09-06 00:44:03 | 48.35827 | 10.34001 | 122° | 108km/h | 13967m | -19.1m/s | -67.4°C | 15.3% | 154.1hPa | 2.6V | 00:00:00 | 00:00:00 | 00:00:00 | |
| AZAK | 2026-09-06 00:44:02 | 48.35841 | 10.33966 | 123° | 104km/h | 13985m | -18.0m/s | -67.1°C | 14.7% | 153.6hPa | 2.6V | 08:17:00 | 00:00:00 | 00:00:00 | |
| DF7PN | 2026-09-06 00:44:01 | 48.35884 | 10.33864 | 120° | 104km/h | 14037m | -17.7m/s | -65.8°C | 12.1% | 152.2hPa | 2.6V | 00:00:00 | 00:00:00 | 00:00:00 | |
| DM0DOS-11 | 2026-09-06 00:44:00 | 48.35938 | 10.33729 | 120° | 100km/h | 14104m | -17.8m/s | -65.4°C | 16.6% | 150.6hPa | 2.6V | 08:17:34 | 02:14:37 | 00:00:00 | |
| IW2NTF | 2026-09-06 00:44:00 | 48.35964 | 10.33662 | 119° | 104km/h | 14139m | -17.2m/s | -65.5°C | 16.4% | 149.7hPa | 2.5V | 08:17:36 | 02:14:35 | 00:00:00 | |
| DK7TD | 2026-09-06 00:43:57 | 48.35925 | 10.33763 | 120° | 104km/h | 14086m | -18.1m/s | -65.5°C | 15% | 151.1hPa | 2.6V | 08:17:53 | 02:14:38 | 00:00:00 | |
| DB0ND-19 | 2026-09-06 00:43:53 | 48.35977 | 10.33628 | 118° | 102km/h | 14156m | -16.9m/s | -65.6°C | 10.4% | 149.3hPa | 2.5V | 00:00:00 | 00:00:00 | 00:00:00 | |
| DF3TZ-5 | 2026-09-06 00:43:52 | 48.36001 | 10.33560 | 117° | 99km/h | 14190m | -17.4m/s | -65.9°C | 10.2% | 148.5hPa | 2.5V | 00:00:00 | 00:00:00 | 00:00:00 | |
| DM0DOS-11 | 2026-09-06 00:43:50 | 48.36058 | 10.33391 | 115° | 100km/h | 14275m | -14.4m/s | -66.6°C | 16.9% | 146.4hPa | 2.5V | 08:17:44 | 02:14:27 | 00:00:00 | |
| DK7TD | 2026-09-06 00:43:46 | 48.36058 | 10.33391 | 116° | 100km/h | 14275m | -14.4m/s | -66.6°C | 12.4% | 146.4hPa | 2.5V | 08:17:53 | 02:14:27 | 00:00:00 | |
| IW2NTF | 2026-09-06 00:43:45 | 48.36080 | 10.33323 | 115° | 97km/h | 14305m | -15.5m/s | -66.7°C | 16.6% | 145.7hPa | 2.6V | 08:17:46 | 02:14:25 | 00:00:00 | |
| DO3MHA-11 | 2026-09-06 00:43:45 | 48.36069 | 10.33357 | 117° | 102km/h | 14290m | -15.6m/s | -66.6°C | 16.8% | 146.0hPa | 2.5V | 00:00:00 | 02:14:26 | 00:00:00 | |
| DM0DOS-11 | 2026-09-06 00:43:40 | 48.36171 | 10.33040 | 119° | 106km/h | 14438m | -16.7m/s | -67.3°C | 15.8% | 142.6hPa | 2.5V | 08:17:54 | 02:14:17 | 00:00:00 | |
| DO3MHA-12 | 2026-09-06 00:43:40 | 48.36123 | 10.33183 | 116° | 104km/h | 14371m | -17.3m/s | -67.1°C | 16.5% | 144.2hPa | 2.5V | 08:17:00 | 02:14:21 | 00:00:00 | |
| IW2NTF | 2026-09-06 00:43:39 | 48.36197 | 10.32970 | 119° | 102km/h | 14469m | -15m/s | -67.5°C | 15.5% | 141.8hPa | 2.5V | 08:17:56 | 02:14:15 | 00:00:00 | |
| DK7TD | 2026-09-06 00:43:35 | 48.36184 | 10.33005 | 119° | 104km/h | 14454m | -15.8m/s | -67.4°C | 9.3% | 142.2hPa | 2.5V | 08:18:44 | 02:14:16 | 00:00:00 | |
| DM7RM-13 | 2026-09-06 00:43:34 | 48.36197 | 10.32970 | 121° | 102km/h | 14469m | -15.0m/s | -67.5°C | 8.6% | 141.8hPa | 2.6V | 08:18:00 | 00:00:00 | 00:00:00 | |
| DF1GD-15 | 2026-09-06 00:43:33 | 48.36197 | 10.32970 | 121° | 102km/h | 14469m | -15.0m/s | -67.5°C | 8.6% | 141.8hPa | 2.6V | 08:18:00 | 00:00:00 | 00:00:00 | |
| DM0DOS-11 | 2026-09-06 00:43:30 | 48.36303 | 10.32731 | 127° | 86km/h | 14612m | -19.2m/s | -64.4°C | 10.7% | 138.6hPa | 2.6V | 08:18:04 | 02:14:07 | 00:00:00 | |
| DF7PN | 2026-09-06 00:43:30 | 48.36263 | 10.32811 | 125° | 91km/h | 14557m | -18.6m/s | -66.1°C | 6.8% | 139.8hPa | 2.5V | 00:00:00 | 00:00:00 | 00:00:00 | |
| IW2NTF | 2026-09-06 00:43:29 | 48.36329 | 10.32679 | 125° | 82km/h | 14649m | -18.6m/s | -63.9°C | 10.2% | 137.8hPa | 2.5V | 08:18:06 | 02:14:05 | 00:00:00 | |
| DK7TD | 2026-09-06 00:43:25 | 48.36316 | 10.32705 | 126° | 84km/h | 14630m | -19.3m/s | -64.1°C | 5.8% | 138.2hPa | 2.5V | 08:18:44 | 02:14:06 | 00:00:00 | |
| DB0ND-19 | 2026-09-06 00:43:22 | 48.36352 | 10.32628 | 124° | 80km/h | 14685m | -16.9m/s | -63.4°C | 4.6% | 136.9hPa | 2.6V | 00:00:00 | 00:00:00 | 00:00:00 | |
| AZAK | 2026-09-06 00:43:21 | 48.36364 | 10.32603 | 124° | 78km/h | 14703m | -17.9m/s | -63.2°C | 4.4% | 136.5hPa | 2.6V | 08:18:00 | 00:00:00 | 00:00:00 | |
| DO3MHA-12 | 2026-09-06 00:43:20 | 48.36375 | 10.32578 | 124° | 78km/h | 14721m | -18.4m/s | -63.0°C | 8.8% | 136.1hPa | 2.6V | 00:00:00 | 02:14:01 | 00:00:00 | |
| IW2NTF | 2026-09-06 00:43:19 | 48.36431 | 10.32422 | 116° | 80km/h | 14842m | -20.5m/s | -62.5°C | 7.7% | 133.6hPa | 2.6V | 08:18:16 | 02:13:55 | 00:00:00 | |
| DL1ZP-14 | 2026-09-06 00:43:19 | 48.36395 | 10.32528 | 120° | 75km/h | 14759m | -20.1m/s | -62.7°C | 3.8% | 135.4hPa | 2.5V | 00:00:00 | 00:00:00 | 00:00:00 | |
| DJ8HS-15 | 2026-09-06 00:43:18 | 48.36395 | 10.32527 | 121° | 84km/h | 14760m | -20.0m/s | -62.6°C | 8.2% | 135.3hPa | 2.5V | 00:00:00 | 02:13:59 | 00:00:00 | |
| PG1ADW-2 | 2026-09-06 00:43:16 | 48.36414 | 10.32475 | 119° | 86km/h | 14801m | -20.8m/s | -62.5°C | 7.8% | 134.5hPa | 2.5V | 00:00:00 | 00:00:00 | 00:00:00 | |
| DM0DOS-11 | 2026-09-06 00:43:15 | 48.36440 | 10.32395 | 114° | 78km/h | 14862m | -20m/s | -62.2°C | 7.5% | 133.2hPa | 2.5V | 08:18:17 | 02:13:54 | 00:00:00 | |
| DK7TD | 2026-09-06 00:43:15 | 48.36422 | 10.32449 | 115° | 80km/h | 14822m | -20.5m/s | -62.6°C | 3.8% | 134hPa | 2.6V | 08:18:44 | 02:13:56 | 00:00:00 | |
| DO3MHA-11 | 2026-09-06 00:43:15 | 48.36422 | 10.32449 | 116° | 82km/h | 14822m | -20.4m/s | -62.5°C | 7.8% | 134.0hPa | 2.5V | 00:00:00 | 02:13:56 | 00:00:00 | |
| DO9HM | 2026-09-06 00:43:14 | 48.36431 | 10.32422 | 118° | 80km/h | 14843m | -20.5m/s | -62.5°C | 3.5% | 133.6hPa | 2.5V | 00:00:00 | 00:00:00 | 00:00:00 | |
| DM7RM-13 | 2026-09-06 00:43:13 | 48.36440 | 10.32395 | 116° | 78km/h | 14862m | -20.0m/s | -62.2°C | 3.4% | 133.2hPa | 2.5V | 08:18:00 | 00:00:00 | 00:00:00 | |
| DF1GD-15 | 2026-09-06 00:43:12 | 48.36440 | 10.32395 | 116° | 78km/h | 14862m | -20.0m/s | -62.2°C | 3.4% | 133.2hPa | 2.5V | 08:18:00 | 00:00:00 | 00:00:00 | |
| HARRO8 | 2026-09-06 00:43:10 | 48.36484 | 10.32252 | 114° | 86km/h | 14958m | -18.9m/s | -61.8°C | 3.2% | 131.1hPa | 2.5V | 00:00:00 | 00:00:00 | 00:00:00 | |
| DB0UT-7 | 2026-09-06 00:43:06 | 48.36503 | 10.32194 | 118° | 88km/h | 14996m | -18.3m/s | -61.4°C | 7.0% | 130.2hPa | 2.5V | 00:00:00 | 00:00:00 | 00:00:00 | |
| DM0DOS-11 | 2026-09-06 00:43:05 | 48.36546 | 10.32075 | 120° | 88km/h | 15070m | -19m/s | -61.6°C | 6.9% | 128.7hPa | 2.6V | 08:18:28 | 02:13:43 | 00:00:00 | |
| DK7TD | 2026-09-06 00:43:04 | 48.36524 | 10.32134 | 117° | 89km/h | 15032m | -18.4m/s | -61.5°C | 3.2% | 129.5hPa | 2.5V | 08:18:44 | 02:13:45 | 00:00:00 | |
| AZAK | 2026-09-06 00:43:01 | 48.36557 | 10.32045 | 122° | 91km/h | 15089m | -17.4m/s | -61.8°C | 3.1% | 128.3hPa | 2.5V | 08:18:00 | 00:00:00 | 00:00:00 | |
| DO3MHA-12 | 2026-09-06 00:43:00 | 48.36569 | 10.32015 | 120° | 89km/h | 15106m | -17.9m/s | -61.8°C | 7.0% | 128.0hPa | 2.5V | 00:00:00 | 02:13:41 | 00:00:00 | |
| DJ8HS-15 | 2026-09-06 00:42:58 | 48.36594 | 10.31956 | 121° | 86km/h | 15142m | -19.2m/s | -61.8°C | 6.9% | 127.2hPa | 2.5V | 00:00:00 | 02:13:39 | 00:00:00 | |
| PG1ADW-2 | 2026-09-06 00:42:56 | 48.36618 | 10.31897 | 123° | 86km/h | 15179m | -17.1m/s | -61.9°C | 6.9% | 126.4hPa | 2.5V | 00:00:00 | 00:00:00 | 00:00:00 | |
| DM0DOS-11 | 2026-09-06 00:42:55 | 48.36666 | 10.31782 | 120° | 89km/h | 15251m | -18.2m/s | -62°C | 6.7% | 125hPa | 2.5V | 08:18:38 | 02:13:33 | 00:00:00 | |
| DK7TD | 2026-09-06 00:42:54 | 48.36642 | 10.31838 | 121° | 88km/h | 15214m | -19.3m/s | -62°C | 3% | 125.7hPa | 2.5V | 08:18:44 | 02:13:35 | 00:00:00 | |
| DB0ND-19 | 2026-09-06 00:42:51 | 48.36677 | 10.31753 | 119° | 86km/h | 15269m | -17.2m/s | -62.1°C | 2.9% | 124.6hPa | 2.5V | 00:00:00 | 00:00:00 | 00:00:00 | |
| DF3TZ-5 | 2026-09-06 00:42:50 | 48.36698 | 10.31698 | 119° | 84km/h | 15306m | -19.7m/s | -62.3°C | 2.9% | 123.9hPa | 2.5V | 00:00:00 | 00:00:00 | 00:00:00 | |
| DL1ZP-14 | 2026-09-06 00:42:48 | 48.36718 | 10.31643 | 119° | 80km/h | 15345m | -19.7m/s | -62.4°C | 2.8% | 123.2hPa | 2.5V | 00:00:00 | 00:00:00 | 00:00:00 | |
| DM0DOS-11 | 2026-09-06 00:42:45 | 48.36767 | 10.31503 | 116° | 82km/h | 15435m | -15.6m/s | -62.5°C | 7% | 121.2hPa | 2.5V | 08:18:48 | 02:13:23 | 00:00:00 | |
| DK7TD | 2026-09-06 00:42:43 | 48.36757 | 10.31531 | 117° | 82km/h | 15419m | -17.7m/s | -62.5°C | 2.7% | 121.6hPa | 2.5V | 08:19:35 | 02:13:24 | 00:00:00 | |
| DO3MHA-12 | 2026-09-06 00:42:40 | 48.36786 | 10.31447 | 120° | 86km/h | 15470m | -19.3m/s | -62.3°C | 6.8% | 120.6hPa | 2.6V | 00:00:00 | 02:13:21 | 00:00:00 | |
| AZAK | 2026-09-06 00:42:39 | 48.36786 | 10.31447 | 120° | 88km/h | 15470m | -19.3m/s | -62.4°C | 2.7% | 120.6hPa | 2.5V | 08:19:00 | 00:00:00 | 00:00:00 | |
| HARRO8 | 2026-09-06 00:42:38 | 48.36819 | 10.31360 | 120° | 84km/h | 15527m | -20.6m/s | -62.4°C | 2.7% | 119.6hPa | 2.5V | 00:00:00 | 00:00:00 | 00:00:00 | |
| DB0UT-7 | 2026-09-06 00:42:37 | 48.36830 | 10.31332 | 121° | 77km/h | 15548m | -19.5m/s | -62.4°C | 6.8% | 119.1hPa | 2.5V | 00:00:00 | 02:13:17 | 00:00:00 | |
| PG1ADW-2 | 2026-09-06 00:42:36 | 48.36830 | 10.31332 | 121° | 78km/h | 15548m | -19.5m/s | -62.4°C | 6.8% | 119.1hPa | 2.5V | 08:18:00 | 02:13:17 | 00:00:00 | |
| DM0DOS-11 | 2026-09-06 00:42:35 | 48.36876 | 10.31221 | 123° | 82km/h | 15624m | -17.2m/s | -62.6°C | 6.9% | 117.7hPa | 2.5V | 08:18:58 | 02:13:13 | 00:00:00 | |
| DK7TD | 2026-09-06 00:42:33 | 48.36864 | 10.31248 | 123° | 84km/h | 15605m | -18.4m/s | -62.6°C | 2.5% | 118hPa | 2.6V | 08:19:35 | 02:13:14 | 00:00:00 | |
| DM7RM-13 | 2026-09-06 00:42:32 | 48.36864 | 10.31248 | 124° | 84km/h | 15605m | -18.4m/s | -62.6°C | 2.8% | 118.0hPa | 2.6V | 08:19:00 | 00:00:00 | 00:00:00 | |
| DO3MHA-12 | 2026-09-06 00:42:30 | 48.36898 | 10.31170 | 125° | 77km/h | 15659m | -17.6m/s | -62.4°C | 6.7% | 116.9hPa | 2.6V | 00:00:00 | 02:13:11 | 00:00:00 | |
| DF7PN | 2026-09-06 00:42:27 | 48.36931 | 10.31096 | 124° | 77km/h | 15717m | -21.0m/s | -62.4°C | 2.6% | 116.0hPa | 2.6V | 00:00:00 | 00:00:00 | 00:00:00 | |
| OE5DXL-15 | 2026-09-06 00:42:26 | 48.36942 | 10.31072 | 126° | 73km/h | 15737m | -19.3m/s | -62.3°C | 6.8% | 115.5hPa | 2.6V | 00:00:00 | 00:00:00 | 00:00:00 | |
| DM0DOS-11 | 2026-09-06 00:42:25 | 48.36985 | 10.30980 | 124° | 73km/h | 15810m | -18.4m/s | -62.4°C | 6.8% | 114.1hPa | 2.6V | 08:19:08 | 02:13:03 | 00:00:00 | |
| DK7TD | 2026-09-06 00:42:23 | 48.36975 | 10.31002 | 125° | 73km/h | 15791m | -18.3m/s | -62.4°C | 2.2% | 114.5hPa | 2.5V | 08:19:35 | 02:13:04 | 00:00:00 | |
| NBG1-10 | 2026-09-06 00:42:22 | 48.36985 | 10.30980 | 125° | 71km/h | 15810m | -18.3m/s | -62.4°C | 6.8% | 114.1hPa | 2.6V | 00:00:00 | 02:13:03 | 00:00:00 | |
| DO3MHA-12 | 2026-09-06 00:42:20 | 48.37006 | 10.30933 | 123° | 71km/h | 15849m | -19.1m/s | -62.3°C | 6.8% | 113.4hPa | 2.6V | 00:00:00 | 02:13:01 | 00:00:00 | |
| AZAK | 2026-09-06 00:42:19 | 48.37016 | 10.30910 | 126° | 73km/h | 15867m | -18.2m/s | -62.3°C | 2.5% | 113.1hPa | 2.6V | 08:19:00 | 00:00:00 | 00:00:00 | |
| DJ8HS-15 | 2026-09-06 00:42:18 | 48.37026 | 10.30887 | 122° | 73km/h | 15887m | -21.9m/s | -62.3°C | 6.7% | 112.8hPa | 2.6V | 00:00:00 | 02:12:59 | 00:00:00 | |
| DL1ZP-14 | 2026-09-06 00:42:17 | 48.37045 | 10.30841 | 120° | 71km/h | 15929m | -20.4m/s | -62.0°C | 2.4% | 112.0hPa | 2.6V | 00:00:00 | 00:00:00 | 00:00:00 | |
| PG1ADW-2 | 2026-09-06 00:42:16 | 48.37045 | 10.30841 | 121° | 73km/h | 15929m | -20.4m/s | -61.9°C | 6.5% | 112.0hPa | 2.5V | 00:00:00 | 00:00:00 | 00:00:00 | |
| DM0DOS-11 | 2026-09-06 00:42:15 | 48.37084 | 10.30749 | 122° | 73km/h | 16009m | -19.5m/s | -62.1°C | 6.7% | 110.5hPa | 2.5V | 08:19:18 | 02:12:53 | 00:00:00 | |
| DK7TD | 2026-09-06 00:42:12 | 48.37084 | 10.30749 | 122° | 73km/h | 16009m | -19.5m/s | -62.1°C | 2.1% | 110.5hPa | 2.5V | 08:19:35 | 02:12:53 | 00:00:00 | |
| DM7RM-13 | 2026-09-06 00:42:12 | 48.37084 | 10.30749 | 123° | 73km/h | 16010m | -19.5m/s | -62.1°C | 2.5% | 110.6hPa | 2.6V | 08:19:00 | 00:00:00 | 00:00:00 | |
| DO3MHA-12 | 2026-09-06 00:42:10 | 48.37104 | 10.30703 | 123° | 73km/h | 16048m | -20.6m/s | -61.8°C | 6.5% | 109.9hPa | 2.6V | 08:19:00 | 02:12:51 | 00:00:00 | |
| DF1GD-15 | 2026-09-06 00:42:09 | 48.37103 | 10.30703 | 123° | 73km/h | 16048m | -20.7m/s | -61.8°C | 2.4% | 109.9hPa | 2.5V | 08:19:00 | 00:00:00 | 00:00:00 | |
| HARRO8 | 2026-09-06 00:42:07 | 48.37145 | 10.30611 | 125° | 75km/h | 16129m | -21.0m/s | -61.3°C | 2.2% | 108.5hPa | 2.5V | 00:00:00 | 00:00:00 | 00:00:00 | |
| DM0DOS-11 | 2026-09-06 00:42:06 | 48.37190 | 10.30521 | 127° | 73km/h | 16210m | -18.5m/s | -60.8°C | 6% | 107hPa | 2.5V | 08:19:28 | 02:12:43 | 00:00:00 | |
| DK7TD | 2026-09-06 00:42:02 | 48.37190 | 10.30521 | 128° | 73km/h | 16210m | -18.5m/s | -60.8°C | 1.7% | 107hPa | 2.5V | 08:19:35 | 02:12:43 | 00:00:00 | |
| DO3MHA-12 | 2026-09-06 00:42:00 | 48.37212 | 10.30474 | 124° | 71km/h | 16248m | -17.5m/s | -60.8°C | 6.1% | 106.3hPa | 2.5V | 00:00:00 | 02:12:41 | 00:00:00 | |
| DJ8HS-15 | 2026-09-06 00:41:58 | 48.37233 | 10.30429 | 126° | 64km/h | 16285m | -19.2m/s | -60.6°C | 5.9% | 105.7hPa | 2.5V | 00:00:00 | 02:12:39 | 00:00:00 | |
| DM0DOS-11 | 2026-09-06 00:41:56 | 48.37297 | 10.30304 | 127° | 68km/h | 16404m | -19.1m/s | -59.9°C | 5.5% | 103.8hPa | 2.5V | 08:19:38 | 02:12:33 | 00:00:00 | |
| DK7TD | 2026-09-06 00:41:51 | 48.37307 | 10.30284 | 129° | 68km/h | 16422m | -17.8m/s | -59.9°C | 1.4% | 103.4hPa | 2.5V | 08:20:26 | 02:12:32 | 00:00:00 | |
| NBG1-10 | 2026-09-06 00:41:50 | 48.37329 | 10.30246 | 133° | 58km/h | 16459m | -18.0m/s | -59.8°C | 5.5% | 102.8hPa | 2.5V | 08:19:00 | 02:12:30 | 00:00:00 | |
| DM0DOS-11 | 2026-09-06 00:41:46 | 48.37408 | 10.30135 | 135° | 58km/h | 16584m | -19.1m/s | -59.8°C | 5.4% | 100.7hPa | 2.6V | 08:19:48 | 02:12:23 | 00:00:00 | |
| DL1ZP-14 | 2026-09-06 00:41:46 | 48.37375 | 10.30182 | 138° | 60km/h | 16529m | -17.7m/s | -59.5°C | 1.8% | 101.6hPa | 2.5V | 00:00:00 | 00:00:00 | 00:00:00 | |
| DK7TD | 2026-09-06 00:41:41 | 48.37418 | 10.30120 | 137° | 55km/h | 16603m | -20.4m/s | -59.9°C | 1.4% | 100.4hPa | 2.6V | 08:20:26 | 02:12:22 | 00:00:00 | |
| DO3MHA-12 | 2026-09-06 00:41:40 | 48.37429 | 10.30105 | 137° | 55km/h | 16623m | -21.0m/s | -59.8°C | 5.5% | 100.1hPa | 2.5V | 00:00:00 | 02:12:21 | 00:00:00 | |
| DO9HM | 2026-09-06 00:41:38 | 48.37449 | 10.30075 | 131° | 57km/h | 16666m | -21.5m/s | -59.6°C | 1.8% | 99.5hPa | 2.5V | 00:00:00 | 00:00:00 | 00:00:00 | |
| DH7VM-15 | 2026-09-06 00:41:37 | 48.37457 | 10.30058 | 131° | 53km/h | 16687m | -20.6m/s | -59.6°C | 1.8% | 99.1hPa | 2.5V | 00:00:00 | 00:00:00 | 00:00:00 | |
| HARRO8 | 2026-09-06 00:41:36 | 48.37475 | 10.30027 | 129° | 51km/h | 16726m | -19.5m/s | -59.8°C | 1.8% | 98.5hPa | 2.5V | 00:00:00 | 00:00:00 | 00:00:00 | |
| DF9NV-10 | 2026-09-06 00:41:35 | 48.37475 | 10.30027 | 131° | 53km/h | 16726m | -19.5m/s | -59.8°C | 1.8% | 98.5hPa | 2.5V | 08:20:00 | 00:00:00 | 00:00:00 | |
| IW2NTF | 2026-09-06 00:41:32 | 48.37498 | 10.29977 | 123° | 53km/h | 16782m | -18.8m/s | -59.7°C | 5.4% | 97.6hPa | 2.5V | 08:19:58 | 02:12:13 | 00:00:00 | |
| DK7TD | 2026-09-06 00:41:30 | 48.37512 | 10.29942 | 121° | 55km/h | 16820m | -20.1m/s | -59.8°C | 1.3% | 97hPa | 2.6V | 08:20:26 | 02:12:11 | 00:00:00 | |
| DO3MHA-12 | 2026-09-06 00:41:30 | 48.37512 | 10.29942 | 121° | 60km/h | 16820m | -20.1m/s | -59.8°C | 5.4% | 97.0hPa | 2.5V | 00:00:00 | 02:12:11 | 00:00:00 | |
| DF1GD-15 | 2026-09-06 00:41:29 | 48.37519 | 10.29923 | 117° | 57km/h | 16841m | -20.8m/s | -59.8°C | 1.9% | 96.8hPa | 2.5V | 08:20:00 | 00:00:00 | 00:00:00 | |
| DF7PN | 2026-09-06 00:41:26 | 48.37544 | 10.29842 | 113° | 58km/h | 16925m | -20.6m/s | -59.8°C | 1.8% | 95.4hPa | 2.5V | 00:00:00 | 00:00:00 | 00:00:00 | |
| DM0DOS-11 | 2026-09-06 00:41:25 | 48.37562 | 10.29776 | 112° | 66km/h | 16984m | -19.3m/s | -59.8°C | 5.6% | 94.5hPa | 2.5V | 08:20:08 | 02:12:03 | 00:00:00 | |
| DO3MHA-11 | 2026-09-06 00:41:25 | 48.37544 | 10.29842 | 114° | 64km/h | 16925m | -20.6m/s | -59.7°C | 5.4% | 95.4hPa | 2.5V | 00:00:00 | 02:12:06 | 00:00:00 | |
| IW2NTF | 2026-09-06 00:41:22 | 48.37588 | 10.29685 | 112° | 64km/h | 17060m | -18.9m/s | -59.4°C | 5.5% | 93.3hPa | 2.5V | 08:20:12 | 02:11:59 | 00:00:00 | |
| DK7TD | 2026-09-06 00:41:19 | 48.37581 | 10.29707 | 114° | 62km/h | 17040m | -20.2m/s | -59.4°C | 1.2% | 93.6hPa | 2.6V | 08:20:26 | 02:12:00 | 00:00:00 | |
| AZAK | 2026-09-06 00:41:18 | 48.37588 | 10.29685 | 114° | 64km/h | 17060m | -18.9m/s | -59.4°C | 1.8% | 93.3hPa | 2.5V | 08:20:00 | 00:00:00 | 00:00:00 | |
| NBG1-10 | 2026-09-06 00:41:16 | 48.37600 | 10.29640 | 113° | 58km/h | 17100m | -21.2m/s | -59.4°C | 5.4% | 92.7hPa | 2.5V | 00:00:00 | 02:11:57 | 00:00:00 | |
| DM0DOS-11 | 2026-09-06 00:41:15 | 48.37624 | 10.29553 | 113° | 66km/h | 17188m | -20.7m/s | -59.7°C | 5.7% | 91.5hPa | 2.5V | 08:20:18 | 02:11:53 | 00:00:00 | |
| DL1ZP-14 | 2026-09-06 00:41:15 | 48.37611 | 10.29596 | 113° | 60km/h | 17145m | -21.8m/s | -59.6°C | 1.8% | 92.1hPa | 2.6V | 00:00:00 | 00:00:00 | 00:00:00 | |
| DF9NV-10 | 2026-09-06 00:41:14 | 48.37611 | 10.29596 | 115° | 60km/h | 17145m | -21.8m/s | -59.6°C | 1.8% | 92.1hPa | 2.6V | 08:20:00 | 00:00:00 | 00:00:00 | |
| IW2NTF | 2026-09-06 00:41:11 | 48.37658 | 10.29439 | 115° | 66km/h | 17286m | -18.8m/s | -59.2°C | 5.6% | 90hPa | 2.6V | 08:20:23 | 02:11:48 | 00:00:00 | |
| DK7TD | 2026-09-06 00:41:08 | 48.37651 | 10.29461 | 116° | 66km/h | 17267m | -19.4m/s | -59.3°C | 1.3% | 90.3hPa | 2.6V | 08:20:26 | 02:11:49 | 00:00:00 | |
| DF1GD-15 | 2026-09-06 00:41:07 | 48.37651 | 10.29461 | 117° | 66km/h | 17267m | -19.4m/s | -59.3°C | 1.8% | 90.3hPa | 2.5V | 08:20:00 | 00:00:00 | 00:00:00 | |
| DB0UT-7 | 2026-09-06 00:41:06 | 48.37666 | 10.29416 | 116° | 55km/h | 17304m | -18.3m/s | -59.1°C | 5.7% | 89.7hPa | 2.5V | 00:00:00 | 00:00:00 | 00:00:00 | |
| DO3MHA-11 | 2026-09-06 00:41:05 | 48.37673 | 10.29393 | 118° | 58km/h | 17321m | -17.4m/s | -59.1°C | 5.7% | 89.4hPa | 2.5V | 00:00:00 | 02:11:46 | 00:00:00 | |
| DM0DOS-11 | 2026-09-06 00:41:04 | 48.37698 | 10.29328 | 119° | 64km/h | 17374m | -19.6m/s | -58.2°C | 5.3% | 88.7hPa | 2.6V | 08:20:28 | 02:11:43 | 00:00:00 | |
| IW2NTF | 2026-09-06 00:41:02 | 48.37732 | 10.29232 | 114° | 49km/h | 17470m | -18.5m/s | -57.7°C | 5.1% | 87.4hPa | 2.6V | 08:20:33 | 02:11:38 | 00:00:00 | |
| DK7TD | 2026-09-06 00:40:58 | 48.37726 | 10.29250 | 116° | 51km/h | 17452m | -18.9m/s | -57.8°C | 1.1% | 87.6hPa | 2.5V | 08:21:17 | 02:11:39 | 00:00:00 | |
| DK7TD | 2026-09-06 00:40:48 | 48.37763 | 10.29065 | 105° | 53km/h | 17655m | -19.3m/s | -56.2°C | 0.8% | 85hPa | 2.5V | 08:21:17 | 02:11:29 | 00:00:00 | |
| DB0ND-19 | 2026-09-06 00:40:47 | 48.37770 | 10.29026 | 106° | 53km/h | 17697m | -23.3m/s | -56.0°C | 1.4% | 84.5hPa | 2.5V | 00:00:00 | 00:00:00 | 00:00:00 | |
| DM0DOS-11 | 2026-09-06 00:40:46 | 48.37788 | 10.28948 | 108° | 53km/h | 17782m | -21m/s | -56.2°C | 4.6% | 83.3hPa | 2.5V | 08:20:48 | 02:11:23 | 00:00:00 | |
| DF3TZ-5 | 2026-09-06 00:40:45 | 48.37774 | 10.29007 | 108° | 51km/h | 17719m | -20.9m/s | -55.9°C | 1.4% | 84.1hPa | 2.5V | 00:00:00 | 00:00:00 | 00:00:00 | |
| DK7TD | 2026-09-06 00:40:37 | 48.37812 | 10.28860 | 117° | 46km/h | 17889m | -21.3m/s | -55.9°C | 0.8% | 81.9hPa | 2.5V | 08:21:17 | 02:11:18 | 00:00:00 | |
| DB0UT-7 | 2026-09-06 00:40:36 | 48.37818 | 10.28844 | 120° | 33km/h | 17910m | -20.0m/s | -55.4°C | 4.3% | 81.5hPa | 2.6V | 00:00:00 | 02:11:17 | 00:00:00 | |
| DO3MHA-11 | 2026-09-06 00:40:35 | 48.37823 | 10.28829 | 120° | 40km/h | 17931m | -20.3m/s | -55.0°C | 4.2% | 81.3hPa | 2.6V | 00:00:00 | 02:11:16 | 00:00:00 | |
| DM0DOS-11 | 2026-09-06 00:40:34 | 48.37841 | 10.28788 | 128° | 40km/h | 17993m | -21.5m/s | -54.7°C | 4% | 80.6hPa | 2.5V | 08:20:58 | 02:11:13 | 00:00:00 | |
| HARRO8 | 2026-09-06 00:40:34 | 48.37834 | 10.28800 | 123° | 40km/h | 17972m | -21.0m/s | -54.7°C | 1.2% | 80.8hPa | 2.5V | 00:00:00 | 00:00:00 | 00:00:00 | |
| DF9NV-10 | 2026-09-06 00:40:32 | 48.37834 | 10.28800 | 125° | 42km/h | 17972m | -21.0m/s | -54.7°C | 1.3% | 80.8hPa | 2.5V | 08:21:00 | 00:00:00 | 00:00:00 | |
| DO3MHA-12 | 2026-09-06 00:40:30 | 48.37853 | 10.28764 | 129° | 33km/h | 18036m | -21.9m/s | -54.7°C | 3.9% | 80.0hPa | 2.5V | 00:00:00 | 02:11:11 | 00:00:00 | |
| DM7RM-13 | 2026-09-06 00:40:28 | 48.37860 | 10.28753 | 137° | 37km/h | 18058m | -22.3m/s | -54.8°C | 1.2% | 79.8hPa | 2.5V | 08:21:00 | 00:00:00 | 00:00:00 | |
| DM0DOS-11 | 2026-09-06 00:40:26 | 48.37902 | 10.28695 | 133° | 29km/h | 18210m | -21.7m/s | -55.4°C | 4.1% | 77.9hPa | 2.5V | 08:21:08 | 02:11:03 | 00:00:00 | |
| DK7TD | 2026-09-06 00:40:26 | 48.37879 | 10.28726 | 140° | 35km/h | 18124m | -20.6m/s | -55°C | 0.5% | 78.9hPa | 2.5V | 08:21:17 | 02:11:07 | 00:00:00 | |
| DK7TD | 2026-09-06 00:40:16 | 48.37930 | 10.28643 | 117° | 29km/h | 18340m | -21.3m/s | -55.5°C | 0.5% | 76.3hPa | 2.5V | 08:21:17 | 02:10:57 | 00:00:00 | |
| AZAK | 2026-09-06 00:40:16 | 48.37930 | 10.28643 | 118° | 29km/h | 18340m | -21.3m/s | -55.5°C | 1.2% | 76.3hPa | 2.6V | 08:21:00 | 00:00:00 | 00:00:00 | |
| DO3MHA-11 | 2026-09-06 00:40:15 | 48.37934 | 10.28632 | 118° | 29km/h | 18362m | -21.8m/s | -55.6°C | 4.0% | 76.0hPa | 2.6V | 00:00:00 | 02:10:56 | 00:00:00 | |
| DM0DOS-11 | 2026-09-06 00:40:14 | 48.37944 | 10.28601 | 118° | 33km/h | 18429m | -23.6m/s | -56.1°C | 4.2% | 75.3hPa | 2.6V | 08:21:18 | 02:10:53 | 00:00:00 | |
| DL1ZP-14 | 2026-09-06 00:40:12 | 48.37945 | 10.28601 | 118° | 31km/h | 18429m | -23.6m/s | -56.1°C | 1.3% | 75.3hPa | 2.6V | 00:00:00 | 00:00:00 | 00:00:00 | |
| DF9NV-10 | 2026-09-06 00:40:11 | 48.37944 | 10.28601 | 119° | 33km/h | 18429m | -23.6m/s | -56.1°C | 1.3% | 75.3hPa | 2.6V | 08:22:00 | 00:00:00 | 00:00:00 | |
| DB0NH | 2026-09-06 00:40:10 | 48.37952 | 10.28581 | 118° | 26km/h | 18475m | -22.8m/s | -56.5°C | 4.3% | 74.7hPa | 2.6V | 00:00:00 | 02:10:51 | 00:00:00 | |
| DL6DJ-15 | 2026-09-06 00:40:09 | 48.37959 | 10.28563 | 117° | 26km/h | 18520m | -23.4m/s | -56.8°C | 1.4% | 74.2hPa | 2.6V | 00:00:00 | 00:00:00 | 00:00:00 | |
| DM0DOS-11 | 2026-09-06 00:40:07 | 48.37976 | 10.28519 | 118° | 15km/h | 18666m | -24m/s | -56.9°C | 4.5% | 72.5hPa | 2.6V | 08:21:28 | 02:10:43 | 00:00:00 | |
| DK7TD | 2026-09-06 00:40:05 | 48.37969 | 10.28538 | 120° | 20km/h | 18593m | -24.8m/s | -56.5°C | 0.7% | 73.4hPa | 2.5V | 08:22:08 | 02:10:46 | 00:00:00 | |
| DK7TD | 2026-09-06 00:39:55 | 48.37983 | 10.28473 | 92° | 20km/h | 18830m | -26.2m/s | -57.5°C | 0.9% | 70.7hPa | 2.6V | 08:22:08 | 02:10:36 | 00:00:00 | |
| DO3MHA-11 | 2026-09-06 00:39:55 | 48.37982 | 10.28473 | 93° | 27km/h | 18830m | -26.2m/s | -57.5°C | 4.7% | 70.7hPa | 2.5V | 00:00:00 | 02:10:36 | 00:00:00 | |
| DM0DOS-11 | 2026-09-06 00:39:54 | 48.37983 | 10.28445 | 93° | 26km/h | 18906m | -25.2m/s | -58°C | 4.8% | 69.9hPa | 2.5V | 08:21:38 | 02:10:33 | 00:00:00 | |
| DF7PN | 2026-09-06 00:39:52 | 48.37983 | 10.28445 | 93° | 26km/h | 18906m | -25.2m/s | -58.0°C | 1.4% | 69.9hPa | 2.5V | 00:00:00 | 00:00:00 | 00:00:00 | |
| DF9NV-10 | 2026-09-06 00:39:51 | 48.37983 | 10.28445 | 94° | 26km/h | 18906m | -25.2m/s | -58.0°C | 1.4% | 69.9hPa | 2.5V | 08:22:00 | 00:00:00 | 00:00:00 | |
| DO3MHA-12 | 2026-09-06 00:39:50 | 48.37984 | 10.28424 | 92° | 31km/h | 18957m | -25.5m/s | -58.1°C | 4.9% | 69.3hPa | 2.5V | 00:00:00 | 02:10:31 | 00:00:00 | |
| DM7RM-13 | 2026-09-06 00:39:47 | 48.37983 | 10.28401 | 92° | 29km/h | 19006m | -24.4m/s | -58.4°C | 1.6% | 68.8hPa | 2.5V | 08:22:00 | 00:00:00 | 00:00:00 | |
| DF1GD-15 | 2026-09-06 00:39:46 | 48.37984 | 10.28377 | 87° | 33km/h | 19056m | -23.8m/s | -57.8°C | 1.5% | 68.3hPa | 2.5V | 08:22:00 | 00:00:00 | 00:00:00 | |
| DO3MHA-11 | 2026-09-06 00:39:45 | 48.37983 | 10.28366 | 88° | 37km/h | 19080m | -24.9m/s | -57.4°C | 4.7% | 67.9hPa | 2.5V | 00:00:00 | 02:10:26 | 00:00:00 | |
| DM0DOS-11 | 2026-09-06 00:39:44 | 48.37983 | 10.28329 | 87° | 35km/h | 19156m | -24.1m/s | -56.7°C | 4.4% | 67.1hPa | 2.5V | 08:21:48 | 02:10:23 | 00:00:00 | |
| DK7TD | 2026-09-06 00:39:44 | 48.37983 | 10.28355 | 91° | 31km/h | 19105m | -25.5m/s | -56.9°C | 0.8% | 67.7hPa | 2.6V | 08:22:08 | 02:10:25 | 00:00:00 | |
| DF3TZ-5 | 2026-09-06 00:39:43 | 48.37983 | 10.28342 | 86° | 33km/h | 19131m | -25.8m/s | -56.8°C | 1.3% | 67.4hPa | 2.6V | 00:00:00 | 00:00:00 | 00:00:00 | |
| AM1SDL-15 | 2026-09-06 00:39:42 | 48.37982 | 10.28329 | 88° | 38km/h | 19156m | -24.0m/s | 0°C | 0% | 0hPa | 2.6V | 00:00:00 | 02:10:23 | 00:00:00 | |
| DO9HM | 2026-09-06 00:39:41 | 48.37982 | 10.28316 | 88° | 37km/h | 19180m | -23.9m/s | -56.9°C | 1.4% | 66.9hPa | 2.6V | 08:22:00 | 00:00:00 | 00:00:00 | |
| DO3MHA-12 | 2026-09-06 00:39:40 | 48.37981 | 10.28302 | 87° | 40km/h | 19204m | -22.7m/s | -56.9°C | 4.5% | 66.6hPa | 2.6V | 00:00:00 | 02:10:21 | 00:00:00 | |
| DL6DJ-15 | 2026-09-06 00:39:38 | 48.37979 | 10.28260 | 88° | 40km/h | 19265m | -21.4m/s | -57.1°C | 1.3% | 65.9hPa | 2.5V | 00:00:00 | 00:00:00 | 00:00:00 | |
| NBG1-10 | 2026-09-06 00:39:37 | 48.37979 | 10.28260 | 89° | 40km/h | 19265m | -21.4m/s | -57.1°C | 4.6% | 65.9hPa | 2.5V | 00:00:00 | 02:10:18 | 00:00:00 | |
| PG1ADW-2 | 2026-09-06 00:39:36 | 48.37979 | 10.28244 | 89° | 38km/h | 19287m | -20.7m/s | -57.2°C | 4.5% | 65.6hPa | 2.5V | 08:21:00 | 00:00:00 | 00:00:00 | |
| AZAK | 2026-09-06 00:39:35 | 48.37979 | 10.28228 | 92° | 42km/h | 19307m | -20.1m/s | -57.3°C | 1.4% | 65.5hPa | 2.5V | 08:22:00 | 00:00:00 | 00:00:00 | |
| DM0DOS-11 | 2026-09-06 00:39:34 | 48.37981 | 10.28180 | 95° | 42km/h | 19365m | -18.6m/s | -57.7°C | 4.9% | 64.8hPa | 2.5V | 08:21:58 | 02:10:13 | 00:00:00 | |
| DK7TD | 2026-09-06 00:39:33 | 48.37980 | 10.28195 | 94° | 42km/h | 19345m | -20.7m/s | -57.6°C | 0.9% | 65.1hPa | 2.6V | 08:22:08 | 02:10:14 | 00:00:00 | |
| DF9NV-10 | 2026-09-06 00:39:31 | 48.37980 | 10.28180 | 96° | 42km/h | 19365m | -18.6m/s | -57.7°C | 1.5% | 64.8hPa | 2.6V | 08:22:00 | 00:00:00 | 00:00:00 | |
| DO3MHA-12 | 2026-09-06 00:39:30 | 48.37983 | 10.28148 | 96° | 38km/h | 19405m | -21.8m/s | -57.7°C | 4.9% | 64.5hPa | 2.6V | 00:00:00 | 02:10:11 | 00:00:00 | |
| DM7RM-13 | 2026-09-06 00:39:28 | 48.37985 | 10.28117 | 96° | 38km/h | 19448m | -21.3m/s | -57.8°C | 1.5% | 64.0hPa | 2.6V | 08:22:00 | 00:00:00 | 00:00:00 | |
| OE5DXL-15 | 2026-09-06 00:39:26 | 48.37986 | 10.28088 | 98° | 42km/h | 19489m | -18.5m/s | -57.3°C | 4.8% | 63.6hPa | 2.6V | 00:00:00 | 00:00:00 | 00:00:00 | |
| DO3MHA-11 | 2026-09-06 00:39:25 | 48.37988 | 10.28075 | 98° | 35km/h | 19508m | -18.2m/s | -57.3°C | 4.9% | 63.3hPa | 2.6V | 00:00:00 | 02:10:06 | 00:00:00 | |
| DM0DOS-11 | 2026-09-06 00:39:24 | 48.37992 | 10.28034 | 101° | 35km/h | 19556m | -16.7m/s | -57.6°C | 5.1% | 62.9hPa | 2.6V | 08:22:08 | 02:10:03 | 00:00:00 | |
| DK7TD | 2026-09-06 00:39:23 | 48.37990 | 10.28047 | 98° | 35km/h | 19540m | -15.9m/s | -57.5°C | 1% | 63hPa | 2.6V | 08:22:08 | 02:10:04 | 00:00:00 | |
| OE5DRO-10 | 2026-09-06 00:39:22 | 48.37992 | 10.28034 | 102° | 40km/h | 19556m | -16.7m/s | -57.6°C | 5.1% | 62.8hPa | 2.6V | 00:00:00 | 00:00:00 | 00:00:00 | |
| DF7PN | 2026-09-06 00:39:21 | 48.37994 | 10.28022 | 103° | 33km/h | 19573m | -16.8m/s | -57.7°C | 1.5% | 62.7hPa | 2.6V | 00:00:00 | 00:00:00 | 00:00:00 | |
| DO3MHA-12 | 2026-09-06 00:39:20 | 48.37996 | 10.28010 | 103° | 37km/h | 19590m | -18.2m/s | -57.8°C | 5.2% | 62.5hPa | 2.6V | 00:00:00 | 02:10:01 | 00:00:00 | |
| DO9HM | 2026-09-06 00:39:19 | 48.37996 | 10.28010 | 103° | 31km/h | 19590m | -18.2m/s | -57.8°C | 1.5% | 62.6hPa | 2.6V | 08:22:00 | 00:00:00 | 00:00:00 | |
| DJ8HS-15 | 2026-09-06 00:39:18 | 48.38000 | 10.27985 | 104° | 44km/h | 19626m | -17.8m/s | -57.9°C | 5.3% | 62.1hPa | 2.6V | 00:00:00 | 02:09:59 | 00:00:00 | |
| PG1ADW-2 | 2026-09-06 00:39:16 | 48.38005 | 10.27961 | 110° | 44km/h | 19666m | -20.6m/s | -57.3°C | 5.0% | 61.8hPa | 2.6V | 00:00:00 | 00:00:00 | 00:00:00 | |
| AZAK | 2026-09-06 00:39:15 | 48.38008 | 10.27949 | 108° | 35km/h | 19686m | -19.0m/s | -57.0°C | 1.4% | 61.6hPa | 2.6V | 08:22:00 | 00:00:00 | 00:00:00 | |
| DM0DOS-11 | 2026-09-06 00:39:14 | 48.38017 | 10.27907 | 108° | 42km/h | 19747m | -21m/s | -56.1°C | 4.6% | 61.1hPa | 2.6V | 08:22:18 | 02:09:53 | 00:00:00 | |
| DK7TD | 2026-09-06 00:39:12 | 48.38017 | 10.27907 | 109° | 42km/h | 19747m | -21m/s | -56.1°C | 0.8% | 61.1hPa | 2.6V | 08:22:59 | 02:09:53 | 00:00:00 | |
| DF9NV-10 | 2026-09-06 00:39:11 | 48.38017 | 10.27907 | 110° | 42km/h | 19748m | -21.0m/s | -56.1°C | 1.4% | 61.1hPa | 2.5V | 08:22:00 | 00:00:00 | 00:00:00 | |
| DB0NH | 2026-09-06 00:39:10 | 48.38024 | 10.27877 | 110° | 42km/h | 19789m | -20.0m/s | -55.8°C | 4.4% | 60.6hPa | 2.5V | 00:00:00 | 02:09:51 | 00:00:00 | |
| DM0DOS-11 | 2026-09-06 00:39:07 | 48.38060 | 10.27743 | 115° | 49km/h | 19951m | -21.8m/s | -55.7°C | 4.4% | 59.2hPa | 2.5V | 08:22:28 | 02:09:43 | 00:00:00 | |
| DK7TD | 2026-09-06 00:39:01 | 48.38065 | 10.27726 | 117° | 49km/h | 19974m | -23m/s | -55.8°C | 0.7% | 59hPa | 2.6V | 08:22:59 | 02:09:42 | 00:00:00 | |
| DO3MHA-12 | 2026-09-06 00:39:00 | 48.38071 | 10.27710 | 119° | 46km/h | 19997m | -24.4m/s | -55.9°C | 4.4% | 58.8hPa | 2.5V | 00:00:00 | 02:09:41 | 00:00:00 | |
| DO9HM | 2026-09-06 00:38:59 | 48.38077 | 10.27694 | 122° | 47km/h | 20021m | -24.3m/s | -56.0°C | 1.3% | 58.6hPa | 2.5V | 08:22:00 | 00:00:00 | 00:00:00 | |
| DJ8HS-15 | 2026-09-06 00:38:58 | 48.38083 | 10.27678 | 124° | 40km/h | 20044m | -21.8m/s | -55.7°C | 4.4% | 58.3hPa | 2.5V | 00:00:00 | 02:09:39 | 00:00:00 | |
| PG1ADW-2 | 2026-09-06 00:38:56 | 48.38096 | 10.27647 | 122° | 38km/h | 20085m | -19.9m/s | -55.6°C | 4.4% | 57.9hPa | 2.5V | 00:00:00 | 00:00:00 | 00:00:00 | |
| DO3MHA-11 | 2026-09-06 00:38:55 | 48.38102 | 10.27633 | 123° | 40km/h | 20105m | -19.8m/s | -55.7°C | 4.4% | 57.7hPa | 2.5V | 00:00:00 | 02:09:36 | 00:00:00 | |
| DM0DOS-11 | 2026-09-06 00:38:54 | 48.38120 | 10.27593 | 126° | 40km/h | 20165m | -18.1m/s | -55.6°C | 4.5% | 57.2hPa | 2.5V | 08:22:38 | 02:09:33 | 00:00:00 | |
| DK7TD | 2026-09-06 00:38:50 | 48.38133 | 10.27569 | 130° | 40km/h | 20197m | -15.1m/s | -55.5°C | 0.7% | 56.9hPa | 2.6V | 08:22:59 | 02:09:31 | 00:00:00 | |
| DO3MHA-12 | 2026-09-06 00:38:50 | 48.38133 | 10.27569 | 130° | 38km/h | 20197m | -15.1m/s | -55.4°C | 4.5% | 56.8hPa | 2.5V | 00:00:00 | 02:09:31 | 00:00:00 | |
| DO3MHA-11 | 2026-09-06 00:38:45 | 48.38170 | 10.27518 | 144° | 33km/h | 20279m | -14.6m/s | -55.2°C | 4.4% | 56.1hPa | 2.5V | 00:00:00 | 02:09:26 | 00:00:00 | |
| DM0DOS-11 | 2026-09-06 00:38:43 | 48.38194 | 10.27497 | 156° | 35km/h | 20327m | -16.3m/s | -55.1°C | 4.4% | 55.7hPa | 2.5V | 08:22:48 | 02:09:23 | 00:00:00 | |
| DK7TD | 2026-09-06 00:38:39 | 48.38216 | 10.27482 | 152° | 31km/h | 20379m | -13.9m/s | -55.1°C | 0.7% | 55.2hPa | 2.6V | 08:22:59 | 02:09:20 | 00:00:00 | |
| DK7TD | 2026-09-06 00:38:28 | 48.38276 | 10.27398 | 134° | 26km/h | 20565m | -16.2m/s | -54.4°C | 0.6% | 53.7hPa | 2.6V | 08:23:50 | 02:09:09 | 00:00:00 | |
| DM7RM-13 | 2026-09-06 00:38:26 | 48.38285 | 10.27386 | 142° | 22km/h | 20597m | -14.7m/s | -54.1°C | 1.2% | 53.4hPa | 2.5V | 08:23:00 | 00:00:00 | 00:00:00 | |
| DO3MHA-11 | 2026-09-06 00:38:25 | 48.38289 | 10.27382 | 144° | 15km/h | 20613m | -16.9m/s | -53.7°C | 4.0% | 53.2hPa | 2.5V | 00:00:00 | 02:09:06 | 00:00:00 | |
| DM0DOS-11 | 2026-09-06 00:38:23 | 48.38299 | 10.27370 | 141° | 15km/h | 20666m | -18.2m/s | -53.6°C | 3.8% | 52.9hPa | 2.5V | 08:23:08 | 02:09:03 | 00:00:00 | |
| DK7TD | 2026-09-06 00:38:17 | 48.38310 | 10.27353 | 120° | 11km/h | 20752m | -17.5m/s | -54°C | 0.5% | 52.1hPa | 2.6V | 08:23:50 | 02:08:58 | 00:00:00 | |
| DO9HM | 2026-09-06 00:38:17 | 48.38310 | 10.27353 | 121° | 11km/h | 20752m | -17.5m/s | -54.0°C | 1.1% | 52.1hPa | 2.6V | 00:00:00 | 00:00:00 | 00:00:00 | |
| PG1ADW-2 | 2026-09-06 00:38:16 | 48.38312 | 10.27350 | 114° | 15km/h | 20769m | -17.1m/s | -53.8°C | 3.9% | 52.0hPa | 2.6V | 00:00:00 | 00:00:00 | 00:00:00 | |
| DO3MHA-11 | 2026-09-06 00:38:15 | 48.38312 | 10.27347 | 102° | 11km/h | 20786m | -16.9m/s | -53.7°C | 3.9% | 51.8hPa | 2.6V | 00:00:00 | 02:08:56 | 00:00:00 | |
| DM0DOS-11 | 2026-09-06 00:38:13 | 48.38311 | 10.27339 | 49° | 5km/h | 20836m | -15.9m/s | -53.7°C | 3.9% | 51.4hPa | 2.6V | 08:23:18 | 02:08:53 | 00:00:00 | |
| DK7TD | 2026-09-06 00:38:06 | 48.38296 | 10.27331 | 16° | 15km/h | 20934m | -16.2m/s | -54.3°C | 0.6% | 50.7hPa | 2.5V | 08:23:50 | 02:08:47 | 00:00:00 | |
| DB0UT-7 | 2026-09-06 00:38:06 | 48.38295 | 10.27330 | 16° | 27km/h | 20934m | -16.1m/s | -54.2°C | 4.1% | 50.6hPa | 2.5V | 00:00:00 | 00:00:00 | 00:00:00 | |
| DO3MHA-11 | 2026-09-06 00:38:05 | 48.38292 | 10.27329 | 21° | 20km/h | 20950m | -15.5m/s | -54.4°C | 4.2% | 50.5hPa | 2.5V | 00:00:00 | 02:08:46 | 00:00:00 | |
| DM7RM-13 | 2026-09-06 00:38:04 | 48.38292 | 10.27329 | 22° | 15km/h | 20950m | -15.6m/s | -54.4°C | 1.2% | 50.5hPa | 2.6V | 08:23:00 | 00:00:00 | 00:00:00 | |
| DM0DOS-11 | 2026-09-06 00:38:03 | 48.38283 | 10.27320 | 44° | 15km/h | 20998m | -16.4m/s | -54.8°C | 4.4% | 50.1hPa | 2.6V | 08:23:28 | 02:08:43 | 00:00:00 | |
| DK7TD | 2026-09-06 00:37:56 | 48.38266 | 10.27275 | 68° | 33km/h | 21105m | -15.6m/s | -54°C | 0.6% | 49.3hPa | 2.6V | 08:23:50 | 02:08:37 | 00:00:00 | |
| OE5DXL-15 | 2026-09-06 00:37:56 | 48.38266 | 10.27275 | 69° | 33km/h | 21106m | -15.6m/s | -54.0°C | 4.1% | 49.3hPa | 2.6V | 00:00:00 | 00:00:00 | 00:00:00 | |
| DO3MHA-11 | 2026-09-06 00:37:55 | 48.38262 | 10.27263 | 69° | 31km/h | 21121m | -16.0m/s | -54.0°C | 4.1% | 49.2hPa | 2.6V | 00:00:00 | 02:08:36 | 00:00:00 | |
| DM0DOS-11 | 2026-09-06 00:37:53 | 48.38254 | 10.27226 | 71° | 33km/h | 21169m | -18.6m/s | -54°C | 4.2% | 48.8hPa | 2.6V | 08:23:38 | 02:08:33 | 00:00:00 | |
| DK7TD | 2026-09-06 00:37:45 | 48.38250 | 10.27150 | 102° | 29km/h | 21287m | -18.6m/s | -53.1°C | 0.4% | 48hPa | 2.6V | 08:23:50 | 02:08:26 | 00:00:00 | |
| DO3MHA-11 | 2026-09-06 00:37:45 | 48.38250 | 10.27149 | 102° | 31km/h | 21288m | -18.5m/s | -53.0°C | 3.8% | 47.9hPa | 2.5V | 00:00:00 | 02:08:26 | 00:00:00 | |
| DM0DOS-11 | 2026-09-06 00:37:43 | 48.38255 | 10.27117 | 101° | 31km/h | 21345m | -19.2m/s | -53.2°C | 3.9% | 47.5hPa | 2.5V | 08:23:48 | 02:08:23 | 00:00:00 | |
| DK7TD | 2026-09-06 00:37:34 | 48.38268 | 10.27018 | 112° | 37km/h | 21484m | -20.6m/s | -52.8°C | 0.3% | 46.5hPa | 2.5V | 08:24:41 | 02:08:15 | 00:00:00 | |
| DM0DOS-11 | 2026-09-06 00:37:33 | 48.38275 | 10.26993 | 116° | 35km/h | 21523m | -18.5m/s | -53°C | 3.7% | 46.2hPa | 2.5V | 08:23:58 | 02:08:13 | 00:00:00 | |
| AZAK | 2026-09-06 00:37:32 | 48.38275 | 10.26993 | 118° | 37km/h | 21523m | -18.5m/s | -53.0°C | 1.0% | 46.2hPa | 2.5V | 08:24:00 | 00:00:00 | 00:00:00 | |
| DO3MHA-12 | 2026-09-06 00:37:30 | 48.38283 | 10.26970 | 121° | 31km/h | 21561m | -19.8m/s | -53.1°C | 3.7% | 45.9hPa | 2.5V | 00:00:00 | 02:08:11 | 00:00:00 | |
| OE5DRO-10 | 2026-09-06 00:37:28 | 48.38291 | 10.26949 | 127° | 27km/h | 21598m | -18.8m/s | -53.1°C | 3.7% | 45.7hPa | 2.5V | 00:00:00 | 00:00:00 | 00:00:00 | |
| HARRO8 | 2026-09-06 00:37:27 | 48.38296 | 10.26941 | 130° | 29km/h | 21616m | -17.7m/s | -53.1°C | 1.0% | 45.6hPa | 2.5V | 00:00:00 | 00:00:00 | 00:00:00 | |
| OE5MMP-10 | 2026-09-06 00:37:26 | 48.38301 | 10.26932 | 130° | 31km/h | 21633m | -16.9m/s | -53.0°C | 3.7% | 45.4hPa | 2.5V | 00:00:00 | 02:08:07 | 00:00:00 | |
| DO3MHA-11 | 2026-09-06 00:37:25 | 48.38306 | 10.26924 | 134° | 31km/h | 21651m | -17.3m/s | -53.0°C | 3.7% | 45.3hPa | 2.5V | 00:00:00 | 02:08:06 | 00:00:00 | |
| DH7VM-15 | 2026-09-06 00:37:24 | 48.38306 | 10.26924 | 135° | 29km/h | 21651m | -17.3m/s | -53.1°C | 1.0% | 45.3hPa | 2.5V | 00:00:00 | 00:00:00 | 00:00:00 | |
| DM0DOS-11 | 2026-09-06 00:37:23 | 48.38322 | 10.26900 | 139° | 31km/h | 21703m | -16.6m/s | -53.1°C | 3.7% | 45hPa | 2.5V | 08:24:08 | 02:08:03 | 00:00:00 | |
| DK7TD | 2026-09-06 00:37:23 | 48.38317 | 10.26908 | 136° | 31km/h | 21686m | -18.8m/s | -53.1°C | 0.3% | 45.1hPa | 2.5V | 08:24:41 | 02:08:04 | 00:00:00 | |
| BAUMI2-15 | 2026-09-06 00:37:23 | 48.38317 | 10.26908 | 136° | 31km/h | 21686m | -18.7m/s | -53.0°C | 3.7% | 45.0hPa | 2.5V | 00:00:00 | 02:08:04 | 00:00:00 | |
| DF1GD-15 | 2026-09-06 00:37:21 | 48.38322 | 10.26900 | 140° | 31km/h | 21704m | -16.6m/s | -53.1°C | 1.0% | 45.0hPa | 2.6V | 08:24:00 | 00:00:00 | 00:00:00 | |
| DO3MHA-12 | 2026-09-06 00:37:20 | 48.38334 | 10.26884 | 141° | 27km/h | 21739m | -19.2m/s | -53.2°C | 3.6% | 44.6hPa | 2.6V | 00:00:00 | 02:08:01 | 00:00:00 | |
| IW2NTF | 2026-09-06 00:37:19 | 48.38363 | 10.26849 | 142° | 26km/h | 21833m | -19.1m/s | -53.7°C | 3.7% | 44hPa | 2.6V | 08:24:15 | 02:07:56 | 00:00:00 | |
| DJ8HS-15 | 2026-09-06 00:37:18 | 48.38346 | 10.26869 | 140° | 20km/h | 21776m | -20.6m/s | -53.3°C | 3.7% | 44.5hPa | 2.5V | 00:00:00 | 02:07:59 | 00:00:00 | |
| DF7PN | 2026-09-06 00:37:17 | 48.38358 | 10.26855 | 140° | 27km/h | 21815m | -18.4m/s | -53.6°C | 1.0% | 44.2hPa | 2.5V | 00:00:00 | 00:00:00 | 00:00:00 | |
| OE5MMP-10 | 2026-09-06 00:37:16 | 48.38358 | 10.26855 | 141° | 22km/h | 21815m | -18.3m/s | -53.6°C | 3.8% | 44.2hPa | 2.5V | 00:00:00 | 02:07:57 | 00:00:00 | |
| DO3MHA-11 | 2026-09-06 00:37:15 | 48.38363 | 10.26849 | 143° | 20km/h | 21833m | -19.1m/s | -53.6°C | 3.7% | 44.0hPa | 2.5V | 00:00:00 | 02:07:56 | 00:00:00 | |
| DM0DOS-11 | 2026-09-06 00:37:13 | 48.38377 | 10.26831 | 135° | 20km/h | 21897m | -22.9m/s | -53.8°C | 3.8% | 43.6hPa | 2.5V | 08:24:18 | 02:07:53 | 00:00:00 | |
| DK7TD | 2026-09-06 00:37:12 | 48.38377 | 10.26831 | 136° | 20km/h | 21897m | -22.9m/s | -53.8°C | 0.3% | 43.7hPa | 2.5V | 08:24:41 | 02:07:53 | 00:00:00 | |
| AZAK | 2026-09-06 00:37:11 | 48.38381 | 10.26826 | 137° | 22km/h | 21920m | -21.9m/s | -53.8°C | 1.0% | 43.5hPa | 2.6V | 08:24:00 | 00:00:00 | 00:00:00 | |
| DB0ND-19 | 2026-09-06 00:37:10 | 48.38388 | 10.26815 | 135° | 18km/h | 21960m | -18.7m/s | -54.0°C | 1.0% | 43.2hPa | 2.6V | 00:00:00 | 00:00:00 | 00:00:00 | |
| OE5DRO-10 | 2026-09-06 00:37:09 | 48.38388 | 10.26815 | 136° | 13km/h | 21960m | -18.7m/s | -53.9°C | 3.8% | 43.2hPa | 2.6V | 00:00:00 | 00:00:00 | 00:00:00 | |
| BAUMI2-15 | 2026-09-06 00:37:08 | 48.38391 | 10.26810 | 138° | 18km/h | 21978m | -17.5m/s | -54.1°C | 3.9% | 43.0hPa | 2.6V | 00:00:00 | 02:07:49 | 00:00:00 | |
| DF9NV-10 | 2026-09-06 00:37:07 | 48.38391 | 10.26810 | 139° | 18km/h | 21978m | -17.6m/s | -54.1°C | 1.1% | 43.1hPa | 2.5V | 08:24:00 | 00:00:00 | 00:00:00 | |
| DL1ZP-14 | 2026-09-06 00:37:06 | 48.38401 | 10.26795 | 139° | 16km/h | 22030m | -18.0m/s | -54.5°C | 1.1% | 42.7hPa | 2.5V | 00:00:00 | 00:00:00 | 00:00:00 | |
| DO3MHA-11 | 2026-09-06 00:37:05 | 48.38401 | 10.26795 | 140° | 15km/h | 22031m | -17.9m/s | -54.5°C | 4.1% | 42.7hPa | 2.5V | 08:24:00 | 02:07:46 | 00:00:00 | |
| DM0DOS-11 | 2026-09-06 00:37:03 | 48.38411 | 10.26781 | 132° | 16km/h | 22087m | -18.9m/s | -54.9°C | 4.3% | 42.4hPa | 2.5V | 08:24:28 | 02:07:43 | 00:00:00 | |
| DK7TD | 2026-09-06 00:37:01 | 48.38414 | 10.26776 | 125° | 16km/h | 22106m | -17.3m/s | -55°C | 0.7% | 42.2hPa | 2.5V | 08:24:41 | 02:07:42 | 00:00:00 | |
| DO3MHA-12 | 2026-09-06 00:37:00 | 48.38416 | 10.26771 | 125° | 7km/h | 22123m | -16.6m/s | -55.0°C | 4.3% | 42.0hPa | 2.5V | 00:00:00 | 02:07:41 | 00:00:00 | |
| DJ8HS-15 | 2026-09-06 00:36:58 | 48.38420 | 10.26762 | 115° | 9km/h | 22159m | -18.0m/s | -55.2°C | 4.5% | 41.8hPa | 2.5V | 00:00:00 | 02:07:39 | 00:00:00 | |
| PG1ADW-2 | 2026-09-06 00:36:56 | 48.38423 | 10.26756 | 132° | 9km/h | 22196m | -19.4m/s | -55.3°C | 4.6% | 41.6hPa | 2.5V | 00:00:00 | 00:00:00 | 00:00:00 | |
| DO3MHA-11 | 2026-09-06 00:36:55 | 48.38424 | 10.26753 | 116° | 5km/h | 22215m | -18.6m/s | -55.2°C | 4.6% | 41.4hPa | 2.5V | 00:00:00 | 02:07:36 | 00:00:00 | |
| DM0DOS-11 | 2026-09-06 00:36:53 | 48.38427 | 10.26748 | 130° | 4km/h | 22276m | -20.5m/s | -54.6°C | 4.3% | 41.1hPa | 2.5V | 08:24:38 | 02:07:33 | 00:00:00 | |
| DK7TD | 2026-09-06 00:36:50 | 48.38427 | 10.26748 | 338° | 4km/h | 22318m | -23m/s | -54.3°C | 0.6% | 40.9hPa | 2.5V | 08:24:41 | 02:07:31 | 00:00:00 | |
| AZAK | 2026-09-06 00:36:50 | 48.38427 | 10.26748 | 339° | 4km/h | 22318m | -23.0m/s | -54.3°C | 1.1% | 40.9hPa | 2.6V | 08:24:00 | 00:00:00 | 00:00:00 | |
| OE5MMP-10 | 2026-09-06 00:36:49 | 48.38426 | 10.26748 | 334° | 9km/h | 22342m | -24.3m/s | -53.9°C | 3.9% | 40.7hPa | 2.6V | 00:00:00 | 02:07:30 | 00:00:00 | |
| DF9NV-10 | 2026-09-06 00:36:48 | 48.38425 | 10.26748 | 4° | 5km/h | 22367m | -25.3m/s | -53.7°C | 1.1% | 40.6hPa | 2.6V | 00:00:00 | 00:00:00 | 00:00:00 | |
| IW2NTF | 2026-09-06 00:36:47 | 48.38423 | 10.26738 | 116° | 11km/h | 22499m | -26.1m/s | -54.5°C | 4.1% | 39.8hPa | 2.6V | 08:30:00 | 02:07:24 | 00:00:00 | |
| DF7PN | 2026-09-06 00:36:46 | 48.38422 | 10.26744 | 85° | 5km/h | 22446m | -25.2m/s | -54.2°C | 1.0% | 40.1hPa | 2.6V | 00:00:00 | 00:00:00 | 00:00:00 | |
| DO3MHA-11 | 2026-09-06 00:36:45 | 48.38422 | 10.26744 | 86° | 15km/h | 22446m | -25.2m/s | -54.1°C | 3.9% | 40.1hPa | 2.6V | 00:00:00 | 02:07:26 | 00:00:00 | |
| DM0DOS-11 | 2026-09-06 00:36:43 | 48.38425 | 10.26735 | 135° | 13km/h | 22524m | -23.3m/s | -54.6°C | 4.1% | 39.6hPa | 2.6V | 08:24:48 | 02:07:23 | 00:00:00 | |
| DK7TD | 2026-09-06 00:36:40 | 48.38430 | 10.26726 | 142° | 16km/h | 22569m | -22.7m/s | -54.6°C | 0.6% | 39.3hPa | 2.5V | 08:25:32 | 02:07:21 | 00:00:00 | |
| DO3MHA-12 | 2026-09-06 00:36:40 | 48.38430 | 10.26726 | 142° | 20km/h | 22570m | -22.7m/s | -54.6°C | 4.2% | 39.2hPa | 2.5V | 00:00:00 | 02:07:21 | 00:00:00 | |
| DB0ND-19 | 2026-09-06 00:36:39 | 48.38438 | 10.26717 | 139° | 20km/h | 22615m | -22.2m/s | -54.5°C | 1.1% | 39.0hPa | 2.6V | 00:00:00 | 00:00:00 | 00:00:00 | |
| DJ8HS-15 | 2026-09-06 00:36:38 | 48.38438 | 10.26717 | 140° | 13km/h | 22615m | -22.1m/s | -54.4°C | 4.1% | 39.0hPa | 2.6V | 08:24:00 | 02:07:19 | 00:00:00 | |
| IW2NTF | 2026-09-06 00:36:38 | 48.38460 | 10.26695 | 145° | 20km/h | 22716m | -19.6m/s | -54.6°C | 4.2% | 38.4hPa | 2.6V | 08:30:00 | 02:07:14 | 00:00:00 | |
| DF3TZ-5 | 2026-09-06 00:36:37 | 48.38442 | 10.26712 | 147° | 20km/h | 22636m | -21.0m/s | -54.6°C | 1.1% | 38.9hPa | 2.5V | 00:00:00 | 00:00:00 | 00:00:00 | |
| PG1ADW-2 | 2026-09-06 00:36:36 | 48.38446 | 10.26708 | 148° | 11km/h | 22657m | -20.3m/s | -54.5°C | 4.2% | 38.7hPa | 2.5V | 08:24:00 | 00:00:00 | 00:00:00 | |
| DO3MHA-11 | 2026-09-06 00:36:35 | 48.38451 | 10.26704 | 151° | 13km/h | 22677m | -19.9m/s | -54.6°C | 4.2% | 38.6hPa | 2.5V | 00:00:00 | 02:07:16 | 00:00:00 | |
| DM0DOS-11 | 2026-09-06 00:36:33 | 48.38464 | 10.26691 | 141° | 18km/h | 22736m | -19.6m/s | -54.6°C | 4.3% | 38.2hPa | 2.6V | 08:24:58 | 02:07:13 | 00:00:00 | |
| DK7TD | 2026-09-06 00:36:30 | 48.38470 | 10.26685 | 155° | 11km/h | 22774m | -19.2m/s | -54.2°C | 0.6% | 38hPa | 2.5V | 08:25:32 | 02:07:11 | 00:00:00 | |
| DO3MHA-12 | 2026-09-06 00:36:30 | 48.38470 | 10.26685 | 155° | 5km/h | 22774m | -19.2m/s | -54.1°C | 4.1% | 38.0hPa | 2.5V | 00:00:00 | 02:07:11 | 00:00:00 | |
| AZAK | 2026-09-06 00:36:29 | 48.38472 | 10.26683 | 152° | 9km/h | 22795m | -22.1m/s | -54.0°C | 1.1% | 37.9hPa | 2.5V | 08:25:00 | 00:00:00 | 00:00:00 | |
| IW2NTF | 2026-09-06 00:36:28 | 48.38474 | 10.26679 | 47° | 5km/h | 22926m | -20.4m/s | -54.5°C | 4.3% | 37.1hPa | 2.5V | 08:30:00 | 02:07:04 | 00:00:00 | |
| DF9NV-10 | 2026-09-06 00:36:28 | 48.38474 | 10.26682 | 159° | 5km/h | 22817m | -22.5m/s | -54.0°C | 1.1% | 37.8hPa | 2.6V | 00:00:00 | 00:00:00 | 00:00:00 | |
| OE5DXL-15 | 2026-09-06 00:36:26 | 48.38475 | 10.26682 | 167° | 13km/h | 22862m | -22.2m/s | -54.2°C | 4.2% | 37.5hPa | 2.6V | 00:00:00 | 00:00:00 | 00:00:00 | |
| DO3MHA-11 | 2026-09-06 00:36:25 | 48.38475 | 10.26682 | 50° | 9km/h | 22884m | -21.7m/s | -54.3°C | 4.2% | 37.3hPa | 2.6V | 00:00:00 | 02:07:06 | 00:00:00 | |
| DM0DOS-11 | 2026-09-06 00:36:23 | 48.38473 | 10.26677 | 53° | 9km/h | 22946m | -20.1m/s | -54.6°C | 4.4% | 37hPa | 2.6V | 08:25:08 | 02:07:03 | 00:00:00 | |
| DK7TD | 2026-09-06 00:36:20 | 48.38470 | 10.26670 | 65° | 13km/h | 22986m | -19.5m/s | -54.6°C | 0.7% | 36.8hPa | 2.5V | 08:25:32 | 02:07:01 | 00:00:00 | |
| DO3MHA-12 | 2026-09-06 00:36:20 | 48.38470 | 10.26670 | 66° | 11km/h | 22987m | -19.5m/s | -54.6°C | 4.4% | 36.7hPa | 2.5V | 00:00:00 | 02:07:01 | 00:00:00 | |
| OE5MMP-10 | 2026-09-06 00:36:19 | 48.38469 | 10.26666 | 80° | 11km/h | 23006m | -19.5m/s | -54.5°C | 4.4% | 36.6hPa | 2.5V | 00:00:00 | 02:07:00 | 00:00:00 | |
| DJ8HS-15 | 2026-09-06 00:36:18 | 48.38469 | 10.26660 | 79° | 13km/h | 23026m | -20.2m/s | -54.6°C | 4.4% | 36.5hPa | 2.5V | 00:00:00 | 02:06:59 | 00:00:00 | |
| PG1ADW-2 | 2026-09-06 00:36:16 | 48.38467 | 10.26649 | 94° | 13km/h | 23068m | -20.8m/s | -54.5°C | 4.3% | 36.3hPa | 2.5V | 00:00:00 | 00:00:00 | 00:00:00 | |
| IW2NTF | 2026-09-06 00:36:15 | 48.38469 | 10.26638 | 113° | 9km/h | 23127m | -18.6m/s | -53.7°C | 4% | 36hPa | 2.5V | 08:30:00 | 02:06:54 | 00:00:00 | |
| DO3MHA-11 | 2026-09-06 00:36:15 | 48.38468 | 10.26645 | 98° | 11km/h | 23089m | -20.4m/s | -54.3°C | 4.3% | 36.2hPa | 2.6V | 00:00:00 | 02:06:56 | 00:00:00 | |
| DM0DOS-11 | 2026-09-06 00:36:13 | 48.38470 | 10.26635 | 128° | 7km/h | 23146m | -20.6m/s | -53.3°C | 3.9% | 35.9hPa | 2.6V | 08:25:18 | 02:06:53 | 00:00:00 | |
| DK7TD | 2026-09-06 00:36:09 | 48.38473 | 10.26625 | 101° | 9km/h | 23210m | -21.1m/s | -52.7°C | 0.3% | 35.5hPa | 2.5V | 08:25:32 | 02:06:50 | 00:00:00 | |
| OE5MMP-10 | 2026-09-06 00:36:09 | 48.38473 | 10.26625 | 102° | 16km/h | 23211m | -21.1m/s | -52.6°C | 3.7% | 35.5hPa | 2.5V | 00:00:00 | 02:06:50 | 00:00:00 | |
| DB0ND-19 | 2026-09-06 00:36:08 | 48.38474 | 10.26616 | 102° | 13km/h | 23251m | -19.3m/s | -52.9°C | 1.0% | 35.3hPa | 2.5V | 00:00:00 | 00:00:00 | 00:00:00 | |
| DH7VM-15 | 2026-09-06 00:36:07 | 48.38474 | 10.26616 | 104° | 15km/h | 23251m | -19.3m/s | -52.9°C | 1.0% | 35.3hPa | 2.5V | 00:00:00 | 00:00:00 | 00:00:00 | |
| DB0UT-7 | 2026-09-06 00:36:06 | 48.38475 | 10.26611 | 103° | 20km/h | 23269m | -17.5m/s | -52.9°C | 3.8% | 35.1hPa | 2.5V | 00:00:00 | 00:00:00 | 00:00:00 | |
| DO3MHA-11 | 2026-09-06 00:36:05 | 48.38476 | 10.26604 | 108° | 16km/h | 23287m | -18.1m/s | -53.0°C | 3.9% | 35.0hPa | 2.5V | 00:00:00 | 02:06:46 | 00:00:00 | |
| DM0DOS-11 | 2026-09-06 00:36:03 | 48.38483 | 10.26587 | 132° | 16km/h | 23344m | -18.1m/s | -53.2°C | 4% | 34.8hPa | 2.5V | 08:25:28 | 02:06:43 | 00:00:00 | |
| DK7TD | 2026-09-06 00:35:59 | 48.38493 | 10.26576 | 152° | 15km/h | 23400m | -17.9m/s | -53.6°C | 0.5% | 34.5hPa | 2.6V | 08:25:32 | 02:06:40 | 00:00:00 | |
| IW2NTF | 2026-09-06 00:35:59 | 48.38509 | 10.26554 | 119° | 15km/h | 23538m | -26.4m/s | -53.4°C | 4% | 33.8hPa | 2.6V | 08:30:00 | 02:06:34 | 00:00:00 | |
| DK7TD | 2026-09-06 00:35:48 | 48.38513 | 10.26530 | 102° | 15km/h | 23669m | -25.9m/s | -53.4°C | 0.6% | 33.1hPa | 2.6V | 08:26:23 | 02:06:29 | 00:00:00 | |
| BAUMI2-15 | 2026-09-06 00:35:48 | 48.38513 | 10.26530 | 102° | 18km/h | 23670m | -25.9m/s | -53.4°C | 4.1% | 33.1hPa | 2.5V | 00:00:00 | 02:06:29 | 00:00:00 | |
| DF9NV-10 | 2026-09-06 00:35:47 | 48.38513 | 10.26530 | 103° | 15km/h | 23670m | -25.9m/s | -53.4°C | 1.1% | 33.1hPa | 2.5V | 08:26:00 | 00:00:00 | 00:00:00 | |
| IW2NTF | 2026-09-06 00:35:46 | 48.38527 | 10.26481 | 138° | 27km/h | 23847m | -24.6m/s | -53.2°C | 4.1% | 32.2hPa | 2.5V | 08:30:00 | 02:06:22 | 00:00:00 | |
| DK7TD | 2026-09-06 00:35:37 | 48.38556 | 10.26457 | 162° | 37km/h | 23937m | -21.4m/s | -52.8°C | 0.5% | 31.7hPa | 2.5V | 08:26:23 | 02:06:18 | 00:00:00 | |
| DB0UT-7 | 2026-09-06 00:35:37 | 48.38564 | 10.26453 | 167° | 18km/h | 23959m | -20.9m/s | -52.7°C | 3.9% | 31.6hPa | 2.5V | 08:25:00 | 02:06:17 | 00:00:00 | |
| PG1ADW-2 | 2026-09-06 00:35:36 | 48.38564 | 10.26453 | 167° | 20km/h | 23959m | -20.9m/s | -52.7°C | 3.9% | 31.6hPa | 2.5V | 00:00:00 | 00:00:00 | 00:00:00 | |
| DO3MHA-11 | 2026-09-06 00:35:35 | 48.38573 | 10.26451 | 176° | 24km/h | 23981m | -23.0m/s | -52.7°C | 3.9% | 31.4hPa | 2.5V | 08:25:00 | 02:06:16 | 00:00:00 | |
| DM0DOS-11 | 2026-09-06 00:35:33 | 48.38596 | 10.26453 | 188° | 26km/h | 24051m | -23m/s | -52.5°C | 3.8% | 31.2hPa | 2.5V | 08:25:58 | 02:06:13 | 00:00:00 | |
| DK7TD | 2026-09-06 00:35:27 | 48.38621 | 10.26464 | 195° | 16km/h | 24148m | -18.6m/s | -52.3°C | 0.4% | 30.7hPa | 2.6V | 08:26:23 | 02:06:08 | 00:00:00 | |
| DF9NV-10 | 2026-09-06 00:35:26 | 48.38625 | 10.26465 | 188° | 15km/h | 24168m | -19.7m/s | -52.3°C | 1.0% | 30.6hPa | 2.5V | 08:26:00 | 00:00:00 | 00:00:00 | |
| DO3MHA-11 | 2026-09-06 00:35:25 | 48.38628 | 10.26466 | 189° | 16km/h | 24187m | -18.5m/s | -52.3°C | 3.9% | 30.5hPa | 2.5V | 00:00:00 | 02:06:06 | 00:00:00 | |
| DM0DOS-11 | 2026-09-06 00:35:23 | 48.38641 | 10.26470 | 199° | 18km/h | 24252m | -23.2m/s | -52.3°C | 3.9% | 30.2hPa | 2.5V | 08:26:08 | 02:06:03 | 00:00:00 | |
| DK7TD | 2026-09-06 00:35:16 | 48.38663 | 10.26485 | 211° | 11km/h | 24377m | -20.1m/s | -51.8°C | 0.4% | 29.6hPa | 2.6V | 08:26:23 | 02:05:57 | 00:00:00 | |
| PG1ADW-2 | 2026-09-06 00:35:16 | 48.38663 | 10.26485 | 211° | 11km/h | 24377m | -20.1m/s | -51.7°C | 3.7% | 29.6hPa | 2.5V | 00:00:00 | 00:00:00 | 00:00:00 | |
| DO3MHA-11 | 2026-09-06 00:35:15 | 48.38666 | 10.26487 | 214° | 11km/h | 24397m | -20.6m/s | -51.7°C | 3.7% | 29.5hPa | 2.5V | 00:00:00 | 02:05:56 | 00:00:00 | |
| DM0DOS-11 | 2026-09-06 00:35:13 | 48.38673 | 10.26494 | 201° | 11km/h | 24462m | -25.2m/s | -51.6°C | 3.6% | 29.3hPa | 2.5V | 08:26:18 | 02:05:53 | 00:00:00 | |
| DF7PN | 2026-09-06 00:35:13 | 48.38674 | 10.26494 | 201° | 11km/h | 24462m | -25.2m/s | -51.6°C | 0.9% | 29.3hPa | 2.6V | 00:00:00 | 00:00:00 | 00:00:00 | |
| DO3MHA-12 | 2026-09-06 00:35:10 | 48.38679 | 10.26499 | 201° | 9km/h | 24511m | -23.9m/s | -51.5°C | 3.6% | 29.0hPa | 2.6V | 00:00:00 | 02:05:51 | 00:00:00 | |
| OE5MMP-10 | 2026-09-06 00:35:09 | 48.38682 | 10.26501 | 210° | 9km/h | 24534m | -23.0m/s | -51.4°C | 3.6% | 28.9hPa | 2.5V | 00:00:00 | 02:05:50 | 00:00:00 | |
| IW2NTF | 2026-09-06 00:35:08 | 48.38692 | 10.26512 | 281° | 5km/h | 24676m | -27m/s | -51.1°C | 3.4% | 28.3hPa | 2.5V | 08:30:00 | 02:05:44 | 00:00:00 | |
| DK7TD | 2026-09-06 00:35:06 | 48.38689 | 10.26507 | 225° | 9km/h | 24603m | -21.1m/s | -51.3°C | 0.2% | 28.6hPa | 2.6V | 08:27:14 | 02:05:47 | 00:00:00 | |
| DB0ND-19 | 2026-09-06 00:35:06 | 48.38691 | 10.26509 | 217° | 5km/h | 24625m | -23.6m/s | -51.2°C | 0.9% | 28.5hPa | 2.6V | 00:00:00 | 00:00:00 | 00:00:00 | |
| DO3MHA-11 | 2026-09-06 00:35:05 | 48.38691 | 10.26509 | 218° | 13km/h | 24625m | -23.6m/s | -51.2°C | 3.5% | 28.5hPa | 2.6V | 00:00:00 | 02:05:46 | 00:00:00 | |
| DM0DOS-11 | 2026-09-06 00:35:03 | 48.38691 | 10.26515 | 313° | 9km/h | 24703m | -25.6m/s | -51.2°C | 3.5% | 28.2hPa | 2.5V | 08:26:28 | 02:05:43 | 00:00:00 | |
| DL1ZP-14 | 2026-09-06 00:35:01 | 48.38690 | 10.26517 | 329° | 9km/h | 24727m | -23.5m/s | -51.3°C | 0.9% | 28.1hPa | 2.6V | 00:00:00 | 00:00:00 | 00:00:00 | |
| DM7RM-13 | 2026-09-06 00:35:00 | 48.38688 | 10.26520 | 325° | 13km/h | 24749m | -20.4m/s | -51.5°C | 1.0% | 28.0hPa | 2.5V | 08:27:00 | 00:00:00 | 00:00:00 | |
| OE5MMP-10 | 2026-09-06 00:34:59 | 48.38685 | 10.26523 | 328° | 18km/h | 24769m | -19.3m/s | -51.6°C | 3.7% | 27.9hPa | 2.5V | 00:00:00 | 02:05:40 | 00:00:00 | |
| IW2NTF | 2026-09-06 00:34:58 | 48.38657 | 10.26533 | 8° | 20km/h | 24911m | -25.4m/s | -52°C | 3.8% | 27.3hPa | 2.5V | 08:30:00 | 02:05:34 | 00:00:00 | |
| DK7TD | 2026-09-06 00:34:55 | 48.38667 | 10.26532 | 350° | 20km/h | 24861m | -25.6m/s | -51.9°C | 0.4% | 27.6hPa | 2.6V | 08:27:14 | 02:05:36 | 00:00:00 | |
| DO3MHA-11 | 2026-09-06 00:34:55 | 48.38667 | 10.26532 | 350° | 16km/h | 24861m | -25.6m/s | -51.9°C | 3.8% | 27.5hPa | 2.5V | 00:00:00 | 02:05:36 | 00:00:00 | |
| DM0DOS-11 | 2026-09-06 00:34:53 | 48.38652 | 10.26532 | 14° | 18km/h | 24936m | -25.3m/s | -52.1°C | 3.9% | 27.2hPa | 2.5V | 08:26:38 | 02:05:33 | 00:00:00 | |
| HARRO8 | 2026-09-06 00:34:52 | 48.38652 | 10.26532 | 14° | 18km/h | 24937m | -25.3m/s | -52.1°C | 1.0% | 27.2hPa | 2.5V | 00:00:00 | 00:00:00 | 00:00:00 | |
| DK7TD | 2026-09-06 00:34:44 | 48.38637 | 10.26506 | 117° | 9km/h | 25172m | -28.7m/s | -51.9°C | 0.5% | 26.3hPa | 2.5V | 08:27:14 | 02:05:25 | 00:00:00 | |
| DM0DOS-11 | 2026-09-06 00:34:43 | 48.38640 | 10.26502 | 153° | 9km/h | 25228m | -27.1m/s | -51.6°C | 3.7% | 26.1hPa | 2.5V | 08:26:48 | 02:05:23 | 00:00:00 | |
| SONCRA | 2026-09-06 00:34:43 | 48.38640 | 10.26502 | 153° | 9km/h | 25228m | -27.1m/s | -51.6°C | 0.9% | 26.1hPa | 2.5V | 00:00:00 | 00:00:00 | 00:00:00 | |
| DF7PN | 2026-09-06 00:34:42 | 48.38642 | 10.26501 | 173° | 9km/h | 25255m | -27.1m/s | -51.5°C | 1.0% | 25.9hPa | 2.5V | 00:00:00 | 00:00:00 | 00:00:00 | |
| DC4HF-4 | 2026-09-06 00:34:41 | 48.38645 | 10.26501 | 199° | 9km/h | 25283m | -28.8m/s | -51.5°C | 1.0% | 25.8hPa | 2.5V | 00:00:00 | 00:00:00 | 00:00:00 | |
| DB0NH | 2026-09-06 00:34:40 | 48.38645 | 10.26501 | 200° | 5km/h | 25283m | -28.8m/s | -51.4°C | 3.7% | 25.8hPa | 2.5V | 00:00:00 | 02:05:21 | 00:00:00 | |
| OE5MMP-10 | 2026-09-06 00:34:39 | 48.38647 | 10.26503 | 215° | 7km/h | 25313m | -30.3m/s | -51.4°C | 3.7% | 25.6hPa | 2.5V | 00:00:00 | 02:05:20 | 00:00:00 | |
| DJ8HS-15 | 2026-09-06 00:34:38 | 48.38649 | 10.26505 | 204° | 4km/h | 25344m | -32.7m/s | -51.2°C | 3.6% | 25.6hPa | 2.5V | 00:00:00 | 02:05:19 | 00:00:00 | |
| OE5DRO-10 | 2026-09-06 00:34:37 | 48.38651 | 10.26507 | 239° | 4km/h | 25378m | -34.0m/s | -51.0°C | 3.6% | 25.5hPa | 2.5V | 00:00:00 | 00:00:00 | 00:00:00 | |
| DB0UT-7 | 2026-09-06 00:34:36 | 48.38652 | 10.26509 | 222° | 5km/h | 25411m | -33.0m/s | -50.9°C | 3.5% | 25.3hPa | 2.6V | 00:00:00 | 02:05:17 | 00:00:00 | |
| DO3MHA-11 | 2026-09-06 00:34:35 | 48.38652 | 10.26511 | 292° | 5km/h | 25446m | -34.6m/s | -51.0°C | 3.6% | 25.2hPa | 2.6V | 00:00:00 | 02:05:16 | 00:00:00 | |
| DM0DOS-11 | 2026-09-06 00:34:33 | 48.38650 | 10.26515 | 359° | 7km/h | 25546m | -32.1m/s | -51.5°C | 3.8% | 24.8hPa | 2.5V | 08:26:58 | 02:05:13 | 00:00:00 | |
| DK7TD | 2026-09-06 00:34:33 | 48.38651 | 10.26514 | 355° | 5km/h | 25513m | -32.5m/s | -51.4°C | 0.4% | 25hPa | 2.5V | 08:27:14 | 02:05:14 | 00:00:00 | |
| HEMX73-6 | 2026-09-06 00:34:32 | 48.38650 | 10.26515 | 360° | 5km/h | 25546m | -32.0m/s | -51.5°C | 3.8% | 24.8hPa | 2.5V | 00:00:00 | 02:05:13 | 00:00:00 | |
| DO3MHA-12 | 2026-09-06 00:34:30 | 48.38646 | 10.26514 | 1° | 4km/h | 25608m | -28.8m/s | -51.5°C | 3.9% | 24.5hPa | 2.5V | 00:00:00 | 02:05:11 | 00:00:00 | |
| OE5MMP-10 | 2026-09-06 00:34:29 | 48.38645 | 10.26514 | 352° | 4km/h | 25636m | -26.3m/s | -51.4°C | 3.9% | 24.4hPa | 2.5V | 00:00:00 | 02:05:10 | 00:00:00 | |
| DL6DJ-15 | 2026-09-06 00:34:27 | 48.38643 | 10.26514 | 221° | 2km/h | 25684m | -21.9m/s | -51.3°C | 1.0% | 24.2hPa | 2.5V | 00:00:00 | 00:00:00 | 00:00:00 | |
| OE5DXL-15 | 2026-09-06 00:34:26 | 48.38644 | 10.26514 | 187° | 5km/h | 25707m | -22.8m/s | -51.2°C | 3.8% | 24.1hPa | 2.5V | 00:00:00 | 00:00:00 | 00:00:00 | |
| DF9NV-10 | 2026-09-06 00:34:25 | 48.38645 | 10.26515 | 215° | 5km/h | 25730m | -24.1m/s | -51.3°C | 1.0% | 24.1hPa | 2.5V | 08:27:00 | 00:00:00 | 00:00:00 | |
| DM0DOS-11 | 2026-09-06 00:34:23 | 48.38647 | 10.26515 | 129° | 2km/h | 25810m | -27.3m/s | -50.8°C | 3.6% | 23.8hPa | 2.5V | 08:27:08 | 02:05:03 | 00:00:00 | |
| DK7TD | 2026-09-06 00:34:22 | 48.38647 | 10.26515 | 129° | 2km/h | 25810m | -27.3m/s | -50.8°C | 0.3% | 23.8hPa | 2.5V | 08:27:14 | 02:05:03 | 00:00:00 | |
| HARRO8 | 2026-09-06 00:34:21 | 48.38648 | 10.26515 | 88° | 0km/h | 25837m | -27.3m/s | -50.7°C | 0.9% | 23.6hPa | 2.5V | 00:00:00 | 00:00:00 | 00:00:00 | |
| DJTTGO | 2026-09-06 00:34:20 | 48.38648 | 10.26514 | 20° | 2km/h | 25864m | -26.2m/s | -50.7°C | 0.9% | 23.6hPa | 2.5V | 08:27:00 | 00:00:00 | 00:00:00 | |
| OE5MMP-10 | 2026-09-06 00:34:19 | 48.38647 | 10.26514 | 50° | 5km/h | 25890m | -25.6m/s | -50.7°C | 3.6% | 23.4hPa | 2.5V | 00:00:00 | 02:05:00 | 00:00:00 | |
| DJ8HS-15 | 2026-09-06 00:34:18 | 48.38646 | 10.26512 | 62° | 5km/h | 25918m | -29.6m/s | -50.5°C | 3.6% | 23.3hPa | 2.5V | 00:00:00 | 02:04:59 | 00:00:00 | |
| DF1GD-15 | 2026-09-06 00:34:17 | 48.38646 | 10.26510 | 69° | 4km/h | 25948m | -31.6m/s | -50.4°C | 0.9% | 23.3hPa | 2.5V | 08:27:00 | 00:00:00 | 00:00:00 | |
| PG1ADW-2 | 2026-09-06 00:34:16 | 48.38645 | 10.26509 | 34° | 5km/h | 25979m | -30.6m/s | -50.2°C | 3.5% | 23.1hPa | 2.5V | 00:00:00 | 00:00:00 | 00:00:00 | |
| DO3MHA-11 | 2026-09-06 00:34:15 | 48.38644 | 10.26508 | 65° | 7km/h | 26010m | -31.6m/s | -50.1°C | 3.4% | 23.0hPa | 2.5V | 00:00:00 | 02:04:56 | 00:00:00 | |
| DM0DOS-11 | 2026-09-06 00:34:13 | 48.38645 | 10.26505 | 104° | 4km/h | 26104m | -32.2m/s | -50°C | 3.4% | 22.7hPa | 2.5V | 08:27:18 | 02:04:53 | 00:00:00 | |
| DK7TD | 2026-09-06 00:34:12 | 48.38645 | 10.26505 | 105° | 4km/h | 26104m | -32.3m/s | -50°C | 0.2% | 22.8hPa | 2.5V | 08:28:05 | 02:04:53 | 00:00:00 | |
| SONCRA | 2026-09-06 00:34:11 | 48.38645 | 10.26502 | 114° | 7km/h | 26135m | -30.9m/s | -50.0°C | 0.9% | 22.6hPa | 2.6V | 00:00:00 | 00:00:00 | 00:00:00 | |
| DO3MHA-12 | 2026-09-06 00:34:10 | 48.38646 | 10.26499 | 122° | 7km/h | 26166m | -28.3m/s | -50.0°C | 3.5% | 22.5hPa | 2.6V | 00:00:00 | 02:04:51 | 00:00:00 | |
| OE5MMP-10 | 2026-09-06 00:34:09 | 48.38647 | 10.26496 | 133° | 5km/h | 26193m | -26.7m/s | -50.0°C | 3.5% | 22.4hPa | 2.6V | 00:00:00 | 02:04:50 | 00:00:00 | |
| NBG1-10 | 2026-09-06 00:34:07 | 48.38650 | 10.26489 | 122° | 9km/h | 26244m | -25.1m/s | -50.2°C | 3.6% | 22.1hPa | 2.6V | 00:00:00 | 02:04:48 | 00:00:00 | |
| DB0UT-7 | 2026-09-06 00:34:06 | 48.38651 | 10.26486 | 110° | 7km/h | 26269m | -25.8m/s | -50.2°C | 3.6% | 22.1hPa | 2.6V | 00:00:00 | 00:00:00 | 00:00:00 | |
| DC4HF-4 | 2026-09-06 00:34:05 | 48.38652 | 10.26482 | 128° | 4km/h | 26330m | -32.8m/s | -50.1°C | 0.9% | 22.0hPa | 2.6V | 00:00:00 | 00:00:00 | 00:00:00 | |
| AZAK | 2026-09-06 00:34:04 | 48.38652 | 10.26482 | 130° | 5km/h | 26330m | -32.8m/s | -50.1°C | 0.9% | 22.0hPa | 2.6V | 08:28:00 | 00:00:00 | 00:00:00 | |
| DM0DOS-11 | 2026-09-06 00:34:03 | 48.38653 | 10.26478 | 40° | 2km/h | 26438m | -36.5m/s | -49.9°C | 3.5% | 21.7hPa | 2.6V | 08:27:29 | 02:04:42 | 00:00:00 | |
| DK7TD | 2026-09-06 00:34:01 | 48.38653 | 10.26478 | 41° | 2km/h | 26438m | -36.5m/s | -49.9°C | 0.2% | 21.7hPa | 2.6V | 08:28:05 | 02:04:42 | 00:00:00 | |
| DO3MHA-12 | 2026-09-06 00:34:00 | 48.38653 | 10.26477 | 56° | 7km/h | 26475m | -36.4m/s | -49.7°C | 3.5% | 21.5hPa | 2.5V | 00:00:00 | 02:04:41 | 00:00:00 | |
| OE5MMP-10 | 2026-09-06 00:33:59 | 48.38651 | 10.26476 | 35° | 7km/h | 26512m | -36.6m/s | -49.6°C | 3.5% | 21.4hPa | 2.5V | 08:27:00 | 02:04:40 | 00:00:00 | |
| DJ8HS-15 | 2026-09-06 00:33:58 | 48.38650 | 10.26475 | 34° | 7km/h | 26548m | -36.5m/s | -49.6°C | 3.5% | 21.2hPa | 2.6V | 00:00:00 | 02:04:39 | 00:00:00 | |
| PG1ADW-2 | 2026-09-06 00:33:56 | 48.38648 | 10.26470 | 54° | 9km/h | 26619m | -34.0m/s | -49.7°C | 3.6% | 21.0hPa | 2.6V | 00:00:00 | 00:00:00 | 00:00:00 | |
| DO3MHA-11 | 2026-09-06 00:33:55 | 48.38646 | 10.26467 | 57° | 5km/h | 26653m | -34.4m/s | -49.7°C | 3.6% | 20.8hPa | 2.6V | 00:00:00 | 02:04:36 | 00:00:00 | |
| DM0DOS-11 | 2026-09-06 00:33:53 | 48.38643 | 10.26459 | 107° | 4km/h | 26775m | -29.5m/s | -49.7°C | 3.6% | 20.5hPa | 2.6V | 08:27:39 | 02:04:32 | 00:00:00 | |
| DK7TD | 2026-09-06 00:33:51 | 48.38642 | 10.26459 | 107° | 4km/h | 26775m | -29.5m/s | -49.7°C | 0.4% | 20.5hPa | 2.6V | 08:28:05 | 02:04:32 | 00:00:00 | |
| HARRO8 | 2026-09-06 00:33:50 | 48.38643 | 10.26456 | 105° | 4km/h | 26836m | -31.2m/s | -49.5°C | 0.9% | 20.3hPa | 2.6V | 00:00:00 | 00:00:00 | 00:00:00 | |
| EDDB2-11 | 2026-09-06 00:33:49 | 48.38644 | 10.26455 | 163° | 2km/h | 26867m | -29.7m/s | -49.5°C | 0.9% | 20.2hPa | 2.6V | 00:00:00 | 00:00:00 | 00:00:00 | |
| DO9HM | 2026-09-06 00:33:48 | 48.38643 | 10.26456 | 107° | 4km/h | 26837m | -31.2m/s | -49.5°C | 0.9% | 20.3hPa | 2.6V | 00:00:00 | 00:00:00 | 00:00:00 | |
| DO3MHA-11 | 2026-09-06 00:33:45 | 48.38646 | 10.26450 | 120° | 13km/h | 26965m | -32.7m/s | -48.8°C | 3.4% | 19.9hPa | 2.6V | 00:00:00 | 02:04:26 | 00:00:00 | |
| DF9NV-10 | 2026-09-06 00:33:44 | 48.38646 | 10.26450 | 120° | 7km/h | 26965m | -32.7m/s | -48.8°C | 0.9% | 19.9hPa | 2.6V | 08:28:00 | 00:00:00 | 00:00:00 | |
| DM0DOS-11 | 2026-09-06 00:33:42 | 48.38654 | 10.26443 | 163° | 13km/h | 27120m | -39.7m/s | -48.3°C | 3.3% | 19.5hPa | 2.6V | 08:27:49 | 02:04:22 | 00:00:00 | |
| DK7TD | 2026-09-06 00:33:41 | 48.38654 | 10.26443 | 163° | 13km/h | 27120m | -39.7m/s | -48.3°C | 0.2% | 19.5hPa | 2.6V | 08:28:05 | 02:04:22 | 00:00:00 | |
| SONCRA | 2026-09-06 00:33:41 | 48.38658 | 10.26441 | 166° | 13km/h | 27158m | -36.7m/s | -48.3°C | 0.8% | 19.4hPa | 2.6V | 00:00:00 | 00:00:00 | 00:00:00 | |
| DO3MHA-12 | 2026-09-06 00:33:40 | 48.38658 | 10.26441 | 167° | 18km/h | 27158m | -36.6m/s | -48.3°C | 3.3% | 19.3hPa | 2.6V | 00:00:00 | 02:04:21 | 00:00:00 | |
| OE5MMP-10 | 2026-09-06 00:33:39 | 48.38661 | 10.26440 | 172° | 18km/h | 27194m | -35.0m/s | -48.2°C | 3.3% | 19.2hPa | 2.5V | 00:00:00 | 02:04:20 | 00:00:00 | |
| DJ8HS-15 | 2026-09-06 00:33:38 | 48.38664 | 10.26440 | 180° | 16km/h | 27229m | -34.7m/s | -48.0°C | 3.3% | 19.1hPa | 2.5V | 08:27:00 | 02:04:19 | 00:00:00 | |
| PG1ADW-2 | 2026-09-06 00:33:36 | 48.38673 | 10.26440 | 180° | 18km/h | 27296m | -32.0m/s | -47.7°C | 3.2% | 18.9hPa | 2.6V | 08:27:00 | 00:00:00 | 00:00:00 | |
| DO3MHA-11 | 2026-09-06 00:33:35 | 48.38678 | 10.26440 | 191° | 18km/h | 27328m | -32.4m/s | -47.7°C | 3.2% | 18.8hPa | 2.6V | 00:00:00 | 02:04:16 | 00:00:00 | |
| NBG1-10 | 2026-09-06 00:33:34 | 48.38682 | 10.26442 | 205° | 15km/h | 27360m | -32.2m/s | -47.8°C | 3.2% | 18.7hPa | 2.5V | 00:00:00 | 02:04:15 | 00:00:00 | |
| DM0DOS-11 | 2026-09-06 00:33:32 | 48.38695 | 10.26455 | 217° | 20km/h | 27454m | -32.4m/s | -47.8°C | 3.2% | 18.5hPa | 2.6V | 08:27:59 | 02:04:12 | 00:00:00 | |
| DF3TZ-5 | 2026-09-06 00:33:31 | 48.38698 | 10.26459 | 224° | 16km/h | 27486m | -31.6m/s | -47.8°C | 0.8% | 18.4hPa | 2.5V | 00:00:00 | 00:00:00 | 00:00:00 | |
| DK7TD | 2026-09-06 00:33:31 | 48.38695 | 10.26455 | 218° | 20km/h | 27454m | -32.4m/s | -47.8°C | 0.1% | 18.5hPa | 2.6V | 08:28:05 | 02:04:12 | 00:00:00 | |
| DO3MHA-12 | 2026-09-06 00:33:30 | 48.38698 | 10.26459 | 225° | 13km/h | 27486m | -31.6m/s | -47.7°C | 3.2% | 18.3hPa | 2.5V | 00:00:00 | 02:04:11 | 00:00:00 | |
| DO9HM | 2026-09-06 00:33:29 | 48.38701 | 10.26464 | 236° | 18km/h | 27519m | -32.7m/s | -47.6°C | 0.8% | 18.3hPa | 2.5V | 00:00:00 | 00:00:00 | 00:00:00 | |
| DL1ZP-14 | 2026-09-06 00:33:28 | 48.38704 | 10.26470 | 244° | 16km/h | 27552m | -34.0m/s | -47.5°C | 0.7% | 18.2hPa | 2.5V | 00:00:00 | 00:00:00 | 00:00:00 | |
| DL6DJ-15 | 2026-09-06 00:33:26 | 48.38705 | 10.26484 | 289° | 7km/h | 27654m | -33.9m/s | -47.2°C | 0.8% | 17.9hPa | 2.6V | 00:00:00 | 00:00:00 | 00:00:00 | |
| DO3MHA-11 | 2026-09-06 00:33:25 | 48.38705 | 10.26484 | 290° | 16km/h | 27654m | -33.9m/s | -47.1°C | 3.1% | 17.9hPa | 2.6V | 00:00:00 | 02:04:06 | 00:00:00 | |
| DF9NV-10 | 2026-09-06 00:33:23 | 48.38704 | 10.26486 | 328° | 7km/h | 27688m | -33.5m/s | -47.2°C | 0.8% | 17.8hPa | 2.6V | 08:28:00 | 00:00:00 | 00:00:00 | |
| DM0DOS-11 | 2026-09-06 00:33:22 | 48.38696 | 10.26488 | 11° | 15km/h | 27786m | -33.7m/s | -47.1°C | 3.1% | 17.6hPa | 2.6V | 08:28:09 | 02:04:02 | 00:00:00 | |
| DK7TD | 2026-09-06 00:33:20 | 48.38692 | 10.26487 | 20° | 18km/h | 27820m | -34.1m/s | -47°C | 0% | 17.4hPa | 2.6V | 08:28:56 | 02:04:01 | 00:00:00 | |
| DO3MHA-12 | 2026-09-06 00:33:20 | 48.38692 | 10.26487 | 20° | 18km/h | 27820m | -34.0m/s | -47.0°C | 3.1% | 17.4hPa | 2.6V | 00:00:00 | 02:04:01 | 00:00:00 | |
| OE5MMP-10 | 2026-09-06 00:33:19 | 48.38688 | 10.26484 | 30° | 16km/h | 27855m | -35.5m/s | -46.9°C | 3.0% | 17.3hPa | 2.6V | 00:00:00 | 02:04:00 | 00:00:00 | |
| DM7RM-13 | 2026-09-06 00:33:18 | 48.38684 | 10.26480 | 37° | 20km/h | 27890m | -34.2m/s | -46.9°C | 0.8% | 17.3hPa | 2.6V | 08:28:00 | 00:00:00 | 00:00:00 | |
| BAUMI2-15 | 2026-09-06 00:33:17 | 48.38680 | 10.26475 | 42° | 18km/h | 27923m | -33.3m/s | -46.8°C | 3.0% | 17.1hPa | 2.6V | 00:00:00 | 02:03:58 | 00:00:00 | |
| PG1ADW-2 | 2026-09-06 00:33:16 | 48.38676 | 10.26470 | 47° | 18km/h | 27957m | -34.7m/s | -46.8°C | 3.0% | 17.1hPa | 2.6V | 00:00:00 | 02:03:57 | 00:00:00 | |
| DF1GD-15 | 2026-09-06 00:33:15 | 48.38673 | 10.26464 | 48° | 20km/h | 27990m | -32.2m/s | -47.0°C | 0.8% | 17.0hPa | 2.6V | 08:28:00 | 00:00:00 | 00:00:00 | |
| DM0DOS-11 | 2026-09-06 00:33:12 | 48.38662 | 10.26449 | 52° | 11km/h | 28125m | -34.2m/s | -46.6°C | 3% | 16.7hPa | 2.6V | 08:28:19 | 02:03:52 | 00:00:00 | |
| DK7TD | 2026-09-06 00:33:10 | 48.38661 | 10.26446 | 30° | 9km/h | 28159m | -33.8m/s | -46.7°C | 0% | 16.6hPa | 2.6V | 08:28:56 | 02:03:51 | 00:00:00 | |
| DO3MHA-12 | 2026-09-06 00:33:10 | 48.38660 | 10.26446 | 31° | 13km/h | 28160m | -33.7m/s | -46.6°C | 3.0% | 16.5hPa | 2.6V | 08:28:00 | 02:03:51 | 00:00:00 | |
| DO9HM | 2026-09-06 00:33:09 | 48.38659 | 10.26445 | 17° | 5km/h | 28193m | -33.8m/s | -46.8°C | 0.8% | 16.5hPa | 2.5V | 08:28:00 | 00:00:00 | 00:00:00 | |
| DF7PN | 2026-09-06 00:33:08 | 48.38657 | 10.26444 | 22° | 7km/h | 28227m | -33.8m/s | -46.9°C | 0.8% | 16.4hPa | 2.5V | 00:00:00 | 00:00:00 | 00:00:00 | |
| BAUMI2-15 | 2026-09-06 00:33:07 | 48.38655 | 10.26443 | 359° | 13km/h | 28261m | -34.3m/s | -46.9°C | 3.1% | 16.3hPa | 2.5V | 00:00:00 | 02:03:48 | 00:00:00 | |
| DB0UT-7 | 2026-09-06 00:33:06 | 48.38653 | 10.26442 | 36° | 27km/h | 28295m | -34.3m/s | -46.9°C | 3.1% | 16.2hPa | 2.6V | 00:00:00 | 00:00:00 | 00:00:00 | |
| DO3MHA-11 | 2026-09-06 00:33:05 | 48.38651 | 10.26439 | 35° | 26km/h | 28331m | -35.7m/s | -46.9°C | 3.2% | 16.1hPa | 2.6V | 00:00:00 | 02:03:46 | 00:00:00 | |
| DF9NV-10 | 2026-09-06 00:33:03 | 48.38649 | 10.26436 | 55° | 13km/h | 28366m | -34.6m/s | -47.0°C | 0.8% | 16.1hPa | 2.6V | 08:28:00 | 00:00:00 | 00:00:00 | |
| DM0DOS-11 | 2026-09-06 00:33:02 | 48.38645 | 10.26413 | 81° | 26km/h | 28468m | -33.8m/s | -46.7°C | 3.1% | 15.8hPa | 2.6V | 08:28:29 | 02:03:42 | 00:00:00 | |
| DK7TD | 2026-09-06 00:32:59 | 48.38645 | 10.26391 | 94° | 29km/h | 28537m | -38.6m/s | -46.5°C | 0% | 15.7hPa | 2.5V | 08:28:56 | 02:03:40 | 00:00:00 | |
| DL1ZP-14 | 2026-09-06 00:32:57 | 48.38647 | 10.26367 | 102° | 29km/h | 28617m | -40.8m/s | -46.3°C | 0.7% | 15.5hPa | 2.5V | 00:00:00 | 00:00:00 | 00:00:00 | |
| DL6DJ-15 | 2026-09-06 00:32:54 | 48.38653 | 10.26325 | 102° | 26km/h | 28777m | -38.9m/s | -46.0°C | 0.7% | 15.1hPa | 2.6V | 00:00:00 | 00:00:00 | 00:00:00 | |
| DM0DOS-11 | 2026-09-06 00:32:52 | 48.38655 | 10.26306 | 103° | 27km/h | 28858m | -40.8m/s | -45.9°C | 2.9% | 15hPa | 2.6V | 08:28:39 | 02:03:32 | 00:00:00 | |
| DK7TD | 2026-09-06 00:32:49 | 48.38659 | 10.26285 | 106° | 27km/h | 28940m | -41.5m/s | -45.8°C | 0% | 14.8hPa | 2.5V | 08:28:56 | 02:03:30 | 00:00:00 | |
| OE5MMP-10 | 2026-09-06 00:32:49 | 48.38658 | 10.26285 | 107° | 33km/h | 28941m | -41.5m/s | -45.8°C | 3.0% | 14.7hPa | 2.5V | 00:00:00 | 02:03:30 | 00:00:00 | |
| DO9HM | 2026-09-06 00:32:48 | 48.38660 | 10.26275 | 109° | 29km/h | 28982m | -39.0m/s | -45.8°C | 0.8% | 14.7hPa | 2.5V | 08:28:00 | 00:00:00 | 00:00:00 | |
| DL1XH1-15 | 2026-09-06 00:32:47 | 48.38682 | 10.26207 | 125° | 33km/h | 29210m | -39.1m/s | -45.2°C | 2.9% | 14.2hPa | 2.5V | 08:28:48 | 02:03:23 | 00:00:00 | |
| EDDB2-11 | 2026-09-06 00:32:47 | 48.38666 | 10.26252 | 112° | 35km/h | 29058m | -36.9m/s | -45.8°C | 0.7% | 14.5hPa | 2.6V | 00:00:00 | 00:00:00 | 00:00:00 | |
| HSKMA3-T | 2026-09-06 00:32:41 | 48.38687 | 10.26197 | 129° | 31km/h | 29248m | -37.4m/s | -45.1°C | 0% | 14.1hPa | 2.6V | 18:12:15 | 02:03:22 | 00:00:00 | |
| BIOWL1-15 | 2026-09-06 00:32:38 | 48.38704 | 10.26169 | 138° | 35km/h | 29359m | -38m/s | -44.7°C | 0% | 0hPa | 2.5V | 18:12:15 | 02:03:19 | 00:00:00 | |
| BAUMI2-15 | 2026-09-06 00:32:37 | 48.38710 | 10.26160 | 140° | 35km/h | 29398m | -39.5m/s | -44.5°C | 2.7% | 13.7hPa | 2.5V | 08:28:00 | 02:03:18 | 00:00:00 | |
| DB0UT-7 | 2026-09-06 00:32:36 | 48.38716 | 10.26152 | 139° | 27km/h | 29438m | -39.2m/s | -44.5°C | 2.6% | 13.6hPa | 2.6V | 00:00:00 | 02:03:17 | 00:00:00 | |
| DO3MHA-11 | 2026-09-06 00:32:35 | 48.38723 | 10.26143 | 140° | 33km/h | 29477m | -38.6m/s | -44.4°C | 2.7% | 13.6hPa | 2.6V | 08:28:00 | 02:03:16 | 00:00:00 | |
| DF1GD-15 | 2026-09-06 00:32:33 | 48.38730 | 10.26135 | 145° | 37km/h | 29514m | -37.4m/s | -44.3°C | 0.7% | 13.5hPa | 2.6V | 08:28:00 | 00:00:00 | 00:00:00 | |
| DM0DOS-11 | 2026-09-06 00:32:32 | 48.38751 | 10.26112 | 143° | 33km/h | 29620m | -34.3m/s | -44.1°C | 2.6% | 13.3hPa | 2.6V | 08:28:59 | 02:03:12 | 00:00:00 | |
| HSKMA3-T | 2026-09-06 00:32:31 | 48.38751 | 10.26112 | 143° | 33km/h | 29620m | -34.3m/s | -44.1°C | 0% | 13.3hPa | 2.6V | 18:12:15 | 02:03:12 | 00:00:00 | |
| DK7TD | 2026-09-06 00:32:28 | 48.38770 | 10.26089 | 138° | 31km/h | 29723m | -33.5m/s | -44.3°C | 0% | 13.1hPa | 2.5V | 08:29:47 | 02:03:09 | 00:00:00 | |
| DO9HM | 2026-09-06 00:32:28 | 48.38770 | 10.26089 | 139° | 33km/h | 29723m | -33.5m/s | -44.3°C | 0.7% | 13.1hPa | 2.5V | 00:00:00 | 00:00:00 | 00:00:00 | |
| DL1XH1-15 | 2026-09-06 00:32:27 | 48.38810 | 10.26048 | 158° | 31km/h | 29908m | -28.6m/s | -45.2°C | 2.9% | 12.7hPa | 2.5V | 08:29:08 | 02:03:03 | 00:00:00 | |
| BIOWL1-15 | 2026-09-06 00:32:26 | 48.38783 | 10.26074 | 142° | 31km/h | 29787m | -31.3m/s | -44.6°C | 0% | 0hPa | 2.6V | 18:12:15 | 02:03:07 | 00:00:00 | |
| HSKMA3-T | 2026-09-06 00:32:18 | 48.38836 | 10.26031 | 157° | 26km/h | 30027m | -31.7m/s | -45.3°C | 0% | 12.5hPa | 2.5V | 18:12:15 | 02:02:59 | 00:00:00 | |
| DK7TD | 2026-09-06 00:32:17 | 48.38842 | 10.26028 | 155° | 24km/h | 30058m | -30.9m/s | -45.3°C | 0% | 12.4hPa | 2.5V | 08:29:47 | 02:02:58 | 00:00:00 | |
| DL1XH1-15 | 2026-09-06 00:32:17 | 48.38865 | 10.26007 | 144° | 16km/h | 30211m | -29.5m/s | -45.2°C | 3.1% | 12.1hPa | 2.5V | 08:29:18 | 02:02:53 | 00:00:00 | |
| HARRO8 | 2026-09-06 00:32:17 | 48.38847 | 10.26024 | 150° | 22km/h | 30090m | -31.8m/s | -45.2°C | 0.7% | 12.3hPa | 2.6V | 00:00:00 | 00:00:00 | 00:00:00 | |
| DC4HF-4 | 2026-09-06 00:32:16 | 48.38847 | 10.26024 | 150° | 22km/h | 30090m | -31.8m/s | -45.2°C | 0.7% | 12.3hPa | 2.6V | 00:00:00 | 00:00:00 | 00:00:00 | |
| DO3MHA-11 | 2026-09-06 00:32:15 | 48.38852 | 10.26020 | 146° | 16km/h | 30121m | -31.0m/s | -45.2°C | 3.0% | 12.3hPa | 2.6V | 00:00:00 | 02:02:56 | 00:00:00 | |
| DF1GD-15 | 2026-09-06 00:32:13 | 48.38856 | 10.26016 | 144° | 20km/h | 30151m | -29.7m/s | -45.2°C | 0.8% | 12.2hPa | 2.6V | 08:29:00 | 00:00:00 | 00:00:00 | |
| DM0DOS-11 | 2026-09-06 00:32:12 | 48.38868 | 10.26004 | 147° | 16km/h | 30242m | -32.3m/s | -45°C | 3.1% | 12.1hPa | 2.6V | 08:29:19 | 02:02:52 | 00:00:00 | |
| HSKMA3-T | 2026-09-06 00:32:06 | 48.38884 | 10.25988 | 146° | 13km/h | 30380m | -28.9m/s | -44.3°C | 0% | 11.8hPa | 2.6V | 18:12:15 | 02:02:47 | 00:00:00 | |
| PG1ADW-2 | 2026-09-06 00:32:05 | 48.38887 | 10.25985 | 152° | 18km/h | 30410m | -30.8m/s | -44.0°C | 2.9% | 11.7hPa | 2.6V | 00:00:00 | 00:00:00 | 00:00:00 | |
| KANTATE | 2026-09-06 00:32:03 | 48.38890 | 10.25982 | 150° | 18km/h | 30442m | -32.4m/s | -43.8°C | 0.7% | 11.7hPa | 2.6V | 00:00:00 | 00:00:00 | 00:00:00 | |
| DM0DOS-11 | 2026-09-06 00:32:02 | 48.38914 | 10.25963 | 153° | 27km/h | 30583m | -32.8m/s | -43.4°C | 2.8% | 11.4hPa | 2.6V | 08:29:30 | 02:02:41 | 00:00:00 | |
| DB0ND-19 | 2026-09-06 00:31:59 | 48.38921 | 10.25959 | 170° | 26km/h | 30617m | -34.4m/s | -43.2°C | 0.7% | 11.4hPa | 2.5V | 00:00:00 | 00:00:00 | 00:00:00 | |
| DF3TZ-5 | 2026-09-06 00:31:58 | 48.38932 | 10.25958 | 196° | 24km/h | 30687m | -37.4m/s | -42.7°C | 0.6% | 11.3hPa | 2.5V | 00:00:00 | 00:00:00 | 00:00:00 | |
| DL1XH1-15 | 2026-09-06 00:31:57 | 48.38947 | 10.25985 | 259° | 13km/h | 30902m | -46m/s | -41.7°C | 2.4% | 11hPa | 2.5V | 08:29:38 | 02:02:33 | 00:00:00 | |
| HSKMA3-T | 2026-09-06 00:31:55 | 48.38941 | 10.25968 | 228° | 20km/h | 30767m | -41.5m/s | -41.9°C | 0% | 11.2hPa | 2.6V | 18:12:15 | 02:02:36 | 00:00:00 | |
| DO3MHA-11 | 2026-09-06 00:31:55 | 48.38941 | 10.25968 | 229° | 11km/h | 30767m | -41.4m/s | -41.9°C | 2.5% | 11.1hPa | 2.6V | 00:00:00 | 02:02:36 | 00:00:00 | |
| DM7RM-13 | 2026-09-06 00:31:54 | 48.38941 | 10.25968 | 229° | 20km/h | 30767m | -41.5m/s | -41.9°C | 0.6% | 11.2hPa | 2.6V | 00:00:00 | 00:00:00 | 00:00:00 | |
| DM0DOS-11 | 2026-09-06 00:31:52 | 48.38948 | 10.25990 | 156° | 4km/h | 30997m | -50.5m/s | -41.5°C | 2.4% | 10.8hPa | 2.6V | 08:29:40 | 02:02:31 | 00:00:00 | |
| BIOWL1-15 | 2026-09-06 00:31:47 | 48.38952 | 10.25985 | 119° | 13km/h | 31146m | -49.2m/s | -41.5°C | 0% | 0hPa | 2.5V | 18:12:15 | 02:02:28 | 00:00:00 | |
| HARRO8 | 2026-09-06 00:31:47 | 48.38957 | 10.25976 | 124° | 16km/h | 31245m | -49.7m/s | -41.3°C | 0.6% | 10.5hPa | 2.5V | 00:00:00 | 00:00:00 | 00:00:00 | |
| DK7TD | 2026-09-06 00:31:44 | 48.38960 | 10.25971 | 128° | 18km/h | 31294m | -50m/s | -41.4°C | 0% | 10.4hPa | 2.5V | 08:29:47 | 02:02:25 | 00:00:00 | |
| PG1ADW-2 | 2026-09-06 00:31:44 | 48.38960 | 10.25971 | 128° | 13km/h | 31294m | -49.9m/s | -41.3°C | 2.4% | 10.3hPa | 2.6V | 00:00:00 | 00:00:00 | 00:00:00 | |
| DM0DOS-11 | 2026-09-06 00:31:42 | 48.38971 | 10.25951 | 135° | 16km/h | 31495m | -50.5m/s | -41.5°C | 2.4% | 10hPa | 2.6V | 08:30:00 | 02:02:21 | 00:00:00 | |
| DK7TD | 2026-09-06 00:31:34 | 48.38984 | 10.25935 | 129° | 13km/h | 31802m | -52m/s | -41.7°C | 0% | 9.6hPa | 2.5V | 18:12:15 | 02:02:15 | 00:00:00 | |
| DM7RM-13 | 2026-09-06 00:31:34 | 48.38984 | 10.25935 | 130° | 13km/h | 31802m | -52.0m/s | -41.7°C | 0.6% | 9.6hPa | 2.6V | 00:00:00 | 00:00:00 | 00:00:00 | |
| DM0DOS-11 | 2026-09-06 00:31:32 | 48.38993 | 10.25921 | 126° | 15km/h | 32003m | -51m/s | -41.4°C | 2.5% | 9.3hPa | 2.6V | 08:30:00 | 02:02:11 | 00:00:00 | |
| DK7TD | 2026-09-06 00:31:24 | 48.38993 | 10.25907 | 340° | 18km/h | 32287m | -49.8m/s | -40°C | 0% | 8.9hPa | 2.5V | 18:12:15 | 02:02:05 | 00:00:00 | |
| PG1ADW-2 | 2026-09-06 00:31:24 | 48.38993 | 10.25907 | 341° | 22km/h | 32287m | -49.7m/s | -40.0°C | 2.3% | 8.9hPa | 2.6V | 00:00:00 | 02:02:05 | 00:00:00 | |
| DO9HM | 2026-09-06 00:31:23 | 48.38988 | 10.25911 | 326° | 27km/h | 32338m | -51.4m/s | -39.9°C | 0.6% | 8.8hPa | 2.6V | 00:00:00 | 00:00:00 | 00:00:00 | |
| DM0DOS-11 | 2026-09-06 00:31:22 | 48.38970 | 10.25928 | 334° | 27km/h | 32492m | -55m/s | -39.5°C | 2.1% | 8.7hPa | 2.6V | 08:30:00 | 02:02:01 | 00:00:00 | |
| DK7TD | 2026-09-06 00:31:14 | 48.38957 | 10.25918 | 114° | 27km/h | 32819m | -57.2m/s | -39.4°C | 0% | 8.2hPa | 2.5V | 18:12:15 | 02:01:55 | 00:00:00 | |
| DM7RM-13 | 2026-09-06 00:31:14 | 48.38957 | 10.25918 | 115° | 27km/h | 32820m | -57.2m/s | -39.4°C | 0.5% | 8.3hPa | 2.6V | 00:00:00 | 00:00:00 | 00:00:00 | |
| OE5WHR-10 | 2026-09-06 00:31:13 | 48.38960 | 10.25908 | 114° | 20km/h | 32876m | -55.4m/s | -39.3°C | 2.1% | 8.1hPa | 2.6V | 00:00:00 | 00:00:00 | 00:00:00 | |
| DM0DOS-11 | 2026-09-06 00:31:12 | 48.38973 | 10.25872 | 120° | 37km/h | 33040m | -49.8m/s | -39.6°C | 2.1% | 8hPa | 2.6V | 08:30:00 | 02:01:51 | 00:00:00 | |
| DK7TD | 2026-09-06 00:31:04 | 48.38975 | 10.25855 | 330° | 9km/h | 33321m | -32.2m/s | -40.5°C | 0% | 7.5hPa | 2.5V | 18:12:15 | 02:01:45 | 00:00:00 | |
| DK7TD | 2026-09-06 00:30:54 | 48.38950 | 10.25817 | 100° | 31km/h | 33349m | 4.9m/s | -40.7°C | 0% | 7.5hPa | 2.5V | 18:12:15 | 02:01:35 | 00:00:00 | |
| DL1XH1-15 | 2026-09-06 00:30:53 | 48.38960 | 10.25809 | 307° | 15km/h | 33316m | 5.5m/s | -40.7°C | 2.3% | 7.5hPa | 2.6V | 08:30:00 | 02:01:29 | 00:00:00 | |
| HSKMA3-T | 2026-09-06 00:30:53 | 48.38952 | 10.25807 | 117° | 24km/h | 33344m | 4.8m/s | -40.7°C | 0% | 7.5hPa | 2.6V | 18:12:15 | 02:01:34 | 00:00:00 | |
| OE5WHR-10 | 2026-09-06 00:30:52 | 48.38955 | 10.25801 | 141° | 13km/h | 33339m | 5.3m/s | -40.6°C | 2.3% | 7.5hPa | 2.6V | 00:00:00 | 02:01:33 | 00:00:00 | |
| DM7RM-13 | 2026-09-06 00:30:51 | 48.38955 | 10.25801 | 142° | 16km/h | 33339m | 5.4m/s | -40.7°C | 0.6% | 7.5hPa | 2.6V | 00:00:00 | 00:00:00 | 00:00:00 | |
| DO3MHA-12 | 2026-09-06 00:30:50 | 48.38960 | 10.25801 | 236° | 16km/h | 33328m | 5.7m/s | -40.6°C | 2.3% | 7.5hPa | 2.6V | 00:00:00 | 02:01:31 | 00:00:00 | |
| DJ2DS-15 | 2026-09-06 00:30:48 | 48.38959 | 10.25809 | 308° | 13km/h | 33316m | 5.5m/s | -40.7°C | 2.3% | 7.5hPa | 2.6V | 00:00:00 | 02:01:29 | 00:00:00 | |
| PETON7-10 | 2026-09-06 00:30:47 | 48.38956 | 10.25813 | 336° | 13km/h | 33311m | 5.3m/s | -40.6°C | 2.3% | 7.5hPa | 2.6V | 00:00:00 | 00:00:00 | 00:00:00 | |
| DO3MHA-11 | 2026-09-06 00:30:45 | 48.38948 | 10.25813 | 24° | 16km/h | 33300m | 5.6m/s | -40.7°C | 2.3% | 7.5hPa | 2.6V | 00:00:00 | 02:01:26 | 00:00:00 | |
| HARRO8 | 2026-09-06 00:30:44 | 48.38941 | 10.25803 | 57° | 18km/h | 33288m | 5.5m/s | -40.7°C | 0.6% | 7.5hPa | 2.6V | 00:00:00 | 00:00:00 | 00:00:00 | |
| DL1XH1-15 | 2026-09-06 00:30:43 | 48.38933 | 10.25774 | 59° | 13km/h | 33260m | 6m/s | -40.7°C | 2.3% | 7.6hPa | 2.6V | 08:30:00 | 02:01:19 | 00:00:00 | |
| HSKMA3-T | 2026-09-06 00:30:43 | 48.38941 | 10.25803 | 58° | 20km/h | 33288m | 5.5m/s | -40.7°C | 0% | 7.5hPa | 2.6V | 18:12:15 | 02:01:24 | 00:00:00 | |
| DK7TD | 2026-09-06 00:30:42 | 48.38939 | 10.25797 | 68° | 18km/h | 33283m | 5.5m/s | -40.7°C | 0% | 7.6hPa | 2.6V | 18:12:15 | 02:01:23 | 00:00:00 | |
| DM0DOS-11 | 2026-09-06 00:30:42 | 48.38931 | 10.25770 | 53° | 11km/h | 33254m | 5.6m/s | -40.7°C | 2.3% | 7.6hPa | 2.6V | 08:30:00 | 02:01:18 | 00:00:00 | |
| DO3MHA-12 | 2026-09-06 00:30:40 | 48.38936 | 10.25784 | 74° | 9km/h | 33272m | 5.5m/s | -40.6°C | 2.3% | 7.5hPa | 2.5V | 00:00:00 | 02:01:21 | 00:00:00 | |
| OE5MMP-10 | 2026-09-06 00:30:39 | 48.38934 | 10.25778 | 69° | 7km/h | 33266m | 5.8m/s | -40.6°C | 2.3% | 7.6hPa | 2.5V | 00:00:00 | 02:01:20 | 00:00:00 | |
| AZAK | 2026-09-06 00:30:38 | 48.38933 | 10.25773 | 61° | 13km/h | 33261m | 6.0m/s | -40.7°C | 0.6% | 7.6hPa | 2.5V | 00:00:00 | 00:00:00 | 00:00:00 | |
| DF9NV-10 | 2026-09-06 00:30:37 | 48.38933 | 10.25773 | 61° | 13km/h | 33261m | 6.0m/s | -40.7°C | 0.6% | 7.6hPa | 2.5V | 00:00:00 | 00:00:00 | 00:00:00 | |
| DB0UT-7 | 2026-09-06 00:30:36 | 48.38930 | 10.25766 | 53° | 15km/h | 33249m | 5.3m/s | -40.6°C | 2.3% | 7.5hPa | 2.5V | 00:00:00 | 02:01:17 | 00:00:00 | |
| DO3MHA-11 | 2026-09-06 00:30:35 | 48.38929 | 10.25764 | 62° | 11km/h | 33244m | 5.5m/s | -40.6°C | 2.4% | 7.6hPa | 2.5V | 00:00:00 | 02:01:16 | 00:00:00 | |
| SONCRA | 2026-09-06 00:30:34 | 48.38928 | 10.25763 | 111° | 2km/h | 33238m | 6.0m/s | -40.7°C | 0.6% | 7.6hPa | 2.5V | 00:00:00 | 00:00:00 | 00:00:00 | |
| DL1XH1-15 | 2026-09-06 00:30:33 | 48.38929 | 10.25761 | 29° | 16km/h | 33206m | 6.2m/s | -40.5°C | 2.3% | 7.6hPa | 2.5V | 08:30:00 | 02:01:09 | 00:00:00 | |
| HSKMA3-T | 2026-09-06 00:30:32 | 48.38930 | 10.25763 | 202° | 5km/h | 33226m | 5.6m/s | -40.6°C | 0% | 7.7hPa | 2.6V | 18:12:15 | 02:01:13 | 00:00:00 | |
| DM0DOS-11 | 2026-09-06 00:30:32 | 48.38924 | 10.25757 | 30° | 24km/h | 33200m | 7.2m/s | -40.5°C | 2.3% | 7.7hPa | 2.5V | 08:30:00 | 02:01:08 | 00:00:00 | |
| DK7TD | 2026-09-06 00:30:31 | 48.38931 | 10.25764 | 204° | 5km/h | 33221m | 4.7m/s | -40.6°C | 0% | 7.7hPa | 2.6V | 18:12:15 | 02:01:12 | 00:00:00 | |
| DO3MHA-12 | 2026-09-06 00:30:30 | 48.38932 | 10.25764 | 222° | 20km/h | 33217m | 4.1m/s | -40.5°C | 2.3% | 7.6hPa | 2.5V | 00:00:00 | 02:01:11 | 00:00:00 | |
| OE5MMP-10 | 2026-09-06 00:30:29 | 48.38931 | 10.25763 | 28° | 22km/h | 33212m | 4.6m/s | -40.5°C | 2.3% | 7.6hPa | 2.5V | 00:00:00 | 02:01:10 | 00:00:00 | |
| DJ2DS-15 | 2026-09-06 00:30:28 | 48.38929 | 10.25761 | 30° | 18km/h | 33207m | 6.2m/s | -40.5°C | 2.3% | 7.6hPa | 2.5V | 00:00:00 | 02:01:09 | 08:30:00 | |
| OE5DXL-15 | 2026-09-06 00:30:26 | 48.38918 | 10.25751 | 37° | 16km/h | 33193m | 5.9m/s | -40.5°C | 2.3% | 7.6hPa | 2.5V | 00:00:00 | 00:00:00 | 00:00:00 | |
| DO3MHA-11 | 2026-09-06 00:30:25 | 48.38912 | 10.25743 | 44° | 16km/h | 33188m | 4.2m/s | -40.5°C | 2.3% | 7.6hPa | 2.5V | 00:00:00 | 02:01:06 | 00:00:00 | |
| PG1ADW-2 | 2026-09-06 00:30:24 | 48.38907 | 10.25735 | 55° | 15km/h | 33184m | 4.9m/s | -40.5°C | 2.3% | 7.6hPa | 2.5V | 00:00:00 | 00:00:00 | 00:00:00 | |
| DL1XH1-15 | 2026-09-06 00:30:23 | 48.38911 | 10.25702 | 148° | 7km/h | 33149m | 5.7m/s | -40.5°C | 2.2% | 7.7hPa | 2.5V | 08:30:00 | 02:00:59 | 00:00:00 | |
| DM0DOS-11 | 2026-09-06 00:30:22 | 48.38911 | 10.25699 | 37° | 5km/h | 33138m | 5.7m/s | -40.5°C | 2.3% | 7.7hPa | 2.5V | 08:30:00 | 02:00:57 | 00:00:00 | |
| HSKMA3-T | 2026-09-06 00:30:21 | 48.38904 | 10.25711 | 118° | 16km/h | 33167m | 5.5m/s | -40.5°C | 0% | 7.7hPa | 2.5V | 18:12:15 | 02:01:02 | 00:00:00 | |
| DK7TD | 2026-09-06 00:30:20 | 48.38907 | 10.25707 | 137° | 15km/h | 33161m | 5.7m/s | -40.5°C | 0% | 7.7hPa | 2.6V | 18:12:15 | 02:01:01 | 00:00:00 | |
| DO3MHA-12 | 2026-09-06 00:30:20 | 48.38906 | 10.25706 | 137° | 13km/h | 33161m | 5.6m/s | -40.4°C | 2.3% | 7.7hPa | 2.5V | 00:00:00 | 02:01:01 | 00:00:00 | |
| DL6DJ-15 | 2026-09-06 00:30:19 | 48.38911 | 10.25702 | 148° | 5km/h | 33149m | 5.7m/s | -40.5°C | 0.5% | 7.7hPa | 2.5V | 00:00:00 | 00:00:00 | 00:00:00 | |
| DJ2DS-15 | 2026-09-06 00:30:18 | 48.38911 | 10.25702 | 148° | 5km/h | 33149m | 5.7m/s | -40.5°C | 0.5% | 7.7hPa | 2.5V | 00:00:00 | 00:00:00 | 00:00:00 | |
| SONDE2-11 | 2026-09-06 00:30:17 | 48.38910 | 10.25697 | 38° | 9km/h | 33133m | 5.3m/s | -40.5°C | 0.5% | 7.7hPa | 2.5V | 00:00:00 | 00:00:00 | 00:00:00 | |
| DO3MHA-11 | 2026-09-06 00:30:16 | 48.38910 | 10.25697 | 39° | 18km/h | 33133m | 5.3m/s | -40.4°C | 2.3% | 7.7hPa | 2.5V | 00:00:00 | 02:00:56 | 00:00:00 | |
| DL1XH1-15 | 2026-09-06 00:30:13 | 48.38897 | 10.25651 | 71° | 24km/h | 33092m | 5.2m/s | -40.6°C | 2.3% | 7.8hPa | 2.5V | 08:30:00 | 02:00:49 | 00:00:00 | |
| DO9HM | 2026-09-06 00:30:13 | 48.38906 | 10.25690 | 61° | 15km/h | 33121m | 6.3m/s | -40.5°C | 0.6% | 7.8hPa | 2.5V | 00:00:00 | 00:00:00 | 00:00:00 | |
| DF1GD-15 | 2026-09-06 00:30:12 | 48.38904 | 10.25684 | 73° | 18km/h | 33115m | 5.9m/s | -40.5°C | 0.5% | 7.7hPa | 2.5V | 00:00:00 | 00:00:00 | 00:00:00 | |
| DM0DOS-11 | 2026-09-06 00:30:11 | 48.38895 | 10.25637 | 90° | 15km/h | 33081m | 5.3m/s | -40.7°C | 2.3% | 7.8hPa | 2.5V | 08:30:00 | 02:00:47 | 00:00:00 | |
| DK7TD | 2026-09-06 00:30:10 | 48.38901 | 10.25669 | 74° | 24km/h | 33104m | 5.6m/s | -40.6°C | 0% | 7.8hPa | 2.6V | 18:12:15 | 02:00:51 | 00:00:00 | |
| DO3MHA-12 | 2026-09-06 00:30:10 | 48.38901 | 10.25669 | 74° | 16km/h | 33104m | 5.6m/s | -40.5°C | 2.2% | 7.7hPa | 2.6V | 00:00:00 | 02:00:51 | 08:30:00 | |
| OE5MMP-10 | 2026-09-06 00:30:09 | 48.38899 | 10.25660 | 73° | 15km/h | 33098m | 6.5m/s | -40.6°C | 2.3% | 7.7hPa | 2.6V | 00:00:00 | 02:00:50 | 00:00:00 | |
| OE5WHR-10 | 2026-09-06 00:30:08 | 48.38897 | 10.25651 | 72° | 16km/h | 33092m | 5.1m/s | -40.6°C | 2.3% | 7.7hPa | 2.6V | 00:00:00 | 00:00:00 | 00:00:00 | |
| DB0UT-7 | 2026-09-06 00:30:06 | 48.38895 | 10.25637 | 91° | 16km/h | 33082m | 5.3m/s | -40.7°C | 2.3% | 7.7hPa | 2.6V | 00:00:00 | 00:00:00 | 00:00:00 | |
| DO3MHA-11 | 2026-09-06 00:30:05 | 48.38896 | 10.25632 | 115° | 15km/h | 33076m | 6.9m/s | -40.7°C | 2.3% | 7.8hPa | 2.6V | 00:00:00 | 02:00:46 | 00:00:00 | |
| DL1XH1-15 | 2026-09-06 00:30:03 | 48.38897 | 10.25617 | 28° | 24km/h | 33035m | 5.3m/s | -40.8°C | 2.3% | 7.8hPa | 2.6V | 08:30:00 | 02:00:39 | 00:00:00 | |
| DM0DOS-11 | 2026-09-06 00:30:01 | 48.38887 | 10.25605 | 44° | 26km/h | 33024m | 6.2m/s | -40.8°C | 2.3% | 7.9hPa | 2.5V | 08:30:00 | 02:00:37 | 00:00:00 | |
| DK7TD | 2026-09-06 00:30:00 | 48.38904 | 10.25622 | 31° | 7km/h | 33047m | 6.8m/s | -40.8°C | 0% | 7.8hPa | 2.5V | 18:12:15 | 02:00:41 | 00:00:00 | |
| HSKMA3-T | 2026-09-06 00:29:59 | 48.38901 | 10.25620 | 25° | 16km/h | 33041m | 6.4m/s | -40.8°C | 0% | 7.9hPa | 2.6V | 18:12:15 | 02:00:40 | 00:00:00 | |
| OE5MMP-10 | 2026-09-06 00:29:59 | 48.38901 | 10.25620 | 26° | 18km/h | 33041m | 6.3m/s | -40.8°C | 2.3% | 7.8hPa | 2.6V | 00:00:00 | 02:00:40 | 00:00:00 | |
| DJ8HS-15 | 2026-09-06 00:29:58 | 48.38897 | 10.25617 | 29° | 18km/h | 33035m | 5.3m/s | -40.8°C | 2.3% | 7.8hPa | 2.5V | 00:00:00 | 02:00:39 | 00:00:00 | |
| OE5DXL-15 | 2026-09-06 00:29:56 | 48.38886 | 10.25605 | 45° | 18km/h | 33024m | 6.2m/s | -40.8°C | 2.3% | 7.8hPa | 2.5V | 00:00:00 | 00:00:00 | 00:00:00 | |
| DO3MHA-11 | 2026-09-06 00:29:55 | 48.38883 | 10.25598 | 61° | 13km/h | 33018m | 6.0m/s | -40.7°C | 2.3% | 7.8hPa | 2.5V | 00:00:00 | 02:00:36 | 00:00:00 | |
| DL1XH1-15 | 2026-09-06 00:29:53 | 48.38877 | 10.25566 | 0° | 11km/h | 32978m | 5.7m/s | -40.7°C | 2.3% | 7.9hPa | 2.5V | 08:30:00 | 02:00:29 | 00:00:00 | |
| DC4HF-4 | 2026-09-06 00:29:52 | 48.38881 | 10.25578 | 97° | 15km/h | 33002m | 5.1m/s | -40.7°C | 0.6% | 7.9hPa | 2.6V | 00:00:00 | 00:00:00 | 00:00:00 | |
| DM0DOS-11 | 2026-09-06 00:29:51 | 48.38871 | 10.25567 | 355° | 9km/h | 32966m | 6.3m/s | -40.7°C | 2.3% | 8hPa | 2.6V | 08:30:00 | 02:00:27 | 00:00:00 | |
| DK7TD | 2026-09-06 00:29:49 | 48.38879 | 10.25567 | 25° | 9km/h | 32984m | 6.1m/s | -40.7°C | 0% | 7.9hPa | 2.5V | 18:12:15 | 02:00:30 | 00:00:00 | |
| HSKMA3-T | 2026-09-06 00:29:48 | 48.38877 | 10.25566 | 1° | 11km/h | 32978m | 5.7m/s | -40.7°C | 0% | 7.9hPa | 2.5V | 18:12:15 | 02:00:29 | 00:00:00 | |
| DL6DJ-15 | 2026-09-06 00:29:48 | 48.38874 | 10.25566 | 352° | 11km/h | 32972m | 5.6m/s | -40.7°C | 0.6% | 7.9hPa | 2.5V | 00:00:00 | 00:00:00 | 00:00:00 | |
| PETON7-10 | 2026-09-06 00:29:47 | 48.38874 | 10.25566 | 353° | 18km/h | 32972m | 5.5m/s | -40.6°C | 2.3% | 7.9hPa | 2.5V | 00:00:00 | 00:00:00 | 00:00:00 | |
| OE5WHR-10 | 2026-09-06 00:29:46 | 48.38871 | 10.25567 | 356° | 18km/h | 32966m | 6.3m/s | -40.6°C | 2.3% | 7.9hPa | 2.5V | 00:00:00 | 02:00:27 | 00:00:00 | |
| SONDE2-11 | 2026-09-06 00:29:45 | 48.38867 | 10.25564 | 44° | 11km/h | 32955m | 5.1m/s | -40.7°C | 0.6% | 8.0hPa | 2.5V | 00:00:00 | 00:00:00 | 00:00:00 | |
| DL1XH1-15 | 2026-09-06 00:29:43 | 48.38846 | 10.25514 | 65° | 27km/h | 32920m | 5.8m/s | -40.7°C | 2.3% | 8hPa | 2.5V | 08:30:00 | 02:00:19 | 00:00:00 | |
| NBG1-10 | 2026-09-06 00:29:43 | 48.38864 | 10.25560 | 55° | 20km/h | 32950m | 5.1m/s | -40.7°C | 2.3% | 7.9hPa | 2.6V | 00:00:00 | 02:00:24 | 00:00:00 | |
| DJ2DS-15 | 2026-09-06 00:29:42 | 48.38858 | 10.25545 | 57° | 29km/h | 32937m | 6.8m/s | -40.7°C | 0.5% | 8.0hPa | 2.6V | 00:00:00 | 00:00:00 | 00:00:00 | |
| DM0DOS-11 | 2026-09-06 00:29:41 | 48.38842 | 10.25499 | 71° | 13km/h | 32908m | 6m/s | -40.7°C | 2.3% | 8hPa | 2.6V | 08:30:00 | 02:00:17 | 00:00:00 | |
| DK7TD | 2026-09-06 00:29:39 | 48.38849 | 10.25524 | 62° | 33km/h | 32925m | 4.8m/s | -40.7°C | 0% | 8hPa | 2.5V | 18:12:15 | 02:00:20 | 00:00:00 | |
| HSKMA3-T | 2026-09-06 00:29:38 | 48.38846 | 10.25514 | 66° | 27km/h | 32920m | 5.8m/s | -40.7°C | 0% | 8hPa | 2.5V | 18:12:15 | 02:00:19 | 00:00:00 | |
| DJ8HS-15 | 2026-09-06 00:29:38 | 48.38846 | 10.25514 | 66° | 18km/h | 32921m | 5.7m/s | -40.7°C | 2.3% | 7.9hPa | 2.5V | 00:00:00 | 02:00:19 | 00:00:00 | |
| DB0UT-7 | 2026-09-06 00:29:36 | 48.38842 | 10.25499 | 72° | 18km/h | 32908m | 5.9m/s | -40.6°C | 2.3% | 8.0hPa | 2.6V | 00:00:00 | 02:00:17 | 00:00:00 | |
| AZAK | 2026-09-06 00:29:35 | 48.38841 | 10.25496 | 51° | 7km/h | 32903m | 5.3m/s | -40.7°C | 0.5% | 8.0hPa | 2.5V | 00:00:00 | 00:00:00 | 00:00:00 | |
| DL1XH1-15 | 2026-09-06 00:29:33 | 48.38811 | 10.25491 | 36° | 18km/h | 32861m | 6.4m/s | -40.8°C | 2.3% | 8.1hPa | 2.5V | 08:30:00 | 02:00:09 | 00:00:00 | |
| DK5PH-5 | 2026-09-06 00:29:32 | 48.38833 | 10.25496 | 353° | 20km/h | 32884m | 6.3m/s | -40.7°C | 2.3% | 8.0hPa | 2.5V | 00:00:00 | 02:00:13 | 00:00:00 | |
| DM0DOS-11 | 2026-09-06 00:29:31 | 48.38803 | 10.25471 | 69° | 24km/h | 32843m | 5.5m/s | -40.9°C | 2.3% | 8.1hPa | 2.5V | 08:30:00 | 02:00:06 | 00:00:00 | |
| HSKMA3-T | 2026-09-06 00:29:28 | 48.38812 | 10.25491 | 37° | 18km/h | 32861m | 6.4m/s | -40.8°C | 0% | 8.1hPa | 2.5V | 18:12:15 | 02:00:09 | 00:00:00 | |
| DJ2DS-15 | 2026-09-06 00:29:28 | 48.38812 | 10.25491 | 37° | 20km/h | 32861m | 6.4m/s | -40.7°C | 2.3% | 8.0hPa | 2.5V | 00:00:00 | 02:00:09 | 00:00:00 | |
| OE5DRO-10 | 2026-09-06 00:29:27 | 48.38808 | 10.25486 | 56° | 20km/h | 32855m | 5.8m/s | -40.8°C | 2.3% | 8.0hPa | 2.6V | 00:00:00 | 00:00:00 | 08:30:00 | |
| OE5DXL-15 | 2026-09-06 00:29:26 | 48.38806 | 10.25479 | 67° | 18km/h | 32849m | 5.3m/s | -40.8°C | 2.3% | 8.0hPa | 2.6V | 00:00:00 | 00:00:00 | 00:00:00 | |
| DO3MHA-11 | 2026-09-06 00:29:25 | 48.38803 | 10.25471 | 70° | 16km/h | 32844m | 5.4m/s | -40.8°C | 2.3% | 8.1hPa | 2.5V | 00:00:00 | 02:00:06 | 00:00:00 | |
| DB0ND-19 | 2026-09-06 00:29:24 | 48.38801 | 10.25463 | 63° | 24km/h | 32838m | 6.1m/s | -40.9°C | 0.6% | 8.1hPa | 2.5V | 00:00:00 | 00:00:00 | 00:00:00 | |
| DL1XH1-15 | 2026-09-06 00:29:23 | 48.38781 | 10.25438 | 28° | 5km/h | 32803m | 6.2m/s | -41.1°C | 2.4% | 8.1hPa | 2.5V | 08:30:00 | 01:59:59 | 00:00:00 | |
| BAUMI2-15 | 2026-09-06 00:29:22 | 48.38794 | 10.25448 | 42° | 15km/h | 32827m | 4.8m/s | -40.9°C | 2.4% | 8.1hPa | 2.6V | 00:00:00 | 02:00:03 | 00:00:00 | |
| PG1ADW-2 | 2026-09-06 00:29:21 | 48.38790 | 10.25443 | 31° | 20km/h | 32822m | 5.0m/s | -41.0°C | 2.3% | 8.0hPa | 2.6V | 00:00:00 | 00:00:00 | 00:00:00 | |
| DM0DOS-11 | 2026-09-06 00:29:20 | 48.38778 | 10.25430 | 52° | 15km/h | 32788m | 5.1m/s | -41.1°C | 2.4% | 8.2hPa | 2.6V | 08:30:00 | 01:59:56 | 00:00:00 | |
| HSKMA3-T | 2026-09-06 00:29:18 | 48.38782 | 10.25438 | 29° | 5km/h | 32803m | 6.2m/s | -41.1°C | 0% | 8.1hPa | 2.5V | 18:12:15 | 01:59:59 | 00:00:00 | |
| DJ8HS-15 | 2026-09-06 00:29:18 | 48.38782 | 10.25438 | 29° | 18km/h | 32804m | 6.1m/s | -41.0°C | 2.4% | 8.1hPa | 2.6V | 00:00:00 | 01:59:59 | 00:00:00 | |
| DL6DJ-15 | 2026-09-06 00:29:17 | 48.38779 | 10.25434 | 59° | 9km/h | 32793m | 5.0m/s | -41.1°C | 0.6% | 8.1hPa | 2.6V | 00:00:00 | 00:00:00 | 00:00:00 | |
| DK7TD | 2026-09-06 00:29:17 | 48.38780 | 10.25436 | 55° | 5km/h | 32798m | 5.4m/s | -41.1°C | 0% | 8.2hPa | 2.5V | 18:12:15 | 01:59:58 | 00:00:00 | |
| PETON7-10 | 2026-09-06 00:29:16 | 48.38779 | 10.25434 | 60° | 20km/h | 32793m | 4.9m/s | -41.1°C | 2.4% | 8.1hPa | 2.6V | 00:00:00 | 00:00:00 | 08:30:00 | |
| AZAK | 2026-09-06 00:29:15 | 48.38777 | 10.25430 | 54° | 15km/h | 32788m | 5.1m/s | -41.1°C | 0.6% | 8.2hPa | 2.5V | 00:00:00 | 00:00:00 | 00:00:00 | |
| SONDE2-11 | 2026-09-06 00:29:14 | 48.38770 | 10.25419 | 36° | 26km/h | 32775m | 7.1m/s | -41.1°C | 0.6% | 8.2hPa | 2.5V | 00:00:00 | 00:00:00 | 00:00:00 | |
| DL1XH1-15 | 2026-09-06 00:29:13 | 48.38739 | 10.25389 | 43° | 20km/h | 32746m | 5.8m/s | -41.1°C | 2.4% | 8.2hPa | 2.5V | 08:30:00 | 01:59:49 | 00:00:00 | |
| BIOWL1-15 | 2026-09-06 00:29:08 | 48.38739 | 10.25389 | 44° | 20km/h | 32746m | 5.8m/s | -41.1°C | 0% | 0hPa | 2.5V | 18:12:15 | 01:59:49 | 00:00:00 | |
| HSKMA3-T | 2026-09-06 00:29:07 | 48.38735 | 10.25384 | 49° | 16km/h | 32741m | 5.1m/s | -41.1°C | 0% | 8.2hPa | 2.5V | 18:12:15 | 01:59:48 | 00:00:00 | |
| DM0DOS-11 | 2026-09-06 00:29:07 | 48.38731 | 10.25377 | 30° | 13km/h | 32729m | 6.6m/s | -41.1°C | 2.4% | 8.2hPa | 2.6V | 08:30:00 | 01:59:46 | 00:00:00 | |
| DK7TD | 2026-09-06 00:29:06 | 48.38733 | 10.25380 | 45° | 13km/h | 32735m | 5.5m/s | -41.1°C | 0% | 8.2hPa | 2.6V | 18:12:15 | 01:59:47 | 00:00:00 | |
| HSKMA3-T | 2026-09-06 00:28:57 | 48.38703 | 10.25367 | 30° | 15km/h | 32682m | 4.8m/s | -41°C | 0% | 0hPa | 2.5V | 18:12:15 | 01:59:38 | 00:00:00 | |
| DM0DOS-11 | 2026-09-06 00:28:56 | 48.38695 | 10.25363 | 9° | 22km/h | 32670m | 6.9m/s | -41°C | 2.3% | 8.3hPa | 2.6V | 08:30:00 | 01:59:36 | 00:00:00 | |
| BIOWL1-15 | 2026-09-06 00:28:56 | 48.38699 | 10.25365 | 20° | 16km/h | 32677m | 5.5m/s | -41°C | 0% | 0hPa | 2.5V | 18:12:15 | 01:59:37 | 00:00:00 | |
| DK7TD | 2026-09-06 00:28:54 | 48.38689 | 10.25362 | 2° | 24km/h | 32664m | 6.2m/s | -40.9°C | 0% | 8.3hPa | 2.6V | 18:12:15 | 01:59:35 | 00:00:00 | |
| DB0ND-19 | 2026-09-06 00:28:53 | 48.38683 | 10.25362 | 357° | 24km/h | 32658m | 5.4m/s | -40.9°C | 0.6% | 8.3hPa | 2.5V | 00:00:00 | 00:00:00 | 00:00:00 | |
| DF3TZ-5 | 2026-09-06 00:28:51 | 48.38672 | 10.25363 | 358° | 16km/h | 32647m | 6.7m/s | -40.9°C | 0.6% | 8.3hPa | 2.5V | 00:00:00 | 00:00:00 | 00:00:00 | |
| DO3MHA-12 | 2026-09-06 00:28:50 | 48.38669 | 10.25363 | 9° | 11km/h | 32641m | 6.2m/s | -40.9°C | 2.3% | 8.3hPa | 2.5V | 00:00:00 | 01:59:31 | 00:00:00 | |
| OE5MMP-10 | 2026-09-06 00:28:49 | 48.38667 | 10.25362 | 31° | 11km/h | 32635m | 5.5m/s | -40.9°C | 2.3% | 8.3hPa | 2.5V | 00:00:00 | 01:59:30 | 00:00:00 | |
| DJ2DS-15 | 2026-09-06 00:28:48 | 48.38666 | 10.25361 | 44° | 13km/h | 32629m | 5.5m/s | -40.9°C | 2.3% | 8.3hPa | 2.5V | 00:00:00 | 01:59:29 | 00:00:00 | |
| DM0DOS-11 | 2026-09-06 00:28:47 | 48.38661 | 10.25358 | 0° | 11km/h | 32610m | 6m/s | -41°C | 2.4% | 8.4hPa | 2.5V | 08:30:00 | 01:59:26 | 00:00:00 | |
| HSKMA3-T | 2026-09-06 00:28:46 | 48.38663 | 10.25359 | 9° | 7km/h | 32616m | 6.5m/s | -41°C | 0% | 0hPa | 2.5V | 18:12:15 | 01:59:27 | 00:00:00 | |
| DL6DJ-15 | 2026-09-06 00:28:46 | 48.38661 | 10.25358 | 0° | 11km/h | 32610m | 6.0m/s | -41.0°C | 0.6% | 8.4hPa | 2.6V | 00:00:00 | 00:00:00 | 00:00:00 | |
| DK7TD | 2026-09-06 00:28:43 | 48.38654 | 10.25358 | 6° | 15km/h | 32599m | 5.5m/s | -41°C | 0% | 8.4hPa | 2.6V | 18:12:15 | 01:59:24 | 00:00:00 | |
| SONDE2-11 | 2026-09-06 00:28:43 | 48.38651 | 10.25357 | 14° | 13km/h | 32593m | 6.4m/s | -41.0°C | 0.6% | 8.4hPa | 2.6V | 00:00:00 | 00:00:00 | 00:00:00 | |
| BAUMI2-15 | 2026-09-06 00:28:42 | 48.38651 | 10.25357 | 15° | 11km/h | 32593m | 6.4m/s | -40.9°C | 2.3% | 8.3hPa | 2.6V | 00:00:00 | 01:59:23 | 00:00:00 | |
| HARRO8 | 2026-09-06 00:28:40 | 48.38643 | 10.25351 | 22° | 9km/h | 32576m | 5.0m/s | -40.9°C | 0.6% | 8.4hPa | 2.6V | 00:00:00 | 00:00:00 | 00:00:00 | |
| OE5MMP-10 | 2026-09-06 00:28:39 | 48.38642 | 10.25351 | 23° | 15km/h | 32576m | 4.9m/s | -40.8°C | 2.3% | 8.4hPa | 2.6V | 00:00:00 | 01:59:20 | 00:00:00 | |
| DJ8HS-15 | 2026-09-06 00:28:38 | 48.38640 | 10.25351 | 1° | 15km/h | 32570m | 5.3m/s | -40.8°C | 2.3% | 8.4hPa | 2.6V | 00:00:00 | 01:59:19 | 00:00:00 | |
| DM0DOS-11 | 2026-09-06 00:28:36 | 48.38628 | 10.25357 | 336° | 22km/h | 32551m | 5.6m/s | -40.9°C | 2.3% | 8.4hPa | 2.5V | 08:30:00 | 01:59:16 | 00:00:00 | |
| BIOWL1-15 | 2026-09-06 00:28:34 | 48.38623 | 10.25360 | 340° | 20km/h | 32545m | 5.5m/s | -40.9°C | 0% | 0hPa | 2.5V | 18:12:15 | 01:59:15 | 00:00:00 | |
| DL1XH1-15 | 2026-09-06 00:28:33 | 48.38605 | 10.25358 | 347° | 9km/h | 32510m | 6.5m/s | -41°C | 2.3% | 8.5hPa | 2.5V | 08:30:00 | 01:59:09 | 00:00:00 | |
| DK7TD | 2026-09-06 00:28:33 | 48.38619 | 10.25362 | 349° | 18km/h | 32540m | 6.5m/s | -40.9°C | 0% | 8.5hPa | 2.5V | 18:12:15 | 01:59:14 | 00:00:00 | |
| AZAK | 2026-09-06 00:28:33 | 48.38618 | 10.25362 | 349° | 18km/h | 32540m | 6.5m/s | -40.9°C | 0.6% | 8.5hPa | 2.6V | 00:00:00 | 00:00:00 | 00:00:00 | |
| DK5PH-5 | 2026-09-06 00:28:32 | 48.38615 | 10.25362 | 5° | 13km/h | 32533m | 6.2m/s | -40.9°C | 2.3% | 8.4hPa | 2.6V | 00:00:00 | 01:59:13 | 00:00:00 | |
| PETON7-10 | 2026-09-06 00:28:31 | 48.38612 | 10.25361 | 21° | 13km/h | 32527m | 5.6m/s | -40.9°C | 2.3% | 8.4hPa | 2.6V | 00:00:00 | 00:00:00 | 00:00:00 | |
| DO3MHA-12 | 2026-09-06 00:28:30 | 48.38609 | 10.25360 | 27° | 11km/h | 32522m | 5.2m/s | -40.9°C | 2.3% | 8.4hPa | 2.5V | 00:00:00 | 01:59:11 | 00:00:00 | |
| DF7PN | 2026-09-06 00:28:29 | 48.38605 | 10.25358 | 347° | 9km/h | 32510m | 6.5m/s | -41.0°C | 0.5% | 8.5hPa | 2.5V | 00:00:00 | 00:00:00 | 00:00:00 | |
| DJ2DS-15 | 2026-09-06 00:28:28 | 48.38605 | 10.25358 | 348° | 13km/h | 32510m | 6.5m/s | -41.0°C | 2.3% | 8.4hPa | 2.5V | 00:00:00 | 01:59:09 | 00:00:00 | |
| DM0DOS-11 | 2026-09-06 00:28:27 | 48.38598 | 10.25367 | 313° | 13km/h | 32493m | 5.2m/s | -41°C | 2.3% | 8.5hPa | 2.6V | 08:30:00 | 01:59:06 | 00:00:00 | |
| BAUMI2-15 | 2026-09-06 00:28:27 | 48.38603 | 10.25360 | 326° | 11km/h | 32504m | 5.8m/s | -41.0°C | 2.3% | 8.5hPa | 2.5V | 00:00:00 | 01:59:08 | 00:00:00 | |
| OE5DXL-15 | 2026-09-06 00:28:26 | 48.38600 | 10.25363 | 315° | 13km/h | 32498m | 5.2m/s | -41.0°C | 2.3% | 8.5hPa | 2.5V | 00:00:00 | 00:00:00 | 00:00:00 | |
| DO3MHA-11 | 2026-09-06 00:28:25 | 48.38598 | 10.25367 | 314° | 16km/h | 32493m | 5.2m/s | -41.0°C | 2.3% | 8.5hPa | 2.5V | 00:00:00 | 01:59:06 | 00:00:00 | |
| DL1XH1-15 | 2026-09-06 00:28:23 | 48.38575 | 10.25359 | 4° | 20km/h | 32453m | 6.5m/s | -41.3°C | 2.4% | 8.6hPa | 2.5V | 08:30:00 | 01:58:59 | 00:00:00 | |
| HSKMA3-T | 2026-09-06 00:28:23 | 48.38594 | 10.25371 | 353° | 9km/h | 32482m | 6.1m/s | -41.1°C | 0% | 0hPa | 2.5V | 18:12:15 | 01:59:04 | 00:00:00 | |
| DK7TD | 2026-09-06 00:28:22 | 48.38591 | 10.25370 | 24° | 11km/h | 32476m | 6.1m/s | -41.2°C | 0% | 8.5hPa | 2.5V | 18:12:15 | 01:59:03 | 00:00:00 | |
| BAUMI2-15 | 2026-09-06 00:28:22 | 48.38591 | 10.25370 | 24° | 18km/h | 32476m | 6.1m/s | -41.1°C | 2.3% | 8.5hPa | 2.5V | 00:00:00 | 01:59:03 | 08:30:00 | |
| DO3MHA-12 | 2026-09-06 00:28:20 | 48.38584 | 10.25364 | 30° | 16km/h | 32464m | 5.2m/s | -41.2°C | 2.4% | 8.5hPa | 2.6V | 00:00:00 | 01:59:01 | 00:00:00 | |
| OE5MMP-10 | 2026-09-06 00:28:19 | 48.38580 | 10.25361 | 19° | 15km/h | 32459m | 5.1m/s | -41.2°C | 2.3% | 8.5hPa | 2.6V | 00:00:00 | 01:59:00 | 00:00:00 | |
| DJ8HS-15 | 2026-09-06 00:28:18 | 48.38575 | 10.25359 | 5° | 13km/h | 32453m | 6.5m/s | -41.3°C | 2.4% | 8.5hPa | 2.6V | 00:00:00 | 01:58:59 | 00:00:00 | |
| DM0DOS-11 | 2026-09-06 00:28:17 | 48.38563 | 10.25367 | 298° | 15km/h | 32436m | 5m/s | -41.4°C | 2.3% | 8.6hPa | 2.6V | 08:30:00 | 01:58:56 | 00:00:00 | |
| BIOWL1-15 | 2026-09-06 00:28:15 | 48.38569 | 10.25376 | 166° | 15km/h | 32412m | 4.7m/s | -41.4°C | 0% | 0hPa | 2.5V | 18:12:15 | 01:58:52 | 00:00:00 | |
| DL6DJ-15 | 2026-09-06 00:28:15 | 48.38562 | 10.25372 | 266° | 11km/h | 32430m | 6.0m/s | -41.4°C | 0.6% | 8.6hPa | 2.5V | 00:00:00 | 00:00:00 | 00:00:00 | |
| DL1XH1-15 | 2026-09-06 00:28:13 | 48.38575 | 10.25371 | 27° | 4km/h | 32396m | 6.7m/s | -41.4°C | 2.4% | 8.7hPa | 2.5V | 08:30:00 | 01:58:49 | 00:00:00 | |
| DK7TD | 2026-09-06 00:28:12 | 48.38566 | 10.25376 | 185° | 13km/h | 32417m | 6m/s | -41.4°C | 0% | 8.6hPa | 2.5V | 18:12:15 | 01:58:53 | 00:00:00 | |
| SONDE2-11 | 2026-09-06 00:28:12 | 48.38569 | 10.25376 | 165° | 13km/h | 32412m | 4.7m/s | -41.4°C | 0.6% | 8.6hPa | 2.6V | 00:00:00 | 00:00:00 | 00:00:00 | |
| OE5DRO-10 | 2026-09-06 00:28:11 | 48.38569 | 10.25376 | 166° | 11km/h | 32412m | 4.6m/s | -41.4°C | 2.4% | 8.6hPa | 2.6V | 00:00:00 | 00:00:00 | 00:00:00 | |
| DB0NH | 2026-09-06 00:28:10 | 48.38573 | 10.25374 | 154° | 9km/h | 32408m | 4.4m/s | -41.4°C | 2.4% | 8.6hPa | 2.6V | 00:00:00 | 01:58:51 | 00:00:00 | |
| HARRO8 | 2026-09-06 00:28:09 | 48.38574 | 10.25371 | 27° | 4km/h | 32396m | 6.7m/s | -41.4°C | 0.6% | 8.7hPa | 2.6V | 00:00:00 | 00:00:00 | 00:00:00 | |
| DJ2DS-15 | 2026-09-06 00:28:08 | 48.38574 | 10.25371 | 28° | 11km/h | 32397m | 6.7m/s | -41.4°C | 2.4% | 8.6hPa | 2.6V | 00:00:00 | 01:58:49 | 00:00:00 | |
| DM0DOS-11 | 2026-09-06 00:28:07 | 48.38564 | 10.25373 | 347° | 20km/h | 32379m | 4.7m/s | -41.4°C | 2.4% | 8.7hPa | 2.6V | 08:30:00 | 01:58:46 | 00:00:00 | |
| BAUMI2-15 | 2026-09-06 00:28:07 | 48.38572 | 10.25371 | 355° | 16km/h | 32390m | 6.2m/s | -41.4°C | 2.4% | 8.6hPa | 2.5V | 00:00:00 | 01:58:48 | 00:00:00 | |
| DB0UT-7 | 2026-09-06 00:28:06 | 48.38568 | 10.25372 | 349° | 9km/h | 32384m | 5.3m/s | -41.4°C | 2.4% | 8.6hPa | 2.5V | 00:00:00 | 00:00:00 | 00:00:00 | |
| DO3MHA-11 | 2026-09-06 00:28:05 | 48.38563 | 10.25373 | 348° | 13km/h | 32379m | 4.7m/s | -41.4°C | 2.4% | 8.6hPa | 2.6V | 00:00:00 | 01:58:46 | 08:30:00 | |
| NBG1-10 | 2026-09-06 00:28:04 | 48.38558 | 10.25375 | 349° | 9km/h | 32374m | 4.7m/s | -41.4°C | 2.3% | 8.6hPa | 2.6V | 00:00:00 | 01:58:45 | 00:00:00 | |
| DL1XH1-15 | 2026-09-06 00:28:03 | 48.38564 | 10.25375 | 194° | 15km/h | 32339m | 6.1m/s | -41.6°C | 2.4% | 8.7hPa | 2.6V | 08:30:00 | 01:58:39 | 00:00:00 | |
| DK7TD | 2026-09-06 00:28:02 | 48.38553 | 10.25376 | 27° | 2km/h | 32362m | 6.3m/s | -41.5°C | 0% | 8.7hPa | 2.5V | 18:12:15 | 01:58:43 | 00:00:00 | |
| HSKMA3-T | 2026-09-06 00:28:01 | 48.38554 | 10.25375 | 159° | 7km/h | 32356m | 6.2m/s | -41.5°C | 0% | 0hPa | 2.5V | 18:12:15 | 01:58:42 | 00:00:00 | |
| SONCRA | 2026-09-06 00:27:59 | 48.38564 | 10.25375 | 194° | 13km/h | 32340m | 6.1m/s | -41.6°C | 0.6% | 8.8hPa | 2.5V | 00:00:00 | 00:00:00 | 00:00:00 | |
| DF7PN | 2026-09-06 00:27:58 | 48.38567 | 10.25377 | 216° | 11km/h | 32333m | 5.9m/s | -41.6°C | 0.5% | 8.7hPa | 2.5V | 00:00:00 | 00:00:00 | 00:00:00 | |
| BAUMI2-15 | 2026-09-06 00:27:57 | 48.38567 | 10.25377 | 217° | 9km/h | 32334m | 5.9m/s | -41.6°C | 2.3% | 8.7hPa | 2.5V | 00:00:00 | 01:58:38 | 00:00:00 | |
| OE5DXL-15 | 2026-09-06 00:27:56 | 48.38568 | 10.25380 | 254° | 7km/h | 32328m | 5.3m/s | -41.6°C | 2.4% | 8.7hPa | 2.5V | 00:00:00 | 00:00:00 | 08:30:00 | |
| DO3MHA-11 | 2026-09-06 00:27:55 | 48.38568 | 10.25382 | 301° | 7km/h | 32323m | 4.9m/s | -41.7°C | 2.4% | 8.7hPa | 2.6V | 00:00:00 | 01:58:36 | 00:00:00 | |
| DL1XH1-15 | 2026-09-06 00:27:53 | 48.38557 | 10.25376 | 318° | 4km/h | 32282m | 6.8m/s | -41.9°C | 2.4% | 8.8hPa | 2.6V | 08:30:00 | 01:58:29 | 00:00:00 | |
| DK7TD | 2026-09-06 00:27:51 | 48.38560 | 10.25381 | 48° | 11km/h | 32299m | 5.6m/s | -41.9°C | 0% | 8.8hPa | 2.5V | 18:12:15 | 01:58:32 | 00:00:00 | |
| DB0ND-19 | 2026-09-06 00:27:51 | 48.38559 | 10.25378 | 54° | 7km/h | 32294m | 5.0m/s | -41.9°C | 0.6% | 8.8hPa | 2.5V | 00:00:00 | 00:00:00 | 00:00:00 | |
| DO3MHA-12 | 2026-09-06 00:27:50 | 48.38559 | 10.25378 | 55° | 7km/h | 32294m | 4.9m/s | -41.8°C | 2.4% | 8.7hPa | 2.5V | 00:00:00 | 01:58:31 | 00:00:00 | |
| OE5MMP-10 | 2026-09-06 00:27:49 | 48.38558 | 10.25376 | 42° | 7km/h | 32289m | 5.4m/s | -41.8°C | 2.4% | 8.8hPa | 2.5V | 00:00:00 | 01:58:30 | 00:00:00 | |
| DJ2DS-15 | 2026-09-06 00:27:48 | 48.38557 | 10.25376 | 319° | 9km/h | 32283m | 6.7m/s | -41.8°C | 2.4% | 8.8hPa | 2.5V | 00:00:00 | 01:58:29 | 00:00:00 | |
| DM0DOS-11 | 2026-09-06 00:27:47 | 48.38557 | 10.25385 | 256° | 9km/h | 32265m | 4.9m/s | -41.9°C | 2.4% | 8.8hPa | 2.5V | 08:30:00 | 01:58:26 | 00:00:00 | |
| BIOWL1-15 | 2026-09-06 00:27:46 | 48.38557 | 10.25382 | 270° | 11km/h | 32270m | 5.2m/s | -41.9°C | 0% | 0hPa | 2.5V | 18:12:15 | 01:58:27 | 00:00:00 | |
| PETON7-10 | 2026-09-06 00:27:46 | 48.38557 | 10.25382 | 270° | 7km/h | 32270m | 5.1m/s | -41.8°C | 2.4% | 8.8hPa | 2.5V | 00:00:00 | 00:00:00 | 00:00:00 | |
| DO3MHA-11 | 2026-09-06 00:27:45 | 48.38557 | 10.25385 | 257° | 9km/h | 32266m | 4.8m/s | -41.9°C | 2.4% | 8.8hPa | 2.6V | 00:00:00 | 01:58:26 | 00:00:00 | |
| DL1XH1-15 | 2026-09-06 00:27:43 | 48.38559 | 10.25379 | 20° | 11km/h | 32223m | 6.2m/s | -42.2°C | 2.4% | 8.9hPa | 2.6V | 08:30:00 | 01:58:19 | 00:00:00 | |
| DK7TD | 2026-09-06 00:27:40 | 48.38561 | 10.25384 | 79° | 9km/h | 32236m | 5.7m/s | -42.1°C | 0% | 8.9hPa | 2.5V | 18:12:15 | 01:58:21 | 00:00:00 | |
| HSKMA3-T | 2026-09-06 00:27:39 | 48.38560 | 10.25381 | 49° | 9km/h | 32230m | 6.8m/s | -42.1°C | 0% | 0hPa | 2.6V | 18:12:15 | 01:58:20 | 00:00:00 | |
| OE5MMP-10 | 2026-09-06 00:27:39 | 48.38560 | 10.25381 | 49° | 9km/h | 32230m | 6.7m/s | -42.1°C | 2.4% | 8.8hPa | 2.6V | 00:00:00 | 01:58:20 | 00:00:00 | |
| DJ8HS-15 | 2026-09-06 00:27:38 | 48.38558 | 10.25379 | 21° | 9km/h | 32223m | 6.1m/s | -42.1°C | 2.4% | 8.8hPa | 2.6V | 00:00:00 | 01:58:19 | 08:30:00 | |
| DM0DOS-11 | 2026-09-06 00:27:36 | 48.38552 | 10.25378 | 346° | 2km/h | 32206m | 6.7m/s | -42.3°C | 2.4% | 8.9hPa | 2.5V | 08:30:00 | 01:58:16 | 00:00:00 | |
| DB0UT-7 | 2026-09-06 00:27:36 | 48.38554 | 10.25378 | 355° | 11km/h | 32213m | 5.0m/s | -42.2°C | 2.4% | 8.9hPa | 2.5V | 00:00:00 | 01:58:17 | 00:00:00 | |
| DO3MHA-11 | 2026-09-06 00:27:35 | 48.38553 | 10.25378 | 347° | 9km/h | 32207m | 6.6m/s | -42.3°C | 2.4% | 8.9hPa | 2.5V | 00:00:00 | 01:58:16 | 00:00:00 | |
| DL1XH1-15 | 2026-09-06 00:27:33 | 48.38567 | 10.25385 | 193° | 7km/h | 32164m | 5m/s | -42.7°C | 2.5% | 8.9hPa | 2.6V | 08:30:00 | 01:58:09 | 00:00:00 | |
| BIOWL1-15 | 2026-09-06 00:27:32 | 48.38557 | 10.25379 | 189° | 11km/h | 32188m | 5.7m/s | -42.6°C | 0% | 0hPa | 2.6V | 18:12:15 | 01:58:13 | 00:00:00 | |
| DK7TD | 2026-09-06 00:27:29 | 48.38564 | 10.25384 | 209° | 9km/h | 32170m | 5.3m/s | -42.7°C | 0% | 9hPa | 2.5V | 18:12:15 | 01:58:10 | 00:00:00 | |
| OE5MMP-10 | 2026-09-06 00:27:29 | 48.38564 | 10.25384 | 210° | 9km/h | 32170m | 5.2m/s | -42.6°C | 2.5% | 8.9hPa | 2.5V | 00:00:00 | 01:58:10 | 00:00:00 | |
| DJ2DS-15 | 2026-09-06 00:27:28 | 48.38566 | 10.25385 | 194° | 11km/h | 32165m | 4.9m/s | -42.7°C | 2.5% | 8.9hPa | 2.6V | 00:00:00 | 01:58:09 | 08:30:00 | |
| DM0DOS-11 | 2026-09-06 00:27:27 | 48.38572 | 10.25379 | 117° | 13km/h | 32145m | 6m/s | -42.8°C | 2.5% | 9hPa | 2.5V | 08:30:00 | 01:58:06 | 00:00:00 | |
| DF7PN | 2026-09-06 00:27:27 | 48.38570 | 10.25383 | 134° | 9km/h | 32152m | 6.9m/s | -42.8°C | 0.6% | 9.0hPa | 2.6V | 00:00:00 | 00:00:00 | 00:00:00 | |
| OE5DXL-15 | 2026-09-06 00:27:26 | 48.38570 | 10.25383 | 135° | 15km/h | 32152m | 6.9m/s | -42.7°C | 2.5% | 8.9hPa | 2.6V | 00:00:00 | 00:00:00 | 00:00:00 | |
| DO3MHA-11 | 2026-09-06 00:27:25 | 48.38572 | 10.25379 | 118° | 11km/h | 32146m | 6.0m/s | -42.7°C | 2.5% | 8.9hPa | 2.6V | 00:00:00 | 01:58:06 | 00:00:00 | |
| DL1XH1-15 | 2026-09-06 00:27:23 | 48.38571 | 10.25356 | 138° | 15km/h | 32097m | 6.5m/s | -43°C | 2.6% | 9hPa | 2.6V | 08:30:00 | 01:57:58 | 00:00:00 | |
| DK7TD | 2026-09-06 00:27:19 | 48.38569 | 10.25361 | 75° | 5km/h | 32110m | 6.1m/s | -43°C | 0% | 9hPa | 2.5V | 18:12:15 | 01:58:00 | 00:00:00 | |
| OE5MMP-10 | 2026-09-06 00:27:19 | 48.38569 | 10.25361 | 75° | 13km/h | 32111m | 6.0m/s | -42.9°C | 2.6% | 9.0hPa | 2.5V | 00:00:00 | 01:58:00 | 00:00:00 | |
| DJ8HS-15 | 2026-09-06 00:27:18 | 48.38569 | 10.25359 | 124° | 16km/h | 32104m | 6.8m/s | -43.0°C | 2.6% | 9.0hPa | 2.5V | 00:00:00 | 01:57:59 | 00:00:00 | |
| DM0DOS-11 | 2026-09-06 00:27:16 | 48.38578 | 10.25349 | 148° | 18km/h | 32085m | 5.5m/s | -42.9°C | 2.5% | 9.1hPa | 2.5V | 08:30:00 | 01:57:56 | 00:00:00 | |
| PETON7-10 | 2026-09-06 00:27:16 | 48.38574 | 10.25353 | 146° | 15km/h | 32091m | 5.8m/s | -42.9°C | 2.6% | 9.0hPa | 2.6V | 00:00:00 | 01:57:57 | 00:00:00 | |
| DO3MHA-11 | 2026-09-06 00:27:15 | 48.38578 | 10.25349 | 149° | 15km/h | 32086m | 5.5m/s | -42.9°C | 2.5% | 9.0hPa | 2.6V | 00:00:00 | 01:57:56 | 00:00:00 | |
| OE5DRO-10 | 2026-09-06 00:27:14 | 48.38581 | 10.25346 | 152° | 16km/h | 32079m | 6.8m/s | -42.8°C | 2.6% | 9.0hPa | 2.6V | 00:00:00 | 00:00:00 | 00:00:00 | |
| DL1XH1-15 | 2026-09-06 00:27:12 | 48.38595 | 10.25309 | 88° | 16km/h | 32030m | 7m/s | -42.7°C | 2.5% | 9.2hPa | 2.6V | 08:30:00 | 01:57:47 | 00:00:00 | |
| BIOWL1-15 | 2026-09-06 00:27:09 | 48.38592 | 10.25329 | 114° | 18km/h | 32048m | 5.8m/s | -42.7°C | 0% | 0hPa | 2.5V | 18:12:15 | 01:57:50 | 00:00:00 | |
| DK7TD | 2026-09-06 00:27:08 | 48.38594 | 10.25322 | 106° | 18km/h | 32042m | 5.4m/s | -42.7°C | 0% | 9.2hPa | 2.5V | 18:12:15 | 01:57:49 | 00:00:00 | |
| DJ2DS-15 | 2026-09-06 00:27:08 | 48.38593 | 10.25322 | 107° | 18km/h | 32042m | 5.4m/s | -42.6°C | 2.5% | 9.1hPa | 2.5V | 00:00:00 | 01:57:49 | 00:00:00 | |
| DM0DOS-11 | 2026-09-06 00:27:06 | 48.38594 | 10.25303 | 81° | 15km/h | 32023m | 5.9m/s | -42.7°C | 2.5% | 9.1hPa | 2.5V | 08:30:00 | 01:57:46 | 00:00:00 | |
| DK7TD | 2026-09-06 00:26:57 | 48.38616 | 10.25263 | 156° | 15km/h | 31976m | 6.4m/s | -42.9°C | 0% | 9.2hPa | 2.6V | 18:12:15 | 01:57:38 | 00:00:00 | |
| SONCRA | 2026-09-06 00:26:57 | 48.38619 | 10.25261 | 148° | 9km/h | 31971m | 5.5m/s | -43.0°C | 0.6% | 9.2hPa | 2.5V | 00:00:00 | 00:00:00 | 00:00:00 | |
| DL1XH1-15 | 2026-09-06 00:26:56 | 48.38622 | 10.25255 | 111° | 11km/h | 31959m | 6.1m/s | -43.1°C | 2.5% | 9.3hPa | 2.5V | 08:30:00 | 01:57:35 | 00:00:00 | |
| DM0DOS-11 | 2026-09-06 00:26:56 | 48.38620 | 10.25259 | 125° | 9km/h | 31965m | 5.2m/s | -43°C | 2.5% | 9.2hPa | 2.5V | 08:30:00 | 01:57:36 | 00:00:00 | |
| HSKMA3-T | 2026-09-06 00:26:49 | 48.38634 | 10.25222 | 130° | 20km/h | 31930m | 5.2m/s | -43.3°C | 0% | 0hPa | 2.5V | 18:12:15 | 01:57:30 | 00:00:00 | |
| DB0ND-19 | 2026-09-06 00:26:49 | 48.38637 | 10.25218 | 137° | 13km/h | 31924m | 6.9m/s | -43.3°C | 0.6% | 9.3hPa | 2.5V | 00:00:00 | 00:00:00 | 00:00:00 | |
| DF3TZ-5 | 2026-09-06 00:26:47 | 48.38639 | 10.25216 | 161° | 7km/h | 31917m | 6.5m/s | -43.3°C | 0.6% | 9.3hPa | 2.5V | 00:00:00 | 00:00:00 | 00:00:00 | |
| DM0DOS-11 | 2026-09-06 00:26:46 | 48.38643 | 10.25217 | 204° | 11km/h | 31905m | 5.9m/s | -43.4°C | 2.6% | 9.3hPa | 2.5V | 08:30:00 | 01:57:26 | 00:00:00 | |
| DK7TD | 2026-09-06 00:26:46 | 48.38641 | 10.25215 | 197° | 9km/h | 31911m | 5.8m/s | -43.4°C | 0% | 9.3hPa | 2.6V | 18:12:15 | 01:57:27 | 00:00:00 | |
| DL1XH1-15 | 2026-09-06 00:26:45 | 48.38646 | 10.25218 | 199° | 15km/h | 31899m | 6.7m/s | -43.4°C | 2.6% | 9.3hPa | 2.5V | 08:30:00 | 01:57:25 | 00:00:00 | |
| BIOWL1-15 | 2026-09-06 00:26:41 | 48.38659 | 10.25221 | 179° | 16km/h | 31881m | 5.8m/s | 0°C | 0% | 0hPa | 2.6V | 18:12:15 | 01:57:22 | 00:00:00 | |
| DB0NH | 2026-09-06 00:26:40 | 48.38662 | 10.25221 | 176° | 13km/h | 31875m | 6.8m/s | -43.3°C | 2.6% | 9.3hPa | 2.5V | 00:00:00 | 01:57:21 | 00:00:00 | |
| DO9HM | 2026-09-06 00:26:39 | 48.38665 | 10.25220 | 168° | 11km/h | 31869m | 6.1m/s | -43.4°C | 0.7% | 9.4hPa | 2.5V | 00:00:00 | 00:00:00 | 00:00:00 | |
| DJ8HS-15 | 2026-09-06 00:26:38 | 48.38668 | 10.25219 | 156° | 13km/h | 31863m | 5.5m/s | -43.3°C | 2.6% | 9.3hPa | 2.5V | 00:00:00 | 01:57:19 | 00:00:00 | |
| DM0DOS-11 | 2026-09-06 00:26:36 | 48.38678 | 10.25210 | 147° | 20km/h | 31844m | 6m/s | -43.3°C | 2.6% | 9.4hPa | 2.6V | 08:30:00 | 01:57:16 | 00:00:00 | |
| DK7TD | 2026-09-06 00:26:36 | 48.38674 | 10.25213 | 148° | 16km/h | 31850m | 7m/s | -43.3°C | 0% | 9.4hPa | 2.6V | 18:12:15 | 01:57:17 | 00:00:00 | |
| HSKMA3-T | 2026-09-06 00:26:32 | 48.38688 | 10.25200 | 141° | 9km/h | 31826m | 7.1m/s | -43.3°C | 0% | 0hPa | 2.5V | 18:12:15 | 01:57:13 | 00:00:00 | |
| PETON7-10 | 2026-09-06 00:26:31 | 48.38689 | 10.25198 | 134° | 11km/h | 31819m | 6.4m/s | -43.3°C | 2.6% | 9.4hPa | 2.5V | 00:00:00 | 01:57:12 | 00:00:00 | |
| DO3MHA-12 | 2026-09-06 00:26:30 | 48.38690 | 10.25197 | 134° | 11km/h | 31813m | 5.6m/s | -43.3°C | 2.6% | 9.4hPa | 2.5V | 00:00:00 | 01:57:11 | 00:00:00 | |
| OE5MMP-10 | 2026-09-06 00:26:29 | 48.38691 | 10.25196 | 149° | 11km/h | 31808m | 5.8m/s | -43.2°C | 2.6% | 9.4hPa | 2.5V | 00:00:00 | 01:57:10 | 08:30:00 | |
| DJ2DS-15 | 2026-09-06 00:26:28 | 48.38692 | 10.25195 | 155° | 15km/h | 31801m | 6.8m/s | -43.2°C | 2.6% | 9.4hPa | 2.5V | 00:00:00 | 01:57:09 | 00:00:00 | |
| DM0DOS-11 | 2026-09-06 00:26:26 | 48.38703 | 10.25188 | 154° | 16km/h | 31783m | 5.8m/s | -43.1°C | 2.6% | 9.5hPa | 2.6V | 08:30:00 | 01:57:06 | 00:00:00 | |
| DL1XH1-15 | 2026-09-06 00:26:26 | 48.38706 | 10.25185 | 152° | 15km/h | 31777m | 6.6m/s | -43.1°C | 2.6% | 9.5hPa | 2.5V | 08:30:00 | 01:57:05 | 00:00:00 | |
| BIOWL1-15 | 2026-09-06 00:26:25 | 48.38709 | 10.25183 | 151° | 11km/h | 31770m | 6.4m/s | 0°C | 0% | 0hPa | 2.5V | 18:12:15 | 01:57:04 | 00:00:00 | |
| DK7TD | 2026-09-06 00:26:25 | 48.38703 | 10.25188 | 155° | 16km/h | 31783m | 5.8m/s | -43.2°C | 0% | 9.5hPa | 2.6V | 18:12:15 | 01:57:06 | 00:00:00 | |
| HSKMA3-T | 2026-09-06 00:26:19 | 48.38716 | 10.25173 | 124° | 15km/h | 31749m | 6.5m/s | -43.2°C | 0% | 0hPa | 2.6V | 18:12:15 | 01:57:00 | 00:00:00 | |
| OE5MMP-10 | 2026-09-06 00:26:19 | 48.38716 | 10.25173 | 124° | 16km/h | 31749m | 6.5m/s | -43.1°C | 2.6% | 9.5hPa | 2.6V | 00:00:00 | 01:57:00 | 00:00:00 | |
| DL1XH1-15 | 2026-09-06 00:26:18 | 48.38730 | 10.25140 | 121° | 16km/h | 31718m | 6.7m/s | -43.2°C | 2.7% | 9.6hPa | 2.6V | 08:30:00 | 01:56:55 | 00:00:00 | |
| DO9HM | 2026-09-06 00:26:18 | 48.38718 | 10.25168 | 125° | 20km/h | 31742m | 6.9m/s | -43.2°C | 0.7% | 9.5hPa | 2.6V | 00:00:00 | 00:00:00 | 00:00:00 | |
| DM0DOS-11 | 2026-09-06 00:26:16 | 48.38728 | 10.25146 | 123° | 22km/h | 31724m | 5.5m/s | -43.2°C | 2.6% | 9.6hPa | 2.6V | 08:30:00 | 01:56:56 | 00:00:00 | |
| DK7TD | 2026-09-06 00:26:14 | 48.38730 | 10.25140 | 121° | 16km/h | 31718m | 6.7m/s | -43.2°C | 0% | 9.6hPa | 2.6V | 18:12:15 | 01:56:55 | 00:00:00 | |
| HSKMA3-T | 2026-09-06 00:26:08 | 48.38739 | 10.25117 | 120° | 22km/h | 31682m | 5.7m/s | -43°C | 0% | 0hPa | 2.5V | 18:12:15 | 01:56:49 | 00:00:00 | |
| BIOWL1-15 | 2026-09-06 00:26:07 | 48.38745 | 10.25101 | 112° | 24km/h | 31671m | 5.9m/s | 0°C | 0% | 0hPa | 2.5V | 18:12:15 | 01:56:47 | 00:00:00 | |
| DM0DOS-11 | 2026-09-06 00:26:06 | 48.38747 | 10.25093 | 104° | 22km/h | 31665m | 6.5m/s | -43°C | 2.6% | 9.7hPa | 2.6V | 08:30:00 | 01:56:46 | 00:00:00 | |
| DL1XH1-15 | 2026-09-06 00:26:06 | 48.38747 | 10.25085 | 95° | 18km/h | 31659m | 6.1m/s | -43°C | 2.6% | 9.7hPa | 2.6V | 08:30:00 | 01:56:45 | 00:00:00 | |
| DK7TD | 2026-09-06 00:26:04 | 48.38747 | 10.25085 | 95° | 18km/h | 31659m | 6.1m/s | -43°C | 0% | 9.7hPa | 2.6V | 18:12:15 | 01:56:45 | 00:00:00 | |
| HSKMA3-T | 2026-09-06 00:25:57 | 48.38758 | 10.25047 | 164° | 15km/h | 31617m | 7.1m/s | -42.7°C | 0% | 0hPa | 2.5V | 18:12:15 | 01:56:38 | 00:00:00 | |
| DM0DOS-11 | 2026-09-06 00:25:56 | 48.38766 | 10.25047 | 186° | 18km/h | 31604m | 5.1m/s | -42.6°C | 2.5% | 9.8hPa | 2.5V | 08:30:00 | 01:56:36 | 00:00:00 | |
| DK7TD | 2026-09-06 00:25:53 | 48.38776 | 10.25046 | 165° | 22km/h | 31594m | 6.3m/s | -42.5°C | 0% | 9.8hPa | 2.6V | 18:12:15 | 01:56:34 | 00:00:00 | |
| DB0ND-19 | 2026-09-06 00:25:47 | 48.38791 | 10.24999 | 66° | 15km/h | 31551m | 5.5m/s | -42.7°C | 0.6% | 9.8hPa | 2.5V | 00:00:00 | 00:00:00 | 00:00:00 | |
| DM0DOS-11 | 2026-09-06 00:25:46 | 48.38790 | 10.24994 | 76° | 13km/h | 31546m | 5.3m/s | -42.8°C | 2.5% | 9.8hPa | 2.5V | 08:30:00 | 01:56:26 | 00:00:00 | |
| DK7TD | 2026-09-06 00:25:42 | 48.38795 | 10.24980 | 146° | 20km/h | 31527m | 6.2m/s | -42.8°C | 0% | 9.9hPa | 2.5V | 18:12:15 | 01:56:23 | 00:00:00 | |
| DK7TD | 2026-09-06 00:25:32 | 48.38828 | 10.24907 | 45° | 18km/h | 31460m | 5.3m/s | -42.8°C | 0% | 10hPa | 2.5V | 18:12:15 | 01:56:12 | 00:00:00 | |
| AZAK | 2026-09-06 00:25:32 | 48.38823 | 10.24902 | 49° | 5km/h | 31451m | 5.3m/s | -42.8°C | 0.6% | 10.0hPa | 2.6V | 00:00:00 | 00:00:00 | 00:00:00 | |
| DJ2DS-15 | 2026-09-06 00:25:30 | 48.38823 | 10.24900 | 144° | 20km/h | 31445m | 6.4m/s | -42.7°C | 2.6% | 9.9hPa | 2.6V | 00:00:00 | 01:56:09 | 00:00:00 | |
| DF9NV-10 | 2026-09-06 00:25:29 | 48.38824 | 10.24900 | 145° | 7km/h | 31445m | 6.4m/s | -42.7°C | 0.7% | 10.0hPa | 2.5V | 00:00:00 | 00:00:00 | 00:00:00 | |
| DM0DOS-11 | 2026-09-06 00:25:27 | 48.38839 | 10.24894 | 168° | 33km/h | 31425m | 6.3m/s | -42.6°C | 2.5% | 10hPa | 2.5V | 08:30:00 | 01:56:06 | 00:00:00 | |
| DK7TD | 2026-09-06 00:25:20 | 48.38870 | 10.24879 | 120° | 16km/h | 31398m | 6.4m/s | -42.4°C | 0% | 10.1hPa | 2.5V | 18:12:15 | 01:56:01 | 00:00:00 | |
| DO3MHA-12 | 2026-09-06 00:25:20 | 48.38869 | 10.24879 | 120° | 16km/h | 31398m | 6.3m/s | -42.4°C | 2.5% | 10.0hPa | 2.5V | 00:00:00 | 01:56:01 | 00:00:00 | |
| OE5MMP-10 | 2026-09-06 00:25:19 | 48.38871 | 10.24873 | 98° | 18km/h | 31391m | 7.2m/s | -42.4°C | 2.6% | 10.0hPa | 2.5V | 00:00:00 | 01:56:00 | 00:00:00 | |
| DJ8HS-15 | 2026-09-06 00:25:18 | 48.38871 | 10.24865 | 87° | 15km/h | 31384m | 6.2m/s | -42.4°C | 2.5% | 10.0hPa | 2.5V | 00:00:00 | 01:55:59 | 00:00:00 | |
| DM0DOS-11 | 2026-09-06 00:25:16 | 48.38870 | 10.24848 | 95° | 5km/h | 31369m | 6.4m/s | -42.4°C | 2.5% | 10.1hPa | 2.5V | 08:30:00 | 01:55:56 | 00:00:00 | |
| DK7TD | 2026-09-06 00:25:09 | 48.38898 | 10.24859 | 167° | 26km/h | 31333m | 4.8m/s | -42.3°C | 0% | 10.2hPa | 2.5V | 18:12:15 | 01:55:50 | 00:00:00 | |
| OE5MMP-10 | 2026-09-06 00:25:09 | 48.38898 | 10.24859 | 168° | 11km/h | 31333m | 4.8m/s | -42.3°C | 2.5% | 10.1hPa | 2.5V | 00:00:00 | 01:55:50 | 00:00:00 | |
| DJ2DS-15 | 2026-09-06 00:25:08 | 48.38903 | 10.24856 | 151° | 11km/h | 31329m | 4.7m/s | -42.3°C | 2.5% | 10.1hPa | 2.5V | 00:00:00 | 01:55:49 | 00:00:00 | |
| DM0DOS-11 | 2026-09-06 00:25:06 | 48.38909 | 10.24844 | 65° | 7km/h | 31310m | 6.6m/s | -42.2°C | 2.5% | 10.2hPa | 2.5V | 08:30:00 | 01:55:46 | 00:00:00 | |
| DK7TD | 2026-09-06 00:24:59 | 48.38910 | 10.24838 | 169° | 16km/h | 31276m | 5.8m/s | -42.2°C | 0% | 10.2hPa | 2.5V | 18:12:15 | 01:55:40 | 00:00:00 | |
| DJ8HS-15 | 2026-09-06 00:24:58 | 48.38915 | 10.24837 | 179° | 16km/h | 31270m | 5.5m/s | -42.2°C | 2.5% | 10.2hPa | 2.6V | 00:00:00 | 01:55:39 | 00:00:00 | |
| DM0DOS-11 | 2026-09-06 00:24:56 | 48.38929 | 10.24842 | 208° | 16km/h | 31251m | 5.4m/s | -42.3°C | 2.5% | 10.3hPa | 2.6V | 08:30:00 | 01:55:36 | 00:00:00 | |
| DK7TD | 2026-09-06 00:24:49 | 48.38935 | 10.24842 | 26° | 5km/h | 31215m | 5.8m/s | -42.3°C | 0% | 10.3hPa | 2.5V | 18:12:15 | 01:55:30 | 00:00:00 | |
| OE5MMP-10 | 2026-09-06 00:24:49 | 48.38935 | 10.24842 | 26° | 20km/h | 31215m | 5.8m/s | -42.3°C | 2.5% | 10.3hPa | 2.6V | 00:00:00 | 01:55:30 | 00:00:00 | |
| AZAK | 2026-09-06 00:24:48 | 48.38934 | 10.24842 | 330° | 5km/h | 31209m | 6.6m/s | -42.3°C | 0.6% | 10.4hPa | 2.6V | 00:00:00 | 00:00:00 | 00:00:00 | |
| DM0DOS-11 | 2026-09-06 00:24:46 | 48.38937 | 10.24852 | 219° | 18km/h | 31191m | 6.7m/s | -42.3°C | 2.5% | 10.4hPa | 2.6V | 08:30:00 | 01:55:26 | 00:00:00 | |
| BAUMI2-15 | 2026-09-06 00:24:46 | 48.38934 | 10.24847 | 239° | 24km/h | 31198m | 5.4m/s | -42.3°C | 2.5% | 10.3hPa | 2.6V | 00:00:00 | 01:55:27 | 00:00:00 | |
| DB0ND-19 | 2026-09-06 00:24:45 | 48.38941 | 10.24857 | 206° | 26km/h | 31185m | 7.1m/s | -42.3°C | 0.6% | 10.4hPa | 2.6V | 00:00:00 | 00:00:00 | 00:00:00 | |
| DL1XH1-15 | 2026-09-06 00:24:44 | 48.38969 | 10.24874 | 212° | 27km/h | 31162m | 6.3m/s | -42.3°C | 2.5% | 10.4hPa | 2.6V | 08:30:00 | 01:55:21 | 00:00:00 | |
| DK7TD | 2026-09-06 00:24:38 | 48.38977 | 10.24884 | 240° | 15km/h | 31151m | 6m/s | -42.4°C | 0% | 10.5hPa | 2.5V | 18:12:15 | 01:55:19 | 00:00:00 | |
| DJ8HS-15 | 2026-09-06 00:24:38 | 48.38977 | 10.24884 | 240° | 15km/h | 31151m | 6.0m/s | -42.3°C | 2.5% | 10.4hPa | 2.5V | 00:00:00 | 01:55:19 | 08:30:00 | |
| DM0DOS-11 | 2026-09-06 00:24:36 | 48.38977 | 10.24890 | 32° | 4km/h | 31131m | 5.6m/s | -42.4°C | 2.5% | 10.5hPa | 2.6V | 08:30:00 | 01:55:16 | 00:00:00 | |
| DB0UT-7 | 2026-09-06 00:24:36 | 48.38977 | 10.24890 | 320° | 18km/h | 31137m | 7.0m/s | -42.3°C | 2.5% | 10.4hPa | 2.6V | 00:00:00 | 01:55:17 | 00:00:00 | |
| DO3MHA-11 | 2026-09-06 00:24:35 | 48.38977 | 10.24890 | 33° | 18km/h | 31131m | 5.6m/s | -42.3°C | 2.5% | 10.4hPa | 2.6V | 00:00:00 | 01:55:16 | 00:00:00 | |
| SONDE2-11 | 2026-09-06 00:24:34 | 48.38976 | 10.24889 | 40° | 2km/h | 31126m | 4.5m/s | -42.4°C | 0.6% | 10.5hPa | 2.5V | 00:00:00 | 00:00:00 | 00:00:00 | |
| PG1ADW-2 | 2026-09-06 00:24:32 | 48.38976 | 10.24890 | 253° | 20km/h | 31116m | 6.6m/s | -42.3°C | 2.5% | 10.5hPa | 2.5V | 00:00:00 | 00:00:00 | 00:00:00 | |
| DL1XH1-15 | 2026-09-06 00:24:31 | 48.38998 | 10.24919 | 202° | 31km/h | 31085m | 6.4m/s | -42.3°C | 2.5% | 10.6hPa | 2.5V | 08:30:00 | 01:55:08 | 00:00:00 | |
| DK7TD | 2026-09-06 00:24:28 | 48.38991 | 10.24914 | 213° | 31km/h | 31091m | 6.3m/s | -42.3°C | 0% | 10.6hPa | 2.5V | 18:12:15 | 01:55:09 | 00:00:00 | |
| AZAK | 2026-09-06 00:24:27 | 48.38991 | 10.24914 | 214° | 31km/h | 31092m | 6.3m/s | -42.3°C | 0.6% | 10.6hPa | 2.5V | 00:00:00 | 00:00:00 | 00:00:00 | |
| DM0DOS-11 | 2026-09-06 00:24:26 | 48.39011 | 10.24924 | 183° | 24km/h | 31073m | 5.6m/s | -42.2°C | 2.5% | 10.6hPa | 2.5V | 08:30:00 | 01:55:06 | 00:00:00 | |
| DK7TD | 2026-09-06 00:24:17 | 48.39024 | 10.24948 | 207° | 16km/h | 31027m | 6.3m/s | -42.2°C | 0% | 10.7hPa | 2.5V | 18:12:15 | 01:54:58 | 00:00:00 | |
| DL1XH1-15 | 2026-09-06 00:24:16 | 48.39035 | 10.24952 | 186° | 29km/h | 31014m | 6m/s | -42.1°C | 2.4% | 10.7hPa | 2.5V | 08:30:00 | 01:54:56 | 00:00:00 | |
| PETON7-10 | 2026-09-06 00:24:16 | 48.39028 | 10.24950 | 191° | 18km/h | 31021m | 6.6m/s | -42.1°C | 2.4% | 10.6hPa | 2.5V | 00:00:00 | 01:54:57 | 00:00:00 | |
| DO3MHA-11 | 2026-09-06 00:24:15 | 48.39035 | 10.24952 | 187° | 22km/h | 31015m | 5.9m/s | -42.1°C | 2.4% | 10.6hPa | 2.5V | 00:00:00 | 01:54:56 | 00:00:00 | |
| HEMX73-11 | 2026-09-06 00:24:14 | 48.39034 | 10.24951 | 188° | 29km/h | 31015m | 6.0m/s | -42.1°C | 0% | 10.7hPa | 2.5V | 00:00:00 | 00:00:00 | 00:00:00 | |
| NBG1-10 | 2026-09-06 00:24:13 | 48.39051 | 10.24956 | 194° | 20km/h | 31003m | 6.6m/s | -42.1°C | 2.5% | 10.6hPa | 2.5V | 00:00:00 | 01:54:54 | 00:00:00 | |
| DF3TZ-5 | 2026-09-06 00:24:12 | 48.39066 | 10.24963 | 202° | 27km/h | 30991m | 5.1m/s | -42.2°C | 0.6% | 10.7hPa | 2.5V | 00:00:00 | 00:00:00 | 00:00:00 | |
| BAUMI2-15 | 2026-09-06 00:24:11 | 48.39066 | 10.24963 | 203° | 16km/h | 30991m | 5.1m/s | -42.1°C | 2.4% | 10.6hPa | 2.5V | 00:00:00 | 01:54:52 | 00:00:00 | |
| DO3MHA-12 | 2026-09-06 00:24:10 | 48.39072 | 10.24967 | 203° | 11km/h | 30986m | 5.8m/s | -42.1°C | 2.4% | 10.7hPa | 2.5V | 00:00:00 | 01:54:51 | 08:30:00 | |
| OE5MMP-10 | 2026-09-06 00:24:09 | 48.39077 | 10.24970 | 199° | 11km/h | 30979m | 6.7m/s | -42.1°C | 2.4% | 10.7hPa | 2.5V | 00:00:00 | 01:54:50 | 00:00:00 | |
| DM7RM-13 | 2026-09-06 00:24:08 | 48.39077 | 10.24970 | 199° | 18km/h | 30979m | 6.8m/s | -42.2°C | 0.6% | 10.7hPa | 2.5V | 00:00:00 | 00:00:00 | 00:00:00 | |
| DM0DOS-11 | 2026-09-06 00:24:06 | 48.39082 | 10.24973 | 314° | 5km/h | 30955m | 6.8m/s | -42.3°C | 2.5% | 10.8hPa | 2.5V | 08:30:00 | 01:54:46 | 00:00:00 | |
| DK7TD | 2026-09-06 00:24:06 | 48.39083 | 10.24972 | 295° | 2km/h | 30961m | 5.8m/s | -42.3°C | 0% | 10.8hPa | 2.5V | 18:12:15 | 01:54:47 | 00:00:00 | |
| BIOWL1-15 | 2026-09-06 00:24:00 | 48.39095 | 10.24980 | 168° | 31km/h | 30920m | 6.3m/s | 0°C | 0% | 0hPa | 2.5V | 18:12:15 | 01:54:40 | 00:00:00 | |
| DO3MHA-12 | 2026-09-06 00:24:00 | 48.39088 | 10.24981 | 173° | 24km/h | 30927m | 7.4m/s | -42.4°C | 2.5% | 10.8hPa | 2.5V | 00:00:00 | 01:54:41 | 00:00:00 | |
| OE5MMP-10 | 2026-09-06 00:23:59 | 48.39095 | 10.24980 | 169° | 22km/h | 30920m | 6.3m/s | -42.4°C | 2.5% | 10.8hPa | 2.5V | 00:00:00 | 01:54:40 | 00:00:00 | |
| DJ8HS-15 | 2026-09-06 00:23:58 | 48.39103 | 10.24977 | 170° | 22km/h | 30914m | 5.8m/s | -42.4°C | 2.5% | 10.8hPa | 2.5V | 00:00:00 | 01:54:39 | 00:00:00 | |
| DL1XH1-15 | 2026-09-06 00:23:56 | 48.39127 | 10.24975 | 185° | 24km/h | 30896m | 5m/s | -42.5°C | 2.5% | 10.9hPa | 2.5V | 08:30:00 | 01:54:36 | 00:00:00 | |
| HSKMA3-T | 2026-09-06 00:23:56 | 48.39120 | 10.24974 | 179° | 29km/h | 30902m | 5.5m/s | -42.5°C | 0% | 0hPa | 2.5V | 18:12:15 | 01:54:37 | 00:00:00 | |
| DC4HF-4 | 2026-09-06 00:23:52 | 48.39143 | 10.24978 | 200° | 9km/h | 30873m | 5.2m/s | -42.7°C | 0.6% | 10.9hPa | 2.6V | 00:00:00 | 00:00:00 | 00:00:00 | |
| BAUMI2-15 | 2026-09-06 00:23:51 | 48.39142 | 10.24978 | 201° | 13km/h | 30873m | 5.2m/s | -42.6°C | 2.5% | 10.8hPa | 2.6V | 00:00:00 | 01:54:32 | 00:00:00 | |
| DO3MHA-12 | 2026-09-06 00:23:50 | 48.39145 | 10.24980 | 217° | 22km/h | 30868m | 5.7m/s | -42.6°C | 2.5% | 10.9hPa | 2.5V | 00:00:00 | 01:54:31 | 00:00:00 | |
| DL1XH1-15 | 2026-09-06 00:23:49 | 48.39171 | 10.24989 | 154° | 29km/h | 30831m | 6.2m/s | -42.6°C | 2.4% | 10.9hPa | 2.5V | 08:30:00 | 01:54:25 | 00:00:00 | |
| OE5MMP-10 | 2026-09-06 00:23:49 | 48.39147 | 10.24983 | 224° | 24km/h | 30861m | 6.7m/s | -42.6°C | 2.5% | 10.9hPa | 2.5V | 00:00:00 | 01:54:30 | 00:00:00 | |
| DM7RM-13 | 2026-09-06 00:23:48 | 48.39147 | 10.24983 | 224° | 15km/h | 30861m | 6.8m/s | -42.7°C | 0.7% | 10.9hPa | 2.5V | 00:00:00 | 00:00:00 | 00:00:00 | |
| AZAK | 2026-09-06 00:23:47 | 48.39150 | 10.24987 | 220° | 18km/h | 30855m | 5.5m/s | -42.7°C | 0.6% | 10.9hPa | 2.5V | 00:00:00 | 00:00:00 | 00:00:00 | |
| DM0DOS-11 | 2026-09-06 00:23:46 | 48.39165 | 10.24992 | 168° | 24km/h | 30838m | 7m/s | -42.6°C | 2.5% | 10.9hPa | 2.5V | 08:30:00 | 01:54:26 | 00:00:00 | |
| DK7TD | 2026-09-06 00:23:46 | 48.39159 | 10.24993 | 186° | 22km/h | 30845m | 5.7m/s | -42.7°C | 0% | 10.9hPa | 2.6V | 18:12:15 | 01:54:27 | 00:00:00 | |
| HSKMA3-T | 2026-09-06 00:23:41 | 48.39191 | 10.24973 | 158° | 27km/h | 30815m | 6.5m/s | -42.6°C | 0% | 0hPa | 2.6V | 18:12:15 | 01:54:22 | 00:00:00 | |
| DF3TZ-5 | 2026-09-06 00:23:41 | 48.39197 | 10.24970 | 169° | 20km/h | 30809m | 5.9m/s | -42.6°C | 0.6% | 11.0hPa | 2.5V | 00:00:00 | 00:00:00 | 00:00:00 | |
| DO3MHA-12 | 2026-09-06 00:23:40 | 48.39197 | 10.24970 | 170° | 15km/h | 30809m | 5.9m/s | -42.5°C | 2.4% | 11.0hPa | 2.5V | 00:00:00 | 01:54:21 | 00:00:00 | |
| DL1XH1-15 | 2026-09-06 00:23:39 | 48.39216 | 10.24970 | 164° | 13km/h | 30775m | 5.4m/s | -42.9°C | 2.4% | 11.1hPa | 2.5V | 08:30:00 | 01:54:15 | 00:00:00 | |
| OE5MMP-10 | 2026-09-06 00:23:39 | 48.39202 | 10.24970 | 183° | 16km/h | 30804m | 5.2m/s | -42.6°C | 2.4% | 11.0hPa | 2.5V | 00:00:00 | 01:54:20 | 00:00:00 | |
| DJ8HS-15 | 2026-09-06 00:23:38 | 48.39206 | 10.24970 | 193° | 20km/h | 30799m | 5.4m/s | -42.6°C | 2.4% | 11.0hPa | 2.5V | 00:00:00 | 01:54:19 | 00:00:00 | |
| DF1GD-15 | 2026-09-06 00:23:37 | 48.39206 | 10.24970 | 193° | 15km/h | 30799m | 5.5m/s | -42.7°C | 0.6% | 11.0hPa | 2.6V | 00:00:00 | 00:00:00 | 00:00:00 | |
| DM0DOS-11 | 2026-09-06 00:23:36 | 48.39214 | 10.24971 | 164° | 9km/h | 30780m | 5.6m/s | -42.9°C | 2.5% | 11.1hPa | 2.6V | 08:30:00 | 01:54:16 | 00:00:00 | |
| DK7TD | 2026-09-06 00:23:35 | 48.39214 | 10.24971 | 164° | 9km/h | 30780m | 5.6m/s | -42.9°C | 0% | 11.1hPa | 2.6V | 18:12:15 | 01:54:16 | 00:00:00 | |
| OE5WHR-10 | 2026-09-06 00:23:32 | 48.39224 | 10.24968 | 178° | 22km/h | 30763m | 6.7m/s | -42.9°C | 2.5% | 11.0hPa | 2.5V | 00:00:00 | 00:00:00 | 00:00:00 | |
| PETON7-10 | 2026-09-06 00:23:31 | 48.39229 | 10.24968 | 180° | 24km/h | 30757m | 5.7m/s | -43.0°C | 2.5% | 11.1hPa | 2.5V | 00:00:00 | 01:54:12 | 00:00:00 | |
| DO3MHA-12 | 2026-09-06 00:23:30 | 48.39236 | 10.24968 | 175° | 24km/h | 30752m | 5.0m/s | -43.2°C | 2.5% | 11.0hPa | 2.5V | 00:00:00 | 01:54:11 | 00:00:00 | |
| OE5MMP-10 | 2026-09-06 00:23:29 | 48.39243 | 10.24966 | 167° | 24km/h | 30746m | 5.6m/s | -43.2°C | 2.5% | 11.1hPa | 2.5V | 00:00:00 | 01:54:10 | 08:30:00 | |
| DL1XH1-15 | 2026-09-06 00:23:28 | 48.39276 | 10.24938 | 150° | 20km/h | 30717m | 6.7m/s | -43.8°C | 2.6% | 11.2hPa | 2.5V | 08:30:00 | 01:54:05 | 00:00:00 | |
| DM7RM-13 | 2026-09-06 00:23:27 | 48.39251 | 10.24962 | 159° | 33km/h | 30740m | 6.9m/s | -43.4°C | 0.6% | 11.1hPa | 2.6V | 00:00:00 | 00:00:00 | 00:00:00 | |
| DM0DOS-11 | 2026-09-06 00:23:26 | 48.39272 | 10.24943 | 143° | 26km/h | 30723m | 4.8m/s | -43.7°C | 2.6% | 11.2hPa | 2.6V | 08:30:00 | 01:54:06 | 00:00:00 | |
| HSKMA3-T | 2026-09-06 00:23:26 | 48.39266 | 10.24949 | 143° | 31km/h | 30728m | 4.8m/s | -43.6°C | 0% | 0hPa | 2.6V | 18:12:15 | 01:54:07 | 00:00:00 | |
| DK7TD | 2026-09-06 00:23:24 | 48.39276 | 10.24938 | 150° | 20km/h | 30717m | 6.7m/s | -43.8°C | 0% | 11.2hPa | 2.5V | 18:12:15 | 01:54:05 | 00:00:00 | |
| DK5PH-5 | 2026-09-06 00:23:24 | 48.39276 | 10.24938 | 151° | 24km/h | 30718m | 6.6m/s | -43.7°C | 2.6% | 11.1hPa | 2.6V | 00:00:00 | 01:54:05 | 00:00:00 | |
| DF9NV-10 | 2026-09-06 00:23:23 | 48.39276 | 10.24938 | 151° | 20km/h | 30718m | 6.7m/s | -43.8°C | 0.7% | 11.2hPa | 2.6V | 00:00:00 | 00:00:00 | 00:00:00 | |
| DO3MHA-12 | 2026-09-06 00:23:20 | 48.39290 | 10.24940 | 192° | 26km/h | 30693m | 6.4m/s | -43.8°C | 2.6% | 11.2hPa | 2.6V | 00:00:00 | 01:54:01 | 00:00:00 | |
| OE5MMP-10 | 2026-09-06 00:23:19 | 48.39293 | 10.24940 | 174° | 27km/h | 30687m | 5.9m/s | -43.8°C | 2.7% | 11.2hPa | 2.6V | 00:00:00 | 01:54:00 | 00:00:00 | |
| DL1XH1-15 | 2026-09-06 00:23:18 | 48.39326 | 10.24923 | 163° | 31km/h | 30657m | 5.7m/s | -44°C | 2.7% | 11.3hPa | 2.6V | 08:30:00 | 01:53:55 | 00:00:00 | |
| DM0DOS-11 | 2026-09-06 00:23:16 | 48.39319 | 10.24927 | 161° | 31km/h | 30663m | 6.9m/s | -43.9°C | 2.7% | 11.3hPa | 2.6V | 08:30:00 | 01:53:56 | 00:00:00 | |
| HSKMA3-T | 2026-09-06 00:23:16 | 48.39312 | 10.24931 | 159° | 31km/h | 30670m | 6.1m/s | 0°C | 0% | 0hPa | 2.5V | 18:12:15 | 01:53:57 | 00:00:00 | |
| DK7TD | 2026-09-06 00:23:13 | 48.39333 | 10.24920 | 163° | 29km/h | 30652m | 5.1m/s | -44°C | 0% | 11.3hPa | 2.5V | 18:12:15 | 01:53:54 | 00:00:00 | |
| OE5WHR-10 | 2026-09-06 00:23:11 | 48.39346 | 10.24912 | 151° | 24km/h | 30641m | 6.0m/s | -43.9°C | 2.7% | 11.2hPa | 2.5V | 00:00:00 | 00:00:00 | 00:00:00 | |
| DF3TZ-5 | 2026-09-06 00:23:10 | 48.39356 | 10.24900 | 131° | 24km/h | 30628m | 5.7m/s | -44.0°C | 0.7% | 11.3hPa | 2.5V | 00:00:00 | 00:00:00 | 00:00:00 | |
| OE5MMP-10 | 2026-09-06 00:23:09 | 48.39356 | 10.24900 | 132° | 20km/h | 30629m | 5.7m/s | -43.9°C | 2.7% | 11.3hPa | 2.5V | 00:00:00 | 01:53:50 | 00:00:00 | |
| DM0DOS-11 | 2026-09-06 00:23:08 | 48.39368 | 10.24883 | 170° | 13km/h | 30604m | 6m/s | -43.9°C | 2.7% | 11.3hPa | 2.5V | 08:30:00 | 01:53:46 | 00:00:00 | |
| DL1XH1-15 | 2026-09-06 00:23:08 | 48.39372 | 10.24883 | 174° | 15km/h | 30599m | 4.9m/s | -43.9°C | 2.7% | 11.4hPa | 2.6V | 08:30:00 | 01:53:45 | 00:00:00 | |
| HSKMA3-T | 2026-09-06 00:23:06 | 48.39365 | 10.24885 | 146° | 13km/h | 30611m | 7.2m/s | 0°C | 0% | 0hPa | 2.5V | 18:12:15 | 01:53:47 | 00:00:00 | |
| DK7TD | 2026-09-06 00:23:02 | 48.39381 | 10.24879 | 157° | 22km/h | 30587m | 6.3m/s | -44°C | 0% | 11.4hPa | 2.5V | 18:12:15 | 01:53:43 | 00:00:00 | |
| PETON7-10 | 2026-09-06 00:23:01 | 48.39386 | 10.24875 | 152° | 24km/h | 30581m | 5.2m/s | -43.9°C | 2.6% | 11.3hPa | 2.6V | 00:00:00 | 00:00:00 | 00:00:00 | |
| DO3MHA-12 | 2026-09-06 00:23:00 | 48.39393 | 10.24869 | 151° | 26km/h | 30576m | 4.9m/s | -44.0°C | 2.7% | 11.3hPa | 2.6V | 00:00:00 | 01:53:41 | 00:00:00 | |
| OE5MMP-10 | 2026-09-06 00:22:59 | 48.39399 | 10.24864 | 153° | 24km/h | 30571m | 6.5m/s | -44.0°C | 2.7% | 11.4hPa | 2.6V | 00:00:00 | 01:53:40 | 00:00:00 | |
| DJ8HS-15 | 2026-09-06 00:22:58 | 48.39406 | 10.24859 | 156° | 20km/h | 30564m | 6.6m/s | -44.0°C | 2.7% | 11.4hPa | 2.6V | 00:00:00 | 01:53:39 | 00:00:00 | |
| DL1XH1-15 | 2026-09-06 00:22:57 | 48.39429 | 10.24843 | 145° | 24km/h | 30541m | 6.6m/s | -44.1°C | 2.7% | 11.5hPa | 2.6V | 08:30:00 | 01:53:35 | 00:00:00 | |
| DM0DOS-11 | 2026-09-06 00:22:56 | 48.39424 | 10.24848 | 152° | 24km/h | 30547m | 5.2m/s | -44.1°C | 2.7% | 11.5hPa | 2.5V | 08:30:00 | 01:53:36 | 00:00:00 | |
| HSKMA3-T | 2026-09-06 00:22:54 | 48.39429 | 10.24843 | 146° | 24km/h | 30541m | 6.6m/s | 0°C | 0% | 0hPa | 2.6V | 18:12:15 | 01:53:35 | 00:00:00 | |
| DK7TD | 2026-09-06 00:22:52 | 48.39439 | 10.24831 | 136° | 24km/h | 30528m | 5.2m/s | -44.2°C | 0% | 11.5hPa | 2.5V | 18:12:15 | 01:53:33 | 00:00:00 | |
| SONCRA | 2026-09-06 00:22:48 | 48.39453 | 10.24818 | 179° | 11km/h | 30505m | 5.7m/s | -44.2°C | 0.6% | 11.5hPa | 2.5V | 00:00:00 | 00:00:00 | 00:00:00 | |
| DL1XH1-15 | 2026-09-06 00:22:47 | 48.39468 | 10.24809 | 140° | 22km/h | 30480m | 5.3m/s | -44.4°C | 2.7% | 11.6hPa | 2.5V | 08:30:00 | 01:53:25 | 00:00:00 | |
| HSKMA3-T | 2026-09-06 00:22:42 | 48.39477 | 10.24798 | 144° | 24km/h | 30470m | 5.3m/s | 0°C | 0% | 0hPa | 2.6V | 18:12:15 | 01:53:23 | 00:00:00 | |
| DK7TD | 2026-09-06 00:22:41 | 48.39482 | 10.24794 | 152° | 22km/h | 30464m | 6.5m/s | -44.5°C | 0% | 11.6hPa | 2.5V | 18:12:15 | 01:53:22 | 00:00:00 | |
| DB0NH | 2026-09-06 00:22:40 | 48.39487 | 10.24790 | 166° | 18km/h | 30458m | 6.1m/s | -44.5°C | 2.7% | 11.6hPa | 2.6V | 00:00:00 | 01:53:21 | 00:00:00 | |
| DF3TZ-5 | 2026-09-06 00:22:39 | 48.39496 | 10.24789 | 175° | 16km/h | 30447m | 5.0m/s | -44.6°C | 0.7% | 11.6hPa | 2.6V | 00:00:00 | 00:00:00 | 00:00:00 | |
| DJ8HS-15 | 2026-09-06 00:22:38 | 48.39496 | 10.24789 | 176° | 18km/h | 30447m | 4.9m/s | -44.5°C | 2.7% | 11.6hPa | 2.6V | 00:00:00 | 01:53:19 | 00:00:00 | |
| DL1XH1-15 | 2026-09-06 00:22:37 | 48.39511 | 10.24776 | 133° | 18km/h | 30422m | 5.9m/s | -44.8°C | 2.7% | 11.6hPa | 2.5V | 08:30:00 | 01:53:15 | 00:00:00 | |
| DM0DOS-11 | 2026-09-06 00:22:36 | 48.39507 | 10.24781 | 137° | 18km/h | 30428m | 5.9m/s | -44.7°C | 2.7% | 11.7hPa | 2.5V | 08:30:00 | 01:53:16 | 00:00:00 | |
| DK7TD | 2026-09-06 00:22:31 | 48.39520 | 10.24763 | 141° | 16km/h | 30403m | 5.1m/s | -44.9°C | 0% | 11.7hPa | 2.6V | 18:12:15 | 01:53:12 | 00:00:00 | |
| HSKMA3-T | 2026-09-06 00:22:30 | 48.39524 | 10.24759 | 139° | 18km/h | 30398m | 5.3m/s | 0°C | 0% | 0hPa | 2.5V | 18:12:15 | 01:53:11 | 00:00:00 | |
| DO3MHA-12 | 2026-09-06 00:22:30 | 48.39523 | 10.24758 | 140° | 20km/h | 30398m | 5.2m/s | -44.9°C | 2.7% | 11.7hPa | 2.5V | 00:00:00 | 01:53:11 | 00:00:00 | |
| OE5MMP-10 | 2026-09-06 00:22:29 | 48.39527 | 10.24753 | 134° | 20km/h | 30392m | 6.7m/s | -44.9°C | 2.7% | 11.7hPa | 2.5V | 00:00:00 | 01:53:10 | 00:00:00 | |
| DL1XH1-15 | 2026-09-06 00:22:27 | 48.39546 | 10.24723 | 155° | 16km/h | 30361m | 6.7m/s | -45.1°C | 2.8% | 11.8hPa | 2.5V | 08:30:00 | 01:53:05 | 00:00:00 | |
| DK7TD | 2026-09-06 00:22:21 | 48.39558 | 10.24719 | 163° | 16km/h | 30343m | 6.7m/s | -45.2°C | 0% | 11.8hPa | 2.6V | 18:12:15 | 01:53:02 | 00:00:00 | |
| HSKMA3-T | 2026-09-06 00:22:17 | 48.39575 | 10.24707 | 156° | 16km/h | 30319m | 6.9m/s | 0°C | 0% | 0hPa | 2.5V | 18:12:15 | 01:52:58 | 00:00:00 | |
| DL1XH1-15 | 2026-09-06 00:22:16 | 48.39585 | 10.24698 | 129° | 16km/h | 30301m | 6.8m/s | -45.2°C | 2.8% | 11.9hPa | 2.5V | 08:30:00 | 01:52:55 | 00:00:00 | |
| DK7TD | 2026-09-06 00:22:10 | 48.39595 | 10.24674 | 134° | 16km/h | 30277m | 6.7m/s | -45.4°C | 0% | 11.9hPa | 2.6V | 18:12:15 | 01:52:51 | 00:00:00 | |
| DO3MHA-12 | 2026-09-06 00:22:10 | 48.39595 | 10.24674 | 134° | 22km/h | 30278m | 6.7m/s | -45.3°C | 2.9% | 11.9hPa | 2.6V | 00:00:00 | 01:52:51 | 00:00:00 | |
| OE5MMP-10 | 2026-09-06 00:22:09 | 48.39598 | 10.24671 | 157° | 24km/h | 30271m | 6.6m/s | -45.4°C | 2.9% | 11.9hPa | 2.6V | 00:00:00 | 01:52:50 | 00:00:00 | |
| OE5WHR-10 | 2026-09-06 00:22:08 | 48.39601 | 10.24669 | 174° | 26km/h | 30265m | 5.4m/s | -45.4°C | 2.8% | 11.9hPa | 2.6V | 00:00:00 | 00:00:00 | 00:00:00 | |
| DM0DOS-11 | 2026-09-06 00:22:06 | 48.39618 | 10.24665 | 161° | 26km/h | 30246m | 6.4m/s | -45.6°C | 2.9% | 12hPa | 2.6V | 08:30:00 | 01:52:46 | 00:00:00 | |
| DL1XH1-15 | 2026-09-06 00:22:06 | 48.39624 | 10.24662 | 155° | 27km/h | 30240m | 5.4m/s | -45.6°C | 2.9% | 12hPa | 2.5V | 08:30:00 | 01:52:45 | 00:00:00 | |
| DK7TD | 2026-09-06 00:22:00 | 48.39648 | 10.24646 | 164° | 26km/h | 30216m | 5.7m/s | -45.5°C | 0% | 12.1hPa | 2.6V | 18:12:15 | 01:52:41 | 00:00:00 | |
| HSKMA3-T | 2026-09-06 00:21:57 | 48.39667 | 10.24635 | 150° | 29km/h | 30198m | 6.8m/s | 0°C | 0% | 0hPa | 2.5V | 18:12:15 | 01:52:38 | 00:00:00 | |
| DL1XH1-15 | 2026-09-06 00:21:56 | 48.39684 | 10.24618 | 149° | 24km/h | 30180m | 7.1m/s | -45.4°C | 2.8% | 12.1hPa | 2.6V | 08:30:00 | 01:52:35 | 00:00:00 | |
| DM0DOS-11 | 2026-09-06 00:21:56 | 48.39679 | 10.24623 | 145° | 27km/h | 30186m | 5.3m/s | -45.4°C | 2.8% | 12.1hPa | 2.6V | 08:30:00 | 01:52:36 | 00:00:00 | |
| DK7TD | 2026-09-06 00:21:48 | 48.39719 | 10.24595 | 156° | 35km/h | 30144m | 5.9m/s | -45.4°C | 0% | 12.2hPa | 2.6V | 18:12:15 | 01:52:29 | 00:00:00 | |
| HSKMA3-T | 2026-09-06 00:21:47 | 48.39727 | 10.24590 | 158° | 35km/h | 30137m | 6.5m/s | 0°C | 0% | 0hPa | 2.5V | 18:12:15 | 01:52:28 | 00:00:00 | |
| DM0DOS-11 | 2026-09-06 00:21:46 | 48.39743 | 10.24581 | 161° | 35km/h | 30125m | 5.5m/s | -45.5°C | 2.9% | 12.2hPa | 2.5V | 08:30:00 | 01:52:26 | 00:00:00 | |
| DL1XH1-15 | 2026-09-06 00:21:46 | 48.39751 | 10.24576 | 157° | 35km/h | 30119m | 5.2m/s | -45.4°C | 2.8% | 12.2hPa | 2.6V | 08:30:00 | 01:52:25 | 00:00:00 | |
| DF7PN | 2026-09-06 00:21:45 | 48.39743 | 10.24581 | 161° | 33km/h | 30125m | 5.5m/s | -45.5°C | 0.7% | 12.2hPa | 2.6V | 00:00:00 | 00:00:00 | 00:00:00 | |
| DK7TD | 2026-09-06 00:21:38 | 48.39794 | 10.24529 | 146° | 26km/h | 30083m | 6.9m/s | -45.5°C | 0% | 12.3hPa | 2.6V | 18:12:15 | 01:52:19 | 00:00:00 | |
| HSKMA3-T | 2026-09-06 00:21:37 | 48.39799 | 10.24525 | 157° | 24km/h | 30077m | 5.8m/s | 0°C | 0% | 0hPa | 2.5V | 18:12:15 | 01:52:18 | 00:00:00 | |
| DM0DOS-11 | 2026-09-06 00:21:36 | 48.39811 | 10.24519 | 164° | 26km/h | 30066m | 6.4m/s | -45.5°C | 2.9% | 12.3hPa | 2.5V | 08:30:00 | 01:52:16 | 00:00:00 | |
| DL1XH1-15 | 2026-09-06 00:21:36 | 48.39817 | 10.24516 | 161° | 31km/h | 30059m | 6.9m/s | -45.5°C | 2.9% | 12.3hPa | 2.5V | 08:30:00 | 01:52:15 | 00:00:00 | |
| HSKMA3-T | 2026-09-06 00:21:27 | 48.39873 | 10.24483 | 143° | 29km/h | 30019m | 6.3m/s | 0°C | 0% | 0hPa | 2.6V | 18:12:15 | 01:52:08 | 00:00:00 | |
| DL1XH1-15 | 2026-09-06 00:21:26 | 48.39888 | 10.24455 | 124° | 33km/h | 30000m | 5.1m/s | -45.5°C | 2.9% | 12.4hPa | 2.5V | 08:30:00 | 01:52:05 | 00:00:00 | |
| DM0DOS-11 | 2026-09-06 00:21:26 | 48.39884 | 10.24465 | 125° | 33km/h | 30005m | 6.1m/s | -45.5°C | 3% | 12.4hPa | 2.5V | 08:30:00 | 01:52:06 | 00:00:00 | |
| DK7TD | 2026-09-06 00:21:26 | 48.39879 | 10.24475 | 133° | 31km/h | 30012m | 7.4m/s | -45.5°C | 0% | 12.4hPa | 2.5V | 18:12:15 | 01:52:07 | 00:00:00 | |
| HSKMA3-T | 2026-09-06 00:21:16 | 48.39949 | 10.24409 | 162° | 42km/h | 29951m | 5.7m/s | 0°C | 0% | 0hPa | 2.6V | 18:12:15 | 01:51:57 | 00:00:00 | |
| DM0DOS-11 | 2026-09-06 00:21:16 | 48.39959 | 10.24405 | 162° | 38km/h | 29944m | 6.7m/s | -45.3°C | 2.9% | 12.6hPa | 2.5V | 08:30:00 | 01:51:56 | 00:00:00 | |
| DL1XH1-15 | 2026-09-06 00:21:16 | 48.39967 | 10.24400 | 159° | 35km/h | 29938m | 5.4m/s | -45.3°C | 2.9% | 12.6hPa | 2.5V | 08:30:00 | 01:51:55 | 00:00:00 | |
| DK7TD | 2026-09-06 00:21:15 | 48.39959 | 10.24405 | 162° | 38km/h | 29944m | 6.7m/s | -45.3°C | 0% | 12.6hPa | 2.5V | 18:12:15 | 01:51:56 | 00:00:00 | |
| SONCRA | 2026-09-06 00:21:15 | 48.39959 | 10.24405 | 162° | 38km/h | 29944m | 6.7m/s | -45.3°C | 0.7% | 12.6hPa | 2.5V | 00:00:00 | 00:00:00 | 00:00:00 | |
| DO9HM | 2026-09-06 00:21:13 | 48.39967 | 10.24400 | 160° | 35km/h | 29939m | 5.4m/s | -45.3°C | 0.8% | 12.6hPa | 2.5V | 00:00:00 | 00:00:00 | 00:00:00 | |
| BAUMI2-15 | 2026-09-06 00:21:12 | 48.39982 | 10.24387 | 140° | 35km/h | 29927m | 6.7m/s | -45.2°C | 2.9% | 12.5hPa | 2.5V | 00:00:00 | 01:51:53 | 00:00:00 | |
| DO3MHA-12 | 2026-09-06 00:21:10 | 48.39994 | 10.24366 | 124° | 37km/h | 29914m | 5.7m/s | -45.1°C | 2.9% | 12.6hPa | 2.5V | 00:00:00 | 01:51:51 | 08:30:00 | |
| OE5MMP-10 | 2026-09-06 00:21:09 | 48.39999 | 10.24354 | 123° | 37km/h | 29909m | 5.6m/s | -45.0°C | 2.8% | 12.6hPa | 2.6V | 00:00:00 | 01:51:50 | 00:00:00 | |
| DM0DOS-11 | 2026-09-06 00:21:06 | 48.40023 | 10.24319 | 151° | 35km/h | 29884m | 5.7m/s | -45°C | 2.8% | 12.7hPa | 2.6V | 08:30:00 | 01:51:46 | 00:00:00 | |
| DL1XH1-15 | 2026-09-06 00:21:06 | 48.40031 | 10.24312 | 152° | 38km/h | 29878m | 6.8m/s | -44.9°C | 2.8% | 12.7hPa | 2.5V | 08:30:00 | 01:51:45 | 00:00:00 | |
| DK7TD | 2026-09-06 00:21:05 | 48.40023 | 10.24319 | 151° | 35km/h | 29884m | 5.7m/s | -45°C | 0% | 12.7hPa | 2.6V | 18:12:15 | 01:51:46 | 00:00:00 | |
| DO3MHA-11 | 2026-09-06 00:21:05 | 48.40023 | 10.24319 | 152° | 37km/h | 29884m | 5.6m/s | -44.9°C | 2.8% | 12.6hPa | 2.6V | 00:00:00 | 01:51:46 | 00:00:00 | |
| DJ2DS-15 | 2026-09-06 00:21:04 | 48.40031 | 10.24312 | 153° | 37km/h | 29878m | 6.7m/s | -44.9°C | 2.8% | 12.7hPa | 2.5V | 00:00:00 | 01:51:45 | 00:00:00 | |
| DL1ZP-14 | 2026-09-06 00:21:03 | 48.40049 | 10.24297 | 149° | 40km/h | 29866m | 4.9m/s | -44.8°C | 0.7% | 12.7hPa | 2.5V | 00:00:00 | 00:00:00 | 00:00:00 | |
| SONDE2-11 | 2026-09-06 00:20:57 | 48.40089 | 10.24248 | 124° | 35km/h | 29830m | 6.9m/s | -44.7°C | 0.7% | 12.8hPa | 2.6V | 00:00:00 | 00:00:00 | 00:00:00 | |
| DM0DOS-11 | 2026-09-06 00:20:56 | 48.40094 | 10.24236 | 122° | 40km/h | 29824m | 5.2m/s | -44.7°C | 2.8% | 12.8hPa | 2.6V | 08:30:00 | 01:51:36 | 00:00:00 | |
| DL1XH1-15 | 2026-09-06 00:20:56 | 48.40099 | 10.24224 | 124° | 40km/h | 29819m | 4.8m/s | -44.7°C | 2.7% | 12.8hPa | 2.5V | 08:30:00 | 01:51:35 | 00:00:00 | |
| DK7TD | 2026-09-06 00:20:53 | 48.40105 | 10.24212 | 129° | 38km/h | 29814m | 6.5m/s | -44.7°C | 0% | 12.8hPa | 2.5V | 18:12:15 | 01:51:34 | 00:00:00 | |
| DC4HF-4 | 2026-09-06 00:20:51 | 48.40118 | 10.24194 | 142° | 33km/h | 29802m | 5.6m/s | -44.7°C | 0.7% | 12.9hPa | 2.6V | 00:00:00 | 00:00:00 | 00:00:00 | |
| DO3MHA-12 | 2026-09-06 00:20:50 | 48.40124 | 10.24186 | 147° | 38km/h | 29796m | 5.2m/s | -44.6°C | 2.7% | 12.8hPa | 2.6V | 00:00:00 | 01:51:31 | 00:00:00 | |
| OE5MMP-10 | 2026-09-06 00:20:49 | 48.40132 | 10.24179 | 147° | 38km/h | 29791m | 5.8m/s | -44.7°C | 2.7% | 12.8hPa | 2.6V | 00:00:00 | 01:51:30 | 00:00:00 | |
| DM0DOS-11 | 2026-09-06 00:20:46 | 48.40164 | 10.24142 | 141° | 40km/h | 29767m | 5.4m/s | -44.8°C | 2.8% | 12.9hPa | 2.6V | 08:30:00 | 01:51:26 | 00:00:00 | |
| DK7TD | 2026-09-06 00:20:42 | 48.40194 | 10.24110 | 144° | 37km/h | 29743m | 6.2m/s | -44.8°C | 0% | 12.9hPa | 2.5V | 18:12:15 | 01:51:22 | 00:00:00 | |
| DJ2DS-15 | 2026-09-06 00:20:41 | 48.40202 | 10.24101 | 138° | 37km/h | 29737m | 6.8m/s | -44.9°C | 0.7% | 13.0hPa | 2.6V | 00:00:00 | 00:00:00 | 00:00:00 | |
| DB0NH | 2026-09-06 00:20:40 | 48.40201 | 10.24101 | 139° | 35km/h | 29737m | 6.8m/s | -44.8°C | 2.8% | 12.9hPa | 2.6V | 00:00:00 | 01:51:21 | 00:00:00 | |
| OE5MMP-10 | 2026-09-06 00:20:39 | 48.40208 | 10.24091 | 135° | 38km/h | 29731m | 5.8m/s | -44.8°C | 2.8% | 12.9hPa | 2.6V | 00:00:00 | 01:51:20 | 00:00:00 | |
| DJ8HS-15 | 2026-09-06 00:20:38 | 48.40216 | 10.24080 | 135° | 37km/h | 29725m | 5.1m/s | -44.9°C | 2.8% | 12.9hPa | 2.6V | 00:00:00 | 01:51:19 | 00:00:00 | |
| BAUMI2-15 | 2026-09-06 00:20:37 | 48.40223 | 10.24070 | 136° | 37km/h | 29720m | 6.1m/s | -44.9°C | 2.8% | 12.9hPa | 2.6V | 00:00:00 | 01:51:18 | 00:00:00 | |
| DL1XH1-15 | 2026-09-06 00:20:36 | 48.40243 | 10.24043 | 138° | 35km/h | 29701m | 5.6m/s | -44.9°C | 2.8% | 13.1hPa | 2.6V | 08:30:00 | 01:51:15 | 00:00:00 | |
| DM0DOS-11 | 2026-09-06 00:20:36 | 48.40236 | 10.24052 | 139° | 35km/h | 29706m | 5.9m/s | -44.9°C | 2.8% | 13hPa | 2.5V | 08:30:00 | 01:51:16 | 00:00:00 | |
| BIOWL1-15 | 2026-09-06 00:20:30 | 48.40290 | 10.23977 | 140° | 33km/h | 29660m | 5m/s | -45°C | 0% | 13.1hPa | 2.5V | 18:12:15 | 01:51:08 | 00:00:00 | |
| DK7TD | 2026-09-06 00:20:29 | 48.40277 | 10.23993 | 139° | 35km/h | 29672m | 6.9m/s | -45°C | 0% | 13.1hPa | 2.6V | 18:12:15 | 01:51:10 | 00:00:00 | |
| OE5DRO-10 | 2026-09-06 00:20:29 | 48.40277 | 10.23992 | 139° | 33km/h | 29672m | 6.9m/s | -44.9°C | 2.8% | 13.0hPa | 2.5V | 00:00:00 | 00:00:00 | 00:00:00 | |
| DL6DJ-15 | 2026-09-06 00:20:28 | 48.40283 | 10.23984 | 141° | 31km/h | 29666m | 5.8m/s | -45.0°C | 0.7% | 13.1hPa | 2.5V | 00:00:00 | 00:00:00 | 00:00:00 | |
| BAUMI2-15 | 2026-09-06 00:20:27 | 48.40290 | 10.23977 | 141° | 35km/h | 29660m | 5.0m/s | -45.0°C | 2.8% | 13.1hPa | 2.5V | 00:00:00 | 01:51:08 | 00:00:00 | |
| DL1XH1-15 | 2026-09-06 00:20:26 | 48.40308 | 10.23949 | 132° | 38km/h | 29642m | 5.5m/s | -45°C | 2.8% | 13.2hPa | 2.5V | 08:30:00 | 01:51:05 | 00:00:00 | |
| DM0DOS-11 | 2026-09-06 00:20:26 | 48.40302 | 10.23959 | 133° | 37km/h | 29648m | 6.1m/s | -45°C | 2.8% | 13.1hPa | 2.5V | 08:30:00 | 01:51:06 | 00:00:00 | |
| SONDE2-11 | 2026-09-06 00:20:26 | 48.40302 | 10.23959 | 133° | 35km/h | 29648m | 6.1m/s | -45.1°C | 0.7% | 13.1hPa | 2.5V | 00:00:00 | 00:00:00 | 00:00:00 | |
| DO3MHA-11 | 2026-09-06 00:20:25 | 48.40302 | 10.23959 | 134° | 35km/h | 29648m | 6.1m/s | -45.0°C | 2.8% | 13.1hPa | 2.5V | 00:00:00 | 01:51:06 | 00:00:00 | |
| DJ2DS-15 | 2026-09-06 00:20:24 | 48.40308 | 10.23949 | 133° | 33km/h | 29642m | 5.4m/s | -45.0°C | 2.8% | 13.1hPa | 2.5V | 00:00:00 | 01:51:05 | 00:00:00 | |
| DO9HM | 2026-09-06 00:20:23 | 48.40308 | 10.23949 | 134° | 38km/h | 29642m | 5.5m/s | -45.1°C | 0.7% | 13.2hPa | 2.5V | 00:00:00 | 00:00:00 | 00:00:00 | |
| BAUMI2-15 | 2026-09-06 00:20:22 | 48.40322 | 10.23929 | 140° | 33km/h | 29631m | 6.7m/s | -45.0°C | 2.8% | 13.1hPa | 2.5V | 00:00:00 | 01:51:03 | 00:00:00 | |
| OE5WHR-10 | 2026-09-06 00:20:21 | 48.40329 | 10.23921 | 145° | 31km/h | 29624m | 6.0m/s | -45.0°C | 2.8% | 13.1hPa | 2.5V | 00:00:00 | 00:00:00 | 00:00:00 | |
| DO3MHA-12 | 2026-09-06 00:20:20 | 48.40336 | 10.23914 | 146° | 33km/h | 29619m | 4.9m/s | -45.0°C | 2.8% | 13.1hPa | 2.5V | 00:00:00 | 01:51:01 | 00:00:00 | |
| OE5MMP-10 | 2026-09-06 00:20:19 | 48.40342 | 10.23907 | 142° | 33km/h | 29614m | 4.9m/s | -45.0°C | 2.8% | 13.1hPa | 2.5V | 00:00:00 | 01:51:00 | 00:00:00 | |
| DJ8HS-15 | 2026-09-06 00:20:18 | 48.40348 | 10.23899 | 137° | 31km/h | 29608m | 6.7m/s | -45.0°C | 2.8% | 13.2hPa | 2.5V | 00:00:00 | 01:50:59 | 00:00:00 | |
| DM0DOS-11 | 2026-09-06 00:20:16 | 48.40366 | 10.23867 | 127° | 35km/h | 29590m | 4.8m/s | -45.1°C | 2.8% | 13.3hPa | 2.5V | 08:30:00 | 01:50:56 | 00:00:00 | |
| DK7TD | 2026-09-06 00:20:16 | 48.40360 | 10.23878 | 127° | 37km/h | 29595m | 5.2m/s | -45.1°C | 0% | 13.3hPa | 2.5V | 18:12:15 | 01:50:57 | 00:00:00 | |
| DL1XH1-15 | 2026-09-06 00:20:16 | 48.40371 | 10.23858 | 132° | 33km/h | 29584m | 6.7m/s | -45.1°C | 2.8% | 13.3hPa | 2.5V | 08:30:00 | 01:50:55 | 00:00:00 | |
| PETON7-10 | 2026-09-06 00:20:16 | 48.40360 | 10.23878 | 127° | 31km/h | 29596m | 5.2m/s | -45.0°C | 2.8% | 13.2hPa | 2.5V | 00:00:00 | 00:00:00 | 08:30:00 | |
| DO3MHA-11 | 2026-09-06 00:20:15 | 48.40366 | 10.23867 | 128° | 31km/h | 29591m | 4.8m/s | -45.1°C | 2.8% | 13.2hPa | 2.5V | 00:00:00 | 01:50:56 | 00:00:00 | |
| SONCRA | 2026-09-06 00:20:13 | 48.40377 | 10.23849 | 138° | 29km/h | 29578m | 6.1m/s | -45.2°C | 0.7% | 13.3hPa | 2.5V | 00:00:00 | 00:00:00 | 00:00:00 | |
| DF7PN | 2026-09-06 00:20:12 | 48.40388 | 10.23836 | 142° | 29km/h | 29567m | 5.7m/s | -45.2°C | 0.7% | 13.3hPa | 2.5V | 00:00:00 | 00:00:00 | 00:00:00 | |
| DO3MHA-12 | 2026-09-06 00:20:10 | 48.40394 | 10.23829 | 140° | 31km/h | 29561m | 6.6m/s | -45.2°C | 2.8% | 13.3hPa | 2.5V | 00:00:00 | 01:50:51 | 00:00:00 | |
| OE5MMP-10 | 2026-09-06 00:20:09 | 48.40400 | 10.23820 | 138° | 31km/h | 29555m | 5.4m/s | -45.2°C | 2.8% | 13.3hPa | 2.5V | 00:00:00 | 01:50:50 | 00:00:00 | |
| DM0DOS-11 | 2026-09-06 00:20:06 | 48.40425 | 10.23791 | 148° | 29km/h | 29531m | 5.1m/s | -45.3°C | 2.8% | 13.4hPa | 2.5V | 08:30:00 | 01:50:46 | 00:00:00 | |
| DL1XH1-15 | 2026-09-06 00:20:06 | 48.40432 | 10.23784 | 143° | 29km/h | 29526m | 4.7m/s | -45.3°C | 2.8% | 13.4hPa | 2.5V | 08:30:00 | 01:50:45 | 00:00:00 | |
| DK7TD | 2026-09-06 00:20:05 | 48.40426 | 10.23791 | 149° | 29km/h | 29531m | 5.1m/s | -45.3°C | 0% | 13.4hPa | 2.5V | 18:12:15 | 01:50:46 | 00:00:00 | |
| BIOWL1-15 | 2026-09-06 00:20:01 | 48.40448 | 10.23759 | 126° | 31km/h | 29508m | 5.4m/s | -45.4°C | 0% | 13.4hPa | 2.6V | 18:12:15 | 01:50:42 | 00:00:00 | |
| PETON7-10 | 2026-09-06 00:20:01 | 48.40448 | 10.23759 | 127° | 31km/h | 29509m | 5.4m/s | -45.3°C | 2.8% | 13.4hPa | 2.5V | 00:00:00 | 00:00:00 | 00:00:00 | |
| OE5WHR-10 | 2026-09-06 00:20:00 | 48.40453 | 10.23750 | 128° | 33km/h | 29503m | 5.9m/s | -45.3°C | 2.8% | 13.4hPa | 2.5V | 00:00:00 | 00:00:00 | 00:00:00 | |
| OE5MMP-10 | 2026-09-06 00:19:59 | 48.40457 | 10.23741 | 132° | 31km/h | 29497m | 6.3m/s | -45.4°C | 2.8% | 13.4hPa | 2.5V | 00:00:00 | 01:50:40 | 00:00:00 | |
| DJ8HS-15 | 2026-09-06 00:19:58 | 48.40462 | 10.23733 | 135° | 33km/h | 29491m | 5.1m/s | -45.4°C | 2.8% | 13.4hPa | 2.5V | 00:00:00 | 01:50:39 | 00:00:00 | |
| BAUMI2-15 | 2026-09-06 00:19:57 | 48.40467 | 10.23726 | 134° | 31km/h | 29486m | 4.5m/s | -45.4°C | 2.8% | 13.4hPa | 2.5V | 00:00:00 | 01:50:38 | 00:00:00 | |
| DL1XH1-15 | 2026-09-06 00:19:56 | 48.40482 | 10.23699 | 128° | 33km/h | 29468m | 5.2m/s | -45.5°C | 0% | 13.5hPa | 2.5V | 08:30:00 | 01:50:35 | 00:00:00 | |
| DK7TD | 2026-09-06 00:19:55 | 48.40476 | 10.23709 | 127° | 31km/h | 29474m | 6.3m/s | -45.5°C | 0% | 13.5hPa | 2.6V | 18:12:15 | 01:50:36 | 00:00:00 | |
| SONDE2-11 | 2026-09-06 00:19:55 | 48.40481 | 10.23700 | 128° | 33km/h | 29469m | 5.2m/s | -45.5°C | 0.7% | 13.5hPa | 2.6V | 00:00:00 | 00:00:00 | 00:00:00 | |
| BAUMI2-15 | 2026-09-06 00:19:52 | 48.40493 | 10.23681 | 141° | 35km/h | 29458m | 6.6m/s | -45.5°C | 2.8% | 13.5hPa | 2.6V | 00:00:00 | 01:50:33 | 00:00:00 | |
| DK5PH-5 | 2026-09-06 00:19:51 | 48.40500 | 10.23673 | 146° | 35km/h | 29451m | 5.7m/s | -45.5°C | 2.8% | 13.5hPa | 2.6V | 00:00:00 | 01:50:32 | 00:00:00 | |
| DO3MHA-12 | 2026-09-06 00:19:50 | 48.40507 | 10.23666 | 147° | 35km/h | 29446m | 5.0m/s | -45.5°C | 2.8% | 13.5hPa | 2.6V | 00:00:00 | 01:50:31 | 00:00:00 | |
| OE5MMP-10 | 2026-09-06 00:19:49 | 48.40514 | 10.23658 | 142° | 35km/h | 29441m | 5.8m/s | -45.6°C | 2.8% | 13.5hPa | 2.6V | 00:00:00 | 01:50:30 | 00:00:00 | |
| DM0DOS-11 | 2026-09-06 00:19:46 | 48.40538 | 10.23615 | 121° | 35km/h | 29416m | 6.4m/s | -45.8°C | 2.8% | 13.6hPa | 2.6V | 08:30:00 | 01:50:26 | 00:00:00 | |
| DK7TD | 2026-09-06 00:19:44 | 48.40542 | 10.23604 | 121° | 33km/h | 29410m | 5.9m/s | -45.8°C | 0% | 13.6hPa | 2.6V | 18:12:15 | 01:50:25 | 00:00:00 | |
| BIOWL1-15 | 2026-09-06 00:19:44 | 48.40556 | 10.23558 | 111° | 37km/h | 29387m | 5.6m/s | -45.8°C | 0% | 13.7hPa | 2.6V | 18:12:15 | 01:50:21 | 00:00:00 | |
| DJ2DS-15 | 2026-09-06 00:19:44 | 48.40542 | 10.23604 | 121° | 35km/h | 29410m | 5.9m/s | -45.7°C | 2.8% | 13.6hPa | 2.6V | 00:00:00 | 01:50:25 | 00:00:00 | |
| DO9HM | 2026-09-06 00:19:42 | 48.40550 | 10.23582 | 117° | 33km/h | 29400m | 5.3m/s | -45.8°C | 0.7% | 13.7hPa | 2.6V | 00:00:00 | 00:00:00 | 00:00:00 | |
| DO3MHA-12 | 2026-09-06 00:19:40 | 48.40556 | 10.23558 | 111° | 37km/h | 29388m | 5.5m/s | -45.8°C | 2.8% | 13.6hPa | 2.6V | 00:00:00 | 01:50:21 | 08:30:00 | |
| OE5WHR-10 | 2026-09-06 00:19:39 | 48.40560 | 10.23545 | 114° | 35km/h | 29382m | 5.0m/s | -45.8°C | 2.8% | 13.6hPa | 2.5V | 00:00:00 | 01:50:20 | 00:00:00 | |
| DJ8HS-15 | 2026-09-06 00:19:38 | 48.40564 | 10.23533 | 121° | 35km/h | 29377m | 5.6m/s | -45.8°C | 2.8% | 13.7hPa | 2.5V | 00:00:00 | 01:50:19 | 00:00:00 | |
| DF9NV-10 | 2026-09-06 00:19:37 | 48.40564 | 10.23533 | 121° | 35km/h | 29377m | 5.6m/s | -45.9°C | 0.7% | 13.7hPa | 2.5V | 00:00:00 | 00:00:00 | 00:00:00 | |
| DM0DOS-11 | 2026-09-06 00:19:36 | 48.40581 | 10.23505 | 141° | 35km/h | 29359m | 4.4m/s | -46°C | 2.9% | 13.7hPa | 2.5V | 08:30:00 | 01:50:16 | 00:00:00 | |
| DK7TD | 2026-09-06 00:19:34 | 48.40588 | 10.23497 | 138° | 37km/h | 29354m | 5.2m/s | -46.1°C | 0% | 13.8hPa | 2.6V | 18:12:15 | 01:50:15 | 00:00:00 | |
| BAUMI2-15 | 2026-09-06 00:19:32 | 48.40601 | 10.23475 | 123° | 37km/h | 29342m | 5.9m/s | -46.1°C | 2.9% | 13.7hPa | 2.5V | 00:00:00 | 01:50:13 | 00:00:00 | |
| PETON7-10 | 2026-09-06 00:19:31 | 48.40606 | 10.23461 | 116° | 35km/h | 29337m | 5.5m/s | -46.1°C | 2.9% | 13.7hPa | 2.5V | 00:00:00 | 00:00:00 | 00:00:00 | |
| DO3MHA-12 | 2026-09-06 00:19:30 | 48.40609 | 10.23447 | 110° | 35km/h | 29331m | 5.8m/s | -46.2°C | 2.9% | 13.7hPa | 2.6V | 00:00:00 | 01:50:11 | 00:00:00 | |
| OE5MMP-10 | 2026-09-06 00:19:29 | 48.40612 | 10.23434 | 105° | 33km/h | 29325m | 6.6m/s | -46.2°C | 2.9% | 13.8hPa | 2.6V | 00:00:00 | 01:50:10 | 00:00:00 | |
| DJ2DS-15 | 2026-09-06 00:19:28 | 48.40614 | 10.23422 | 97° | 29km/h | 29318m | 5.7m/s | -46.2°C | 0.8% | 13.8hPa | 2.5V | 00:00:00 | 00:00:00 | 00:00:00 | |
| DM0DOS-11 | 2026-09-06 00:19:26 | 48.40616 | 10.23386 | 97° | 35km/h | 29301m | 6.3m/s | -46.2°C | 2.9% | 13.8hPa | 2.5V | 08:30:00 | 01:50:06 | 00:00:00 | |
| BIOWL1-15 | 2026-09-06 00:19:26 | 48.40615 | 10.23398 | 95° | 31km/h | 29307m | 5.8m/s | -46.2°C | 0% | 13.9hPa | 2.5V | 18:12:15 | 01:50:07 | 00:00:00 | |
| DK7TD | 2026-09-06 00:19:23 | 48.40620 | 10.23360 | 110° | 37km/h | 29291m | 4.9m/s | -46.3°C | 0% | 13.9hPa | 2.6V | 18:12:15 | 01:50:04 | 00:00:00 | |
| DK5PH-5 | 2026-09-06 00:19:21 | 48.40628 | 10.23336 | 124° | 33km/h | 29278m | 6.3m/s | -46.3°C | 2.9% | 13.8hPa | 2.5V | 00:00:00 | 01:50:02 | 00:00:00 | |
| DO3MHA-12 | 2026-09-06 00:19:20 | 48.40633 | 10.23326 | 127° | 35km/h | 29273m | 4.9m/s | -46.3°C | 2.9% | 13.9hPa | 2.5V | 00:00:00 | 01:50:01 | 00:00:00 | |
| OE5MMP-10 | 2026-09-06 00:19:19 | 48.40638 | 10.23316 | 125° | 35km/h | 29268m | 4.4m/s | -46.4°C | 2.9% | 13.9hPa | 2.5V | 00:00:00 | 01:50:00 | 00:00:00 | |
| DF9NV-10 | 2026-09-06 00:19:17 | 48.40642 | 10.23305 | 121° | 37km/h | 29263m | 6.4m/s | -46.5°C | 0.8% | 13.9hPa | 2.5V | 00:00:00 | 00:00:00 | 00:00:00 | |
| DM0DOS-11 | 2026-09-06 00:19:16 | 48.40653 | 10.23263 | 103° | 40km/h | 29246m | 5m/s | -46.6°C | 3% | 14hPa | 2.5V | 08:30:00 | 01:49:56 | 00:00:00 | |
| BIOWL1-15 | 2026-09-06 00:19:15 | 48.40655 | 10.23249 | 102° | 37km/h | 29240m | 6.5m/s | -46.7°C | 0% | 14hPa | 2.5V | 18:12:15 | 01:49:55 | 00:00:00 | |
| DK7TD | 2026-09-06 00:19:13 | 48.40657 | 10.23236 | 102° | 33km/h | 29233m | 6.3m/s | -46.7°C | 0% | 14hPa | 2.5V | 18:12:15 | 01:49:54 | 00:00:00 | |
| OE5DRO-10 | 2026-09-06 00:19:13 | 48.40657 | 10.23236 | 102° | 29km/h | 29234m | 6.2m/s | -46.7°C | 3.0% | 14.0hPa | 2.5V | 00:00:00 | 00:00:00 | 00:00:00 | |
| SONCRA | 2026-09-06 00:19:11 | 48.40662 | 10.23202 | 100° | 31km/h | 29217m | 6.5m/s | -46.7°C | 0.8% | 14.0hPa | 2.5V | 00:00:00 | 00:00:00 | 00:00:00 | |
| DM0DOS-11 | 2026-09-06 00:19:10 | 48.40673 | 10.23137 | 112° | 29km/h | 29187m | 6.4m/s | -47°C | 3.1% | 14.1hPa | 2.5V | 08:30:00 | 01:49:46 | 00:00:00 | |
| DO3MHA-12 | 2026-09-06 00:19:10 | 48.40662 | 10.23201 | 101° | 31km/h | 29217m | 6.4m/s | -46.7°C | 3.0% | 14.0hPa | 2.5V | 00:00:00 | 01:49:51 | 00:00:00 | |
| OE5MMP-10 | 2026-09-06 00:19:09 | 48.40663 | 10.23189 | 102° | 31km/h | 29211m | 6.2m/s | -46.7°C | 3.0% | 14.0hPa | 2.6V | 00:00:00 | 01:49:50 | 00:00:00 | |
| DF1GD-15 | 2026-09-06 00:19:08 | 48.40664 | 10.23189 | 102° | 37km/h | 29211m | 6.2m/s | -46.8°C | 0.8% | 14.1hPa | 2.6V | 00:00:00 | 00:00:00 | 00:00:00 | |
| DB0UT-7 | 2026-09-06 00:19:06 | 48.40671 | 10.23148 | 110° | 26km/h | 29194m | 6.6m/s | -46.9°C | 3.1% | 14.0hPa | 2.6V | 00:00:00 | 00:00:00 | 00:00:00 | |
| DL1XH1-15 | 2026-09-06 00:19:05 | 48.40678 | 10.23117 | 102° | 26km/h | 29176m | 5.1m/s | -47°C | 0% | 14.1hPa | 2.5V | 08:30:00 | 01:49:44 | 00:00:00 | |
| DK7TD | 2026-09-06 00:19:02 | 48.40679 | 10.23107 | 94° | 27km/h | 29170m | 6.9m/s | -47°C | 0.1% | 14.1hPa | 2.5V | 18:12:15 | 01:49:43 | 00:00:00 | |
| PETON7-10 | 2026-09-06 00:19:01 | 48.40679 | 10.23096 | 85° | 26km/h | 29164m | 5.8m/s | -47.0°C | 3.1% | 14.1hPa | 2.6V | 00:00:00 | 01:49:42 | 00:00:00 | |
| DO3MHA-12 | 2026-09-06 00:19:00 | 48.40677 | 10.23085 | 78° | 29km/h | 29159m | 5.7m/s | -47.0°C | 3.1% | 14.1hPa | 2.6V | 00:00:00 | 01:49:41 | 00:00:00 | |
| DM0DOS-11 | 2026-09-06 00:18:59 | 48.40672 | 10.23038 | 95° | 27km/h | 29130m | 5.6m/s | -47°C | 3.1% | 14.2hPa | 2.6V | 08:30:00 | 01:49:36 | 00:00:00 | |
| OE5MMP-10 | 2026-09-06 00:18:59 | 48.40676 | 10.23075 | 74° | 29km/h | 29153m | 6.3m/s | -47.0°C | 3.1% | 14.1hPa | 2.5V | 00:00:00 | 01:49:40 | 08:30:00 | |
| DJ8HS-15 | 2026-09-06 00:18:58 | 48.40674 | 10.23065 | 72° | 26km/h | 29146m | 6.8m/s | -47.0°C | 3.1% | 14.1hPa | 2.5V | 00:00:00 | 01:49:39 | 00:00:00 | |
| OE5WHR-10 | 2026-09-06 00:18:56 | 48.40671 | 10.23048 | 87° | 26km/h | 29136m | 4.3m/s | -46.9°C | 3.1% | 14.2hPa | 2.5V | 00:00:00 | 00:00:00 | 00:00:00 | |
| DO3MHA-11 | 2026-09-06 00:18:55 | 48.40671 | 10.23038 | 96° | 26km/h | 29131m | 5.6m/s | -46.9°C | 3.1% | 14.2hPa | 2.5V | 00:00:00 | 01:49:36 | 00:00:00 | |
| OE5DRO-10 | 2026-09-06 00:18:54 | 48.40673 | 10.23027 | 101° | 26km/h | 29124m | 7.1m/s | -46.9°C | 3.1% | 14.2hPa | 2.5V | 00:00:00 | 00:00:00 | 00:00:00 | |
| DL1XH1-15 | 2026-09-06 00:18:53 | 48.40684 | 10.22977 | 116° | 29km/h | 29101m | 6.8m/s | -46.8°C | 0% | 14.3hPa | 2.6V | 08:30:00 | 01:49:31 | 00:00:00 | |
| DK7TD | 2026-09-06 00:18:52 | 48.40677 | 10.23001 | 110° | 38km/h | 29112m | 4.8m/s | -46.9°C | 0.1% | 14.3hPa | 2.5V | 18:12:15 | 01:49:33 | 00:00:00 | |
| DK5PH-5 | 2026-09-06 00:18:51 | 48.40681 | 10.22988 | 114° | 24km/h | 29107m | 5.1m/s | -46.8°C | 3.0% | 14.2hPa | 2.6V | 00:00:00 | 01:49:32 | 00:00:00 | |
| DO3MHA-12 | 2026-09-06 00:18:50 | 48.40684 | 10.22977 | 117° | 22km/h | 29101m | 6.7m/s | -46.8°C | 3.0% | 14.2hPa | 2.6V | 00:00:00 | 01:49:31 | 00:00:00 | |
| DM0DOS-11 | 2026-09-06 00:18:49 | 48.40688 | 10.22945 | 71° | 20km/h | 29071m | 6.4m/s | -46.8°C | 3.1% | 14.3hPa | 2.6V | 08:30:00 | 01:49:26 | 00:00:00 | |
| DK7TD | 2026-09-06 00:18:42 | 48.40683 | 10.22919 | 82° | 24km/h | 29054m | 6.8m/s | -46.9°C | 0% | 14.4hPa | 2.5V | 18:12:15 | 01:49:23 | 00:00:00 | |
| PG1ADW-2 | 2026-09-06 00:18:42 | 48.40683 | 10.22919 | 82° | 29km/h | 29054m | 6.7m/s | -46.8°C | 3.0% | 14.3hPa | 2.5V | 00:00:00 | 00:00:00 | 00:00:00 | |
| DO9HM | 2026-09-06 00:18:41 | 48.40683 | 10.22919 | 82° | 24km/h | 29054m | 6.8m/s | -46.9°C | 0.8% | 14.4hPa | 2.5V | 00:00:00 | 00:00:00 | 00:00:00 | |
| DO3MHA-12 | 2026-09-06 00:18:40 | 48.40684 | 10.22901 | 102° | 22km/h | 29042m | 5.2m/s | -46.8°C | 3.1% | 14.4hPa | 2.5V | 00:00:00 | 01:49:21 | 00:00:00 | |
| DM0DOS-11 | 2026-09-06 00:18:39 | 48.40693 | 10.22843 | 101° | 18km/h | 29005m | 7.2m/s | -47°C | 3.1% | 14.5hPa | 2.6V | 08:30:00 | 01:49:15 | 00:00:00 | |
| BIOWL1-15 | 2026-09-06 00:18:32 | 48.40697 | 10.22800 | 106° | 27km/h | 28971m | 5.1m/s | -47°C | 0.1% | 14.6hPa | 2.6V | 18:12:15 | 01:49:09 | 00:00:00 | |
| DK7TD | 2026-09-06 00:18:31 | 48.40694 | 10.22826 | 92° | 16km/h | 28988m | 6.7m/s | -47°C | 0% | 14.6hPa | 2.5V | 18:12:15 | 01:49:12 | 00:00:00 | |
| PETON7-10 | 2026-09-06 00:18:31 | 48.40694 | 10.22826 | 93° | 27km/h | 28988m | 6.6m/s | -46.9°C | 3.1% | 14.5hPa | 2.5V | 00:00:00 | 00:00:00 | 00:00:00 | |
| DO3MHA-12 | 2026-09-06 00:18:30 | 48.40695 | 10.22819 | 97° | 27km/h | 28982m | 6.0m/s | -46.9°C | 3.1% | 14.5hPa | 2.5V | 00:00:00 | 01:49:11 | 00:00:00 | |
| DM0DOS-11 | 2026-09-06 00:18:29 | 48.40709 | 10.22763 | 116° | 26km/h | 28947m | 4.5m/s | -46.9°C | 3.1% | 14.6hPa | 2.5V | 08:30:00 | 01:49:05 | 00:00:00 | |
| DK7TD | 2026-09-06 00:18:21 | 48.40713 | 10.22731 | 86° | 33km/h | 28929m | 6.5m/s | -46.8°C | 0.1% | 14.7hPa | 2.5V | 18:12:15 | 01:49:02 | 00:00:00 | |
| BIOWL1-15 | 2026-09-06 00:18:20 | 48.40712 | 10.22719 | 81° | 33km/h | 28923m | 5.5m/s | -46.8°C | 0.1% | 14.7hPa | 2.5V | 18:12:15 | 01:49:01 | 00:00:00 | |
| DK7TD | 2026-09-06 00:18:10 | 48.40722 | 10.22599 | 91° | 37km/h | 28862m | 7m/s | -46.7°C | 0% | 14.8hPa | 2.5V | 18:12:15 | 01:48:51 | 00:00:00 | |
| DO3MHA-12 | 2026-09-06 00:18:10 | 48.40722 | 10.22599 | 91° | 35km/h | 28863m | 6.9m/s | -46.6°C | 3.0% | 14.7hPa | 2.5V | 00:00:00 | 01:48:51 | 08:30:00 | |
| OE5MMP-10 | 2026-09-06 00:18:09 | 48.40721 | 10.22586 | 86° | 35km/h | 28856m | 6.5m/s | -46.6°C | 3.0% | 14.8hPa | 2.6V | 00:00:00 | 01:48:50 | 00:00:00 | |
| DF1GD-15 | 2026-09-06 00:18:08 | 48.40721 | 10.22586 | 86° | 33km/h | 28856m | 6.5m/s | -46.7°C | 0.8% | 14.8hPa | 2.6V | 00:00:00 | 00:00:00 | 00:00:00 | |
| DF7PN | 2026-09-06 00:18:07 | 48.40719 | 10.22562 | 74° | 31km/h | 28844m | 6.1m/s | -46.7°C | 0.8% | 14.9hPa | 2.6V | 00:00:00 | 00:00:00 | 00:00:00 | |
| DB0UT-7 | 2026-09-06 00:18:06 | 48.40716 | 10.22550 | 76° | 38km/h | 28837m | 7.0m/s | -46.7°C | 3.0% | 14.8hPa | 2.6V | 00:00:00 | 00:00:00 | 00:00:00 | |
| DO3MHA-11 | 2026-09-06 00:18:05 | 48.40714 | 10.22537 | 80° | 38km/h | 28831m | 6.1m/s | -46.7°C | 3.0% | 14.8hPa | 2.6V | 00:00:00 | 01:48:46 | 00:00:00 | |
| DJ2DS-15 | 2026-09-06 00:18:04 | 48.40713 | 10.22523 | 86° | 38km/h | 28825m | 5.4m/s | -46.8°C | 3.0% | 14.8hPa | 2.6V | 00:00:00 | 01:48:45 | 00:00:00 | |
| PETON7-10 | 2026-09-06 00:18:01 | 48.40715 | 10.22485 | 103° | 42km/h | 28806m | 5.3m/s | -46.9°C | 3.1% | 14.9hPa | 2.6V | 00:00:00 | 00:00:00 | 08:30:00 | |
| DO3MHA-12 | 2026-09-06 00:18:00 | 48.40717 | 10.22473 | 103° | 42km/h | 28801m | 5.0m/s | -46.9°C | 3.1% | 14.9hPa | 2.6V | 00:00:00 | 01:48:41 | 00:00:00 | |
| IW2NTF | 2026-09-06 00:17:59 | 48.40715 | 10.22389 | 74° | 46km/h | 28769m | 7.2m/s | -46.9°C | 3.1% | 15hPa | 2.6V | 08:30:00 | 01:48:36 | 00:00:00 | |
| BIOWL1-15 | 2026-09-06 00:17:59 | 48.40719 | 10.22458 | 98° | 40km/h | 28795m | 6.8m/s | -46.9°C | 0.1% | 15hPa | 2.5V | 18:12:15 | 01:48:40 | 00:00:00 | |
| OE5MMP-10 | 2026-09-06 00:17:59 | 48.40719 | 10.22458 | 99° | 42km/h | 28795m | 6.7m/s | -46.8°C | 3.1% | 14.9hPa | 2.5V | 00:00:00 | 01:48:40 | 00:00:00 | |
| DJ8HS-15 | 2026-09-06 00:17:58 | 48.40719 | 10.22442 | 92° | 42km/h | 28789m | 6.5m/s | -46.8°C | 3.1% | 14.9hPa | 2.6V | 00:00:00 | 01:48:39 | 00:00:00 | |
| DM0DOS-11 | 2026-09-06 00:17:57 | 48.40712 | 10.22373 | 69° | 42km/h | 28762m | 6.8m/s | -46.9°C | 3.1% | 15hPa | 2.6V | 08:30:00 | 01:48:35 | 00:00:00 | |
| DK7TD | 2026-09-06 00:17:49 | 48.40700 | 10.22300 | 91° | 42km/h | 28732m | 5.6m/s | -46.8°C | 0.1% | 15.1hPa | 2.6V | 18:12:15 | 01:48:30 | 00:00:00 | |
| OE5MMP-10 | 2026-09-06 00:17:49 | 48.40700 | 10.22300 | 92° | 40km/h | 28733m | 5.6m/s | -46.8°C | 3.1% | 15.1hPa | 2.5V | 00:00:00 | 01:48:30 | 00:00:00 | |
| IW2NTF | 2026-09-06 00:17:48 | 48.40705 | 10.22241 | 96° | 37km/h | 28709m | 5.1m/s | -46.8°C | 3.1% | 15.2hPa | 2.5V | 08:30:00 | 01:48:26 | 00:00:00 | |
| DM0DOS-11 | 2026-09-06 00:17:47 | 48.40705 | 10.22227 | 93° | 38km/h | 28703m | 6.3m/s | -46.8°C | 3.1% | 15.2hPa | 2.6V | 08:30:00 | 01:48:25 | 00:00:00 | |
| DK7TD | 2026-09-06 00:17:38 | 48.40693 | 10.22140 | 62° | 33km/h | 28665m | 6.1m/s | -46.6°C | 0% | 15.3hPa | 2.6V | 18:12:15 | 01:48:19 | 00:00:00 | |
| AZAK | 2026-09-06 00:17:38 | 48.40693 | 10.22140 | 63° | 33km/h | 28666m | 6.1m/s | -46.6°C | 0.8% | 15.3hPa | 2.5V | 00:00:00 | 00:00:00 | 00:00:00 | |
| DM0DOS-11 | 2026-09-06 00:17:37 | 48.40681 | 10.22094 | 80° | 31km/h | 28641m | 4.7m/s | -46.5°C | 3% | 15.3hPa | 2.5V | 08:30:00 | 01:48:15 | 00:00:00 | |
| IW2NTF | 2026-09-06 00:17:36 | 48.40683 | 10.22106 | 74° | 33km/h | 28646m | 5.5m/s | -46.5°C | 3% | 15.3hPa | 2.5V | 08:30:00 | 01:48:16 | 00:00:00 | |
| DB0UT-7 | 2026-09-06 00:17:36 | 48.40686 | 10.22118 | 67° | 27km/h | 28653m | 6.9m/s | -46.4°C | 3.0% | 15.3hPa | 2.5V | 00:00:00 | 01:48:17 | 08:30:00 | |
| DO3MHA-11 | 2026-09-06 00:17:35 | 48.40683 | 10.22106 | 75° | 31km/h | 28647m | 5.4m/s | -46.4°C | 3.0% | 15.3hPa | 2.5V | 00:00:00 | 01:48:16 | 08:30:00 | |
| PETON7-10 | 2026-09-06 00:17:31 | 48.40680 | 10.22063 | 91° | 29km/h | 28622m | 6.3m/s | -46.4°C | 3.0% | 15.3hPa | 2.5V | 00:00:00 | 01:48:12 | 00:00:00 | |
| DO3MHA-12 | 2026-09-06 00:17:30 | 48.40680 | 10.22054 | 91° | 33km/h | 28616m | 5.6m/s | -46.4°C | 3.0% | 15.4hPa | 2.5V | 00:00:00 | 01:48:11 | 00:00:00 | |
| IW2NTF | 2026-09-06 00:17:29 | 48.40672 | 10.21992 | 63° | 37km/h | 28586m | 6m/s | -46.3°C | 3% | 15.5hPa | 2.5V | 08:30:00 | 01:48:06 | 00:00:00 | |
| BIOWL1-15 | 2026-09-06 00:17:27 | 48.40678 | 10.22020 | 79° | 37km/h | 28597m | 5.8m/s | -46.3°C | 0% | 15.4hPa | 2.6V | 18:12:15 | 01:48:08 | 00:00:00 | |
| DK7TD | 2026-09-06 00:17:26 | 48.40676 | 10.22006 | 72° | 38km/h | 28592m | 5.1m/s | -46.3°C | 0% | 15.4hPa | 2.5V | 18:12:15 | 01:48:07 | 00:00:00 | |
| DM0DOS-11 | 2026-09-06 00:17:26 | 48.40668 | 10.21981 | 54° | 35km/h | 28580m | 7.4m/s | -46.3°C | 3% | 15.5hPa | 2.5V | 08:30:00 | 01:48:05 | 00:00:00 | |
| BIOWL1-15 | 2026-09-06 00:17:18 | 48.40635 | 10.21917 | 78° | 22km/h | 28531m | 7.2m/s | -46.3°C | 0% | 15.6hPa | 2.6V | 18:12:15 | 01:47:57 | 00:00:00 | |
| DJ8HS-15 | 2026-09-06 00:17:18 | 48.40638 | 10.21934 | 68° | 22km/h | 28544m | 5.6m/s | -46.3°C | 3.0% | 15.5hPa | 2.5V | 00:00:00 | 01:47:59 | 00:00:00 | |
| DM0DOS-11 | 2026-09-06 00:17:16 | 48.40632 | 10.21902 | 72° | 22km/h | 28519m | 5.3m/s | -46.3°C | 3% | 15.6hPa | 2.5V | 08:30:00 | 01:47:55 | 00:00:00 | |
| PETON7-10 | 2026-09-06 00:17:16 | 48.40635 | 10.21917 | 78° | 22km/h | 28532m | 7.1m/s | -46.2°C | 3.0% | 15.5hPa | 2.6V | 00:00:00 | 00:00:00 | 00:00:00 | |
| DO3MHA-11 | 2026-09-06 00:17:15 | 48.40634 | 10.21909 | 78° | 24km/h | 28525m | 6.1m/s | -46.2°C | 3.0% | 15.6hPa | 2.6V | 00:00:00 | 01:47:56 | 00:00:00 | |
| DM7RM-13 | 2026-09-06 00:17:14 | 48.40634 | 10.21909 | 78° | 20km/h | 28525m | 6.2m/s | -46.3°C | 0.8% | 15.6hPa | 2.6V | 00:00:00 | 00:00:00 | 00:00:00 | |
| PG1ADW-2 | 2026-09-06 00:17:13 | 48.40630 | 10.21893 | 72° | 20km/h | 28513m | 6.5m/s | -46.2°C | 3.0% | 15.6hPa | 2.6V | 00:00:00 | 00:00:00 | 00:00:00 | |
| DO3MHA-12 | 2026-09-06 00:17:10 | 48.40621 | 10.21866 | 54° | 22km/h | 28495m | 5.1m/s | -46.2°C | 3.0% | 15.6hPa | 2.6V | 00:00:00 | 01:47:51 | 00:00:00 | |
| OE5MMP-10 | 2026-09-06 00:17:09 | 48.40617 | 10.21858 | 43° | 20km/h | 28490m | 6.9m/s | -46.2°C | 3.0% | 15.7hPa | 2.5V | 00:00:00 | 01:47:50 | 00:00:00 | |
| OE5WHR-10 | 2026-09-06 00:17:08 | 48.40612 | 10.21853 | 27° | 13km/h | 28483m | 6.7m/s | -46.2°C | 3.0% | 15.6hPa | 2.5V | 00:00:00 | 00:00:00 | 00:00:00 | |
| IW2NTF | 2026-09-06 00:17:07 | 48.40590 | 10.21839 | 48° | 22km/h | 28453m | 6m/s | -46.3°C | 3% | 15.8hPa | 2.5V | 08:30:00 | 01:47:44 | 00:00:00 | |
| DK7TD | 2026-09-06 00:17:07 | 48.40608 | 10.21851 | 13° | 20km/h | 28476m | 5.4m/s | -46.3°C | 0% | 15.7hPa | 2.5V | 18:12:15 | 01:47:48 | 00:00:00 | |
| DM0DOS-11 | 2026-09-06 00:17:06 | 48.40594 | 10.21844 | 34° | 20km/h | 28459m | 6.6m/s | -46.3°C | 3% | 15.7hPa | 2.5V | 08:30:00 | 01:47:45 | 00:00:00 | |
| BIOWL1-15 | 2026-09-06 00:17:00 | 48.40582 | 10.21820 | 64° | 16km/h | 28434m | 7m/s | -46.2°C | 0.1% | 15.8hPa | 2.6V | 18:12:15 | 01:47:41 | 00:00:00 | |
| DB0ND-19 | 2026-09-06 00:16:59 | 48.40581 | 10.21815 | 58° | 11km/h | 28428m | 5.9m/s | -46.2°C | 0.8% | 15.8hPa | 2.6V | 00:00:00 | 00:00:00 | 00:00:00 | |
| DF3TZ-5 | 2026-09-06 00:16:57 | 48.40576 | 10.21808 | 37° | 13km/h | 28417m | 5.8m/s | -46.2°C | 0.8% | 15.8hPa | 2.6V | 00:00:00 | 00:00:00 | 00:00:00 | |
| DM0DOS-11 | 2026-09-06 00:16:56 | 48.40565 | 10.21796 | 35° | 20km/h | 28399m | 5.3m/s | -46.3°C | 3% | 15.9hPa | 2.6V | 08:30:00 | 01:47:35 | 00:00:00 | |
| DK7TD | 2026-09-06 00:16:56 | 48.40573 | 10.21805 | 38° | 16km/h | 28410m | 6.8m/s | -46.3°C | 0% | 15.9hPa | 2.5V | 18:12:15 | 01:47:37 | 00:00:00 | |
| IW2NTF | 2026-09-06 00:16:54 | 48.40562 | 10.21792 | 30° | 16km/h | 28392m | 6.7m/s | -46.3°C | 3% | 15.9hPa | 2.5V | 08:30:00 | 01:47:34 | 00:00:00 | |
| DL1ZP-14 | 2026-09-06 00:16:49 | 48.40552 | 10.21787 | 20° | 7km/h | 28367m | 7.0m/s | -46.4°C | 0.8% | 16.0hPa | 2.6V | 00:00:00 | 00:00:00 | 00:00:00 | |
| SONDE2-11 | 2026-09-06 00:16:48 | 48.40550 | 10.21786 | 22° | 7km/h | 28361m | 5.6m/s | -46.3°C | 0.8% | 16.0hPa | 2.6V | 00:00:00 | 00:00:00 | 00:00:00 | |
| IW2NTF | 2026-09-06 00:16:47 | 48.40541 | 10.21791 | 328° | 13km/h | 28331m | 5m/s | -46.3°C | 3% | 16.1hPa | 2.6V | 08:30:00 | 01:47:24 | 00:00:00 | |
| DM0DOS-11 | 2026-09-06 00:16:47 | 48.40543 | 10.21789 | 317° | 11km/h | 28336m | 5.4m/s | -46.3°C | 3% | 16.1hPa | 2.6V | 08:30:00 | 01:47:25 | 00:00:00 | |
| DK7TD | 2026-09-06 00:16:45 | 48.40545 | 10.21786 | 319° | 7km/h | 28342m | 6.9m/s | -46.3°C | 0% | 16hPa | 2.5V | 18:12:15 | 01:47:26 | 00:00:00 | |
| BIOWL1-15 | 2026-09-06 00:16:36 | 48.40516 | 10.21793 | 351° | 9km/h | 28289m | 5.6m/s | -46.4°C | 0% | 16.1hPa | 2.5V | 18:12:15 | 01:47:17 | 00:00:00 | |
| DK7TD | 2026-09-06 00:16:35 | 48.40513 | 10.21793 | 358° | 9km/h | 28282m | 6.9m/s | -46.4°C | 0.1% | 16.2hPa | 2.5V | 18:12:15 | 01:47:16 | 00:00:00 | |
| IW2NTF | 2026-09-06 00:16:34 | 48.40509 | 10.21793 | 358° | 7km/h | 28271m | 5.6m/s | -46.3°C | 3% | 16.2hPa | 2.6V | 08:30:00 | 01:47:14 | 00:00:00 | |
| DF7PN | 2026-09-06 00:16:34 | 48.40511 | 10.21793 | 4° | 7km/h | 28276m | 5.7m/s | -46.4°C | 0.8% | 16.2hPa | 2.5V | 00:00:00 | 00:00:00 | 00:00:00 | |
| PG1ADW-2 | 2026-09-06 00:16:33 | 48.40509 | 10.21793 | 359° | 7km/h | 28271m | 5.5m/s | -46.3°C | 3.0% | 16.2hPa | 2.5V | 00:00:00 | 00:00:00 | 00:00:00 | |
| PETON7-10 | 2026-09-06 00:16:31 | 48.40507 | 10.21794 | 274° | 7km/h | 28258m | 6.5m/s | 0°C | 0% | 0hPa | 2.5V | 00:00:00 | 00:00:00 | 00:00:00 | |
| DO3MHA-12 | 2026-09-06 00:16:30 | 48.40508 | 10.21795 | 245° | 9km/h | 28253m | 4.6m/s | -46.3°C | 3.1% | 16.2hPa | 2.5V | 00:00:00 | 01:47:11 | 00:00:00 | |
| OE5MMP-10 | 2026-09-06 00:16:29 | 48.40508 | 10.21796 | 234° | 11km/h | 28248m | 4.1m/s | -46.3°C | 3.0% | 16.2hPa | 2.5V | 00:00:00 | 01:47:10 | 00:00:00 | |
| DB0ND-19 | 2026-09-06 00:16:28 | 48.40508 | 10.21796 | 43° | 2km/h | 28243m | 6.0m/s | -46.3°C | 0.8% | 16.3hPa | 2.5V | 00:00:00 | 00:00:00 | 00:00:00 | |
| DM0DOS-11 | 2026-09-06 00:16:26 | 48.40494 | 10.21785 | 2° | 13km/h | 28212m | 6.4m/s | -46.3°C | 3% | 16.4hPa | 2.5V | 08:30:00 | 01:47:04 | 00:00:00 | |
| OE5DXL-15 | 2026-09-06 00:16:26 | 48.40504 | 10.21792 | 37° | 13km/h | 28230m | 6.2m/s | -46.2°C | 3.0% | 16.3hPa | 2.5V | 00:00:00 | 00:00:00 | 00:00:00 | |
| DL1XH1-15 | 2026-09-06 00:16:25 | 48.40486 | 10.21786 | 10° | 9km/h | 28194m | 6.9m/s | -46.2°C | 0% | 16.4hPa | 2.5V | 08:30:00 | 01:47:01 | 00:00:00 | |
| BIOWL1-15 | 2026-09-06 00:16:25 | 48.40501 | 10.21789 | 28° | 16km/h | 28224m | 5.3m/s | -46.3°C | 0.1% | 16.4hPa | 2.5V | 18:12:15 | 01:47:06 | 00:00:00 | |
| DK7TD | 2026-09-06 00:16:24 | 48.40497 | 10.21786 | 17° | 16km/h | 28218m | 6.7m/s | -46.3°C | 0.1% | 16.4hPa | 2.5V | 18:12:15 | 01:47:05 | 00:00:00 | |
| OE5DRO-10 | 2026-09-06 00:16:22 | 48.40490 | 10.21785 | 355° | 13km/h | 28206m | 5.2m/s | -46.2°C | 3.0% | 16.3hPa | 2.6V | 00:00:00 | 00:00:00 | 00:00:00 | |
| DK5PH-5 | 2026-09-06 00:16:21 | 48.40488 | 10.21786 | 357° | 15km/h | 28201m | 6.1m/s | -46.2°C | 3.1% | 16.4hPa | 2.6V | 00:00:00 | 01:47:02 | 00:00:00 | |
| DO3MHA-12 | 2026-09-06 00:16:20 | 48.40486 | 10.21786 | 11° | 11km/h | 28194m | 6.8m/s | -46.2°C | 3.0% | 16.3hPa | 2.5V | 00:00:00 | 01:47:01 | 00:00:00 | |
| OE5MMP-10 | 2026-09-06 00:16:19 | 48.40484 | 10.21785 | 21° | 13km/h | 28188m | 5.7m/s | -46.2°C | 3.0% | 16.4hPa | 2.5V | 00:00:00 | 01:47:00 | 00:00:00 | |
| DL1ZP-14 | 2026-09-06 00:16:18 | 48.40481 | 10.21784 | 358° | 2km/h | 28175m | 6.9m/s | -46.2°C | 0.8% | 16.4hPa | 2.5V | 00:00:00 | 00:00:00 | 00:00:00 | |
| SONDE2-11 | 2026-09-06 00:16:17 | 48.40481 | 10.21784 | 358° | 2km/h | 28175m | 6.9m/s | -46.2°C | 0.8% | 16.4hPa | 2.5V | 00:00:00 | 00:00:00 | 00:00:00 | |
| PETON7-10 | 2026-09-06 00:16:16 | 48.40480 | 10.21784 | 355° | 15km/h | 28170m | 5.3m/s | 0°C | 0% | 0hPa | 2.5V | 00:00:00 | 00:00:00 | 00:00:00 | |
| AZAK | 2026-09-06 00:16:15 | 48.40480 | 10.21784 | 356° | 5km/h | 28170m | 5.3m/s | -46.2°C | 0.8% | 16.5hPa | 2.5V | 00:00:00 | 00:00:00 | 00:00:00 | |
| IW2NTF | 2026-09-06 00:16:14 | 48.40472 | 10.21779 | 29° | 18km/h | 28152m | 6.6m/s | -46.1°C | 3% | 16.5hPa | 2.5V | 08:30:00 | 01:46:54 | 00:00:00 | |
| DK7TD | 2026-09-06 00:16:13 | 48.40473 | 10.21779 | 30° | 18km/h | 28152m | 6.6m/s | -46.1°C | 0% | 16.5hPa | 2.5V | 18:12:15 | 01:46:54 | 00:00:00 | |
| PG1ADW-2 | 2026-09-06 00:16:13 | 48.40473 | 10.21779 | 30° | 16km/h | 28152m | 6.6m/s | -46.0°C | 3.0% | 16.5hPa | 2.6V | 00:00:00 | 01:46:54 | 00:00:00 | |
| DJ2DS-15 | 2026-09-06 00:16:11 | 48.40462 | 10.21771 | 25° | 15km/h | 28141m | 5.3m/s | -46.0°C | 3.0% | 16.5hPa | 2.6V | 00:00:00 | 01:46:52 | 00:00:00 | |
| DO3MHA-12 | 2026-09-06 00:16:10 | 48.40457 | 10.21768 | 18° | 13km/h | 28135m | 6.6m/s | -45.9°C | 3.0% | 16.5hPa | 2.6V | 00:00:00 | 01:46:51 | 00:00:00 | |
| DO9LL-15 | 2026-09-06 00:16:09 | 48.40453 | 10.21767 | 7° | 16km/h | 28129m | 5.8m/s | -45.9°C | 3.0% | 16.5hPa | 2.5V | 00:00:00 | 01:46:50 | 00:00:00 | |
| BAUMI2-15 | 2026-09-06 00:16:08 | 48.40448 | 10.21767 | 358° | 11km/h | 28123m | 5.2m/s | -45.9°C | 3.0% | 16.5hPa | 2.5V | 00:00:00 | 01:46:49 | 00:00:00 | |
| DM0DOS-11 | 2026-09-06 00:16:06 | 48.40435 | 10.21764 | 10° | 7km/h | 28093m | 6.4m/s | -45.8°C | 2.9% | 16.7hPa | 2.5V | 08:30:00 | 01:46:44 | 00:00:00 | |
| DB0UT-7 | 2026-09-06 00:16:06 | 48.40442 | 10.21767 | 8° | 16km/h | 28111m | 6.8m/s | -45.8°C | 2.9% | 16.6hPa | 2.5V | 00:00:00 | 00:00:00 | 00:00:00 | |
| DO3MHA-11 | 2026-09-06 00:16:05 | 48.40439 | 10.21766 | 18° | 16km/h | 28105m | 5.6m/s | -45.8°C | 3.0% | 16.6hPa | 2.6V | 00:00:00 | 01:46:46 | 08:30:00 | |
| SONCRA | 2026-09-06 00:16:04 | 48.40437 | 10.21765 | 19° | 7km/h | 28100m | 5.4m/s | -45.8°C | 0.8% | 16.6hPa | 2.5V | 00:00:00 | 00:00:00 | 00:00:00 | |
| DC4HF-4 | 2026-09-06 00:16:03 | 48.40433 | 10.21764 | 353° | 7km/h | 28087m | 6.0m/s | -45.8°C | 0.8% | 16.7hPa | 2.5V | 00:00:00 | 00:00:00 | 00:00:00 | |
| DL1XH1-15 | 2026-09-06 00:16:02 | 48.40412 | 10.21755 | 37° | 27km/h | 28060m | 5.3m/s | -45.7°C | 0% | 16.7hPa | 2.5V | 08:30:00 | 01:46:38 | 00:00:00 | |
| DK7TD | 2026-09-06 00:16:02 | 48.40433 | 10.21764 | 353° | 7km/h | 28087m | 6m/s | -45.8°C | 0% | 16.7hPa | 2.5V | 18:12:15 | 01:46:43 | 00:00:00 | |
| BIOWL1-15 | 2026-09-06 00:15:57 | 48.40412 | 10.21755 | 38° | 27km/h | 28060m | 5.3m/s | -45.7°C | 0% | 16.7hPa | 2.5V | 18:12:15 | 01:46:38 | 00:00:00 | |
| DB0ND-19 | 2026-09-06 00:15:57 | 48.40407 | 10.21748 | 40° | 26km/h | 28056m | 4.4m/s | -45.7°C | 0.8% | 16.8hPa | 2.6V | 00:00:00 | 00:00:00 | 00:00:00 | |
| DF3TZ-5 | 2026-09-06 00:15:55 | 48.40402 | 10.21742 | 38° | 22km/h | 28051m | 5.2m/s | -45.7°C | 0.7% | 16.8hPa | 2.6V | 00:00:00 | 00:00:00 | 00:00:00 | |
| IW2NTF | 2026-09-06 00:15:54 | 48.40394 | 10.21735 | 9° | 13km/h | 28039m | 6m/s | -45.7°C | 2.9% | 16.8hPa | 2.6V | 08:30:00 | 01:46:34 | 00:00:00 | |
| PG1ADW-2 | 2026-09-06 00:15:53 | 48.40394 | 10.21735 | 10° | 16km/h | 28039m | 6.0m/s | -45.7°C | 2.9% | 16.7hPa | 2.6V | 00:00:00 | 00:00:00 | 00:00:00 | |
| DL1XH1-15 | 2026-09-06 00:15:52 | 48.40376 | 10.21734 | 34° | 15km/h | 28005m | 5.9m/s | -45.9°C | 0% | 16.9hPa | 2.6V | 08:30:00 | 01:46:28 | 00:00:00 | |
| DK7TD | 2026-09-06 00:15:52 | 48.40391 | 10.21736 | 345° | 11km/h | 28033m | 5.1m/s | -45.7°C | 0% | 16.8hPa | 2.5V | 18:12:15 | 01:46:33 | 00:00:00 | |
| DL6DJ-15 | 2026-09-06 00:15:49 | 48.40379 | 10.21737 | 25° | 13km/h | 28011m | 5.7m/s | -45.9°C | 0.8% | 16.9hPa | 2.5V | 00:00:00 | 00:00:00 | 00:00:00 | |
| DL1ZP-14 | 2026-09-06 00:15:47 | 48.40373 | 10.21731 | 35° | 13km/h | 27999m | 6.6m/s | -45.9°C | 0.8% | 16.9hPa | 2.5V | 00:00:00 | 00:00:00 | 00:00:00 | |
| DM0DOS-11 | 2026-09-06 00:15:46 | 48.40364 | 10.21722 | 31° | 16km/h | 27983m | 5m/s | -45.9°C | 2.9% | 16.9hPa | 2.6V | 08:30:00 | 01:46:24 | 00:00:00 | |
| DO3MHA-11 | 2026-09-06 00:15:45 | 48.40370 | 10.21728 | 35° | 18km/h | 27993m | 5.8m/s | -45.9°C | 2.9% | 16.9hPa | 2.6V | 00:00:00 | 01:46:26 | 00:00:00 | |
| OE5DRO-10 | 2026-09-06 00:15:44 | 48.40367 | 10.21725 | 32° | 22km/h | 27988m | 4.4m/s | -45.9°C | 3.0% | 16.9hPa | 2.6V | 00:00:00 | 00:00:00 | 00:00:00 | |
| BAUMI2-15 | 2026-09-06 00:15:43 | 48.40364 | 10.21722 | 32° | 22km/h | 27983m | 4.9m/s | -45.9°C | 2.9% | 16.9hPa | 2.6V | 00:00:00 | 01:46:24 | 00:00:00 | |
| DL1XH1-15 | 2026-09-06 00:15:42 | 48.40336 | 10.21702 | 5° | 16km/h | 27947m | 5m/s | 0°C | 0% | 0hPa | 2.6V | 08:30:00 | 01:46:18 | 00:00:00 | |
| DK7TD | 2026-09-06 00:15:40 | 48.40350 | 10.21709 | 29° | 24km/h | 27965m | 5.3m/s | -45.9°C | 0% | 17hPa | 2.5V | 18:12:15 | 01:46:21 | 00:00:00 | |
| DO3MHA-12 | 2026-09-06 00:15:40 | 48.40350 | 10.21709 | 29° | 22km/h | 27965m | 5.3m/s | -45.9°C | 3.0% | 16.9hPa | 2.5V | 00:00:00 | 01:46:21 | 00:00:00 | |
| OE5MMP-10 | 2026-09-06 00:15:39 | 48.40345 | 10.21706 | 23° | 22km/h | 27959m | 6.4m/s | -45.9°C | 2.9% | 17.0hPa | 2.5V | 00:00:00 | 01:46:20 | 00:00:00 | |
| DJ8HS-15 | 2026-09-06 00:15:38 | 48.40340 | 10.21703 | 14° | 24km/h | 27953m | 6.3m/s | -45.9°C | 3.0% | 17.0hPa | 2.5V | 00:00:00 | 01:46:19 | 08:30:00 | |
| DO9HM | 2026-09-06 00:15:37 | 48.40336 | 10.21702 | 6° | 16km/h | 27947m | 5.0m/s | -45.9°C | 0.8% | 17.0hPa | 2.5V | 00:00:00 | 00:00:00 | 00:00:00 | |
| DB0UT-7 | 2026-09-06 00:15:36 | 48.40332 | 10.21701 | 8° | 24km/h | 27942m | 5.1m/s | -45.8°C | 2.9% | 17.0hPa | 2.5V | 00:00:00 | 01:46:17 | 00:00:00 | |
| IW2NTF | 2026-09-06 00:15:34 | 48.40317 | 10.21694 | 29° | 26km/h | 27924m | 5.1m/s | -45.8°C | 2.9% | 17.1hPa | 2.5V | 08:30:00 | 01:46:14 | 00:00:00 | |
| PG1ADW-2 | 2026-09-06 00:15:33 | 48.40317 | 10.21693 | 30° | 24km/h | 27925m | 5.1m/s | -45.8°C | 2.9% | 17.1hPa | 2.5V | 00:00:00 | 00:00:00 | 00:00:00 | |
| DL1XH1-15 | 2026-09-06 00:15:32 | 48.40285 | 10.21669 | 23° | 27km/h | 27893m | 6m/s | 0°C | 0% | 0hPa | 2.5V | 00:00:00 | 01:46:08 | 00:00:00 | |
| DK7TD | 2026-09-06 00:15:30 | 48.40301 | 10.21679 | 29° | 22km/h | 27907m | 5.7m/s | -45.8°C | 0% | 17.2hPa | 2.6V | 18:12:15 | 01:46:11 | 00:00:00 | |
| DO3MHA-12 | 2026-09-06 00:15:30 | 48.40301 | 10.21679 | 29° | 27km/h | 27907m | 5.6m/s | -45.8°C | 2.9% | 17.1hPa | 2.5V | 00:00:00 | 01:46:11 | 00:00:00 | |
| DJ2DS-15 | 2026-09-06 00:15:29 | 48.40297 | 10.21676 | 25° | 26km/h | 27902m | 4.2m/s | -45.8°C | 2.9% | 17.1hPa | 2.5V | 00:00:00 | 01:46:10 | 00:00:00 | |
| BAUMI2-15 | 2026-09-06 00:15:28 | 48.40291 | 10.21672 | 23° | 26km/h | 27898m | 4.1m/s | -45.8°C | 2.9% | 17.1hPa | 2.5V | 00:00:00 | 01:46:09 | 08:30:00 | |
| DC4HF-4 | 2026-09-06 00:15:27 | 48.40279 | 10.21664 | 25° | 31km/h | 27887m | 6.4m/s | -45.9°C | 0.7% | 17.2hPa | 2.5V | 00:00:00 | 00:00:00 | 00:00:00 | |
| OE5DXL-15 | 2026-09-06 00:15:26 | 48.40279 | 10.21664 | 26° | 20km/h | 27887m | 6.3m/s | -45.8°C | 2.9% | 17.1hPa | 2.5V | 00:00:00 | 00:00:00 | 00:00:00 | |
| IW2NTF | 2026-09-06 00:15:23 | 48.40256 | 10.21647 | 23° | 31km/h | 27871m | 4.6m/s | -45.9°C | 2.9% | 17.2hPa | 2.5V | 08:30:00 | 01:46:04 | 00:00:00 | |
| DL1XH1-15 | 2026-09-06 00:15:22 | 48.40223 | 10.21643 | 355° | 18km/h | 27830m | 5m/s | 0°C | 0% | 0hPa | 2.5V | 00:00:00 | 01:45:57 | 00:00:00 | |
| BIOWL1-15 | 2026-09-06 00:15:19 | 48.40223 | 10.21643 | 355° | 18km/h | 27830m | 5m/s | -46.2°C | 0% | 17.3hPa | 2.5V | 18:12:15 | 01:45:57 | 00:00:00 | |
| DK7TD | 2026-09-06 00:15:19 | 48.40235 | 10.21641 | 351° | 15km/h | 27846m | 6.5m/s | -46.1°C | 0% | 17.3hPa | 2.6V | 18:12:15 | 01:46:00 | 00:00:00 | |
| OE5MMP-10 | 2026-09-06 00:15:19 | 48.40235 | 10.21641 | 352° | 24km/h | 27847m | 6.4m/s | -46.0°C | 2.9% | 17.2hPa | 2.6V | 00:00:00 | 01:46:00 | 00:00:00 | |
| DJ8HS-15 | 2026-09-06 00:15:18 | 48.40231 | 10.21642 | 355° | 20km/h | 27840m | 5.4m/s | -46.1°C | 2.9% | 17.3hPa | 2.6V | 00:00:00 | 01:45:59 | 00:00:00 | |
| DL1ZP-14 | 2026-09-06 00:15:17 | 48.40218 | 10.21644 | 353° | 18km/h | 27824m | 6.7m/s | -46.2°C | 0.7% | 17.3hPa | 2.6V | 00:00:00 | 00:00:00 | 00:00:00 | |
| SONDE2-11 | 2026-09-06 00:15:16 | 48.40218 | 10.21644 | 353° | 18km/h | 27824m | 6.7m/s | -46.2°C | 0.7% | 17.3hPa | 2.5V | 00:00:00 | 00:00:00 | 00:00:00 | |
| DO3MHA-11 | 2026-09-06 00:15:15 | 48.40218 | 10.21643 | 354° | 26km/h | 27824m | 6.6m/s | -46.1°C | 2.9% | 17.3hPa | 2.5V | 00:00:00 | 01:45:56 | 00:00:00 | |
| OE5WHR-10 | 2026-09-06 00:15:14 | 48.40212 | 10.21644 | 357° | 20km/h | 27818m | 5.6m/s | -46.2°C | 2.9% | 17.3hPa | 2.5V | 00:00:00 | 01:45:55 | 00:00:00 | |
| DL1XH1-15 | 2026-09-06 00:15:11 | 48.40159 | 10.21627 | 336° | 16km/h | 27775m | 5.4m/s | 0°C | 0% | 0hPa | 2.5V | 00:00:00 | 01:45:47 | 00:00:00 | |
| DK7TD | 2026-09-06 00:15:09 | 48.40175 | 10.21630 | 20° | 31km/h | 27792m | 4.4m/s | -46.5°C | 0% | 17.4hPa | 2.6V | 18:12:15 | 01:45:50 | 00:00:00 | |
| BIOWL1-15 | 2026-09-06 00:15:08 | 48.40163 | 10.21626 | 357° | 18km/h | 27781m | 6m/s | -46.6°C | 0% | 17.4hPa | 2.5V | 18:12:15 | 01:45:48 | 00:00:00 | |
| BIOWL1-15 | 2026-09-06 00:14:58 | 48.40139 | 10.21635 | 36° | 9km/h | 27733m | 4.3m/s | -46.7°C | 0% | 17.6hPa | 2.6V | 18:12:15 | 01:45:39 | 00:00:00 | |
| DJ8HS-15 | 2026-09-06 00:14:58 | 48.40139 | 10.21635 | 36° | 15km/h | 27733m | 4.2m/s | -46.6°C | 3.0% | 17.5hPa | 2.5V | 00:00:00 | 01:45:39 | 00:00:00 | |
| OE5DXL-15 | 2026-09-06 00:14:56 | 48.40132 | 10.21631 | 16° | 15km/h | 27722m | 6.3m/s | -46.7°C | 3.0% | 17.6hPa | 2.5V | 00:00:00 | 00:00:00 | 00:00:00 | |
| IW2NTF | 2026-09-06 00:14:55 | 48.40116 | 10.21632 | 336° | 20km/h | 27707m | 5.3m/s | -46.8°C | 3.1% | 17.7hPa | 2.5V | 08:30:00 | 01:45:34 | 00:00:00 | |
| DK7TD | 2026-09-06 00:14:48 | 48.40112 | 10.21660 | 246° | 15km/h | 27677m | 5.7m/s | -46.7°C | 0.1% | 17.8hPa | 2.5V | 18:12:15 | 01:45:29 | 00:00:00 | |
| OE5DRO-10 | 2026-09-06 00:14:47 | 48.40114 | 10.21664 | 242° | 15km/h | 27672m | 4.8m/s | -46.6°C | 3.0% | 17.7hPa | 2.5V | 00:00:00 | 00:00:00 | 00:00:00 | |
| DM0DOS-11 | 2026-09-06 00:14:46 | 48.40119 | 10.21674 | 245° | 4km/h | 27650m | 5m/s | -46.6°C | 3% | 17.8hPa | 2.5V | 08:30:00 | 01:45:24 | 00:00:00 | |
| BIOWL1-15 | 2026-09-06 00:14:42 | 48.40117 | 10.21676 | 349° | 9km/h | 27639m | 6.5m/s | -46.7°C | 0% | 17.8hPa | 2.6V | 18:12:15 | 01:45:22 | 00:00:00 | |
| DK7TD | 2026-09-06 00:14:37 | 48.40109 | 10.21688 | 261° | 16km/h | 27618m | 6.3m/s | -46.9°C | 0% | 17.9hPa | 2.5V | 18:12:15 | 01:45:18 | 00:00:00 | |
| DM0DOS-11 | 2026-09-06 00:14:36 | 48.40123 | 10.21718 | 229° | 26km/h | 27595m | 5.6m/s | -47°C | 2.9% | 18hPa | 2.5V | 08:30:00 | 01:45:14 | 00:00:00 | |
| DB0UT-7 | 2026-09-06 00:14:36 | 48.40110 | 10.21694 | 241° | 15km/h | 27612m | 5.8m/s | -46.9°C | 2.9% | 17.9hPa | 2.5V | 00:00:00 | 01:45:17 | 00:00:00 | |
| DO3MHA-11 | 2026-09-06 00:14:35 | 48.40114 | 10.21702 | 233° | 16km/h | 27607m | 5.0m/s | -46.9°C | 2.9% | 17.9hPa | 2.6V | 00:00:00 | 01:45:16 | 08:30:00 | |
| AZAK | 2026-09-06 00:14:33 | 48.40118 | 10.21710 | 232° | 27km/h | 27601m | 6.2m/s | -47.0°C | 0.8% | 18.0hPa | 2.6V | 00:00:00 | 00:00:00 | 00:00:00 | |
| SONCRA | 2026-09-06 00:14:31 | 48.40130 | 10.21730 | 218° | 18km/h | 27584m | 5.7m/s | -47.2°C | 0.8% | 18.0hPa | 2.6V | 00:00:00 | 00:00:00 | 00:00:00 | |
| DO3MHA-12 | 2026-09-06 00:14:30 | 48.40134 | 10.21734 | 209° | 9km/h | 27578m | 6.2m/s | -47.3°C | 3.0% | 18.0hPa | 2.6V | 00:00:00 | 01:45:11 | 00:00:00 | |
| OE5MMP-10 | 2026-09-06 00:14:29 | 48.40137 | 10.21736 | 201° | 9km/h | 27573m | 4.7m/s | -47.3°C | 3.0% | 18.0hPa | 2.6V | 00:00:00 | 01:45:10 | 08:30:00 | |
| OE5DRO-10 | 2026-09-06 00:14:28 | 48.40140 | 10.21738 | 198° | 13km/h | 27568m | 4.4m/s | -47.4°C | 3.0% | 18.0hPa | 2.6V | 00:00:00 | 00:00:00 | 00:00:00 | |
| DM0DOS-11 | 2026-09-06 00:14:26 | 48.40137 | 10.21744 | 265° | 7km/h | 27539m | 6.2m/s | -47.6°C | 3% | 18.1hPa | 2.6V | 08:30:00 | 01:45:04 | 00:00:00 | |
| DK7TD | 2026-09-06 00:14:26 | 48.40140 | 10.21739 | 339° | 5km/h | 27555m | 6.3m/s | -47.5°C | 0% | 18.1hPa | 2.5V | 18:12:15 | 01:45:07 | 00:00:00 | |
| DK7TD | 2026-09-06 00:14:15 | 48.40154 | 10.21778 | 215° | 18km/h | 27496m | 6.2m/s | -48.1°C | 0.1% | 18.3hPa | 2.5V | 18:12:15 | 01:44:56 | 00:00:00 | |
| IW2NTF | 2026-09-06 00:14:14 | 48.40162 | 10.21784 | 197° | 16km/h | 27485m | 5.1m/s | -48.1°C | 3.2% | 18.3hPa | 2.6V | 08:30:00 | 01:44:54 | 00:00:00 | |
| SONDE2-11 | 2026-09-06 00:14:13 | 48.40162 | 10.21784 | 197° | 16km/h | 27485m | 5.1m/s | -48.1°C | 0.8% | 18.3hPa | 2.5V | 00:00:00 | 00:00:00 | 00:00:00 | |
| AZAK | 2026-09-06 00:14:12 | 48.40162 | 10.21784 | 199° | 16km/h | 27485m | 5.1m/s | -48.1°C | 0.8% | 18.3hPa | 2.5V | 00:00:00 | 00:00:00 | 00:00:00 | |
| DB0NH | 2026-09-06 00:14:10 | 48.40172 | 10.21786 | 184° | 15km/h | 27469m | 4.8m/s | -48.1°C | 3.2% | 18.3hPa | 2.5V | 00:00:00 | 01:44:51 | 00:00:00 | |
| DJ2DS-15 | 2026-09-06 00:14:09 | 48.40175 | 10.21787 | 182° | 16km/h | 27464m | 5.3m/s | 0°C | 0% | 0hPa | 2.5V | 00:00:00 | 01:44:50 | 00:00:00 | |
| DM7RM-13 | 2026-09-06 00:14:08 | 48.40175 | 10.21787 | 183° | 15km/h | 27464m | 5.3m/s | -48.2°C | 0.9% | 18.3hPa | 2.5V | 00:00:00 | 00:00:00 | 00:00:00 | |
| DM0DOS-11 | 2026-09-06 00:14:06 | 48.40204 | 10.21784 | 176° | 11km/h | 27430m | 5.7m/s | -48.4°C | 3.2% | 18.4hPa | 2.5V | 08:30:00 | 01:44:44 | 00:00:00 | |
| DK7TD | 2026-09-06 00:14:05 | 48.40196 | 10.21785 | 172° | 20km/h | 27442m | 5.3m/s | -48.3°C | 0.1% | 18.4hPa | 2.5V | 18:12:15 | 01:44:46 | 00:00:00 | |
| DO3MHA-11 | 2026-09-06 00:14:05 | 48.40196 | 10.21785 | 173° | 15km/h | 27442m | 5.3m/s | -48.2°C | 3.2% | 18.4hPa | 2.5V | 00:00:00 | 01:44:46 | 00:00:00 | |
| DF9NV-10 | 2026-09-06 00:14:04 | 48.40196 | 10.21785 | 173° | 20km/h | 27442m | 5.3m/s | -48.3°C | 0.9% | 18.4hPa | 2.5V | 00:00:00 | 00:00:00 | 00:00:00 | |
| DF1GD-15 | 2026-09-06 00:14:02 | 48.40204 | 10.21784 | 178° | 11km/h | 27431m | 5.7m/s | -48.4°C | 0.8% | 18.4hPa | 2.5V | 00:00:00 | 00:00:00 | 00:00:00 | |
| SONCRA | 2026-09-06 00:14:00 | 48.40212 | 10.21785 | 192° | 13km/h | 27413m | 6.5m/s | -48.5°C | 0.8% | 18.5hPa | 2.5V | 00:00:00 | 00:00:00 | 00:00:00 | |
| DF7PN | 2026-09-06 00:13:59 | 48.40220 | 10.21787 | 185° | 16km/h | 27403m | 4.5m/s | -48.4°C | 0.8% | 18.5hPa | 2.5V | 00:00:00 | 00:00:00 | 00:00:00 | |
| DJ8HS-15 | 2026-09-06 00:13:58 | 48.40220 | 10.21787 | 186° | 15km/h | 27403m | 4.5m/s | -48.4°C | 3.2% | 18.5hPa | 2.5V | 00:00:00 | 01:44:39 | 00:00:00 | |
| DM0DOS-11 | 2026-09-06 00:13:56 | 48.40234 | 10.21778 | 133° | 16km/h | 27375m | 5.3m/s | -48.4°C | 3.1% | 18.6hPa | 2.5V | 08:30:00 | 01:44:34 | 00:00:00 | |
| DK7TD | 2026-09-06 00:13:54 | 48.40232 | 10.21782 | 133° | 13km/h | 27380m | 5.2m/s | -48.4°C | 0.1% | 18.6hPa | 2.5V | 18:12:15 | 01:44:35 | 00:00:00 | |
| DB0ND-19 | 2026-09-06 00:13:53 | 48.40238 | 10.21774 | 138° | 20km/h | 27370m | 6.6m/s | -48.4°C | 0.8% | 18.6hPa | 2.5V | 00:00:00 | 00:00:00 | 00:00:00 | |
| DF3TZ-5 | 2026-09-06 00:13:51 | 48.40247 | 10.21763 | 147° | 24km/h | 27359m | 4.7m/s | -48.5°C | 0.8% | 18.6hPa | 2.5V | 00:00:00 | 00:00:00 | 00:00:00 | |
| DO3MHA-12 | 2026-09-06 00:13:50 | 48.40247 | 10.21763 | 148° | 15km/h | 27359m | 4.6m/s | -48.4°C | 3.1% | 18.6hPa | 2.5V | 00:00:00 | 01:44:31 | 00:00:00 | |
| OE5MMP-10 | 2026-09-06 00:13:49 | 48.40252 | 10.21758 | 147° | 13km/h | 27354m | 5.7m/s | -48.5°C | 3.1% | 18.6hPa | 2.5V | 00:00:00 | 01:44:30 | 00:00:00 | |
| DM7RM-13 | 2026-09-06 00:13:47 | 48.40256 | 10.21754 | 146° | 18km/h | 27348m | 6.2m/s | -48.6°C | 0.9% | 18.7hPa | 2.5V | 00:00:00 | 00:00:00 | 00:00:00 | |
| DM0DOS-11 | 2026-09-06 00:13:46 | 48.40271 | 10.21745 | 172° | 9km/h | 27319m | 4.3m/s | -49.1°C | 3.3% | 18.8hPa | 2.5V | 08:30:00 | 01:44:24 | 00:00:00 | |
| DK7TD | 2026-09-06 00:13:43 | 48.40271 | 10.21745 | 173° | 9km/h | 27319m | 4.3m/s | -49.1°C | 0.2% | 18.8hPa | 2.5V | 18:12:15 | 01:44:24 | 00:00:00 | |
| OE5WHR-10 | 2026-09-06 00:13:43 | 48.40271 | 10.21745 | 173° | 9km/h | 27319m | 4.3m/s | -49.0°C | 3.3% | 0hPa | 2.5V | 00:00:00 | 00:00:00 | 00:00:00 | |
| SONDE2-11 | 2026-09-06 00:13:42 | 48.40273 | 10.21744 | 155° | 7km/h | 27314m | 5.5m/s | -49.1°C | 0.9% | 18.8hPa | 2.6V | 00:00:00 | 00:00:00 | 00:00:00 | |
| DF1GD-15 | 2026-09-06 00:13:41 | 48.40273 | 10.21744 | 156° | 7km/h | 27314m | 5.5m/s | -49.1°C | 0.9% | 18.8hPa | 2.6V | 00:00:00 | 00:00:00 | 00:00:00 | |
| DB0NH | 2026-09-06 00:13:40 | 48.40275 | 10.21740 | 101° | 11km/h | 27302m | 5.7m/s | -49.1°C | 3.3% | 18.8hPa | 2.6V | 00:00:00 | 01:44:21 | 00:00:00 | |
| DC4HF-4 | 2026-09-06 00:13:39 | 48.40277 | 10.21730 | 116° | 16km/h | 27291m | 6.6m/s | -49.3°C | 0.8% | 18.9hPa | 2.6V | 00:00:00 | 00:00:00 | 00:00:00 | |
| DJ8HS-15 | 2026-09-06 00:13:38 | 48.40277 | 10.21730 | 117° | 11km/h | 27291m | 6.6m/s | -49.2°C | 3.3% | 18.8hPa | 2.6V | 00:00:00 | 01:44:19 | 00:00:00 | |
| DM0DOS-11 | 2026-09-06 00:13:36 | 48.40294 | 10.21701 | 119° | 13km/h | 27263m | 5.4m/s | -49.5°C | 3.4% | 18.9hPa | 2.6V | 08:30:00 | 01:44:14 | 00:00:00 | |
| DK7TD | 2026-09-06 00:13:32 | 48.40295 | 10.21697 | 106° | 9km/h | 27258m | 4.9m/s | -49.5°C | 0.3% | 18.9hPa | 2.6V | 18:12:15 | 01:44:13 | 00:00:00 | |
| OE5DRO-10 | 2026-09-06 00:13:31 | 48.40295 | 10.21694 | 102° | 7km/h | 27253m | 5.3m/s | -49.5°C | 3.4% | 18.9hPa | 2.5V | 00:00:00 | 00:00:00 | 00:00:00 | |
| DO3MHA-12 | 2026-09-06 00:13:30 | 48.40295 | 10.21692 | 122° | 7km/h | 27247m | 6.3m/s | -49.5°C | 3.4% | 18.9hPa | 2.5V | 00:00:00 | 01:44:11 | 00:00:00 | |
| OE5MMP-10 | 2026-09-06 00:13:29 | 48.40296 | 10.21692 | 183° | 9km/h | 27241m | 5.5m/s | -49.5°C | 3.3% | 18.9hPa | 2.5V | 00:00:00 | 01:44:10 | 00:00:00 | |
| DF7PN | 2026-09-06 00:13:28 | 48.40297 | 10.21693 | 275° | 2km/h | 27231m | 5.2m/s | -49.6°C | 0.9% | 19.0hPa | 2.5V | 00:00:00 | 00:00:00 | 00:00:00 | |
| DJ2DS-15 | 2026-09-06 00:13:27 | 48.40297 | 10.21693 | 276° | 7km/h | 27231m | 5.2m/s | 0°C | 0% | 0hPa | 2.5V | 00:00:00 | 01:44:08 | 00:00:00 | |
| DM0DOS-11 | 2026-09-06 00:13:26 | 48.40296 | 10.21689 | 110° | 9km/h | 27208m | 6.2m/s | -49.7°C | 3.4% | 19.1hPa | 2.5V | 08:30:00 | 01:44:04 | 00:00:00 | |
| DK7TD | 2026-09-06 00:13:21 | 48.40300 | 10.21682 | 136° | 18km/h | 27196m | 4.7m/s | -49.7°C | 0.3% | 19.1hPa | 2.6V | 18:12:15 | 01:44:02 | 00:00:00 | |
| DK5PH-5 | 2026-09-06 00:13:21 | 48.40300 | 10.21682 | 137° | 11km/h | 27196m | 4.7m/s | -49.7°C | 3.4% | 19.1hPa | 2.6V | 00:00:00 | 01:44:02 | 08:30:00 | |
| DF3TZ-5 | 2026-09-06 00:13:20 | 48.40306 | 10.21671 | 125° | 18km/h | 27186m | 6.0m/s | -49.7°C | 0.9% | 19.1hPa | 2.5V | 00:00:00 | 00:00:00 | 00:00:00 | |
| OE5MMP-10 | 2026-09-06 00:13:19 | 48.40306 | 10.21671 | 126° | 9km/h | 27186m | 6.0m/s | -49.7°C | 3.4% | 19.1hPa | 2.5V | 00:00:00 | 01:44:00 | 00:00:00 | |
| DJ8HS-15 | 2026-09-06 00:13:18 | 48.40308 | 10.21666 | 115° | 9km/h | 27181m | 5.7m/s | -49.7°C | 3.4% | 19.1hPa | 2.5V | 00:00:00 | 01:43:59 | 00:00:00 | |
| OE5WHR-10 | 2026-09-06 00:13:17 | 48.40310 | 10.21661 | 100° | 11km/h | 27175m | 5.2m/s | 0°C | 0% | 0hPa | 2.5V | 00:00:00 | 00:00:00 | 00:00:00 | |
| DM0DOS-11 | 2026-09-06 00:13:16 | 48.40312 | 10.21657 | 181° | 7km/h | 27152m | 5.5m/s | -49.7°C | 3.3% | 19.2hPa | 2.5V | 08:30:00 | 01:43:54 | 00:00:00 | |
| DK7TD | 2026-09-06 00:13:10 | 48.40318 | 10.21652 | 123° | 13km/h | 27134m | 6m/s | -49.8°C | 0.2% | 19.3hPa | 2.6V | 18:12:15 | 01:43:51 | 00:00:00 | |
| BIOWL1-15 | 2026-09-06 00:13:06 | 48.40335 | 10.21626 | 119° | 2km/h | 27096m | 6.5m/s | -50.1°C | 0.3% | 19.4hPa | 2.5V | 18:12:15 | 01:43:44 | 00:00:00 | |
| DJ2DS-15 | 2026-09-06 00:13:06 | 48.40328 | 10.21632 | 145° | 7km/h | 27112m | 4.6m/s | 0°C | 0% | 0hPa | 2.5V | 00:00:00 | 01:43:47 | 00:00:00 | |
| DM0DOS-11 | 2026-09-06 00:13:04 | 48.40334 | 10.21626 | 119° | 2km/h | 27096m | 6.5m/s | -50.1°C | 3.4% | 19.4hPa | 2.5V | 08:30:00 | 01:43:44 | 00:00:00 | |
| DK7TD | 2026-09-06 00:12:59 | 48.40332 | 10.21628 | 234° | 4km/h | 27074m | 6.5m/s | -50.3°C | 0.3% | 19.5hPa | 2.6V | 18:12:15 | 01:43:40 | 00:00:00 | |
| BIOWL1-15 | 2026-09-06 00:12:53 | 48.40349 | 10.21619 | 167° | 5km/h | 27023m | 6.1m/s | -50.7°C | 0.4% | 19.6hPa | 2.5V | 18:12:15 | 01:43:31 | 00:00:00 | |
| DK7TD | 2026-09-06 00:12:49 | 48.40351 | 10.21618 | 181° | 5km/h | 27017m | 5m/s | -50.7°C | 0.4% | 19.6hPa | 2.5V | 18:12:15 | 01:43:30 | 00:00:00 | |
| DF3TZ-5 | 2026-09-06 00:12:49 | 48.40352 | 10.21618 | 179° | 4km/h | 27012m | 5.7m/s | -50.8°C | 0.9% | 19.6hPa | 2.5V | 00:00:00 | 00:00:00 | 00:00:00 | |
| BAUMI2-15 | 2026-09-06 00:12:47 | 48.40353 | 10.21618 | 157° | 5km/h | 27006m | 6.6m/s | -50.7°C | 3.6% | 19.6hPa | 2.5V | 00:00:00 | 01:43:28 | 00:00:00 | |
| PG1ADW-2 | 2026-09-06 00:12:46 | 48.40353 | 10.21618 | 109° | 7km/h | 27000m | 5.2m/s | -50.7°C | 3.6% | 19.7hPa | 2.5V | 00:00:00 | 00:00:00 | 00:00:00 | |
| DM0DOS-11 | 2026-09-06 00:12:44 | 48.40356 | 10.21615 | 166° | 9km/h | 26982m | 5.5m/s | -50.8°C | 3.6% | 19.8hPa | 2.6V | 08:30:00 | 01:43:24 | 00:00:00 | |
| BIOWL1-15 | 2026-09-06 00:12:42 | 48.40359 | 10.21614 | 170° | 9km/h | 26977m | 4.5m/s | -50.8°C | 0.4% | 19.8hPa | 2.6V | 18:12:15 | 01:43:23 | 00:00:00 | |
| DK7TD | 2026-09-06 00:12:38 | 48.40361 | 10.21614 | 346° | 5km/h | 26954m | 5.4m/s | -50.9°C | 0.4% | 19.9hPa | 2.5V | 18:12:15 | 01:43:19 | 00:00:00 | |
| DJ8HS-15 | 2026-09-06 00:12:38 | 48.40361 | 10.21614 | 346° | 7km/h | 26955m | 5.3m/s | -50.8°C | 3.6% | 19.8hPa | 2.5V | 00:00:00 | 01:43:19 | 08:30:00 | |
| BAUMI2-15 | 2026-09-06 00:12:37 | 48.40360 | 10.21615 | 341° | 4km/h | 26949m | 5.9m/s | -50.9°C | 3.6% | 19.8hPa | 2.5V | 00:00:00 | 01:43:18 | 00:00:00 | |
| DM0DOS-11 | 2026-09-06 00:12:36 | 48.40358 | 10.21615 | 47° | 4km/h | 26925m | 6.9m/s | -50.9°C | 3.6% | 19.9hPa | 2.5V | 08:30:00 | 01:43:14 | 00:00:00 | |
| BIOWL1-15 | 2026-09-06 00:12:31 | 48.40356 | 10.21583 | 68° | 15km/h | 26884m | 6.1m/s | -51°C | 0.4% | 20hPa | 2.6V | 18:12:15 | 01:43:07 | 00:00:00 | |
| DK7TD | 2026-09-06 00:12:27 | 48.40357 | 10.21588 | 86° | 16km/h | 26890m | 5.9m/s | -51°C | 0.4% | 20hPa | 2.5V | 18:12:15 | 01:43:08 | 00:00:00 | |
| BAUMI2-15 | 2026-09-06 00:12:27 | 48.40357 | 10.21588 | 87° | 13km/h | 26890m | 5.8m/s | -51.0°C | 3.6% | 20.0hPa | 2.5V | 00:00:00 | 01:43:08 | 00:00:00 | |
| PG1ADW-2 | 2026-09-06 00:12:26 | 48.40356 | 10.21583 | 68° | 7km/h | 26884m | 6.1m/s | -51.0°C | 3.6% | 20.0hPa | 2.5V | 00:00:00 | 00:00:00 | 00:00:00 | |
| DM7RM-13 | 2026-09-06 00:12:25 | 48.40356 | 10.21583 | 68° | 15km/h | 26884m | 6.1m/s | -51.0°C | 1.0% | 20.0hPa | 2.5V | 00:00:00 | 00:00:00 | 00:00:00 | |
| DM0DOS-11 | 2026-09-06 00:12:24 | 48.40350 | 10.21575 | 8° | 7km/h | 26868m | 6.5m/s | -51°C | 3.6% | 20.1hPa | 2.5V | 08:30:00 | 01:43:04 | 00:00:00 | |
| BIOWL1-15 | 2026-09-06 00:12:23 | 48.40348 | 10.21576 | 302° | 4km/h | 26856m | 5.2m/s | -51°C | 0.4% | 20.1hPa | 2.5V | 18:12:15 | 01:43:02 | 00:00:00 | |
| DK7TD | 2026-09-06 00:12:17 | 48.40343 | 10.21581 | 1° | 7km/h | 26833m | 5.2m/s | -51°C | 0.5% | 20.2hPa | 2.5V | 18:12:15 | 01:42:58 | 00:00:00 | |
| BAUMI2-15 | 2026-09-06 00:12:17 | 48.40343 | 10.21581 | 1° | 7km/h | 26833m | 5.1m/s | -50.9°C | 3.6% | 20.2hPa | 2.5V | 00:00:00 | 01:42:58 | 00:00:00 | |
| IW2NTF | 2026-09-06 00:12:14 | 48.40339 | 10.21573 | 57° | 7km/h | 26810m | 5.5m/s | -51°C | 3.7% | 20.3hPa | 2.5V | 08:30:00 | 01:42:54 | 00:00:00 | |
| BIOWL1-15 | 2026-09-06 00:12:11 | 48.40335 | 10.21570 | 8° | 7km/h | 26798m | 5.4m/s | -51.1°C | 0.5% | 20.3hPa | 2.5V | 18:12:15 | 01:42:52 | 00:00:00 | |
| DK7TD | 2026-09-06 00:12:07 | 48.40331 | 10.21577 | 276° | 11km/h | 26775m | 4.9m/s | -51.1°C | 0.4% | 20.4hPa | 2.5V | 18:12:15 | 01:42:48 | 00:00:00 | |
| BAUMI2-15 | 2026-09-06 00:12:07 | 48.40331 | 10.21577 | 277° | 15km/h | 26775m | 4.8m/s | -51.0°C | 3.7% | 20.4hPa | 2.6V | 00:00:00 | 01:42:48 | 00:00:00 | |
| DM0DOS-11 | 2026-09-06 00:12:06 | 48.40326 | 10.21597 | 298° | 15km/h | 26752m | 4.8m/s | -51.1°C | 3.7% | 20.5hPa | 2.6V | 08:30:00 | 01:42:44 | 00:00:00 | |
| BIOWL1-15 | 2026-09-06 00:12:02 | 48.40324 | 10.21605 | 189° | 2km/h | 26734m | 5.2m/s | -51°C | 0.4% | 20.5hPa | 2.5V | 18:12:15 | 01:42:41 | 00:00:00 | |
| DK7TD | 2026-09-06 00:11:55 | 48.40325 | 10.21607 | 223° | 4km/h | 26705m | 6.7m/s | -50.9°C | 0.4% | 20.6hPa | 2.5V | 18:12:15 | 01:42:36 | 00:00:00 | |
| BIOWL1-15 | 2026-09-06 00:11:49 | 48.40329 | 10.21627 | 279° | 16km/h | 26673m | 5m/s | -50.8°C | 0.5% | 20.7hPa | 2.5V | 18:12:15 | 01:42:30 | 00:00:00 | |
| DB0ND-19 | 2026-09-06 00:11:49 | 48.40329 | 10.21633 | 274° | 15km/h | 26668m | 4.9m/s | -50.8°C | 0.9% | 20.7hPa | 2.5V | 00:00:00 | 00:00:00 | 00:00:00 | |
| DF3TZ-5 | 2026-09-06 00:11:46 | 48.40330 | 10.21641 | 218° | 5km/h | 26657m | 5.1m/s | -50.8°C | 1.0% | 20.8hPa | 2.5V | 00:00:00 | 00:00:00 | 00:00:00 | |
| DK7TD | 2026-09-06 00:11:44 | 48.40332 | 10.21639 | 118° | 7km/h | 26647m | 5.9m/s | -50.8°C | 0.3% | 20.8hPa | 2.5V | 18:12:15 | 01:42:25 | 00:00:00 | |
| BIOWL1-15 | 2026-09-06 00:11:38 | 48.40328 | 10.21620 | 131° | 4km/h | 26612m | 5.4m/s | -50.9°C | 0.4% | 20.9hPa | 2.5V | 18:12:15 | 01:42:19 | 00:00:00 | |
| SONDE2-11 | 2026-09-06 00:11:38 | 48.40329 | 10.21620 | 219° | 4km/h | 26608m | 4.9m/s | -50.9°C | 0.9% | 20.9hPa | 2.5V | 00:00:00 | 00:00:00 | 00:00:00 | |
| BAUMI2-15 | 2026-09-06 00:11:37 | 48.40329 | 10.21620 | 220° | 9km/h | 26608m | 4.9m/s | -50.8°C | 3.6% | 20.9hPa | 2.5V | 00:00:00 | 01:42:18 | 00:00:00 | |
| DB0UT-7 | 2026-09-06 00:11:36 | 48.40330 | 10.21622 | 257° | 9km/h | 26602m | 6.4m/s | -50.9°C | 3.5% | 20.9hPa | 2.5V | 00:00:00 | 01:42:17 | 00:00:00 | |
| IW2NTF | 2026-09-06 00:11:34 | 48.40330 | 10.21635 | 265° | 11km/h | 26585m | 5m/s | -51°C | 3.6% | 21hPa | 2.5V | 08:30:00 | 01:42:14 | 00:00:00 | |
| DK7TD | 2026-09-06 00:11:32 | 48.40330 | 10.21638 | 241° | 7km/h | 26579m | 6.1m/s | -51°C | 0.4% | 21hPa | 2.5V | 18:12:15 | 01:42:13 | 00:00:00 | |
| BIOWL1-15 | 2026-09-06 00:11:30 | 48.40334 | 10.21628 | 92° | 15km/h | 26557m | 6.2m/s | -51°C | 0.4% | 21.1hPa | 2.6V | 18:12:15 | 01:42:09 | 00:00:00 | |
| OE5WHR-10 | 2026-09-06 00:11:30 | 48.40332 | 10.21637 | 128° | 9km/h | 26569m | 5.0m/s | 0°C | 0% | 0hPa | 2.6V | 00:00:00 | 00:00:00 | 00:00:00 | |
| OE5MMP-10 | 2026-09-06 00:11:29 | 48.40334 | 10.21633 | 108° | 9km/h | 26563m | 5.3m/s | -50.9°C | 3.7% | 21.0hPa | 2.6V | 00:00:00 | 01:42:10 | 08:30:00 | |
| AZAK | 2026-09-06 00:11:27 | 48.40334 | 10.21623 | 84° | 13km/h | 26552m | 4.8m/s | -51.0°C | 1.0% | 21.1hPa | 2.6V | 00:00:00 | 00:00:00 | 00:00:00 | |
| DM0DOS-11 | 2026-09-06 00:11:26 | 48.40337 | 10.21613 | 177° | 9km/h | 26530m | 5.4m/s | -51°C | 3.7% | 21.2hPa | 2.6V | 08:30:00 | 01:42:04 | 00:00:00 | |
| DK7TD | 2026-09-06 00:11:21 | 48.40342 | 10.21615 | 217° | 9km/h | 26520m | 5.9m/s | -51°C | 0.4% | 21.2hPa | 2.5V | 18:12:15 | 01:42:02 | 00:00:00 | |
| BIOWL1-15 | 2026-09-06 00:11:15 | 48.40343 | 10.21612 | 120° | 13km/h | 26488m | 4.8m/s | -51°C | 0.4% | 21.3hPa | 2.5V | 18:12:15 | 01:41:56 | 00:00:00 | |
| IW2NTF | 2026-09-06 00:11:14 | 48.40347 | 10.21604 | 133° | 13km/h | 26478m | 5.9m/s | -51°C | 3.6% | 21.4hPa | 2.5V | 08:30:00 | 01:41:54 | 00:00:00 | |
| DK7TD | 2026-09-06 00:11:10 | 48.40352 | 10.21598 | 157° | 7km/h | 26462m | 4.7m/s | -51°C | 0.4% | 21.4hPa | 2.5V | 18:12:15 | 01:41:51 | 00:00:00 | |
| BIOWL1-15 | 2026-09-06 00:11:07 | 48.40362 | 10.21587 | 143° | 9km/h | 26433m | 6.4m/s | -51.1°C | 0.5% | 21.5hPa | 2.5V | 18:12:15 | 01:41:46 | 00:00:00 | |
| SONDE2-11 | 2026-09-06 00:11:07 | 48.40360 | 10.21589 | 142° | 11km/h | 26439m | 4.9m/s | -51.1°C | 1.0% | 21.5hPa | 2.5V | 00:00:00 | 00:00:00 | 00:00:00 | |
| DM0DOS-11 | 2026-09-06 00:11:06 | 48.40365 | 10.21584 | 129° | 5km/h | 26422m | 4.7m/s | -51.1°C | 3.7% | 21.5hPa | 2.5V | 08:30:00 | 01:41:44 | 00:00:00 | |
| DK7TD | 2026-09-06 00:10:59 | 48.40368 | 10.21572 | 92° | 7km/h | 26400m | 6.1m/s | -51°C | 0.5% | 21.6hPa | 2.5V | 18:12:15 | 01:41:40 | 00:00:00 | |
| OE5MMP-10 | 2026-09-06 00:10:59 | 48.40368 | 10.21572 | 92° | 7km/h | 26400m | 6.1m/s | -51.0°C | 3.7% | 21.6hPa | 2.5V | 00:00:00 | 01:41:40 | 00:00:00 | |
| DJ8HS-15 | 2026-09-06 00:10:58 | 48.40368 | 10.21569 | 73° | 9km/h | 26394m | 5.8m/s | -50.9°C | 3.6% | 21.6hPa | 2.5V | 00:00:00 | 01:41:39 | 00:00:00 | |
| DO9HM | 2026-09-06 00:10:57 | 48.40368 | 10.21569 | 74° | 7km/h | 26394m | 5.9m/s | -51.0°C | 1.0% | 21.6hPa | 2.5V | 00:00:00 | 00:00:00 | 00:00:00 | |
| OE5DXL-15 | 2026-09-06 00:10:56 | 48.40366 | 10.21564 | 77° | 9km/h | 26383m | 5.6m/s | -50.9°C | 3.6% | 21.6hPa | 2.5V | 00:00:00 | 00:00:00 | 00:00:00 | |
| IW2NTF | 2026-09-06 00:10:54 | 48.40367 | 10.21553 | 97° | 9km/h | 26366m | 4.9m/s | -50.9°C | 3.6% | 21.7hPa | 2.5V | 08:30:00 | 01:41:34 | 00:00:00 | |
| DK7TD | 2026-09-06 00:10:49 | 48.40369 | 10.21548 | 187° | 7km/h | 26344m | 5.5m/s | -50.9°C | 0.5% | 21.8hPa | 2.6V | 18:12:15 | 01:41:30 | 00:00:00 | |
| DB0ND-19 | 2026-09-06 00:10:46 | 48.40377 | 10.21545 | 152° | 13km/h | 26328m | 4.4m/s | -50.9°C | 1.0% | 21.8hPa | 2.5V | 00:00:00 | 00:00:00 | 00:00:00 | |
| DK7TD | 2026-09-06 00:10:39 | 48.40387 | 10.21530 | 154° | 11km/h | 26290m | 4.5m/s | -50.9°C | 0.5% | 22hPa | 2.5V | 18:12:15 | 01:41:20 | 00:00:00 | |
| BIOWL1-15 | 2026-09-06 00:10:33 | 48.40408 | 10.21520 | 60° | 9km/h | 26234m | 5.6m/s | -50.8°C | 0.4% | 22.2hPa | 2.5V | 18:12:15 | 01:41:10 | 00:00:00 | |
| DK7TD | 2026-09-06 00:10:28 | 48.40407 | 10.21517 | 56° | 11km/h | 26229m | 5m/s | -50.8°C | 0.4% | 22.2hPa | 2.5V | 18:12:15 | 01:41:09 | 00:00:00 | |
| NBG1-10 | 2026-09-06 00:10:28 | 48.40407 | 10.21517 | 57° | 9km/h | 26229m | 5.0m/s | -50.8°C | 3.6% | 22.1hPa | 2.5V | 00:00:00 | 01:41:09 | 00:00:00 | |
| DM0DOS-11 | 2026-09-06 00:10:26 | 48.40402 | 10.21498 | 49° | 4km/h | 26200m | 6.7m/s | -50.8°C | 3.6% | 22.3hPa | 2.5V | 08:30:00 | 01:41:04 | 00:00:00 | |
| BIOWL1-15 | 2026-09-06 00:10:18 | 48.40400 | 10.21494 | 52° | 5km/h | 26171m | 4.9m/s | -50.8°C | 0.4% | 22.4hPa | 2.5V | 18:12:15 | 01:40:59 | 00:00:00 | |
| DK7TD | 2026-09-06 00:10:17 | 48.40399 | 10.21492 | 23° | 7km/h | 26166m | 6.4m/s | -50.8°C | 0.4% | 22.4hPa | 2.5V | 18:12:15 | 01:40:58 | 00:00:00 | |
| DF1GD-15 | 2026-09-06 00:10:15 | 48.40397 | 10.21492 | 11° | 9km/h | 26160m | 5.7m/s | -50.8°C | 1.0% | 22.4hPa | 2.5V | 00:00:00 | 00:00:00 | 00:00:00 | |
| IW2NTF | 2026-09-06 00:10:14 | 48.40388 | 10.21486 | 40° | 15km/h | 26143m | 6.4m/s | -50.8°C | 3.5% | 22.5hPa | 2.5V | 08:30:00 | 01:40:54 | 00:00:00 | |
| DF3TZ-5 | 2026-09-06 00:10:13 | 48.40388 | 10.21486 | 40° | 13km/h | 26143m | 6.4m/s | -50.8°C | 0.9% | 22.5hPa | 2.6V | 00:00:00 | 00:00:00 | 00:00:00 | |
| DO9LL-15 | 2026-09-06 00:10:10 | 48.40380 | 10.21475 | 36° | 22km/h | 26126m | 6.5m/s | 0°C | 0% | 0hPa | 2.6V | 00:00:00 | 01:40:51 | 00:00:00 | |
| OE5MMP-10 | 2026-09-06 00:10:09 | 48.40378 | 10.21473 | 21° | 9km/h | 26120m | 5.3m/s | -50.7°C | 3.6% | 22.5hPa | 2.6V | 00:00:00 | 01:40:50 | 00:00:00 | |
| DL6DJ-15 | 2026-09-06 00:10:08 | 48.40374 | 10.21470 | 23° | 7km/h | 26109m | 6.7m/s | -50.8°C | 0.9% | 22.6hPa | 2.6V | 00:00:00 | 00:00:00 | 00:00:00 | |
| DM0DOS-11 | 2026-09-06 00:10:06 | 48.40367 | 10.21466 | 350° | 7km/h | 26086m | 6.3m/s | -50.8°C | 3.6% | 22.7hPa | 2.6V | 08:30:00 | 01:40:44 | 00:00:00 | |
| DK7TD | 2026-09-06 00:10:06 | 48.40372 | 10.21469 | 35° | 7km/h | 26102m | 5.5m/s | -50.8°C | 0.4% | 22.6hPa | 2.5V | 18:12:15 | 01:40:47 | 00:00:00 | |
| BIOWL1-15 | 2026-09-06 00:10:01 | 48.40355 | 10.21458 | 41° | 9km/h | 26052m | 6.3m/s | -50.9°C | 0.4% | 22.8hPa | 2.5V | 18:12:15 | 01:40:38 | 00:00:00 | |
| DO3MHA-12 | 2026-09-06 00:10:00 | 48.40360 | 10.21466 | 30° | 7km/h | 26069m | 6.8m/s | -50.8°C | 3.6% | 22.7hPa | 2.6V | 00:00:00 | 01:40:41 | 00:00:00 | |
| OE5MMP-10 | 2026-09-06 00:09:59 | 48.40358 | 10.21464 | 51° | 7km/h | 26063m | 5.3m/s | -50.8°C | 3.6% | 22.7hPa | 2.6V | 00:00:00 | 01:40:40 | 08:30:00 | |
| DJ8HS-15 | 2026-09-06 00:09:58 | 48.40357 | 10.21461 | 52° | 7km/h | 26058m | 5.1m/s | -50.8°C | 3.6% | 22.7hPa | 2.6V | 00:00:00 | 01:40:39 | 00:00:00 | |
| IW2NTF | 2026-09-06 00:09:57 | 48.40347 | 10.21458 | 18° | 7km/h | 26023m | 5.9m/s | -51°C | 3.6% | 22.9hPa | 2.6V | 08:30:00 | 01:40:33 | 00:00:00 | |
| DM0DOS-11 | 2026-09-06 00:09:56 | 48.40348 | 10.21458 | 358° | 5km/h | 26029m | 6.5m/s | -51°C | 3.6% | 22.9hPa | 2.6V | 08:30:00 | 01:40:34 | 00:00:00 | |
| DK7TD | 2026-09-06 00:09:55 | 48.40352 | 10.21457 | 347° | 7km/h | 26040m | 4.8m/s | -51°C | 0.4% | 22.9hPa | 2.5V | 18:12:15 | 01:40:36 | 00:00:00 | |
| BIOWL1-15 | 2026-09-06 00:09:50 | 48.40334 | 10.21459 | 352° | 7km/h | 25991m | 6m/s | -51.3°C | 0.4% | 23hPa | 2.6V | 18:12:15 | 01:40:27 | 00:00:00 | |
| DO3MHA-12 | 2026-09-06 00:09:50 | 48.40343 | 10.21456 | 10° | 5km/h | 26013m | 5.1m/s | -51.1°C | 3.6% | 22.9hPa | 2.6V | 00:00:00 | 01:40:31 | 00:00:00 | |
| OE5MMP-10 | 2026-09-06 00:09:49 | 48.40340 | 10.21456 | 353° | 5km/h | 26007m | 6.3m/s | -51.1°C | 3.6% | 22.9hPa | 2.6V | 00:00:00 | 01:40:30 | 00:00:00 | |
| IW2NTF | 2026-09-06 00:09:47 | 48.40332 | 10.21455 | 61° | 0km/h | 25967m | 6.2m/s | -51.5°C | 3.7% | 23.1hPa | 2.6V | 08:30:00 | 01:40:23 | 00:00:00 | |
| PETON7-10 | 2026-09-06 00:09:47 | 48.40336 | 10.21458 | 340° | 9km/h | 25996m | 4.7m/s | 0°C | 0% | 0hPa | 2.5V | 00:00:00 | 00:00:00 | 00:00:00 | |
| DM0DOS-11 | 2026-09-06 00:09:46 | 48.40332 | 10.21456 | 83° | 4km/h | 25973m | 5.6m/s | -51.5°C | 3.7% | 23.1hPa | 2.5V | 08:30:00 | 01:40:24 | 00:00:00 | |
| DK7TD | 2026-09-06 00:09:45 | 48.40332 | 10.21459 | 34° | 4km/h | 25984m | 6.4m/s | -51.4°C | 0.4% | 23.1hPa | 2.5V | 18:12:15 | 01:40:26 | 00:00:00 | |
| BIOWL1-15 | 2026-09-06 00:09:38 | 48.40328 | 10.21455 | 354° | 4km/h | 25934m | 5.5m/s | -51.4°C | 0.5% | 23.2hPa | 2.6V | 18:12:15 | 01:40:17 | 00:00:00 | |
| DJ8HS-15 | 2026-09-06 00:09:38 | 48.40330 | 10.21456 | 32° | 9km/h | 25945m | 6.1m/s | -51.4°C | 3.7% | 23.1hPa | 2.5V | 00:00:00 | 01:40:19 | 08:30:00 | |
| IW2NTF | 2026-09-06 00:09:37 | 48.40329 | 10.21463 | 205° | 11km/h | 25911m | 6.7m/s | -51.2°C | 3.7% | 23.3hPa | 2.5V | 08:30:00 | 01:40:13 | 00:00:00 | |
| DM0DOS-11 | 2026-09-06 00:09:36 | 48.40327 | 10.21460 | 234° | 7km/h | 25917m | 5.5m/s | -51.3°C | 3.6% | 23.3hPa | 2.5V | 08:30:00 | 01:40:14 | 00:00:00 | |
| DK7TD | 2026-09-06 00:09:35 | 48.40327 | 10.21456 | 306° | 5km/h | 25928m | 6.2m/s | -51.3°C | 0.5% | 23.2hPa | 2.6V | 18:12:15 | 01:40:16 | 00:00:00 | |
| DO3MHA-11 | 2026-09-06 00:09:35 | 48.40327 | 10.21456 | 306° | 9km/h | 25928m | 6.2m/s | -51.3°C | 3.7% | 23.2hPa | 2.6V | 00:00:00 | 01:40:16 | 00:00:00 | |
| DL1ZP-14 | 2026-09-06 00:09:34 | 48.40327 | 10.21458 | 268° | 5km/h | 25923m | 5.2m/s | -51.3°C | 1.0% | 23.3hPa | 2.5V | 00:00:00 | 00:00:00 | 00:00:00 | |
| DF1GD-15 | 2026-09-06 00:09:33 | 48.40327 | 10.21458 | 269° | 7km/h | 25923m | 5.2m/s | -51.3°C | 1.0% | 23.3hPa | 2.6V | 00:00:00 | 00:00:00 | 00:00:00 | |
| DO3MHA-12 | 2026-09-06 00:09:30 | 48.40335 | 10.21464 | 189° | 9km/h | 25900m | 4.9m/s | -51.2°C | 3.7% | 23.3hPa | 2.6V | 00:00:00 | 01:40:11 | 00:00:00 | |
| OE5MMP-10 | 2026-09-06 00:09:29 | 48.40339 | 10.21466 | 196° | 9km/h | 25894m | 6.4m/s | -51.2°C | 3.6% | 23.3hPa | 2.6V | 00:00:00 | 01:40:10 | 00:00:00 | |
| IW2NTF | 2026-09-06 00:09:27 | 48.40338 | 10.21470 | 348° | 9km/h | 25854m | 6.1m/s | -51.2°C | 3.6% | 23.5hPa | 2.5V | 08:30:00 | 01:40:03 | 00:00:00 | |
| DM0DOS-11 | 2026-09-06 00:09:26 | 48.40340 | 10.21470 | 8° | 9km/h | 25860m | 4.8m/s | -51.1°C | 3.6% | 23.5hPa | 2.5V | 08:30:00 | 01:40:04 | 00:00:00 | |
| BIOWL1-15 | 2026-09-06 00:09:26 | 48.40344 | 10.21471 | 266° | 2km/h | 25877m | 6.1m/s | -51.2°C | 0.4% | 23.4hPa | 2.5V | 18:12:15 | 01:40:07 | 00:00:00 | |
| DK7TD | 2026-09-06 00:09:25 | 48.40344 | 10.21471 | 9° | 4km/h | 25871m | 6.4m/s | -51.2°C | 0.4% | 23.5hPa | 2.6V | 18:12:15 | 01:40:06 | 00:00:00 | |
| DO3MHA-11 | 2026-09-06 00:09:25 | 48.40344 | 10.21471 | 9° | 9km/h | 25871m | 6.4m/s | -51.1°C | 3.6% | 23.4hPa | 2.6V | 00:00:00 | 01:40:06 | 00:00:00 | |
| OE5DRO-10 | 2026-09-06 00:09:24 | 48.40342 | 10.21470 | 20° | 13km/h | 25865m | 5.1m/s | -51.1°C | 3.5% | 23.4hPa | 2.6V | 00:00:00 | 00:00:00 | 08:30:00 | |
| BAUMI2-15 | 2026-09-06 00:09:22 | 48.40338 | 10.21470 | 349° | 11km/h | 25855m | 6.1m/s | -51.1°C | 3.6% | 23.5hPa | 2.6V | 00:00:00 | 01:40:03 | 00:00:00 | |
| HARRO8 | 2026-09-06 00:09:21 | 48.40334 | 10.21474 | 292° | 9km/h | 25843m | 5.1m/s | -51.2°C | 1.0% | 23.5hPa | 2.6V | 00:00:00 | 00:00:00 | 00:00:00 | |
| DO3MHA-12 | 2026-09-06 00:09:20 | 48.40334 | 10.21474 | 293° | 11km/h | 25843m | 5.0m/s | -51.1°C | 3.5% | 23.5hPa | 2.6V | 00:00:00 | 01:40:01 | 00:00:00 | |
| OE5MMP-10 | 2026-09-06 00:09:19 | 48.40334 | 10.21478 | 261° | 11km/h | 25837m | 5.9m/s | -51.2°C | 3.6% | 23.5hPa | 2.6V | 00:00:00 | 01:40:00 | 00:00:00 | |
| IW2NTF | 2026-09-06 00:09:18 | 48.40348 | 10.21488 | 54° | 5km/h | 25799m | 5.7m/s | -51.7°C | 3.7% | 23.7hPa | 2.6V | 08:30:00 | 01:39:53 | 00:00:00 | |
| BAUMI2-15 | 2026-09-06 00:09:17 | 48.40337 | 10.21483 | 203° | 11km/h | 25825m | 5.4m/s | -51.3°C | 3.6% | 23.6hPa | 2.6V | 00:00:00 | 01:39:58 | 00:00:00 | |
| DM0DOS-11 | 2026-09-06 00:09:16 | 48.40348 | 10.21489 | 183° | 2km/h | 25804m | 4.5m/s | -51.7°C | 3.7% | 23.7hPa | 2.6V | 08:30:00 | 01:39:54 | 00:00:00 | |
| BIOWL1-15 | 2026-09-06 00:09:15 | 48.40344 | 10.21487 | 199° | 13km/h | 25814m | 6m/s | -51.6°C | 0.4% | 23.7hPa | 2.5V | 18:12:15 | 01:39:56 | 00:00:00 | |
| DK7TD | 2026-09-06 00:09:14 | 48.40347 | 10.21488 | 202° | 9km/h | 25809m | 5m/s | -51.7°C | 0.5% | 23.7hPa | 2.5V | 18:12:15 | 01:39:55 | 00:00:00 | |
| DB0ND-19 | 2026-09-06 00:09:13 | 48.40348 | 10.21489 | 183° | 2km/h | 25804m | 4.5m/s | -51.7°C | 1.0% | 23.7hPa | 2.6V | 00:00:00 | 00:00:00 | 00:00:00 | |
| BAUMI2-15 | 2026-09-06 00:09:12 | 48.40348 | 10.21488 | 55° | 18km/h | 25799m | 5.6m/s | -51.7°C | 3.7% | 23.7hPa | 2.6V | 00:00:00 | 01:39:53 | 08:30:00 | |
| DF3TZ-5 | 2026-09-06 00:09:11 | 48.40346 | 10.21485 | 47° | 13km/h | 25792m | 6.9m/s | -51.7°C | 1.0% | 23.7hPa | 2.5V | 00:00:00 | 00:00:00 | 00:00:00 | |
| DO3MHA-12 | 2026-09-06 00:09:10 | 48.40343 | 10.21481 | 43° | 15km/h | 25786m | 5.5m/s | -51.7°C | 3.7% | 23.7hPa | 2.5V | 00:00:00 | 01:39:51 | 08:30:00 | |
| OE5MMP-10 | 2026-09-06 00:09:09 | 48.40339 | 10.21476 | 35° | 15km/h | 25781m | 4.3m/s | -51.7°C | 3.7% | 23.8hPa | 2.6V | 00:00:00 | 01:39:50 | 00:00:00 | |
| IW2NTF | 2026-09-06 00:09:07 | 48.40316 | 10.21478 | 314° | 5km/h | 25742m | 4.8m/s | -51.8°C | 3.7% | 23.9hPa | 2.6V | 08:30:00 | 01:39:43 | 00:00:00 | |
| DM0DOS-11 | 2026-09-06 00:09:07 | 48.40317 | 10.21476 | 299° | 7km/h | 25747m | 5.7m/s | -51.8°C | 3.7% | 23.9hPa | 2.5V | 08:30:00 | 01:39:44 | 00:00:00 | |
| BIOWL1-15 | 2026-09-06 00:09:05 | 48.40321 | 10.21471 | 328° | 13km/h | 25759m | 5.2m/s | -51.8°C | 0.5% | 23.9hPa | 2.5V | 18:12:15 | 01:39:46 | 00:00:00 | |
| DK7TD | 2026-09-06 00:09:04 | 48.40318 | 10.21474 | 311° | 11km/h | 25753m | 6.2m/s | -51.8°C | 0.5% | 23.9hPa | 2.5V | 18:12:15 | 01:39:45 | 00:00:00 | |
| OE5DRO-10 | 2026-09-06 00:09:04 | 48.40318 | 10.21474 | 311° | 11km/h | 25754m | 6.2m/s | -51.7°C | 3.7% | 23.8hPa | 2.6V | 00:00:00 | 00:00:00 | 00:00:00 | |
| DL1ZP-14 | 2026-09-06 00:09:03 | 48.40316 | 10.21478 | 314° | 5km/h | 25742m | 4.8m/s | -51.8°C | 1.0% | 23.9hPa | 2.6V | 00:00:00 | 00:00:00 | 00:00:00 | |
| BAUMI2-15 | 2026-09-06 00:09:02 | 48.40316 | 10.21478 | 315° | 11km/h | 25742m | 4.8m/s | -51.8°C | 3.7% | 23.9hPa | 2.5V | 00:00:00 | 01:39:43 | 00:00:00 | |
| AZAK | 2026-09-06 00:09:01 | 48.40316 | 10.21478 | 315° | 5km/h | 25742m | 4.8m/s | -51.8°C | 1.0% | 23.9hPa | 2.5V | 00:00:00 | 00:00:00 | 00:00:00 | |
| DO3MHA-12 | 2026-09-06 00:09:00 | 48.40312 | 10.21480 | 4° | 13km/h | 25730m | 6.1m/s | -51.7°C | 3.7% | 23.9hPa | 2.5V | 00:00:00 | 01:39:41 | 00:00:00 | |
| DM7RM-13 | 2026-09-06 00:08:59 | 48.40309 | 10.21479 | 17° | 15km/h | 25725m | 5.5m/s | -51.8°C | 1.0% | 24.0hPa | 2.5V | 00:00:00 | 00:00:00 | 00:00:00 | |
| DJ8HS-15 | 2026-09-06 00:08:58 | 48.40305 | 10.21477 | 25° | 9km/h | 25718m | 6.6m/s | -51.8°C | 3.7% | 24.0hPa | 2.5V | 00:00:00 | 01:39:39 | 00:00:00 | |
| BAUMI2-15 | 2026-09-06 00:08:57 | 48.40302 | 10.21474 | 31° | 13km/h | 25712m | 6.5m/s | -51.8°C | 3.8% | 24.0hPa | 2.5V | 00:00:00 | 01:39:38 | 00:00:00 | |
| DM0DOS-11 | 2026-09-06 00:08:56 | 48.40291 | 10.21468 | 350° | 11km/h | 25689m | 5.6m/s | -52°C | 3.8% | 24.1hPa | 2.5V | 08:30:00 | 01:39:34 | 00:00:00 | |
| BIOWL1-15 | 2026-09-06 00:08:54 | 48.40294 | 10.21468 | 10° | 11km/h | 25695m | 6.5m/s | -51.9°C | 0.5% | 24.1hPa | 2.5V | 18:12:15 | 01:39:35 | 00:00:00 | |
| IW2NTF | 2026-09-06 00:08:53 | 48.40289 | 10.21469 | 325° | 9km/h | 25684m | 4.8m/s | -52°C | 3.9% | 24.1hPa | 2.5V | 08:30:00 | 01:39:33 | 00:00:00 | |
| DK7TD | 2026-09-06 00:08:53 | 48.40291 | 10.21468 | 350° | 11km/h | 25689m | 5.6m/s | -52°C | 0.5% | 24.1hPa | 2.5V | 18:12:15 | 01:39:34 | 00:00:00 | |
| HARRO8 | 2026-09-06 00:08:50 | 48.40288 | 10.21478 | 225° | 11km/h | 25665m | 6.4m/s | -52.1°C | 1.0% | 24.2hPa | 2.5V | 00:00:00 | 00:00:00 | 00:00:00 | |
| DF7PN | 2026-09-06 00:08:48 | 48.40290 | 10.21481 | 219° | 13km/h | 25660m | 5.0m/s | -52.1°C | 1.0% | 24.2hPa | 2.5V | 00:00:00 | 00:00:00 | 00:00:00 | |
| IW2NTF | 2026-09-06 00:08:47 | 48.40294 | 10.21491 | 1° | 5km/h | 25623m | 5.3m/s | -52°C | 3.9% | 24.4hPa | 2.5V | 08:30:00 | 01:39:23 | 00:00:00 | |
| BIOWL1-15 | 2026-09-06 00:08:43 | 48.40292 | 10.21491 | 352° | 9km/h | 25617m | 7m/s | -52°C | 0.6% | 24.4hPa | 2.5V | 18:12:15 | 01:39:22 | 00:00:00 | |
| DK7TD | 2026-09-06 00:08:42 | 48.40294 | 10.21491 | 1° | 5km/h | 25623m | 5.3m/s | -52.1°C | 0.6% | 24.4hPa | 2.5V | 18:12:15 | 01:39:23 | 00:00:00 | |
| BAUMI2-15 | 2026-09-06 00:08:42 | 48.40294 | 10.21491 | 2° | 9km/h | 25623m | 5.2m/s | -52.0°C | 3.9% | 24.3hPa | 2.5V | 00:00:00 | 01:39:23 | 00:00:00 | |
| DO3MHA-12 | 2026-09-06 00:08:40 | 48.40290 | 10.21492 | 347° | 11km/h | 25611m | 5.6m/s | -52.0°C | 3.9% | 24.4hPa | 2.5V | 00:00:00 | 01:39:21 | 00:00:00 | |
| OE5MMP-10 | 2026-09-06 00:08:39 | 48.40286 | 10.21493 | 344° | 11km/h | 25606m | 4.8m/s | -52.0°C | 3.9% | 24.4hPa | 2.6V | 00:00:00 | 01:39:20 | 00:00:00 | |
| DJ8HS-15 | 2026-09-06 00:08:38 | 48.40284 | 10.21494 | 337° | 9km/h | 25600m | 6.6m/s | -51.9°C | 3.9% | 24.4hPa | 2.6V | 00:00:00 | 01:39:19 | 00:00:00 | |
| BAUMI2-15 | 2026-09-06 00:08:37 | 48.40282 | 10.21496 | 310° | 9km/h | 25593m | 5.8m/s | -51.9°C | 3.8% | 24.4hPa | 2.6V | 00:00:00 | 01:39:18 | 00:00:00 | |
| DM0DOS-11 | 2026-09-06 00:08:36 | 48.40282 | 10.21510 | 274° | 15km/h | 25570m | 5.8m/s | -51.8°C | 3.8% | 24.6hPa | 2.6V | 08:30:00 | 01:39:14 | 00:00:00 | |
| DB0UT-7 | 2026-09-06 00:08:36 | 48.40282 | 10.21498 | 270° | 9km/h | 25588m | 5.1m/s | -51.9°C | 3.9% | 24.5hPa | 2.5V | 00:00:00 | 01:39:17 | 08:30:00 | |
| DO3MHA-11 | 2026-09-06 00:08:35 | 48.40282 | 10.21501 | 263° | 11km/h | 25583m | 5.7m/s | -51.8°C | 3.8% | 24.5hPa | 2.5V | 00:00:00 | 01:39:16 | 08:30:00 | |
| IW2NTF | 2026-09-06 00:08:33 | 48.40282 | 10.21516 | 277° | 15km/h | 25564m | 5.2m/s | -51.8°C | 3.8% | 24.6hPa | 2.5V | 08:30:00 | 01:39:13 | 00:00:00 | |
| DK7TD | 2026-09-06 00:08:32 | 48.40282 | 10.21516 | 277° | 15km/h | 25564m | 5.2m/s | -51.8°C | 0.6% | 24.6hPa | 2.5V | 18:12:15 | 01:39:13 | 00:00:00 | |
| BIOWL1-15 | 2026-09-06 00:08:28 | 48.40281 | 10.21530 | 307° | 7km/h | 25540m | 6.2m/s | -51.7°C | 0.5% | 24.7hPa | 2.6V | 18:12:15 | 01:39:09 | 00:00:00 | |
| IW2NTF | 2026-09-06 00:08:27 | 48.40275 | 10.21539 | 231° | 7km/h | 25505m | 5.2m/s | -51.6°C | 3.7% | 24.8hPa | 2.6V | 08:30:00 | 01:39:03 | 00:00:00 | |
| DM0DOS-11 | 2026-09-06 00:08:27 | 48.40274 | 10.21537 | 245° | 4km/h | 25510m | 5.8m/s | -51.6°C | 3.8% | 24.8hPa | 2.5V | 08:30:00 | 01:39:04 | 00:00:00 | |
| DK7TD | 2026-09-06 00:08:22 | 48.40275 | 10.21539 | 232° | 7km/h | 25505m | 5.2m/s | -51.6°C | 0.5% | 24.8hPa | 2.6V | 18:12:15 | 01:39:03 | 00:00:00 | |
| BAUMI2-15 | 2026-09-06 00:08:22 | 48.40275 | 10.21539 | 232° | 13km/h | 25505m | 5.2m/s | -51.5°C | 3.7% | 24.8hPa | 2.5V | 00:00:00 | 01:39:03 | 00:00:00 | |
| AZAK | 2026-09-06 00:08:21 | 48.40276 | 10.21542 | 244° | 11km/h | 25499m | 6.4m/s | -51.5°C | 1.0% | 24.9hPa | 2.5V | 00:00:00 | 00:00:00 | 00:00:00 | |
| DO3MHA-12 | 2026-09-06 00:08:20 | 48.40277 | 10.21547 | 254° | 11km/h | 25493m | 6.3m/s | -51.5°C | 3.7% | 24.8hPa | 2.5V | 00:00:00 | 01:39:01 | 00:00:00 | |
| SONCRA | 2026-09-06 00:08:19 | 48.40280 | 10.21557 | 246° | 15km/h | 25481m | 6.1m/s | -51.4°C | 1.0% | 24.9hPa | 2.5V | 00:00:00 | 00:00:00 | 00:00:00 | |
| DJ8HS-15 | 2026-09-06 00:08:18 | 48.40280 | 10.21557 | 247° | 9km/h | 25481m | 6.0m/s | -51.4°C | 3.7% | 24.9hPa | 2.5V | 00:00:00 | 01:38:59 | 00:00:00 | |
| BAUMI2-15 | 2026-09-06 00:08:17 | 48.40281 | 10.21562 | 239° | 11km/h | 25475m | 6.7m/s | -51.4°C | 3.7% | 24.9hPa | 2.5V | 00:00:00 | 01:38:58 | 00:00:00 | |
| DM0DOS-11 | 2026-09-06 00:08:16 | 48.40287 | 10.21575 | 274° | 7km/h | 25451m | 6.2m/s | -51.4°C | 3.7% | 25hPa | 2.5V | 08:30:00 | 01:38:54 | 00:00:00 | |
| NBG1-10 | 2026-09-06 00:08:16 | 48.40283 | 10.21566 | 230° | 9km/h | 25469m | 5.2m/s | -51.3°C | 3.7% | 24.9hPa | 2.5V | 00:00:00 | 01:38:57 | 00:00:00 | |
| DO3MHA-11 | 2026-09-06 00:08:15 | 48.40285 | 10.21569 | 232° | 5km/h | 25464m | 4.8m/s | -51.3°C | 3.6% | 24.9hPa | 2.5V | 00:00:00 | 01:38:56 | 00:00:00 | |
| DH7VM-15 | 2026-09-06 00:08:14 | 48.40285 | 10.21569 | 232° | 11km/h | 25464m | 4.8m/s | -51.4°C | 1.0% | 25.0hPa | 2.5V | 00:00:00 | 00:00:00 | 00:00:00 | |
| IW2NTF | 2026-09-06 00:08:13 | 48.40286 | 10.21578 | 289° | 5km/h | 25446m | 4.9m/s | -51.4°C | 3.6% | 25.1hPa | 2.5V | 08:30:00 | 01:38:53 | 00:00:00 | |
| DK7TD | 2026-09-06 00:08:11 | 48.40286 | 10.21579 | 286° | 4km/h | 25441m | 6m/s | -51.4°C | 0.4% | 25.1hPa | 2.6V | 18:12:15 | 01:38:52 | 00:00:00 | |
| DB0NH | 2026-09-06 00:08:10 | 48.40286 | 10.21580 | 203° | 9km/h | 25434m | 6.8m/s | -51.3°C | 3.6% | 25.0hPa | 2.6V | 00:00:00 | 01:38:51 | 08:30:00 | |
| OE5MMP-10 | 2026-09-06 00:08:09 | 48.40286 | 10.21580 | 156° | 9km/h | 25428m | 5.7m/s | -51.3°C | 3.6% | 25.1hPa | 2.6V | 00:00:00 | 01:38:50 | 00:00:00 | |
| BAUMI2-15 | 2026-09-06 00:08:07 | 48.40289 | 10.21578 | 163° | 7km/h | 25416m | 6.9m/s | -51.4°C | 3.6% | 25.1hPa | 2.6V | 00:00:00 | 01:38:48 | 00:00:00 | |
| DM0DOS-11 | 2026-09-06 00:08:07 | 48.40296 | 10.21580 | 181° | 13km/h | 25392m | 6.3m/s | -51.7°C | 3.7% | 25.2hPa | 2.5V | 08:30:00 | 01:38:44 | 00:00:00 | |
| BIOWL1-15 | 2026-09-06 00:08:07 | 48.40296 | 10.21580 | 182° | 13km/h | 25392m | 6.3m/s | -51.7°C | 0.5% | 25.2hPa | 2.5V | 18:12:15 | 01:38:44 | 00:00:00 | |
| DB0UT-7 | 2026-09-06 00:08:06 | 48.40290 | 10.21578 | 192° | 9km/h | 25410m | 5.4m/s | -51.4°C | 3.6% | 25.2hPa | 2.6V | 00:00:00 | 00:00:00 | 00:00:00 | |
| DO3MHA-11 | 2026-09-06 00:08:05 | 48.40291 | 10.21579 | 195° | 13km/h | 25405m | 4.7m/s | -51.5°C | 3.7% | 25.2hPa | 2.6V | 00:00:00 | 01:38:46 | 00:00:00 | |
| IW2NTF | 2026-09-06 00:08:03 | 48.40300 | 10.21580 | 184° | 15km/h | 25386m | 5.2m/s | -51.7°C | 3.7% | 25.3hPa | 2.5V | 08:30:00 | 01:38:43 | 00:00:00 | |
| DK7TD | 2026-09-06 00:08:00 | 48.40306 | 10.21583 | 208° | 13km/h | 25374m | 6.5m/s | -51.8°C | 0.5% | 25.3hPa | 2.5V | 18:12:15 | 01:38:41 | 00:00:00 | |
| DO3MHA-12 | 2026-09-06 00:08:00 | 48.40306 | 10.21583 | 209° | 11km/h | 25375m | 6.5m/s | -51.8°C | 3.8% | 25.3hPa | 2.6V | 00:00:00 | 01:38:41 | 00:00:00 | |
| OE5MMP-10 | 2026-09-06 00:07:59 | 48.40309 | 10.21585 | 218° | 11km/h | 25369m | 4.8m/s | -51.8°C | 3.8% | 25.3hPa | 2.6V | 00:00:00 | 01:38:40 | 00:00:00 | |
| BAUMI2-15 | 2026-09-06 00:07:57 | 48.40314 | 10.21590 | 203° | 13km/h | 25358m | 6.1m/s | -51.8°C | 3.8% | 25.4hPa | 2.5V | 00:00:00 | 01:38:38 | 00:00:00 | |
| DM0DOS-11 | 2026-09-06 00:07:56 | 48.40327 | 10.21588 | 157° | 11km/h | 25335m | 6.7m/s | -51.8°C | 3.8% | 25.5hPa | 2.6V | 08:30:00 | 01:38:34 | 00:00:00 | |
| OE5DXL-15 | 2026-09-06 00:07:56 | 48.40317 | 10.21591 | 186° | 7km/h | 25352m | 6.2m/s | -51.8°C | 3.8% | 25.4hPa | 2.5V | 00:00:00 | 00:00:00 | 00:00:00 | |
| DO3MHA-11 | 2026-09-06 00:07:55 | 48.40321 | 10.21591 | 172° | 7km/h | 25346m | 5.8m/s | -51.8°C | 3.8% | 25.4hPa | 2.5V | 00:00:00 | 01:38:36 | 00:00:00 | |
| IW2NTF | 2026-09-06 00:07:53 | 48.40329 | 10.21586 | 148° | 7km/h | 25328m | 6.5m/s | -51.8°C | 3.8% | 25.5hPa | 2.5V | 08:30:00 | 01:38:33 | 00:00:00 | |
| BIOWL1-15 | 2026-09-06 00:07:53 | 48.40327 | 10.21588 | 158° | 11km/h | 25335m | 6.7m/s | -51.8°C | 0.6% | 25.5hPa | 2.6V | 18:12:15 | 01:38:34 | 00:00:00 | |
| DK7TD | 2026-09-06 00:07:50 | 48.40332 | 10.21583 | 129° | 9km/h | 25317m | 6.4m/s | -51.8°C | 0.4% | 25.6hPa | 2.5V | 18:12:15 | 01:38:31 | 00:00:00 | |
| HARRO8 | 2026-09-06 00:07:48 | 48.40336 | 10.21574 | 115° | 5km/h | 25300m | 6.1m/s | -51.8°C | 1.0% | 25.6hPa | 2.5V | 00:00:00 | 00:00:00 | 00:00:00 | |
| BAUMI2-15 | 2026-09-06 00:07:47 | 48.40336 | 10.21574 | 116° | 4km/h | 25300m | 6.1m/s | -51.7°C | 3.8% | 25.6hPa | 2.5V | 00:00:00 | 01:38:28 | 00:00:00 | |
| DM0DOS-11 | 2026-09-06 00:07:46 | 48.40337 | 10.21572 | 194° | 4km/h | 25277m | 5.9m/s | -51.7°C | 3.8% | 25.7hPa | 2.5V | 08:30:00 | 01:38:24 | 00:00:00 | |
| PG1ADW-2 | 2026-09-06 00:07:46 | 48.40336 | 10.21572 | 104° | 5km/h | 25293m | 6.8m/s | -51.7°C | 3.8% | 25.6hPa | 2.5V | 00:00:00 | 00:00:00 | 08:30:00 | |
| IW2NTF | 2026-09-06 00:07:43 | 48.40338 | 10.21573 | 176° | 7km/h | 25271m | 6.5m/s | -51.6°C | 3.7% | 25.7hPa | 2.6V | 08:30:00 | 01:38:23 | 00:00:00 | |
| BIOWL1-15 | 2026-09-06 00:07:41 | 48.40347 | 10.21567 | 70° | 5km/h | 25229m | 6.2m/s | -51.5°C | 0.5% | 25.9hPa | 2.5V | 18:12:15 | 01:38:16 | 00:00:00 | |
| DK7TD | 2026-09-06 00:07:40 | 48.40343 | 10.21571 | 168° | 11km/h | 25259m | 5.1m/s | -51.6°C | 0.5% | 25.8hPa | 2.5V | 18:12:15 | 01:38:21 | 00:00:00 | |
| OE5MMP-10 | 2026-09-06 00:07:39 | 48.40345 | 10.21570 | 168° | 7km/h | 25254m | 6.4m/s | -51.5°C | 3.7% | 25.7hPa | 2.5V | 00:00:00 | 01:38:20 | 00:00:00 | |
| DJ8HS-15 | 2026-09-06 00:07:38 | 48.40347 | 10.21570 | 167° | 7km/h | 25247m | 6.1m/s | -51.5°C | 3.7% | 25.8hPa | 2.5V | 00:00:00 | 01:38:19 | 00:00:00 | |
| DO3MHA-11 | 2026-09-06 00:07:37 | 48.40347 | 10.21569 | 108° | 7km/h | 25241m | 5.8m/s | -51.5°C | 3.7% | 25.8hPa | 2.5V | 00:00:00 | 01:38:18 | 00:00:00 | |
| DB0UT-7 | 2026-09-06 00:07:36 | 48.40347 | 10.21569 | 72° | 9km/h | 25235m | 6.7m/s | -51.5°C | 3.7% | 25.8hPa | 2.5V | 00:00:00 | 01:38:17 | 00:00:00 | |
| DM7RM-13 | 2026-09-06 00:07:34 | 48.40347 | 10.21567 | 71° | 5km/h | 25229m | 6.2m/s | -51.5°C | 1.0% | 25.9hPa | 2.5V | 00:00:00 | 00:00:00 | 00:00:00 | |
| IW2NTF | 2026-09-06 00:07:33 | 48.40343 | 10.21560 | 27° | 9km/h | 25211m | 6.4m/s | -51.5°C | 3.7% | 26hPa | 2.5V | 08:30:00 | 01:38:13 | 00:00:00 | |
| DK7TD | 2026-09-06 00:07:29 | 48.40339 | 10.21556 | 96° | 5km/h | 25193m | 6.7m/s | -51.6°C | 0.5% | 26.1hPa | 2.5V | 18:12:15 | 01:38:10 | 00:00:00 | |
| BIOWL1-15 | 2026-09-06 00:07:27 | 48.40345 | 10.21551 | 7° | 2km/h | 25158m | 5.5m/s | -51.7°C | 0.5% | 26.2hPa | 2.5V | 18:12:15 | 01:38:04 | 00:00:00 | |
| DJ2DS-15 | 2026-09-06 00:07:27 | 48.40343 | 10.21551 | 162° | 5km/h | 25176m | 6.3m/s | 0°C | -1.0% | -1.0hPa | 2.5V | 00:00:00 | 00:00:00 | 00:00:00 | |
| PG1ADW-2 | 2026-09-06 00:07:26 | 48.40343 | 10.21551 | 163° | 9km/h | 25176m | 6.3m/s | -51.6°C | 3.7% | 26.1hPa | 2.5V | 00:00:00 | 00:00:00 | 00:00:00 | |
| IW2NTF | 2026-09-06 00:07:24 | 48.40344 | 10.21550 | 54° | 4km/h | 25152m | 6.5m/s | -51.7°C | 3.7% | 26.2hPa | 2.5V | 08:30:00 | 01:38:03 | 00:00:00 | |
| DK7TD | 2026-09-06 00:07:18 | 48.40335 | 10.21541 | 25° | 18km/h | 25129m | 5.2m/s | -51.7°C | 0.5% | 26.3hPa | 2.5V | 18:12:15 | 01:37:59 | 00:00:00 | |
| DJ8HS-15 | 2026-09-06 00:07:18 | 48.40335 | 10.21541 | 26° | 15km/h | 25129m | 5.1m/s | -51.7°C | 3.8% | 26.3hPa | 2.6V | 00:00:00 | 01:37:59 | 00:00:00 | |
| DO3MHA-11 | 2026-09-06 00:07:17 | 48.40330 | 10.21537 | 32° | 13km/h | 25124m | 5.3m/s | -51.7°C | 3.8% | 26.3hPa | 2.6V | 00:00:00 | 01:37:58 | 00:00:00 | |
| DM0DOS-11 | 2026-09-06 00:07:16 | 48.40318 | 10.21522 | 27° | 11km/h | 25101m | 6.3m/s | -51.7°C | 3.8% | 26.4hPa | 2.6V | 08:30:00 | 01:37:54 | 00:00:00 | |
| BIOWL1-15 | 2026-09-06 00:07:14 | 48.40320 | 10.21525 | 41° | 15km/h | 25107m | 5.2m/s | -51.7°C | 0.6% | 26.4hPa | 2.6V | 18:12:15 | 01:37:55 | 00:00:00 | |
| DK7TD | 2026-09-06 00:07:08 | 48.40307 | 10.21522 | 32° | 5km/h | 25074m | 5.5m/s | -51.6°C | 0.5% | 26.6hPa | 2.6V | 18:12:15 | 01:37:49 | 00:00:00 | |
| DO3MHA-11 | 2026-09-06 00:07:07 | 48.40306 | 10.21521 | 35° | 16km/h | 25069m | 4.6m/s | -51.5°C | 3.7% | 26.5hPa | 2.6V | 00:00:00 | 01:37:48 | 00:00:00 | |
| DM0DOS-11 | 2026-09-06 00:07:06 | 48.40294 | 10.21519 | 359° | 18km/h | 25047m | 5m/s | -51.5°C | 3.7% | 26.6hPa | 2.6V | 08:30:00 | 01:37:44 | 00:00:00 | |
| PG1ADW-2 | 2026-09-06 00:07:06 | 48.40304 | 10.21519 | 21° | 16km/h | 25064m | 5.3m/s | -51.5°C | 3.7% | 26.5hPa | 2.6V | 00:00:00 | 00:00:00 | 00:00:00 | |
| IW2NTF | 2026-09-06 00:07:05 | 48.40289 | 10.21518 | 6° | 20km/h | 25041m | 6.3m/s | -51.5°C | 3.7% | 26.7hPa | 2.6V | 08:30:00 | 01:37:43 | 00:00:00 | |
| BIOWL1-15 | 2026-09-06 00:07:02 | 48.40279 | 10.21515 | 18° | 20km/h | 25030m | 4.6m/s | -51.5°C | 0.5% | 26.7hPa | 2.5V | 18:12:15 | 01:37:41 | 00:00:00 | |
| DK7TD | 2026-09-06 00:06:57 | 48.40264 | 10.21510 | 1° | 18km/h | 25013m | 5.3m/s | -51.5°C | 0.4% | 26.8hPa | 2.6V | 18:12:15 | 01:37:38 | 00:00:00 | |
| DM0DOS-11 | 2026-09-06 00:06:56 | 48.40251 | 10.21510 | 351° | 11km/h | 24991m | 5m/s | -51.6°C | 3.7% | 26.9hPa | 2.5V | 08:30:00 | 01:37:34 | 00:00:00 | |
| OE5DXL-15 | 2026-09-06 00:06:56 | 48.40260 | 10.21510 | 1° | 20km/h | 25008m | 5.6m/s | -51.4°C | 3.6% | 26.7hPa | 2.6V | 00:00:00 | 00:00:00 | 00:00:00 | |
| IW2NTF | 2026-09-06 00:06:55 | 48.40248 | 10.21511 | 342° | 13km/h | 24985m | 6.2m/s | -51.6°C | 3.7% | 26.9hPa | 2.5V | 08:30:00 | 01:37:33 | 00:00:00 | |
| BIOWL1-15 | 2026-09-06 00:06:47 | 48.40199 | 10.21518 | 358° | 24km/h | 24934m | 6.4m/s | -52.1°C | 0.6% | 27.1hPa | 2.5V | 18:12:15 | 01:37:24 | 00:00:00 | |
| DO3MHA-11 | 2026-09-06 00:06:47 | 48.40225 | 10.21517 | 3° | 24km/h | 24957m | 5.0m/s | -51.6°C | 3.7% | 27.0hPa | 2.5V | 00:00:00 | 01:37:28 | 00:00:00 | |
| DM0DOS-11 | 2026-09-06 00:06:46 | 48.40199 | 10.21518 | 357° | 24km/h | 24934m | 6.4m/s | -52.1°C | 3.9% | 27.1hPa | 2.5V | 08:30:00 | 01:37:24 | 00:00:00 | |
| DK7TD | 2026-09-06 00:06:46 | 48.40219 | 10.21517 | 359° | 26km/h | 24951m | 6.6m/s | -51.7°C | 0.5% | 27hPa | 2.5V | 18:12:15 | 01:37:27 | 00:00:00 | |
| OE5DRO-10 | 2026-09-06 00:06:46 | 48.40219 | 10.21517 | 360° | 24km/h | 24951m | 6.6m/s | -51.7°C | 3.7% | 27.0hPa | 2.5V | 00:00:00 | 00:00:00 | 00:00:00 | |
| IW2NTF | 2026-09-06 00:06:45 | 48.40193 | 10.21519 | 354° | 20km/h | 24927m | 5.3m/s | -52.1°C | 3.9% | 27.2hPa | 2.5V | 08:30:00 | 01:37:23 | 00:00:00 | |
| DF7PN | 2026-09-06 00:06:44 | 48.40199 | 10.21518 | 357° | 24km/h | 24934m | 6.4m/s | -52.1°C | 1.1% | 27.1hPa | 2.6V | 00:00:00 | 00:00:00 | 00:00:00 | |
| DO3MHA-12 | 2026-09-06 00:06:40 | 48.40184 | 10.21522 | 336° | 22km/h | 24917m | 6.1m/s | -52.0°C | 3.9% | 27.1hPa | 2.6V | 00:00:00 | 01:37:21 | 00:00:00 | |
| AZAK | 2026-09-06 00:06:39 | 48.40179 | 10.21526 | 330° | 22km/h | 24911m | 5.8m/s | -52.1°C | 1.1% | 27.2hPa | 2.6V | 00:00:00 | 00:00:00 | 00:00:00 | |
| IW2NTF | 2026-09-06 00:06:38 | 48.40108 | 10.21578 | 338° | 9km/h | 24820m | 6.3m/s | -51.6°C | 3.8% | 27.6hPa | 2.6V | 08:30:00 | 01:37:03 | 00:00:00 | |
| DO3MHA-11 | 2026-09-06 00:06:37 | 48.40170 | 10.21534 | 332° | 22km/h | 24901m | 5.1m/s | -52.1°C | 3.9% | 27.2hPa | 2.6V | 00:00:00 | 01:37:18 | 00:00:00 | |
| DM0DOS-11 | 2026-09-06 00:06:36 | 48.40150 | 10.21543 | 347° | 24km/h | 24880m | 4.9m/s | -52°C | 3.9% | 27.3hPa | 2.6V | 08:30:00 | 01:37:14 | 00:00:00 | |
| DK7TD | 2026-09-06 00:06:36 | 48.40165 | 10.21538 | 338° | 20km/h | 24895m | 6.3m/s | -52.1°C | 0.6% | 27.3hPa | 2.5V | 18:12:15 | 01:37:17 | 00:00:00 | |
| BIOWL1-15 | 2026-09-06 00:06:32 | 48.40104 | 10.21580 | 338° | 9km/h | 24809m | 4.2m/s | -51.6°C | 0.6% | 27.7hPa | 2.5V | 18:12:15 | 01:37:01 | 00:00:00 | |
| DK7TD | 2026-09-06 00:06:31 | 48.40118 | 10.21569 | 325° | 11km/h | 24842m | 4.9m/s | -51.8°C | 0.5% | 27.5hPa | 2.5V | 18:12:15 | 01:37:07 | 00:00:00 | |
| DM0DOS-11 | 2026-09-06 00:06:31 | 48.40110 | 10.21576 | 331° | 11km/h | 24825m | 4.7m/s | -51.7°C | 3.9% | 27.6hPa | 2.5V | 08:30:00 | 01:37:04 | 00:00:00 | |
| BIOWL1-15 | 2026-09-06 00:06:17 | 48.40087 | 10.21609 | 293° | 15km/h | 24775m | 6.3m/s | -51.5°C | 0.5% | 27.8hPa | 2.5V | 18:12:15 | 01:36:55 | 00:00:00 | |
| DO3MHA-11 | 2026-09-06 00:06:17 | 48.40095 | 10.21590 | 311° | 11km/h | 24793m | 5.7m/s | -51.5°C | 3.8% | 27.7hPa | 2.5V | 00:00:00 | 01:36:58 | 00:00:00 | |
| DM0DOS-11 | 2026-09-06 00:06:16 | 48.40086 | 10.21614 | 281° | 9km/h | 24770m | 5.6m/s | -51.4°C | 3.8% | 27.8hPa | 2.5V | 08:30:00 | 01:36:54 | 00:00:00 | |
| DK7TD | 2026-09-06 00:06:15 | 48.40089 | 10.21604 | 301° | 20km/h | 24781m | 5.8m/s | -51.5°C | 0.6% | 27.8hPa | 2.5V | 18:12:15 | 01:36:56 | 00:00:00 | |
| IW2NTF | 2026-09-06 00:06:14 | 48.40086 | 10.21617 | 275° | 7km/h | 24764m | 5.5m/s | -51.4°C | 3.8% | 27.9hPa | 2.5V | 08:30:00 | 01:36:53 | 00:00:00 | |
| SONCRA | 2026-09-06 00:06:14 | 48.40087 | 10.21609 | 293° | 15km/h | 24776m | 6.3m/s | -51.5°C | 1.0% | 27.8hPa | 2.5V | 00:00:00 | 00:00:00 | 00:00:00 | |
| DF7PN | 2026-09-06 00:06:13 | 48.40086 | 10.21617 | 275° | 5km/h | 24764m | 5.5m/s | -51.4°C | 1.0% | 27.9hPa | 2.5V | 00:00:00 | 00:00:00 | 00:00:00 | |
| DF9NV-10 | 2026-09-06 00:06:12 | 48.40086 | 10.21617 | 277° | 7km/h | 24764m | 5.5m/s | -51.4°C | 1.1% | 27.9hPa | 2.5V | 00:00:00 | 00:00:00 | 00:00:00 | |
| DM7RM-13 | 2026-09-06 00:06:11 | 48.40086 | 10.21619 | 289° | 5km/h | 24758m | 7.0m/s | -51.3°C | 1.0% | 27.8hPa | 2.5V | 00:00:00 | 00:00:00 | 00:00:00 | |
| DB0NH | 2026-09-06 00:06:10 | 48.40085 | 10.21621 | 314° | 13km/h | 24752m | 5.2m/s | -51.2°C | 3.8% | 27.8hPa | 2.5V | 00:00:00 | 01:36:51 | 00:00:00 | |
| OE5DRO-10 | 2026-09-06 00:06:09 | 48.40084 | 10.21621 | 68° | 15km/h | 24742m | 6.6m/s | -51.2°C | 3.7% | 27.9hPa | 2.5V | 00:00:00 | 00:00:00 | 00:00:00 | |
| IW2NTF | 2026-09-06 00:06:08 | 48.40076 | 10.21624 | 307° | 16km/h | 24710m | 4m/s | -51.1°C | 3.7% | 28.1hPa | 2.5V | 08:30:00 | 01:36:43 | 00:00:00 | |
| DB0UT-7 | 2026-09-06 00:06:07 | 48.40084 | 10.21618 | 66° | 15km/h | 24731m | 3.8m/s | -51.2°C | 3.7% | 27.9hPa | 2.5V | 00:00:00 | 00:00:00 | 00:00:00 | |
| DF1GD-15 | 2026-09-06 00:06:06 | 48.40084 | 10.21618 | 66° | 4km/h | 24731m | 3.8m/s | -51.2°C | 1.0% | 28.0hPa | 2.5V | 00:00:00 | 00:00:00 | 00:00:00 | |
| DM0DOS-11 | 2026-09-06 00:06:04 | 48.40079 | 10.21620 | 321° | 15km/h | 24715m | 5.3m/s | -51.1°C | 3.8% | 28.1hPa | 2.5V | 08:30:00 | 01:36:44 | 00:00:00 | |
| DK7TD | 2026-09-06 00:06:04 | 48.40081 | 10.21617 | 338° | 9km/h | 24720m | 6.3m/s | -51.2°C | 0.5% | 28hPa | 2.6V | 18:12:15 | 01:36:45 | 00:00:00 | |
| NBG1-10 | 2026-09-06 00:06:04 | 48.40081 | 10.21617 | 338° | 13km/h | 24721m | 6.3m/s | -51.2°C | 3.7% | 28.0hPa | 2.6V | 00:00:00 | 01:36:45 | 00:00:00 | |
| DO3MHA-12 | 2026-09-06 00:06:00 | 48.40073 | 10.21635 | 267° | 15km/h | 24700m | 6.1m/s | -51.0°C | 3.7% | 28.1hPa | 2.6V | 00:00:00 | 01:36:41 | 00:00:00 | |
| OE5MMP-10 | 2026-09-06 00:05:59 | 48.40075 | 10.21640 | 242° | 13km/h | 24694m | 5.9m/s | -50.9°C | 3.7% | 28.1hPa | 2.6V | 00:00:00 | 01:36:40 | 00:00:00 | |
| AZAK | 2026-09-06 00:05:58 | 48.40077 | 10.21646 | 229° | 20km/h | 24688m | 5.5m/s | -50.9°C | 1.0% | 28.1hPa | 2.6V | 00:00:00 | 00:00:00 | 00:00:00 | |
| DM0DOS-11 | 2026-09-06 00:05:57 | 48.40094 | 10.21661 | 151° | 9km/h | 24660m | 5.7m/s | -50.8°C | 3.5% | 28.3hPa | 2.6V | 08:30:00 | 01:36:34 | 00:00:00 | |
| BIOWL1-15 | 2026-09-06 00:05:55 | 48.40088 | 10.21660 | 207° | 15km/h | 24671m | 4.6m/s | -50.8°C | 0.5% | 28.2hPa | 2.5V | 18:12:15 | 01:36:36 | 00:00:00 | |
| IW2NTF | 2026-09-06 00:05:55 | 48.40095 | 10.21659 | 112° | 7km/h | 24654m | 4.6m/s | -50.7°C | 3.5% | 28.3hPa | 2.5V | 08:30:00 | 01:36:33 | 00:00:00 | |
| DK7TD | 2026-09-06 00:05:54 | 48.40091 | 10.21662 | 186° | 11km/h | 24666m | 6.9m/s | -50.8°C | 0.4% | 28.2hPa | 2.6V | 18:12:15 | 01:36:35 | 00:00:00 | |
| DC4HF-4 | 2026-09-06 00:05:51 | 48.40093 | 10.21657 | 319° | 7km/h | 24638m | 4.5m/s | -50.9°C | 1.0% | 28.4hPa | 2.6V | 00:00:00 | 00:00:00 | 00:00:00 | |
| OE5MMP-10 | 2026-09-06 00:05:50 | 48.40093 | 10.21657 | 320° | 16km/h | 24638m | 4.5m/s | -50.8°C | 3.5% | 28.3hPa | 2.6V | 00:00:00 | 01:36:30 | 00:00:00 | |
| IW2NTF | 2026-09-06 00:05:48 | 48.40104 | 10.21691 | 222° | 22km/h | 24598m | 4.8m/s | -51.1°C | 3.7% | 28.6hPa | 2.6V | 08:30:00 | 01:36:23 | 00:00:00 | |
| BIOWL1-15 | 2026-09-06 00:05:44 | 48.40097 | 10.21679 | 230° | 22km/h | 24610m | 5.6m/s | -51.1°C | 0.4% | 28.5hPa | 2.5V | 18:12:15 | 01:36:25 | 00:00:00 | |
| DM0DOS-11 | 2026-09-06 00:05:44 | 48.40100 | 10.21685 | 228° | 22km/h | 24604m | 6.3m/s | -51.1°C | 3.6% | 28.5hPa | 2.5V | 08:30:00 | 01:36:24 | 00:00:00 | |
| DK7TD | 2026-09-06 00:05:43 | 48.40100 | 10.21685 | 229° | 22km/h | 24604m | 6.3m/s | -51.1°C | 0.4% | 28.5hPa | 2.5V | 18:12:15 | 01:36:24 | 00:00:00 | |
| DF7PN | 2026-09-06 00:05:42 | 48.40109 | 10.21697 | 213° | 20km/h | 24594m | 5.1m/s | -51.1°C | 1.0% | 28.6hPa | 2.5V | 00:00:00 | 00:00:00 | 00:00:00 | |
| DO3MHA-12 | 2026-09-06 00:05:40 | 48.40113 | 10.21700 | 201° | 9km/h | 24588m | 6.8m/s | -51.0°C | 3.6% | 28.5hPa | 2.5V | 00:00:00 | 01:36:21 | 00:00:00 | |
| OE5MMP-10 | 2026-09-06 00:05:39 | 48.40119 | 10.21702 | 188° | 7km/h | 24582m | 5.7m/s | -51.0°C | 3.6% | 28.6hPa | 2.5V | 00:00:00 | 01:36:20 | 00:00:00 | |
| DJ8HS-15 | 2026-09-06 00:05:38 | 48.40123 | 10.21703 | 179° | 9km/h | 24576m | 4.5m/s | -51.0°C | 3.6% | 28.6hPa | 2.5V | 00:00:00 | 01:36:19 | 00:00:00 | |
| DO3MHA-11 | 2026-09-06 00:05:37 | 48.40127 | 10.21702 | 174° | 7km/h | 24571m | 6.3m/s | -51.1°C | 3.6% | 28.6hPa | 2.5V | 00:00:00 | 01:36:18 | 00:00:00 | |
| DM0DOS-11 | 2026-09-06 00:05:36 | 48.40130 | 10.21702 | 199° | 2km/h | 24548m | 5.8m/s | -51.1°C | 3.7% | 28.8hPa | 2.5V | 08:30:00 | 01:36:14 | 00:00:00 | |
| DB0UT-7 | 2026-09-06 00:05:36 | 48.40129 | 10.21702 | 169° | 11km/h | 24565m | 5.9m/s | -51.1°C | 3.6% | 28.7hPa | 2.6V | 00:00:00 | 01:36:17 | 00:00:00 | |
| KANTATE | 2026-09-06 00:05:35 | 48.40129 | 10.21702 | 169° | 5km/h | 24565m | 6.0m/s | -51.1°C | 1.0% | 28.7hPa | 2.5V | 00:00:00 | 00:00:00 | 00:00:00 | |
| IW2NTF | 2026-09-06 00:05:34 | 48.40131 | 10.21702 | 216° | 5km/h | 24543m | 4.9m/s | -51.1°C | 3.6% | 28.8hPa | 2.5V | 08:30:00 | 01:36:13 | 00:00:00 | |
| DK7TD | 2026-09-06 00:05:33 | 48.40130 | 10.21702 | 200° | 2km/h | 24548m | 5.8m/s | -51.1°C | 0.5% | 28.8hPa | 2.5V | 18:12:15 | 01:36:14 | 00:00:00 | |
| NBG1-10 | 2026-09-06 00:05:31 | 48.40132 | 10.21704 | 234° | 13km/h | 24538m | 5.3m/s | -51.0°C | 3.6% | 28.8hPa | 2.6V | 00:00:00 | 01:36:12 | 00:00:00 | |
| DO3MHA-12 | 2026-09-06 00:05:30 | 48.40133 | 10.21707 | 244° | 13km/h | 24532m | 6.6m/s | -51.0°C | 3.6% | 28.8hPa | 2.5V | 00:00:00 | 01:36:11 | 00:00:00 | |
| OE5MMP-10 | 2026-09-06 00:05:29 | 48.40134 | 10.21711 | 248° | 13km/h | 24526m | 5.4m/s | -51.0°C | 3.6% | 28.8hPa | 2.5V | 00:00:00 | 01:36:10 | 08:30:00 | |
| DO3MHA-11 | 2026-09-06 00:05:27 | 48.40139 | 10.21720 | 222° | 11km/h | 24516m | 5.4m/s | -51.0°C | 3.5% | 28.9hPa | 2.5V | 00:00:00 | 01:36:08 | 08:30:00 | |
| IW2NTF | 2026-09-06 00:05:26 | 48.40160 | 10.21728 | 191° | 2km/h | 24476m | 6.5m/s | -51.3°C | 3.6% | 29.1hPa | 2.5V | 08:30:00 | 01:36:01 | 00:00:00 | |
| BIOWL1-15 | 2026-09-06 00:05:26 | 48.40164 | 10.21743 | 230° | 15km/h | 24443m | 6.5m/s | -51.4°C | 0.4% | 29.2hPa | 2.6V | 18:12:15 | 01:35:55 | 00:00:00 | |
| DF1GD-15 | 2026-09-06 00:05:24 | 48.40151 | 10.21726 | 184° | 16km/h | 24499m | 4.6m/s | -51.2°C | 1.0% | 29.0hPa | 2.6V | 00:00:00 | 00:00:00 | 00:00:00 | |
| DM0DOS-11 | 2026-09-06 00:05:24 | 48.40155 | 10.21727 | 184° | 13km/h | 24493m | 6.3m/s | -51.2°C | 3.6% | 29hPa | 2.5V | 08:30:00 | 01:36:04 | 00:00:00 | |
| BAUMI2-15 | 2026-09-06 00:05:23 | 48.40157 | 10.21727 | 191° | 4km/h | 24488m | 5.5m/s | -51.2°C | 3.6% | 29.0hPa | 2.6V | 00:00:00 | 01:36:03 | 00:00:00 | |
| DK5PH-5 | 2026-09-06 00:05:22 | 48.40159 | 10.21728 | 200° | 13km/h | 24482m | 5.3m/s | -51.2°C | 3.6% | 29.0hPa | 2.6V | 00:00:00 | 01:36:02 | 00:00:00 | |
| DK7TD | 2026-09-06 00:05:22 | 48.40157 | 10.21727 | 191° | 7km/h | 24487m | 5.5m/s | -51.3°C | 0.4% | 29.1hPa | 2.5V | 18:12:15 | 01:36:03 | 00:00:00 | |
| DO3MHA-12 | 2026-09-06 00:05:20 | 48.40160 | 10.21728 | 192° | 11km/h | 24476m | 6.5m/s | -51.2°C | 3.6% | 29.1hPa | 2.6V | 00:00:00 | 01:36:01 | 00:00:00 | |
| OE5MMP-10 | 2026-09-06 00:05:19 | 48.40160 | 10.21728 | 184° | 11km/h | 24470m | 5.7m/s | -51.2°C | 3.6% | 29.1hPa | 2.6V | 00:00:00 | 01:36:00 | 00:00:00 | |
| DJ8HS-15 | 2026-09-06 00:05:18 | 48.40161 | 10.21729 | 241° | 15km/h | 24465m | 4.5m/s | -51.2°C | 3.6% | 29.1hPa | 2.6V | 00:00:00 | 01:35:59 | 00:00:00 | |
| DO3MHA-11 | 2026-09-06 00:05:17 | 48.40161 | 10.21730 | 260° | 15km/h | 24460m | 6.3m/s | -51.2°C | 3.6% | 29.1hPa | 2.6V | 00:00:00 | 01:35:58 | 00:00:00 | |
| DM0DOS-11 | 2026-09-06 00:05:16 | 48.40167 | 10.21746 | 215° | 16km/h | 24436m | 6.1m/s | -51.5°C | 3.7% | 29.3hPa | 2.6V | 08:30:00 | 01:35:54 | 00:00:00 | |
| BIOWL1-15 | 2026-09-06 00:05:13 | 48.40171 | 10.21750 | 209° | 18km/h | 24431m | 5.5m/s | -51.5°C | 0.4% | 29.3hPa | 2.6V | 18:12:15 | 01:35:53 | 00:00:00 | |
| IW2NTF | 2026-09-06 00:05:13 | 48.40185 | 10.21759 | 187° | 13km/h | 24408m | 6.8m/s | -51.5°C | 3.7% | 29.4hPa | 2.6V | 08:30:00 | 01:35:49 | 00:00:00 | |
| DK7TD | 2026-09-06 00:05:11 | 48.40175 | 10.21753 | 210° | 16km/h | 24425m | 6.6m/s | -51.5°C | 0.5% | 29.3hPa | 2.5V | 18:12:15 | 01:35:52 | 00:00:00 | |
| DF9NV-10 | 2026-09-06 00:05:11 | 48.40174 | 10.21753 | 211° | 16km/h | 24425m | 6.6m/s | -51.5°C | 1.0% | 29.3hPa | 2.5V | 00:00:00 | 00:00:00 | 00:00:00 | |
| DO3MHA-12 | 2026-09-06 00:05:10 | 48.40178 | 10.21756 | 208° | 15km/h | 24419m | 5.0m/s | -51.5°C | 3.6% | 29.3hPa | 2.5V | 00:00:00 | 01:35:51 | 00:00:00 | |
| DM7RM-13 | 2026-09-06 00:05:09 | 48.40181 | 10.21758 | 199° | 15km/h | 24414m | 4.7m/s | -51.5°C | 1.0% | 29.4hPa | 2.6V | 00:00:00 | 00:00:00 | 00:00:00 | |
| DO3MHA-11 | 2026-09-06 00:05:08 | 48.40188 | 10.21760 | 181° | 16km/h | 24402m | 5.3m/s | -51.5°C | 3.7% | 29.4hPa | 2.6V | 00:00:00 | 01:35:48 | 00:00:00 | |
| DB0UT-7 | 2026-09-06 00:05:07 | 48.40191 | 10.21760 | 187° | 15km/h | 24397m | 4.6m/s | -51.5°C | 3.6% | 29.4hPa | 2.6V | 00:00:00 | 00:00:00 | 00:00:00 | |
| PG1ADW-2 | 2026-09-06 00:05:06 | 48.40191 | 10.21760 | 187° | 15km/h | 24397m | 4.6m/s | -51.5°C | 3.6% | 29.4hPa | 2.6V | 00:00:00 | 00:00:00 | 00:00:00 | |
| DM0DOS-11 | 2026-09-06 00:05:04 | 48.40199 | 10.21767 | 222° | 15km/h | 24380m | 4.7m/s | -51.6°C | 3.6% | 29.5hPa | 2.6V | 08:30:00 | 01:35:44 | 00:00:00 | |
| DK7TD | 2026-09-06 00:05:02 | 48.40206 | 10.21773 | 202° | 18km/h | 24369m | 5.9m/s | -51.6°C | 0.5% | 29.6hPa | 2.6V | 18:12:15 | 01:35:42 | 00:00:00 | |
| IW2NTF | 2026-09-06 00:05:00 | 48.40220 | 10.21780 | 195° | 20km/h | 24352m | 5.8m/s | -51.5°C | 3.6% | 29.7hPa | 2.5V | 08:30:00 | 01:35:39 | 00:00:00 | |
| BIOWL1-15 | 2026-09-06 00:04:58 | 48.40225 | 10.21781 | 190° | 18km/h | 24346m | 5.2m/s | -51.5°C | 0.4% | 29.7hPa | 2.6V | 18:12:15 | 01:35:38 | 00:00:00 | |
| DO3MHA-11 | 2026-09-06 00:04:57 | 48.40225 | 10.21781 | 190° | 15km/h | 24347m | 5.1m/s | -51.4°C | 3.6% | 29.7hPa | 2.6V | 00:00:00 | 01:35:38 | 00:00:00 | |
| DM0DOS-11 | 2026-09-06 00:04:56 | 48.40242 | 10.21776 | 155° | 13km/h | 24324m | 5.7m/s | -51.6°C | 3.6% | 29.8hPa | 2.5V | 08:30:00 | 01:35:34 | 00:00:00 | |
| OE5DXL-15 | 2026-09-06 00:04:56 | 48.40230 | 10.21782 | 179° | 16km/h | 24341m | 6.0m/s | -51.5°C | 3.6% | 29.7hPa | 2.5V | 00:00:00 | 00:00:00 | 00:00:00 | |
| AZAK | 2026-09-06 00:04:55 | 48.40234 | 10.21781 | 165° | 18km/h | 24335m | 6.0m/s | -51.5°C | 1.0% | 29.7hPa | 2.5V | 00:00:00 | 00:00:00 | 00:00:00 | |
| IW2NTF | 2026-09-06 00:04:54 | 48.40255 | 10.21778 | 190° | 16km/h | 24296m | 5.4m/s | -51.9°C | 3.7% | 29.9hPa | 2.5V | 08:30:00 | 01:35:29 | 00:00:00 | |
| DK7TD | 2026-09-06 00:04:50 | 48.40249 | 10.21776 | 197° | 11km/h | 24307m | 5.1m/s | -51.7°C | 0.3% | 29.9hPa | 2.6V | 18:12:15 | 01:35:31 | 00:00:00 | |
| DO3MHA-12 | 2026-09-06 00:04:50 | 48.40249 | 10.21776 | 198° | 20km/h | 24308m | 5.0m/s | -51.6°C | 3.6% | 29.8hPa | 2.5V | 00:00:00 | 01:35:31 | 00:00:00 | |
| DM7RM-13 | 2026-09-06 00:04:49 | 48.40251 | 10.21777 | 194° | 13km/h | 24302m | 6.4m/s | -51.8°C | 1.0% | 29.9hPa | 2.5V | 00:00:00 | 00:00:00 | 00:00:00 | |
| BAUMI2-15 | 2026-09-06 00:04:48 | 48.40260 | 10.21780 | 193° | 24km/h | 24291m | 5.2m/s | -52.0°C | 3.7% | 29.9hPa | 2.5V | 00:00:00 | 01:35:28 | 00:00:00 | |
| DO3MHA-11 | 2026-09-06 00:04:47 | 48.40260 | 10.21780 | 193° | 18km/h | 24291m | 5.2m/s | -52.0°C | 3.7% | 29.9hPa | 2.5V | 00:00:00 | 01:35:28 | 00:00:00 | |
| BIOWL1-15 | 2026-09-06 00:04:47 | 48.40271 | 10.21785 | 202° | 26km/h | 24279m | 5.8m/s | -52.2°C | 0.5% | 30hPa | 2.6V | 18:12:15 | 01:35:26 | 00:00:00 | |
| PG1ADW-2 | 2026-09-06 00:04:46 | 48.40265 | 10.21782 | 198° | 16km/h | 24285m | 6.0m/s | -52.1°C | 3.8% | 29.9hPa | 2.5V | 00:00:00 | 00:00:00 | 08:30:00 | |
| DM0DOS-11 | 2026-09-06 00:04:45 | 48.40283 | 10.21791 | 189° | 24km/h | 24269m | 5.6m/s | -52.3°C | 3.8% | 30hPa | 2.5V | 08:30:00 | 01:35:24 | 00:00:00 | |
| DF1GD-15 | 2026-09-06 00:04:43 | 48.40283 | 10.21791 | 191° | 24km/h | 24269m | 5.6m/s | -52.3°C | 1.1% | 30.0hPa | 2.5V | 00:00:00 | 00:00:00 | 00:00:00 | |
| BAUMI2-15 | 2026-09-06 00:04:42 | 48.40289 | 10.21791 | 177° | 13km/h | 24263m | 5.8m/s | -52.3°C | 3.9% | 30.0hPa | 2.5V | 00:00:00 | 01:35:23 | 00:00:00 | |
| IW2NTF | 2026-09-06 00:04:41 | 48.40300 | 10.21785 | 189° | 0km/h | 24230m | 5.8m/s | -52.4°C | 3.9% | 30.2hPa | 2.5V | 08:30:00 | 01:35:17 | 00:00:00 | |
| DK7TD | 2026-09-06 00:04:39 | 48.40299 | 10.21786 | 146° | 7km/h | 24247m | 6.5m/s | -52.4°C | 0.6% | 30.1hPa | 2.6V | 18:12:15 | 01:35:20 | 00:00:00 | |
| BIOWL1-15 | 2026-09-06 00:04:37 | 48.40300 | 10.21785 | 159° | 0km/h | 24236m | 5m/s | -52.4°C | 0.6% | 30.2hPa | 2.5V | 18:12:15 | 01:35:18 | 00:00:00 | |
| DO3MHA-11 | 2026-09-06 00:04:37 | 48.40300 | 10.21785 | 160° | 15km/h | 24236m | 5.0m/s | -52.4°C | 3.9% | 30.2hPa | 2.5V | 00:00:00 | 01:35:18 | 00:00:00 | |
| DB0UT-7 | 2026-09-06 00:04:36 | 48.40301 | 10.21785 | 190° | 24km/h | 24231m | 5.7m/s | -52.4°C | 3.9% | 30.2hPa | 2.5V | 00:00:00 | 01:35:17 | 00:00:00 | |
| DB0ND-19 | 2026-09-06 00:04:34 | 48.40302 | 10.21785 | 188° | 7km/h | 24220m | 4.8m/s | -52.4°C | 1.0% | 30.3hPa | 2.5V | 00:00:00 | 00:00:00 | 00:00:00 | |
| BAUMI2-15 | 2026-09-06 00:04:32 | 48.40308 | 10.21789 | 217° | 24km/h | 24210m | 6.3m/s | -52.2°C | 3.8% | 30.3hPa | 2.5V | 00:00:00 | 01:35:13 | 00:00:00 | |
| DO9HM | 2026-09-06 00:04:31 | 48.40311 | 10.21793 | 221° | 22km/h | 24204m | 5.3m/s | -52.3°C | 1.1% | 30.4hPa | 2.5V | 00:00:00 | 00:00:00 | 00:00:00 | |
| DM7RM-13 | 2026-09-06 00:04:30 | 48.40322 | 10.21804 | 207° | 27km/h | 24194m | 6.1m/s | -52.2°C | 1.1% | 30.4hPa | 2.5V | 00:00:00 | 00:00:00 | 00:00:00 | |
| DK7TD | 2026-09-06 00:04:29 | 48.40322 | 10.21804 | 206° | 27km/h | 24194m | 6.1m/s | -52.2°C | 0.5% | 30.4hPa | 2.5V | 18:12:15 | 01:35:10 | 00:00:00 | |
| OE5DRO-10 | 2026-09-06 00:04:29 | 48.40329 | 10.21808 | 196° | 27km/h | 24188m | 6.0m/s | -52.2°C | 3.8% | 30.4hPa | 2.5V | 00:00:00 | 00:00:00 | 00:00:00 | |
| IW2NTF | 2026-09-06 00:04:28 | 48.40351 | 10.21812 | 183° | 26km/h | 24171m | 5.7m/s | -52.2°C | 3.7% | 30.5hPa | 2.5V | 08:30:00 | 01:35:06 | 00:00:00 | |
| BIOWL1-15 | 2026-09-06 00:04:27 | 48.40336 | 10.21810 | 189° | 31km/h | 24182m | 5.6m/s | -52.2°C | 0.5% | 30.5hPa | 2.6V | 18:12:15 | 01:35:08 | 00:00:00 | |
| PG1ADW-2 | 2026-09-06 00:04:27 | 48.40344 | 10.21812 | 185° | 27km/h | 24176m | 5.4m/s | -52.1°C | 3.7% | 30.4hPa | 2.5V | 00:00:00 | 00:00:00 | 00:00:00 | |
| DM0DOS-11 | 2026-09-06 00:04:25 | 48.40363 | 10.21812 | 172° | 20km/h | 24160m | 5.7m/s | -52.2°C | 3.8% | 30.6hPa | 2.5V | 08:30:00 | 01:35:04 | 00:00:00 | |
| NBG1-10 | 2026-09-06 00:04:25 | 48.40351 | 10.21812 | 184° | 29km/h | 24171m | 5.7m/s | -52.1°C | 3.7% | 30.5hPa | 2.6V | 00:00:00 | 01:35:06 | 00:00:00 | |
| SONDE2-11 | 2026-09-06 00:04:23 | 48.40363 | 10.21812 | 172° | 18km/h | 24160m | 5.7m/s | -52.2°C | 1.0% | 30.6hPa | 2.6V | 00:00:00 | 00:00:00 | 00:00:00 | |
| BAUMI2-15 | 2026-09-06 00:04:22 | 48.40367 | 10.21811 | 164° | 15km/h | 24154m | 6.7m/s | -52.2°C | 3.7% | 30.5hPa | 2.6V | 00:00:00 | 01:35:03 | 00:00:00 | |
| DK5PH-5 | 2026-09-06 00:04:21 | 48.40371 | 10.21808 | 160° | 29km/h | 24148m | 5.0m/s | -52.2°C | 3.7% | 30.6hPa | 2.6V | 00:00:00 | 01:35:02 | 08:30:00 | |
| IW2NTF | 2026-09-06 00:04:20 | 48.40414 | 10.21821 | 182° | 40km/h | 24104m | 5.4m/s | -52.8°C | 3.9% | 30.8hPa | 2.5V | 08:30:00 | 01:34:54 | 00:00:00 | |
| DK7TD | 2026-09-06 00:04:18 | 48.40382 | 10.21808 | 207° | 15km/h | 24131m | 4.9m/s | -52.3°C | 0.5% | 30.7hPa | 2.5V | 18:12:15 | 01:34:59 | 00:00:00 | |
| BIOWL1-15 | 2026-09-06 00:04:17 | 48.40414 | 10.21821 | 182° | 40km/h | 24104m | 5.4m/s | -52.8°C | 0.6% | 30.8hPa | 2.5V | 18:12:15 | 01:34:54 | 00:00:00 | |
| DM0DOS-11 | 2026-09-06 00:04:15 | 48.40414 | 10.21821 | 182° | 40km/h | 24104m | 5.4m/s | -52.8°C | 3.9% | 30.8hPa | 2.5V | 08:30:00 | 01:34:54 | 00:00:00 | |
| DK7TD | 2026-09-06 00:04:07 | 48.40473 | 10.21807 | 158° | 33km/h | 24072m | 4.7m/s | -52.9°C | 0.6% | 31hPa | 2.5V | 18:12:15 | 01:34:48 | 00:00:00 | |
| BIOWL1-15 | 2026-09-06 00:04:05 | 48.40509 | 10.21796 | 172° | 27km/h | 24040m | 5m/s | -52.9°C | 0.6% | 31.2hPa | 2.5V | 18:12:15 | 01:34:42 | 00:00:00 | |
| DM0DOS-11 | 2026-09-06 00:04:04 | 48.40496 | 10.21798 | 175° | 20km/h | 24051m | 5.4m/s | -52.9°C | 3.9% | 31.1hPa | 2.6V | 08:30:00 | 01:34:44 | 00:00:00 | |
| IW2NTF | 2026-09-06 00:04:04 | 48.40532 | 10.21792 | 175° | 33km/h | 24024m | 5.8m/s | -53°C | 3.9% | 31.2hPa | 2.6V | 08:30:00 | 01:34:39 | 00:00:00 | |
| DB0ND-19 | 2026-09-06 00:04:03 | 48.40496 | 10.21798 | 175° | 20km/h | 24051m | 5.4m/s | -52.9°C | 1.1% | 31.1hPa | 2.6V | 00:00:00 | 00:00:00 | 00:00:00 | |
| DC4HF-4 | 2026-09-06 00:04:02 | 48.40509 | 10.21796 | 171° | 27km/h | 24040m | 5.0m/s | -52.9°C | 1.1% | 31.2hPa | 2.6V | 00:00:00 | 00:00:00 | 00:00:00 | |
| DF3TZ-5 | 2026-09-06 00:04:01 | 48.40516 | 10.21794 | 172° | 31km/h | 24035m | 4.8m/s | -53.0°C | 1.0% | 31.2hPa | 2.6V | 00:00:00 | 00:00:00 | 00:00:00 | |
| DO3MHA-12 | 2026-09-06 00:04:00 | 48.40516 | 10.21794 | 173° | 31km/h | 24035m | 4.7m/s | -52.9°C | 3.9% | 31.1hPa | 2.6V | 00:00:00 | 01:34:41 | 00:00:00 | |
| DM0DOS-11 | 2026-09-06 00:03:59 | 48.40574 | 10.21779 | 158° | 33km/h | 23998m | 4.6m/s | -53°C | 3.9% | 31.3hPa | 2.6V | 08:30:00 | 01:34:34 | 00:00:00 | |
| DK7TD | 2026-09-06 00:03:57 | 48.40549 | 10.21789 | 172° | 33km/h | 24014m | 4.1m/s | -53°C | 0.6% | 31.3hPa | 2.5V | 18:12:15 | 01:34:37 | 00:00:00 | |
| IW2NTF | 2026-09-06 00:03:55 | 48.40600 | 10.21759 | 143° | 20km/h | 23972m | 6.3m/s | -53°C | 3.8% | 31.5hPa | 2.5V | 08:30:00 | 01:34:29 | 00:00:00 | |
| BIOWL1-15 | 2026-09-06 00:03:51 | 48.40587 | 10.21771 | 155° | 24km/h | 23987m | 5.9m/s | -52.9°C | 0.6% | 31.4hPa | 2.5V | 18:12:15 | 01:34:32 | 00:00:00 | |
| DK7TD | 2026-09-06 00:03:46 | 48.40610 | 10.21749 | 145° | 26km/h | 23961m | 5.1m/s | -53.1°C | 0.6% | 31.5hPa | 2.6V | 18:12:15 | 01:34:27 | 00:00:00 | |
| PG1ADW-2 | 2026-09-06 00:03:46 | 48.40610 | 10.21749 | 146° | 24km/h | 23961m | 5.0m/s | -53.0°C | 3.9% | 31.5hPa | 2.6V | 00:00:00 | 00:00:00 | 00:00:00 | |
| DM0DOS-11 | 2026-09-06 00:03:44 | 48.40627 | 10.21734 | 156° | 26km/h | 23944m | 5.2m/s | -53.3°C | 3.9% | 31.6hPa | 2.5V | 08:30:00 | 01:34:24 | 00:00:00 | |
| DO9HM | 2026-09-06 00:03:44 | 48.40621 | 10.21738 | 154° | 26km/h | 23950m | 6.6m/s | -53.2°C | 1.1% | 31.6hPa | 2.6V | 00:00:00 | 00:00:00 | 00:00:00 | |
| BAUMI2-15 | 2026-09-06 00:03:42 | 48.40633 | 10.21730 | 154° | 29km/h | 23939m | 4.9m/s | -53.3°C | 3.9% | 31.6hPa | 2.6V | 00:00:00 | 01:34:23 | 00:00:00 | |
| IW2NTF | 2026-09-06 00:03:41 | 48.40664 | 10.21691 | 126° | 20km/h | 23905m | 4.8m/s | -53.5°C | 4% | 31.8hPa | 2.6V | 08:30:00 | 01:34:17 | 00:00:00 | |
| BIOWL1-15 | 2026-09-06 00:03:41 | 48.40661 | 10.21698 | 132° | 24km/h | 23911m | 6.2m/s | -53.5°C | 0.7% | 31.8hPa | 2.5V | 18:12:15 | 01:34:18 | 00:00:00 | |
| DB0NH | 2026-09-06 00:03:41 | 48.40645 | 10.21719 | 145° | 18km/h | 23927m | 5.4m/s | -53.3°C | 3.9% | 31.7hPa | 2.6V | 00:00:00 | 01:34:21 | 08:30:00 | |
| OE5MMP-10 | 2026-09-06 00:03:40 | 48.40651 | 10.21712 | 140° | 22km/h | 23922m | 4.6m/s | -53.4°C | 4.0% | 31.7hPa | 2.5V | 00:00:00 | 01:34:20 | 00:00:00 | |
| DM0DOS-11 | 2026-09-06 00:03:39 | 48.40672 | 10.21672 | 117° | 22km/h | 23889m | 5.4m/s | -53.6°C | 4.1% | 31.9hPa | 2.5V | 08:30:00 | 01:34:14 | 00:00:00 | |
| DK7TD | 2026-09-06 00:03:36 | 48.40664 | 10.21691 | 127° | 20km/h | 23905m | 4.8m/s | -53.5°C | 0.6% | 31.8hPa | 2.6V | 18:12:15 | 01:34:17 | 00:00:00 | |
| AZAK | 2026-09-06 00:03:33 | 48.40669 | 10.21679 | 120° | 20km/h | 23895m | 5.8m/s | -53.6°C | 1.1% | 31.8hPa | 2.5V | 00:00:00 | 00:00:00 | 00:00:00 | |
| BAUMI2-15 | 2026-09-06 00:03:32 | 48.40674 | 10.21665 | 113° | 18km/h | 23885m | 4.5m/s | -53.6°C | 4.0% | 31.9hPa | 2.5V | 00:00:00 | 01:34:13 | 00:00:00 | |
| IW2NTF | 2026-09-06 00:03:31 | 48.40689 | 10.21629 | 139° | 22km/h | 23851m | 4.6m/s | -53.8°C | 4.1% | 32.1hPa | 2.5V | 08:30:00 | 01:34:07 | 00:00:00 | |
| BIOWL1-15 | 2026-09-06 00:03:31 | 48.40679 | 10.21646 | 116° | 16km/h | 23868m | 4.7m/s | -53.8°C | 0.7% | 32hPa | 2.6V | 18:12:15 | 01:34:10 | 00:00:00 | |
| DK7TD | 2026-09-06 00:03:26 | 48.40689 | 10.21629 | 139° | 22km/h | 23851m | 4.6m/s | -53.8°C | 0.7% | 32.1hPa | 2.5V | 18:12:15 | 01:34:07 | 00:00:00 | |
| DM0DOS-11 | 2026-09-06 00:03:24 | 48.40699 | 10.21615 | 130° | 15km/h | 23835m | 5.2m/s | -53.9°C | 4.1% | 32.1hPa | 2.6V | 08:30:00 | 01:34:04 | 00:00:00 | |
| SONDE2-11 | 2026-09-06 00:03:24 | 48.40703 | 10.21607 | 120° | 13km/h | 23823m | 5.8m/s | -53.8°C | 1.1% | 32.2hPa | 2.5V | 00:00:00 | 00:00:00 | 00:00:00 | |
| DK5PH-5 | 2026-09-06 00:03:23 | 48.40703 | 10.21606 | 121° | 15km/h | 23824m | 5.7m/s | -53.8°C | 4.1% | 32.2hPa | 2.5V | 00:00:00 | 01:34:02 | 00:00:00 | |
| IW2NTF | 2026-09-06 00:03:22 | 48.40701 | 10.21580 | 63° | 16km/h | 23796m | 4.4m/s | -53.7°C | 4% | 32.3hPa | 2.5V | 08:30:00 | 01:33:57 | 00:00:00 | |
| BIOWL1-15 | 2026-09-06 00:03:19 | 48.40705 | 10.21596 | 93° | 15km/h | 23813m | 4.7m/s | -53.8°C | 0.6% | 32.2hPa | 2.6V | 18:12:15 | 01:34:00 | 00:00:00 | |
| DM0DOS-11 | 2026-09-06 00:03:19 | 48.40700 | 10.21561 | 104° | 18km/h | 23780m | 4.9m/s | -53.7°C | 4% | 32.4hPa | 2.6V | 08:30:00 | 01:33:54 | 00:00:00 | |
| DK7TD | 2026-09-06 00:03:15 | 48.40700 | 10.21574 | 75° | 16km/h | 23791m | 5.8m/s | -53.7°C | 0.6% | 32.4hPa | 2.5V | 18:12:15 | 01:33:56 | 00:00:00 | |
| DO3MHA-12 | 2026-09-06 00:03:15 | 48.40705 | 10.21544 | 117° | 13km/h | 23764m | 5.0m/s | -53.7°C | 3.9% | 32.5hPa | 2.5V | 00:00:00 | 01:33:51 | 08:30:00 | |
| OE5MMP-10 | 2026-09-06 00:03:14 | 48.40706 | 10.21540 | 116° | 13km/h | 23759m | 5.2m/s | -53.7°C | 3.9% | 32.5hPa | 2.6V | 00:00:00 | 01:33:50 | 00:00:00 | |
| IW2NTF | 2026-09-06 00:03:12 | 48.40709 | 10.21525 | 89° | 13km/h | 23742m | 5m/s | -54°C | 4% | 32.6hPa | 2.6V | 08:30:00 | 01:33:47 | 00:00:00 | |
| DO9HM | 2026-09-06 00:03:10 | 48.40703 | 10.21509 | 61° | 13km/h | 23721m | 5.6m/s | -54.3°C | 1.2% | 32.7hPa | 2.5V | 00:00:00 | 00:00:00 | 00:00:00 | |
| DB0ND-19 | 2026-09-06 00:03:09 | 48.40702 | 10.21504 | 78° | 15km/h | 23715m | 5.9m/s | -54.3°C | 1.2% | 32.8hPa | 2.5V | 00:00:00 | 00:00:00 | 00:00:00 | |
| OE5MMP-10 | 2026-09-06 00:03:08 | 48.40702 | 10.21492 | 100° | 11km/h | 23706m | 4.6m/s | -54.2°C | 4.2% | 32.8hPa | 2.5V | 00:00:00 | 01:33:40 | 00:00:00 | |
| DM0DOS-11 | 2026-09-06 00:03:07 | 48.40705 | 10.21513 | 50° | 11km/h | 23726m | 4.3m/s | -54.2°C | 4.2% | 32.7hPa | 2.5V | 08:30:00 | 01:33:44 | 00:00:00 | |
| BIOWL1-15 | 2026-09-06 00:03:07 | 48.40708 | 10.21530 | 103° | 15km/h | 23747m | 4.7m/s | -53.9°C | 0.6% | 32.6hPa | 2.6V | 18:12:15 | 01:33:48 | 00:00:00 | |
| DJ8HS-15 | 2026-09-06 00:03:07 | 48.40703 | 10.21487 | 107° | 13km/h | 23700m | 6.1m/s | -54.2°C | 4.3% | 32.8hPa | 2.6V | 00:00:00 | 01:33:39 | 00:00:00 | |
| DK7TD | 2026-09-06 00:03:05 | 48.40708 | 10.21521 | 74° | 11km/h | 23737m | 6.7m/s | -54.1°C | 0.7% | 32.7hPa | 2.6V | 18:12:15 | 01:33:46 | 00:00:00 | |
| OE5DXL-15 | 2026-09-06 00:03:05 | 48.40705 | 10.21479 | 123° | 15km/h | 23689m | 4.9m/s | -54.2°C | 4.2% | 32.8hPa | 2.6V | 00:00:00 | 00:00:00 | 00:00:00 | |
| OE5WHR-10 | 2026-09-06 00:03:04 | 48.40705 | 10.21479 | 123° | 15km/h | 23689m | 4.9m/s | 0°C | 0% | 0hPa | 2.6V | 00:00:00 | 00:00:00 | 00:00:00 | |
| IW2NTF | 2026-09-06 00:03:02 | 48.40705 | 10.21479 | 122° | 9km/h | 23688m | 4.9m/s | -54.2°C | 4.2% | 32.9hPa | 2.6V | 08:30:00 | 01:33:37 | 00:00:00 | |
| OE5DRO-10 | 2026-09-06 00:03:01 | 48.40708 | 10.21469 | 100° | 13km/h | 23672m | 5.0m/s | -54.3°C | 4.2% | 32.9hPa | 2.5V | 00:00:00 | 00:00:00 | 00:00:00 | |
| DM0DOS-11 | 2026-09-06 00:02:59 | 48.40709 | 10.21469 | 99° | 13km/h | 23672m | 5m/s | -54.3°C | 4.2% | 32.9hPa | 2.5V | 08:30:00 | 01:33:34 | 00:00:00 | |
| BIOWL1-15 | 2026-09-06 00:02:57 | 48.40708 | 10.21473 | 112° | 11km/h | 23677m | 6.2m/s | 0°C | 0% | 33hPa | 2.6V | 18:12:15 | 01:33:35 | 00:00:00 | |
| DO3MHA-11 | 2026-09-06 00:02:56 | 48.40706 | 10.21443 | 106° | 15km/h | 23640m | 5.2m/s | -54.2°C | 4.2% | 33.1hPa | 2.6V | 00:00:00 | 01:33:28 | 00:00:00 | |
| DK7TD | 2026-09-06 00:02:55 | 48.40707 | 10.21476 | 121° | 9km/h | 23683m | 5.4m/s | -54.3°C | 0.7% | 32.9hPa | 2.6V | 18:12:15 | 01:33:36 | 00:00:00 | |
| PG1ADW-2 | 2026-09-06 00:02:54 | 48.40708 | 10.21438 | 122° | 15km/h | 23635m | 4.4m/s | -54.2°C | 4.2% | 33.1hPa | 2.5V | 00:00:00 | 01:33:27 | 00:00:00 | |
| DF9NV-10 | 2026-09-06 00:02:53 | 48.40710 | 10.21434 | 138° | 15km/h | 23630m | 6.1m/s | -54.3°C | 1.2% | 33.2hPa | 2.5V | 00:00:00 | 00:00:00 | 00:00:00 | |
| IW2NTF | 2026-09-06 00:02:52 | 48.40708 | 10.21439 | 121° | 15km/h | 23635m | 4.5m/s | -54.3°C | 4.2% | 33.2hPa | 2.5V | 08:30:00 | 01:33:27 | 00:00:00 | |
| DB0NH | 2026-09-06 00:02:50 | 48.40729 | 10.21428 | 176° | 16km/h | 23601m | 4.7m/s | -54.1°C | 4.2% | 33.3hPa | 2.6V | 00:00:00 | 01:33:21 | 00:00:00 | |
| OE5MMP-10 | 2026-09-06 00:02:49 | 48.40733 | 10.21428 | 181° | 15km/h | 23596m | 6.1m/s | -54.1°C | 4.2% | 33.3hPa | 2.6V | 00:00:00 | 01:33:20 | 00:00:00 | |
| DJ8HS-15 | 2026-09-06 00:02:48 | 48.40736 | 10.21429 | 191° | 15km/h | 23590m | 5.5m/s | -54.1°C | 4.2% | 33.4hPa | 2.6V | 00:00:00 | 01:33:19 | 00:00:00 | |
| HARRO8 | 2026-09-06 00:02:47 | 48.40739 | 10.21429 | 182° | 7km/h | 23585m | 4.6m/s | -54.1°C | 1.2% | 33.4hPa | 2.6V | 00:00:00 | 00:00:00 | 00:00:00 | |
| BIOWL1-15 | 2026-09-06 00:02:47 | 48.40708 | 10.21439 | 121° | 15km/h | 23635m | 4.5m/s | 0°C | 0% | 33.2hPa | 2.5V | 18:12:15 | 01:33:27 | 00:00:00 | |
| SONCRA | 2026-09-06 00:02:46 | 48.40739 | 10.21429 | 182° | 7km/h | 23585m | 4.6m/s | -54.1°C | 1.2% | 33.4hPa | 2.6V | 00:00:00 | 00:00:00 | 00:00:00 | |
| DM0DOS-11 | 2026-09-06 00:02:45 | 48.40717 | 10.21430 | 172° | 16km/h | 23617m | 5.3m/s | -54.3°C | 4.2% | 33.2hPa | 2.6V | 08:30:00 | 01:33:24 | 00:00:00 | |
| DK7TD | 2026-09-06 00:02:45 | 48.40713 | 10.21432 | 159° | 15km/h | 23623m | 6.3m/s | -54.3°C | 0.7% | 33.3hPa | 2.6V | 18:12:15 | 01:33:25 | 00:00:00 | |
| DO3MHA-11 | 2026-09-06 00:02:43 | 48.40739 | 10.21429 | 183° | 15km/h | 23585m | 4.6m/s | -54.0°C | 4.2% | 33.4hPa | 2.6V | 00:00:00 | 01:33:18 | 00:00:00 | |
| IW2NTF | 2026-09-06 00:02:42 | 48.40741 | 10.21428 | 156° | 9km/h | 23579m | 6.1m/s | -54°C | 4.1% | 33.5hPa | 2.6V | 08:30:00 | 01:33:17 | 00:00:00 | |
| DF7PN | 2026-09-06 00:02:41 | 48.40743 | 10.21426 | 131° | 11km/h | 23573m | 6.0m/s | -54.0°C | 1.1% | 33.5hPa | 2.6V | 00:00:00 | 00:00:00 | 00:00:00 | |
| DM0DOS-11 | 2026-09-06 00:02:39 | 48.40750 | 10.21413 | 136° | 16km/h | 23557m | 6m/s | -53.9°C | 4.1% | 33.6hPa | 2.6V | 08:30:00 | 01:33:13 | 00:00:00 | |
| BIOWL1-15 | 2026-09-06 00:02:36 | 48.40741 | 10.21428 | 157° | 9km/h | 23579m | 6.1m/s | 0°C | 0% | 0hPa | 2.6V | 18:12:15 | 01:33:17 | 00:00:00 | |
| AZAK | 2026-09-06 00:02:35 | 48.40753 | 10.21408 | 149° | 16km/h | 23552m | 5.3m/s | -53.9°C | 1.1% | 33.6hPa | 2.5V | 00:00:00 | 00:00:00 | 00:00:00 | |
| DK7TD | 2026-09-06 00:02:34 | 48.40745 | 10.21422 | 125° | 15km/h | 23568m | 4.8m/s | -53.9°C | 0.7% | 33.5hPa | 2.5V | 18:12:15 | 01:33:15 | 00:00:00 | |
| DB0ND-19 | 2026-09-06 00:02:34 | 48.40757 | 10.21406 | 154° | 16km/h | 23547m | 4.8m/s | -53.9°C | 1.1% | 33.6hPa | 2.6V | 00:00:00 | 00:00:00 | 00:00:00 | |
| DO3MHA-12 | 2026-09-06 00:02:33 | 48.40757 | 10.21406 | 155° | 16km/h | 23547m | 4.8m/s | -53.8°C | 4.1% | 33.6hPa | 2.6V | 00:00:00 | 01:33:11 | 00:00:00 | |
| IW2NTF | 2026-09-06 00:02:32 | 48.40774 | 10.21392 | 156° | 18km/h | 23525m | 4.7m/s | -53.9°C | 4.1% | 33.7hPa | 2.6V | 08:30:00 | 01:33:07 | 00:00:00 | |
| OE5WHR-10 | 2026-09-06 00:02:31 | 48.40765 | 10.21399 | 151° | 18km/h | 23536m | 6.2m/s | 0°C | 0% | 0hPa | 2.6V | 00:00:00 | 01:33:09 | 00:00:00 | |
| DF3TZ-5 | 2026-09-06 00:02:30 | 48.40770 | 10.21396 | 150° | 18km/h | 23530m | 4.8m/s | -53.9°C | 1.2% | 33.7hPa | 2.6V | 00:00:00 | 00:00:00 | 00:00:00 | |
| DO3MHA-11 | 2026-09-06 00:02:29 | 48.40769 | 10.21395 | 151° | 16km/h | 23530m | 4.8m/s | -53.9°C | 4.1% | 33.6hPa | 2.6V | 00:00:00 | 01:33:08 | 08:30:00 | |
| OE5DXL-15 | 2026-09-06 00:02:28 | 48.40774 | 10.21392 | 157° | 18km/h | 23525m | 4.6m/s | -53.9°C | 4.1% | 33.7hPa | 2.6V | 00:00:00 | 00:00:00 | 00:00:00 | |
| DM0DOS-11 | 2026-09-06 00:02:27 | 48.40786 | 10.21388 | 168° | 13km/h | 23509m | 4.8m/s | -54°C | 4.2% | 33.8hPa | 2.5V | 08:30:00 | 01:33:04 | 00:00:00 | |
| DM7RM-13 | 2026-09-06 00:02:27 | 48.40774 | 10.21392 | 158° | 18km/h | 23525m | 4.7m/s | -53.9°C | 1.1% | 33.7hPa | 2.5V | 00:00:00 | 00:00:00 | 00:00:00 | |
| DF9NV-10 | 2026-09-06 00:02:25 | 48.40782 | 10.21389 | 172° | 15km/h | 23514m | 5.2m/s | -54.0°C | 1.2% | 33.8hPa | 2.5V | 00:00:00 | 00:00:00 | 00:00:00 | |
| DK7TD | 2026-09-06 00:02:23 | 48.40786 | 10.21388 | 168° | 13km/h | 23509m | 4.8m/s | -54°C | 0.7% | 33.8hPa | 2.5V | 18:12:15 | 01:33:04 | 00:00:00 | |
| DL6DJ-15 | 2026-09-06 00:02:23 | 48.40794 | 10.21380 | 131° | 15km/h | 23493m | 4.4m/s | -54.1°C | 1.2% | 34.0hPa | 2.6V | 00:00:00 | 00:00:00 | 00:00:00 | |
| DK5PH-5 | 2026-09-06 00:02:22 | 48.40791 | 10.21384 | 136° | 16km/h | 23498m | 5.3m/s | -54.0°C | 4.2% | 33.8hPa | 2.6V | 00:00:00 | 01:33:02 | 00:00:00 | |
| DO9HM | 2026-09-06 00:02:21 | 48.40794 | 10.21380 | 132° | 15km/h | 23493m | 4.4m/s | -54.1°C | 1.2% | 34.0hPa | 2.6V | 00:00:00 | 00:00:00 | 00:00:00 | |
| OE5MMP-10 | 2026-09-06 00:02:19 | 48.40797 | 10.21375 | 136° | 20km/h | 23487m | 6.3m/s | -54.0°C | 4.2% | 33.9hPa | 2.6V | 00:00:00 | 01:33:00 | 00:00:00 | |
| DJ8HS-15 | 2026-09-06 00:02:18 | 48.40800 | 10.21371 | 140° | 18km/h | 23481m | 5.2m/s | -54.0°C | 4.2% | 33.9hPa | 2.6V | 00:00:00 | 01:32:59 | 00:00:00 | |
| DM0DOS-11 | 2026-09-06 00:02:17 | 48.40820 | 10.21339 | 127° | 22km/h | 23454m | 6m/s | -54.2°C | 4.2% | 34.1hPa | 2.6V | 08:30:00 | 01:32:54 | 00:00:00 | |
| OE5DRO-10 | 2026-09-06 00:02:16 | 48.40812 | 10.21353 | 130° | 18km/h | 23465m | 5.9m/s | -54.2°C | 4.2% | 34.0hPa | 2.6V | 00:00:00 | 00:00:00 | 00:00:00 | |
| BIOWL1-15 | 2026-09-06 00:02:15 | 48.40813 | 10.21353 | 130° | 26km/h | 23464m | 5.9m/s | 0°C | 0% | 0hPa | 2.6V | 18:12:15 | 01:32:56 | 00:00:00 | |
| NBG1-10 | 2026-09-06 00:02:14 | 48.40820 | 10.21338 | 128° | 16km/h | 23454m | 5.9m/s | -54.1°C | 4.2% | 34.1hPa | 2.6V | 00:00:00 | 01:32:54 | 08:30:00 | |
| DK7TD | 2026-09-06 00:02:12 | 48.40823 | 10.21333 | 132° | 18km/h | 23448m | 5.8m/s | -54.1°C | 0.7% | 34.1hPa | 2.5V | 18:12:15 | 01:32:53 | 00:00:00 | |
| DO3MHA-12 | 2026-09-06 00:02:11 | 48.40828 | 10.21324 | 132° | 18km/h | 23438m | 6.2m/s | -54.1°C | 4.2% | 34.2hPa | 2.5V | 00:00:00 | 01:32:51 | 00:00:00 | |
| OE5MMP-10 | 2026-09-06 00:02:10 | 48.40831 | 10.21319 | 133° | 18km/h | 23432m | 5.4m/s | -54.1°C | 4.2% | 34.2hPa | 2.5V | 00:00:00 | 01:32:50 | 00:00:00 | |
| DO3MHA-11 | 2026-09-06 00:02:07 | 48.40837 | 10.21310 | 142° | 18km/h | 23422m | 6.5m/s | -54.0°C | 4.2% | 34.3hPa | 2.5V | 00:00:00 | 01:32:48 | 00:00:00 | |
| DB0UT-7 | 2026-09-06 00:02:06 | 48.40840 | 10.21307 | 144° | 15km/h | 23416m | 5.3m/s | -54.0°C | 4.1% | 34.3hPa | 2.5V | 00:00:00 | 00:00:00 | 00:00:00 | |
| DM7RM-13 | 2026-09-06 00:02:05 | 48.40840 | 10.21307 | 144° | 16km/h | 23416m | 5.3m/s | -54.0°C | 1.2% | 34.3hPa | 2.5V | 00:00:00 | 00:00:00 | 00:00:00 | |
| DF7PN | 2026-09-06 00:02:04 | 48.40846 | 10.21298 | 123° | 18km/h | 23405m | 6.4m/s | -54.0°C | 1.1% | 34.4hPa | 2.5V | 00:00:00 | 00:00:00 | 00:00:00 | |
| DK7TD | 2026-09-06 00:02:01 | 48.40853 | 10.21277 | 119° | 18km/h | 23388m | 6.4m/s | -53.9°C | 0.7% | 34.5hPa | 2.5V | 18:12:15 | 01:32:42 | 00:00:00 | |
| DO9HM | 2026-09-06 00:02:00 | 48.40858 | 10.21266 | 123° | 16km/h | 23377m | 5.3m/s | -53.8°C | 1.2% | 34.5hPa | 2.6V | 00:00:00 | 00:00:00 | 00:00:00 | |
| OE5DRO-10 | 2026-09-06 00:01:59 | 48.40863 | 10.21252 | 131° | 15km/h | 23362m | 4.4m/s | -53.8°C | 4.0% | 34.6hPa | 2.6V | 00:00:00 | 00:00:00 | 00:00:00 | |
| DM0DOS-11 | 2026-09-06 00:01:58 | 48.40863 | 10.21252 | 130° | 9km/h | 23362m | 4.5m/s | -53.8°C | 4% | 34.6hPa | 2.6V | 08:30:00 | 01:32:37 | 00:00:00 | |
| DK5PH-5 | 2026-09-06 00:01:56 | 48.40877 | 10.21244 | 137° | 15km/h | 23338m | 4.5m/s | -53.6°C | 3.9% | 34.7hPa | 2.6V | 00:00:00 | 01:32:32 | 00:00:00 | |
| DO3MHA-12 | 2026-09-06 00:01:55 | 48.40880 | 10.21238 | 119° | 18km/h | 23333m | 5.1m/s | -53.6°C | 4.0% | 34.7hPa | 2.6V | 00:00:00 | 01:32:31 | 00:00:00 | |
| OE5MMP-10 | 2026-09-06 00:01:54 | 48.40882 | 10.21223 | 92° | 15km/h | 23321m | 5.7m/s | -53.7°C | 3.9% | 34.8hPa | 2.6V | 00:00:00 | 01:32:29 | 00:00:00 | |
| DL1ZP-14 | 2026-09-06 00:01:53 | 48.40882 | 10.21215 | 86° | 18km/h | 23316m | 4.8m/s | -53.8°C | 1.1% | 34.9hPa | 2.6V | 00:00:00 | 00:00:00 | 00:00:00 | |
| DK7TD | 2026-09-06 00:01:51 | 48.40877 | 10.21244 | 136° | 18km/h | 23337m | 4.6m/s | -53.7°C | 0.6% | 34.8hPa | 2.6V | 18:12:15 | 01:32:32 | 00:00:00 | |
| DM0DOS-11 | 2026-09-06 00:01:50 | 48.40882 | 10.21208 | 90° | 16km/h | 23311m | 4.3m/s | -53.8°C | 4% | 34.9hPa | 2.6V | 08:30:00 | 01:32:27 | 00:00:00 | |
| PG1ADW-2 | 2026-09-06 00:01:50 | 48.40882 | 10.21208 | 91° | 15km/h | 23311m | 4.3m/s | -53.8°C | 4.0% | 34.8hPa | 2.6V | 00:00:00 | 00:00:00 | 08:30:00 | |
| DM7RM-13 | 2026-09-06 00:01:48 | 48.40882 | 10.21201 | 104° | 16km/h | 23307m | 5.2m/s | -53.9°C | 1.1% | 34.9hPa | 2.6V | 00:00:00 | 00:00:00 | 00:00:00 | |
| DJTTGO | 2026-09-06 00:01:47 | 48.40886 | 10.21191 | 132° | 16km/h | 23296m | 5.4m/s | -53.9°C | 1.1% | 35.0hPa | 2.6V | 00:00:00 | 00:00:00 | 00:00:00 | |
| DF9NV-10 | 2026-09-06 00:01:46 | 48.40886 | 10.21191 | 132° | 16km/h | 23296m | 5.4m/s | -53.9°C | 1.1% | 35.0hPa | 2.6V | 00:00:00 | 00:00:00 | 00:00:00 | |
| NBG1-10 | 2026-09-06 00:01:45 | 48.40894 | 10.21180 | 135° | 11km/h | 23281m | 5.9m/s | -54.1°C | 4.0% | 35.0hPa | 2.6V | 00:00:00 | 01:32:21 | 00:00:00 | |
| DO3MHA-12 | 2026-09-06 00:01:44 | 48.40894 | 10.21180 | 135° | 11km/h | 23281m | 5.9m/s | -54.1°C | 4.0% | 35.0hPa | 2.6V | 00:00:00 | 01:32:21 | 08:30:00 | |
| DO9HM | 2026-09-06 00:01:43 | 48.40895 | 10.21178 | 117° | 7km/h | 23275m | 4.5m/s | -54.3°C | 1.1% | 35.1hPa | 2.6V | 00:00:00 | 00:00:00 | 00:00:00 | |
| OE5MMP-10 | 2026-09-06 00:01:42 | 48.40896 | 10.21175 | 105° | 15km/h | 23271m | 4.6m/s | 0°C | 0% | 0hPa | 2.6V | 00:00:00 | 01:32:19 | 00:00:00 | |
| IW2NTF | 2026-09-06 00:01:41 | 48.40897 | 10.21168 | 107° | 13km/h | 23260m | 5.1m/s | -54.6°C | 4.1% | 35.2hPa | 2.6V | 08:30:00 | 01:32:17 | 00:00:00 | |
| OE5DRO-10 | 2026-09-06 00:01:41 | 48.40897 | 10.21172 | 106° | 13km/h | 23266m | 5.6m/s | -54.4°C | 4.1% | 35.1hPa | 2.5V | 00:00:00 | 00:00:00 | 00:00:00 | |
| DK7TD | 2026-09-06 00:01:40 | 48.40894 | 10.21180 | 135° | 9km/h | 23280m | 5.9m/s | -54.2°C | 0.6% | 35hPa | 2.6V | 18:12:15 | 01:32:21 | 00:00:00 | |
| DO3MHA-11 | 2026-09-06 00:01:40 | 48.40897 | 10.21172 | 106° | 15km/h | 23266m | 5.6m/s | -54.4°C | 4.1% | 35.1hPa | 2.6V | 00:00:00 | 01:32:18 | 00:00:00 | |
| DB0UT-7 | 2026-09-06 00:01:39 | 48.40897 | 10.21168 | 108° | 13km/h | 23260m | 5.1m/s | -54.6°C | 4.1% | 35.1hPa | 2.6V | 00:00:00 | 01:32:17 | 00:00:00 | |
| DM0DOS-11 | 2026-09-06 00:01:38 | 48.40899 | 10.21163 | 106° | 13km/h | 23255m | 4.4m/s | -54.8°C | 4.2% | 35.2hPa | 2.6V | 08:30:00 | 01:32:16 | 00:00:00 | |
| HARRO8 | 2026-09-06 00:01:36 | 48.40899 | 10.21153 | 90° | 13km/h | 23244m | 6.2m/s | -55.0°C | 1.2% | 35.2hPa | 2.5V | 00:00:00 | 00:00:00 | 00:00:00 | |
| DF7PN | 2026-09-06 00:01:35 | 48.40899 | 10.21153 | 90° | 13km/h | 23244m | 6.2m/s | -55.0°C | 1.2% | 35.2hPa | 2.5V | 00:00:00 | 00:00:00 | 00:00:00 | |
| DO3MHA-12 | 2026-09-06 00:01:33 | 48.40900 | 10.21136 | 98° | 11km/h | 23228m | 5.3m/s | -55.1°C | 4.2% | 35.3hPa | 2.5V | 00:00:00 | 01:32:11 | 00:00:00 | |
| IW2NTF | 2026-09-06 00:01:32 | 48.40900 | 10.21113 | 61° | 7km/h | 23207m | 4.7m/s | -55.3°C | 4.4% | 35.4hPa | 2.5V | 08:30:00 | 01:32:07 | 00:00:00 | |
| AZAK | 2026-09-06 00:01:31 | 48.40901 | 10.21122 | 93° | 16km/h | 23218m | 4.9m/s | -55.3°C | 1.2% | 35.4hPa | 2.5V | 00:00:00 | 00:00:00 | 00:00:00 | |
| DK7TD | 2026-09-06 00:01:30 | 48.40900 | 10.21136 | 97° | 18km/h | 23228m | 5.4m/s | -55.1°C | 0.7% | 35.4hPa | 2.5V | 18:12:15 | 01:32:11 | 00:00:00 | |
| DO3MHA-11 | 2026-09-06 00:01:29 | 48.40900 | 10.21117 | 81° | 13km/h | 23213m | 5.8m/s | -55.3°C | 4.4% | 35.4hPa | 2.6V | 00:00:00 | 01:32:08 | 00:00:00 | |
| DF3TZ-5 | 2026-09-06 00:01:28 | 48.40899 | 10.21111 | 50° | 4km/h | 23203m | 4.7m/s | -55.3°C | 1.2% | 35.5hPa | 2.5V | 00:00:00 | 00:00:00 | 00:00:00 | |
| DM0DOS-11 | 2026-09-06 00:01:27 | 48.40899 | 10.21111 | 50° | 5km/h | 23203m | 4.7m/s | -55.3°C | 4.4% | 35.5hPa | 2.5V | 08:30:00 | 01:32:06 | 00:00:00 | |
| DM7RM-13 | 2026-09-06 00:01:26 | 48.40898 | 10.21110 | 79° | 5km/h | 23198m | 5.1m/s | -55.3°C | 1.3% | 35.5hPa | 2.6V | 00:00:00 | 00:00:00 | 00:00:00 | |
| DF9NV-10 | 2026-09-06 00:01:25 | 48.40898 | 10.21107 | 94° | 7km/h | 23193m | 4.9m/s | -55.2°C | 0% | 35.6hPa | 2.6V | 00:00:00 | 00:00:00 | 00:00:00 | |
| DO3MHA-12 | 2026-09-06 00:01:24 | 48.40897 | 10.21092 | 71° | 11km/h | 23179m | 5.7m/s | -55.2°C | 4.4% | 35.6hPa | 2.6V | 00:00:00 | 01:32:01 | 00:00:00 | |
| DL6DJ-15 | 2026-09-06 00:01:23 | 48.40892 | 10.21080 | 51° | 18km/h | 23168m | 4.5m/s | -55.2°C | 1.2% | 35.7hPa | 2.6V | 00:00:00 | 00:00:00 | 00:00:00 | |
| IW2NTF | 2026-09-06 00:01:22 | 48.40887 | 10.21071 | 50° | 11km/h | 23158m | 5.9m/s | -55.2°C | 4.4% | 35.7hPa | 2.6V | 08:30:00 | 01:31:57 | 00:00:00 | |
| SONDE2-11 | 2026-09-06 00:01:22 | 48.40886 | 10.21068 | 58° | 5km/h | 23153m | 5.3m/s | -55.3°C | 1.2% | 35.8hPa | 2.5V | 00:00:00 | 00:00:00 | 00:00:00 | |
| DF1GD-15 | 2026-09-06 00:01:20 | 48.40889 | 10.21075 | 50° | 15km/h | 23164m | 4.1m/s | -55.2°C | 1.3% | 35.7hPa | 2.5V | 00:00:00 | 00:00:00 | 00:00:00 | |
| DK7TD | 2026-09-06 00:01:19 | 48.40895 | 10.21086 | 59° | 20km/h | 23173m | 5.3m/s | -55.2°C | 0.8% | 35.6hPa | 2.5V | 18:12:15 | 01:32:00 | 00:00:00 | |
| DO9HM | 2026-09-06 00:01:18 | 48.40887 | 10.21071 | 51° | 11km/h | 23159m | 5.9m/s | -55.2°C | 1.3% | 35.7hPa | 2.6V | 00:00:00 | 00:00:00 | 00:00:00 | |
| DM0DOS-11 | 2026-09-06 00:01:16 | 48.40886 | 10.21068 | 58° | 7km/h | 23153m | 5.3m/s | -55.2°C | 4.4% | 35.8hPa | 2.6V | 08:30:00 | 01:31:56 | 00:00:00 | |
| DB0NH | 2026-09-06 00:01:13 | 48.40878 | 10.21066 | 7° | 7km/h | 23127m | 5.2m/s | -55.2°C | 4.3% | 35.9hPa | 2.6V | 00:00:00 | 01:31:51 | 00:00:00 | |
| IW2NTF | 2026-09-06 00:01:12 | 48.40868 | 10.21058 | 33° | 15km/h | 23105m | 6.1m/s | -55.3°C | 4.4% | 36hPa | 2.6V | 08:30:00 | 01:31:47 | 00:00:00 | |
| DO3MHA-12 | 2026-09-06 00:01:12 | 48.40878 | 10.21066 | 7° | 9km/h | 23127m | 5.2m/s | -55.2°C | 4.3% | 35.9hPa | 2.6V | 00:00:00 | 01:31:51 | 00:00:00 | |
| DM0DOS-11 | 2026-09-06 00:01:10 | 48.40865 | 10.21056 | 33° | 15km/h | 23100m | 5m/s | -55.2°C | 4.4% | 36.1hPa | 2.6V | 08:30:00 | 01:31:46 | 00:00:00 | |
| DO3MHA-11 | 2026-09-06 00:01:10 | 48.40871 | 10.21061 | 37° | 9km/h | 23111m | 5.5m/s | -55.2°C | 4.4% | 36.0hPa | 2.6V | 00:00:00 | 01:31:48 | 00:00:00 | |
| DK7TD | 2026-09-06 00:01:09 | 48.40875 | 10.21065 | 20° | 9km/h | 23122m | 5.8m/s | -55.3°C | 0.9% | 35.9hPa | 2.6V | 18:12:15 | 01:31:50 | 00:00:00 | |
| DB0UT-7 | 2026-09-06 00:01:09 | 48.40868 | 10.21058 | 34° | 5km/h | 23106m | 6.0m/s | -55.2°C | 4.4% | 36.0hPa | 2.6V | 00:00:00 | 00:00:00 | 00:00:00 | |
| PG1ADW-2 | 2026-09-06 00:01:08 | 48.40868 | 10.21058 | 34° | 7km/h | 23106m | 6.0m/s | -55.2°C | 4.4% | 36.0hPa | 2.5V | 00:00:00 | 00:00:00 | 00:00:00 | |
| SONCRA | 2026-09-06 00:01:07 | 48.40861 | 10.21050 | 51° | 7km/h | 23090m | 6.4m/s | -55.2°C | 1.2% | 36.1hPa | 2.5V | 00:00:00 | 00:00:00 | 00:00:00 | |
| DM7RM-13 | 2026-09-06 00:01:04 | 48.40862 | 10.21053 | 39° | 13km/h | 23095m | 4.5m/s | -55.2°C | 1.3% | 36.1hPa | 2.5V | 00:00:00 | 00:00:00 | 00:00:00 | |
| BAUMI2-15 | 2026-09-06 00:01:03 | 48.40861 | 10.21050 | 52° | 5km/h | 23090m | 6.3m/s | -55.1°C | 4.4% | 36.1hPa | 2.5V | 00:00:00 | 01:31:44 | 00:00:00 | |
| IW2NTF | 2026-09-06 00:01:02 | 48.40855 | 10.21044 | 41° | 4km/h | 23051m | 4.8m/s | -55°C | 4.4% | 36.3hPa | 2.5V | 08:30:00 | 01:31:37 | 00:00:00 | |
| DO3MHA-12 | 2026-09-06 00:01:01 | 48.40858 | 10.21045 | 20° | 5km/h | 23073m | 6.0m/s | -55.0°C | 4.4% | 36.2hPa | 2.6V | 00:00:00 | 01:31:41 | 00:00:00 | |
| OE5DRO-10 | 2026-09-06 00:01:00 | 48.40858 | 10.21045 | 5° | 5km/h | 23068m | 4.7m/s | -55.0°C | 4.4% | 36.2hPa | 2.6V | 00:00:00 | 00:00:00 | 00:00:00 | |
| DK7TD | 2026-09-06 00:00:59 | 48.40856 | 10.21045 | 4° | 4km/h | 23062m | 5.1m/s | -55°C | 0.8% | 36.3hPa | 2.6V | 18:12:15 | 01:31:39 | 00:00:00 | |
| DO3MHA-11 | 2026-09-06 00:00:58 | 48.40855 | 10.21045 | 20° | 5km/h | 23057m | 6.1m/s | -55.0°C | 4.4% | 36.3hPa | 2.5V | 00:00:00 | 01:31:38 | 08:30:00 | |
| OE5DXL-15 | 2026-09-06 00:00:56 | 48.40855 | 10.21044 | 42° | 5km/h | 23051m | 4.8m/s | -55.0°C | 4.4% | 36.3hPa | 2.5V | 00:00:00 | 00:00:00 | 08:30:00 | |
| DM0DOS-11 | 2026-09-06 00:00:56 | 48.40852 | 10.21042 | 22° | 7km/h | 23040m | 6.3m/s | -55°C | 4.4% | 36.4hPa | 2.6V | 08:30:00 | 01:31:35 | 00:00:00 | |
| DO9HM | 2026-09-06 00:00:55 | 48.40854 | 10.21043 | 36° | 5km/h | 23047m | 4.9m/s | -55.0°C | 1.3% | 36.4hPa | 2.6V | 00:00:00 | 00:00:00 | 00:00:00 | |
| DF3TZ-5 | 2026-09-06 00:00:54 | 48.40852 | 10.21042 | 22° | 7km/h | 23041m | 6.3m/s | -55.0°C | 1.2% | 36.4hPa | 2.6V | 00:00:00 | 00:00:00 | 00:00:00 | |
| IW2NTF | 2026-09-06 00:00:52 | 48.40845 | 10.21033 | 48° | 5km/h | 23000m | 5.5m/s | -54.8°C | 4.3% | 36.6hPa | 2.6V | 08:30:00 | 01:31:27 | 00:00:00 | |
| DK5PH-5 | 2026-09-06 00:00:52 | 48.40846 | 10.21040 | 14° | 5km/h | 23026m | 5.4m/s | -54.9°C | 4.4% | 36.4hPa | 2.5V | 00:00:00 | 01:31:32 | 00:00:00 | |
| DO3MHA-12 | 2026-09-06 00:00:50 | 48.40845 | 10.21039 | 51° | 4km/h | 23020m | 5.8m/s | -54.9°C | 4.3% | 36.5hPa | 2.5V | 00:00:00 | 01:31:31 | 00:00:00 | |
| DM0DOS-11 | 2026-09-06 00:00:49 | 48.40842 | 10.21031 | 20° | 5km/h | 22990m | 4.8m/s | -54.8°C | 4.3% | 36.7hPa | 2.5V | 08:30:00 | 01:31:25 | 00:00:00 | |
| DL6DJ-15 | 2026-09-06 00:00:48 | 48.40846 | 10.21035 | 86° | 4km/h | 23005m | 5.8m/s | -54.9°C | 1.2% | 36.6hPa | 2.5V | 00:00:00 | 00:00:00 | 00:00:00 | |
| DK7TD | 2026-09-06 00:00:48 | 48.40846 | 10.21036 | 111° | 5km/h | 23011m | 4.6m/s | -54.9°C | 0.9% | 36.6hPa | 2.6V | 18:12:15 | 01:31:29 | 00:00:00 | |
| DL1ZP-14 | 2026-09-06 00:00:47 | 48.40844 | 10.21032 | 28° | 5km/h | 22995m | 4.6m/s | -54.8°C | 1.2% | 36.7hPa | 2.5V | 00:00:00 | 00:00:00 | 00:00:00 | |
| BAUMI2-15 | 2026-09-06 00:00:46 | 48.40840 | 10.21030 | 335° | 4km/h | 22973m | 5.1m/s | -54.7°C | 4.3% | 36.8hPa | 2.6V | 00:00:00 | 01:31:22 | 00:00:00 | |
| DB0NH | 2026-09-06 00:00:45 | 48.40840 | 10.21030 | 329° | 11km/h | 22967m | 6.4m/s | -54.7°C | 4.4% | 36.8hPa | 2.6V | 00:00:00 | 01:31:21 | 00:00:00 | |
| DO3MHA-12 | 2026-09-06 00:00:44 | 48.40840 | 10.21030 | 329° | 5km/h | 22967m | 6.4m/s | -54.7°C | 4.4% | 36.8hPa | 2.6V | 00:00:00 | 01:31:21 | 00:00:00 | |
| OE5MMP-10 | 2026-09-06 00:00:43 | 48.40839 | 10.21032 | 256° | 5km/h | 22957m | 4.6m/s | -54.7°C | 4.3% | 36.8hPa | 2.6V | 00:00:00 | 01:31:19 | 00:00:00 | |
| IW2NTF | 2026-09-06 00:00:41 | 48.40841 | 10.21034 | 209° | 7km/h | 22945m | 5.1m/s | -54.7°C | 4.3% | 37hPa | 2.6V | 08:30:00 | 01:31:17 | 00:00:00 | |
| DB0UT-7 | 2026-09-06 00:00:41 | 48.40841 | 10.21034 | 210° | 13km/h | 22946m | 5.0m/s | -54.6°C | 4.3% | 36.9hPa | 2.6V | 00:00:00 | 01:31:17 | 00:00:00 | |
| BAUMI2-15 | 2026-09-06 00:00:40 | 48.40841 | 10.21034 | 210° | 5km/h | 22946m | 5.0m/s | -54.6°C | 4.3% | 36.9hPa | 2.6V | 00:00:00 | 01:31:17 | 08:30:00 | |
| DF1GD-15 | 2026-09-06 00:00:37 | 48.40843 | 10.21035 | 199° | 7km/h | 22941m | 4.5m/s | -54.7°C | 1.3% | 37.0hPa | 2.5V | 00:00:00 | 00:00:00 | 00:00:00 | |
| DK7TD | 2026-09-06 00:00:37 | 48.40840 | 10.21033 | 220° | 5km/h | 22951m | 6.6m/s | -54.7°C | 0.8% | 36.9hPa | 2.6V | 18:12:15 | 01:31:18 | 00:00:00 | |
| DM0DOS-11 | 2026-09-06 00:00:36 | 48.40844 | 10.21036 | 175° | 4km/h | 22935m | 5.9m/s | -54.7°C | 4.3% | 37hPa | 2.5V | 08:30:00 | 01:31:15 | 00:00:00 | |
| SONCRA | 2026-09-06 00:00:36 | 48.40844 | 10.21033 | 65° | 7km/h | 22924m | 4.7m/s | -54.7°C | 1.2% | 37.1hPa | 2.6V | 00:00:00 | 00:00:00 | 00:00:00 | |
| HARRO8 | 2026-09-06 00:00:33 | 48.40844 | 10.21025 | 124° | 5km/h | 22908m | 5.7m/s | -54.8°C | 1.2% | 37.2hPa | 2.6V | 00:00:00 | 00:00:00 | 00:00:00 | |
| DM0DOS-11 | 2026-09-06 00:00:31 | 48.40851 | 10.21031 | 218° | 13km/h | 22881m | 4.3m/s | -54.7°C | 4.3% | 37.3hPa | 2.6V | 08:30:00 | 01:31:05 | 00:00:00 | |
| DO3MHA-12 | 2026-09-06 00:00:30 | 48.40843 | 10.21027 | 88° | 11km/h | 22914m | 6.1m/s | -54.7°C | 4.3% | 37.1hPa | 2.6V | 00:00:00 | 01:31:11 | 00:00:00 | |
| IW2NTF | 2026-09-06 00:00:29 | 48.40847 | 10.21025 | 226° | 7km/h | 22890m | 6.2m/s | -54.8°C | 4.3% | 37.2hPa | 2.6V | 08:30:00 | 01:31:07 | 00:00:00 | |
| OE5MMP-10 | 2026-09-06 00:00:28 | 48.40845 | 10.21023 | 168° | 13km/h | 22903m | 5.0m/s | -54.7°C | 4.3% | 37.1hPa | 2.5V | 00:00:00 | 01:31:09 | 00:00:00 | |
| OE5DXL-15 | 2026-09-06 00:00:27 | 48.40847 | 10.21025 | 227° | 20km/h | 22891m | 6.1m/s | -54.7°C | 4.3% | 37.2hPa | 2.6V | 00:00:00 | 00:00:00 | 00:00:00 | |
| DK7TD | 2026-09-06 00:00:26 | 48.40847 | 10.21025 | 227° | 7km/h | 22890m | 6.2m/s | -54.8°C | 0.7% | 37.3hPa | 2.6V | 18:12:15 | 01:31:07 | 00:00:00 | |
| DC4HF-4 | 2026-09-06 00:00:26 | 48.40849 | 10.21028 | 230° | 9km/h | 22885m | 4.5m/s | -54.8°C | 1.2% | 37.3hPa | 2.5V | 00:00:00 | 00:00:00 | 00:00:00 | |
| DF3TZ-5 | 2026-09-06 00:00:24 | 48.40854 | 10.21034 | 205° | 15km/h | 22876m | 6.2m/s | -54.7°C | 0% | 37.3hPa | 2.5V | 00:00:00 | 00:00:00 | 00:00:00 | |
| IW2NTF | 2026-09-06 00:00:22 | 48.40877 | 10.21005 | 107° | 27km/h | 22834m | 5.1m/s | -54.5°C | 4.2% | 37.6hPa | 2.5V | 08:30:00 | 01:30:57 | 00:00:00 | |
| HEMX73-6 | 2026-09-06 00:00:21 | 48.40869 | 10.21029 | 130° | 22km/h | 22852m | 5.7m/s | 0°C | 0% | 0hPa | 2.6V | 00:00:00 | 01:31:00 | 00:00:00 | |
| DL6DJ-15 | 2026-09-06 00:00:20 | 48.40877 | 10.21005 | 107° | 26km/h | 22834m | 5.1m/s | -54.6°C | 1.2% | 37.6hPa | 2.6V | 00:00:00 | 00:00:00 | 00:00:00 | |
| SONDE2-11 | 2026-09-06 00:00:18 | 48.40880 | 10.20987 | 99° | 20km/h | 22823m | 5.7m/s | -54.5°C | 1.2% | 37.7hPa | 2.6V | 00:00:00 | 00:00:00 | 00:00:00 | |
| DM0DOS-11 | 2026-09-06 00:00:17 | 48.40880 | 10.20987 | 99° | 20km/h | 22823m | 5.7m/s | -54.5°C | 4.2% | 37.7hPa | 2.6V | 08:30:00 | 01:30:55 | 00:00:00 | |
| DK7TD | 2026-09-06 00:00:17 | 48.40877 | 10.21005 | 108° | 27km/h | 22834m | 5.1m/s | -54.6°C | 0.7% | 37.6hPa | 2.5V | 18:12:15 | 01:30:57 | 00:00:00 | |
| DO3MHA-12 | 2026-09-06 00:00:11 | 48.40886 | 10.20973 | 171° | 22km/h | 22803m | 5.4m/s | -54.5°C | 4.2% | 37.7hPa | 2.5V | 00:00:00 | 01:30:51 | 08:30:00 | |
| OE5MMP-10 | 2026-09-06 00:00:10 | 48.40895 | 10.20971 | 177° | 24km/h | 22793m | 5.2m/s | -54.6°C | 4.2% | 37.8hPa | 2.5V | 00:00:00 | 01:30:49 | 00:00:00 | |
| DO3MHA-11 | 2026-09-06 00:00:09 | 48.40899 | 10.20971 | 177° | 26km/h | 22787m | 6.3m/s | -54.6°C | 4.2% | 37.8hPa | 2.5V | 00:00:00 | 01:30:48 | 00:00:00 | |
| PG1ADW-2 | 2026-09-06 00:00:08 | 48.40904 | 10.20970 | 170° | 27km/h | 22781m | 5.3m/s | -54.6°C | 4.3% | 37.9hPa | 2.5V | 00:00:00 | 01:30:47 | 00:00:00 | |
| AZAK | 2026-09-06 00:00:07 | 48.40904 | 10.20970 | 170° | 16km/h | 22781m | 5.3m/s | -54.6°C | 1.2% | 37.9hPa | 2.5V | 00:00:00 | 00:00:00 | 00:00:00 | |
| DK7TD | 2026-09-06 00:00:05 | 48.40908 | 10.20969 | 159° | 18km/h | 22776m | 4.5m/s | -54.6°C | 0.8% | 38hPa | 2.5V | 18:12:15 | 01:30:46 | 00:00:00 | |
| DM0DOS-11 | 2026-09-06 00:00:04 | 48.40938 | 10.20926 | 127° | 33km/h | 22741m | 5.5m/s | -54.6°C | 4.3% | 38.1hPa | 2.5V | 08:30:00 | 01:30:40 | 00:00:00 | |
| NBG1-10 | 2026-09-06 00:00:01 | 48.40929 | 10.20945 | 129° | 26km/h | 22752m | 6.5m/s | -54.5°C | 4.2% | 38.1hPa | 2.6V | 00:00:00 | 01:30:42 | 00:00:00 | |
| DO3MHA-12 | 2026-09-06 00:00:00 | 48.40933 | 10.20936 | 126° | 27km/h | 22746m | 4.7m/s | -54.5°C | 4.3% | 38.1hPa | 2.6V | 00:00:00 | 01:30:41 | 00:00:00 | |
| BAUMI2-15 | 2026-09-05 23:59:58 | 48.40943 | 10.20917 | 134° | 29km/h | 22735m | 6.3m/s | -54.5°C | 4.3% | 38.1hPa | 2.6V | 00:00:00 | 01:30:39 | 00:00:00 | |
| DO3MHA-11 | 2026-09-05 23:59:57 | 48.40949 | 10.20908 | 141° | 26km/h | 22730m | 5.1m/s | -54.5°C | 4.3% | 38.2hPa | 2.6V | 00:00:00 | 01:30:38 | 00:00:00 | |
| OE5DXL-15 | 2026-09-05 23:59:56 | 48.40955 | 10.20901 | 144° | 24km/h | 22724m | 5.2m/s | -54.5°C | 4.2% | 38.2hPa | 2.6V | 00:00:00 | 00:00:00 | 00:00:00 | |
| DK7TD | 2026-09-05 23:59:55 | 48.40961 | 10.20895 | 145° | 26km/h | 22718m | 6.4m/s | -54.5°C | 0.8% | 38.3hPa | 2.6V | 18:12:15 | 01:30:36 | 00:00:00 | |
| DB0ND-19 | 2026-09-05 23:59:55 | 48.40966 | 10.20890 | 145° | 22km/h | 22712m | 5.7m/s | -54.5°C | 1.2% | 38.4hPa | 2.6V | 00:00:00 | 00:00:00 | 00:00:00 | |
| IW2NTF | 2026-09-05 23:59:54 | 48.40995 | 10.20855 | 125° | 26km/h | 22680m | 5.1m/s | -54.4°C | 4.2% | 38.5hPa | 2.6V | 08:30:00 | 01:30:29 | 00:00:00 | |
| BAUMI2-15 | 2026-09-05 23:59:53 | 48.40971 | 10.20885 | 149° | 24km/h | 22707m | 5.4m/s | -54.5°C | 4.3% | 38.3hPa | 2.6V | 00:00:00 | 01:30:34 | 00:00:00 | |
| DF3TZ-5 | 2026-09-05 23:59:52 | 48.40976 | 10.20881 | 148° | 24km/h | 22701m | 5.8m/s | -54.5°C | 1.2% | 38.4hPa | 2.6V | 00:00:00 | 00:00:00 | 00:00:00 | |
| DM0DOS-11 | 2026-09-05 23:59:51 | 48.40991 | 10.20863 | 131° | 24km/h | 22685m | 6.2m/s | -54.4°C | 4.3% | 38.5hPa | 2.6V | 08:30:00 | 01:30:30 | 00:00:00 | |
| DK5PH-5 | 2026-09-05 23:59:51 | 48.40981 | 10.20875 | 145° | 24km/h | 22696m | 4.3m/s | -54.4°C | 4.3% | 38.4hPa | 2.6V | 00:00:00 | 01:30:32 | 08:30:00 | |
| DC4HF-4 | 2026-09-05 23:59:50 | 48.40991 | 10.20863 | 131° | 24km/h | 22685m | 6.2m/s | -54.4°C | 1.2% | 38.5hPa | 2.6V | 00:00:00 | 00:00:00 | 00:00:00 | |
| OE5MMP-10 | 2026-09-05 23:59:48 | 48.40995 | 10.20855 | 126° | 26km/h | 22680m | 5.0m/s | -54.3°C | 4.2% | 38.5hPa | 2.6V | 00:00:00 | 01:30:29 | 00:00:00 | |
| DO3MHA-11 | 2026-09-05 23:59:47 | 48.40999 | 10.20847 | 126° | 26km/h | 22674m | 5.6m/s | -54.3°C | 4.2% | 38.5hPa | 2.6V | 00:00:00 | 01:30:28 | 00:00:00 | |
| DL6DJ-15 | 2026-09-05 23:59:45 | 48.41018 | 10.20813 | 135° | 26km/h | 22652m | 6.2m/s | -54.3°C | 1.2% | 38.7hPa | 2.6V | 00:00:00 | 00:00:00 | 00:00:00 | |
| DK7TD | 2026-09-05 23:59:44 | 48.41013 | 10.20821 | 134° | 29km/h | 22658m | 5.4m/s | -54.3°C | 0.7% | 38.7hPa | 2.6V | 18:12:15 | 01:30:25 | 00:00:00 | |
| SONDE2-11 | 2026-09-05 23:59:44 | 48.41102 | 10.20671 | 117° | 22km/h | 22528m | 4.9m/s | -54.2°C | 1.2% | 39.4hPa | 2.6V | 00:00:00 | 00:00:00 | 00:00:00 | |
| BAUMI2-15 | 2026-09-05 23:59:43 | 48.41018 | 10.20813 | 136° | 24km/h | 22652m | 6.2m/s | -54.3°C | 4.2% | 38.7hPa | 2.6V | 00:00:00 | 01:30:24 | 00:00:00 | |
| DO3MHA-12 | 2026-09-05 23:59:40 | 48.41032 | 10.20797 | 146° | 24km/h | 22636m | 6.1m/s | -54.2°C | 4.2% | 38.8hPa | 2.6V | 00:00:00 | 01:30:21 | 00:00:00 | |
| DM0DOS-11 | 2026-09-05 23:59:39 | 48.41046 | 10.20780 | 133° | 22km/h | 22620m | 6.5m/s | -54.3°C | 4.2% | 38.9hPa | 2.6V | 08:30:00 | 01:30:18 | 00:00:00 | |
| OE5MMP-10 | 2026-09-05 23:59:38 | 48.41042 | 10.20786 | 141° | 24km/h | 22626m | 4.9m/s | -54.2°C | 4.2% | 38.8hPa | 2.5V | 00:00:00 | 01:30:19 | 00:00:00 | |
| DO3MHA-11 | 2026-09-05 23:59:37 | 48.41046 | 10.20780 | 134° | 24km/h | 22620m | 6.5m/s | -54.2°C | 4.2% | 38.8hPa | 2.5V | 00:00:00 | 01:30:18 | 00:00:00 | |
| DK7TD | 2026-09-05 23:59:34 | 48.41055 | 10.20758 | 119° | 26km/h | 22604m | 6.2m/s | -54.2°C | 0.7% | 39hPa | 2.5V | 18:12:15 | 01:30:15 | 00:00:00 | |
| DF1GD-15 | 2026-09-05 23:59:33 | 48.41058 | 10.20749 | 123° | 27km/h | 22598m | 5.2m/s | -54.2°C | 1.2% | 39.0hPa | 2.6V | 00:00:00 | 00:00:00 | 00:00:00 | |
| SONCRA | 2026-09-05 23:59:32 | 48.41069 | 10.20726 | 127° | 20km/h | 22582m | 5.3m/s | -54.1°C | 1.2% | 39.1hPa | 2.6V | 00:00:00 | 00:00:00 | 00:00:00 | |
| DM0DOS-11 | 2026-09-05 23:59:32 | 48.41084 | 10.20707 | 146° | 22km/h | 22560m | 4.7m/s | -54.1°C | 4.2% | 39.2hPa | 2.6V | 08:30:00 | 01:30:07 | 00:00:00 | |
| HARRO8 | 2026-09-05 23:59:31 | 48.41069 | 10.20726 | 127° | 20km/h | 22582m | 5.3m/s | -54.1°C | 1.2% | 39.1hPa | 2.6V | 00:00:00 | 00:00:00 | 00:00:00 | |
| DO3MHA-12 | 2026-09-05 23:59:30 | 48.41069 | 10.20726 | 128° | 20km/h | 22582m | 5.3m/s | -54.0°C | 4.2% | 39.1hPa | 2.6V | 00:00:00 | 01:30:11 | 00:00:00 | |
| DF7PN | 2026-09-05 23:59:29 | 48.41076 | 10.20716 | 141° | 18km/h | 22571m | 6.2m/s | -54.1°C | 1.2% | 39.1hPa | 2.6V | 00:00:00 | 00:00:00 | 00:00:00 | |
| OE5MMP-10 | 2026-09-05 23:59:28 | 48.41076 | 10.20716 | 142° | 20km/h | 22571m | 6.2m/s | -54.0°C | 4.1% | 39.1hPa | 2.6V | 00:00:00 | 01:30:09 | 08:30:00 | |
| DO3MHA-11 | 2026-09-05 23:59:27 | 48.41080 | 10.20711 | 146° | 20km/h | 22566m | 5.4m/s | -54.1°C | 4.2% | 39.2hPa | 2.6V | 00:00:00 | 01:30:08 | 08:30:00 | |
| OE5DXL-15 | 2026-09-05 23:59:26 | 48.41084 | 10.20707 | 147° | 15km/h | 22560m | 4.6m/s | -54.1°C | 4.2% | 39.2hPa | 2.6V | 00:00:00 | 00:00:00 | 00:00:00 | |
| AZAK | 2026-09-05 23:59:25 | 48.41084 | 10.20707 | 147° | 22km/h | 22560m | 4.7m/s | -54.1°C | 1.2% | 39.2hPa | 2.5V | 00:00:00 | 00:00:00 | 00:00:00 | |
| DK7TD | 2026-09-05 23:59:24 | 48.41092 | 10.20697 | 131° | 16km/h | 22549m | 5.8m/s | -54.2°C | 0.7% | 39.3hPa | 2.5V | 18:12:15 | 01:30:05 | 00:00:00 | |
| DB0ND-19 | 2026-09-05 23:59:24 | 48.41095 | 10.20692 | 121° | 16km/h | 22544m | 4.8m/s | -54.2°C | 1.2% | 39.4hPa | 2.6V | 00:00:00 | 00:00:00 | 00:00:00 | |
| PG1ADW-2 | 2026-09-05 23:59:23 | 48.41095 | 10.20692 | 122° | 16km/h | 22544m | 4.7m/s | -54.2°C | 4.2% | 39.3hPa | 2.6V | 00:00:00 | 00:00:00 | 00:00:00 | |
| DK5PH-5 | 2026-09-05 23:59:21 | 48.41099 | 10.20679 | 118° | 13km/h | 22534m | 5.8m/s | -54.2°C | 4.2% | 39.3hPa | 2.6V | 00:00:00 | 01:30:02 | 00:00:00 | |
| DM0DOS-11 | 2026-09-05 23:59:18 | 48.41109 | 10.20643 | 114° | 16km/h | 22506m | 5.3m/s | -54.2°C | 4.2% | 39.6hPa | 2.6V | 08:30:00 | 01:29:57 | 00:00:00 | |
| DO3MHA-11 | 2026-09-05 23:59:18 | 48.41108 | 10.20649 | 109° | 15km/h | 22512m | 5.0m/s | -54.2°C | 4.1% | 39.5hPa | 2.6V | 00:00:00 | 01:29:58 | 00:00:00 | |
| DL6DJ-15 | 2026-09-05 23:59:15 | 48.41114 | 10.20632 | 134° | 15km/h | 22496m | 4.3m/s | -54.2°C | 1.2% | 39.6hPa | 2.6V | 00:00:00 | 00:00:00 | 00:00:00 | |
| DK7TD | 2026-09-05 23:59:13 | 48.41117 | 10.20628 | 135° | 15km/h | 22491m | 5.3m/s | -54.2°C | 0.7% | 39.7hPa | 2.6V | 18:12:15 | 01:29:54 | 00:00:00 | |
| DL1ZP-14 | 2026-09-05 23:59:12 | 48.41119 | 10.20625 | 131° | 9km/h | 22485m | 6.1m/s | -54.2°C | 1.2% | 39.7hPa | 2.5V | 00:00:00 | 00:00:00 | 00:00:00 | |
| DM0DOS-11 | 2026-09-05 23:59:11 | 48.41125 | 10.20599 | 82° | 15km/h | 22454m | 6.1m/s | -54°C | 3.9% | 39.9hPa | 2.6V | 08:30:00 | 01:29:47 | 00:00:00 | |
| DO3MHA-12 | 2026-09-05 23:59:10 | 48.41122 | 10.20619 | 122° | 13km/h | 22475m | 5.6m/s | -54.1°C | 4.1% | 39.7hPa | 2.6V | 00:00:00 | 01:29:51 | 00:00:00 | |
| OE5MMP-10 | 2026-09-05 23:59:08 | 48.41125 | 10.20610 | 108° | 13km/h | 22464m | 4.2m/s | -54.1°C | 4.1% | 39.8hPa | 2.6V | 00:00:00 | 01:29:49 | 00:00:00 | |
| DO3MHA-11 | 2026-09-05 23:59:07 | 48.41125 | 10.20604 | 98° | 11km/h | 22460m | 4.5m/s | -54.0°C | 4.0% | 39.8hPa | 2.6V | 00:00:00 | 01:29:48 | 00:00:00 | |
| OE5DRO-10 | 2026-09-05 23:59:05 | 48.41125 | 10.20594 | 69° | 11km/h | 22449m | 5.2m/s | -53.9°C | 4.0% | 39.9hPa | 2.6V | 00:00:00 | 00:00:00 | 00:00:00 | |
| AZAK | 2026-09-05 23:59:04 | 48.41125 | 10.20594 | 69° | 13km/h | 22449m | 5.2m/s | -54.0°C | 1.1% | 39.9hPa | 2.6V | 00:00:00 | 00:00:00 | 00:00:00 | |
| DB0UT-7 | 2026-09-05 23:59:03 | 48.41123 | 10.20585 | 79° | 11km/h | 22439m | 5.2m/s | -53.9°C | 3.9% | 39.9hPa | 2.6V | 00:00:00 | 00:00:00 | 00:00:00 | |
| DK7TD | 2026-09-05 23:59:02 | 48.41122 | 10.20581 | 100° | 11km/h | 22433m | 5.7m/s | -53.9°C | 0.6% | 40hPa | 2.6V | 18:12:15 | 01:29:43 | 00:00:00 | |
| SONCRA | 2026-09-05 23:59:00 | 48.41127 | 10.20572 | 150° | 7km/h | 22417m | 5.7m/s | -54.1°C | 1.1% | 40.1hPa | 2.6V | 00:00:00 | 00:00:00 | 00:00:00 | |
| HARRO8 | 2026-09-05 23:58:59 | 48.41127 | 10.20572 | 150° | 7km/h | 22417m | 5.7m/s | -54.1°C | 1.1% | 40.1hPa | 2.6V | 00:00:00 | 00:00:00 | 00:00:00 | |
| DF7PN | 2026-09-05 23:58:58 | 48.41131 | 10.20570 | 163° | 7km/h | 22407m | 4.7m/s | -54.3°C | 1.1% | 40.2hPa | 2.6V | 00:00:00 | 00:00:00 | 00:00:00 | |
| DB0ND-19 | 2026-09-05 23:58:53 | 48.41140 | 10.20560 | 109° | 7km/h | 22380m | 4.5m/s | -55.0°C | 1.2% | 40.4hPa | 2.6V | 00:00:00 | 00:00:00 | 00:00:00 | |
| DM0DOS-11 | 2026-09-05 23:58:51 | 48.41150 | 10.20534 | 148° | 11km/h | 22350m | 5.9m/s | -55.1°C | 4.2% | 40.5hPa | 2.6V | 08:30:00 | 01:29:27 | 00:00:00 | |
| DK7TD | 2026-09-05 23:58:51 | 48.41141 | 10.20557 | 103° | 9km/h | 22375m | 4.3m/s | -55.1°C | 0.7% | 40.4hPa | 2.6V | 18:12:15 | 01:29:32 | 00:00:00 | |
| DK5PH-5 | 2026-09-05 23:58:51 | 48.41140 | 10.20556 | 104° | 13km/h | 22376m | 4.3m/s | -55.0°C | 4.2% | 40.4hPa | 2.6V | 00:00:00 | 01:29:32 | 00:00:00 | |
| DO3MHA-12 | 2026-09-05 23:58:50 | 48.41141 | 10.20552 | 107° | 13km/h | 22370m | 6.0m/s | -55.0°C | 4.2% | 40.4hPa | 2.6V | 00:00:00 | 01:29:31 | 00:00:00 | |
| DO3MHA-11 | 2026-09-05 23:58:47 | 48.41147 | 10.20537 | 134° | 11km/h | 22356m | 4.8m/s | -55.1°C | 4.2% | 40.5hPa | 2.6V | 00:00:00 | 01:29:28 | 00:00:00 | |
| OE5DRO-10 | 2026-09-05 23:58:46 | 48.41149 | 10.20534 | 149° | 11km/h | 22350m | 5.9m/s | -55.1°C | 4.2% | 40.5hPa | 2.6V | 00:00:00 | 00:00:00 | 00:00:00 | |
| AZAK | 2026-09-05 23:58:44 | 48.41154 | 10.20532 | 182° | 11km/h | 22340m | 4.5m/s | -55.1°C | 1.2% | 40.6hPa | 2.5V | 00:00:00 | 00:00:00 | 00:00:00 | |
| PG1ADW-2 | 2026-09-05 23:58:43 | 48.41157 | 10.20532 | 181° | 13km/h | 22335m | 5.8m/s | -55.1°C | 4.2% | 40.6hPa | 2.5V | 00:00:00 | 01:29:24 | 08:30:00 | |
| DM0DOS-11 | 2026-09-05 23:58:41 | 48.41168 | 10.20516 | 109° | 11km/h | 22299m | 5.8m/s | -55.6°C | 4.4% | 40.9hPa | 2.6V | 08:30:00 | 01:29:17 | 00:00:00 | |
| DK7TD | 2026-09-05 23:58:40 | 48.41165 | 10.20528 | 138° | 9km/h | 22320m | 5m/s | -55.3°C | 0.8% | 40.7hPa | 2.6V | 18:12:15 | 01:29:21 | 00:00:00 | |
| DB0NH | 2026-09-05 23:58:40 | 48.41165 | 10.20528 | 138° | 15km/h | 22320m | 4.9m/s | -55.2°C | 4.2% | 40.7hPa | 2.6V | 00:00:00 | 01:29:21 | 00:00:00 | |
| DJ8HS-15 | 2026-09-05 23:58:38 | 48.41167 | 10.20523 | 103° | 13km/h | 22310m | 4.7m/s | -55.3°C | 4.3% | 40.8hPa | 2.6V | 00:00:00 | 01:29:19 | 00:00:00 | |
| DO3MHA-11 | 2026-09-05 23:58:37 | 48.41167 | 10.20519 | 103° | 13km/h | 22305m | 5.1m/s | -55.4°C | 4.3% | 40.8hPa | 2.5V | 00:00:00 | 01:29:18 | 00:00:00 | |
| DB0UT-7 | 2026-09-05 23:58:33 | 48.41171 | 10.20505 | 117° | 16km/h | 22284m | 5.2m/s | -55.9°C | 4.6% | 40.9hPa | 2.5V | 00:00:00 | 01:29:14 | 00:00:00 | |
| DM0DOS-11 | 2026-09-05 23:58:31 | 48.41189 | 10.20473 | 129° | 16km/h | 22247m | 4.6m/s | -56°C | 4.6% | 41.2hPa | 2.5V | 08:30:00 | 01:29:07 | 00:00:00 | |
| DK7TD | 2026-09-05 23:58:29 | 48.41180 | 10.20488 | 134° | 20km/h | 22263m | 4.8m/s | -56°C | 1% | 41.1hPa | 2.6V | 18:12:15 | 01:29:10 | 00:00:00 | |
| HARRO8 | 2026-09-05 23:58:28 | 48.41183 | 10.20483 | 132° | 18km/h | 22258m | 5.1m/s | -56.0°C | 1.3% | 41.1hPa | 2.6V | 00:00:00 | 00:00:00 | 00:00:00 | |
| DF7PN | 2026-09-05 23:58:27 | 48.41189 | 10.20473 | 129° | 15km/h | 22248m | 4.6m/s | -56.0°C | 1.3% | 41.2hPa | 2.6V | 00:00:00 | 00:00:00 | 00:00:00 | |
| OE5MMP-10 | 2026-09-05 23:58:26 | 48.41189 | 10.20473 | 130° | 15km/h | 22248m | 4.5m/s | -56.0°C | 4.6% | 41.2hPa | 2.6V | 00:00:00 | 01:29:07 | 00:00:00 | |
| AZAK | 2026-09-05 23:58:24 | 48.41194 | 10.20464 | 129° | 16km/h | 22237m | 5.6m/s | -56.0°C | 1.3% | 41.3hPa | 2.6V | 00:00:00 | 00:00:00 | 00:00:00 | |
| PG1ADW-2 | 2026-09-05 23:58:23 | 48.41196 | 10.20459 | 125° | 18km/h | 22232m | 5.0m/s | -55.9°C | 4.7% | 41.3hPa | 2.6V | 00:00:00 | 00:00:00 | 00:00:00 | |
| DB0ND-19 | 2026-09-05 23:58:22 | 48.41199 | 10.20450 | 106° | 9km/h | 22220m | 5.0m/s | -55.9°C | 1.3% | 41.4hPa | 2.6V | 00:00:00 | 00:00:00 | 00:00:00 | |
| DM0DOS-11 | 2026-09-05 23:58:21 | 48.41208 | 10.20422 | 122° | 22km/h | 22195m | 5.2m/s | -55.7°C | 4.6% | 41.5hPa | 2.6V | 08:30:00 | 01:28:57 | 00:00:00 | |
| DK7TD | 2026-09-05 23:58:19 | 48.41201 | 10.20442 | 111° | 15km/h | 22211m | 5.3m/s | -55.8°C | 1% | 41.5hPa | 2.6V | 18:12:15 | 01:29:00 | 00:00:00 | |
| DJ8HS-15 | 2026-09-05 23:58:18 | 48.41203 | 10.20436 | 120° | 20km/h | 22206m | 5.7m/s | -55.8°C | 4.6% | 41.5hPa | 2.6V | 00:00:00 | 01:28:59 | 00:00:00 | |
| DO3MHA-11 | 2026-09-05 23:58:17 | 48.41205 | 10.20429 | 123° | 20km/h | 22200m | 4.8m/s | -55.7°C | 4.6% | 41.5hPa | 2.6V | 00:00:00 | 01:28:58 | 00:00:00 | |
| OE5MMP-10 | 2026-09-05 23:58:16 | 48.41208 | 10.20422 | 123° | 20km/h | 22196m | 5.2m/s | -55.7°C | 4.6% | 41.5hPa | 2.6V | 00:00:00 | 01:28:57 | 00:00:00 | |
| DH7VM-15 | 2026-09-05 23:58:14 | 48.41214 | 10.20408 | 120° | 22km/h | 22185m | 5.0m/s | -55.7°C | 1.3% | 41.6hPa | 2.6V | 00:00:00 | 00:00:00 | 00:00:00 | |
| DL6DJ-15 | 2026-09-05 23:58:12 | 48.41220 | 10.20393 | 117° | 22km/h | 22175m | 6.0m/s | -55.6°C | 1.3% | 41.7hPa | 2.6V | 00:00:00 | 00:00:00 | 00:00:00 | |
| DM0DOS-11 | 2026-09-05 23:58:11 | 48.41222 | 10.20353 | 84° | 18km/h | 22143m | 5.5m/s | -55.3°C | 4.4% | 41.9hPa | 2.6V | 08:30:00 | 01:28:47 | 00:00:00 | |
| DK7TD | 2026-09-05 23:58:08 | 48.41224 | 10.20365 | 77° | 15km/h | 22153m | 4.6m/s | -55.4°C | 0.9% | 41.8hPa | 2.6V | 18:12:15 | 01:28:49 | 00:00:00 | |
| DO3MHA-11 | 2026-09-05 23:58:07 | 48.41223 | 10.20359 | 77° | 22km/h | 22149m | 5.4m/s | -55.3°C | 4.5% | 41.8hPa | 2.6V | 00:00:00 | 01:28:48 | 00:00:00 | |
| OE5MMP-10 | 2026-09-05 23:58:06 | 48.41222 | 10.20353 | 85° | 22km/h | 22143m | 5.5m/s | -55.2°C | 4.4% | 41.8hPa | 2.6V | 00:00:00 | 01:28:47 | 00:00:00 | |
| DB0UT-7 | 2026-09-05 23:58:03 | 48.41223 | 10.20332 | 101° | 18km/h | 22127m | 5.1m/s | -55.1°C | 4.4% | 42.0hPa | 2.5V | 00:00:00 | 00:00:00 | 00:00:00 | |
| AZAK | 2026-09-05 23:58:02 | 48.41223 | 10.20332 | 102° | 20km/h | 22127m | 5.2m/s | -55.1°C | 1.3% | 42.0hPa | 2.6V | 00:00:00 | 00:00:00 | 00:00:00 | |
| DM0DOS-11 | 2026-09-05 23:58:01 | 48.41244 | 10.20283 | 125° | 13km/h | 22091m | 4.1m/s | -55°C | 4.3% | 42.2hPa | 2.6V | 08:30:00 | 01:28:37 | 00:00:00 | |
| DK7TD | 2026-09-05 23:57:57 | 48.41242 | 10.20288 | 131° | 16km/h | 22096m | 5.4m/s | -55°C | 0.8% | 42.2hPa | 2.6V | 18:12:15 | 01:28:38 | 00:00:00 | |
| DF7PN | 2026-09-05 23:57:56 | 48.41246 | 10.20280 | 118° | 9km/h | 22087m | 4.8m/s | -55.0°C | 1.3% | 42.3hPa | 2.5V | 00:00:00 | 00:00:00 | 00:00:00 | |
| DB0ND-19 | 2026-09-05 23:57:51 | 48.41249 | 10.20262 | 84° | 9km/h | 22062m | 5.5m/s | -55.0°C | 1.3% | 42.5hPa | 2.5V | 00:00:00 | 00:00:00 | 00:00:00 | |
| DF3TZ-5 | 2026-09-05 23:57:48 | 48.41250 | 10.20249 | 117° | 15km/h | 22048m | 5.5m/s | -55.0°C | 1.2% | 42.5hPa | 2.5V | 00:00:00 | 00:00:00 | 00:00:00 | |
| IW2NTF | 2026-09-05 23:57:47 | 48.41253 | 10.20243 | 131° | 22km/h | 22043m | 5.7m/s | -55°C | 4.4% | 42.5hPa | 2.5V | 08:30:00 | 01:28:27 | 00:00:00 | |
| DK7TD | 2026-09-05 23:57:47 | 48.41250 | 10.20249 | 118° | 16km/h | 22048m | 5.5m/s | -55°C | 0.8% | 42.5hPa | 2.6V | 18:12:15 | 01:28:28 | 00:00:00 | |
| DO3MHA-11 | 2026-09-05 23:57:47 | 48.41250 | 10.20249 | 118° | 22km/h | 22048m | 5.5m/s | -54.9°C | 4.3% | 42.5hPa | 2.6V | 00:00:00 | 01:28:28 | 00:00:00 | |
| OE5MMP-10 | 2026-09-05 23:57:46 | 48.41253 | 10.20243 | 132° | 22km/h | 22043m | 5.6m/s | -54.9°C | 4.4% | 42.5hPa | 2.6V | 00:00:00 | 01:28:27 | 00:00:00 | |
| PG1ADW-2 | 2026-09-05 23:57:43 | 48.41267 | 10.20223 | 135° | 24km/h | 22029m | 5.6m/s | -54.9°C | 4.4% | 42.6hPa | 2.6V | 00:00:00 | 00:00:00 | 00:00:00 | |
| AZAK | 2026-09-05 23:57:42 | 48.41270 | 10.20216 | 132° | 22km/h | 22023m | 4.7m/s | -54.9°C | 1.2% | 42.7hPa | 2.6V | 00:00:00 | 00:00:00 | 00:00:00 | |
| DM0DOS-11 | 2026-09-05 23:57:41 | 48.41284 | 10.20180 | 103° | 15km/h | 21993m | 6.1m/s | -54.8°C | 4.2% | 42.9hPa | 2.6V | 08:30:00 | 01:28:17 | 00:00:00 | |
| DK7TD | 2026-09-05 23:57:37 | 48.41283 | 10.20186 | 111° | 16km/h | 21998m | 4.5m/s | -54.8°C | 0.7% | 42.9hPa | 2.6V | 18:12:15 | 01:28:18 | 00:00:00 | |
| DO9HM | 2026-09-05 23:57:37 | 48.41283 | 10.20186 | 112° | 16km/h | 21999m | 4.5m/s | -54.8°C | 1.2% | 42.9hPa | 2.6V | 00:00:00 | 00:00:00 | 00:00:00 | |
| OE5MMP-10 | 2026-09-05 23:57:36 | 48.41284 | 10.20180 | 104° | 26km/h | 21993m | 6.0m/s | -54.8°C | 4.2% | 42.9hPa | 2.6V | 00:00:00 | 01:28:17 | 08:30:00 | |
| DB0UT-7 | 2026-09-05 23:57:33 | 48.41288 | 10.20159 | 109° | 27km/h | 21979m | 6.0m/s | -54.7°C | 4.2% | 43.0hPa | 2.6V | 00:00:00 | 01:28:14 | 00:00:00 | |
| DM0DOS-11 | 2026-09-05 23:57:31 | 48.41315 | 10.20092 | 128° | 29km/h | 21943m | 4.8m/s | -54.8°C | 4.3% | 43.2hPa | 2.6V | 08:30:00 | 01:28:07 | 00:00:00 | |
| DK7TD | 2026-09-05 23:57:27 | 48.41316 | 10.20092 | 129° | 29km/h | 21943m | 4.8m/s | -54.8°C | 0.7% | 43.2hPa | 2.6V | 18:12:15 | 01:28:07 | 00:00:00 | |
| OE5DXL-15 | 2026-09-05 23:57:26 | 48.41316 | 10.20092 | 129° | 27km/h | 21943m | 4.7m/s | -54.8°C | 4.3% | 43.2hPa | 2.6V | 00:00:00 | 00:00:00 | 00:00:00 | |
| DF7PN | 2026-09-05 23:57:25 | 48.41323 | 10.20076 | 120° | 22km/h | 21932m | 6.4m/s | -54.8°C | 1.2% | 43.3hPa | 2.6V | 00:00:00 | 00:00:00 | 00:00:00 | |
| IW2NTF | 2026-09-05 23:57:23 | 48.41327 | 10.20062 | 100° | 18km/h | 21922m | 4.2m/s | -54.8°C | 4.3% | 43.4hPa | 2.6V | 08:30:00 | 01:28:03 | 00:00:00 | |
| PG1ADW-2 | 2026-09-05 23:57:23 | 48.41325 | 10.20069 | 109° | 27km/h | 21927m | 4.7m/s | -54.8°C | 4.3% | 43.3hPa | 2.5V | 00:00:00 | 01:28:04 | 00:00:00 | |
| DM0DOS-11 | 2026-09-05 23:57:21 | 48.41340 | 10.20010 | 119° | 27km/h | 21893m | 4.7m/s | -54.8°C | 4.3% | 43.6hPa | 2.5V | 08:30:00 | 01:27:57 | 00:00:00 | |
| DK7TD | 2026-09-05 23:57:16 | 48.41340 | 10.20010 | 119° | 27km/h | 21893m | 4.7m/s | -54.8°C | 0.8% | 43.6hPa | 2.5V | 18:12:15 | 01:27:57 | 00:00:00 | |
| OE5MMP-10 | 2026-09-05 23:57:16 | 48.41340 | 10.20010 | 120° | 31km/h | 21893m | 4.7m/s | -54.7°C | 4.3% | 43.5hPa | 2.6V | 00:00:00 | 01:27:57 | 00:00:00 | |
| BAUMI2-15 | 2026-09-05 23:57:14 | 48.41347 | 10.19990 | 120° | 31km/h | 21884m | 5.9m/s | -54.7°C | 4.2% | 43.6hPa | 2.6V | 00:00:00 | 01:27:55 | 00:00:00 | |
| IW2NTF | 2026-09-05 23:57:13 | 48.41356 | 10.19969 | 119° | 33km/h | 21873m | 4.6m/s | -54.7°C | 4.3% | 43.7hPa | 2.6V | 08:30:00 | 01:27:53 | 00:00:00 | |
| DM0DOS-11 | 2026-09-05 23:57:11 | 48.41373 | 10.19910 | 109° | 27km/h | 21843m | 5m/s | -54.8°C | 4.2% | 43.9hPa | 2.6V | 08:30:00 | 01:27:47 | 00:00:00 | |
| DK7TD | 2026-09-05 23:57:05 | 48.41375 | 10.19900 | 108° | 27km/h | 21837m | 5.7m/s | -54.8°C | 0.8% | 44hPa | 2.6V | 18:12:15 | 01:27:46 | 00:00:00 | |
| IW2NTF | 2026-09-05 23:57:04 | 48.41392 | 10.19845 | 121° | 35km/h | 21811m | 5.2m/s | -55.1°C | 4.4% | 44.1hPa | 2.6V | 08:30:00 | 01:27:41 | 00:00:00 | |
| PG1ADW-2 | 2026-09-05 23:57:03 | 48.41380 | 10.19880 | 113° | 35km/h | 21826m | 6.0m/s | -54.9°C | 4.3% | 44.0hPa | 2.6V | 00:00:00 | 00:00:00 | 00:00:00 | |
| DM0DOS-11 | 2026-09-05 23:57:01 | 48.41409 | 10.19804 | 115° | 33km/h | 21791m | 5.8m/s | -55.1°C | 4.4% | 44.3hPa | 2.6V | 08:30:00 | 01:27:37 | 00:00:00 | |
| DK7TD | 2026-09-05 23:56:55 | 48.41412 | 10.19792 | 111° | 35km/h | 21785m | 5.3m/s | -55°C | 0.9% | 44.3hPa | 2.6V | 18:12:15 | 01:27:36 | 00:00:00 | |
| IW2NTF | 2026-09-05 23:56:54 | 48.41418 | 10.19712 | 95° | 37km/h | 21755m | 4.8m/s | -54.8°C | 4.4% | 44.5hPa | 2.6V | 08:30:00 | 01:27:30 | 00:00:00 | |
| DF7PN | 2026-09-05 23:56:53 | 48.41416 | 10.19766 | 97° | 35km/h | 21776m | 5.1m/s | -55.0°C | 1.3% | 44.4hPa | 2.6V | 00:00:00 | 00:00:00 | 00:00:00 | |
| OE5DRO-10 | 2026-09-05 23:56:52 | 48.41417 | 10.19753 | 94° | 35km/h | 21771m | 5.7m/s | -54.9°C | 4.4% | 44.4hPa | 2.6V | 00:00:00 | 00:00:00 | 00:00:00 | |
| DM0DOS-11 | 2026-09-05 23:56:51 | 48.41421 | 10.19673 | 100° | 31km/h | 21740m | 4.6m/s | -54.8°C | 4.3% | 44.6hPa | 2.6V | 08:30:00 | 01:27:27 | 00:00:00 | |
| DK7TD | 2026-09-05 23:56:45 | 48.41423 | 10.19661 | 103° | 33km/h | 21736m | 4.2m/s | -54.7°C | 0.8% | 44.7hPa | 2.6V | 18:12:15 | 01:27:26 | 00:00:00 | |
| BAUMI2-15 | 2026-09-05 23:56:44 | 48.41425 | 10.19649 | 107° | 37km/h | 21731m | 6.0m/s | 0°C | 0% | 0hPa | 2.6V | 00:00:00 | 01:27:25 | 00:00:00 | |
| PG1ADW-2 | 2026-09-05 23:56:43 | 48.41428 | 10.19635 | 109° | 35km/h | 21725m | 5.2m/s | -54.6°C | 4.3% | 44.7hPa | 2.6V | 00:00:00 | 00:00:00 | 00:00:00 | |
| DM0DOS-11 | 2026-09-05 23:56:41 | 48.41442 | 10.19542 | 88° | 35km/h | 21689m | 5m/s | -54.6°C | 4.2% | 45hPa | 2.6V | 08:30:00 | 01:27:17 | 00:00:00 | |
| DK7TD | 2026-09-05 23:56:34 | 48.41440 | 10.19517 | 78° | 31km/h | 21678m | 4.9m/s | -54.6°C | 0.8% | 45.1hPa | 2.6V | 18:12:15 | 01:27:15 | 00:00:00 | |
| BAUMI2-15 | 2026-09-05 23:56:33 | 48.41438 | 10.19505 | 80° | 33km/h | 21674m | 4.1m/s | 0°C | 0% | 0hPa | 2.6V | 00:00:00 | 01:27:14 | 00:00:00 | |
| DM0DOS-11 | 2026-09-05 23:56:31 | 48.41445 | 10.19422 | 103° | 33km/h | 21638m | 6m/s | -54.4°C | 4.1% | 45.4hPa | 2.6V | 08:30:00 | 01:27:07 | 00:00:00 | |
| DK7TD | 2026-09-05 23:56:24 | 48.41448 | 10.19397 | 95° | 33km/h | 21628m | 4.2m/s | -54.3°C | 0.8% | 45.4hPa | 2.6V | 18:12:15 | 01:27:05 | 00:00:00 | |
| DJTTGO | 2026-09-05 23:56:24 | 48.41448 | 10.19397 | 96° | 33km/h | 21629m | 4.2m/s | -54.3°C | 1.2% | 45.4hPa | 2.6V | 00:00:00 | 00:00:00 | 00:00:00 | |
| DF7PN | 2026-09-05 23:56:23 | 48.41448 | 10.19374 | 85° | 27km/h | 21618m | 4.7m/s | -54.2°C | 1.2% | 45.5hPa | 2.6V | 00:00:00 | 00:00:00 | 00:00:00 | |
| DM0DOS-11 | 2026-09-05 23:56:21 | 48.41442 | 10.19317 | 86° | 22km/h | 21588m | 3.8m/s | -54.5°C | 4.1% | 45.7hPa | 2.6V | 08:30:00 | 01:26:57 | 00:00:00 | |
| DK7TD | 2026-09-05 23:56:14 | 48.41442 | 10.19298 | 94° | 29km/h | 21579m | 6m/s | -54.9°C | 0.8% | 45.8hPa | 2.6V | 18:12:15 | 01:26:55 | 00:00:00 | |
| BAUMI2-15 | 2026-09-05 23:56:13 | 48.41443 | 10.19286 | 99° | 31km/h | 21574m | 4.4m/s | 0°C | 0% | 0hPa | 2.6V | 00:00:00 | 01:26:54 | 00:00:00 | |
| DM0DOS-11 | 2026-09-05 23:56:11 | 48.41459 | 10.19214 | 109° | 22km/h | 21539m | 4m/s | -55.1°C | 4.4% | 46hPa | 2.6V | 08:30:00 | 01:26:47 | 00:00:00 | |
| DK7TD | 2026-09-05 23:56:03 | 48.41462 | 10.19195 | 103° | 13km/h | 21524m | 4.6m/s | -55°C | 0.8% | 46.2hPa | 2.7V | 18:12:15 | 01:26:44 | 00:00:00 | |
| DB0UT-7 | 2026-09-05 23:56:03 | 48.41462 | 10.19195 | 103° | 24km/h | 21524m | 4.5m/s | -54.9°C | 4.3% | 46.1hPa | 2.6V | 00:00:00 | 00:00:00 | 00:00:00 | |
| DM0DOS-11 | 2026-09-05 23:56:01 | 48.41463 | 10.19140 | 78° | 24km/h | 21490m | 4.6m/s | -54.7°C | 4.4% | 46.4hPa | 2.6V | 08:30:00 | 01:26:37 | 00:00:00 | |
| DK7TD | 2026-09-05 23:55:52 | 48.41459 | 10.19106 | 70° | 22km/h | 21469m | 6.1m/s | -54.6°C | 0.8% | 46.5hPa | 2.6V | 18:12:15 | 01:26:33 | 00:00:00 | |
| BAUMI2-15 | 2026-09-05 23:55:52 | 48.41459 | 10.19106 | 70° | 20km/h | 21469m | 6.1m/s | 0°C | 0% | 0hPa | 2.6V | 00:00:00 | 01:26:33 | 00:00:00 | |
| DM0DOS-11 | 2026-09-05 23:55:51 | 48.41446 | 10.19053 | 83° | 24km/h | 21434m | 5.9m/s | -54.8°C | 4.2% | 46.8hPa | 2.6V | 08:30:00 | 01:26:26 | 00:00:00 | |
| DB0ND-19 | 2026-09-05 23:55:46 | 48.41447 | 10.19062 | 83° | 22km/h | 21440m | 4.2m/s | -54.7°C | 1.2% | 46.8hPa | 2.6V | 00:00:00 | 00:00:00 | 00:00:00 | |
| DK7TD | 2026-09-05 23:55:42 | 48.41443 | 10.19025 | 82° | 27km/h | 21420m | 5.9m/s | -54.7°C | 0.8% | 46.9hPa | 2.6V | 18:12:15 | 01:26:23 | 00:00:00 | |
| BAUMI2-15 | 2026-09-05 23:55:42 | 48.41443 | 10.19025 | 82° | 31km/h | 21420m | 5.9m/s | 0°C | 0% | 0hPa | 2.6V | 00:00:00 | 01:26:23 | 00:00:00 | |
| DM0DOS-11 | 2026-09-05 23:55:40 | 48.41417 | 10.18954 | 54° | 29km/h | 21386m | 5.2m/s | -54.9°C | 4.2% | 47.2hPa | 2.6V | 08:30:00 | 01:26:16 | 00:00:00 | |
| DK7TD | 2026-09-05 23:55:31 | 48.41404 | 10.18912 | 69° | 31km/h | 21366m | 4.5m/s | -55.3°C | 0.9% | 47.3hPa | 2.6V | 18:12:15 | 01:26:12 | 00:00:00 | |
| DM0DOS-11 | 2026-09-05 23:55:30 | 48.41388 | 10.18847 | 53° | 33km/h | 21335m | 5.2m/s | -55.3°C | 4.4% | 47.5hPa | 2.6V | 08:30:00 | 01:26:06 | 00:00:00 | |
| DK7TD | 2026-09-05 23:55:21 | 48.41366 | 10.18807 | 54° | 31km/h | 21316m | 4.7m/s | -55.3°C | 0.9% | 47.7hPa | 2.6V | 18:12:15 | 01:26:02 | 00:00:00 | |
| DM0DOS-11 | 2026-09-05 23:55:20 | 48.41343 | 10.18752 | 72° | 24km/h | 21285m | 4.5m/s | -55.1°C | 4.4% | 47.9hPa | 2.6V | 08:30:00 | 01:25:56 | 00:00:00 | |
| DJ8HS-15 | 2026-09-05 23:55:18 | 48.41352 | 10.18779 | 54° | 20km/h | 21301m | 4.2m/s | -55.2°C | 4.4% | 47.8hPa | 2.6V | 00:00:00 | 01:25:59 | 00:00:00 | |
| DO3MHA-11 | 2026-09-05 23:55:17 | 48.41348 | 10.18770 | 60° | 22km/h | 21297m | 4.8m/s | -55.2°C | 4.4% | 47.8hPa | 2.6V | 00:00:00 | 01:25:58 | 00:00:00 | |
| DB0ND-19 | 2026-09-05 23:55:15 | 48.41343 | 10.18752 | 72° | 24km/h | 21286m | 4.5m/s | -55.2°C | 1.3% | 47.9hPa | 2.6V | 00:00:00 | 00:00:00 | 00:00:00 | |
| IW2NTF | 2026-09-05 23:55:13 | 48.41327 | 10.18716 | 51° | 18km/h | 21254m | 5.7m/s | -54.9°C | 4.3% | 48.2hPa | 2.6V | 08:30:00 | 01:25:50 | 00:00:00 | |
| DK7TD | 2026-09-05 23:55:10 | 48.41330 | 10.18721 | 45° | 18km/h | 21260m | 5.5m/s | -55°C | 0.9% | 48.1hPa | 2.6V | 18:12:15 | 01:25:51 | 00:00:00 | |
| DO3MHA-12 | 2026-09-05 23:55:10 | 48.41330 | 10.18721 | 46° | 20km/h | 21260m | 5.4m/s | -54.9°C | 4.4% | 48.1hPa | 2.6V | 00:00:00 | 01:25:51 | 00:00:00 | |
| DO3MHA-11 | 2026-09-05 23:55:07 | 48.41321 | 10.18704 | 54° | 18km/h | 21245m | 4.9m/s | -54.8°C | 4.3% | 48.2hPa | 2.6V | 00:00:00 | 01:25:48 | 00:00:00 | |
| DL6DJ-15 | 2026-09-05 23:55:06 | 48.41318 | 10.18698 | 49° | 20km/h | 21239m | 6.0m/s | -54.8°C | 1.2% | 48.3hPa | 2.6V | 00:00:00 | 00:00:00 | 00:00:00 | |
| DF1GD-15 | 2026-09-05 23:55:05 | 48.41318 | 10.18698 | 50° | 22km/h | 21239m | 6.0m/s | -54.8°C | 1.3% | 48.3hPa | 2.6V | 00:00:00 | 00:00:00 | 00:00:00 | |
| NBG1-10 | 2026-09-05 23:55:04 | 48.41311 | 10.18685 | 54° | 13km/h | 21229m | 5.4m/s | -54.7°C | 4.2% | 48.3hPa | 2.6V | 00:00:00 | 01:25:45 | 00:00:00 | |
| PG1ADW-2 | 2026-09-05 23:55:03 | 48.41308 | 10.18679 | 60° | 16km/h | 21224m | 5.6m/s | -54.7°C | 4.2% | 48.3hPa | 2.6V | 00:00:00 | 00:00:00 | 00:00:00 | |
| IW2NTF | 2026-09-05 23:55:02 | 48.41291 | 10.18645 | 41° | 15km/h | 21186m | 6.1m/s | -54.6°C | 4.1% | 48.7hPa | 2.6V | 08:30:00 | 01:25:37 | 00:00:00 | |
| DK7TD | 2026-09-05 23:55:00 | 48.41300 | 10.18661 | 51° | 18km/h | 21207m | 4.8m/s | -54.7°C | 0.8% | 48.5hPa | 2.7V | 18:12:15 | 01:25:41 | 00:00:00 | |
| DK7TD | 2026-09-05 23:54:49 | 48.41271 | 10.18617 | 42° | 18km/h | 21150m | 5m/s | -55.2°C | 0.8% | 49hPa | 2.6V | 18:12:15 | 01:25:30 | 00:00:00 | |
| DM0DOS-11 | 2026-09-05 23:54:49 | 48.41260 | 10.18600 | 40° | 15km/h | 21130m | 4.8m/s | -55.3°C | 4.5% | 49.1hPa | 2.6V | 08:30:00 | 01:25:26 | 00:00:00 | |
| DB0ND-19 | 2026-09-05 23:54:44 | 48.41257 | 10.18597 | 33° | 15km/h | 21124m | 5.8m/s | -55.3°C | 1.3% | 49.1hPa | 2.6V | 00:00:00 | 00:00:00 | 00:00:00 | |
| PG1ADW-2 | 2026-09-05 23:54:43 | 48.41253 | 10.18594 | 24° | 7km/h | 21120m | 4.2m/s | -55.2°C | 4.4% | 49.1hPa | 2.6V | 00:00:00 | 01:25:24 | 00:00:00 | |
| DF3TZ-5 | 2026-09-05 23:54:41 | 48.41246 | 10.18591 | 9° | 11km/h | 21110m | 5.5m/s | -55.2°C | 1.3% | 49.3hPa | 2.6V | 00:00:00 | 00:00:00 | 00:00:00 | |
| DB0NH | 2026-09-05 23:54:40 | 48.41244 | 10.18590 | 3° | 5km/h | 21105m | 5.1m/s | -55.1°C | 4.4% | 49.3hPa | 2.6V | 00:00:00 | 01:25:21 | 08:30:00 | |
| DM0DOS-11 | 2026-09-05 23:54:39 | 48.41238 | 10.18588 | 344° | 2km/h | 21079m | 6.4m/s | -55°C | 4.3% | 49.5hPa | 2.7V | 08:30:00 | 01:25:16 | 00:00:00 | |
| DK7TD | 2026-09-05 23:54:39 | 48.41242 | 10.18590 | 360° | 5km/h | 21100m | 4.5m/s | -55.1°C | 0.9% | 49.4hPa | 2.6V | 18:12:15 | 01:25:20 | 00:00:00 | |
| OE5DRO-10 | 2026-09-05 23:54:39 | 48.41242 | 10.18590 | 360° | 5km/h | 21100m | 4.4m/s | -55.1°C | 4.5% | 49.3hPa | 2.6V | 00:00:00 | 00:00:00 | 00:00:00 | |
| DJ8HS-15 | 2026-09-05 23:54:38 | 48.41241 | 10.18590 | 13° | 5km/h | 21095m | 6.0m/s | -55.0°C | 4.4% | 49.3hPa | 2.6V | 00:00:00 | 01:25:19 | 08:30:00 | |
| DO3MHA-11 | 2026-09-05 23:54:37 | 48.41240 | 10.18589 | 24° | 5km/h | 21089m | 5.0m/s | -55.0°C | 4.4% | 49.4hPa | 2.7V | 00:00:00 | 01:25:18 | 00:00:00 | |
| AZAK | 2026-09-05 23:54:35 | 48.41238 | 10.18588 | 20° | 4km/h | 21085m | 4.6m/s | -55.0°C | 1.3% | 49.5hPa | 2.7V | 00:00:00 | 00:00:00 | 00:00:00 | |
| IW2NTF | 2026-09-05 23:54:33 | 48.41235 | 10.18594 | 331° | 7km/h | 21056m | 5.1m/s | -54.8°C | 4.3% | 49.7hPa | 2.7V | 08:30:00 | 01:25:12 | 00:00:00 | |
| NBG1-10 | 2026-09-05 23:54:31 | 48.41235 | 10.18593 | 332° | 7km/h | 21056m | 5.0m/s | -54.7°C | 4.3% | 49.6hPa | 2.7V | 00:00:00 | 01:25:12 | 00:00:00 | |
| DO3MHA-12 | 2026-09-05 23:54:30 | 48.41233 | 10.18595 | 332° | 5km/h | 21052m | 3.6m/s | -54.7°C | 4.3% | 49.7hPa | 2.7V | 00:00:00 | 01:25:11 | 00:00:00 | |
| DM0DOS-11 | 2026-09-05 23:54:29 | 48.41227 | 10.18605 | 352° | 2km/h | 21024m | 6.3m/s | -54.7°C | 4.2% | 49.9hPa | 2.7V | 08:30:00 | 01:25:06 | 00:00:00 | |
| DK7TD | 2026-09-05 23:54:28 | 48.41230 | 10.18599 | 306° | 9km/h | 21041m | 6.2m/s | -54.7°C | 0.7% | 49.8hPa | 2.6V | 18:12:15 | 01:25:09 | 00:00:00 | |
| DO3MHA-11 | 2026-09-05 23:54:27 | 48.41228 | 10.18602 | 306° | 4km/h | 21036m | 4.6m/s | -54.6°C | 4.2% | 49.8hPa | 2.6V | 00:00:00 | 01:25:08 | 00:00:00 | |
| IW2NTF | 2026-09-05 23:54:26 | 48.41228 | 10.18603 | 181° | 4km/h | 21001m | 3.8m/s | -54.5°C | 4.2% | 50.1hPa | 2.6V | 08:30:00 | 01:25:02 | 00:00:00 | |
| OE5DXL-15 | 2026-09-05 23:54:26 | 48.41227 | 10.18604 | 314° | 9km/h | 21031m | 5.7m/s | -54.6°C | 4.2% | 49.8hPa | 2.6V | 00:00:00 | 00:00:00 | 00:00:00 | |
| PG1ADW-2 | 2026-09-05 23:54:23 | 48.41226 | 10.18604 | 132° | 7km/h | 21013m | 6.5m/s | -54.6°C | 4.2% | 50.0hPa | 2.6V | 00:00:00 | 00:00:00 | 00:00:00 | |
| DK5PH-5 | 2026-09-05 23:54:21 | 48.41228 | 10.18603 | 182° | 13km/h | 21002m | 3.7m/s | -54.5°C | 4.2% | 50.1hPa | 2.6V | 00:00:00 | 01:25:02 | 00:00:00 | |
| DO3MHA-12 | 2026-09-05 23:54:20 | 48.41229 | 10.18603 | 158° | 7km/h | 20997m | 5.5m/s | -54.5°C | 4.1% | 50.1hPa | 2.6V | 00:00:00 | 01:25:01 | 00:00:00 | |
| DM0DOS-11 | 2026-09-05 23:54:19 | 48.41226 | 10.18608 | 294° | 11km/h | 20968m | 4m/s | -54.9°C | 4.2% | 50.4hPa | 2.6V | 08:30:00 | 01:24:56 | 00:00:00 | |
| DK7TD | 2026-09-05 23:54:18 | 48.41229 | 10.18602 | 349° | 4km/h | 20985m | 5.3m/s | -54.6°C | 0.6% | 50.2hPa | 2.6V | 18:12:15 | 01:24:59 | 00:00:00 | |
| DJ8HS-15 | 2026-09-05 23:54:18 | 48.41229 | 10.18602 | 349° | 9km/h | 20985m | 5.2m/s | -54.5°C | 4.1% | 50.2hPa | 2.6V | 00:00:00 | 01:24:59 | 00:00:00 | |
| DO3MHA-11 | 2026-09-05 23:54:17 | 48.41228 | 10.18603 | 314° | 9km/h | 20980m | 6.5m/s | -54.6°C | 4.2% | 50.2hPa | 2.6V | 00:00:00 | 01:24:58 | 00:00:00 | |
| AZAK | 2026-09-05 23:54:15 | 48.41226 | 10.18608 | 296° | 11km/h | 20969m | 4.1m/s | -54.9°C | 1.2% | 50.4hPa | 2.6V | 00:00:00 | 00:00:00 | 00:00:00 | |
| IW2NTF | 2026-09-05 23:54:13 | 48.41220 | 10.18615 | 59° | 7km/h | 20947m | 5.2m/s | -55.2°C | 4.4% | 50.5hPa | 2.6V | 08:30:00 | 01:24:52 | 00:00:00 | |
| DB0ND-19 | 2026-09-05 23:54:13 | 48.41223 | 10.18615 | 317° | 7km/h | 20959m | 5.5m/s | -55.0°C | 1.3% | 50.4hPa | 2.6V | 00:00:00 | 00:00:00 | 00:00:00 | |
| DB0NH | 2026-09-05 23:54:10 | 48.41220 | 10.18611 | 87° | 18km/h | 20941m | 5.8m/s | -55.2°C | 4.3% | 50.5hPa | 2.6V | 00:00:00 | 01:24:51 | 00:00:00 | |
| DM0DOS-11 | 2026-09-05 23:54:09 | 48.41225 | 10.18595 | 124° | 9km/h | 20913m | 6m/s | -55.3°C | 4.4% | 50.8hPa | 2.6V | 08:30:00 | 01:24:46 | 00:00:00 | |
| DK7TD | 2026-09-05 23:54:08 | 48.41221 | 10.18604 | 122° | 11km/h | 20929m | 5.2m/s | -55.4°C | 0.8% | 50.6hPa | 2.6V | 18:12:15 | 01:24:49 | 00:00:00 | |
| IW2NTF | 2026-09-05 23:54:07 | 48.41235 | 10.18581 | 164° | 13km/h | 20887m | 4m/s | -55.1°C | 4.3% | 51hPa | 2.6V | 08:30:00 | 01:24:41 | 00:00:00 | |
| DL6DJ-15 | 2026-09-05 23:54:04 | 48.41228 | 10.18589 | 120° | 11km/h | 20902m | 4.6m/s | -55.3°C | 1.3% | 50.9hPa | 2.6V | 00:00:00 | 00:00:00 | 00:00:00 | |
| DB0UT-7 | 2026-09-05 23:54:03 | 48.41228 | 10.18588 | 121° | 22km/h | 20902m | 4.6m/s | -55.2°C | 4.4% | 50.8hPa | 2.6V | 00:00:00 | 00:00:00 | 00:00:00 | |
| DL1ZP-14 | 2026-09-05 23:54:02 | 48.41232 | 10.18583 | 153° | 9km/h | 20892m | 5.2m/s | -55.2°C | 1.3% | 51.0hPa | 2.6V | 00:00:00 | 00:00:00 | 00:00:00 | |
| OE5DRO-10 | 2026-09-05 23:54:01 | 48.41232 | 10.18583 | 154° | 22km/h | 20892m | 5.2m/s | -55.1°C | 4.4% | 50.9hPa | 2.6V | 00:00:00 | 00:00:00 | 00:00:00 | |
| DO3MHA-12 | 2026-09-05 23:54:00 | 48.41234 | 10.18581 | 165° | 22km/h | 20887m | 3.9m/s | -55.1°C | 4.3% | 51.0hPa | 2.7V | 00:00:00 | 01:24:41 | 00:00:00 | |
| DM0DOS-11 | 2026-09-05 23:53:59 | 48.41261 | 10.18572 | 170° | 27km/h | 20860m | 5.1m/s | -55°C | 4.2% | 51.2hPa | 2.7V | 08:30:00 | 01:24:36 | 00:00:00 | |
| DK7TD | 2026-09-05 23:53:57 | 48.41248 | 10.18576 | 166° | 24km/h | 20871m | 4.6m/s | -55.1°C | 0.8% | 51.1hPa | 2.6V | 18:12:15 | 01:24:38 | 00:00:00 | |
| DO3MHA-11 | 2026-09-05 23:53:57 | 48.41248 | 10.18575 | 166° | 24km/h | 20871m | 4.5m/s | -55.0°C | 4.3% | 51.1hPa | 2.6V | 00:00:00 | 01:24:38 | 00:00:00 | |
| OE5DXL-15 | 2026-09-05 23:53:56 | 48.41254 | 10.18573 | 170° | 26km/h | 20866m | 6.1m/s | -55.0°C | 4.2% | 51.1hPa | 2.7V | 00:00:00 | 00:00:00 | 00:00:00 | |
| AZAK | 2026-09-05 23:53:54 | 48.41267 | 10.18569 | 165° | 26km/h | 20855m | 4.5m/s | -55.0°C | 1.3% | 51.3hPa | 2.7V | 00:00:00 | 00:00:00 | 00:00:00 | |
| IW2NTF | 2026-09-05 23:53:53 | 48.41287 | 10.18552 | 144° | 20km/h | 20834m | 6.4m/s | -55°C | 4.2% | 51.4hPa | 2.7V | 08:30:00 | 01:24:31 | 00:00:00 | |
| DK5PH-5 | 2026-09-05 23:53:51 | 48.41283 | 10.18557 | 141° | 26km/h | 20839m | 4.5m/s | -54.9°C | 4.2% | 51.3hPa | 2.6V | 00:00:00 | 01:24:32 | 00:00:00 | |
| DO3MHA-12 | 2026-09-05 23:53:50 | 48.41287 | 10.18552 | 145° | 24km/h | 20834m | 6.3m/s | -55.0°C | 4.2% | 51.4hPa | 2.6V | 00:00:00 | 01:24:31 | 00:00:00 | |
| DM0DOS-11 | 2026-09-05 23:53:49 | 48.41309 | 10.18535 | 146° | 24km/h | 20806m | 4.6m/s | -55.3°C | 4.3% | 51.6hPa | 2.6V | 08:30:00 | 01:24:26 | 00:00:00 | |
| DK7TD | 2026-09-05 23:53:46 | 48.41304 | 10.18540 | 151° | 20km/h | 20811m | 5.7m/s | -55.2°C | 0.8% | 51.6hPa | 2.6V | 18:12:15 | 01:24:27 | 00:00:00 | |
| IW2NTF | 2026-09-05 23:53:45 | 48.41339 | 10.18508 | 143° | 27km/h | 20780m | 5.8m/s | -55.9°C | 4.6% | 51.9hPa | 2.6V | 08:30:00 | 01:24:21 | 00:00:00 | |
| PG1ADW-2 | 2026-09-05 23:53:43 | 48.41321 | 10.18524 | 151° | 27km/h | 20796m | 5.9m/s | -55.6°C | 4.4% | 51.7hPa | 2.6V | 00:00:00 | 00:00:00 | 00:00:00 | |
| OE5DRO-10 | 2026-09-05 23:53:42 | 48.41327 | 10.18519 | 153° | 27km/h | 20790m | 4.8m/s | -55.7°C | 4.5% | 51.7hPa | 2.6V | 00:00:00 | 00:00:00 | 00:00:00 | |
| DO3MHA-12 | 2026-09-05 23:53:40 | 48.41340 | 10.18508 | 144° | 24km/h | 20780m | 5.8m/s | -55.9°C | 4.6% | 51.8hPa | 2.6V | 00:00:00 | 01:24:21 | 00:00:00 | |
| DM0DOS-11 | 2026-09-05 23:53:39 | 48.41359 | 10.18477 | 139° | 18km/h | 20753m | 4.8m/s | -55.8°C | 4.5% | 52.1hPa | 2.6V | 08:30:00 | 01:24:16 | 00:00:00 | |
| DK7TD | 2026-09-05 23:53:35 | 48.41359 | 10.18477 | 140° | 18km/h | 20753m | 4.9m/s | -55.8°C | 0.9% | 52.1hPa | 2.6V | 18:12:15 | 01:24:16 | 00:00:00 | |
| AZAK | 2026-09-05 23:53:34 | 48.41363 | 10.18471 | 140° | 22km/h | 20748m | 5.0m/s | -55.8°C | 1.3% | 52.1hPa | 2.6V | 00:00:00 | 00:00:00 | 00:00:00 | |
| DL6DJ-15 | 2026-09-05 23:53:33 | 48.41372 | 10.18459 | 137° | 29km/h | 20737m | 4.9m/s | -55.8°C | 1.4% | 52.2hPa | 2.6V | 00:00:00 | 00:00:00 | 00:00:00 | |
| DL1ZP-14 | 2026-09-05 23:53:31 | 48.41385 | 10.18443 | 142° | 33km/h | 20727m | 6.0m/s | -55.9°C | 1.3% | 52.3hPa | 2.6V | 00:00:00 | 00:00:00 | 00:00:00 | |
| DO3MHA-12 | 2026-09-05 23:53:30 | 48.41384 | 10.18443 | 143° | 29km/h | 20727m | 5.9m/s | -55.8°C | 4.6% | 52.3hPa | 2.6V | 00:00:00 | 01:24:11 | 00:00:00 | |
| DM0DOS-11 | 2026-09-05 23:53:29 | 48.41415 | 10.18400 | 127° | 31km/h | 20700m | 5m/s | -55.7°C | 4.5% | 52.5hPa | 2.6V | 08:30:00 | 01:24:06 | 00:00:00 | |
| DK7TD | 2026-09-05 23:53:25 | 48.41415 | 10.18400 | 127° | 31km/h | 20700m | 5m/s | -55.7°C | 0.9% | 52.5hPa | 2.6V | 18:12:15 | 01:24:06 | 00:00:00 | |
| NBG1-10 | 2026-09-05 23:53:25 | 48.41415 | 10.18400 | 128° | 29km/h | 20701m | 5.0m/s | -55.7°C | 4.5% | 52.5hPa | 2.6V | 00:00:00 | 01:24:06 | 00:00:00 | |
| IW2NTF | 2026-09-05 23:53:24 | 48.41435 | 10.18364 | 124° | 24km/h | 20674m | 5.7m/s | -55.6°C | 4.5% | 52.7hPa | 2.6V | 08:30:00 | 01:24:01 | 00:00:00 | |
| PG1ADW-2 | 2026-09-05 23:53:23 | 48.41424 | 10.18384 | 132° | 27km/h | 20689m | 5.3m/s | -55.6°C | 4.5% | 52.6hPa | 2.7V | 00:00:00 | 01:24:04 | 00:00:00 | |
| DF1GD-15 | 2026-09-05 23:53:22 | 48.41424 | 10.18384 | 133° | 24km/h | 20689m | 5.3m/s | -55.6°C | 1.4% | 52.6hPa | 2.7V | 00:00:00 | 00:00:00 | 00:00:00 | |
| DO3MHA-12 | 2026-09-05 23:53:20 | 48.41435 | 10.18364 | 125° | 33km/h | 20674m | 5.6m/s | -55.5°C | 4.5% | 52.7hPa | 2.7V | 00:00:00 | 01:24:01 | 00:00:00 | |
| DM0DOS-11 | 2026-09-05 23:53:19 | 48.41460 | 10.18320 | 138° | 37km/h | 20647m | 5.4m/s | -55.4°C | 4.4% | 52.9hPa | 2.7V | 08:30:00 | 01:23:56 | 00:00:00 | |
| DK7TD | 2026-09-05 23:53:14 | 48.41467 | 10.18311 | 137° | 38km/h | 20641m | 6.2m/s | -55.4°C | 0.9% | 53hPa | 2.6V | 18:12:15 | 01:23:55 | 00:00:00 | |
| AZAK | 2026-09-05 23:53:12 | 48.41473 | 10.18301 | 138° | 37km/h | 20636m | 4.3m/s | -55.5°C | 1.4% | 53.1hPa | 2.6V | 00:00:00 | 00:00:00 | 00:00:00 | |
| IW2NTF | 2026-09-05 23:53:11 | 48.41492 | 10.18279 | 148° | 24km/h | 20620m | 4.9m/s | -55.7°C | 4.6% | 53.2hPa | 2.6V | 08:30:00 | 01:23:51 | 00:00:00 | |
| DB0ND-19 | 2026-09-05 23:53:11 | 48.41486 | 10.18285 | 144° | 29km/h | 20626m | 6.3m/s | -55.6°C | 1.3% | 53.2hPa | 2.6V | 00:00:00 | 00:00:00 | 00:00:00 | |
| DO3MHA-12 | 2026-09-05 23:53:10 | 48.41492 | 10.18279 | 149° | 27km/h | 20621m | 4.8m/s | -55.6°C | 4.6% | 53.1hPa | 2.6V | 00:00:00 | 01:23:51 | 00:00:00 | |
| DM0DOS-11 | 2026-09-05 23:53:09 | 48.41514 | 10.18253 | 140° | 27km/h | 20596m | 5.4m/s | -55.5°C | 4.5% | 53.4hPa | 2.6V | 08:30:00 | 01:23:46 | 00:00:00 | |
| DF3TZ-5 | 2026-09-05 23:53:08 | 48.41501 | 10.18270 | 140° | 18km/h | 20611m | 5.6m/s | -55.7°C | 1.4% | 53.3hPa | 2.6V | 00:00:00 | 00:00:00 | 00:00:00 | |
| DO3MHA-11 | 2026-09-05 23:53:07 | 48.41505 | 10.18265 | 136° | 31km/h | 20606m | 4.7m/s | -55.5°C | 4.6% | 53.3hPa | 2.6V | 00:00:00 | 01:23:48 | 00:00:00 | |
| IW2NTF | 2026-09-05 23:53:05 | 48.41549 | 10.18217 | 145° | 37km/h | 20569m | 4.7m/s | -55.2°C | 4.5% | 53.6hPa | 2.6V | 08:30:00 | 01:23:41 | 00:00:00 | |
| DK7TD | 2026-09-05 23:53:03 | 48.41526 | 10.18239 | 149° | 35km/h | 20585m | 4.9m/s | -55.4°C | 0.9% | 53.5hPa | 2.6V | 18:12:15 | 01:23:44 | 00:00:00 | |
| DB0UT-7 | 2026-09-05 23:53:03 | 48.41526 | 10.18239 | 150° | 33km/h | 20585m | 4.8m/s | -55.4°C | 4.5% | 53.5hPa | 2.6V | 00:00:00 | 00:00:00 | 00:00:00 | |
| DF1GD-15 | 2026-09-05 23:53:01 | 48.41534 | 10.18232 | 149° | 37km/h | 20580m | 5.3m/s | -55.4°C | 1.4% | 53.5hPa | 2.6V | 00:00:00 | 00:00:00 | 00:00:00 | |
| DO3MHA-12 | 2026-09-05 23:53:00 | 48.41549 | 10.18217 | 146° | 31km/h | 20569m | 4.6m/s | -55.2°C | 4.5% | 53.6hPa | 2.6V | 00:00:00 | 01:23:41 | 00:00:00 | |
| DM0DOS-11 | 2026-09-05 23:52:59 | 48.41586 | 10.18193 | 162° | 27km/h | 20543m | 6m/s | -55°C | 4.3% | 53.8hPa | 2.6V | 08:30:00 | 01:23:36 | 00:00:00 | |
| DK7TD | 2026-09-05 23:52:52 | 48.41605 | 10.18183 | 161° | 29km/h | 20528m | 5.8m/s | -55°C | 0.8% | 53.9hPa | 2.7V | 18:12:15 | 01:23:33 | 00:00:00 | |
| AZAK | 2026-09-05 23:52:52 | 48.41605 | 10.18182 | 162° | 29km/h | 20528m | 5.8m/s | -55.0°C | 1.3% | 53.9hPa | 2.6V | 00:00:00 | 00:00:00 | 00:00:00 | |
| IW2NTF | 2026-09-05 23:52:51 | 48.41629 | 10.18170 | 156° | 35km/h | 20512m | 5.9m/s | -55°C | 4.3% | 54.1hPa | 2.6V | 08:30:00 | 01:23:30 | 00:00:00 | |
| DK5PH-5 | 2026-09-05 23:52:51 | 48.41613 | 10.18179 | 163° | 37km/h | 20522m | 5.1m/s | -54.9°C | 4.3% | 54.0hPa | 2.7V | 00:00:00 | 01:23:32 | 00:00:00 | |
| DO3MHA-12 | 2026-09-05 23:52:50 | 48.41621 | 10.18175 | 162° | 33km/h | 20518m | 4.7m/s | -54.9°C | 4.3% | 54.0hPa | 2.7V | 00:00:00 | 01:23:31 | 00:00:00 | |
| DM0DOS-11 | 2026-09-05 23:52:49 | 48.41659 | 10.18147 | 156° | 33km/h | 20490m | 5.3m/s | -54.9°C | 4.2% | 54.3hPa | 2.7V | 08:30:00 | 01:23:26 | 00:00:00 | |
| DO3MHA-11 | 2026-09-05 23:52:47 | 48.41644 | 10.18158 | 150° | 33km/h | 20501m | 5.0m/s | -54.9°C | 4.2% | 54.2hPa | 2.7V | 00:00:00 | 01:23:28 | 00:00:00 | |
| OE5DRO-10 | 2026-09-05 23:52:46 | 48.41659 | 10.18147 | 157° | 38km/h | 20490m | 5.3m/s | -54.9°C | 4.2% | 54.3hPa | 2.7V | 00:00:00 | 00:00:00 | 00:00:00 | |
| IW2NTF | 2026-09-05 23:52:44 | 48.41704 | 10.18120 | 167° | 35km/h | 20458m | 4.3m/s | -55°C | 4.3% | 54.6hPa | 2.7V | 08:30:00 | 01:23:20 | 00:00:00 | |
| DK7TD | 2026-09-05 23:52:41 | 48.41688 | 10.18127 | 158° | 31km/h | 20468m | 4.7m/s | -55°C | 0.8% | 54.5hPa | 2.6V | 18:12:15 | 01:23:22 | 00:00:00 | |
| DB0NH | 2026-09-05 23:52:40 | 48.41696 | 10.18123 | 163° | 38km/h | 20463m | 6.0m/s | -54.9°C | 4.3% | 54.5hPa | 2.6V | 00:00:00 | 01:23:21 | 00:00:00 | |
| DJ8HS-15 | 2026-09-05 23:52:38 | 48.41712 | 10.18117 | 167° | 40km/h | 20453m | 4.2m/s | -55.0°C | 4.4% | 54.5hPa | 2.6V | 00:00:00 | 01:23:19 | 00:00:00 | |
| DO3MHA-11 | 2026-09-05 23:52:37 | 48.41721 | 10.18114 | 164° | 42km/h | 20448m | 5.9m/s | -55.2°C | 4.4% | 54.6hPa | 2.6V | 00:00:00 | 01:23:18 | 00:00:00 | |
| IW2NTF | 2026-09-05 23:52:33 | 48.41821 | 10.18052 | 156° | 40km/h | 20395m | 5.6m/s | -55.4°C | 4.5% | 55.1hPa | 2.6V | 08:30:00 | 01:23:08 | 00:00:00 | |
| DK7TD | 2026-09-05 23:52:30 | 48.41791 | 10.18072 | 158° | 46km/h | 20410m | 5.9m/s | -55.4°C | 0.9% | 55hPa | 2.6V | 18:12:15 | 01:23:11 | 00:00:00 | |
| DO3MHA-12 | 2026-09-05 23:52:30 | 48.41791 | 10.18072 | 159° | 38km/h | 20411m | 5.9m/s | -55.3°C | 4.4% | 54.9hPa | 2.7V | 00:00:00 | 01:23:11 | 00:00:00 | |
| DL1ZP-14 | 2026-09-05 23:52:29 | 48.41812 | 10.18059 | 155° | 40km/h | 20401m | 4.8m/s | -55.4°C | 1.3% | 55.0hPa | 2.7V | 00:00:00 | 00:00:00 | 00:00:00 | |
| DO3MHA-11 | 2026-09-05 23:52:27 | 48.41821 | 10.18053 | 157° | 37km/h | 20395m | 5.6m/s | -55.4°C | 4.5% | 55.1hPa | 2.6V | 00:00:00 | 01:23:08 | 00:00:00 | |
| OE5DXL-15 | 2026-09-05 23:52:26 | 48.41830 | 10.18047 | 155° | 35km/h | 20391m | 3.8m/s | -55.4°C | 4.5% | 55.1hPa | 2.6V | 00:00:00 | 00:00:00 | 00:00:00 | |
| OE9MKV-15 | 2026-09-05 23:52:25 | 48.41838 | 10.18040 | 151° | 35km/h | 20386m | 5.0m/s | -55.3°C | 4.4% | 55.1hPa | 2.6V | 00:00:00 | 01:23:06 | 00:00:00 | |
| PG1ADW-2 | 2026-09-05 23:52:23 | 48.41853 | 10.18025 | 142° | 35km/h | 20375m | 5.3m/s | -55.3°C | 4.4% | 55.2hPa | 2.6V | 00:00:00 | 00:00:00 | 00:00:00 | |
| IW2NTF | 2026-09-05 23:52:22 | 48.41890 | 10.17986 | 146° | 37km/h | 20348m | 5.4m/s | -55.2°C | 4.3% | 55.5hPa | 2.6V | 08:30:00 | 01:22:59 | 00:00:00 | |
| DK5PH-5 | 2026-09-05 23:52:21 | 48.41867 | 10.18008 | 145° | 35km/h | 20364m | 6.2m/s | -55.2°C | 4.4% | 55.3hPa | 2.6V | 00:00:00 | 01:23:02 | 00:00:00 | |
| DO3MHA-12 | 2026-09-05 23:52:20 | 48.41875 | 10.18001 | 148° | 37km/h | 20359m | 4.5m/s | -55.2°C | 4.4% | 55.4hPa | 2.6V | 00:00:00 | 01:23:01 | 00:00:00 | |
| DM0DOS-11 | 2026-09-05 23:52:19 | 48.41914 | 10.17964 | 153° | 37km/h | 20333m | 5m/s | -55.1°C | 4.3% | 55.6hPa | 2.6V | 08:30:00 | 01:22:56 | 00:00:00 | |
| DK7TD | 2026-09-05 23:52:19 | 48.41882 | 10.17994 | 147° | 37km/h | 20354m | 5.3m/s | -55.2°C | 0.8% | 55.5hPa | 2.6V | 18:12:15 | 01:23:00 | 00:00:00 | |
| NBG1-10 | 2026-09-05 23:52:19 | 48.41882 | 10.17994 | 148° | 37km/h | 20354m | 5.3m/s | -55.2°C | 4.3% | 55.4hPa | 2.6V | 00:00:00 | 01:23:00 | 08:30:00 | |
| DJ8HS-15 | 2026-09-05 23:52:18 | 48.41890 | 10.17986 | 147° | 35km/h | 20348m | 5.4m/s | -55.1°C | 4.3% | 55.5hPa | 2.6V | 00:00:00 | 01:22:59 | 00:00:00 | |
| DO3MHA-11 | 2026-09-05 23:52:17 | 48.41898 | 10.17978 | 148° | 37km/h | 20344m | 4.4m/s | -55.1°C | 4.4% | 55.5hPa | 2.6V | 00:00:00 | 01:22:58 | 00:00:00 | |
| SONCRA | 2026-09-05 23:52:16 | 48.41914 | 10.17964 | 153° | 35km/h | 20333m | 5.0m/s | -55.1°C | 1.3% | 55.6hPa | 2.6V | 00:00:00 | 00:00:00 | 00:00:00 | |
| IW2NTF | 2026-09-05 23:52:14 | 48.41964 | 10.17906 | 137° | 33km/h | 20299m | 4.4m/s | -55.1°C | 4.3% | 55.9hPa | 2.6V | 08:30:00 | 01:22:49 | 00:00:00 | |
| AZAK | 2026-09-05 23:52:10 | 48.41951 | 10.17924 | 138° | 37km/h | 20309m | 5.7m/s | -55.1°C | 1.3% | 55.8hPa | 2.7V | 00:00:00 | 00:00:00 | 00:00:00 | |
| DM0DOS-11 | 2026-09-05 23:52:09 | 48.41980 | 10.17878 | 126° | 33km/h | 20284m | 4.6m/s | -55°C | 4.3% | 56hPa | 2.7V | 08:30:00 | 01:22:46 | 00:00:00 | |
| DK7TD | 2026-09-05 23:52:09 | 48.41957 | 10.17915 | 138° | 35km/h | 20304m | 5.3m/s | -55.1°C | 0.8% | 55.9hPa | 2.6V | 18:12:15 | 01:22:50 | 00:00:00 | |
| DO3MHA-11 | 2026-09-05 23:52:07 | 48.41970 | 10.17897 | 134° | 33km/h | 20294m | 4.6m/s | -55.0°C | 4.4% | 55.9hPa | 2.6V | 00:00:00 | 01:22:48 | 00:00:00 | |
| DB0UT-7 | 2026-09-05 23:52:03 | 48.41990 | 10.17860 | 134° | 40km/h | 20275m | 5.9m/s | -55.0°C | 4.3% | 56.1hPa | 2.6V | 00:00:00 | 00:00:00 | 00:00:00 | |
| IW2NTF | 2026-09-05 23:52:01 | 48.42022 | 10.17821 | 133° | 37km/h | 20250m | 4.8m/s | -55.3°C | 4.5% | 56.4hPa | 2.6V | 08:30:00 | 01:22:39 | 00:00:00 | |
| DL6DJ-15 | 2026-09-05 23:52:00 | 48.42015 | 10.17831 | 139° | 35km/h | 20255m | 5.7m/s | -55.2°C | 1.3% | 56.3hPa | 2.6V | 00:00:00 | 00:00:00 | 00:00:00 | |
| DF1GD-15 | 2026-09-05 23:51:59 | 48.42008 | 10.17839 | 146° | 33km/h | 20261m | 5.1m/s | -55.2°C | 1.3% | 56.3hPa | 2.6V | 00:00:00 | 00:00:00 | 00:00:00 | |
| DM0DOS-11 | 2026-09-05 23:51:58 | 48.42040 | 10.17789 | 130° | 37km/h | 20234m | 5.5m/s | -55.4°C | 4.5% | 56.5hPa | 2.6V | 08:30:00 | 01:22:36 | 00:00:00 | |
| DK7TD | 2026-09-05 23:51:58 | 48.42022 | 10.17821 | 133° | 37km/h | 20250m | 4.8m/s | -55.3°C | 0.9% | 56.4hPa | 2.6V | 18:12:15 | 01:22:39 | 00:00:00 | |
| DK7TD | 2026-09-05 23:51:48 | 48.42083 | 10.17712 | 132° | 38km/h | 20197m | 6m/s | -55.3°C | 0.9% | 56.8hPa | 2.7V | 18:12:15 | 01:22:29 | 00:00:00 | |
| HARRO8 | 2026-09-05 23:51:45 | 48.42103 | 10.17675 | 127° | 44km/h | 20182m | 5.1m/s | -55.1°C | 1.3% | 57.0hPa | 2.6V | 00:00:00 | 00:00:00 | 00:00:00 | |
| DF7PN | 2026-09-05 23:51:43 | 48.42123 | 10.17637 | 127° | 40km/h | 20165m | 5.1m/s | -55.0°C | 1.3% | 57.1hPa | 2.6V | 00:00:00 | 00:00:00 | 00:00:00 | |
| DO3MHA-12 | 2026-09-05 23:51:40 | 48.42135 | 10.17610 | 118° | 42km/h | 20154m | 5.4m/s | -54.9°C | 4.4% | 57.2hPa | 2.6V | 00:00:00 | 01:22:21 | 00:00:00 | |
| IW2NTF | 2026-09-05 23:51:38 | 48.42155 | 10.17546 | 118° | 44km/h | 20133m | 5.8m/s | -54.8°C | 4.3% | 57.4hPa | 2.7V | 08:30:00 | 01:22:17 | 00:00:00 | |
| DM0DOS-11 | 2026-09-05 23:51:38 | 48.42160 | 10.17532 | 118° | 40km/h | 20127m | 5.1m/s | -54.8°C | 4.3% | 57.5hPa | 2.6V | 08:30:00 | 01:22:16 | 00:00:00 | |
| DK7TD | 2026-09-05 23:51:37 | 48.42150 | 10.17561 | 116° | 47km/h | 20139m | 6.4m/s | -54.8°C | 0.8% | 57.4hPa | 2.7V | 18:12:15 | 01:22:18 | 00:00:00 | |
| DO3MHA-11 | 2026-09-05 23:51:36 | 48.42155 | 10.17546 | 119° | 38km/h | 20133m | 5.8m/s | -54.8°C | 4.3% | 57.4hPa | 2.6V | 00:00:00 | 01:22:17 | 00:00:00 | |
| DF3TZ-5 | 2026-09-05 23:51:35 | 48.42160 | 10.17532 | 118° | 40km/h | 20127m | 5.1m/s | -54.8°C | 1.3% | 57.5hPa | 2.6V | 00:00:00 | 00:00:00 | 00:00:00 | |
| IW2NTF | 2026-09-05 23:51:32 | 48.42189 | 10.17412 | 105° | 38km/h | 20079m | 4.5m/s | -54.6°C | 4.3% | 57.9hPa | 2.6V | 08:30:00 | 01:22:07 | 00:00:00 | |
| BIOWL1-15 | 2026-09-05 23:51:31 | 48.42180 | 10.17451 | 109° | 35km/h | 20095m | 4.9m/s | -54.7°C | 0.8% | 0hPa | 2.6V | 18:12:15 | 01:22:10 | 00:00:00 | |
| DM0DOS-11 | 2026-09-05 23:51:31 | 48.42191 | 10.17397 | 105° | 38km/h | 20074m | 5.1m/s | -54.6°C | 4.3% | 57.9hPa | 2.7V | 08:30:00 | 01:22:06 | 00:00:00 | |
| DK7TD | 2026-09-05 23:51:27 | 48.42186 | 10.17426 | 107° | 37km/h | 20084m | 6m/s | -54.7°C | 0.8% | 57.9hPa | 2.6V | 18:12:15 | 01:22:08 | 00:00:00 | |
| DO3MHA-11 | 2026-09-05 23:51:26 | 48.42188 | 10.17412 | 106° | 42km/h | 20079m | 4.4m/s | -54.6°C | 4.3% | 57.8hPa | 2.6V | 00:00:00 | 01:22:07 | 00:00:00 | |
| PG1ADW-2 | 2026-09-05 23:51:23 | 48.42197 | 10.17369 | 107° | 40km/h | 20064m | 4.5m/s | -54.5°C | 4.2% | 58.0hPa | 2.6V | 00:00:00 | 00:00:00 | 00:00:00 | |
| IW2NTF | 2026-09-05 23:51:21 | 48.42221 | 10.17263 | 110° | 37km/h | 20031m | 4.2m/s | -54.3°C | 4.2% | 58.3hPa | 2.6V | 08:30:00 | 01:21:57 | 00:00:00 | |
| DK5PH-5 | 2026-09-05 23:51:21 | 48.42203 | 10.17340 | 107° | 42km/h | 20054m | 5.4m/s | -54.4°C | 4.2% | 58.1hPa | 2.6V | 00:00:00 | 01:22:02 | 00:00:00 | |
| DM0DOS-11 | 2026-09-05 23:51:20 | 48.42225 | 10.17251 | 106° | 35km/h | 20026m | 5.5m/s | -54.4°C | 4.1% | 58.4hPa | 2.6V | 08:30:00 | 01:21:56 | 00:00:00 | |
| DK7TD | 2026-09-05 23:51:16 | 48.42222 | 10.17263 | 111° | 37km/h | 20031m | 4.2m/s | -54.3°C | 0.8% | 58.4hPa | 2.6V | 18:12:15 | 01:21:57 | 00:00:00 | |
| DO3MHA-11 | 2026-09-05 23:51:16 | 48.42221 | 10.17263 | 111° | 38km/h | 20031m | 4.1m/s | -54.3°C | 4.2% | 58.3hPa | 2.6V | 00:00:00 | 01:21:57 | 00:00:00 | |
| SONCRA | 2026-09-05 23:51:14 | 48.42228 | 10.17225 | 100° | 35km/h | 20015m | 5.0m/s | -54.4°C | 1.3% | 58.5hPa | 2.6V | 00:00:00 | 00:00:00 | 00:00:00 | |
| NBG1-10 | 2026-09-05 23:51:13 | 48.42228 | 10.17225 | 101° | 44km/h | 20016m | 5.0m/s | -54.3°C | 4.2% | 58.4hPa | 2.6V | 00:00:00 | 01:21:54 | 00:00:00 | |
| DJTTGO | 2026-09-05 23:51:11 | 48.42230 | 10.17211 | 102° | 37km/h | 20011m | 4.7m/s | -54.5°C | 1.3% | 58.5hPa | 2.6V | 00:00:00 | 00:00:00 | 00:00:00 | |
| DM0DOS-11 | 2026-09-05 23:51:10 | 48.42255 | 10.17104 | 108° | 46km/h | 19975m | 5.3m/s | -54.7°C | 4.3% | 58.9hPa | 2.6V | 08:30:00 | 01:21:46 | 00:00:00 | |
| DO3MHA-12 | 2026-09-05 23:51:10 | 48.42235 | 10.17184 | 111° | 42km/h | 20000m | 4.9m/s | -54.5°C | 4.2% | 58.6hPa | 2.6V | 00:00:00 | 01:21:51 | 08:30:00 | |
| IW2NTF | 2026-09-05 23:51:07 | 48.42251 | 10.17121 | 109° | 47km/h | 19980m | 3.8m/s | -54.7°C | 4.3% | 58.8hPa | 2.6V | 08:30:00 | 01:21:47 | 00:00:00 | |
| DK7TD | 2026-09-05 23:51:06 | 48.42251 | 10.17121 | 110° | 47km/h | 19980m | 3.8m/s | -54.7°C | 0.8% | 58.8hPa | 2.6V | 18:12:15 | 01:21:47 | 00:00:00 | |
| PG1ADW-2 | 2026-09-05 23:51:03 | 48.42260 | 10.17073 | 102° | 44km/h | 19966m | 4.6m/s | -54.7°C | 4.3% | 58.9hPa | 2.7V | 00:00:00 | 00:00:00 | 00:00:00 | |
| DO3MHA-12 | 2026-09-05 23:51:00 | 48.42262 | 10.17028 | 90° | 46km/h | 19950m | 3.7m/s | -54.7°C | 4.3% | 59.0hPa | 2.7V | 00:00:00 | 01:21:41 | 00:00:00 | |
| DJ8HS-15 | 2026-09-05 23:50:58 | 48.42263 | 10.16997 | 97° | 46km/h | 19942m | 5.5m/s | -54.9°C | 4.3% | 59.1hPa | 2.7V | 00:00:00 | 01:21:39 | 00:00:00 | |
| DF1GD-15 | 2026-09-05 23:50:57 | 48.42263 | 10.16997 | 98° | 38km/h | 19942m | 5.5m/s | -54.9°C | 1.3% | 59.2hPa | 2.7V | 00:00:00 | 00:00:00 | 00:00:00 | |
| DO3MHA-11 | 2026-09-05 23:50:56 | 48.42268 | 10.16968 | 109° | 47km/h | 19933m | 4.3m/s | -54.8°C | 4.3% | 59.2hPa | 2.7V | 00:00:00 | 01:21:37 | 00:00:00 | |
| DM0DOS-11 | 2026-09-05 23:50:55 | 48.42276 | 10.16936 | 108° | 49km/h | 19922m | 5.3m/s | -54.8°C | 4.3% | 59.4hPa | 2.6V | 08:30:00 | 01:21:35 | 00:00:00 | |
| DK7TD | 2026-09-05 23:50:55 | 48.42272 | 10.16953 | 110° | 46km/h | 19928m | 5.2m/s | -54.8°C | 0.8% | 59.3hPa | 2.7V | 18:12:15 | 01:21:36 | 00:00:00 | |
| IW2NTF | 2026-09-05 23:50:53 | 48.42299 | 10.16829 | 99° | 46km/h | 19891m | 5.3m/s | -54.9°C | 4.3% | 59.6hPa | 2.6V | 08:30:00 | 01:21:29 | 00:00:00 | |
| DK5PH-5 | 2026-09-05 23:50:51 | 48.42288 | 10.16882 | 112° | 46km/h | 19907m | 5.1m/s | -54.8°C | 4.3% | 59.4hPa | 2.6V | 00:00:00 | 01:21:32 | 08:30:00 | |
| DO3MHA-12 | 2026-09-05 23:50:50 | 48.42293 | 10.16864 | 109° | 46km/h | 19903m | 4.1m/s | -54.9°C | 4.3% | 59.5hPa | 2.7V | 00:00:00 | 01:21:31 | 00:00:00 | |
| DH7VM-15 | 2026-09-05 23:50:47 | 48.42299 | 10.16829 | 100° | 46km/h | 19891m | 5.3m/s | -54.9°C | 1.3% | 59.6hPa | 2.7V | 00:00:00 | 00:00:00 | 00:00:00 | |
| DO3MHA-11 | 2026-09-05 23:50:46 | 48.42301 | 10.16796 | 97° | 47km/h | 19881m | 5.4m/s | -54.9°C | 4.3% | 59.7hPa | 2.7V | 00:00:00 | 01:21:27 | 00:00:00 | |
| DM0DOS-11 | 2026-09-05 23:50:45 | 48.42303 | 10.16765 | 94° | 44km/h | 19870m | 6m/s | -54.9°C | 4.3% | 59.8hPa | 2.7V | 08:30:00 | 01:21:25 | 00:00:00 | |
| DK7TD | 2026-09-05 23:50:44 | 48.42303 | 10.16765 | 94° | 44km/h | 19871m | 6m/s | -54.9°C | 0.8% | 59.8hPa | 2.7V | 18:12:15 | 01:21:25 | 00:00:00 | |
| SONCRA | 2026-09-05 23:50:43 | 48.42306 | 10.16731 | 100° | 46km/h | 19861m | 5.0m/s | -54.9°C | 1.3% | 59.9hPa | 2.7V | 00:00:00 | 00:00:00 | 00:00:00 | |
| DF7PN | 2026-09-05 23:50:41 | 48.42312 | 10.16696 | 108° | 49km/h | 19850m | 4.8m/s | -54.9°C | 1.3% | 60.0hPa | 2.7V | 00:00:00 | 00:00:00 | 00:00:00 | |
| IW2NTF | 2026-09-05 23:50:40 | 48.42321 | 10.16659 | 109° | 55km/h | 19840m | 4.5m/s | -54.9°C | 4.3% | 60.1hPa | 2.7V | 08:30:00 | 01:21:19 | 00:00:00 | |
| DB0NH | 2026-09-05 23:50:40 | 48.42312 | 10.16696 | 109° | 44km/h | 19850m | 4.7m/s | -54.8°C | 4.2% | 60.0hPa | 2.7V | 00:00:00 | 01:21:21 | 00:00:00 | |
| DJ8HS-15 | 2026-09-05 23:50:38 | 48.42321 | 10.16659 | 110° | 44km/h | 19840m | 4.5m/s | -54.8°C | 4.3% | 60.1hPa | 2.7V | 00:00:00 | 01:21:19 | 00:00:00 | |
| DO3MHA-11 | 2026-09-05 23:50:36 | 48.42330 | 10.16621 | 111° | 42km/h | 19830m | 5.6m/s | -54.8°C | 4.3% | 60.1hPa | 2.6V | 00:00:00 | 01:21:17 | 00:00:00 | |
| DM0DOS-11 | 2026-09-05 23:50:35 | 48.42337 | 10.16587 | 105° | 42km/h | 19820m | 4.6m/s | -54.9°C | 4.3% | 60.3hPa | 2.6V | 08:30:00 | 01:21:15 | 00:00:00 | |
| DK7TD | 2026-09-05 23:50:34 | 48.42337 | 10.16587 | 105° | 42km/h | 19820m | 4.6m/s | -54.9°C | 0.8% | 60.3hPa | 2.6V | 18:12:15 | 01:21:15 | 00:00:00 | |
| IW2NTF | 2026-09-05 23:50:33 | 48.42345 | 10.16498 | 98° | 42km/h | 19791m | 4.7m/s | -55°C | 4.3% | 60.5hPa | 2.6V | 08:30:00 | 01:21:09 | 00:00:00 | |
| DB0UT-7 | 2026-09-05 23:50:33 | 48.42340 | 10.16572 | 100° | 40km/h | 19815m | 5.8m/s | -54.9°C | 4.3% | 60.3hPa | 2.7V | 00:00:00 | 01:21:14 | 08:30:00 | |
| OE5MMP-10 | 2026-09-05 23:50:32 | 48.42341 | 10.16557 | 95° | 40km/h | 19810m | 4.7m/s | 0°C | 0% | 0hPa | 2.7V | 00:00:00 | 01:21:13 | 00:00:00 | |
| DO3MHA-12 | 2026-09-05 23:50:30 | 48.42342 | 10.16528 | 96° | 42km/h | 19800m | 5.4m/s | -54.9°C | 4.3% | 60.4hPa | 2.7V | 00:00:00 | 01:21:11 | 00:00:00 | |
| DO3MHA-11 | 2026-09-05 23:50:26 | 48.42348 | 10.16464 | 101° | 42km/h | 19782m | 3.6m/s | -55.0°C | 4.3% | 60.6hPa | 2.7V | 00:00:00 | 01:21:07 | 08:30:00 | |
| DM0DOS-11 | 2026-09-05 23:50:25 | 48.42353 | 10.16431 | 105° | 44km/h | 19772m | 5.2m/s | -55°C | 4.3% | 60.7hPa | 2.6V | 08:30:00 | 01:21:05 | 00:00:00 | |
| DK7TD | 2026-09-05 23:50:24 | 48.42353 | 10.16431 | 106° | 44km/h | 19772m | 5.2m/s | -55°C | 0.8% | 60.7hPa | 2.6V | 18:12:15 | 01:21:05 | 00:00:00 | |
| PG1ADW-2 | 2026-09-05 23:50:23 | 48.42356 | 10.16415 | 107° | 38km/h | 19767m | 4.7m/s | -55.0°C | 4.3% | 60.8hPa | 2.6V | 00:00:00 | 00:00:00 | 00:00:00 | |
| DK5PH-5 | 2026-09-05 23:50:21 | 48.42361 | 10.16385 | 103° | 38km/h | 19757m | 4.8m/s | -55.1°C | 4.3% | 60.8hPa | 2.6V | 00:00:00 | 01:21:02 | 00:00:00 | |
| OE5MMP-10 | 2026-09-05 23:50:20 | 48.42364 | 10.16370 | 104° | 40km/h | 19753m | 4.2m/s | 0°C | 0% | 0hPa | 2.6V | 00:00:00 | 01:21:01 | 00:00:00 | |
| DJ8HS-15 | 2026-09-05 23:50:18 | 48.42369 | 10.16342 | 109° | 38km/h | 19743m | 4.2m/s | -55.0°C | 4.3% | 61.0hPa | 2.6V | 00:00:00 | 01:20:59 | 00:00:00 | |
| IW2NTF | 2026-09-05 23:50:17 | 48.42374 | 10.16314 | 101° | 40km/h | 19734m | 5.3m/s | -55°C | 4.2% | 61.1hPa | 2.6V | 08:30:00 | 01:20:57 | 00:00:00 | |
| DO3MHA-11 | 2026-09-05 23:50:16 | 48.42374 | 10.16314 | 102° | 40km/h | 19735m | 5.3m/s | -55.0°C | 4.2% | 61.1hPa | 2.7V | 00:00:00 | 01:20:57 | 00:00:00 | |
| DM0DOS-11 | 2026-09-05 23:50:15 | 48.42377 | 10.16282 | 94° | 46km/h | 19724m | 4.1m/s | -55°C | 4.1% | 61.2hPa | 2.7V | 08:30:00 | 01:20:55 | 00:00:00 | |
| DK7TD | 2026-09-05 23:50:13 | 48.42378 | 10.16265 | 95° | 46km/h | 19720m | 5.7m/s | -55.1°C | 0.7% | 61.2hPa | 2.6V | 18:12:15 | 01:20:54 | 00:00:00 | |
| OE5DRO-10 | 2026-09-05 23:50:13 | 48.42378 | 10.16265 | 95° | 38km/h | 19720m | 5.6m/s | -55.0°C | 4.2% | 61.2hPa | 2.6V | 00:00:00 | 00:00:00 | 00:00:00 | |
| SONCRA | 2026-09-05 23:50:12 | 48.42380 | 10.16233 | 93° | 40km/h | 19710m | 4.3m/s | -55.1°C | 1.3% | 61.3hPa | 2.7V | 00:00:00 | 00:00:00 | 00:00:00 | |
| DO3MHA-12 | 2026-09-05 23:50:10 | 48.42380 | 10.16218 | 90° | 37km/h | 19705m | 5.1m/s | -55.1°C | 4.1% | 61.4hPa | 2.7V | 00:00:00 | 01:20:51 | 00:00:00 | |
| DF7PN | 2026-09-05 23:50:09 | 48.42379 | 10.16203 | 84° | 37km/h | 19700m | 5.4m/s | -55.1°C | 1.2% | 61.4hPa | 2.7V | 00:00:00 | 00:00:00 | 00:00:00 | |
| DO3MHA-11 | 2026-09-05 23:50:07 | 48.42377 | 10.16164 | 90° | 38km/h | 19684m | 4.9m/s | -55.2°C | 4.1% | 61.5hPa | 2.7V | 00:00:00 | 01:20:47 | 00:00:00 | |
| AZAK | 2026-09-05 23:50:06 | 48.42377 | 10.16164 | 90° | 33km/h | 19684m | 5.0m/s | -55.3°C | 1.2% | 61.6hPa | 2.7V | 00:00:00 | 00:00:00 | 00:00:00 | |
| DM0DOS-11 | 2026-09-05 23:50:05 | 48.42378 | 10.16138 | 94° | 35km/h | 19674m | 5.8m/s | -55.4°C | 4.1% | 61.7hPa | 2.7V | 08:30:00 | 01:20:45 | 00:00:00 | |
| DK7TD | 2026-09-05 23:50:03 | 48.42379 | 10.16125 | 99° | 37km/h | 19669m | 3.8m/s | -55.5°C | 0.7% | 61.7hPa | 2.7V | 18:12:15 | 01:20:44 | 00:00:00 | |
| DB0UT-7 | 2026-09-05 23:50:03 | 48.42379 | 10.16125 | 99° | 33km/h | 19670m | 3.7m/s | -55.5°C | 4.1% | 61.7hPa | 2.6V | 00:00:00 | 00:00:00 | 00:00:00 | |
| DF3TZ-5 | 2026-09-05 23:50:02 | 48.42381 | 10.16111 | 103° | 37km/h | 19665m | 5.3m/s | -55.7°C | 1.3% | 61.8hPa | 2.6V | 00:00:00 | 00:00:00 | 00:00:00 | |
| DO3MHA-12 | 2026-09-05 23:50:00 | 48.42386 | 10.16082 | 110° | 37km/h | 19654m | 4.6m/s | -55.9°C | 4.3% | 61.8hPa | 2.6V | 00:00:00 | 01:20:41 | 00:00:00 | |
| DJ8HS-15 | 2026-09-05 23:49:58 | 48.42392 | 10.16053 | 105° | 33km/h | 19644m | 4.5m/s | -56.2°C | 4.4% | 61.9hPa | 2.6V | 00:00:00 | 01:20:39 | 00:00:00 | |
| DO3MHA-11 | 2026-09-05 23:49:56 | 48.42397 | 10.16023 | 105° | 31km/h | 19634m | 5.1m/s | -56.5°C | 4.5% | 62.0hPa | 2.6V | 00:00:00 | 01:20:37 | 00:00:00 | |
| DM0DOS-11 | 2026-09-05 23:49:55 | 48.42400 | 10.15998 | 94° | 33km/h | 19624m | 5.5m/s | -56.8°C | 4.6% | 62.2hPa | 2.6V | 08:30:00 | 01:20:35 | 00:00:00 | |
| DK7TD | 2026-09-05 23:49:53 | 48.42401 | 10.15985 | 88° | 31km/h | 19619m | 5.1m/s | -56.9°C | 1% | 62.2hPa | 2.6V | 18:12:15 | 01:20:34 | 00:00:00 | |
| DK5PH-5 | 2026-09-05 23:49:51 | 48.42400 | 10.15962 | 90° | 31km/h | 19610m | 5.1m/s | -57.0°C | 4.7% | 62.3hPa | 2.6V | 00:00:00 | 01:20:32 | 00:00:00 | |
| DO3MHA-12 | 2026-09-05 23:49:50 | 48.42400 | 10.15952 | 100° | 35km/h | 19605m | 4.7m/s | -57.1°C | 4.7% | 62.3hPa | 2.6V | 00:00:00 | 01:20:31 | 00:00:00 | |
| DO3MHA-11 | 2026-09-05 23:49:46 | 48.42412 | 10.15906 | 112° | 33km/h | 19586m | 4.4m/s | -57.4°C | 4.9% | 62.5hPa | 2.6V | 00:00:00 | 01:20:27 | 00:00:00 | |
| DM0DOS-11 | 2026-09-05 23:49:45 | 48.42419 | 10.15878 | 112° | 38km/h | 19577m | 5.3m/s | -57.5°C | 4.8% | 62.6hPa | 2.6V | 08:30:00 | 01:20:25 | 00:00:00 | |
| DK7TD | 2026-09-05 23:49:42 | 48.42425 | 10.15853 | 105° | 33km/h | 19567m | 5.2m/s | -57.4°C | 1.1% | 62.7hPa | 2.6V | 18:12:15 | 01:20:23 | 00:00:00 | |
| HARRO8 | 2026-09-05 23:49:41 | 48.42427 | 10.15829 | 86° | 29km/h | 19557m | 4.2m/s | -57.4°C | 1.5% | 62.8hPa | 2.7V | 00:00:00 | 00:00:00 | 00:00:00 | |
| DO3MHA-12 | 2026-09-05 23:49:40 | 48.42427 | 10.15829 | 87° | 26km/h | 19557m | 4.1m/s | -57.4°C | 4.9% | 62.8hPa | 2.7V | 00:00:00 | 01:20:21 | 08:30:00 | |
| DJ8HS-15 | 2026-09-05 23:49:38 | 48.42425 | 10.15809 | 80° | 31km/h | 19547m | 5.5m/s | -57.4°C | 4.8% | 62.9hPa | 2.6V | 00:00:00 | 01:20:19 | 00:00:00 | |
| DO3MHA-11 | 2026-09-05 23:49:36 | 48.42423 | 10.15793 | 77° | 29km/h | 19537m | 5.6m/s | -57.3°C | 4.8% | 63.0hPa | 2.7V | 00:00:00 | 01:20:17 | 00:00:00 | |
| DM0DOS-11 | 2026-09-05 23:49:35 | 48.42421 | 10.15774 | 82° | 27km/h | 19527m | 4.3m/s | -57.4°C | 4.8% | 63.1hPa | 2.7V | 08:30:00 | 01:20:15 | 00:00:00 | |
| DK7TD | 2026-09-05 23:49:31 | 48.42421 | 10.15745 | 99° | 27km/h | 19512m | 4m/s | -57.3°C | 1% | 63.3hPa | 2.6V | 18:12:15 | 01:20:12 | 00:00:00 | |
| DO3MHA-12 | 2026-09-05 23:49:30 | 48.42422 | 10.15734 | 99° | 33km/h | 19508m | 5.0m/s | -57.2°C | 4.7% | 63.3hPa | 2.6V | 00:00:00 | 01:20:11 | 00:00:00 | |
| DO3MHA-11 | 2026-09-05 23:49:26 | 48.42423 | 10.15686 | 87° | 37km/h | 19487m | 4.2m/s | -57.1°C | 4.6% | 63.5hPa | 2.6V | 00:00:00 | 01:20:07 | 00:00:00 | |
| DM0DOS-11 | 2026-09-05 23:49:25 | 48.42421 | 10.15661 | 82° | 37km/h | 19477m | 6m/s | -57.2°C | 4.6% | 63.6hPa | 2.6V | 08:30:00 | 01:20:05 | 00:00:00 | |
| DK7TD | 2026-09-05 23:49:20 | 48.42420 | 10.15607 | 100° | 35km/h | 19457m | 4.2m/s | -57.7°C | 1% | 63.8hPa | 2.6V | 18:12:15 | 01:20:01 | 00:00:00 | |
| DO3MHA-12 | 2026-09-05 23:49:20 | 48.42420 | 10.15606 | 100° | 40km/h | 19458m | 4.2m/s | -57.7°C | 4.8% | 63.8hPa | 2.7V | 00:00:00 | 01:20:01 | 00:00:00 | |
| DJ8HS-15 | 2026-09-05 23:49:18 | 48.42424 | 10.15580 | 106° | 42km/h | 19448m | 5.6m/s | -58.1°C | 5.0% | 63.9hPa | 2.7V | 00:00:00 | 01:19:59 | 00:00:00 | |
| DO9HM | 2026-09-05 23:49:17 | 48.42427 | 10.15566 | 108° | 42km/h | 19443m | 5.1m/s | -58.2°C | 1.6% | 64.0hPa | 2.7V | 00:00:00 | 00:00:00 | 00:00:00 | |
| OE5DRO-10 | 2026-09-05 23:49:16 | 48.42430 | 10.15551 | 109° | 42km/h | 19438m | 4.8m/s | -58.1°C | 5.0% | 64.0hPa | 2.7V | 00:00:00 | 00:00:00 | 08:30:00 | |
| DM0DOS-11 | 2026-09-05 23:49:15 | 48.42437 | 10.15522 | 108° | 38km/h | 19427m | 4.1m/s | -58.1°C | 5.1% | 64.1hPa | 2.6V | 08:30:00 | 01:19:55 | 00:00:00 | |
| DK7TD | 2026-09-05 23:49:09 | 48.42446 | 10.15442 | 94° | 46km/h | 19403m | 5.1m/s | -57.9°C | 1.2% | 64.4hPa | 2.6V | 18:12:15 | 01:19:50 | 00:00:00 | |
| DK7TD | 2026-09-05 23:48:59 | 48.42448 | 10.15280 | 87° | 38km/h | 19352m | 4m/s | -57.8°C | 1.1% | 64.9hPa | 2.7V | 18:12:15 | 01:19:40 | 00:00:00 | |
| DL6DJ-15 | 2026-09-05 23:48:53 | 48.42442 | 10.15192 | 84° | 42km/h | 19322m | 3.7m/s | -57.5°C | 1.5% | 65.2hPa | 2.6V | 00:00:00 | 00:00:00 | 00:00:00 | |
| DK5PH-5 | 2026-09-05 23:48:51 | 48.42441 | 10.15161 | 88° | 33km/h | 19312m | 5.4m/s | -57.4°C | 4.9% | 65.3hPa | 2.6V | 00:00:00 | 01:19:32 | 00:00:00 | |
| IW2NTF | 2026-09-05 23:48:50 | 48.42441 | 10.15110 | 92° | 33km/h | 19292m | 5m/s | -57.3°C | 4.9% | 65.5hPa | 2.6V | 08:30:00 | 01:19:28 | 00:00:00 | |
| DK7TD | 2026-09-05 23:48:48 | 48.42441 | 10.15123 | 93° | 33km/h | 19297m | 5.8m/s | -57.3°C | 1% | 65.5hPa | 2.7V | 18:12:15 | 01:19:29 | 00:00:00 | |
| DK7TD | 2026-09-05 23:48:38 | 48.42435 | 10.15000 | 71° | 37km/h | 19249m | 4.9m/s | -57.1°C | 1% | 66hPa | 2.6V | 18:12:15 | 01:19:19 | 00:00:00 | |
| BIOWL1-15 | 2026-09-05 23:48:36 | 48.42431 | 10.14977 | 81° | 27km/h | 19239m | 4.7m/s | -57.1°C | 1% | 0hPa | 2.7V | 18:12:15 | 01:19:17 | 00:00:00 | |
| DM0DOS-11 | 2026-09-05 23:48:35 | 48.42429 | 10.14956 | 87° | 29km/h | 19230m | 5.2m/s | -57.2°C | 4.7% | 66.2hPa | 2.6V | 08:30:00 | 01:19:15 | 00:00:00 | |
| DK7TD | 2026-09-05 23:48:28 | 48.42419 | 10.14886 | 69° | 31km/h | 19200m | 4.6m/s | -57.1°C | 1.1% | 66.5hPa | 2.6V | 18:12:15 | 01:19:09 | 00:00:00 | |
| NBG1-10 | 2026-09-05 23:48:28 | 48.42419 | 10.14886 | 69° | 35km/h | 19200m | 4.6m/s | -57.0°C | 4.8% | 66.5hPa | 2.6V | 00:00:00 | 01:19:09 | 00:00:00 | |
| IW2NTF | 2026-09-05 23:48:26 | 48.42394 | 10.14806 | 63° | 33km/h | 19166m | 5.6m/s | -57.1°C | 4.7% | 66.9hPa | 2.6V | 08:30:00 | 01:19:02 | 00:00:00 | |
| OE5DXL-15 | 2026-09-05 23:48:26 | 48.42412 | 10.14863 | 69° | 33km/h | 19190m | 4.6m/s | -57.0°C | 4.7% | 66.5hPa | 2.7V | 00:00:00 | 00:00:00 | 00:00:00 | |
| DM0DOS-11 | 2026-09-05 23:48:25 | 48.42406 | 10.14839 | 63° | 33km/h | 19180m | 5.8m/s | -57°C | 4.7% | 66.7hPa | 2.7V | 08:30:00 | 01:19:05 | 00:00:00 | |
| DK7TD | 2026-09-05 23:48:17 | 48.42384 | 10.14762 | 73° | 27km/h | 19146m | 4.8m/s | -57.4°C | 1.1% | 67.1hPa | 2.6V | 18:12:15 | 01:18:58 | 00:00:00 | |
| IW2NTF | 2026-09-05 23:48:15 | 48.42373 | 10.14676 | 83° | 37km/h | 19110m | 5.1m/s | -57.2°C | 4.7% | 67.4hPa | 2.6V | 08:30:00 | 01:18:51 | 00:00:00 | |
| DK7TD | 2026-09-05 23:48:06 | 48.42369 | 10.14617 | 87° | 37km/h | 19088m | 5m/s | -57.2°C | 0.9% | 67.7hPa | 2.6V | 18:12:15 | 01:18:47 | 00:00:00 | |
| DM0DOS-11 | 2026-09-05 23:48:05 | 48.42369 | 10.14591 | 89° | 35km/h | 19078m | 6m/s | -57.1°C | 4.6% | 67.8hPa | 2.6V | 08:30:00 | 01:18:45 | 00:00:00 | |
| AZAK | 2026-09-05 23:48:04 | 48.42369 | 10.14590 | 90° | 35km/h | 19078m | 6.0m/s | -57.2°C | 1.4% | 67.8hPa | 2.6V | 00:00:00 | 00:00:00 | 00:00:00 | |
| DB0UT-7 | 2026-09-05 23:48:03 | 48.42369 | 10.14577 | 90° | 35km/h | 19073m | 4.7m/s | -57.1°C | 4.7% | 67.8hPa | 2.6V | 00:00:00 | 00:00:00 | 00:00:00 | |
| IW2NTF | 2026-09-05 23:48:01 | 48.42367 | 10.14542 | 80° | 29km/h | 19058m | 3.9m/s | -57.2°C | 4.7% | 68hPa | 2.6V | 08:30:00 | 01:18:41 | 00:00:00 | |
| BIOWL1-15 | 2026-09-05 23:47:58 | 48.42364 | 10.14518 | 78° | 35km/h | 19048m | 5.6m/s | -57.2°C | 1% | 0hPa | 2.6V | 18:12:15 | 01:18:39 | 00:00:00 | |
| DK7TD | 2026-09-05 23:47:56 | 48.42360 | 10.14490 | 79° | 37km/h | 19038m | 4.6m/s | -57.2°C | 1% | 68.2hPa | 2.7V | 18:12:15 | 01:18:37 | 00:00:00 | |
| OE5DXL-15 | 2026-09-05 23:47:56 | 48.42360 | 10.14490 | 79° | 35km/h | 19039m | 4.5m/s | -57.1°C | 4.7% | 68.2hPa | 2.6V | 00:00:00 | 00:00:00 | 00:00:00 | |
| DM0DOS-11 | 2026-09-05 23:47:55 | 48.42356 | 10.14463 | 74° | 35km/h | 19028m | 4.2m/s | -57.2°C | 4.6% | 68.3hPa | 2.6V | 08:30:00 | 01:18:35 | 00:00:00 | |
| DL6DJ-15 | 2026-09-05 23:47:51 | 48.42345 | 10.14409 | 73° | 37km/h | 19010m | 3.9m/s | -57.2°C | 1.4% | 68.5hPa | 2.6V | 00:00:00 | 00:00:00 | 00:00:00 | |
| DL1ZP-14 | 2026-09-05 23:47:49 | 48.42343 | 10.14396 | 75° | 35km/h | 19005m | 5.2m/s | -57.2°C | 1.4% | 68.6hPa | 2.6V | 00:00:00 | 00:00:00 | 00:00:00 | |
| DO9HM | 2026-09-05 23:47:48 | 48.42343 | 10.14396 | 76° | 35km/h | 19005m | 5.2m/s | -57.2°C | 1.5% | 68.6hPa | 2.7V | 00:00:00 | 00:00:00 | 00:00:00 | |
| DM0DOS-11 | 2026-09-05 23:47:45 | 48.42335 | 10.14338 | 79° | 35km/h | 18980m | 4.1m/s | -57.4°C | 4.8% | 68.9hPa | 2.7V | 08:30:00 | 01:18:25 | 00:00:00 | |
| DK7TD | 2026-09-05 23:47:45 | 48.42336 | 10.14350 | 81° | 33km/h | 18985m | 5.1m/s | -57.4°C | 1% | 68.8hPa | 2.7V | 18:12:15 | 01:18:26 | 00:00:00 | |
| IW2NTF | 2026-09-05 23:47:44 | 48.42328 | 10.14288 | 83° | 33km/h | 18961m | 4.8m/s | -58°C | 5% | 69.1hPa | 2.6V | 08:30:00 | 01:18:21 | 00:00:00 | |
| BIOWL1-15 | 2026-09-05 23:47:36 | 48.42328 | 10.14233 | 91° | 37km/h | 18940m | 4.9m/s | 0°C | 0% | 0hPa | 2.6V | 18:12:15 | 01:18:17 | 00:00:00 | |
| DM0DOS-11 | 2026-09-05 23:47:35 | 48.42329 | 10.14204 | 93° | 38km/h | 18931m | 5.8m/s | -57.9°C | 4.9% | 69.4hPa | 2.7V | 08:30:00 | 01:18:15 | 00:00:00 | |
| IW2NTF | 2026-09-05 23:47:34 | 48.42330 | 10.14147 | 89° | 33km/h | 18910m | 3.7m/s | -57.8°C | 4.9% | 69.6hPa | 2.6V | 08:30:00 | 01:18:11 | 00:00:00 | |
| DK7TD | 2026-09-05 23:47:34 | 48.42329 | 10.14204 | 94° | 38km/h | 18931m | 5.8m/s | -57.9°C | 1% | 69.4hPa | 2.7V | 18:12:15 | 01:18:15 | 00:00:00 | |
| BIOWL1-15 | 2026-09-05 23:47:26 | 48.42332 | 10.14103 | 92° | 24km/h | 18890m | 5.8m/s | 0°C | 0% | 0hPa | 2.6V | 18:12:15 | 01:18:07 | 00:00:00 | |
| IW2NTF | 2026-09-05 23:47:24 | 48.42335 | 10.14048 | 91° | 27km/h | 18860m | 5m/s | -57.5°C | 4.8% | 70.1hPa | 2.6V | 08:30:00 | 01:18:01 | 00:00:00 | |
| DK7TD | 2026-09-05 23:47:23 | 48.42333 | 10.14077 | 98° | 24km/h | 18874m | 5.3m/s | -57.5°C | 1% | 70hPa | 2.6V | 18:12:15 | 01:18:04 | 00:00:00 | |
| PG1ADW-2 | 2026-09-05 23:47:23 | 48.42333 | 10.14077 | 99° | 22km/h | 18875m | 5.3m/s | -57.5°C | 4.9% | 70.0hPa | 2.7V | 00:00:00 | 00:00:00 | 00:00:00 | |
| NBG1-10 | 2026-09-05 23:47:22 | 48.42334 | 10.14068 | 99° | 20km/h | 18870m | 3.9m/s | -57.5°C | 4.9% | 70.0hPa | 2.7V | 00:00:00 | 01:18:03 | 08:30:00 | |
| DO3MHA-12 | 2026-09-05 23:47:20 | 48.42335 | 10.14048 | 92° | 24km/h | 18860m | 4.9m/s | -57.4°C | 4.8% | 70.1hPa | 2.6V | 00:00:00 | 01:18:01 | 00:00:00 | |
| DM0DOS-11 | 2026-09-05 23:47:19 | 48.42337 | 10.13993 | 90° | 22km/h | 18830m | 4.3m/s | -57.3°C | 4.9% | 70.5hPa | 2.6V | 08:30:00 | 01:17:55 | 00:00:00 | |
| DK7TD | 2026-09-05 23:47:13 | 48.42338 | 10.13985 | 98° | 22km/h | 18825m | 5.6m/s | -57.3°C | 1% | 70.5hPa | 2.6V | 18:12:15 | 01:17:54 | 00:00:00 | |
| IW2NTF | 2026-09-05 23:47:13 | 48.42340 | 10.13962 | 94° | 20km/h | 18811m | 5.4m/s | -57.2°C | 4.8% | 70.7hPa | 2.7V | 08:30:00 | 01:17:51 | 00:00:00 | |
| BIOWL1-15 | 2026-09-05 23:47:10 | 48.42341 | 10.13946 | 97° | 22km/h | 18803m | 4.1m/s | 0°C | 0% | 0hPa | 2.6V | 18:12:15 | 01:17:49 | 00:00:00 | |
| DO3MHA-12 | 2026-09-05 23:47:10 | 48.42340 | 10.13962 | 95° | 20km/h | 18812m | 5.3m/s | -57.2°C | 4.8% | 70.7hPa | 2.7V | 00:00:00 | 01:17:51 | 00:00:00 | |
| DM0DOS-11 | 2026-09-05 23:47:09 | 48.42345 | 10.13914 | 100° | 20km/h | 18783m | 4.8m/s | -57.1°C | 4.8% | 71hPa | 2.7V | 08:30:00 | 01:17:45 | 00:00:00 | |
| IW2NTF | 2026-09-05 23:47:06 | 48.42352 | 10.13888 | 122° | 16km/h | 18764m | 4.2m/s | -57.1°C | 4.8% | 71.2hPa | 2.6V | 08:30:00 | 01:17:41 | 00:00:00 | |
| DK7TD | 2026-09-05 23:47:03 | 48.42346 | 10.13906 | 101° | 18km/h | 18779m | 3.9m/s | -57.1°C | 1% | 71.1hPa | 2.6V | 18:12:15 | 01:17:44 | 00:00:00 | |
| BIOWL1-15 | 2026-09-05 23:47:00 | 48.42352 | 10.13888 | 122° | 16km/h | 18764m | 4.3m/s | 0°C | 0% | 0hPa | 2.6V | 18:12:15 | 01:17:41 | 00:00:00 | |
| DO3MHA-12 | 2026-09-05 23:47:00 | 48.42351 | 10.13888 | 123° | 16km/h | 18765m | 4.2m/s | -57.0°C | 4.8% | 71.2hPa | 2.6V | 00:00:00 | 01:17:41 | 00:00:00 | |
| DM0DOS-11 | 2026-09-05 23:46:59 | 48.42362 | 10.13855 | 115° | 16km/h | 18736m | 4.7m/s | -56.9°C | 4.8% | 71.6hPa | 2.6V | 08:30:00 | 01:17:35 | 00:00:00 | |
| DB0ND-19 | 2026-09-05 23:46:59 | 48.42354 | 10.13883 | 117° | 16km/h | 18760m | 5.4m/s | -57.1°C | 1.5% | 71.3hPa | 2.6V | 00:00:00 | 00:00:00 | 00:00:00 | |
| DF3TZ-5 | 2026-09-05 23:46:56 | 48.42360 | 10.13861 | 118° | 15km/h | 18741m | 4.6m/s | -56.9°C | 1.4% | 71.5hPa | 2.6V | 00:00:00 | 00:00:00 | 00:00:00 | |
| DO3MHA-11 | 2026-09-05 23:46:54 | 48.42362 | 10.13855 | 116° | 20km/h | 18737m | 4.7m/s | -56.9°C | 4.8% | 71.5hPa | 2.6V | 00:00:00 | 01:17:35 | 00:00:00 | |
| IW2NTF | 2026-09-05 23:46:52 | 48.42369 | 10.13830 | 122° | 20km/h | 18717m | 5.5m/s | -56.8°C | 4.7% | 71.8hPa | 2.6V | 08:30:00 | 01:17:31 | 00:00:00 | |
| DK7TD | 2026-09-05 23:46:52 | 48.42365 | 10.13843 | 109° | 18km/h | 18727m | 4m/s | -56.9°C | 1% | 71.7hPa | 2.7V | 18:12:15 | 01:17:33 | 00:00:00 | |
| DK5PH-5 | 2026-09-05 23:46:50 | 48.42369 | 10.13830 | 123° | 22km/h | 18718m | 5.4m/s | -56.8°C | 4.7% | 71.7hPa | 2.6V | 00:00:00 | 01:17:31 | 00:00:00 | |
| DM0DOS-11 | 2026-09-05 23:46:49 | 48.42388 | 10.13791 | 129° | 20km/h | 18688m | 4.3m/s | -57°C | 4.7% | 72.1hPa | 2.6V | 08:30:00 | 01:17:25 | 00:00:00 | |
| DL6DJ-15 | 2026-09-05 23:46:49 | 48.42375 | 10.13817 | 121° | 20km/h | 18708m | 5.7m/s | -56.8°C | 1.4% | 71.9hPa | 2.6V | 00:00:00 | 00:00:00 | 00:00:00 | |
| DL1ZP-14 | 2026-09-05 23:46:47 | 48.42381 | 10.13803 | 126° | 22km/h | 18697m | 5.5m/s | -56.9°C | 1.5% | 72.0hPa | 2.6V | 00:00:00 | 00:00:00 | 00:00:00 | |
| DO3MHA-11 | 2026-09-05 23:46:44 | 48.42388 | 10.13790 | 130° | 18km/h | 18688m | 4.3m/s | -56.9°C | 4.7% | 72.1hPa | 2.6V | 00:00:00 | 01:17:25 | 00:00:00 | |
| PG1ADW-2 | 2026-09-05 23:46:43 | 48.42390 | 10.13785 | 123° | 22km/h | 18683m | 5.8m/s | -57.0°C | 4.7% | 72.1hPa | 2.6V | 00:00:00 | 01:17:24 | 08:30:00 | |
| IW2NTF | 2026-09-05 23:46:42 | 48.42397 | 10.13768 | 125° | 15km/h | 18667m | 5.9m/s | -57°C | 4.8% | 72.3hPa | 2.6V | 08:30:00 | 01:17:21 | 00:00:00 | |
| DK7TD | 2026-09-05 23:46:42 | 48.42393 | 10.13779 | 116° | 16km/h | 18677m | 4.6m/s | -57.1°C | 1% | 72.2hPa | 2.7V | 18:12:15 | 01:17:23 | 00:00:00 | |
| DO3MHA-12 | 2026-09-05 23:46:40 | 48.42397 | 10.13768 | 126° | 22km/h | 18668m | 5.8m/s | -57.0°C | 4.8% | 72.3hPa | 2.6V | 00:00:00 | 01:17:21 | 08:30:00 | |
| DM0DOS-11 | 2026-09-05 23:46:39 | 48.42419 | 10.13738 | 146° | 27km/h | 18639m | 4.5m/s | -56.9°C | 4.8% | 72.7hPa | 2.6V | 08:30:00 | 01:17:15 | 00:00:00 | |
| DJ8HS-15 | 2026-09-05 23:46:38 | 48.42402 | 10.13759 | 135° | 26km/h | 18658m | 5.1m/s | -56.9°C | 4.8% | 72.4hPa | 2.6V | 00:00:00 | 01:17:19 | 00:00:00 | |
| DO3MHA-11 | 2026-09-05 23:46:34 | 48.42419 | 10.13738 | 147° | 26km/h | 18639m | 4.4m/s | -56.8°C | 4.8% | 72.6hPa | 2.7V | 00:00:00 | 01:17:15 | 00:00:00 | |
| DB0UT-7 | 2026-09-05 23:46:33 | 48.42425 | 10.13732 | 145° | 29km/h | 18635m | 3.9m/s | -56.8°C | 4.8% | 72.7hPa | 2.7V | 00:00:00 | 01:17:14 | 00:00:00 | |
| IW2NTF | 2026-09-05 23:46:32 | 48.42439 | 10.13711 | 126° | 26km/h | 18621m | 4.1m/s | -56.8°C | 4.7% | 72.9hPa | 2.7V | 08:30:00 | 01:17:11 | 00:00:00 | |
| DK7TD | 2026-09-05 23:46:31 | 48.42435 | 10.13718 | 132° | 26km/h | 18625m | 4.2m/s | -56.8°C | 1% | 72.8hPa | 2.6V | 18:12:15 | 01:17:12 | 00:00:00 | |
| DO3MHA-12 | 2026-09-05 23:46:30 | 48.42439 | 10.13711 | 127° | 26km/h | 18621m | 4.1m/s | -56.7°C | 4.7% | 72.8hPa | 2.7V | 00:00:00 | 01:17:11 | 00:00:00 | |
| DF1GD-15 | 2026-09-05 23:46:29 | 48.42439 | 10.13711 | 127° | 26km/h | 18621m | 4.1m/s | -56.8°C | 1.5% | 72.9hPa | 2.7V | 00:00:00 | 00:00:00 | 00:00:00 | |
| DM0DOS-11 | 2026-09-05 23:46:29 | 48.42457 | 10.13664 | 118° | 24km/h | 18593m | 4.2m/s | -56.7°C | 4.7% | 73.2hPa | 2.7V | 08:30:00 | 01:17:05 | 00:00:00 | |
| DB0ND-19 | 2026-09-05 23:46:28 | 48.42446 | 10.13695 | 122° | 24km/h | 18611m | 4.6m/s | -56.8°C | 1.5% | 73.0hPa | 2.7V | 00:00:00 | 00:00:00 | 00:00:00 | |
| OE5DXL-15 | 2026-09-05 23:46:26 | 48.42452 | 10.13679 | 113° | 31km/h | 18602m | 5.4m/s | -56.7°C | 4.7% | 73.0hPa | 2.7V | 00:00:00 | 00:00:00 | 00:00:00 | |
| DF3TZ-5 | 2026-09-05 23:46:25 | 48.42457 | 10.13664 | 118° | 22km/h | 18593m | 4.3m/s | -56.7°C | 1.5% | 73.2hPa | 2.7V | 00:00:00 | 00:00:00 | 00:00:00 | |
| DO3MHA-11 | 2026-09-05 23:46:24 | 48.42456 | 10.13664 | 119° | 31km/h | 18593m | 4.2m/s | -56.6°C | 4.7% | 73.2hPa | 2.7V | 00:00:00 | 01:17:05 | 00:00:00 | |
| PG1ADW-2 | 2026-09-05 23:46:23 | 48.42460 | 10.13656 | 127° | 31km/h | 18589m | 5.2m/s | -56.6°C | 4.6% | 73.2hPa | 2.6V | 00:00:00 | 00:00:00 | 00:00:00 | |
| IW2NTF | 2026-09-05 23:46:22 | 48.42476 | 10.13630 | 133° | 33km/h | 18575m | 5m/s | -56.6°C | 4.6% | 73.4hPa | 2.6V | 08:30:00 | 01:17:01 | 00:00:00 | |
| DK7TD | 2026-09-05 23:46:20 | 48.42476 | 10.13630 | 133° | 33km/h | 18575m | 5m/s | -56.6°C | 0.9% | 73.4hPa | 2.6V | 18:12:15 | 01:17:01 | 00:00:00 | |
| DO3MHA-12 | 2026-09-05 23:46:20 | 48.42475 | 10.13630 | 134° | 33km/h | 18575m | 4.9m/s | -56.5°C | 4.6% | 73.3hPa | 2.6V | 00:00:00 | 01:17:01 | 00:00:00 | |
| DL6DJ-15 | 2026-09-05 23:46:18 | 48.42490 | 10.13601 | 122° | 33km/h | 18561m | 5.1m/s | -56.5°C | 1.4% | 73.6hPa | 2.6V | 00:00:00 | 00:00:00 | 00:00:00 | |
| DL1ZP-14 | 2026-09-05 23:46:16 | 48.42499 | 10.13578 | 114° | 33km/h | 18551m | 3.9m/s | -56.4°C | 1.4% | 73.7hPa | 2.6V | 00:00:00 | 00:00:00 | 00:00:00 | |
| DO3MHA-11 | 2026-09-05 23:46:14 | 48.42502 | 10.13566 | 109° | 31km/h | 18547m | 5.6m/s | -56.4°C | 4.6% | 73.7hPa | 2.6V | 00:00:00 | 01:16:55 | 00:00:00 | |
| IW2NTF | 2026-09-05 23:46:13 | 48.42511 | 10.13521 | 114° | 31km/h | 18528m | 4.3m/s | -56.5°C | 4.6% | 73.9hPa | 2.6V | 08:30:00 | 01:16:51 | 00:00:00 | |
| BIOWL1-15 | 2026-09-05 23:46:12 | 48.42506 | 10.13544 | 104° | 29km/h | 18538m | 3.5m/s | 0°C | 0% | 0hPa | 2.7V | 18:12:15 | 01:16:53 | 00:00:00 | |
| DM0DOS-11 | 2026-09-05 23:46:09 | 48.42536 | 10.13460 | 121° | 35km/h | 18502m | 5m/s | -56.6°C | 4.8% | 74.2hPa | 2.6V | 08:30:00 | 01:16:45 | 00:00:00 | |
| DK7TD | 2026-09-05 23:46:09 | 48.42515 | 10.13511 | 120° | 33km/h | 18524m | 4.3m/s | -56.5°C | 1% | 74hPa | 2.6V | 18:12:15 | 01:16:50 | 00:00:00 | |
| IW2NTF | 2026-09-05 23:46:06 | 48.42551 | 10.13416 | 112° | 33km/h | 18483m | 4.6m/s | -56.6°C | 4.8% | 74.5hPa | 2.6V | 08:30:00 | 01:16:41 | 00:00:00 | |
| DO3MHA-11 | 2026-09-05 23:46:04 | 48.42536 | 10.13460 | 122° | 33km/h | 18502m | 5.0m/s | -56.6°C | 4.8% | 74.2hPa | 2.6V | 00:00:00 | 01:16:45 | 00:00:00 | |
| DB0UT-7 | 2026-09-05 23:46:03 | 48.42540 | 10.13449 | 121° | 33km/h | 18497m | 4.1m/s | -56.7°C | 4.8% | 74.3hPa | 2.6V | 00:00:00 | 00:00:00 | 08:30:00 | |
| DF7PN | 2026-09-05 23:46:01 | 48.42548 | 10.13427 | 115° | 31km/h | 18488m | 3.9m/s | -56.7°C | 1.5% | 74.4hPa | 2.6V | 00:00:00 | 00:00:00 | 00:00:00 | |
| DO3MHA-12 | 2026-09-05 23:46:00 | 48.42551 | 10.13416 | 113° | 33km/h | 18484m | 4.5m/s | -56.6°C | 4.8% | 74.4hPa | 2.6V | 00:00:00 | 01:16:41 | 00:00:00 | |
| DM0DOS-11 | 2026-09-05 23:45:59 | 48.42565 | 10.13342 | 100° | 31km/h | 18455m | 5.1m/s | -56.5°C | 4.7% | 74.8hPa | 2.6V | 08:30:00 | 01:16:35 | 00:00:00 | |
| BIOWL1-15 | 2026-09-05 23:45:59 | 48.42555 | 10.13404 | 109° | 35km/h | 18479m | 5.1m/s | 0°C | 0% | 0hPa | 2.6V | 18:12:15 | 01:16:40 | 00:00:00 | |
| DK7TD | 2026-09-05 23:45:58 | 48.42557 | 10.13391 | 107° | 37km/h | 18474m | 4m/s | -56.6°C | 1% | 74.6hPa | 2.6V | 18:12:15 | 01:16:39 | 00:00:00 | |
| DB0ND-19 | 2026-09-05 23:45:57 | 48.42562 | 10.13366 | 102° | 31km/h | 18465m | 5.4m/s | -56.5°C | 1.5% | 74.7hPa | 2.7V | 00:00:00 | 00:00:00 | 00:00:00 | |
| OE5DXL-15 | 2026-09-05 23:45:56 | 48.42562 | 10.13366 | 103° | 33km/h | 18465m | 5.4m/s | -56.5°C | 4.7% | 74.6hPa | 2.7V | 00:00:00 | 00:00:00 | 00:00:00 | |
| IW2NTF | 2026-09-05 23:45:55 | 48.42570 | 10.13293 | 97° | 29km/h | 18436m | 5.5m/s | -56.4°C | 4.6% | 75hPa | 2.7V | 08:30:00 | 01:16:31 | 00:00:00 | |
| DF3TZ-5 | 2026-09-05 23:45:54 | 48.42566 | 10.13330 | 100° | 33km/h | 18450m | 5.1m/s | -56.5°C | 1.4% | 74.8hPa | 2.7V | 00:00:00 | 00:00:00 | 00:00:00 | |
| DO3MHA-12 | 2026-09-05 23:45:50 | 48.42570 | 10.13293 | 98° | 33km/h | 18436m | 5.4m/s | -56.3°C | 4.6% | 75.0hPa | 2.7V | 00:00:00 | 01:16:31 | 00:00:00 | |
| DM0DOS-11 | 2026-09-05 23:45:49 | 48.42580 | 10.13227 | 116° | 31km/h | 18406m | 4.2m/s | -56.1°C | 4.7% | 75.4hPa | 2.7V | 08:30:00 | 01:16:25 | 00:00:00 | |
| DK7TD | 2026-09-05 23:45:47 | 48.42573 | 10.13259 | 99° | 31km/h | 18421m | 4.6m/s | -56.2°C | 1% | 75.2hPa | 2.6V | 18:12:15 | 01:16:28 | 00:00:00 | |
| DL6DJ-15 | 2026-09-05 23:45:47 | 48.42575 | 10.13248 | 103° | 29km/h | 18416m | 4.8m/s | -56.2°C | 1.5% | 75.3hPa | 2.7V | 00:00:00 | 00:00:00 | 00:00:00 | |
| DL1ZP-14 | 2026-09-05 23:45:45 | 48.42580 | 10.13227 | 116° | 29km/h | 18406m | 4.2m/s | -56.1°C | 1.5% | 75.4hPa | 2.7V | 00:00:00 | 00:00:00 | 00:00:00 | |
| IW2NTF | 2026-09-05 23:45:44 | 48.42607 | 10.13152 | 118° | 37km/h | 18376m | 5m/s | -56°C | 4.6% | 75.8hPa | 2.7V | 08:30:00 | 01:16:19 | 00:00:00 | |
| DO3MHA-11 | 2026-09-05 23:45:44 | 48.42580 | 10.13227 | 117° | 37km/h | 18406m | 4.1m/s | -56.1°C | 4.7% | 75.3hPa | 2.7V | 00:00:00 | 01:16:25 | 00:00:00 | |
| OE9MKV-15 | 2026-09-05 23:45:43 | 48.42583 | 10.13216 | 120° | 38km/h | 18402m | 4.2m/s | -56.0°C | 4.7% | 75.4hPa | 2.7V | 00:00:00 | 01:16:24 | 08:30:00 | |
| DO3MHA-12 | 2026-09-05 23:45:40 | 48.42597 | 10.13178 | 118° | 35km/h | 18387m | 4.3m/s | -56.0°C | 4.6% | 75.6hPa | 2.6V | 00:00:00 | 01:16:21 | 00:00:00 | |
| DM0DOS-11 | 2026-09-05 23:45:39 | 48.42621 | 10.13105 | 112° | 33km/h | 18355m | 5.1m/s | -55.9°C | 4.5% | 76hPa | 2.6V | 08:30:00 | 01:16:15 | 00:00:00 | |
| BIOWL1-15 | 2026-09-05 23:45:39 | 48.42602 | 10.13165 | 119° | 38km/h | 18382m | 5.6m/s | 0°C | 0% | 0hPa | 2.6V | 18:12:15 | 01:16:20 | 00:00:00 | |
| DK7TD | 2026-09-05 23:45:36 | 48.42615 | 10.13129 | 114° | 35km/h | 18366m | 6.5m/s | -55.9°C | 0.9% | 75.8hPa | 2.6V | 18:12:15 | 01:16:17 | 00:00:00 | |
| DO3MHA-11 | 2026-09-05 23:45:34 | 48.42621 | 10.13105 | 113° | 35km/h | 18355m | 5.0m/s | -55.8°C | 4.5% | 75.9hPa | 2.6V | 00:00:00 | 01:16:15 | 00:00:00 | |
| IW2NTF | 2026-09-05 23:45:33 | 48.42647 | 10.13039 | 123° | 38km/h | 18326m | 5.1m/s | -55.7°C | 4.5% | 76.3hPa | 2.6V | 08:30:00 | 01:16:09 | 00:00:00 | |
| DB0UT-7 | 2026-09-05 23:45:33 | 48.42624 | 10.13094 | 117° | 38km/h | 18350m | 5.6m/s | -55.8°C | 4.5% | 76.0hPa | 2.6V | 00:00:00 | 01:16:14 | 00:00:00 | |
| HARRO8 | 2026-09-05 23:45:32 | 48.42628 | 10.13084 | 121° | 29km/h | 18345m | 3.8m/s | -55.8°C | 1.4% | 76.1hPa | 2.6V | 00:00:00 | 00:00:00 | 00:00:00 | |
| DO3MHA-12 | 2026-09-05 23:45:30 | 48.42637 | 10.13063 | 122° | 38km/h | 18336m | 5.5m/s | -55.8°C | 4.5% | 76.2hPa | 2.6V | 00:00:00 | 01:16:11 | 00:00:00 | |
| DM0DOS-11 | 2026-09-05 23:45:29 | 48.42677 | 10.12978 | 125° | 42km/h | 18302m | 4.4m/s | -55.6°C | 4.5% | 76.6hPa | 2.6V | 08:30:00 | 01:16:04 | 00:00:00 | |
| DK7TD | 2026-09-05 23:45:26 | 48.42658 | 10.13015 | 129° | 38km/h | 18316m | 3.8m/s | -55.7°C | 0.8% | 76.5hPa | 2.7V | 18:12:15 | 01:16:07 | 00:00:00 | |
| BIOWL1-15 | 2026-09-05 23:45:25 | 48.42677 | 10.12978 | 125° | 42km/h | 18302m | 4.4m/s | 0°C | 0% | 0hPa | 2.6V | 18:12:15 | 01:16:04 | 00:00:00 | |
| DO3MHA-11 | 2026-09-05 23:45:24 | 48.42671 | 10.12991 | 127° | 38km/h | 18307m | 5.6m/s | -55.5°C | 4.5% | 76.5hPa | 2.6V | 00:00:00 | 01:16:05 | 00:00:00 | |
| DF3TZ-5 | 2026-09-05 23:45:23 | 48.42683 | 10.12966 | 125° | 38km/h | 18297m | 5.0m/s | -55.5°C | 1.4% | 76.7hPa | 2.6V | 00:00:00 | 00:00:00 | 00:00:00 | |
| IW2NTF | 2026-09-05 23:45:22 | 48.42720 | 10.12904 | 137° | 42km/h | 18269m | 4.6m/s | -55.3°C | 4.4% | 77hPa | 2.6V | 08:30:00 | 01:15:57 | 00:00:00 | |
| AZAK | 2026-09-05 23:45:21 | 48.42688 | 10.12955 | 129° | 35km/h | 18292m | 5.1m/s | -55.5°C | 1.4% | 76.8hPa | 2.6V | 00:00:00 | 00:00:00 | 00:00:00 | |
| DO3MHA-12 | 2026-09-05 23:45:20 | 48.42694 | 10.12945 | 132° | 40km/h | 18288m | 3.0m/s | -55.4°C | 4.5% | 76.7hPa | 2.6V | 00:00:00 | 01:16:01 | 00:00:00 | |
| DM0DOS-11 | 2026-09-05 23:45:18 | 48.42745 | 10.12873 | 139° | 44km/h | 18254m | 4.9m/s | -55.2°C | 4.3% | 77.2hPa | 2.6V | 08:30:00 | 01:15:54 | 00:00:00 | |
| DK7TD | 2026-09-05 23:45:15 | 48.42728 | 10.12894 | 139° | 42km/h | 18264m | 5.6m/s | -55.2°C | 0.8% | 77.1hPa | 2.7V | 18:12:15 | 01:15:56 | 00:00:00 | |
| BIOWL1-15 | 2026-09-05 23:45:11 | 48.42762 | 10.12849 | 135° | 47km/h | 18245m | 4.4m/s | 0°C | 0% | 0hPa | 2.6V | 18:12:15 | 01:15:52 | 00:00:00 | |
| OE9MKV-15 | 2026-09-05 23:45:11 | 48.42762 | 10.12849 | 135° | 44km/h | 18245m | 4.4m/s | -55.2°C | 4.4% | 77.3hPa | 2.7V | 00:00:00 | 01:15:52 | 00:00:00 | |
| DO3MHA-12 | 2026-09-05 23:45:10 | 48.42770 | 10.12836 | 134° | 38km/h | 18240m | 5.8m/s | -55.3°C | 4.3% | 77.3hPa | 2.7V | 00:00:00 | 01:15:51 | 08:30:00 | |
| OE5DRO-10 | 2026-09-05 23:45:09 | 48.42777 | 10.12824 | 132° | 42km/h | 18235m | 4.7m/s | -55.3°C | 4.4% | 77.4hPa | 2.7V | 00:00:00 | 00:00:00 | 00:00:00 | |
| DM0DOS-11 | 2026-09-05 23:45:08 | 48.42812 | 10.12755 | 134° | 33km/h | 18206m | 4.7m/s | -55.5°C | 4.3% | 77.8hPa | 2.7V | 08:30:00 | 01:15:44 | 00:00:00 | |
| IW2NTF | 2026-09-05 23:45:07 | 48.42796 | 10.12788 | 124° | 40km/h | 18220m | 4.7m/s | -55.4°C | 4.3% | 77.6hPa | 2.6V | 08:30:00 | 01:15:47 | 00:00:00 | |
| DK7TD | 2026-09-05 23:45:04 | 48.42807 | 10.12765 | 129° | 35km/h | 18211m | 5.3m/s | -55.5°C | 0.8% | 77.7hPa | 2.7V | 18:12:15 | 01:15:45 | 00:00:00 | |
| DO3MHA-11 | 2026-09-05 23:45:04 | 48.42807 | 10.12765 | 129° | 42km/h | 18211m | 5.3m/s | -55.4°C | 4.3% | 77.7hPa | 2.6V | 00:00:00 | 01:15:45 | 00:00:00 | |
| IW2NTF | 2026-09-05 23:45:01 | 48.42871 | 10.12685 | 144° | 46km/h | 18174m | 4.5m/s | -55.6°C | 4.3% | 78.2hPa | 2.6V | 08:30:00 | 01:15:37 | 00:00:00 | |
| BIOWL1-15 | 2026-09-05 23:44:59 | 48.42843 | 10.12718 | 142° | 46km/h | 18188m | 4m/s | 0°C | 0% | 0hPa | 2.6V | 18:12:15 | 01:15:40 | 00:00:00 | |
| DF7PN | 2026-09-05 23:44:59 | 48.42843 | 10.12718 | 141° | 46km/h | 18188m | 4.0m/s | -55.6°C | 1.4% | 78.0hPa | 2.6V | 00:00:00 | 00:00:00 | 00:00:00 | |
| DM0DOS-11 | 2026-09-05 23:44:58 | 48.42898 | 10.12652 | 135° | 46km/h | 18160m | 5m/s | -55.6°C | 4.3% | 78.3hPa | 2.6V | 08:30:00 | 01:15:34 | 00:00:00 | |
| DK7TD | 2026-09-05 23:44:54 | 48.42890 | 10.12664 | 140° | 46km/h | 18165m | 5.5m/s | -55.6°C | 0.8% | 78.3hPa | 2.6V | 18:12:15 | 01:15:35 | 00:00:00 | |
| DF3TZ-5 | 2026-09-05 23:44:52 | 48.42913 | 10.12628 | 131° | 40km/h | 18151m | 5.3m/s | -55.7°C | 1.4% | 78.5hPa | 2.6V | 00:00:00 | 00:00:00 | 00:00:00 | |
| DO3MHA-12 | 2026-09-05 23:44:50 | 48.42920 | 10.12617 | 131° | 46km/h | 18146m | 4.0m/s | -55.6°C | 4.3% | 78.5hPa | 2.6V | 00:00:00 | 01:15:31 | 00:00:00 | |
| DM0DOS-11 | 2026-09-05 23:44:48 | 48.42977 | 10.12532 | 137° | 49km/h | 18111m | 4.1m/s | -56.1°C | 4.3% | 79hPa | 2.6V | 08:30:00 | 01:15:24 | 00:00:00 | |
| IW2NTF | 2026-09-05 23:44:47 | 48.42950 | 10.12568 | 137° | 46km/h | 18126m | 5.5m/s | -55.8°C | 4.3% | 78.8hPa | 2.7V | 08:30:00 | 01:15:27 | 00:00:00 | |
| DK7TD | 2026-09-05 23:44:44 | 48.42968 | 10.12544 | 138° | 47km/h | 18116m | 6m/s | -56°C | 0.7% | 78.9hPa | 2.6V | 18:12:15 | 01:15:25 | 00:00:00 | |
| PG1ADW-2 | 2026-09-05 23:44:43 | 48.42977 | 10.12532 | 138° | 46km/h | 18111m | 4.0m/s | -56.0°C | 4.3% | 78.9hPa | 2.6V | 00:00:00 | 00:00:00 | 00:00:00 | |
| DL1ZP-14 | 2026-09-05 23:44:42 | 48.42986 | 10.12520 | 138° | 47km/h | 18106m | 5.6m/s | -56.1°C | 1.4% | 79.0hPa | 2.6V | 00:00:00 | 00:00:00 | 00:00:00 | |
| IW2NTF | 2026-09-05 23:44:41 | 48.43031 | 10.12444 | 125° | 40km/h | 18076m | 5.1m/s | -56.8°C | 4.5% | 79.4hPa | 2.6V | 08:30:00 | 01:15:17 | 00:00:00 | |
| OE9MKV-15 | 2026-09-05 23:44:41 | 48.42995 | 10.12508 | 139° | 47km/h | 18101m | 4.4m/s | -56.2°C | 4.4% | 79.0hPa | 2.6V | 00:00:00 | 01:15:22 | 00:00:00 | |
| DB0NH | 2026-09-05 23:44:40 | 48.43003 | 10.12496 | 136° | 47km/h | 18097m | 4.0m/s | -56.2°C | 4.4% | 79.1hPa | 2.6V | 00:00:00 | 01:15:21 | 00:00:00 | |
| AZAK | 2026-09-05 23:44:39 | 48.43003 | 10.12496 | 136° | 44km/h | 18097m | 4.0m/s | -56.3°C | 1.4% | 79.1hPa | 2.6V | 00:00:00 | 00:00:00 | 00:00:00 | |
| DM0DOS-11 | 2026-09-05 23:44:38 | 48.43048 | 10.12405 | 120° | 42km/h | 18062m | 5.2m/s | -57.2°C | 4.7% | 79.6hPa | 2.6V | 08:30:00 | 01:15:14 | 00:00:00 | |
| DK7TD | 2026-09-05 23:44:33 | 48.43048 | 10.12405 | 120° | 42km/h | 18062m | 5.2m/s | -57.2°C | 1.1% | 79.6hPa | 2.6V | 18:12:15 | 01:15:14 | 00:00:00 | |
| OE5DRO-10 | 2026-09-05 23:44:31 | 48.43059 | 10.12377 | 124° | 49km/h | 18052m | 5.7m/s | -57.3°C | 4.7% | 79.7hPa | 2.6V | 00:00:00 | 00:00:00 | 00:00:00 | |
| DO3MHA-12 | 2026-09-05 23:44:30 | 48.43066 | 10.12364 | 126° | 47km/h | 18047m | 4.1m/s | -57.3°C | 4.7% | 79.7hPa | 2.7V | 00:00:00 | 01:15:11 | 00:00:00 | |
| DM0DOS-11 | 2026-09-05 23:44:28 | 48.43117 | 10.12261 | 124° | 47km/h | 18015m | 4.6m/s | -57.6°C | 4.9% | 80.2hPa | 2.7V | 08:30:00 | 01:15:04 | 00:00:00 | |
| DF7PN | 2026-09-05 23:44:28 | 48.43079 | 10.12336 | 126° | 47km/h | 18038m | 5.6m/s | -57.5°C | 1.5% | 79.8hPa | 2.6V | 00:00:00 | 00:00:00 | 00:00:00 | |
| IW2NTF | 2026-09-05 23:44:27 | 48.43094 | 10.12305 | 127° | 51km/h | 18029m | 4.5m/s | -57.6°C | 4.9% | 80hPa | 2.6V | 08:30:00 | 01:15:07 | 00:00:00 | |
| DK7TD | 2026-09-05 23:44:23 | 48.43117 | 10.12261 | 125° | 47km/h | 18015m | 4.6m/s | -57.6°C | 1.1% | 80.2hPa | 2.7V | 18:12:15 | 01:15:04 | 00:00:00 | |
| PG1ADW-2 | 2026-09-05 23:44:23 | 48.43117 | 10.12261 | 125° | 51km/h | 18015m | 4.6m/s | -57.6°C | 4.9% | 80.1hPa | 2.6V | 00:00:00 | 00:00:00 | 00:00:00 | |
| IW2NTF | 2026-09-05 23:44:20 | 48.43163 | 10.12132 | 118° | 53km/h | 17976m | 4.2m/s | -57.7°C | 5% | 80.7hPa | 2.6V | 08:30:00 | 01:14:56 | 00:00:00 | |
| DO3MHA-12 | 2026-09-05 23:44:20 | 48.43134 | 10.12214 | 117° | 51km/h | 18001m | 4.2m/s | -57.6°C | 4.9% | 80.3hPa | 2.6V | 00:00:00 | 01:15:01 | 00:00:00 | |
| DM0DOS-11 | 2026-09-05 23:44:18 | 48.43176 | 10.12097 | 122° | 55km/h | 17966m | 4m/s | -57.7°C | 5.1% | 80.8hPa | 2.6V | 08:30:00 | 01:14:54 | 00:00:00 | |
| DK7TD | 2026-09-05 23:44:13 | 48.43176 | 10.12097 | 122° | 55km/h | 17966m | 4m/s | -57.7°C | 1.2% | 80.8hPa | 2.6V | 18:12:15 | 01:14:54 | 00:00:00 | |
| OE5DRO-10 | 2026-09-05 23:44:12 | 48.43183 | 10.12079 | 122° | 51km/h | 17962m | 4.5m/s | -57.6°C | 5.0% | 80.8hPa | 2.7V | 00:00:00 | 00:00:00 | 00:00:00 | |
| OE9MKV-15 | 2026-09-05 23:44:11 | 48.43190 | 10.12060 | 120° | 49km/h | 17957m | 5.2m/s | -57.6°C | 5.0% | 80.8hPa | 2.7V | 00:00:00 | 01:14:52 | 00:00:00 | |
| DO3MHA-12 | 2026-09-05 23:44:10 | 48.43197 | 10.12041 | 118° | 51km/h | 17952m | 4.2m/s | -57.6°C | 5.0% | 80.9hPa | 2.6V | 00:00:00 | 01:14:51 | 00:00:00 | |
| DJTTGO | 2026-09-05 23:44:08 | 48.43204 | 10.12022 | 118° | 55km/h | 17948m | 5.5m/s | -57.6°C | 0% | 0hPa | 2.7V | 00:00:00 | 00:00:00 | 00:00:00 | |
| IW2NTF | 2026-09-05 23:44:07 | 48.43226 | 10.11953 | 113° | 49km/h | 17927m | 4.5m/s | -57.5°C | 5% | 81.3hPa | 2.7V | 08:30:00 | 01:14:46 | 00:00:00 | |
| DF1GD-15 | 2026-09-05 23:44:05 | 48.43221 | 10.11970 | 114° | 49km/h | 17932m | 5.9m/s | -57.5°C | 1.7% | 81.2hPa | 2.6V | 00:00:00 | 00:00:00 | 00:00:00 | |
| DO3MHA-11 | 2026-09-05 23:44:04 | 48.43231 | 10.11935 | 116° | 49km/h | 17922m | 5.1m/s | -57.4°C | 5.0% | 81.3hPa | 2.6V | 00:00:00 | 01:14:45 | 00:00:00 | |
| DM0DOS-11 | 2026-09-05 23:44:03 | 48.43267 | 10.11833 | 120° | 51km/h | 17893m | 5.1m/s | -57.3°C | 4.9% | 81.7hPa | 2.6V | 08:30:00 | 01:14:39 | 00:00:00 | |
| DK7TD | 2026-09-05 23:44:02 | 48.43242 | 10.11902 | 119° | 51km/h | 17912m | 4.5m/s | -57.4°C | 1.1% | 81.5hPa | 2.6V | 18:12:15 | 01:14:43 | 00:00:00 | |
| HARRO8 | 2026-09-05 23:43:59 | 48.43267 | 10.11833 | 120° | 49km/h | 17893m | 5.1m/s | -57.3°C | 1.6% | 81.8hPa | 2.6V | 00:00:00 | 00:00:00 | 00:00:00 | |
| IW2NTF | 2026-09-05 23:43:58 | 48.43289 | 10.11750 | 103° | 44km/h | 17867m | 5.6m/s | -57.2°C | 4.8% | 82.1hPa | 2.6V | 08:30:00 | 01:14:34 | 00:00:00 | |
| DF7PN | 2026-09-05 23:43:57 | 48.43279 | 10.11800 | 114° | 47km/h | 17882m | 5.9m/s | -57.3°C | 1.6% | 81.9hPa | 2.7V | 00:00:00 | 00:00:00 | 00:00:00 | |
| OE5DXL-15 | 2026-09-05 23:43:56 | 48.43279 | 10.11800 | 115° | 44km/h | 17882m | 5.9m/s | -57.3°C | 4.9% | 81.8hPa | 2.7V | 00:00:00 | 00:00:00 | 00:00:00 | |
| DO3MHA-11 | 2026-09-05 23:43:54 | 48.43286 | 10.11766 | 105° | 47km/h | 17873m | 4.2m/s | -57.2°C | 4.9% | 81.9hPa | 2.7V | 00:00:00 | 01:14:35 | 00:00:00 | |
| DM0DOS-11 | 2026-09-05 23:43:53 | 48.43304 | 10.11663 | 108° | 51km/h | 17842m | 5.7m/s | -57°C | 4.8% | 82.3hPa | 2.7V | 08:30:00 | 01:14:29 | 00:00:00 | |
| DK7TD | 2026-09-05 23:43:52 | 48.43292 | 10.11733 | 105° | 44km/h | 17862m | 4.7m/s | -57.2°C | 1.1% | 82.1hPa | 2.6V | 18:12:15 | 01:14:33 | 00:00:00 | |
| DF3TZ-5 | 2026-09-05 23:43:49 | 48.43301 | 10.11681 | 104° | 49km/h | 17847m | 4.6m/s | -57.1°C | 1.5% | 82.3hPa | 2.7V | 00:00:00 | 00:00:00 | 00:00:00 | |
| IW2NTF | 2026-09-05 23:43:47 | 48.43327 | 10.11577 | 112° | 46km/h | 17817m | 5.7m/s | -56.9°C | 4.9% | 82.7hPa | 2.7V | 08:30:00 | 01:14:24 | 00:00:00 | |
| DK7TD | 2026-09-05 23:43:41 | 48.43334 | 10.11546 | 106° | 42km/h | 17808m | 5.1m/s | -56.8°C | 1.1% | 82.8hPa | 2.6V | 18:12:15 | 01:14:22 | 00:00:00 | |
| OE9MKV-15 | 2026-09-05 23:43:41 | 48.43334 | 10.11546 | 107° | 40km/h | 17808m | 5.1m/s | -56.8°C | 4.8% | 82.7hPa | 2.6V | 00:00:00 | 01:14:22 | 00:00:00 | |
| DO3MHA-12 | 2026-09-05 23:43:40 | 48.43336 | 10.11530 | 101° | 42km/h | 17803m | 5.1m/s | -56.7°C | 4.8% | 82.8hPa | 2.6V | 00:00:00 | 01:14:21 | 08:30:00 | |
| IW2NTF | 2026-09-05 23:43:38 | 48.43353 | 10.11420 | 105° | 42km/h | 17770m | 3.9m/s | -56.5°C | 4.8% | 83.3hPa | 2.6V | 08:30:00 | 01:14:14 | 00:00:00 | |
| DK7TD | 2026-09-05 23:43:31 | 48.43359 | 10.11392 | 112° | 38km/h | 17760m | 4.9m/s | -56.5°C | 1% | 83.5hPa | 2.7V | 18:12:15 | 01:14:12 | 00:00:00 | |
| NBG1-10 | 2026-09-05 23:43:31 | 48.43359 | 10.11392 | 112° | 38km/h | 17760m | 4.8m/s | -56.4°C | 4.7% | 83.4hPa | 2.6V | 00:00:00 | 01:14:12 | 00:00:00 | |
| DO3MHA-12 | 2026-09-05 23:43:30 | 48.43362 | 10.11378 | 114° | 42km/h | 17756m | 4.5m/s | -56.4°C | 4.7% | 83.4hPa | 2.6V | 00:00:00 | 01:14:11 | 00:00:00 | |
| HARRO8 | 2026-09-05 23:43:28 | 48.43372 | 10.11335 | 103° | 40km/h | 17740m | 4.4m/s | -56.4°C | 1.5% | 83.7hPa | 2.6V | 00:00:00 | 00:00:00 | 00:00:00 | |
| IW2NTF | 2026-09-05 23:43:27 | 48.43380 | 10.11273 | 97° | 44km/h | 17720m | 5.6m/s | -56.3°C | 4.6% | 83.9hPa | 2.6V | 08:30:00 | 01:14:04 | 00:00:00 | |
| DK7TD | 2026-09-05 23:43:20 | 48.43386 | 10.11226 | 104° | 40km/h | 17706m | 5.6m/s | -56.3°C | 1% | 84.2hPa | 2.7V | 18:12:15 | 01:14:01 | 00:00:00 | |
| DO3MHA-12 | 2026-09-05 23:43:20 | 48.43386 | 10.11226 | 104° | 35km/h | 17706m | 5.6m/s | -56.3°C | 4.6% | 84.1hPa | 2.7V | 00:00:00 | 01:14:01 | 00:00:00 | |
| DJ8HS-15 | 2026-09-05 23:43:18 | 48.43390 | 10.11199 | 106° | 37km/h | 17696m | 5.6m/s | -56.3°C | 4.6% | 84.2hPa | 2.7V | 00:00:00 | 01:13:59 | 00:00:00 | |
| IW2NTF | 2026-09-05 23:43:17 | 48.43404 | 10.11141 | 110° | 35km/h | 17671m | 5.1m/s | -56.2°C | 4.5% | 84.6hPa | 2.7V | 08:30:00 | 01:13:54 | 00:00:00 | |
| DK7TD | 2026-09-05 23:43:10 | 48.43412 | 10.11099 | 106° | 40km/h | 17658m | 5.2m/s | -56.2°C | 1% | 84.8hPa | 2.6V | 18:12:15 | 01:13:51 | 00:00:00 | |
| DO3MHA-12 | 2026-09-05 23:43:10 | 48.43412 | 10.11099 | 107° | 37km/h | 17658m | 5.2m/s | -56.1°C | 4.5% | 84.8hPa | 2.6V | 00:00:00 | 01:13:51 | 00:00:00 | |
| DL1ZP-14 | 2026-09-05 23:43:09 | 48.43415 | 10.11084 | 107° | 38km/h | 17652m | 4.7m/s | -56.2°C | 1.5% | 84.9hPa | 2.6V | 00:00:00 | 00:00:00 | 00:00:00 | |
| IW2NTF | 2026-09-05 23:43:08 | 48.43432 | 10.11007 | 118° | 37km/h | 17625m | 3.6m/s | -56.3°C | 4.5% | 85.2hPa | 2.7V | 08:30:00 | 01:13:44 | 00:00:00 | |
| DK7TD | 2026-09-05 23:42:59 | 48.43449 | 10.10953 | 113° | 44km/h | 17607m | 4.1m/s | -56.5°C | 0.9% | 85.5hPa | 2.6V | 18:12:15 | 01:13:40 | 00:00:00 | |
| DK7TD | 2026-09-05 23:42:48 | 48.43494 | 10.10776 | 111° | 49km/h | 17557m | 4.1m/s | -57.5°C | 1.2% | 86.2hPa | 2.6V | 18:12:15 | 01:13:29 | 00:00:00 | |
| IW2NTF | 2026-09-05 23:42:48 | 48.43521 | 10.10693 | 118° | 47km/h | 17533m | 4.5m/s | -57.5°C | 4.9% | 86.5hPa | 2.6V | 08:30:00 | 01:13:24 | 00:00:00 | |
| DF3TZ-5 | 2026-09-05 23:42:48 | 48.43499 | 10.10759 | 113° | 47km/h | 17553m | 4.0m/s | -57.5°C | 1.7% | 86.2hPa | 2.6V | 00:00:00 | 00:00:00 | 00:00:00 | |
| AM1SDL-15 | 2026-09-05 23:42:45 | 48.43509 | 10.10725 | 119° | 49km/h | 17543m | 4.4m/s | 0°C | 0% | 0hPa | 2.6V | 00:00:00 | 01:13:26 | 00:00:00 | |
| DO3MHA-11 | 2026-09-05 23:42:44 | 48.43515 | 10.10709 | 118° | 49km/h | 17538m | 5.7m/s | -57.5°C | 4.9% | 86.4hPa | 2.6V | 00:00:00 | 01:13:25 | 00:00:00 | |
| PG1ADW-2 | 2026-09-05 23:42:43 | 48.43521 | 10.10693 | 119° | 55km/h | 17533m | 4.4m/s | -57.5°C | 4.9% | 86.5hPa | 2.6V | 00:00:00 | 01:13:24 | 00:00:00 | |
| OE9MKV-15 | 2026-09-05 23:42:41 | 48.43533 | 10.10663 | 124° | 58km/h | 17524m | 5.1m/s | -57.5°C | 4.9% | 86.6hPa | 2.6V | 00:00:00 | 01:13:22 | 00:00:00 | |
| DB0NH | 2026-09-05 23:42:40 | 48.43539 | 10.10648 | 125° | 60km/h | 17519m | 4.1m/s | -57.5°C | 4.9% | 86.6hPa | 2.6V | 00:00:00 | 01:13:21 | 00:00:00 | |
| DJ8HS-15 | 2026-09-05 23:42:38 | 48.43552 | 10.10618 | 121° | 58km/h | 17509m | 4.8m/s | -57.6°C | 5.0% | 86.8hPa | 2.7V | 00:00:00 | 01:13:19 | 08:30:00 | |
| IW2NTF | 2026-09-05 23:42:37 | 48.43587 | 10.10531 | 120° | 60km/h | 17485m | 5.6m/s | -57.6°C | 0% | 87.2hPa | 2.7V | 08:30:00 | 01:13:14 | 00:00:00 | |
| DK7TD | 2026-09-05 23:42:37 | 48.43558 | 10.10602 | 119° | 49km/h | 17504m | 3.8m/s | -57.6°C | 1.2% | 86.9hPa | 2.6V | 18:12:15 | 01:13:18 | 00:00:00 | |
| OE5DRO-10 | 2026-09-05 23:42:37 | 48.43558 | 10.10602 | 120° | 58km/h | 17505m | 3.7m/s | -57.5°C | 4.9% | 86.8hPa | 2.6V | 00:00:00 | 00:00:00 | 00:00:00 | |
| AZAK | 2026-09-05 23:42:35 | 48.43572 | 10.10568 | 124° | 55km/h | 17495m | 4.8m/s | -57.6°C | 1.7% | 87.0hPa | 2.6V | 00:00:00 | 00:00:00 | 00:00:00 | |
| DO3MHA-11 | 2026-09-05 23:42:34 | 48.43580 | 10.10550 | 123° | 58km/h | 17490m | 4.4m/s | -57.5°C | 5.0% | 87.0hPa | 2.6V | 00:00:00 | 01:13:15 | 00:00:00 | |
| DB0UT-7 | 2026-09-05 23:42:33 | 48.43587 | 10.10531 | 121° | 64km/h | 17485m | 5.6m/s | -57.5°C | 5.0% | 87.1hPa | 2.6V | 00:00:00 | 01:13:14 | 00:00:00 | |
| DO3MHA-12 | 2026-09-05 23:42:30 | 48.43608 | 10.10471 | 119° | 60km/h | 17471m | 5.1m/s | -57.5°C | 4.9% | 87.3hPa | 2.6V | 00:00:00 | 01:13:11 | 00:00:00 | |
| IW2NTF | 2026-09-05 23:42:29 | 48.43659 | 10.10332 | 116° | 64km/h | 17439m | 5.1m/s | -57.3°C | 0% | 87.8hPa | 2.6V | 08:30:00 | 01:13:04 | 00:00:00 | |
| OE5DXL-15 | 2026-09-05 23:42:26 | 48.43638 | 10.10396 | 119° | 68km/h | 17453m | 5.3m/s | -57.4°C | 4.9% | 87.5hPa | 2.6V | 00:00:00 | 00:00:00 | 00:00:00 | |
| DK7TD | 2026-09-05 23:42:26 | 48.43638 | 10.10396 | 119° | 60km/h | 17453m | 5.4m/s | -57.4°C | 1.2% | 87.6hPa | 2.6V | 18:12:15 | 01:13:07 | 00:00:00 | |
| NBG1-10 | 2026-09-05 23:42:25 | 48.43645 | 10.10375 | 117° | 68km/h | 17448m | 4.7m/s | -57.3°C | 4.9% | 87.6hPa | 2.6V | 00:00:00 | 01:13:06 | 08:30:00 | |
| DO3MHA-11 | 2026-09-05 23:42:24 | 48.43652 | 10.10354 | 116° | 64km/h | 17443m | 4.1m/s | -57.3°C | 4.8% | 87.7hPa | 2.6V | 00:00:00 | 01:13:05 | 00:00:00 | |
| PG1ADW-2 | 2026-09-05 23:42:23 | 48.43659 | 10.10332 | 117° | 66km/h | 17439m | 5.1m/s | -57.2°C | 4.8% | 87.8hPa | 2.6V | 00:00:00 | 00:00:00 | 00:00:00 | |
| AM1SDL-15 | 2026-09-05 23:42:21 | 48.43674 | 10.10289 | 118° | 66km/h | 17429m | 3.8m/s | 0°C | 0% | 0hPa | 2.6V | 00:00:00 | 01:13:02 | 00:00:00 | |
| DB0ND-19 | 2026-09-05 23:42:20 | 48.43688 | 10.10247 | 114° | 62km/h | 17419m | 4.5m/s | -57.2°C | 1.6% | 88.0hPa | 2.6V | 00:00:00 | 00:00:00 | 00:00:00 | |
| DJ8HS-15 | 2026-09-05 23:42:18 | 48.43695 | 10.10225 | 116° | 68km/h | 17415m | 4.7m/s | -57.2°C | 4.9% | 88.1hPa | 2.6V | 00:00:00 | 01:12:59 | 00:00:00 | |
| IW2NTF | 2026-09-05 23:42:17 | 48.43731 | 10.10115 | 115° | 68km/h | 17392m | 3.7m/s | -57.6°C | 0% | 88.5hPa | 2.6V | 08:30:00 | 01:12:54 | 00:00:00 | |
| DK7TD | 2026-09-05 23:42:16 | 48.43709 | 10.10182 | 117° | 64km/h | 17405m | 3.8m/s | -57.3°C | 1.1% | 88.3hPa | 2.7V | 18:12:15 | 01:12:57 | 00:00:00 | |
| AZAK | 2026-09-05 23:42:14 | 48.43723 | 10.10138 | 116° | 66km/h | 17396m | 4.4m/s | -57.5°C | 1.7% | 88.4hPa | 2.6V | 00:00:00 | 00:00:00 | 00:00:00 | |
| OE9MKV-15 | 2026-09-05 23:42:11 | 48.43746 | 10.10070 | 119° | 69km/h | 17382m | 4.9m/s | -57.9°C | 5.1% | 88.5hPa | 2.6V | 00:00:00 | 01:12:52 | 00:00:00 | |
| DB0NH | 2026-09-05 23:42:10 | 48.43754 | 10.10048 | 119° | 69km/h | 17378m | 4.0m/s | -57.9°C | 5.0% | 88.6hPa | 2.6V | 00:00:00 | 01:12:51 | 00:00:00 | |
| DL6DJ-15 | 2026-09-05 23:42:09 | 48.43762 | 10.10026 | 117° | 66km/h | 17373m | 5.6m/s | -58.0°C | 1.7% | 88.8hPa | 2.6V | 00:00:00 | 00:00:00 | 00:00:00 | |
| IW2NTF | 2026-09-05 23:42:08 | 48.43807 | 10.09881 | 112° | 75km/h | 17343m | 4.4m/s | -57.8°C | 0% | 89.2hPa | 2.6V | 08:30:00 | 01:12:44 | 00:00:00 | |
| DK7TD | 2026-09-05 23:42:05 | 48.43792 | 10.09931 | 115° | 71km/h | 17353m | 3.8m/s | -57.9°C | 1.4% | 89hPa | 2.7V | 18:12:15 | 01:12:46 | 00:00:00 | |
| DO3MHA-11 | 2026-09-05 23:42:04 | 48.43800 | 10.09906 | 114° | 71km/h | 17349m | 5.7m/s | -57.8°C | 5.0% | 89.0hPa | 2.7V | 00:00:00 | 01:12:45 | 00:00:00 | |
| DB0UT-7 | 2026-09-05 23:42:03 | 48.43807 | 10.09881 | 113° | 68km/h | 17343m | 4.4m/s | -57.8°C | 5.1% | 89.1hPa | 2.7V | 00:00:00 | 00:00:00 | 00:00:00 | |
| DO3MHA-12 | 2026-09-05 23:42:00 | 48.43829 | 10.09805 | 114° | 69km/h | 17330m | 4.1m/s | -57.7°C | 5.0% | 89.3hPa | 2.7V | 00:00:00 | 01:12:41 | 00:00:00 | |
| OE5DRO-10 | 2026-09-05 23:41:59 | 48.43836 | 10.09780 | 114° | 69km/h | 17325m | 5.1m/s | -57.7°C | 5.0% | 89.3hPa | 2.7V | 00:00:00 | 00:00:00 | 00:00:00 | |
| DJ8HS-15 | 2026-09-05 23:41:58 | 48.43843 | 10.09755 | 114° | 68km/h | 17320m | 4.9m/s | -57.7°C | 5.0% | 89.4hPa | 2.7V | 00:00:00 | 01:12:39 | 00:00:00 | |
| IW2NTF | 2026-09-05 23:41:56 | 48.43880 | 10.09634 | 112° | 68km/h | 17296m | 5.1m/s | -57.6°C | 0% | 89.8hPa | 2.7V | 08:30:00 | 01:12:34 | 00:00:00 | |
| DK7TD | 2026-09-05 23:41:55 | 48.43866 | 10.09681 | 116° | 69km/h | 17306m | 4.3m/s | -57.6°C | 1.3% | 89.7hPa | 2.6V | 18:12:15 | 01:12:36 | 00:00:00 | |
| HARRO8 | 2026-09-05 23:41:54 | 48.43873 | 10.09658 | 114° | 68km/h | 17301m | 4.5m/s | -57.6°C | 1.7% | 89.7hPa | 2.6V | 00:00:00 | 00:00:00 | 00:00:00 | |
| DF7PN | 2026-09-05 23:41:52 | 48.43886 | 10.09610 | 111° | 66km/h | 17292m | 4.5m/s | -57.6°C | 1.7% | 89.8hPa | 2.6V | 00:00:00 | 00:00:00 | 00:00:00 | |
| DB0ND-19 | 2026-09-05 23:41:48 | 48.43911 | 10.09516 | 110° | 68km/h | 17274m | 5.0m/s | -57.5°C | 1.7% | 90.2hPa | 2.6V | 00:00:00 | 00:00:00 | 00:00:00 | |
| IW2NTF | 2026-09-05 23:41:46 | 48.43942 | 10.09393 | 114° | 66km/h | 17251m | 4m/s | -57.8°C | 0% | 90.4hPa | 2.6V | 08:30:00 | 01:12:24 | 00:00:00 | |
| DK7TD | 2026-09-05 23:41:44 | 48.43935 | 10.09416 | 112° | 66km/h | 17256m | 4m/s | -57.7°C | 1.3% | 90.4hPa | 2.6V | 18:12:15 | 01:12:25 | 00:00:00 | |
| DK7TD | 2026-09-05 23:41:34 | 48.44008 | 10.09198 | 116° | 60km/h | 17210m | 5.6m/s | -58.2°C | 1.4% | 91hPa | 2.6V | 18:12:15 | 01:12:15 | 00:00:00 | |
| BIOWL1-15 | 2026-09-05 23:41:30 | 48.44034 | 10.09109 | 111° | 68km/h | 17191m | 4.8m/s | -58.3°C | 1.3% | 91.3hPa | 2.7V | 18:12:15 | 01:12:11 | 00:00:00 | |
| DK7TD | 2026-09-05 23:41:24 | 48.44065 | 10.08961 | 106° | 66km/h | 17162m | 4.7m/s | -58.3°C | 1.3% | 91.7hPa | 2.7V | 18:12:15 | 01:12:05 | 00:00:00 | |
| DO3MHA-11 | 2026-09-05 23:41:24 | 48.44065 | 10.08961 | 107° | 62km/h | 17163m | 4.6m/s | -58.3°C | 5.0% | 91.7hPa | 2.7V | 00:00:00 | 01:12:05 | 08:30:00 | |
| PG1ADW-2 | 2026-09-05 23:41:23 | 48.44069 | 10.08938 | 108° | 60km/h | 17159m | 3.5m/s | -58.3°C | 5.0% | 91.8hPa | 2.7V | 00:00:00 | 01:12:04 | 00:00:00 | |
| DF7PN | 2026-09-05 23:41:22 | 48.44080 | 10.08893 | 113° | 60km/h | 17149m | 4.9m/s | -58.4°C | 1.7% | 91.9hPa | 2.7V | 00:00:00 | 00:00:00 | 00:00:00 | |
| OE5DRO-10 | 2026-09-05 23:41:21 | 48.44080 | 10.08893 | 114° | 60km/h | 17149m | 4.9m/s | -58.4°C | 5.0% | 91.9hPa | 2.7V | 00:00:00 | 00:00:00 | 00:00:00 | |
| DK5PH-5 | 2026-09-05 23:41:20 | 48.44087 | 10.08872 | 117° | 60km/h | 17145m | 4.1m/s | -58.4°C | 5.1% | 91.9hPa | 2.7V | 00:00:00 | 01:12:01 | 00:00:00 | |
| IW2NTF | 2026-09-05 23:41:19 | 48.44101 | 10.08831 | 115° | 60km/h | 17136m | 4.8m/s | -58.5°C | 0% | 92.1hPa | 2.7V | 08:30:00 | 01:11:59 | 00:00:00 | |
| DK7TD | 2026-09-05 23:41:13 | 48.44134 | 10.08722 | 118° | 66km/h | 17114m | 4.2m/s | -58.7°C | 1.4% | 92.5hPa | 2.7V | 18:12:15 | 01:11:54 | 00:00:00 | |
| BIOWL1-15 | 2026-09-05 23:41:10 | 48.44155 | 10.08659 | 116° | 60km/h | 17100m | 3.3m/s | -58.9°C | 1.4% | 92.6hPa | 2.6V | 18:12:15 | 01:11:51 | 00:00:00 | |
| DK7TD | 2026-09-05 23:41:03 | 48.44199 | 10.08522 | 113° | 57km/h | 17067m | 5.4m/s | -59.1°C | 1.5% | 93.1hPa | 2.6V | 18:12:15 | 01:11:44 | 00:00:00 | |
| PG1ADW-2 | 2026-09-05 23:41:03 | 48.44199 | 10.08522 | 114° | 62km/h | 17067m | 5.3m/s | -59.0°C | 5.4% | 93.1hPa | 2.7V | 00:00:00 | 00:00:00 | 00:00:00 | |
| OE5DRO-10 | 2026-09-05 23:41:02 | 48.44205 | 10.08501 | 114° | 64km/h | 17063m | 3.8m/s | -59.0°C | 5.4% | 93.2hPa | 2.7V | 00:00:00 | 00:00:00 | 00:00:00 | |
| DO3MHA-12 | 2026-09-05 23:41:00 | 48.44217 | 10.08458 | 110° | 62km/h | 17053m | 4.6m/s | -59.0°C | 5.4% | 93.3hPa | 2.7V | 00:00:00 | 01:11:41 | 00:00:00 | |
| AM1SDL-15 | 2026-09-05 23:40:59 | 48.44222 | 10.08436 | 110° | 62km/h | 17049m | 3.6m/s | 0°C | 0% | 0hPa | 2.7V | 00:00:00 | 01:11:40 | 00:00:00 | |
| IW2NTF | 2026-09-05 23:40:59 | 48.44228 | 10.08413 | 110° | 66km/h | 17044m | 4.7m/s | -59°C | 0% | 93.5hPa | 2.6V | 08:30:00 | 01:11:39 | 00:00:00 | |
| DJ8HS-15 | 2026-09-05 23:40:58 | 48.44227 | 10.08413 | 111° | 62km/h | 17044m | 4.7m/s | -59.0°C | 5.4% | 93.4hPa | 2.7V | 00:00:00 | 01:11:39 | 00:00:00 | |
| OE5DXL-15 | 2026-09-05 23:40:56 | 48.44241 | 10.08367 | 117° | 60km/h | 17036m | 4.3m/s | -58.9°C | 5.5% | 93.6hPa | 2.7V | 00:00:00 | 00:00:00 | 00:00:00 | |
| DO3MHA-11 | 2026-09-05 23:40:54 | 48.44256 | 10.08325 | 119° | 62km/h | 17027m | 4.8m/s | -58.9°C | 5.4% | 93.7hPa | 2.7V | 00:00:00 | 01:11:35 | 00:00:00 | |
| IW2NTF | 2026-09-05 23:40:53 | 48.44294 | 10.08199 | 108° | 62km/h | 16999m | 4.7m/s | -58.7°C | 0% | 94.1hPa | 2.7V | 08:30:00 | 01:11:29 | 00:00:00 | |
| HARRO8 | 2026-09-05 23:40:52 | 48.44270 | 10.08284 | 115° | 60km/h | 17018m | 4.8m/s | -58.9°C | 0% | 93.9hPa | 2.6V | 00:00:00 | 00:00:00 | 00:00:00 | |
| DK7TD | 2026-09-05 23:40:52 | 48.44270 | 10.08284 | 116° | 60km/h | 17018m | 4.8m/s | -58.9°C | 1.5% | 93.9hPa | 2.6V | 18:12:15 | 01:11:33 | 00:00:00 | |
| DF7PN | 2026-09-05 23:40:50 | 48.44283 | 10.08242 | 112° | 60km/h | 17009m | 4.5m/s | -58.8°C | 1.8% | 94.0hPa | 2.6V | 00:00:00 | 00:00:00 | 00:00:00 | |
| DB0ND-19 | 2026-09-05 23:40:46 | 48.44303 | 10.08151 | 105° | 68km/h | 16989m | 4.3m/s | -58.6°C | 1.8% | 94.3hPa | 2.6V | 00:00:00 | 00:00:00 | 00:00:00 | |
| DK7TD | 2026-09-05 23:40:41 | 48.44324 | 10.08034 | 106° | 60km/h | 16965m | 4.3m/s | -58.6°C | 1.4% | 94.7hPa | 2.6V | 18:12:15 | 01:11:22 | 00:00:00 | |
| OE9MKV-15 | 2026-09-05 23:40:41 | 48.44324 | 10.08034 | 107° | 60km/h | 16965m | 4.2m/s | -58.6°C | 5.3% | 94.6hPa | 2.6V | 00:00:00 | 01:11:22 | 00:00:00 | |
| DO3MHA-12 | 2026-09-05 23:40:40 | 48.44329 | 10.08012 | 108° | 58km/h | 16961m | 4.9m/s | -58.6°C | 5.3% | 94.7hPa | 2.6V | 00:00:00 | 01:11:21 | 08:30:00 | |
| DJTTGO | 2026-09-05 23:40:39 | 48.44329 | 10.08012 | 108° | 58km/h | 16961m | 5.0m/s | 0°C | 0% | 0hPa | 2.7V | 00:00:00 | 00:00:00 | 00:00:00 | |
| DJ8HS-15 | 2026-09-05 23:40:38 | 48.44337 | 10.07973 | 111° | 60km/h | 16951m | 4.0m/s | -58.5°C | 5.3% | 94.8hPa | 2.7V | 00:00:00 | 01:11:19 | 00:00:00 | |
| IW2NTF | 2026-09-05 23:40:36 | 48.44360 | 10.07893 | 112° | 58km/h | 16931m | 5.9m/s | -58.5°C | 0% | 95.1hPa | 2.6V | 08:30:00 | 01:11:15 | 00:00:00 | |
| DK7TD | 2026-09-05 23:40:31 | 48.44377 | 10.07829 | 111° | 64km/h | 16916m | 4.8m/s | -58.6°C | 1.5% | 95.4hPa | 2.7V | 18:12:15 | 01:11:12 | 00:00:00 | |
| BIOWL1-15 | 2026-09-05 23:40:29 | 48.44388 | 10.07785 | 113° | 60km/h | 16907m | 5.2m/s | -58.6°C | 1.4% | 95.5hPa | 2.6V | 18:12:15 | 01:11:10 | 00:00:00 | |
| IW2NTF | 2026-09-05 23:40:27 | 48.44422 | 10.07660 | 110° | 58km/h | 16877m | 4.8m/s | -58.6°C | 0% | 96hPa | 2.6V | 08:30:00 | 01:11:04 | 00:00:00 | |
| DK7TD | 2026-09-05 23:40:21 | 48.44432 | 10.07617 | 109° | 62km/h | 16867m | 4.4m/s | -58.5°C | 1.4% | 96.2hPa | 2.7V | 18:12:15 | 01:11:02 | 00:00:00 | |
| DO3MHA-12 | 2026-09-05 23:40:20 | 48.44437 | 10.07595 | 109° | 64km/h | 16863m | 5.7m/s | -58.4°C | 5.3% | 96.1hPa | 2.6V | 00:00:00 | 01:11:01 | 00:00:00 | |
| DF7PN | 2026-09-05 23:40:19 | 48.44443 | 10.07572 | 109° | 62km/h | 16857m | 4.4m/s | -58.5°C | 1.8% | 96.3hPa | 2.6V | 00:00:00 | 00:00:00 | 00:00:00 | |
| DJ8HS-15 | 2026-09-05 23:40:18 | 48.44448 | 10.07549 | 110° | 62km/h | 16853m | 3.8m/s | -58.4°C | 5.2% | 96.3hPa | 2.6V | 00:00:00 | 01:10:59 | 00:00:00 | |
| DF1GD-15 | 2026-09-05 23:40:17 | 48.44448 | 10.07549 | 111° | 64km/h | 16853m | 3.8m/s | -58.5°C | 1.9% | 96.4hPa | 2.6V | 00:00:00 | 00:00:00 | 00:00:00 | |
| IW2NTF | 2026-09-05 23:40:16 | 48.44474 | 10.07428 | 106° | 62km/h | 16831m | 4.6m/s | -58.5°C | 0% | 96.7hPa | 2.6V | 08:30:00 | 01:10:54 | 00:00:00 | |
| DK7TD | 2026-09-05 23:40:10 | 48.44487 | 10.07363 | 109° | 58km/h | 16817m | 4m/s | -58.7°C | 1.5% | 96.9hPa | 2.6V | 18:12:15 | 01:10:51 | 00:00:00 | |
| DB0NH | 2026-09-05 23:40:10 | 48.44487 | 10.07363 | 110° | 60km/h | 16818m | 4.0m/s | -58.6°C | 5.3% | 96.9hPa | 2.6V | 00:00:00 | 01:10:51 | 00:00:00 | |
| AZAK | 2026-09-05 23:40:09 | 48.44493 | 10.07342 | 113° | 57km/h | 16813m | 4.3m/s | -58.8°C | 1.9% | 97.0hPa | 2.6V | 00:00:00 | 00:00:00 | 00:00:00 | |
| IW2NTF | 2026-09-05 23:40:06 | 48.44550 | 10.07179 | 119° | 66km/h | 16776m | 4.1m/s | -58.6°C | 0% | 97.6hPa | 2.6V | 08:30:00 | 01:10:42 | 00:00:00 | |
| DK7TD | 2026-09-05 23:40:00 | 48.44558 | 10.07157 | 119° | 66km/h | 16771m | 5.7m/s | -58.5°C | 1.5% | 97.7hPa | 2.6V | 18:12:15 | 01:10:41 | 00:00:00 | |
| DJ8HS-15 | 2026-09-05 23:39:58 | 48.44573 | 10.07114 | 118° | 60km/h | 16761m | 5.0m/s | -58.4°C | 5.2% | 97.7hPa | 2.7V | 00:00:00 | 01:10:39 | 00:00:00 | |
| IW2NTF | 2026-09-05 23:39:57 | 48.44625 | 10.06977 | 123° | 64km/h | 16729m | 5.4m/s | 0°C | 0% | 0hPa | 2.7V | 08:30:00 | 01:10:32 | 00:00:00 | |
| DK7TD | 2026-09-05 23:39:50 | 48.44634 | 10.06957 | 125° | 64km/h | 16723m | 4.6m/s | -58.3°C | 1.4% | 98.4hPa | 2.6V | 18:12:15 | 01:10:31 | 00:00:00 | |
| DF7PN | 2026-09-05 23:39:48 | 48.44652 | 10.06917 | 121° | 64km/h | 16713m | 5.0m/s | -58.4°C | 1.8% | 98.5hPa | 2.6V | 00:00:00 | 00:00:00 | 00:00:00 | |
| IW2NTF | 2026-09-05 23:39:47 | 48.44707 | 10.06786 | 124° | 57km/h | 16680m | 5.2m/s | 0°C | 0% | 0hPa | 2.6V | 08:30:00 | 01:10:22 | 00:00:00 | |
| DB0ND-19 | 2026-09-05 23:39:44 | 48.44684 | 10.06840 | 122° | 55km/h | 16694m | 5.1m/s | -58.5°C | 1.8% | 98.8hPa | 2.7V | 00:00:00 | 00:00:00 | 00:00:00 | |
| DK7TD | 2026-09-05 23:39:39 | 48.44724 | 10.06751 | 129° | 58km/h | 16670m | 3.8m/s | -58.4°C | 1.5% | 99.2hPa | 2.7V | 18:12:15 | 01:10:20 | 00:00:00 | |
| DJ8HS-15 | 2026-09-05 23:39:38 | 48.44733 | 10.06734 | 129° | 60km/h | 16666m | 5.3m/s | -58.4°C | 5.2% | 99.2hPa | 2.6V | 00:00:00 | 01:10:19 | 08:30:00 | |
| IW2NTF | 2026-09-05 23:39:36 | 48.44794 | 10.06609 | 127° | 60km/h | 16631m | 4.3m/s | 0°C | 0% | 0hPa | 2.6V | 08:30:00 | 01:10:12 | 00:00:00 | |
| DK7TD | 2026-09-05 23:39:28 | 48.44825 | 10.06558 | 136° | 60km/h | 16616m | 4.7m/s | -58.8°C | 1.7% | 100.1hPa | 2.7V | 18:12:15 | 01:10:09 | 00:00:00 | |
| AZAK | 2026-09-05 23:39:27 | 48.44836 | 10.06542 | 136° | 62km/h | 16611m | 5.3m/s | -58.8°C | 1.9% | 100.2hPa | 2.7V | 00:00:00 | 00:00:00 | 00:00:00 | |
| IW2NTF | 2026-09-05 23:39:26 | 48.44992 | 10.06271 | 127° | 60km/h | 16534m | 6m/s | 0°C | 0% | 0hPa | 2.7V | 08:30:00 | 01:09:52 | 00:00:00 | |
| DK7TD | 2026-09-05 23:39:21 | 48.44936 | 10.06372 | 132° | 58km/h | 16564m | 4.4m/s | -58.5°C | 1.6% | 100.9hPa | 2.7V | 18:12:15 | 01:09:58 | 00:00:00 | |
| IW2NTF | 2026-09-05 23:39:20 | 48.45011 | 10.06233 | 127° | 64km/h | 16525m | 4.6m/s | 0°C | 0% | 0hPa | 2.6V | 08:30:00 | 01:09:50 | 00:00:00 | |
| DK7TD | 2026-09-05 23:39:06 | 48.45042 | 10.06177 | 132° | 62km/h | 16511m | 4.1m/s | -58.5°C | 1.6% | 101.8hPa | 2.7V | 18:12:15 | 01:09:47 | 00:00:00 | |
| AZAK | 2026-09-05 23:39:05 | 48.45042 | 10.06177 | 133° | 62km/h | 16511m | 4.1m/s | -58.5°C | 2.0% | 101.8hPa | 2.7V | 00:00:00 | 00:00:00 | 00:00:00 | |
| DO3MHA-11 | 2026-09-05 23:39:04 | 48.45062 | 10.06142 | 132° | 62km/h | 16501m | 4.2m/s | -58.5°C | 5.5% | 101.9hPa | 2.7V | 00:00:00 | 01:09:45 | 00:00:00 | |
| DL6DJ-15 | 2026-09-05 23:39:03 | 48.45083 | 10.06110 | 135° | 58km/h | 16492m | 5.5m/s | -58.6°C | 2.0% | 102.0hPa | 2.7V | 00:00:00 | 00:00:00 | 00:00:00 | |
| IW2NTF | 2026-09-05 23:39:01 | 48.45116 | 10.06062 | 137° | 60km/h | 16477m | 4.5m/s | 0°C | 0% | 0hPa | 2.7V | 00:00:00 | 01:09:40 | 00:00:00 | |
| DL1ZP-14 | 2026-09-05 23:39:01 | 48.45105 | 10.06078 | 137° | 60km/h | 16482m | 5.7m/s | -58.5°C | 2.0% | 102.2hPa | 2.7V | 00:00:00 | 00:00:00 | 00:00:00 | |
| DO3MHA-12 | 2026-09-05 23:39:00 | 48.45105 | 10.06078 | 138° | 62km/h | 16482m | 5.6m/s | -58.5°C | 5.4% | 102.2hPa | 2.6V | 00:00:00 | 01:09:41 | 00:00:00 | |
| DO9HM | 2026-09-05 23:38:59 | 48.45105 | 10.06078 | 138° | 62km/h | 16482m | 5.7m/s | -58.5°C | 2.0% | 102.2hPa | 2.6V | 00:00:00 | 00:00:00 | 00:00:00 | |
| DM0DOS-11 | 2026-09-05 23:38:58 | 48.45152 | 10.06015 | 141° | 64km/h | 16463m | 3.7m/s | -58.4°C | 5.4% | 102.6hPa | 2.6V | 08:30:00 | 01:09:37 | 00:00:00 | |
| DK7TD | 2026-09-05 23:38:55 | 48.45165 | 10.06000 | 141° | 62km/h | 16458m | 5.3m/s | -58.4°C | 1.7% | 102.6hPa | 2.6V | 18:12:15 | 01:09:36 | 00:00:00 | |
| DO3MHA-11 | 2026-09-05 23:38:54 | 48.45176 | 10.05986 | 141° | 64km/h | 16453m | 4.8m/s | -58.4°C | 5.4% | 102.6hPa | 2.7V | 00:00:00 | 01:09:35 | 00:00:00 | |
| IW2NTF | 2026-09-05 23:38:51 | 48.45234 | 10.05907 | 130° | 62km/h | 16429m | 4.9m/s | 0°C | 0% | 0hPa | 2.7V | 00:00:00 | 01:09:30 | 00:00:00 | |
| DO3MHA-12 | 2026-09-05 23:38:50 | 48.45223 | 10.05924 | 135° | 68km/h | 16435m | 5.8m/s | -58.3°C | 5.4% | 102.9hPa | 2.7V | 00:00:00 | 01:09:31 | 00:00:00 | |
| OE5DRO-10 | 2026-09-05 23:38:49 | 48.45234 | 10.05907 | 131° | 69km/h | 16429m | 4.9m/s | -58.4°C | 5.4% | 103.0hPa | 2.7V | 00:00:00 | 00:00:00 | 00:00:00 | |
| DM0DOS-11 | 2026-09-05 23:38:48 | 48.45266 | 10.05849 | 130° | 69km/h | 16413m | 4.3m/s | -58.5°C | 5.5% | 103.3hPa | 2.6V | 08:30:00 | 01:09:27 | 00:00:00 | |
| DK7TD | 2026-09-05 23:38:44 | 48.45289 | 10.05808 | 130° | 68km/h | 16404m | 5.3m/s | -58.6°C | 1.8% | 103.5hPa | 2.6V | 18:12:15 | 01:09:25 | 00:00:00 | |
| DO3MHA-11 | 2026-09-05 23:38:44 | 48.45288 | 10.05808 | 131° | 68km/h | 16404m | 5.2m/s | -58.5°C | 5.4% | 103.5hPa | 2.7V | 00:00:00 | 01:09:25 | 00:00:00 | |
| PG1ADW-2 | 2026-09-05 23:38:43 | 48.45300 | 10.05788 | 132° | 71km/h | 16399m | 4.2m/s | -58.6°C | 5.4% | 103.5hPa | 2.7V | 00:00:00 | 01:09:24 | 00:00:00 | |
| DB0ND-19 | 2026-09-05 23:38:42 | 48.45311 | 10.05770 | 132° | 66km/h | 16395m | 5.5m/s | -58.6°C | 2.1% | 103.7hPa | 2.6V | 00:00:00 | 00:00:00 | 00:00:00 | |
| DB0NH | 2026-09-05 23:38:40 | 48.45335 | 10.05733 | 135° | 73km/h | 16385m | 4.3m/s | -58.6°C | 5.3% | 103.8hPa | 2.6V | 00:00:00 | 01:09:21 | 00:00:00 | |
| DF3TZ-5 | 2026-09-05 23:38:39 | 48.45358 | 10.05696 | 130° | 64km/h | 16375m | 4.5m/s | -58.8°C | 2.1% | 104.0hPa | 2.6V | 00:00:00 | 00:00:00 | 00:00:00 | |
| DM0DOS-11 | 2026-09-05 23:38:38 | 48.45410 | 10.05589 | 123° | 73km/h | 16349m | 4.8m/s | -59.1°C | 5.6% | 104.4hPa | 2.6V | 08:30:00 | 01:09:14 | 00:00:00 | |
| DK7TD | 2026-09-05 23:38:34 | 48.45400 | 10.05612 | 124° | 73km/h | 16355m | 5.3m/s | -59.1°C | 1.9% | 104.3hPa | 2.6V | 18:12:15 | 01:09:15 | 00:00:00 | |
| BIOWL1-15 | 2026-09-05 23:38:27 | 48.45478 | 10.05450 | 126° | 69km/h | 16322m | 4.2m/s | -59.4°C | 2.1% | 104.9hPa | 2.6V | 18:12:15 | 01:09:08 | 00:00:00 | |
| DM0DOS-11 | 2026-09-05 23:38:26 | 48.45544 | 10.05290 | 119° | 77km/h | 16289m | 5.8m/s | -59.4°C | 5.7% | 105.4hPa | 2.7V | 08:30:00 | 01:09:01 | 00:00:00 | |
| DK7TD | 2026-09-05 23:38:23 | 48.45517 | 10.05362 | 121° | 71km/h | 16304m | 5m/s | -59.4°C | 2.1% | 105.2hPa | 2.6V | 18:12:15 | 01:09:04 | 00:00:00 | |
| PG1ADW-2 | 2026-09-05 23:38:23 | 48.45517 | 10.05362 | 122° | 75km/h | 16304m | 5.0m/s | -59.3°C | 5.7% | 105.1hPa | 2.7V | 00:00:00 | 00:00:00 | 00:00:00 | |
| IW2NTF | 2026-09-05 23:38:21 | 48.45554 | 10.05264 | 120° | 80km/h | 16284m | 4.7m/s | 0°C | 0% | 0hPa | 2.7V | 00:00:00 | 01:09:00 | 00:00:00 | |
| DK7TD | 2026-09-05 23:38:13 | 48.45617 | 10.05111 | 123° | 75km/h | 16256m | 5.5m/s | -59.8°C | 2.2% | 106hPa | 2.7V | 18:12:15 | 01:08:54 | 00:00:00 | |
| DK7TD | 2026-09-05 23:38:02 | 48.45741 | 10.04856 | 124° | 82km/h | 16205m | 5.1m/s | -60.1°C | 2.3% | 106.8hPa | 2.7V | 18:12:15 | 01:08:43 | 00:00:00 | |
| IW2NTF | 2026-09-05 23:38:01 | 48.45770 | 10.04781 | 115° | 73km/h | 16192m | 4.9m/s | 0°C | 0% | 0hPa | 2.6V | 00:00:00 | 01:08:40 | 00:00:00 | |
| BIOWL1-15 | 2026-09-05 23:37:53 | 48.45822 | 10.04632 | 124° | 77km/h | 16164m | 5m/s | -60.5°C | 2.5% | 107.5hPa | 2.6V | 18:12:15 | 01:08:34 | 00:00:00 | |
| DK7TD | 2026-09-05 23:37:52 | 48.45833 | 10.04607 | 124° | 80km/h | 16160m | 4.9m/s | -60.6°C | 2.6% | 107.6hPa | 2.6V | 18:12:15 | 01:08:33 | 00:00:00 | |
| IW2NTF | 2026-09-05 23:37:52 | 48.45867 | 10.04531 | 125° | 80km/h | 16146m | 4.8m/s | 0°C | 0% | 0hPa | 2.6V | 00:00:00 | 01:08:30 | 00:00:00 | |
| HARRO8 | 2026-09-05 23:37:46 | 48.45902 | 10.04455 | 123° | 80km/h | 16132m | 4.4m/s | -60.9°C | 2.6% | 108.1hPa | 2.6V | 00:00:00 | 00:00:00 | 00:00:00 | |
| DM0DOS-11 | 2026-09-05 23:37:45 | 48.45943 | 10.04354 | 117° | 77km/h | 16112m | 5.1m/s | -60.9°C | 6.5% | 108.5hPa | 2.6V | 08:30:00 | 01:08:23 | 00:00:00 | |
| DF7PN | 2026-09-05 23:37:44 | 48.45923 | 10.04404 | 121° | 75km/h | 16121m | 4.5m/s | -60.9°C | 2.6% | 108.3hPa | 2.6V | 00:00:00 | 00:00:00 | 00:00:00 | |
| BIOWL1-15 | 2026-09-05 23:37:42 | 48.45943 | 10.04354 | 118° | 77km/h | 16112m | 5.1m/s | -60.9°C | 2.7% | 108.5hPa | 2.6V | 18:12:15 | 01:08:23 | 00:00:00 | |
| IW2NTF | 2026-09-05 23:37:41 | 48.45970 | 10.04279 | 120° | 73km/h | 16099m | 4.6m/s | 0°C | 0% | 0hPa | 2.7V | 00:00:00 | 01:08:20 | 00:00:00 | |
| DK7TD | 2026-09-05 23:37:41 | 48.45952 | 10.04328 | 118° | 75km/h | 16107m | 3.4m/s | -60.9°C | 2.7% | 108.6hPa | 2.6V | 18:12:15 | 01:08:22 | 00:00:00 | |
| DK7TD | 2026-09-05 23:37:30 | 48.46066 | 10.04060 | 121° | 77km/h | 16056m | 5m/s | -61.1°C | 2.7% | 109.4hPa | 2.6V | 18:12:15 | 01:08:11 | 00:00:00 | |
| DO3MHA-12 | 2026-09-05 23:37:30 | 48.46066 | 10.04060 | 122° | 75km/h | 16056m | 5.0m/s | -61.1°C | 6.6% | 109.3hPa | 2.7V | 00:00:00 | 01:08:11 | 00:00:00 | |
| DL6DJ-15 | 2026-09-05 23:37:29 | 48.46076 | 10.04035 | 120° | 75km/h | 16051m | 5.0m/s | -61.2°C | 2.7% | 109.5hPa | 2.7V | 00:00:00 | 00:00:00 | 00:00:00 | |
| NBG1-10 | 2026-09-05 23:37:28 | 48.46085 | 10.04010 | 121° | 75km/h | 16047m | 3.2m/s | -61.1°C | 6.6% | 109.5hPa | 2.7V | 00:00:00 | 01:08:09 | 08:30:00 | |
| DL1ZP-14 | 2026-09-05 23:37:27 | 48.46095 | 10.03986 | 120° | 75km/h | 16043m | 5.3m/s | -61.2°C | 2.8% | 109.7hPa | 2.6V | 00:00:00 | 00:00:00 | 00:00:00 | |
| IW2NTF | 2026-09-05 23:37:26 | 48.46133 | 10.03889 | 120° | 71km/h | 16024m | 3.8m/s | 0°C | 0% | 0hPa | 2.7V | 00:00:00 | 01:08:04 | 00:00:00 | |
| BIOWL1-15 | 2026-09-05 23:37:22 | 48.46194 | 10.03714 | 117° | 75km/h | 15993m | 5.1m/s | -61.4°C | 2.9% | 110.6hPa | 2.7V | 18:12:15 | 01:07:57 | 00:00:00 | |
| DK7TD | 2026-09-05 23:37:20 | 48.46161 | 10.03816 | 117° | 75km/h | 16011m | 3.7m/s | -61.3°C | 2.9% | 110.2hPa | 2.6V | 18:12:15 | 01:08:01 | 00:00:00 | |
| DO3MHA-12 | 2026-09-05 23:37:20 | 48.46161 | 10.03816 | 118° | 73km/h | 16011m | 3.6m/s | -61.3°C | 6.7% | 110.2hPa | 2.7V | 00:00:00 | 01:08:01 | 00:00:00 | |
| DJ8HS-15 | 2026-09-05 23:37:18 | 48.46177 | 10.03765 | 116° | 75km/h | 16002m | 4.5m/s | -61.4°C | 6.8% | 110.3hPa | 2.7V | 00:00:00 | 01:07:59 | 00:00:00 | |
| HARRO8 | 2026-09-05 23:37:15 | 48.46202 | 10.03689 | 117° | 75km/h | 15988m | 4.2m/s | -61.4°C | 2.8% | 110.7hPa | 2.7V | 00:00:00 | 00:00:00 | 00:00:00 | |
| DO3MHA-11 | 2026-09-05 23:37:14 | 48.46211 | 10.03664 | 118° | 75km/h | 15984m | 5.2m/s | -61.4°C | 6.7% | 110.7hPa | 2.7V | 00:00:00 | 01:07:55 | 00:00:00 | |
| DM0DOS-11 | 2026-09-05 23:37:13 | 48.46228 | 10.03615 | 118° | 73km/h | 15974m | 4.4m/s | -61.5°C | 6.8% | 110.9hPa | 2.7V | 08:30:00 | 01:07:53 | 00:00:00 | |
| DK7TD | 2026-09-05 23:37:09 | 48.46255 | 10.03540 | 119° | 77km/h | 15960m | 3.8m/s | -61.5°C | 3% | 111.2hPa | 2.6V | 18:12:15 | 01:07:50 | 00:00:00 | |
| BIOWL1-15 | 2026-09-05 23:37:06 | 48.46283 | 10.03465 | 119° | 75km/h | 15945m | 5.7m/s | -61.5°C | 3.1% | 111.4hPa | 2.7V | 18:12:15 | 01:07:47 | 00:00:00 | |
| DM0DOS-11 | 2026-09-05 23:37:05 | 48.46321 | 10.03363 | 118° | 75km/h | 15927m | 4.9m/s | -61.5°C | 6.9% | 111.7hPa | 2.6V | 08:30:00 | 01:07:43 | 00:00:00 | |
| DK7TD | 2026-09-05 23:36:58 | 48.46356 | 10.03262 | 119° | 75km/h | 15908m | 5.2m/s | -61.6°C | 3.2% | 112.1hPa | 2.6V | 18:12:15 | 01:07:39 | 00:00:00 | |
| BIOWL1-15 | 2026-09-05 23:36:55 | 48.46385 | 10.03189 | 122° | 75km/h | 15893m | 5.1m/s | -61.6°C | 3.2% | 112.3hPa | 2.7V | 18:12:15 | 01:07:36 | 00:00:00 | |
| NBG1-10 | 2026-09-05 23:36:55 | 48.46385 | 10.03189 | 123° | 77km/h | 15893m | 5.0m/s | -61.6°C | 7.0% | 112.3hPa | 2.7V | 00:00:00 | 01:07:36 | 00:00:00 | |
| DO3MHA-11 | 2026-09-05 23:36:54 | 48.46395 | 10.03165 | 124° | 75km/h | 15889m | 4.1m/s | -61.6°C | 7.0% | 112.3hPa | 2.7V | 00:00:00 | 01:07:35 | 08:30:00 | |
| DM0DOS-11 | 2026-09-05 23:36:53 | 48.46416 | 10.03118 | 123° | 73km/h | 15879m | 4.3m/s | -61.6°C | 7% | 112.6hPa | 2.6V | 08:30:00 | 01:07:33 | 00:00:00 | |
| DK7TD | 2026-09-05 23:36:47 | 48.46465 | 10.02999 | 121° | 73km/h | 15855m | 3.8m/s | -61.8°C | 3.4% | 113hPa | 2.6V | 18:12:15 | 01:07:28 | 00:00:00 | |
| DM0DOS-11 | 2026-09-05 23:36:45 | 48.46516 | 10.02878 | 125° | 75km/h | 15833m | 4.8m/s | -61.9°C | 7.3% | 113.4hPa | 2.7V | 08:30:00 | 01:07:23 | 00:00:00 | |
| BIOWL1-15 | 2026-09-05 23:36:45 | 48.46485 | 10.02951 | 121° | 77km/h | 15846m | 4.1m/s | -61.9°C | 3.5% | 113.2hPa | 2.6V | 18:12:15 | 01:07:26 | 00:00:00 | |
| DK7TD | 2026-09-05 23:36:37 | 48.46571 | 10.02763 | 124° | 77km/h | 15811m | 4.3m/s | -61.9°C | 3.6% | 113.8hPa | 2.7V | 18:12:15 | 01:07:18 | 00:00:00 | |
| OE5DRO-10 | 2026-09-05 23:36:36 | 48.46581 | 10.02739 | 123° | 78km/h | 15806m | 5.6m/s | -61.8°C | 7.4% | 113.9hPa | 2.6V | 00:00:00 | 00:00:00 | 00:00:00 | |
| DF3TZ-5 | 2026-09-05 23:36:35 | 48.46601 | 10.02690 | 119° | 75km/h | 15797m | 4.1m/s | -61.9°C | 3.3% | 114.1hPa | 2.6V | 00:00:00 | 00:00:00 | 00:00:00 | |
| DO3MHA-11 | 2026-09-05 23:36:34 | 48.46601 | 10.02690 | 120° | 78km/h | 15797m | 4.1m/s | -61.9°C | 7.3% | 114.1hPa | 2.6V | 00:00:00 | 01:07:15 | 00:00:00 | |
| DB0UT-7 | 2026-09-05 23:36:33 | 48.46610 | 10.02665 | 120° | 80km/h | 15792m | 5.7m/s | -61.9°C | 7.3% | 114.1hPa | 2.6V | 00:00:00 | 01:07:14 | 00:00:00 | |
| DO3MHA-12 | 2026-09-05 23:36:30 | 48.46640 | 10.02586 | 122° | 78km/h | 15777m | 5.1m/s | -61.9°C | 7.3% | 114.4hPa | 2.6V | 00:00:00 | 01:07:11 | 00:00:00 | |
| DO9HM | 2026-09-05 23:36:29 | 48.46640 | 10.02586 | 122° | 78km/h | 15777m | 5.1m/s | -61.9°C | 3.3% | 114.5hPa | 2.6V | 00:00:00 | 00:00:00 | 00:00:00 | |
| DL6DJ-15 | 2026-09-05 23:36:27 | 48.46674 | 10.02510 | 124° | 80km/h | 15764m | 3.8m/s | -62.0°C | 3.3% | 114.7hPa | 2.6V | 00:00:00 | 00:00:00 | 00:00:00 | |
| DK7TD | 2026-09-05 23:36:27 | 48.46674 | 10.02510 | 125° | 80km/h | 15764m | 3.8m/s | -62°C | 3.7% | 114.7hPa | 2.7V | 18:12:15 | 01:07:08 | 00:00:00 | |
| OE5DXL-15 | 2026-09-05 23:36:26 | 48.46685 | 10.02486 | 127° | 80km/h | 15760m | 4.8m/s | -62.0°C | 7.4% | 114.8hPa | 2.6V | 00:00:00 | 00:00:00 | 00:00:00 | |
| DM0DOS-11 | 2026-09-05 23:36:25 | 48.46732 | 10.02390 | 124° | 80km/h | 15741m | 4m/s | -62°C | 7.5% | 115.1hPa | 2.6V | 08:30:00 | 01:07:03 | 00:00:00 | |
| BIOWL1-15 | 2026-09-05 23:36:19 | 48.46785 | 10.02258 | 120° | 84km/h | 15718m | 4.1m/s | -61.9°C | 3.7% | 115.6hPa | 2.6V | 18:12:15 | 01:06:58 | 00:00:00 | |
| DK7TD | 2026-09-05 23:36:16 | 48.46796 | 10.02231 | 120° | 82km/h | 15713m | 5.6m/s | -61.9°C | 3.7% | 115.7hPa | 2.6V | 18:12:15 | 01:06:57 | 00:00:00 | |
| DO3MHA-11 | 2026-09-05 23:36:14 | 48.46817 | 10.02178 | 123° | 80km/h | 15705m | 3.3m/s | -61.8°C | 7.5% | 115.8hPa | 2.6V | 00:00:00 | 01:06:55 | 00:00:00 | |
| DM0DOS-11 | 2026-09-05 23:36:13 | 48.46839 | 10.02128 | 124° | 82km/h | 15696m | 4.8m/s | -61.9°C | 7.5% | 116hPa | 2.6V | 08:30:00 | 01:06:53 | 00:00:00 | |
| BIOWL1-15 | 2026-09-05 23:36:09 | 48.46875 | 10.02052 | 125° | 80km/h | 15682m | 5.4m/s | -61.9°C | 3.9% | 116.2hPa | 2.7V | 18:12:15 | 01:06:50 | 00:00:00 | |
| DO9HM | 2026-09-05 23:36:08 | 48.46875 | 10.02052 | 126° | 80km/h | 15683m | 5.4m/s | -61.9°C | 3.5% | 116.2hPa | 2.6V | 00:00:00 | 00:00:00 | 00:00:00 | |
| DB0ND-19 | 2026-09-05 23:36:07 | 48.46897 | 10.02003 | 124° | 77km/h | 15674m | 4.2m/s | -62.0°C | 3.4% | 116.4hPa | 2.6V | 00:00:00 | 00:00:00 | 00:00:00 | |
| DM0DOS-11 | 2026-09-05 23:36:05 | 48.46954 | 10.01878 | 123° | 78km/h | 15651m | 3.4m/s | -62°C | 7.6% | 116.8hPa | 2.6V | 08:30:00 | 01:06:43 | 00:00:00 | |
| DK7TD | 2026-09-05 23:36:05 | 48.46920 | 10.01954 | 126° | 80km/h | 15664m | 4.5m/s | -62°C | 4% | 116.6hPa | 2.6V | 18:12:15 | 01:06:46 | 00:00:00 | |
| BIOWL1-15 | 2026-09-05 23:36:03 | 48.46988 | 10.01802 | 123° | 80km/h | 15637m | 5.6m/s | -61.9°C | 4% | 117.1hPa | 2.7V | 18:12:15 | 01:06:40 | 00:00:00 | |
| DK7TD | 2026-09-05 23:35:55 | 48.47033 | 10.01697 | 123° | 84km/h | 15619m | 4.1m/s | -61.8°C | 3.8% | 117.4hPa | 2.6V | 18:12:15 | 01:06:36 | 00:00:00 | |
| DL1ZP-14 | 2026-09-05 23:35:55 | 48.47044 | 10.01670 | 121° | 82km/h | 15614m | 5.7m/s | -61.9°C | 3.4% | 117.5hPa | 2.6V | 00:00:00 | 00:00:00 | 00:00:00 | |
| DO3MHA-11 | 2026-09-05 23:35:54 | 48.47044 | 10.01670 | 122° | 82km/h | 15614m | 5.6m/s | -61.8°C | 7.5% | 117.4hPa | 2.6V | 00:00:00 | 01:06:35 | 00:00:00 | |
| DM0DOS-11 | 2026-09-05 23:35:53 | 48.47066 | 10.01616 | 121° | 84km/h | 15604m | 4.7m/s | -62°C | 7.5% | 117.7hPa | 2.7V | 08:30:00 | 01:06:33 | 00:00:00 | |
| BIOWL1-15 | 2026-09-05 23:35:48 | 48.47112 | 10.01511 | 123° | 80km/h | 15585m | 3.8m/s | -62.1°C | 3.9% | 118.1hPa | 2.6V | 18:12:15 | 01:06:29 | 00:00:00 | |
| DO9HM | 2026-09-05 23:35:47 | 48.47112 | 10.01510 | 124° | 80km/h | 15585m | 3.8m/s | -62.1°C | 3.5% | 118.1hPa | 2.7V | 00:00:00 | 00:00:00 | 00:00:00 | |
| DM0DOS-11 | 2026-09-05 23:35:45 | 48.47178 | 10.01350 | 118° | 86km/h | 15559m | 5m/s | -62.2°C | 7.7% | 118.6hPa | 2.7V | 08:30:00 | 01:06:23 | 00:00:00 | |
| DK7TD | 2026-09-05 23:35:44 | 48.47157 | 10.01406 | 121° | 82km/h | 15568m | 4.9m/s | -62.1°C | 3.9% | 118.4hPa | 2.6V | 18:12:15 | 01:06:25 | 00:00:00 | |
| DO3MHA-11 | 2026-09-05 23:35:44 | 48.47157 | 10.01406 | 121° | 88km/h | 15568m | 4.8m/s | -62.1°C | 7.6% | 118.3hPa | 2.6V | 00:00:00 | 01:06:25 | 00:00:00 | |
| PG1ADW-2 | 2026-09-05 23:35:43 | 48.47167 | 10.01379 | 119° | 88km/h | 15564m | 3.9m/s | -62.1°C | 7.7% | 118.4hPa | 2.6V | 00:00:00 | 00:00:00 | 00:00:00 | |
| HARRO8 | 2026-09-05 23:35:41 | 48.47188 | 10.01322 | 119° | 88km/h | 15554m | 4.4m/s | -62.2°C | 3.6% | 118.7hPa | 2.6V | 00:00:00 | 00:00:00 | 00:00:00 | |
| DF7PN | 2026-09-05 23:35:40 | 48.47210 | 10.01262 | 118° | 89km/h | 15547m | 4.2m/s | -62.3°C | 3.6% | 118.8hPa | 2.6V | 00:00:00 | 00:00:00 | 00:00:00 | |
| IW2NTF | 2026-09-05 23:35:39 | 48.47272 | 10.01082 | 116° | 86km/h | 15520m | 5.3m/s | 0°C | 0% | 0hPa | 2.6V | 00:00:00 | 01:06:14 | 00:00:00 | |
| BIOWL1-15 | 2026-09-05 23:35:36 | 48.47291 | 10.01024 | 115° | 86km/h | 15512m | 3.9m/s | -62.3°C | 4.3% | 119.5hPa | 2.7V | 18:12:15 | 01:06:12 | 00:00:00 | |
| DM0DOS-11 | 2026-09-05 23:35:33 | 48.47282 | 10.01053 | 115° | 84km/h | 15515m | 3.6m/s | -62.2°C | 8% | 119.4hPa | 2.6V | 08:30:00 | 01:06:13 | 00:00:00 | |
| DK7TD | 2026-09-05 23:35:33 | 48.47273 | 10.01082 | 116° | 86km/h | 15520m | 5.3m/s | -62.2°C | 4.2% | 119.3hPa | 2.6V | 18:12:15 | 01:06:14 | 00:00:00 | |
| DF3TZ-5 | 2026-09-05 23:35:33 | 48.47282 | 10.01053 | 115° | 84km/h | 15516m | 3.6m/s | -62.3°C | 3.7% | 119.4hPa | 2.6V | 00:00:00 | 00:00:00 | 00:00:00 | |
| DO3MHA-11 | 2026-09-05 23:35:32 | 48.47282 | 10.01053 | 116° | 86km/h | 15516m | 3.6m/s | -62.2°C | 8.0% | 119.4hPa | 2.6V | 00:00:00 | 01:06:13 | 00:00:00 | |
| DO3MHA-12 | 2026-09-05 23:35:30 | 48.47300 | 10.00994 | 116° | 88km/h | 15507m | 5.0m/s | -62.2°C | 8.0% | 119.5hPa | 2.6V | 00:00:00 | 01:06:11 | 00:00:00 | |
| DF1GD-15 | 2026-09-05 23:35:28 | 48.47310 | 10.00964 | 117° | 89km/h | 15503m | 3.4m/s | -62.3°C | 3.7% | 119.7hPa | 2.6V | 00:00:00 | 00:00:00 | 00:00:00 | |
| DO9HM | 2026-09-05 23:35:27 | 48.47320 | 10.00934 | 117° | 89km/h | 15499m | 3.8m/s | -62.3°C | 3.7% | 119.7hPa | 2.6V | 00:00:00 | 00:00:00 | 00:00:00 | |
| DM0DOS-11 | 2026-09-05 23:35:27 | 48.47379 | 10.00758 | 116° | 88km/h | 15473m | 4.3m/s | -62.3°C | 8% | 120.2hPa | 2.6V | 08:30:00 | 01:06:03 | 00:00:00 | |
| OE5DXL-15 | 2026-09-05 23:35:26 | 48.47339 | 10.00874 | 117° | 84km/h | 15490m | 4.2m/s | -62.2°C | 8.0% | 119.8hPa | 2.6V | 00:00:00 | 00:00:00 | 00:00:00 | |
| OE9MKV-15 | 2026-09-05 23:35:25 | 48.47349 | 10.00845 | 117° | 84km/h | 15486m | 3.7m/s | -62.2°C | 8.0% | 119.9hPa | 2.7V | 00:00:00 | 01:06:06 | 08:30:00 | |
| PG1ADW-2 | 2026-09-05 23:35:23 | 48.47369 | 10.00787 | 118° | 86km/h | 15477m | 4.1m/s | -62.2°C | 7.9% | 120.1hPa | 2.6V | 00:00:00 | 00:00:00 | 00:00:00 | |
| DO3MHA-11 | 2026-09-05 23:35:22 | 48.47379 | 10.00758 | 117° | 86km/h | 15473m | 4.3m/s | -62.2°C | 8.0% | 120.2hPa | 2.6V | 00:00:00 | 01:06:03 | 08:30:00 | |
| BIOWL1-15 | 2026-09-05 23:35:22 | 48.47379 | 10.00758 | 117° | 88km/h | 15473m | 4.3m/s | -62.3°C | 4.5% | 120.2hPa | 2.6V | 18:12:15 | 01:06:03 | 00:00:00 | |
| DK5PH-5 | 2026-09-05 23:35:20 | 48.47397 | 10.00698 | 114° | 82km/h | 15464m | 4.0m/s | -62.2°C | 8.0% | 120.3hPa | 2.6V | 00:00:00 | 01:06:01 | 00:00:00 | |
| DJ8HS-15 | 2026-09-05 23:35:18 | 48.47414 | 10.00637 | 112° | 84km/h | 15454m | 4.1m/s | -62.3°C | 8.2% | 120.5hPa | 2.6V | 00:00:00 | 01:05:59 | 00:00:00 | |
| NBG1-10 | 2026-09-05 23:35:16 | 48.47430 | 10.00575 | 110° | 82km/h | 15445m | 4.6m/s | -62.3°C | 8.2% | 120.7hPa | 2.6V | 00:00:00 | 01:05:57 | 00:00:00 | |
| DM0DOS-11 | 2026-09-05 23:35:13 | 48.47461 | 10.00452 | 111° | 88km/h | 15427m | 4.2m/s | -62.4°C | 8.2% | 121.1hPa | 2.6V | 08:30:00 | 01:05:53 | 00:00:00 | |
| BIOWL1-15 | 2026-09-05 23:35:11 | 48.47469 | 10.00422 | 113° | 84km/h | 15423m | 5.1m/s | -62.4°C | 4.8% | 121.2hPa | 2.6V | 18:12:15 | 01:05:52 | 00:00:00 | |
| DO3MHA-12 | 2026-09-05 23:35:10 | 48.47477 | 10.00393 | 115° | 82km/h | 15418m | 4.0m/s | -62.4°C | 8.3% | 121.3hPa | 2.6V | 00:00:00 | 01:05:51 | 00:00:00 | |
| DF1GD-15 | 2026-09-05 23:35:08 | 48.47486 | 10.00364 | 117° | 84km/h | 15414m | 4.8m/s | -62.6°C | 4.0% | 121.4hPa | 2.7V | 00:00:00 | 00:00:00 | 00:00:00 | |
| DM0DOS-11 | 2026-09-05 23:35:07 | 48.47546 | 10.00164 | 110° | 80km/h | 15383m | 4.5m/s | -62.7°C | 8.6% | 122hPa | 2.7V | 08:30:00 | 01:05:43 | 00:00:00 | |
| DK7TD | 2026-09-05 23:35:01 | 48.47553 | 10.00136 | 111° | 78km/h | 15379m | 4.7m/s | -62.7°C | 5% | 122.1hPa | 2.6V | 18:12:15 | 01:05:42 | 00:00:00 | |
| BIOWL1-15 | 2026-09-05 23:35:00 | 48.47561 | 10.00107 | 112° | 80km/h | 15374m | 3.9m/s | -62.6°C | 5.1% | 122.1hPa | 2.6V | 18:12:15 | 01:05:41 | 00:00:00 | |
| DL6DJ-15 | 2026-09-05 23:34:54 | 48.47607 | 9.99936 | 114° | 77km/h | 15349m | 3.9m/s | -62.5°C | 4.3% | 122.6hPa | 2.7V | 00:00:00 | 00:00:00 | 00:00:00 | |
| DM0DOS-11 | 2026-09-05 23:34:53 | 48.47624 | 9.99882 | 115° | 80km/h | 15340m | 3.8m/s | -62.5°C | 8.8% | 122.8hPa | 2.7V | 08:30:00 | 01:05:33 | 00:00:00 | |
| BIOWL1-15 | 2026-09-05 23:34:51 | 48.47651 | 9.99802 | 119° | 78km/h | 15327m | 4.5m/s | -62.5°C | 5.3% | 123.1hPa | 2.6V | 18:12:15 | 01:05:30 | 00:00:00 | |
| DK5PH-5 | 2026-09-05 23:34:50 | 48.47642 | 9.99828 | 119° | 84km/h | 15331m | 4.5m/s | -62.4°C | 8.7% | 123.0hPa | 2.6V | 00:00:00 | 01:05:31 | 00:00:00 | |
| DK7TD | 2026-09-05 23:34:50 | 48.47642 | 9.99828 | 118° | 78km/h | 15331m | 4.6m/s | -62.5°C | 5.2% | 123hPa | 2.6V | 18:12:15 | 01:05:31 | 00:00:00 | |
| DF1GD-15 | 2026-09-05 23:34:48 | 48.47651 | 9.99802 | 120° | 78km/h | 15327m | 4.5m/s | -62.5°C | 4.4% | 123.1hPa | 2.6V | 00:00:00 | 00:00:00 | 00:00:00 | |
| DO9HM | 2026-09-05 23:34:46 | 48.47670 | 9.99748 | 118° | 80km/h | 15317m | 3.4m/s | -62.5°C | 4.5% | 123.3hPa | 2.6V | 00:00:00 | 00:00:00 | 00:00:00 | |
| DM0DOS-11 | 2026-09-05 23:34:43 | 48.47713 | 9.99611 | 113° | 80km/h | 15294m | 4m/s | -62.5°C | 8.9% | 123.7hPa | 2.6V | 08:30:00 | 01:05:23 | 00:00:00 | |
| BIOWL1-15 | 2026-09-05 23:34:40 | 48.47748 | 9.99500 | 117° | 84km/h | 15277m | 4.9m/s | -62.5°C | 5.6% | 124.1hPa | 2.6V | 18:12:15 | 01:05:19 | 00:00:00 | |
| DK7TD | 2026-09-05 23:34:39 | 48.47739 | 9.99528 | 116° | 82km/h | 15281m | 3.6m/s | -62.5°C | 5.6% | 124hPa | 2.6V | 18:12:15 | 01:05:20 | 00:00:00 | |
| BIOWL1-15 | 2026-09-05 23:34:30 | 48.47851 | 9.99219 | 122° | 84km/h | 15232m | 4m/s | -62.6°C | 5.7% | 125hPa | 2.6V | 18:12:15 | 01:05:09 | 00:00:00 | |
| DK7TD | 2026-09-05 23:34:29 | 48.47840 | 9.99246 | 124° | 86km/h | 15236m | 4.6m/s | -62.6°C | 5.7% | 124.9hPa | 2.7V | 18:12:15 | 01:05:10 | 00:00:00 | |
| DF1GD-15 | 2026-09-05 23:34:27 | 48.47851 | 9.99219 | 123° | 84km/h | 15232m | 4.0m/s | -62.6°C | 4.7% | 125.0hPa | 2.6V | 00:00:00 | 00:00:00 | 00:00:00 | |
| OE5DXL-15 | 2026-09-05 23:34:26 | 48.47873 | 9.99163 | 120° | 95km/h | 15224m | 4.5m/s | -62.6°C | 9.1% | 125.1hPa | 2.6V | 00:00:00 | 00:00:00 | 00:00:00 | |
| OE9MKV-15 | 2026-09-05 23:34:25 | 48.47884 | 9.99134 | 120° | 95km/h | 15219m | 5.0m/s | -62.6°C | 9.2% | 125.2hPa | 2.6V | 00:00:00 | 01:05:06 | 00:00:00 | |
| DM0DOS-11 | 2026-09-05 23:34:23 | 48.47916 | 9.99041 | 115° | 93km/h | 15204m | 3.8m/s | -62.7°C | 9.5% | 125.6hPa | 2.6V | 08:30:00 | 01:05:03 | 00:00:00 | |
| DK7TD | 2026-09-05 23:34:18 | 48.47961 | 9.98911 | 117° | 97km/h | 15187m | 5.4m/s | -62.7°C | 6% | 125.9hPa | 2.7V | 18:12:15 | 01:04:59 | 00:00:00 | |
| BIOWL1-15 | 2026-09-05 23:34:18 | 48.47983 | 9.98846 | 119° | 95km/h | 15177m | 5.1m/s | -62.8°C | 6.1% | 126.1hPa | 2.6V | 18:12:15 | 01:04:57 | 00:00:00 | |
| DK7TD | 2026-09-05 23:34:07 | 48.48088 | 9.98554 | 116° | 104km/h | 15137m | 5m/s | -62.6°C | 6.3% | 126.9hPa | 2.7V | 18:12:15 | 01:04:48 | 00:00:00 | |
| BIOWL1-15 | 2026-09-05 23:34:06 | 48.48110 | 9.98485 | 116° | 99km/h | 15128m | 4.3m/s | -62.6°C | 6.3% | 127.1hPa | 2.6V | 18:12:15 | 01:04:46 | 00:00:00 | |
| DK7TD | 2026-09-05 23:33:56 | 48.48211 | 9.98209 | 119° | 97km/h | 15087m | 5.1m/s | -62.3°C | 6.8% | 128hPa | 2.7V | 18:12:15 | 01:04:37 | 00:00:00 | |
| BIOWL1-15 | 2026-09-05 23:33:46 | 48.48312 | 9.97892 | 115° | 89km/h | 15044m | 5.1m/s | -62.1°C | 7.5% | 128.9hPa | 2.7V | 18:12:15 | 01:04:27 | 00:00:00 | |
| DK7TD | 2026-09-05 23:33:36 | 48.48424 | 9.97587 | 114° | 82km/h | 14998m | 4.2m/s | -62.3°C | 8.2% | 129.8hPa | 2.7V | 18:12:15 | 01:04:17 | 00:00:00 | |
| BIOWL1-15 | 2026-09-05 23:33:35 | 48.48455 | 9.97468 | 112° | 86km/h | 14981m | 4.3m/s | -62.3°C | 8.7% | 130.2hPa | 2.6V | 18:12:15 | 01:04:13 | 00:00:00 | |
| DM0DOS-11 | 2026-09-05 23:33:33 | 48.48455 | 9.97468 | 111° | 86km/h | 14981m | 4.3m/s | -62.3°C | 11.2% | 130.2hPa | 2.6V | 08:30:00 | 01:04:13 | 00:00:00 | |
| DB0UT-7 | 2026-09-05 23:33:33 | 48.48447 | 9.97498 | 111° | 80km/h | 14985m | 4.0m/s | -62.2°C | 11.2% | 130.0hPa | 2.6V | 00:00:00 | 01:04:14 | 00:00:00 | |
| DO3MHA-11 | 2026-09-05 23:33:32 | 48.48455 | 9.97468 | 112° | 86km/h | 14981m | 4.3m/s | -62.2°C | 11.2% | 130.1hPa | 2.6V | 00:00:00 | 01:04:13 | 00:00:00 | |
| DO3MHA-12 | 2026-09-05 23:33:30 | 48.48472 | 9.97409 | 116° | 84km/h | 14971m | 4.3m/s | -62.3°C | 11.3% | 130.4hPa | 2.6V | 00:00:00 | 01:04:11 | 00:00:00 | |
| DF3TZ-5 | 2026-09-05 23:33:28 | 48.48492 | 9.97350 | 118° | 89km/h | 14961m | 4.3m/s | -62.4°C | 6.8% | 130.7hPa | 2.6V | 00:00:00 | 00:00:00 | 00:00:00 | |
| DM0DOS-11 | 2026-09-05 23:33:27 | 48.48555 | 9.97180 | 114° | 80km/h | 14936m | 4.7m/s | -62.4°C | 12.3% | 131.2hPa | 2.6V | 08:30:00 | 01:04:03 | 00:00:00 | |
| DK7TD | 2026-09-05 23:33:27 | 48.48514 | 9.97291 | 121° | 89km/h | 14953m | 5.1m/s | -62.4°C | 9.3% | 130.8hPa | 2.6V | 18:12:15 | 01:04:07 | 00:00:00 | |
| BIOWL1-15 | 2026-09-05 23:33:23 | 48.48546 | 9.97207 | 117° | 82km/h | 14940m | 4.9m/s | -62.4°C | 9.8% | 131.1hPa | 2.6V | 18:12:15 | 01:04:04 | 00:00:00 | |
| DK7TD | 2026-09-05 23:33:15 | 48.48603 | 9.96985 | 112° | 78km/h | 14904m | 5.2m/s | -62.5°C | 11.4% | 131.8hPa | 2.6V | 18:12:15 | 01:03:56 | 00:00:00 | |
| DM0DOS-11 | 2026-09-05 23:33:13 | 48.48629 | 9.96903 | 118° | 82km/h | 14890m | 4.9m/s | -62.5°C | 13.9% | 132.2hPa | 2.6V | 08:30:00 | 01:03:53 | 00:00:00 | |
| BIOWL1-15 | 2026-09-05 23:33:12 | 48.48629 | 9.96903 | 118° | 82km/h | 14890m | 4.9m/s | -62.5°C | 11.9% | 132.2hPa | 2.6V | 18:12:15 | 01:03:53 | 00:00:00 | |
| DO3MHA-11 | 2026-09-05 23:33:12 | 48.48629 | 9.96903 | 119° | 78km/h | 14891m | 4.8m/s | -62.5°C | 13.9% | 132.1hPa | 2.6V | 00:00:00 | 01:03:53 | 00:00:00 | |
| DO3MHA-12 | 2026-09-05 23:33:10 | 48.48649 | 9.96849 | 119° | 78km/h | 14882m | 3.9m/s | -62.5°C | 14.3% | 132.3hPa | 2.6V | 00:00:00 | 01:03:51 | 08:30:00 | |
| DM0DOS-11 | 2026-09-05 23:33:07 | 48.48723 | 9.96642 | 116° | 80km/h | 14844m | 4.9m/s | -62.7°C | 15.8% | 133.1hPa | 2.7V | 08:30:00 | 01:03:43 | 00:00:00 | |
| DK7TD | 2026-09-05 23:33:04 | 48.48704 | 9.96695 | 118° | 77km/h | 14853m | 4.6m/s | -62.7°C | 14% | 133hPa | 2.6V | 18:12:15 | 01:03:45 | 00:00:00 | |
| BIOWL1-15 | 2026-09-05 23:33:01 | 48.48732 | 9.96615 | 117° | 82km/h | 14839m | 4.1m/s | -62.8°C | 14.9% | 133.2hPa | 2.6V | 18:12:15 | 01:03:42 | 00:00:00 | |
| DB0ND-19 | 2026-09-05 23:33:01 | 48.48732 | 9.96615 | 117° | 82km/h | 14839m | 4.1m/s | -62.8°C | 10.6% | 133.2hPa | 2.7V | 00:00:00 | 00:00:00 | 00:00:00 | |
| DF3TZ-5 | 2026-09-05 23:32:57 | 48.48774 | 9.96505 | 121° | 84km/h | 14820m | 4.7m/s | -63.1°C | 11.6% | 133.7hPa | 2.7V | 00:00:00 | 00:00:00 | 00:00:00 | |
| OE5DXL-15 | 2026-09-05 23:32:56 | 48.48786 | 9.96477 | 122° | 80km/h | 14816m | 4.0m/s | -63.1°C | 17.6% | 133.7hPa | 2.7V | 00:00:00 | 00:00:00 | 00:00:00 | |
| OE9MKV-15 | 2026-09-05 23:32:55 | 48.48797 | 9.96451 | 123° | 80km/h | 14811m | 5.5m/s | -63.1°C | 17.8% | 133.8hPa | 2.7V | 00:00:00 | 01:03:36 | 00:00:00 | |
| DM0DOS-11 | 2026-09-05 23:32:54 | 48.48827 | 9.96374 | 119° | 78km/h | 14797m | 4.5m/s | -63.2°C | 18.4% | 134.2hPa | 2.7V | 08:30:00 | 01:03:33 | 00:00:00 | |
| DK7TD | 2026-09-05 23:32:54 | 48.48807 | 9.96425 | 121° | 78km/h | 14806m | 3.8m/s | -63.2°C | 17.1% | 133.9hPa | 2.6V | 18:12:15 | 01:03:35 | 00:00:00 | |
| DK7TD | 2026-09-05 23:32:44 | 48.48903 | 9.96160 | 120° | 80km/h | 14760m | 4.7m/s | -63.4°C | 20.3% | 135hPa | 2.6V | 18:12:15 | 01:03:25 | 00:00:00 | |
| BIOWL1-15 | 2026-09-05 23:32:37 | 48.48979 | 9.95985 | 124° | 77km/h | 14729m | 4.9m/s | -63.8°C | 22.7% | 135.6hPa | 2.7V | 18:12:15 | 01:03:18 | 00:00:00 | |
| HARRO8 | 2026-09-05 23:32:35 | 48.49001 | 9.95935 | 123° | 77km/h | 14720m | 4.1m/s | -64.0°C | 17.0% | 135.8hPa | 2.7V | 00:00:00 | 00:00:00 | 00:00:00 | |
| DM0DOS-11 | 2026-09-05 23:32:34 | 48.49035 | 9.95862 | 126° | 78km/h | 14706m | 5.6m/s | -64.2°C | 24.6% | 136.2hPa | 2.7V | 08:30:00 | 01:03:13 | 00:00:00 | |
| DK7TD | 2026-09-05 23:32:34 | 48.49012 | 9.95910 | 124° | 77km/h | 14715m | 4.8m/s | -64.1°C | 23.7% | 135.9hPa | 2.6V | 18:12:15 | 01:03:15 | 00:00:00 | |
| DF7PN | 2026-09-05 23:32:34 | 48.49023 | 9.95886 | 125° | 77km/h | 14711m | 3.9m/s | -64.1°C | 17.6% | 136.0hPa | 2.6V | 00:00:00 | 00:00:00 | 00:00:00 | |
| DB0UT-7 | 2026-09-05 23:32:33 | 48.49023 | 9.95886 | 126° | 89km/h | 14711m | 3.8m/s | -64.1°C | 24.5% | 136.0hPa | 2.6V | 00:00:00 | 01:03:14 | 08:30:00 | |
| DO3MHA-11 | 2026-09-05 23:32:32 | 48.49035 | 9.95862 | 127° | 84km/h | 14707m | 5.5m/s | -64.1°C | 24.6% | 136.1hPa | 2.7V | 00:00:00 | 01:03:13 | 00:00:00 | |
| NBG1-10 | 2026-09-05 23:32:31 | 48.49047 | 9.95838 | 129° | 93km/h | 14701m | 4.3m/s | -64.2°C | 25.0% | 136.2hPa | 2.7V | 00:00:00 | 01:03:12 | 08:30:00 | |
| DO3MHA-12 | 2026-09-05 23:32:30 | 48.49060 | 9.95814 | 130° | 86km/h | 14697m | 5.0m/s | -64.2°C | 25.3% | 136.3hPa | 2.7V | 00:00:00 | 01:03:11 | 00:00:00 | |
| OE5DRO-10 | 2026-09-05 23:32:29 | 48.49073 | 9.95790 | 130° | 89km/h | 14691m | 5.5m/s | -64.3°C | 25.7% | 136.4hPa | 2.7V | 00:00:00 | 00:00:00 | 00:00:00 | |
| DM0DOS-11 | 2026-09-05 23:32:27 | 48.49170 | 9.95611 | 128° | 88km/h | 14659m | 3m/s | -64.5°C | 26.6% | 137.2hPa | 2.7V | 08:30:00 | 01:03:03 | 00:00:00 | |
| BIOWL1-15 | 2026-09-05 23:32:26 | 48.49114 | 9.95715 | 130° | 88km/h | 14677m | 5.3m/s | -64.3°C | 26.1% | 136.8hPa | 2.7V | 18:12:15 | 01:03:07 | 00:00:00 | |
| DK7TD | 2026-09-05 23:32:23 | 48.49156 | 9.95637 | 129° | 88km/h | 14662m | 4.3m/s | -64.4°C | 27.1% | 137.1hPa | 2.6V | 18:12:15 | 01:03:04 | 00:00:00 | |
| PG1ADW-2 | 2026-09-05 23:32:23 | 48.49156 | 9.95637 | 129° | 93km/h | 14662m | 4.3m/s | -64.4°C | 26.7% | 137.1hPa | 2.7V | 00:00:00 | 00:00:00 | 00:00:00 | |
| DO3MHA-11 | 2026-09-05 23:32:22 | 48.49169 | 9.95611 | 129° | 91km/h | 14659m | 3.0m/s | -64.5°C | 26.6% | 137.1hPa | 2.7V | 00:00:00 | 01:03:03 | 08:30:00 | |
| DO3MHA-12 | 2026-09-05 23:32:20 | 48.49198 | 9.95559 | 131° | 93km/h | 14649m | 4.7m/s | -64.6°C | 26.7% | 137.4hPa | 2.8V | 00:00:00 | 01:03:01 | 00:00:00 | |
| DL6DJ-15 | 2026-09-05 23:32:19 | 48.49228 | 9.95507 | 130° | 89km/h | 14640m | 5.5m/s | -64.7°C | 19.8% | 137.6hPa | 2.8V | 00:00:00 | 00:00:00 | 00:00:00 | |
| DJ8HS-15 | 2026-09-05 23:32:18 | 48.49228 | 9.95507 | 131° | 97km/h | 14640m | 5.4m/s | -64.6°C | 26.9% | 137.6hPa | 2.8V | 00:00:00 | 01:02:59 | 00:00:00 | |
| DL1ZP-14 | 2026-09-05 23:32:17 | 48.49257 | 9.95454 | 129° | 91km/h | 14629m | 5.6m/s | -64.8°C | 20.4% | 137.9hPa | 2.8V | 00:00:00 | 00:00:00 | 00:00:00 | |
| OE3JTB-15 | 2026-09-05 23:32:15 | 48.49272 | 9.95427 | 129° | 102km/h | 14625m | 4.6m/s | -64.8°C | 28.1% | 137.9hPa | 2.7V | 00:00:00 | 01:02:56 | 00:00:00 | |
| BIOWL1-15 | 2026-09-05 23:32:15 | 48.49272 | 9.95427 | 129° | 95km/h | 14625m | 4.6m/s | -64.8°C | 29% | 138hPa | 2.7V | 18:12:15 | 01:02:56 | 00:00:00 | |
| DM0DOS-11 | 2026-09-05 23:32:14 | 48.49315 | 9.95341 | 125° | 93km/h | 14610m | 3.9m/s | -65°C | 29.3% | 138.3hPa | 2.7V | 08:30:00 | 01:02:53 | 00:00:00 | |
| DK7TD | 2026-09-05 23:32:12 | 48.49315 | 9.95341 | 126° | 93km/h | 14610m | 3.9m/s | -65°C | 29.9% | 138.3hPa | 2.7V | 18:12:15 | 01:02:53 | 00:00:00 | |
| DO3MHA-11 | 2026-09-05 23:32:12 | 48.49315 | 9.95340 | 126° | 97km/h | 14611m | 3.9m/s | -64.9°C | 29.3% | 138.3hPa | 2.7V | 00:00:00 | 01:02:53 | 00:00:00 | |
| DB0NH | 2026-09-05 23:32:10 | 48.49343 | 9.95282 | 127° | 108km/h | 14602m | 4.7m/s | -65.0°C | 29.4% | 138.4hPa | 2.7V | 00:00:00 | 01:02:51 | 08:30:00 | |
| DM0DOS-11 | 2026-09-05 23:32:07 | 48.49459 | 9.95046 | 125° | 99km/h | 14564m | 4m/s | -66.9°C | 34.1% | 139.3hPa | 2.6V | 08:30:00 | 01:02:43 | 00:00:00 | |
| BIOWL1-15 | 2026-09-05 23:32:04 | 48.49430 | 9.95106 | 127° | 99km/h | 14573m | 4.4m/s | -66.7°C | 31.7% | 139.1hPa | 2.7V | 18:12:15 | 01:02:45 | 00:00:00 | |
| DK7TD | 2026-09-05 23:32:01 | 48.49474 | 9.95015 | 124° | 100km/h | 14560m | 4.1m/s | -67°C | 32.2% | 139.4hPa | 2.6V | 18:12:15 | 01:02:42 | 00:00:00 | |
| DB0ND-19 | 2026-09-05 23:31:59 | 48.49517 | 9.94916 | 122° | 106km/h | 14546m | 5.2m/s | -67.2°C | 26.7% | 139.7hPa | 2.7V | 00:00:00 | 00:00:00 | 00:00:00 | |
| DJ8HS-15 | 2026-09-05 23:31:58 | 48.49517 | 9.94916 | 123° | 113km/h | 14546m | 5.1m/s | -67.1°C | 35.8% | 139.7hPa | 2.7V | 00:00:00 | 01:02:39 | 00:00:00 | |
| OE5DXL-15 | 2026-09-05 23:31:56 | 48.49545 | 9.94847 | 122° | 108km/h | 14537m | 3.3m/s | -67.2°C | 36.2% | 139.9hPa | 2.7V | 00:00:00 | 00:00:00 | 00:00:00 | |
| OE9MKV-15 | 2026-09-05 23:31:55 | 48.49560 | 9.94812 | 122° | 113km/h | 14532m | 5.9m/s | -67.2°C | 36.2% | 140.0hPa | 2.7V | 00:00:00 | 01:02:36 | 00:00:00 | |
| DM0DOS-11 | 2026-09-05 23:31:53 | 48.49604 | 9.94705 | 121° | 110km/h | 14517m | 3.9m/s | -67.3°C | 37.3% | 140.4hPa | 2.7V | 08:30:00 | 01:02:33 | 00:00:00 | |
| BIOWL1-15 | 2026-09-05 23:31:53 | 48.49589 | 9.94741 | 122° | 110km/h | 14521m | 5.5m/s | -67.3°C | 33.2% | 140.3hPa | 2.7V | 18:12:15 | 01:02:34 | 00:00:00 | |
| DK7TD | 2026-09-05 23:31:50 | 48.49633 | 9.94631 | 121° | 115km/h | 14508m | 5.4m/s | -67.3°C | 33.5% | 140.6hPa | 2.6V | 18:12:15 | 01:02:31 | 00:00:00 | |
| DL6DJ-15 | 2026-09-05 23:31:48 | 48.49677 | 9.94514 | 118° | 119km/h | 14494m | 4.5m/s | -67.2°C | 27.9% | 141.0hPa | 2.8V | 00:00:00 | 00:00:00 | 00:00:00 | |
| DM0DOS-11 | 2026-09-05 23:31:47 | 48.49747 | 9.94319 | 116° | 110km/h | 14471m | 3.5m/s | -67.1°C | 37.8% | 141.5hPa | 2.8V | 08:30:00 | 01:02:23 | 00:00:00 | |
| DL1ZP-14 | 2026-09-05 23:31:45 | 48.49706 | 9.94434 | 118° | 119km/h | 14485m | 4.6m/s | -67.1°C | 27.8% | 141.2hPa | 2.6V | 00:00:00 | 00:00:00 | 00:00:00 | |
| DK7TD | 2026-09-05 23:31:39 | 48.49784 | 9.94208 | 117° | 111km/h | 14458m | 3.9m/s | -67.1°C | 34.6% | 141.8hPa | 2.7V | 18:12:15 | 01:02:20 | 00:00:00 | |
| DJ8HS-15 | 2026-09-05 23:31:38 | 48.49797 | 9.94170 | 118° | 110km/h | 14454m | 4.7m/s | -67.0°C | 38.2% | 141.9hPa | 2.7V | 00:00:00 | 01:02:19 | 00:00:00 | |
| DG9SBQ-11 | 2026-09-05 23:31:36 | 48.49810 | 9.94133 | 119° | 110km/h | 14449m | 5.2m/s | -67.1°C | 29.0% | 142.0hPa | 2.8V | 00:00:00 | 00:00:00 | 00:00:00 | |
| DM0DOS-11 | 2026-09-05 23:31:34 | 48.49879 | 9.93942 | 117° | 115km/h | 14427m | 5m/s | -66.9°C | 38.7% | 142.5hPa | 2.8V | 08:30:00 | 01:02:13 | 00:00:00 | |
| DK7TD | 2026-09-05 23:31:28 | 48.49928 | 9.93790 | 116° | 110km/h | 14410m | 4.1m/s | -66.7°C | 35.9% | 143hPa | 2.7V | 18:12:15 | 01:02:09 | 00:00:00 | |
| DG9SBQ-11 | 2026-09-05 23:31:26 | 48.49951 | 9.93716 | 116° | 106km/h | 14400m | 5.1m/s | -66.7°C | 29.3% | 143.2hPa | 2.7V | 00:00:00 | 00:00:00 | 00:00:00 | |
| NBG1-10 | 2026-09-05 23:31:25 | 48.49962 | 9.93680 | 115° | 102km/h | 14395m | 5.4m/s | -66.6°C | 38.8% | 143.3hPa | 2.7V | 00:00:00 | 01:02:06 | 00:00:00 | |
| DF3TZ-5 | 2026-09-05 23:31:24 | 48.49973 | 9.93645 | 114° | 100km/h | 14390m | 4.7m/s | -66.6°C | 29.6% | 143.4hPa | 2.7V | 00:00:00 | 00:00:00 | 00:00:00 | |
| PG1ADW-2 | 2026-09-05 23:31:23 | 48.49984 | 9.93610 | 116° | 106km/h | 14385m | 5.0m/s | -66.6°C | 39.3% | 143.5hPa | 2.7V | 00:00:00 | 00:00:00 | 00:00:00 | |
| DO3MHA-11 | 2026-09-05 23:31:22 | 48.49995 | 9.93575 | 116° | 110km/h | 14381m | 3.6m/s | -66.6°C | 39.7% | 143.6hPa | 2.7V | 00:00:00 | 01:02:03 | 00:00:00 | |
| DO9HM | 2026-09-05 23:31:21 | 48.49995 | 9.93575 | 116° | 104km/h | 14381m | 3.6m/s | 0°C | 0% | 0hPa | 2.6V | 00:00:00 | 00:00:00 | 00:00:00 | |
| DK5PH-5 | 2026-09-05 23:31:20 | 48.50018 | 9.93502 | 115° | 102km/h | 14372m | 4.9m/s | -66.6°C | 39.6% | 143.9hPa | 2.6V | 00:00:00 | 01:02:01 | 00:00:00 | |
| DG9SBQ-11 | 2026-09-05 23:31:19 | 48.50018 | 9.93502 | 116° | 106km/h | 14372m | 4.9m/s | -66.6°C | 30.3% | 143.9hPa | 2.8V | 00:00:00 | 00:00:00 | 00:00:00 | |
| DJ8HS-15 | 2026-09-05 23:31:18 | 48.50041 | 9.93428 | 117° | 102km/h | 14361m | 3.9m/s | -66.6°C | 40.3% | 144.1hPa | 2.8V | 00:00:00 | 01:01:59 | 00:00:00 | |
| DM0DOS-11 | 2026-09-05 23:31:17 | 48.50127 | 9.93210 | 120° | 110km/h | 14332m | 4.2m/s | -67.1°C | 43.2% | 144.8hPa | 2.8V | 08:30:00 | 01:01:53 | 00:00:00 | |
| DK7TD | 2026-09-05 23:31:17 | 48.50054 | 9.93391 | 118° | 111km/h | 14356m | 6.2m/s | -66.8°C | 37.8% | 144.3hPa | 2.8V | 18:12:15 | 01:01:58 | 00:00:00 | |
| OE3JTB-15 | 2026-09-05 23:31:17 | 48.50054 | 9.93391 | 118° | 113km/h | 14356m | 6.2m/s | -66.7°C | 40.8% | 144.2hPa | 2.7V | 00:00:00 | 00:00:00 | 00:00:00 | |
| DL6DJ-15 | 2026-09-05 23:31:16 | 48.50068 | 9.93354 | 120° | 111km/h | 14350m | 4.7m/s | -67.0°C | 31.8% | 144.4hPa | 2.7V | 00:00:00 | 00:00:00 | 00:00:00 | |
| DL1ZP-14 | 2026-09-05 23:31:14 | 48.50098 | 9.93281 | 122° | 111km/h | 14341m | 4.6m/s | -67.1°C | 32.8% | 144.6hPa | 2.7V | 00:00:00 | 00:00:00 | 00:00:00 | |
| OE5DRO-10 | 2026-09-05 23:31:13 | 48.50113 | 9.93246 | 123° | 99km/h | 14337m | 4.4m/s | -67.1°C | 43.2% | 144.6hPa | 2.7V | 00:00:00 | 00:00:00 | 00:00:00 | |
| DO3MHA-11 | 2026-09-05 23:31:12 | 48.50127 | 9.93210 | 121° | 100km/h | 14333m | 4.1m/s | -67.1°C | 43.2% | 144.7hPa | 2.6V | 00:00:00 | 01:01:53 | 00:00:00 | |
| DO3MHA-12 | 2026-09-05 23:31:10 | 48.50154 | 9.93138 | 118° | 97km/h | 14323m | 4.5m/s | -67.0°C | 43.3% | 145.0hPa | 2.6V | 00:00:00 | 01:01:51 | 00:00:00 | |
| DM0DOS-11 | 2026-09-05 23:31:07 | 48.50251 | 9.92879 | 124° | 88km/h | 14286m | 5.4m/s | -66.9°C | 44.3% | 145.9hPa | 2.8V | 08:30:00 | 01:01:43 | 00:00:00 | |
| DK7TD | 2026-09-05 23:31:06 | 48.50200 | 9.93000 | 119° | 100km/h | 14304m | 4.7m/s | -67°C | 39.6% | 145.4hPa | 2.8V | 18:12:15 | 01:01:47 | 00:00:00 | |
| BIOWL1-15 | 2026-09-05 23:30:59 | 48.50289 | 9.92796 | 123° | 91km/h | 14273m | 4.7m/s | -66.8°C | 40.5% | 146.2hPa | 2.7V | 18:12:15 | 01:01:40 | 00:00:00 | |
| DJ8HS-15 | 2026-09-05 23:30:58 | 48.50301 | 9.92766 | 122° | 99km/h | 14268m | 3.7m/s | -66.8°C | 44.7% | 146.3hPa | 2.8V | 00:00:00 | 01:01:39 | 00:00:00 | |
| DM0DOS-11 | 2026-09-05 23:30:57 | 48.50396 | 9.92536 | 127° | 100km/h | 14235m | 3.7m/s | -66.6°C | 45.4% | 147.2hPa | 2.8V | 08:30:00 | 01:01:32 | 00:00:00 | |
| DK7TD | 2026-09-05 23:30:55 | 48.50339 | 9.92668 | 120° | 104km/h | 14254m | 2.9m/s | -66.7°C | 41.2% | 146.7hPa | 2.7V | 18:12:15 | 01:01:36 | 00:00:00 | |
| DK7TD | 2026-09-05 23:30:45 | 48.50480 | 9.92353 | 122° | 93km/h | 14206m | 3.8m/s | -66.5°C | 43.1% | 147.9hPa | 2.7V | 18:12:15 | 01:01:26 | 00:00:00 | |
| DM0DOS-11 | 2026-09-05 23:30:44 | 48.50535 | 9.92229 | 125° | 100km/h | 14189m | 5.1m/s | -66.5°C | 46.1% | 148.3hPa | 2.8V | 08:30:00 | 01:01:22 | 00:00:00 | |
| BIOWL1-15 | 2026-09-05 23:30:37 | 48.50626 | 9.92047 | 128° | 99km/h | 14163m | 5.1m/s | -66.5°C | 45.4% | 148.9hPa | 2.7V | 18:12:15 | 01:01:16 | 00:00:00 | |
| DK7TD | 2026-09-05 23:30:34 | 48.50641 | 9.92017 | 127° | 97km/h | 14159m | 3.9m/s | -66.5°C | 45.7% | 149hPa | 2.7V | 18:12:15 | 01:01:15 | 00:00:00 | |
| BIOWL1-15 | 2026-09-05 23:30:25 | 48.50882 | 9.91571 | 129° | 102km/h | 14095m | 3m/s | -67.2°C | 50.2% | 150.6hPa | 2.8V | 18:12:15 | 01:01:00 | 00:00:00 | |
| DK7TD | 2026-09-05 23:30:24 | 48.50796 | 9.91718 | 131° | 102km/h | 14116m | 3.9m/s | -66.7°C | 48.5% | 150.1hPa | 2.8V | 18:12:15 | 01:01:05 | 00:00:00 | |
| DK7TD | 2026-09-05 23:30:14 | 48.50963 | 9.91413 | 127° | 104km/h | 14074m | 4.5m/s | -67.7°C | 51.1% | 151.1hPa | 2.8V | 18:12:15 | 01:00:55 | 00:00:00 | |
| BIOWL1-15 | 2026-09-05 23:30:06 | 48.51130 | 9.91084 | 126° | 113km/h | 14030m | 3.9m/s | -67.7°C | 51.2% | 152.2hPa | 2.8V | 18:12:15 | 01:00:45 | 00:00:00 | |
| DK7TD | 2026-09-05 23:30:03 | 48.51147 | 9.91049 | 127° | 117km/h | 14025m | 5.3m/s | -67.7°C | 51.1% | 152.3hPa | 2.7V | 18:12:15 | 01:00:44 | 00:00:00 | |
| DK7TD | 2026-09-05 23:29:53 | 48.51323 | 9.90695 | 128° | 115km/h | 13981m | 4.3m/s | -67.7°C | 50.5% | 153.5hPa | 2.7V | 18:12:15 | 01:00:34 | 00:00:00 | |
| DF3TZ-5 | 2026-09-05 23:29:51 | 48.51359 | 9.90625 | 127° | 117km/h | 13973m | 5.1m/s | -67.7°C | 44.4% | 153.7hPa | 2.8V | 00:00:00 | 00:00:00 | 00:00:00 | |
| DO3MHA-12 | 2026-09-05 23:29:50 | 48.51377 | 9.90589 | 127° | 119km/h | 13968m | 3.9m/s | -67.6°C | 56.0% | 153.7hPa | 2.8V | 00:00:00 | 01:00:31 | 00:00:00 | |
| DM0DOS-11 | 2026-09-05 23:29:47 | 48.51487 | 9.90370 | 127° | 119km/h | 13942m | 5.1m/s | -67.5°C | 54.6% | 154.4hPa | 2.8V | 08:30:00 | 01:00:25 | 00:00:00 | |
| BIOWL1-15 | 2026-09-05 23:29:45 | 48.51506 | 9.90335 | 129° | 119km/h | 13937m | 4.8m/s | -67.5°C | 49.4% | 154.5hPa | 2.8V | 18:12:15 | 01:00:24 | 00:00:00 | |
| DK7TD | 2026-09-05 23:29:42 | 48.51525 | 9.90300 | 130° | 117km/h | 13933m | 3.5m/s | -67.5°C | 49.3% | 154.7hPa | 2.7V | 18:12:15 | 01:00:23 | 00:00:00 | |
| DO3MHA-11 | 2026-09-05 23:29:42 | 48.51525 | 9.90300 | 130° | 124km/h | 13933m | 3.5m/s | -67.5°C | 54.8% | 154.6hPa | 2.7V | 00:00:00 | 01:00:23 | 00:00:00 | |
| DL1ZP-14 | 2026-09-05 23:29:41 | 48.51544 | 9.90266 | 129° | 115km/h | 13929m | 4.5m/s | -67.5°C | 43.4% | 154.8hPa | 2.7V | 00:00:00 | 00:00:00 | 00:00:00 | |
| DO3MHA-12 | 2026-09-05 23:29:40 | 48.51562 | 9.90232 | 131° | 126km/h | 13925m | 3.6m/s | -67.5°C | 54.3% | 154.8hPa | 2.7V | 00:00:00 | 01:00:21 | 00:00:00 | |
| DM0DOS-11 | 2026-09-05 23:29:39 | 48.51685 | 9.90008 | 126° | 128km/h | 13899m | 4.5m/s | -67.5°C | 53.8% | 155.5hPa | 2.7V | 08:30:00 | 01:00:15 | 00:00:00 | |
| BIOWL1-15 | 2026-09-05 23:29:32 | 48.51722 | 9.89931 | 127° | 124km/h | 13891m | 4.3m/s | -67.6°C | 47.7% | 155.8hPa | 2.7V | 18:12:15 | 01:00:13 | 00:00:00 | |
| DO3MHA-11 | 2026-09-05 23:29:32 | 48.51722 | 9.89931 | 127° | 124km/h | 13891m | 4.3m/s | -67.5°C | 53.3% | 155.7hPa | 2.8V | 00:00:00 | 01:00:13 | 00:00:00 | |
| DO3MHA-12 | 2026-09-05 23:29:30 | 48.51760 | 9.89857 | 129° | 126km/h | 13882m | 3.9m/s | -67.6°C | 52.7% | 156.0hPa | 2.8V | 00:00:00 | 01:00:11 | 00:00:00 | |
| HARRO8 | 2026-09-05 23:29:29 | 48.51780 | 9.89821 | 129° | 120km/h | 13878m | 4.1m/s | -67.6°C | 41.3% | 156.1hPa | 2.8V | 00:00:00 | 00:00:00 | 00:00:00 | |
| DM0DOS-11 | 2026-09-05 23:29:28 | 48.51876 | 9.89636 | 126° | 128km/h | 13855m | 4.5m/s | -67.5°C | 52.5% | 156.7hPa | 2.8V | 08:30:00 | 01:00:05 | 00:00:00 | |
| DK7TD | 2026-09-05 23:29:22 | 48.51914 | 9.89556 | 124° | 130km/h | 13846m | 4.7m/s | -67.4°C | 46.3% | 156.9hPa | 2.8V | 18:12:15 | 01:00:03 | 00:00:00 | |
| BIOWL1-15 | 2026-09-05 23:29:21 | 48.51968 | 9.89430 | 122° | 130km/h | 13832m | 5.8m/s | -67.3°C | 46.1% | 157.3hPa | 2.7V | 18:12:15 | 01:00:00 | 00:00:00 | |
| DO3MHA-12 | 2026-09-05 23:29:20 | 48.51950 | 9.89473 | 123° | 126km/h | 13837m | 3.9m/s | -67.3°C | 52.6% | 157.1hPa | 2.7V | 00:00:00 | 01:00:01 | 00:00:00 | |
| DM0DOS-11 | 2026-09-05 23:29:19 | 48.52055 | 9.89228 | 125° | 124km/h | 13810m | 4.3m/s | -67.1°C | 50.7% | 157.9hPa | 2.7V | 08:30:00 | 00:59:55 | 00:00:00 | |
| BIOWL1-15 | 2026-09-05 23:29:11 | 48.52146 | 9.89033 | 124° | 128km/h | 13787m | 4.5m/s | -67°C | 45.2% | 158.5hPa | 2.8V | 18:12:15 | 00:59:50 | 00:00:00 | |
| DK7TD | 2026-09-05 23:29:11 | 48.52109 | 9.89112 | 125° | 126km/h | 13796m | 5.1m/s | -67°C | 45.4% | 158.2hPa | 2.7V | 18:12:15 | 00:59:52 | 00:00:00 | |
| DO3MHA-12 | 2026-09-05 23:29:10 | 48.52127 | 9.89073 | 126° | 128km/h | 13792m | 4.3m/s | -66.9°C | 50.7% | 158.3hPa | 2.7V | 00:00:00 | 00:59:51 | 00:00:00 | |
| AZAK | 2026-09-05 23:29:09 | 48.52128 | 9.89073 | 126° | 126km/h | 13792m | 4.4m/s | -67.0°C | 40.0% | 158.3hPa | 2.8V | 00:00:00 | 00:00:00 | 00:00:00 | |
| DM0DOS-11 | 2026-09-05 23:29:07 | 48.52235 | 9.88828 | 123° | 130km/h | 13764m | 4.5m/s | -66.9°C | 51.3% | 159.1hPa | 2.8V | 08:30:00 | 00:59:45 | 00:00:00 | |
| BIOWL1-15 | 2026-09-05 23:29:01 | 48.52288 | 9.88705 | 123° | 128km/h | 13751m | 4.7m/s | -66.8°C | 45.3% | 159.4hPa | 2.7V | 18:12:15 | 00:59:42 | 00:00:00 | |
| DK7TD | 2026-09-05 23:28:50 | 48.52477 | 9.88248 | 120° | 128km/h | 13698m | 3.9m/s | -66.4°C | 45.7% | 160.8hPa | 2.7V | 18:12:15 | 00:59:31 | 00:00:00 | |
| DF3TZ-5 | 2026-09-05 23:28:49 | 48.52494 | 9.88206 | 119° | 128km/h | 13693m | 6.5m/s | -66.4°C | 39.4% | 161.0hPa | 2.7V | 00:00:00 | 00:00:00 | 00:00:00 | |
| DK7TD | 2026-09-05 23:28:39 | 48.52650 | 9.87773 | 119° | 131km/h | 13644m | 5.2m/s | -66°C | 46.7% | 162.2hPa | 2.7V | 18:12:15 | 00:59:20 | 00:00:00 | |
| DK7TD | 2026-09-05 23:28:29 | 48.52804 | 9.87340 | 118° | 124km/h | 13597m | 5.1m/s | -66.1°C | 47.8% | 163.5hPa | 2.7V | 18:12:15 | 00:59:10 | 00:00:00 | |
| DK7TD | 2026-09-05 23:28:19 | 48.52957 | 9.86897 | 118° | 126km/h | 13550m | 3.8m/s | -66.1°C | 49.4% | 164.8hPa | 2.7V | 18:12:15 | 00:59:00 | 00:00:00 | |
| DJ8HS-15 | 2026-09-05 23:28:18 | 48.52972 | 9.86855 | 118° | 128km/h | 13547m | 3.8m/s | -66.1°C | 52.5% | 164.9hPa | 2.7V | 00:00:00 | 00:58:59 | 00:00:00 | |
| DM0DOS-11 | 2026-09-05 23:28:16 | 48.53027 | 9.86685 | 115° | 128km/h | 13529m | 5m/s | -66.2°C | 53.2% | 165.3hPa | 2.7V | 08:30:00 | 00:58:55 | 00:00:00 | |
| DK7TD | 2026-09-05 23:28:08 | 48.53115 | 9.86416 | 117° | 131km/h | 13500m | 4.3m/s | -66.4°C | 50.7% | 166.1hPa | 2.7V | 18:12:15 | 00:58:49 | 00:00:00 | |
| NBG1-10 | 2026-09-05 23:28:07 | 48.53130 | 9.86371 | 116° | 135km/h | 13496m | 4.1m/s | -66.4°C | 55.9% | 166.2hPa | 2.7V | 00:00:00 | 00:58:48 | 00:00:00 | |
| DM0DOS-11 | 2026-09-05 23:28:06 | 48.53170 | 9.86238 | 114° | 128km/h | 13482m | 4.7m/s | -66.7°C | 57.6% | 166.6hPa | 2.7V | 08:30:00 | 00:58:45 | 00:00:00 | |
| DK7TD | 2026-09-05 23:27:57 | 48.53269 | 9.85924 | 117° | 135km/h | 13450m | 3.6m/s | -66.6°C | 50.9% | 167.6hPa | 2.7V | 18:12:15 | 00:58:38 | 00:00:00 | |
| DM0DOS-11 | 2026-09-05 23:27:56 | 48.53313 | 9.85788 | 116° | 131km/h | 13436m | 4.7m/s | -66.5°C | 56.7% | 167.9hPa | 2.7V | 08:30:00 | 00:58:35 | 00:00:00 | |
| DK7TD | 2026-09-05 23:27:47 | 48.53415 | 9.85465 | 114° | 141km/h | 13401m | 4.4m/s | -66.2°C | 49.6% | 168.9hPa | 2.7V | 18:12:15 | 00:58:28 | 00:00:00 | |
| DF3TZ-5 | 2026-09-05 23:27:47 | 48.53415 | 9.85465 | 114° | 141km/h | 13401m | 4.4m/s | -66.2°C | 45.1% | 168.9hPa | 2.8V | 00:00:00 | 00:00:00 | 00:00:00 | |
| BIOWL1-15 | 2026-09-05 23:27:39 | 48.53528 | 9.85080 | 115° | 137km/h | 13363m | 4.5m/s | -65.8°C | 48.6% | 169.9hPa | 2.8V | 18:12:15 | 00:58:20 | 00:00:00 | |
| DK7TD | 2026-09-05 23:27:37 | 48.53558 | 9.84984 | 116° | 141km/h | 13354m | 3.9m/s | -65.8°C | 48.5% | 170.2hPa | 2.7V | 18:12:15 | 00:58:18 | 00:00:00 | |
| DM0DOS-11 | 2026-09-05 23:27:35 | 48.53604 | 9.84841 | 115° | 137km/h | 13340m | 3.7m/s | -65.6°C | 54% | 170.6hPa | 2.8V | 08:30:00 | 00:58:15 | 00:00:00 | |
| BIOWL1-15 | 2026-09-05 23:27:28 | 48.53694 | 9.84559 | 115° | 135km/h | 13313m | 4.1m/s | -65.4°C | 48% | 171.4hPa | 2.7V | 18:12:15 | 00:58:09 | 00:00:00 | |
| DK7TD | 2026-09-05 23:27:26 | 48.53723 | 9.84466 | 116° | 137km/h | 13304m | 4.3m/s | -65.3°C | 47.9% | 171.6hPa | 2.7V | 18:12:15 | 00:58:07 | 00:00:00 | |
| DM0DOS-11 | 2026-09-05 23:27:25 | 48.53753 | 9.84373 | 115° | 135km/h | 13295m | 5.8m/s | -65.2°C | 52.4% | 171.8hPa | 2.8V | 08:30:00 | 00:58:05 | 00:00:00 | |
| OE5DRO-10 | 2026-09-05 23:27:25 | 48.53738 | 9.84419 | 116° | 135km/h | 13300m | 3.7m/s | -65.2°C | 52.7% | 171.7hPa | 2.7V | 00:00:00 | 00:00:00 | 00:00:00 | |
| DF7PN | 2026-09-05 23:27:23 | 48.53782 | 9.84281 | 115° | 135km/h | 13285m | 5.7m/s | -65.1°C | 42.5% | 172.2hPa | 2.8V | 00:00:00 | 00:00:00 | 00:00:00 | |
| BIOWL9-15 | 2026-09-05 23:27:21 | 48.53811 | 9.84186 | 114° | 137km/h | 13276m | 3.2m/s | -65.1°C | 42.5% | 172.3hPa | 2.8V | 00:00:00 | 00:00:00 | 00:00:00 | |
| DM0DOS-11 | 2026-09-05 23:27:20 | 48.53896 | 9.83899 | 115° | 139km/h | 13251m | 4.7m/s | -64.8°C | 51.8% | 173.1hPa | 2.8V | 08:30:00 | 00:57:55 | 00:00:00 | |
| BIOWL1-15 | 2026-09-05 23:27:20 | 48.53853 | 9.84044 | 114° | 137km/h | 13264m | 3.7m/s | -64.9°C | 47.5% | 172.7hPa | 2.7V | 18:12:15 | 00:57:58 | 00:00:00 | |
| DK7TD | 2026-09-05 23:27:15 | 48.53882 | 9.83947 | 115° | 141km/h | 13255m | 4.4m/s | -64.9°C | 47.4% | 173hPa | 2.8V | 18:12:15 | 00:57:56 | 00:00:00 | |
| BIOWL1-15 | 2026-09-05 23:27:13 | 48.54000 | 9.83584 | 115° | 130km/h | 13216m | 4.5m/s | -64.6°C | 47.9% | 174.1hPa | 2.7V | 18:12:15 | 00:57:48 | 00:00:00 | |
| DO3MHA-11 | 2026-09-05 23:27:11 | 48.53941 | 9.83761 | 118° | 135km/h | 13235m | 5.8m/s | -64.6°C | 53.7% | 173.5hPa | 2.7V | 00:00:00 | 00:57:52 | 00:00:00 | |
| DO3MHA-12 | 2026-09-05 23:27:10 | 48.53956 | 9.83717 | 118° | 137km/h | 13230m | 3.5m/s | -64.6°C | 54.3% | 173.6hPa | 2.7V | 00:00:00 | 00:57:51 | 08:30:00 | |
| DM0DOS-11 | 2026-09-05 23:27:09 | 48.54042 | 9.83443 | 113° | 142km/h | 13202m | 5.3m/s | -64.6°C | 52.1% | 174.5hPa | 2.8V | 08:30:00 | 00:57:45 | 00:00:00 | |
| DK7TD | 2026-09-05 23:27:04 | 48.54042 | 9.83443 | 113° | 142km/h | 13202m | 5.3m/s | -64.6°C | 47.7% | 174.5hPa | 2.8V | 18:12:15 | 00:57:45 | 00:00:00 | |
| BIOWL1-15 | 2026-09-05 23:26:56 | 48.54159 | 9.83056 | 121° | 120km/h | 13162m | 7.1m/s | -64.2°C | 47.7% | 175.6hPa | 2.7V | 18:12:15 | 00:57:37 | 00:00:00 | |
| OE9MKV-15 | 2026-09-05 23:26:55 | 48.54175 | 9.83017 | 122° | 122km/h | 13155m | 6.4m/s | 0°C | 0% | 0hPa | 2.8V | 00:00:00 | 00:57:36 | 00:00:00 | |
| DM0DOS-11 | 2026-09-05 23:26:54 | 48.54205 | 9.82939 | 119° | 120km/h | 13145m | 4.8m/s | -64.3°C | 51.6% | 176.1hPa | 2.8V | 08:30:00 | 00:57:34 | 00:00:00 | |
| DK7TD | 2026-09-05 23:26:54 | 48.54190 | 9.82978 | 120° | 119km/h | 13149m | 4m/s | -64.3°C | 47.9% | 176hPa | 2.7V | 18:12:15 | 00:57:35 | 00:00:00 | |
| HARRO8 | 2026-09-05 23:26:54 | 48.54205 | 9.82939 | 119° | 119km/h | 13145m | 4.9m/s | -64.3°C | 41.8% | 176.1hPa | 2.7V | 00:00:00 | 00:00:00 | 00:00:00 | |
| DF7PN | 2026-09-05 23:26:52 | 48.54234 | 9.82856 | 117° | 126km/h | 13134m | 5.7m/s | -64.2°C | 42.0% | 176.4hPa | 2.7V | 00:00:00 | 00:00:00 | 00:00:00 | |
| BIOWL9-15 | 2026-09-05 23:26:49 | 48.54265 | 9.82767 | 117° | 135km/h | 13122m | 5.6m/s | -64.2°C | 42.1% | 176.8hPa | 2.7V | 00:00:00 | 00:00:00 | 00:00:00 | |
| DB0ND-19 | 2026-09-05 23:26:48 | 48.54281 | 9.82721 | 117° | 137km/h | 13117m | 5.6m/s | -64.1°C | 41.9% | 176.9hPa | 2.7V | 00:00:00 | 00:00:00 | 00:00:00 | |
| BIOWL1-15 | 2026-09-05 23:26:45 | 48.54435 | 9.82310 | 120° | 133km/h | 13072m | 4.4m/s | -63.8°C | 48.6% | 178.2hPa | 2.7V | 18:12:15 | 00:57:20 | 00:00:00 | |
| DM0DOS-11 | 2026-09-05 23:26:44 | 48.54365 | 9.82491 | 119° | 141km/h | 13090m | 4.2m/s | -63.9°C | 52.8% | 177.7hPa | 2.8V | 08:30:00 | 00:57:24 | 00:00:00 | |
| DK7TD | 2026-09-05 23:26:43 | 48.54365 | 9.82491 | 119° | 141km/h | 13090m | 4.2m/s | -63.9°C | 48.1% | 177.7hPa | 2.8V | 18:12:15 | 00:57:24 | 00:00:00 | |
| DO3MHA-11 | 2026-09-05 23:26:41 | 48.54400 | 9.82399 | 121° | 135km/h | 13081m | 5.3m/s | -63.8°C | 52.7% | 177.9hPa | 2.7V | 00:00:00 | 00:57:22 | 00:00:00 | |
| DB0NH | 2026-09-05 23:26:40 | 48.54418 | 9.82354 | 121° | 137km/h | 13076m | 4.3m/s | -63.7°C | 52.9% | 178.0hPa | 2.7V | 00:00:00 | 00:57:21 | 00:00:00 | |
| DG9SBQ-11 | 2026-09-05 23:26:39 | 48.54417 | 9.82354 | 121° | 135km/h | 13076m | 4.4m/s | -63.8°C | 43.1% | 178.1hPa | 2.7V | 00:00:00 | 00:00:00 | 00:00:00 | |
| DJ8HS-15 | 2026-09-05 23:26:38 | 48.54451 | 9.82266 | 120° | 135km/h | 13067m | 5.5m/s | -63.7°C | 53.2% | 178.3hPa | 2.7V | 00:00:00 | 00:57:19 | 00:00:00 | |
| DL6DJ-15 | 2026-09-05 23:26:37 | 48.54468 | 9.82221 | 118° | 135km/h | 13062m | 4.1m/s | -63.7°C | 44.1% | 178.5hPa | 2.7V | 00:00:00 | 00:00:00 | 00:00:00 | |
| DM0DOS-11 | 2026-09-05 23:26:34 | 48.54535 | 9.82040 | 119° | 137km/h | 13045m | 4.5m/s | -63.6°C | 54.6% | 179hPa | 2.7V | 08:30:00 | 00:57:14 | 00:00:00 | |
| DK7TD | 2026-09-05 23:26:33 | 48.54535 | 9.82040 | 120° | 137km/h | 13045m | 4.5m/s | -63.6°C | 49.5% | 179hPa | 2.7V | 18:12:15 | 00:57:14 | 00:00:00 | |
| BIOWL1-15 | 2026-09-05 23:26:29 | 48.54604 | 9.81858 | 119° | 135km/h | 13026m | 4.2m/s | -63.5°C | 50.1% | 179.6hPa | 2.7V | 18:12:15 | 00:57:10 | 00:00:00 | |
| NBG1-10 | 2026-09-05 23:26:28 | 48.54621 | 9.81813 | 120° | 137km/h | 13022m | 4.0m/s | -63.4°C | 55.5% | 179.6hPa | 2.7V | 00:00:00 | 00:57:09 | 00:00:00 | |
| AZAK | 2026-09-05 23:26:27 | 48.54638 | 9.81768 | 120° | 137km/h | 13017m | 5.1m/s | -63.4°C | 45.7% | 179.8hPa | 2.7V | 00:00:00 | 00:00:00 | 00:00:00 | |
| DM0DOS-11 | 2026-09-05 23:26:24 | 48.54704 | 9.81589 | 119° | 133km/h | 12999m | 5.1m/s | -63.2°C | 55.3% | 180.3hPa | 2.7V | 08:30:00 | 00:57:04 | 00:00:00 | |
| DK7TD | 2026-09-05 23:26:22 | 48.54722 | 9.81545 | 121° | 135km/h | 12994m | 3.7m/s | -63.2°C | 50.5% | 180.5hPa | 2.8V | 18:12:15 | 00:57:03 | 00:00:00 | |
| BIOWL1-15 | 2026-09-05 23:26:18 | 48.54869 | 9.81194 | 122° | 137km/h | 12956m | 6m/s | -62.9°C | 50.6% | 181.6hPa | 2.7V | 18:12:15 | 00:56:55 | 00:00:00 | |
| DB0ND-19 | 2026-09-05 23:26:18 | 48.54813 | 9.81326 | 122° | 137km/h | 12970m | 3.7m/s | -63.0°C | 44.9% | 181.2hPa | 2.8V | 00:00:00 | 00:00:00 | 00:00:00 | |
| DM0DOS-11 | 2026-09-05 23:26:14 | 48.54887 | 9.81149 | 120° | 139km/h | 12951m | 4.5m/s | -62.8°C | 55.3% | 181.8hPa | 2.8V | 08:30:00 | 00:56:54 | 00:00:00 | |
| DK7TD | 2026-09-05 23:26:11 | 48.54922 | 9.81056 | 119° | 139km/h | 12942m | 5.2m/s | -62.8°C | 50.7% | 182hPa | 2.8V | 18:12:15 | 00:56:52 | 00:00:00 | |
| BIOWL1-15 | 2026-09-05 23:26:06 | 48.55049 | 9.80742 | 123° | 135km/h | 12912m | 3.9m/s | -62.5°C | 50.4% | 182.9hPa | 2.7V | 18:12:15 | 00:56:45 | 00:00:00 | |
| DL6DJ-15 | 2026-09-05 23:26:06 | 48.55011 | 9.80829 | 122° | 137km/h | 12920m | 4.8m/s | -62.6°C | 45.6% | 182.7hPa | 2.8V | 00:00:00 | 00:00:00 | 00:00:00 | |
| DM0DOS-11 | 2026-09-05 23:26:04 | 48.55141 | 9.80526 | 122° | 135km/h | 12890m | 4.1m/s | -62.3°C | 54.8% | 183.5hPa | 2.8V | 08:30:00 | 00:56:40 | 00:00:00 | |
| DK7TD | 2026-09-05 23:26:00 | 48.55123 | 9.80569 | 123° | 133km/h | 12894m | 4.6m/s | -62.3°C | 50.3% | 183.4hPa | 2.8V | 18:12:15 | 00:56:41 | 00:00:00 | |
| BIOWL1-15 | 2026-09-05 23:25:53 | 48.55267 | 9.80208 | 121° | 139km/h | 12859m | 5.3m/s | -62°C | 49.6% | 184.5hPa | 2.7V | 18:12:15 | 00:56:33 | 00:00:00 | |
| HARRO8 | 2026-09-05 23:25:52 | 48.55285 | 9.80163 | 121° | 137km/h | 12854m | 4.2m/s | -61.9°C | 44.3% | 184.6hPa | 2.8V | 00:00:00 | 00:00:00 | 00:00:00 | |
| OE5DXL-15 | 2026-09-05 23:25:51 | 48.55285 | 9.80163 | 122° | 139km/h | 12854m | 4.2m/s | -61.9°C | 53.7% | 184.6hPa | 2.8V | 00:00:00 | 00:00:00 | 00:00:00 | |
| DM0DOS-11 | 2026-09-05 23:25:50 | 48.55322 | 9.80074 | 122° | 135km/h | 12844m | 3.9m/s | -61.9°C | 53.8% | 184.9hPa | 2.8V | 08:30:00 | 00:56:30 | 00:00:00 | |
| DK7TD | 2026-09-05 23:25:50 | 48.55304 | 9.80118 | 122° | 137km/h | 12849m | 5.5m/s | -61.9°C | 49.4% | 184.7hPa | 2.7V | 18:12:15 | 00:56:31 | 00:00:00 | |
| DF7PN | 2026-09-05 23:25:49 | 48.55322 | 9.80074 | 122° | 135km/h | 12844m | 3.9m/s | -61.9°C | 44.5% | 184.9hPa | 2.7V | 00:00:00 | 00:00:00 | 00:00:00 | |
| BIOWL9-15 | 2026-09-05 23:25:47 | 48.55360 | 9.79986 | 122° | 139km/h | 12836m | 5.6m/s | -61.8°C | 43.6% | 185.1hPa | 2.7V | 00:00:00 | 00:00:00 | 00:00:00 | |
| AZAK | 2026-09-05 23:25:46 | 48.55379 | 9.79941 | 123° | 141km/h | 12831m | 4.4m/s | -61.7°C | 43.9% | 185.3hPa | 2.7V | 00:00:00 | 00:00:00 | 00:00:00 | |
| DM0DOS-11 | 2026-09-05 23:25:44 | 48.55509 | 9.79625 | 122° | 137km/h | 12799m | 5.1m/s | -61.4°C | 52.2% | 186.2hPa | 2.7V | 08:30:00 | 00:56:20 | 00:00:00 | |
| BIOWL1-15 | 2026-09-05 23:25:41 | 48.55472 | 9.79715 | 122° | 141km/h | 12806m | 4m/s | -61.5°C | 48.9% | 186hPa | 2.8V | 18:12:15 | 00:56:22 | 00:00:00 | |
| DK7TD | 2026-09-05 23:25:39 | 48.55509 | 9.79625 | 122° | 137km/h | 12799m | 5.1m/s | -61.4°C | 48.6% | 186.2hPa | 2.7V | 18:12:15 | 00:56:20 | 00:00:00 | |
| BIOWL1-15 | 2026-09-05 23:25:31 | 48.55738 | 9.79098 | 122° | 141km/h | 12746m | 4.5m/s | -61°C | 47.7% | 187.8hPa | 2.7V | 18:12:15 | 00:56:08 | 00:00:00 | |
| OE5DRO-10 | 2026-09-05 23:25:31 | 48.55663 | 9.79283 | 122° | 141km/h | 12763m | 4.3m/s | -61.1°C | 51.8% | 187.3hPa | 2.7V | 00:00:00 | 00:00:00 | 00:00:00 | |
| DM0DOS-11 | 2026-09-05 23:25:30 | 48.55701 | 9.79190 | 121° | 142km/h | 12755m | 4.9m/s | -61°C | 51.4% | 187.6hPa | 2.8V | 08:30:00 | 00:56:10 | 00:00:00 | |
| DK7TD | 2026-09-05 23:25:29 | 48.55701 | 9.79190 | 121° | 142km/h | 12755m | 4.9m/s | -61°C | 47.8% | 187.6hPa | 2.8V | 18:12:15 | 00:56:10 | 00:00:00 | |
| DO3MHA-11 | 2026-09-05 23:25:27 | 48.55738 | 9.79098 | 123° | 141km/h | 12747m | 4.5m/s | -60.9°C | 51.1% | 187.8hPa | 2.7V | 00:00:00 | 00:56:08 | 00:00:00 | |
| DM0DOS-11 | 2026-09-05 23:25:25 | 48.55892 | 9.78743 | 122° | 141km/h | 12711m | 5.5m/s | -60.6°C | 50.2% | 188.9hPa | 2.7V | 08:30:00 | 00:56:00 | 00:00:00 | |
| BIOWL1-15 | 2026-09-05 23:25:18 | 48.55987 | 9.78516 | 123° | 139km/h | 12689m | 4.5m/s | -60.5°C | 46.9% | 189.6hPa | 2.7V | 18:12:15 | 00:55:55 | 00:00:00 | |
| DK7TD | 2026-09-05 23:25:18 | 48.55911 | 9.78698 | 122° | 141km/h | 12707m | 3.9m/s | -60.6°C | 47.2% | 189hPa | 2.7V | 18:12:15 | 00:55:59 | 00:00:00 | |
| DK7TD | 2026-09-05 23:25:07 | 48.56124 | 9.78210 | 124° | 139km/h | 12658m | 4.7m/s | -60.2°C | 46.2% | 190.5hPa | 2.7V | 18:12:15 | 00:55:48 | 00:00:00 | |
| BIOWL1-15 | 2026-09-05 23:25:04 | 48.56182 | 9.78077 | 123° | 139km/h | 12644m | 4m/s | -60.1°C | 45.9% | 190.9hPa | 2.8V | 18:12:15 | 00:55:45 | 00:00:00 | |
| DK7TD | 2026-09-05 23:24:56 | 48.56335 | 9.77714 | 123° | 142km/h | 12610m | 3.6m/s | -59.7°C | 45.4% | 192hPa | 2.8V | 18:12:15 | 00:55:37 | 00:00:00 | |
| BIOWL1-15 | 2026-09-05 23:24:53 | 48.56393 | 9.77581 | 124° | 137km/h | 12598m | 4.2m/s | -59.6°C | 45.4% | 192.3hPa | 2.8V | 18:12:15 | 00:55:34 | 00:00:00 | |
| DK7TD | 2026-09-05 23:24:45 | 48.56546 | 9.77225 | 123° | 142km/h | 12563m | 4m/s | -59.4°C | 45.7% | 193.4hPa | 2.8V | 18:12:15 | 00:55:26 | 00:00:00 | |
| BIOWL9-15 | 2026-09-05 23:24:45 | 48.56546 | 9.77225 | 122° | 141km/h | 12563m | 4.0m/s | -59.4°C | 40.2% | 193.4hPa | 2.8V | 00:00:00 | 00:00:00 | 00:00:00 | |
| DB0ND-19 | 2026-09-05 23:24:44 | 48.56566 | 9.77180 | 123° | 141km/h | 12559m | 5.0m/s | -59.4°C | 39.9% | 193.5hPa | 2.8V | 00:00:00 | 00:00:00 | 00:00:00 | |
| BIOWL1-15 | 2026-09-05 23:24:43 | 48.56586 | 9.77136 | 124° | 139km/h | 12554m | 4m/s | -59.3°C | 45.4% | 193.7hPa | 2.8V | 18:12:15 | 00:55:24 | 00:00:00 | |
| BIOWL1-15 | 2026-09-05 23:24:35 | 48.56783 | 9.76700 | 124° | 141km/h | 12510m | 5.7m/s | -59°C | 43.9% | 195.1hPa | 2.8V | 18:12:15 | 00:55:14 | 00:00:00 | |
| DK7TD | 2026-09-05 23:24:34 | 48.56763 | 9.76745 | 124° | 142km/h | 12515m | 4m/s | -59°C | 44.1% | 194.9hPa | 2.7V | 18:12:15 | 00:55:15 | 00:00:00 | |
| OE5DRO-10 | 2026-09-05 23:24:34 | 48.56763 | 9.76745 | 124° | 141km/h | 12515m | 3.9m/s | -59.0°C | 45.5% | 194.9hPa | 2.7V | 00:00:00 | 00:00:00 | 00:00:00 | |
| DB0UT-7 | 2026-09-05 23:24:33 | 48.56783 | 9.76700 | 125° | 139km/h | 12511m | 5.6m/s | -58.9°C | 45.5% | 195.0hPa | 2.7V | 00:00:00 | 00:55:14 | 00:00:00 | |
| DO3MHA-11 | 2026-09-05 23:24:32 | 48.56803 | 9.76655 | 125° | 139km/h | 12505m | 4.5m/s | -58.9°C | 45.8% | 195.2hPa | 2.7V | 00:00:00 | 00:55:13 | 00:00:00 | |
| DO3MHA-12 | 2026-09-05 23:24:30 | 48.56844 | 9.76568 | 126° | 141km/h | 12496m | 4.9m/s | -58.8°C | 45.6% | 195.4hPa | 2.7V | 00:00:00 | 00:55:11 | 00:00:00 | |
| DF1GD-15 | 2026-09-05 23:24:29 | 48.56844 | 9.76568 | 126° | 141km/h | 12496m | 5.0m/s | -58.9°C | 37.8% | 195.5hPa | 2.7V | 00:00:00 | 00:00:00 | 00:00:00 | |
| DM0DOS-11 | 2026-09-05 23:24:24 | 48.57075 | 9.76088 | 125° | 146km/h | 12450m | 4.8m/s | -58.5°C | 44.2% | 196.9hPa | 2.7V | 08:30:00 | 00:55:00 | 00:00:00 | |
| DK7TD | 2026-09-05 23:24:23 | 48.56988 | 9.76268 | 126° | 144km/h | 12467m | 4.4m/s | -58.7°C | 43.6% | 196.4hPa | 2.7V | 18:12:15 | 00:55:04 | 00:00:00 | |
| BIOWL1-15 | 2026-09-05 23:24:22 | 48.57009 | 9.76223 | 126° | 144km/h | 12463m | 4.1m/s | -58.6°C | 43.5% | 196.6hPa | 2.8V | 18:12:15 | 00:55:03 | 00:00:00 | |
| DK7TD | 2026-09-05 23:24:13 | 48.57203 | 9.75835 | 127° | 133km/h | 12425m | 4m/s | -58.4°C | 41.8% | 197.7hPa | 2.8V | 18:12:15 | 00:54:54 | 00:00:00 | |
| BIOWL1-15 | 2026-09-05 23:24:13 | 48.57242 | 9.75753 | 126° | 133km/h | 12417m | 4.1m/s | -58.3°C | 41.2% | 198hPa | 2.7V | 18:12:15 | 00:54:52 | 00:00:00 | |
| DK7TD | 2026-09-05 23:24:02 | 48.57426 | 9.75370 | 126° | 144km/h | 12379m | 4.9m/s | -58°C | 38.9% | 199.2hPa | 2.8V | 18:12:15 | 00:54:43 | 00:00:00 | |
| BIOWL1-15 | 2026-09-05 23:24:00 | 48.57468 | 9.75283 | 127° | 142km/h | 12371m | 4.7m/s | -57.9°C | 38.7% | 199.4hPa | 2.8V | 18:12:15 | 00:54:41 | 00:00:00 | |
| DM0DOS-11 | 2026-09-05 23:24:00 | 48.57534 | 9.75159 | 128° | 135km/h | 12359m | 4.6m/s | -57.8°C | 39.4% | 199.8hPa | 2.8V | 08:30:00 | 00:54:38 | 00:00:00 | |
| DK7TD | 2026-09-05 23:23:52 | 48.57636 | 9.74955 | 127° | 139km/h | 12338m | 3.6m/s | -57.7°C | 38.7% | 200.5hPa | 2.8V | 18:12:15 | 00:54:33 | 00:00:00 | |
| BIOWL1-15 | 2026-09-05 23:23:50 | 48.57884 | 9.74452 | 125° | 135km/h | 12285m | 3.5m/s | -57.5°C | 38.9% | 202.1hPa | 2.7V | 18:12:15 | 00:54:21 | 00:00:00 | |
| DF7PN | 2026-09-05 23:23:45 | 48.57785 | 9.74654 | 126° | 135km/h | 12307m | 3.6m/s | -57.7°C | 33.4% | 201.4hPa | 2.8V | 00:00:00 | 00:00:00 | 00:00:00 | |
| DK7TD | 2026-09-05 23:23:42 | 48.57845 | 9.74533 | 127° | 130km/h | 12294m | 4m/s | -57.6°C | 38.9% | 201.8hPa | 2.8V | 18:12:15 | 00:54:23 | 00:00:00 | |
| DO3MHA-11 | 2026-09-05 23:23:42 | 48.57845 | 9.74533 | 127° | 135km/h | 12294m | 4.0m/s | -57.5°C | 39.7% | 201.8hPa | 2.7V | 00:00:00 | 00:54:23 | 00:00:00 | |
| AZAK | 2026-09-05 23:23:41 | 48.57845 | 9.74533 | 128° | 130km/h | 12294m | 4.0m/s | -57.6°C | 32.8% | 201.8hPa | 2.7V | 00:00:00 | 00:00:00 | 00:00:00 | |
| DM0DOS-11 | 2026-09-05 23:23:40 | 48.57904 | 9.74409 | 124° | 137km/h | 12280m | 4.7m/s | -57.5°C | 39.3% | 202.2hPa | 2.7V | 08:30:00 | 00:54:20 | 00:00:00 | |
| BIOWL1-15 | 2026-09-05 23:23:40 | 48.57924 | 9.74366 | 125° | 139km/h | 12275m | 5.6m/s | -57.4°C | 38.7% | 202.4hPa | 2.8V | 18:12:15 | 00:54:19 | 00:00:00 | |
| DF3TZ-5 | 2026-09-05 23:23:39 | 48.57924 | 9.74366 | 125° | 137km/h | 12275m | 5.6m/s | -57.4°C | 32.4% | 202.4hPa | 2.7V | 00:00:00 | 00:00:00 | 00:00:00 | |
| DJ8HS-15 | 2026-09-05 23:23:38 | 48.57924 | 9.74366 | 126° | 135km/h | 12276m | 5.6m/s | -57.4°C | 39.3% | 202.4hPa | 2.7V | 00:00:00 | 00:54:19 | 00:00:00 | |
| OE5DRO-10 | 2026-09-05 23:23:37 | 48.57944 | 9.74323 | 126° | 137km/h | 12271m | 4.0m/s | 0°C | 0% | 0hPa | 2.7V | 00:00:00 | 00:00:00 | 00:00:00 | |
| DM0DOS-11 | 2026-09-05 23:23:34 | 48.58098 | 9.73980 | 123° | 131km/h | 12237m | 3.5m/s | -57.2°C | 39.2% | 203.6hPa | 2.7V | 08:30:00 | 00:54:10 | 00:00:00 | |
| DK7TD | 2026-09-05 23:23:31 | 48.58060 | 9.74064 | 124° | 135km/h | 12246m | 3.2m/s | -57.2°C | 38.4% | 203.4hPa | 2.7V | 18:12:15 | 00:54:12 | 00:00:00 | |
| BIOWL1-15 | 2026-09-05 23:23:27 | 48.58135 | 9.73897 | 125° | 130km/h | 12229m | 4m/s | -57.1°C | 38.2% | 203.9hPa | 2.8V | 18:12:15 | 00:54:08 | 00:00:00 | |
| DF1GD-15 | 2026-09-05 23:23:26 | 48.58135 | 9.73897 | 126° | 130km/h | 12229m | 4.0m/s | -57.1°C | 32.4% | 203.9hPa | 2.8V | 00:00:00 | 00:00:00 | 00:00:00 | |
| DO3MHA-11 | 2026-09-05 23:23:22 | 48.58233 | 9.73691 | 127° | 135km/h | 12208m | 3.5m/s | -56.9°C | 38.9% | 204.5hPa | 2.8V | 00:00:00 | 00:54:03 | 00:00:00 | |
| DM0DOS-11 | 2026-09-05 23:23:20 | 48.58293 | 9.73562 | 124° | 137km/h | 12197m | 3.1m/s | -56.8°C | 38.3% | 204.9hPa | 2.8V | 08:30:00 | 00:54:00 | 00:00:00 | |
| DK7TD | 2026-09-05 23:23:20 | 48.58274 | 9.73605 | 125° | 139km/h | 12201m | 4.2m/s | -56.9°C | 37.8% | 204.8hPa | 2.7V | 18:12:15 | 00:54:01 | 00:00:00 | |
| BIOWL1-15 | 2026-09-05 23:23:18 | 48.58388 | 9.73354 | 125° | 133km/h | 12176m | 3.9m/s | -56.6°C | 37.1% | 205.7hPa | 2.7V | 18:12:15 | 00:53:55 | 00:00:00 | |
| DJ8HS-15 | 2026-09-05 23:23:18 | 48.58312 | 9.73519 | 125° | 135km/h | 12193m | 4.6m/s | -56.7°C | 38.0% | 205.0hPa | 2.7V | 00:00:00 | 00:53:59 | 00:00:00 | |
| HARRO8 | 2026-09-05 23:23:16 | 48.58350 | 9.73437 | 124° | 130km/h | 12185m | 3.8m/s | -56.7°C | 31.1% | 205.4hPa | 2.7V | 00:00:00 | 00:00:00 | 00:00:00 | |
| DM0DOS-11 | 2026-09-05 23:23:14 | 48.58489 | 9.73139 | 125° | 142km/h | 12155m | 4.7m/s | -56.4°C | 36.7% | 206.3hPa | 2.7V | 08:30:00 | 00:53:50 | 00:00:00 | |
| DK7TD | 2026-09-05 23:23:09 | 48.58489 | 9.73139 | 125° | 142km/h | 12155m | 4.7m/s | -56.4°C | 36.2% | 206.3hPa | 2.7V | 18:12:15 | 00:53:50 | 00:00:00 | |
| BIOWL1-15 | 2026-09-05 23:23:05 | 48.58569 | 9.72967 | 124° | 135km/h | 12139m | 5.1m/s | -56.3°C | 35.6% | 206.8hPa | 2.7V | 18:12:15 | 00:53:46 | 00:00:00 | |
| DB0UT-7 | 2026-09-05 23:23:03 | 48.58606 | 9.72882 | 124° | 135km/h | 12130m | 4.8m/s | -56.1°C | 36.0% | 207.1hPa | 2.7V | 00:00:00 | 00:00:00 | 00:00:00 | |
| DO3MHA-11 | 2026-09-05 23:23:02 | 48.58625 | 9.72840 | 125° | 135km/h | 12126m | 3.6m/s | -56.1°C | 35.9% | 207.2hPa | 2.7V | 00:00:00 | 00:53:43 | 00:00:00 | |
| DM0DOS-11 | 2026-09-05 23:23:00 | 48.58683 | 9.72714 | 125° | 137km/h | 12113m | 3.3m/s | -56°C | 35.3% | 207.7hPa | 2.7V | 08:30:00 | 00:53:40 | 00:00:00 | |
| DK7TD | 2026-09-05 23:22:59 | 48.58684 | 9.72714 | 125° | 137km/h | 12113m | 3.3m/s | -56°C | 34.6% | 207.7hPa | 2.7V | 18:12:15 | 00:53:40 | 00:00:00 | |
| BIOWL1-15 | 2026-09-05 23:22:55 | 48.58765 | 9.72545 | 126° | 137km/h | 12097m | 4.8m/s | -55.9°C | 33.9% | 208.2hPa | 2.8V | 18:12:15 | 00:53:36 | 00:00:00 | |
| DK7TD | 2026-09-05 23:22:48 | 48.58904 | 9.72249 | 124° | 135km/h | 12070m | 4.5m/s | -55.6°C | 32.9% | 209.1hPa | 2.7V | 18:12:15 | 00:53:29 | 00:00:00 | |
| BIOWL1-15 | 2026-09-05 23:22:44 | 48.58980 | 9.72082 | 125° | 133km/h | 12054m | 3.7m/s | -55.5°C | 32.8% | 209.6hPa | 2.8V | 18:12:15 | 00:53:25 | 00:00:00 | |
| DK7TD | 2026-09-05 23:22:37 | 48.59114 | 9.71789 | 125° | 133km/h | 12026m | 4.5m/s | -55.2°C | 32.3% | 210.5hPa | 2.7V | 18:12:15 | 00:53:18 | 00:00:00 | |
| BIOWL1-15 | 2026-09-05 23:22:35 | 48.59194 | 9.71621 | 126° | 137km/h | 12009m | 3.8m/s | -55°C | 32.3% | 211.1hPa | 2.8V | 18:12:15 | 00:53:14 | 00:00:00 | |
| DK7TD | 2026-09-05 23:22:27 | 48.59319 | 9.71370 | 125° | 139km/h | 11986m | 3.6m/s | -54.8°C | 32.5% | 211.8hPa | 2.8V | 18:12:15 | 00:53:08 | 00:00:00 | |
| BIOWL1-15 | 2026-09-05 23:22:25 | 48.59398 | 9.71198 | 124° | 137km/h | 11970m | 3.5m/s | -54.7°C | 32.8% | 212.4hPa | 2.7V | 18:12:15 | 00:53:04 | 00:00:00 | |
| DK7TD | 2026-09-05 23:22:16 | 48.59534 | 9.70907 | 125° | 131km/h | 11943m | 5m/s | -54.5°C | 33.3% | 213.3hPa | 2.8V | 18:12:15 | 00:52:57 | 00:00:00 | |
| BIOWL1-15 | 2026-09-05 23:22:12 | 48.59613 | 9.70741 | 126° | 141km/h | 11927m | 2.8m/s | -54.4°C | 33.3% | 213.8hPa | 2.7V | 18:12:15 | 00:52:53 | 00:00:00 | |
| DK7TD | 2026-09-05 23:22:06 | 48.59735 | 9.70487 | 126° | 135km/h | 11903m | 4.2m/s | -54.3°C | 33.2% | 214.6hPa | 2.8V | 18:12:15 | 00:52:47 | 00:00:00 | |
| BIOWL1-15 | 2026-09-05 23:22:01 | 48.59857 | 9.70238 | 125° | 139km/h | 11880m | 4.6m/s | -54.1°C | 34.1% | 215.3hPa | 2.8V | 18:12:15 | 00:52:41 | 00:00:00 | |
| DL6DJ-15 | 2026-09-05 23:21:57 | 48.59916 | 9.70109 | 125° | 135km/h | 11867m | 3.5m/s | -54.0°C | 28.5% | 215.8hPa | 2.7V | 00:00:00 | 00:00:00 | 00:00:00 | |
| DM0DOS-11 | 2026-09-05 23:21:56 | 48.59996 | 9.69943 | 126° | 133km/h | 11852m | 4.5m/s | -53.9°C | 34.4% | 216.3hPa | 2.7V | 08:30:00 | 00:52:34 | 00:00:00 | |
| DK7TD | 2026-09-05 23:21:56 | 48.59936 | 9.70067 | 126° | 135km/h | 11864m | 4m/s | -54°C | 34.3% | 215.9hPa | 2.8V | 18:12:15 | 00:52:37 | 00:00:00 | |
| BIOWL1-15 | 2026-09-05 23:21:52 | 48.60076 | 9.69781 | 126° | 130km/h | 11837m | 3.9m/s | -53.8°C | 34.9% | 216.8hPa | 2.7V | 18:12:15 | 00:52:30 | 00:00:00 | |
| DK7TD | 2026-09-05 23:21:46 | 48.60135 | 9.69659 | 126° | 137km/h | 11824m | 3.7m/s | -53.7°C | 35.2% | 217.3hPa | 2.8V | 18:12:15 | 00:52:27 | 00:00:00 | |
| DM0DOS-11 | 2026-09-05 23:21:44 | 48.60196 | 9.69530 | 125° | 141km/h | 11811m | 5m/s | -53.6°C | 35.5% | 217.7hPa | 2.8V | 08:30:00 | 00:52:24 | 00:00:00 | |
| BIOWL1-15 | 2026-09-05 23:21:39 | 48.60277 | 9.69358 | 126° | 135km/h | 11796m | 3.9m/s | -53.5°C | 34.9% | 218.2hPa | 2.8V | 18:12:15 | 00:52:20 | 00:00:00 | |
| DK7TD | 2026-09-05 23:21:35 | 48.60356 | 9.69196 | 126° | 130km/h | 11780m | 3.6m/s | -53.3°C | 34.3% | 218.8hPa | 2.7V | 18:12:15 | 00:52:16 | 00:00:00 | |
| BIOWL1-15 | 2026-09-05 23:21:29 | 48.60635 | 9.68614 | 124° | 135km/h | 11723m | 5.2m/s | -52.9°C | 31.9% | 220.6hPa | 2.7V | 18:12:15 | 00:52:02 | 00:00:00 | |
| DK7TD | 2026-09-05 23:21:25 | 48.60557 | 9.68780 | 126° | 131km/h | 11740m | 3.3m/s | -53°C | 32.8% | 220.1hPa | 2.8V | 18:12:15 | 00:52:06 | 00:00:00 | |
| DM0DOS-11 | 2026-09-05 23:21:24 | 48.60596 | 9.68698 | 125° | 133km/h | 11732m | 5.3m/s | -52.9°C | 31.9% | 220.4hPa | 2.8V | 08:30:00 | 00:52:04 | 00:00:00 | |
| BIOWL1-15 | 2026-09-05 23:21:17 | 48.60714 | 9.68444 | 127° | 137km/h | 11707m | 2.6m/s | -52.7°C | 31.2% | 221.2hPa | 2.7V | 18:12:15 | 00:51:58 | 00:00:00 | |
| DM0DOS-11 | 2026-09-05 23:21:16 | 48.60797 | 9.68282 | 128° | 135km/h | 11691m | 4.6m/s | -52.6°C | 30.6% | 221.8hPa | 2.8V | 08:30:00 | 00:51:54 | 00:00:00 | |
| DK7TD | 2026-09-05 23:21:14 | 48.60776 | 9.68322 | 128° | 133km/h | 11695m | 3.1m/s | -52.6°C | 31% | 221.7hPa | 2.8V | 18:12:15 | 00:51:55 | 00:00:00 | |
| BIOWL1-15 | 2026-09-05 23:21:06 | 48.60938 | 9.67990 | 125° | 135km/h | 11663m | 5m/s | -52.3°C | 31.1% | 222.8hPa | 2.8V | 18:12:15 | 00:51:47 | 00:00:00 | |
| DK7TD | 2026-09-05 23:21:03 | 48.60997 | 9.67864 | 126° | 137km/h | 11650m | 4.8m/s | -52.2°C | 30.7% | 223.2hPa | 2.8V | 18:12:15 | 00:51:44 | 00:00:00 | |
| OE5DXL-15 | 2026-09-05 23:21:03 | 48.60997 | 9.67864 | 126° | 135km/h | 11650m | 4.7m/s | 0°C | 0% | 0hPa | 2.8V | 00:00:00 | 00:00:00 | 00:00:00 | |
| DO3MHA-11 | 2026-09-05 23:21:02 | 48.61018 | 9.67822 | 126° | 135km/h | 11646m | 4.0m/s | -52.1°C | 29.7% | 223.3hPa | 2.8V | 00:00:00 | 00:51:43 | 00:00:00 | |
| DO3MHA-12 | 2026-09-05 23:21:00 | 48.61058 | 9.67738 | 127° | 135km/h | 11637m | 3.6m/s | -52.0°C | 29.1% | 223.6hPa | 2.8V | 00:00:00 | 00:51:41 | 00:00:00 | |
| DJ8HS-15 | 2026-09-05 23:20:58 | 48.61098 | 9.67654 | 126° | 137km/h | 11628m | 3.8m/s | -52.0°C | 28.4% | 224.0hPa | 2.8V | 00:00:00 | 00:51:39 | 00:00:00 | |
| DG9SBQ-11 | 2026-09-05 23:20:57 | 48.61098 | 9.67654 | 126° | 137km/h | 11628m | 3.9m/s | -52.0°C | 23.6% | 224.0hPa | 2.8V | 00:00:00 | 00:00:00 | 00:00:00 | |
| DM0DOS-11 | 2026-09-05 23:20:56 | 48.61196 | 9.67442 | 125° | 135km/h | 11606m | 4.7m/s | -51.8°C | 27.9% | 224.8hPa | 2.8V | 08:30:00 | 00:51:34 | 00:00:00 | |
| BIOWL1-15 | 2026-09-05 23:20:56 | 48.61137 | 9.67569 | 125° | 135km/h | 11619m | 3.2m/s | -51.9°C | 28.9% | 224.3hPa | 2.7V | 18:12:15 | 00:51:37 | 00:00:00 | |
| DK7TD | 2026-09-05 23:20:52 | 48.61216 | 9.67400 | 125° | 135km/h | 11602m | 3.7m/s | -51.8°C | 28.5% | 224.9hPa | 2.8V | 18:12:15 | 00:51:33 | 00:00:00 | |
| DO3MHA-11 | 2026-09-05 23:20:52 | 48.61216 | 9.67400 | 126° | 137km/h | 11603m | 3.7m/s | -51.7°C | 27.8% | 224.8hPa | 2.7V | 00:00:00 | 00:51:33 | 00:00:00 | |
| DO3MHA-12 | 2026-09-05 23:20:50 | 48.61256 | 9.67316 | 127° | 137km/h | 11593m | 4.0m/s | -51.7°C | 27.5% | 225.1hPa | 2.7V | 00:00:00 | 00:51:31 | 00:00:00 | |
| DM0DOS-11 | 2026-09-05 23:20:44 | 48.61396 | 9.67019 | 124° | 137km/h | 11562m | 4.7m/s | -51.5°C | 26.7% | 226.2hPa | 2.7V | 08:30:00 | 00:51:24 | 00:00:00 | |
| BIOWL1-15 | 2026-09-05 23:20:43 | 48.61397 | 9.67019 | 124° | 137km/h | 11562m | 4.7m/s | -51.5°C | 27.5% | 226.2hPa | 2.7V | 18:12:15 | 00:51:24 | 00:00:00 | |
| DK7TD | 2026-09-05 23:20:41 | 48.61435 | 9.66932 | 123° | 137km/h | 11553m | 3.2m/s | -51.4°C | 27% | 226.5hPa | 2.8V | 18:12:15 | 00:51:22 | 00:00:00 | |
| DG9SBQ-11 | 2026-09-05 23:20:40 | 48.61435 | 9.66932 | 124° | 137km/h | 11553m | 3.2m/s | -51.4°C | 21.9% | 226.5hPa | 2.7V | 00:00:00 | 00:00:00 | 00:00:00 | |
| DF7PN | 2026-09-05 23:20:39 | 48.61490 | 9.66802 | 121° | 131km/h | 11541m | 3.0m/s | -51.3°C | 21.7% | 227.0hPa | 2.7V | 00:00:00 | 00:00:00 | 00:00:00 | |
| DJ8HS-15 | 2026-09-05 23:20:38 | 48.61490 | 9.66802 | 122° | 137km/h | 11542m | 3.0m/s | -51.3°C | 26.2% | 226.9hPa | 2.7V | 00:00:00 | 00:51:19 | 00:00:00 | |
| DM0DOS-11 | 2026-09-05 23:20:36 | 48.61584 | 9.66585 | 124° | 139km/h | 11520m | 4.8m/s | -51.1°C | 25.8% | 227.7hPa | 2.7V | 08:30:00 | 00:51:14 | 00:00:00 | |
| DK7TD | 2026-09-05 23:20:31 | 48.61625 | 9.66500 | 126° | 137km/h | 11511m | 3.6m/s | -51.1°C | 26.4% | 228hPa | 2.8V | 18:12:15 | 00:51:12 | 00:00:00 | |
| DO3MHA-12 | 2026-09-05 23:20:30 | 48.61645 | 9.66457 | 127° | 137km/h | 11507m | 5.0m/s | -51.0°C | 26.0% | 228.1hPa | 2.7V | 00:00:00 | 00:51:11 | 00:00:00 | |
| DG9SBQ-11 | 2026-09-05 23:20:29 | 48.61645 | 9.66457 | 128° | 137km/h | 11507m | 5.1m/s | -51.0°C | 21.5% | 228.1hPa | 2.7V | 00:00:00 | 00:00:00 | 00:00:00 | |
| NBG1-10 | 2026-09-05 23:20:25 | 48.61745 | 9.66247 | 125° | 131km/h | 11486m | 3.8m/s | -50.8°C | 25.7% | 228.9hPa | 2.7V | 00:00:00 | 00:51:06 | 00:00:00 | |
| DM0DOS-11 | 2026-09-05 23:20:24 | 48.61785 | 9.66160 | 125° | 139km/h | 11477m | 4.5m/s | -50.8°C | 25.7% | 229.2hPa | 2.7V | 08:30:00 | 00:51:04 | 00:00:00 | |
| DK7TD | 2026-09-05 23:20:21 | 48.61826 | 9.66074 | 125° | 137km/h | 11468m | 4.9m/s | -50.7°C | 26.5% | 229.6hPa | 2.8V | 18:12:15 | 00:51:02 | 00:00:00 | |
| DO3MHA-12 | 2026-09-05 23:20:20 | 48.61845 | 9.66031 | 125° | 131km/h | 11464m | 4.5m/s | -50.6°C | 25.9% | 229.6hPa | 2.7V | 00:00:00 | 00:51:01 | 00:00:00 | |
| DJ8HS-15 | 2026-09-05 23:20:18 | 48.61882 | 9.65947 | 124° | 131km/h | 11456m | 4.2m/s | -50.5°C | 25.9% | 229.9hPa | 2.7V | 00:00:00 | 00:50:59 | 00:00:00 | |
| DM0DOS-11 | 2026-09-05 23:20:16 | 48.61979 | 9.65745 | 126° | 130km/h | 11433m | 4.2m/s | -50.4°C | 26.9% | 230.8hPa | 2.7V | 08:30:00 | 00:50:54 | 00:00:00 | |
| DK7TD | 2026-09-05 23:20:11 | 48.62039 | 9.65626 | 128° | 131km/h | 11420m | 3.4m/s | -50.3°C | 28.3% | 231.2hPa | 2.8V | 18:12:15 | 00:50:51 | 00:00:00 | |
| HARRO8 | 2026-09-05 23:20:11 | 48.62039 | 9.65626 | 127° | 130km/h | 11420m | 3.4m/s | -50.3°C | 23.1% | 231.2hPa | 2.7V | 00:00:00 | 00:00:00 | 00:00:00 | |
| DB0NH | 2026-09-05 23:20:10 | 48.62039 | 9.65626 | 128° | 130km/h | 11420m | 3.4m/s | -50.3°C | 27.7% | 231.2hPa | 2.7V | 00:00:00 | 00:50:51 | 00:00:00 | |
| DF7PN | 2026-09-05 23:20:08 | 48.62097 | 9.65505 | 123° | 131km/h | 11408m | 3.3m/s | -50.2°C | 23.8% | 231.7hPa | 2.8V | 00:00:00 | 00:00:00 | 00:00:00 | |
| DM0DOS-11 | 2026-09-05 23:20:05 | 48.62193 | 9.65295 | 125° | 131km/h | 11387m | 3.9m/s | -50.1°C | 29.6% | 232.4hPa | 2.8V | 08:30:00 | 00:50:43 | 00:00:00 | |
| DK7TD | 2026-09-05 23:20:00 | 48.62232 | 9.65214 | 126° | 130km/h | 11378m | 4.5m/s | -50°C | 30.5% | 232.7hPa | 2.8V | 18:12:15 | 00:50:41 | 00:00:00 | |
| DO3MHA-12 | 2026-09-05 23:20:00 | 48.62232 | 9.65214 | 127° | 130km/h | 11379m | 4.4m/s | -50.0°C | 29.8% | 232.7hPa | 2.8V | 00:00:00 | 00:50:41 | 00:00:00 | |
| DJ8HS-15 | 2026-09-05 23:19:58 | 48.62270 | 9.65134 | 126° | 128km/h | 11370m | 5.0m/s | -49.9°C | 30.0% | 233.0hPa | 2.8V | 00:00:00 | 00:50:39 | 00:00:00 | |
| DF1GD-15 | 2026-09-05 23:19:57 | 48.62270 | 9.65134 | 127° | 128km/h | 11370m | 5.0m/s | -49.9°C | 25.4% | 233.0hPa | 2.8V | 00:00:00 | 00:00:00 | 00:00:00 | |
| DM0DOS-11 | 2026-09-05 23:19:56 | 48.62386 | 9.64897 | 127° | 133km/h | 11346m | 4.3m/s | -49.7°C | 29.8% | 233.9hPa | 2.8V | 08:30:00 | 00:50:33 | 00:00:00 | |
| DK7TD | 2026-09-05 23:19:50 | 48.62426 | 9.64817 | 127° | 130km/h | 11337m | 3.4m/s | -49.7°C | 30.9% | 234.2hPa | 2.8V | 18:12:15 | 00:50:31 | 00:00:00 | |
| DO3MHA-12 | 2026-09-05 23:19:50 | 48.62426 | 9.64817 | 128° | 128km/h | 11337m | 3.3m/s | -49.6°C | 30.2% | 234.2hPa | 2.8V | 00:00:00 | 00:50:31 | 00:00:00 | |
| DM7RM-13 | 2026-09-05 23:19:48 | 48.62446 | 9.64777 | 127° | 131km/h | 11333m | 4.6m/s | -49.6°C | 25.6% | 234.3hPa | 2.8V | 00:00:00 | 00:00:00 | 00:00:00 | |
| DM0DOS-11 | 2026-09-05 23:19:45 | 48.62573 | 9.64499 | 123° | 126km/h | 11302m | 3.8m/s | -49.4°C | 30.8% | 235.4hPa | 2.8V | 08:30:00 | 00:50:23 | 00:00:00 | |
| DO3MHA-11 | 2026-09-05 23:19:42 | 48.62573 | 9.64499 | 124° | 124km/h | 11302m | 3.7m/s | -49.3°C | 30.8% | 235.4hPa | 2.7V | 00:00:00 | 00:50:23 | 00:00:00 | |
| DG9SBQ-11 | 2026-09-05 23:19:41 | 48.62573 | 9.64499 | 125° | 126km/h | 11302m | 3.8m/s | -49.4°C | 26.1% | 235.4hPa | 2.7V | 00:00:00 | 00:00:00 | 00:00:00 | |
| DO3MHA-12 | 2026-09-05 23:19:40 | 48.62609 | 9.64419 | 125° | 124km/h | 11294m | 4.8m/s | -49.2°C | 30.8% | 235.7hPa | 2.7V | 00:00:00 | 00:50:21 | 08:30:00 | |
| HARRO8 | 2026-09-05 23:19:39 | 48.62626 | 9.64380 | 125° | 120km/h | 11289m | 5.6m/s | -49.3°C | 26.6% | 235.9hPa | 2.7V | 00:00:00 | 00:00:00 | 00:00:00 | |
| DK7TD | 2026-09-05 23:19:39 | 48.62626 | 9.64380 | 125° | 120km/h | 11289m | 5.6m/s | -49.3°C | 32% | 235.9hPa | 2.7V | 18:12:15 | 00:50:20 | 00:00:00 | |
| DJ8HS-15 | 2026-09-05 23:19:38 | 48.62644 | 9.64343 | 126° | 124km/h | 11285m | 3.5m/s | -49.3°C | 31.6% | 236.0hPa | 2.7V | 00:00:00 | 00:50:19 | 00:00:00 | |
| DF1GD-15 | 2026-09-05 23:19:36 | 48.62662 | 9.64306 | 127° | 120km/h | 11281m | 4.7m/s | -49.3°C | 27.1% | 236.2hPa | 2.8V | 00:00:00 | 00:00:00 | 00:00:00 | |
| DM0DOS-11 | 2026-09-05 23:19:35 | 48.62753 | 9.64110 | 124° | 124km/h | 11257m | 5.6m/s | -49.1°C | 32.6% | 237hPa | 2.8V | 08:30:00 | 00:50:13 | 00:00:00 | |
| DK7TD | 2026-09-05 23:19:28 | 48.62820 | 9.63947 | 122° | 130km/h | 11239m | 3m/s | -48.9°C | 33% | 237.8hPa | 2.7V | 18:12:15 | 00:50:09 | 00:00:00 | |
| DM7RM-13 | 2026-09-05 23:19:26 | 48.62838 | 9.63905 | 123° | 131km/h | 11234m | 7.0m/s | -48.9°C | 27.2% | 237.8hPa | 2.8V | 00:00:00 | 00:00:00 | 00:00:00 | |
| DM0DOS-11 | 2026-09-05 23:19:25 | 48.62933 | 9.63714 | 126° | 122km/h | 11205m | 6.9m/s | -48.7°C | 32.3% | 238.9hPa | 2.8V | 08:30:00 | 00:50:03 | 00:00:00 | |
| DK7TD | 2026-09-05 23:19:17 | 48.63019 | 9.63522 | 125° | 117km/h | 11182m | 3.8m/s | -48.5°C | 33.2% | 239.8hPa | 2.8V | 18:12:15 | 00:49:58 | 00:00:00 | |
| DG9SBQ-11 | 2026-09-05 23:19:17 | 48.63018 | 9.63522 | 126° | 117km/h | 11182m | 3.8m/s | -48.5°C | 27.7% | 239.8hPa | 2.7V | 00:00:00 | 00:00:00 | 00:00:00 | |
| DF1GD-15 | 2026-09-05 23:19:16 | 48.63018 | 9.63522 | 126° | 117km/h | 11182m | 3.8m/s | -48.5°C | 27.7% | 239.8hPa | 2.7V | 00:00:00 | 00:00:00 | 00:00:00 | |
| DM0DOS-11 | 2026-09-05 23:19:15 | 48.63109 | 9.63336 | 126° | 122km/h | 11160m | 5.3m/s | -48.3°C | 31.8% | 240.6hPa | 2.7V | 08:30:00 | 00:49:53 | 00:00:00 | |
| DK7TD | 2026-09-05 23:19:07 | 48.63201 | 9.63154 | 128° | 119km/h | 11138m | 5.2m/s | -48.1°C | 32.3% | 241.3hPa | 2.7V | 18:12:15 | 00:49:48 | 00:00:00 | |
| DM7RM-13 | 2026-09-05 23:19:06 | 48.63201 | 9.63154 | 129° | 119km/h | 11138m | 5.2m/s | -48.1°C | 27.0% | 241.3hPa | 2.7V | 00:00:00 | 00:00:00 | 00:00:00 | |
| DG9SBQ-11 | 2026-09-05 23:19:05 | 48.63220 | 9.63118 | 128° | 120km/h | 11133m | 4.6m/s | -48.1°C | 27.3% | 241.5hPa | 2.7V | 00:00:00 | 00:00:00 | 00:00:00 | |
| DB0UT-7 | 2026-09-05 23:19:04 | 48.63275 | 9.63005 | 127° | 119km/h | 11120m | 3.8m/s | -47.9°C | 31.9% | 242.0hPa | 2.7V | 00:00:00 | 00:00:00 | 08:30:00 | |
| DO3MHA-11 | 2026-09-05 23:19:02 | 48.63293 | 9.62968 | 128° | 119km/h | 11116m | 4.3m/s | -47.9°C | 31.5% | 242.1hPa | 2.8V | 00:00:00 | 00:49:43 | 00:00:00 | |
| DM0DOS-11 | 2026-09-05 23:19:00 | 48.63403 | 9.62749 | 127° | 117km/h | 11090m | 4.3m/s | -47.7°C | 31.1% | 243.1hPa | 2.8V | 08:30:00 | 00:49:37 | 00:00:00 | |
| DK7TD | 2026-09-05 23:18:57 | 48.63385 | 9.62785 | 127° | 119km/h | 11094m | 4.7m/s | -47.7°C | 31.5% | 242.9hPa | 2.7V | 18:12:15 | 00:49:38 | 00:00:00 | |
| DL6DJ-15 | 2026-09-05 23:18:51 | 48.63494 | 9.62572 | 128° | 119km/h | 11069m | 5.4m/s | -47.5°C | 25.7% | 243.9hPa | 2.7V | 00:00:00 | 00:00:00 | 00:00:00 | |
| DM0DOS-11 | 2026-09-05 23:18:50 | 48.63591 | 9.62392 | 128° | 119km/h | 11044m | 4.6m/s | -47.2°C | 29.7% | 244.8hPa | 2.7V | 08:30:00 | 00:49:27 | 00:00:00 | |
| DK7TD | 2026-09-05 23:18:46 | 48.63591 | 9.62392 | 129° | 119km/h | 11044m | 4.6m/s | -47.2°C | 30.4% | 244.8hPa | 2.7V | 18:12:15 | 00:49:27 | 00:00:00 | |
| DK7TD | 2026-09-05 23:18:35 | 48.63792 | 9.62002 | 131° | 119km/h | 10994m | 4m/s | -46.8°C | 29.3% | 246.7hPa | 2.8V | 18:12:15 | 00:49:16 | 00:00:00 | |
| DF7PN | 2026-09-05 23:18:35 | 48.63812 | 9.61968 | 130° | 117km/h | 10990m | 4.3m/s | -46.7°C | 24.0% | 246.8hPa | 2.8V | 00:00:00 | 00:00:00 | 00:00:00 | |
| DB0UT-7 | 2026-09-05 23:18:33 | 48.63831 | 9.61934 | 131° | 119km/h | 10985m | 5.9m/s | -46.6°C | 28.0% | 246.9hPa | 2.8V | 00:00:00 | 00:49:14 | 00:00:00 | |
| DO3MHA-11 | 2026-09-05 23:18:32 | 48.63851 | 9.61899 | 131° | 117km/h | 10980m | 4.0m/s | -46.6°C | 27.9% | 247.2hPa | 2.8V | 00:00:00 | 00:49:13 | 00:00:00 | |
| DG9SBQ-11 | 2026-09-05 23:18:30 | 48.63888 | 9.61829 | 129° | 117km/h | 10971m | 4.1m/s | -46.6°C | 23.9% | 247.5hPa | 2.8V | 00:00:00 | 00:00:00 | 00:00:00 | |
| DF3TZ-5 | 2026-09-05 23:18:28 | 48.63925 | 9.61759 | 127° | 117km/h | 10962m | 4.9m/s | -46.5°C | 23.8% | 247.9hPa | 2.8V | 00:00:00 | 00:00:00 | 00:00:00 | |
| DM0DOS-11 | 2026-09-05 23:18:27 | 48.64033 | 9.61547 | 128° | 117km/h | 10935m | 4.8m/s | -46.2°C | 27.2% | 248.9hPa | 2.8V | 08:30:00 | 00:49:03 | 00:00:00 | |
| DK7TD | 2026-09-05 23:18:24 | 48.63996 | 9.61617 | 128° | 117km/h | 10944m | 5.6m/s | -46.3°C | 28.2% | 248.5hPa | 2.8V | 18:12:15 | 00:49:05 | 00:00:00 | |
| BIOWL1-15 | 2026-09-05 23:18:16 | 48.64149 | 9.61336 | 131° | 120km/h | 10908m | 5.2m/s | -46°C | 27.6% | 249.9hPa | 2.8V | 18:12:15 | 00:48:57 | 00:00:00 | |
| DK7TD | 2026-09-05 23:18:13 | 48.64206 | 9.61231 | 128° | 119km/h | 10896m | 5.1m/s | -45.9°C | 27.3% | 250.3hPa | 2.8V | 18:12:15 | 00:48:54 | 00:00:00 | |
| NBG1-10 | 2026-09-05 23:18:13 | 48.64206 | 9.61231 | 129° | 117km/h | 10896m | 5.1m/s | -45.8°C | 26.3% | 250.3hPa | 2.7V | 00:00:00 | 00:48:54 | 00:00:00 | |
| DO3MHA-11 | 2026-09-05 23:18:12 | 48.64224 | 9.61195 | 128° | 117km/h | 10892m | 3.3m/s | -45.8°C | 26.2% | 250.5hPa | 2.7V | 00:00:00 | 00:48:53 | 00:00:00 | |
| DO3MHA-12 | 2026-09-05 23:18:10 | 48.64261 | 9.61125 | 130° | 117km/h | 10883m | 3.8m/s | -45.7°C | 26.0% | 250.8hPa | 2.7V | 00:00:00 | 00:48:51 | 08:30:00 | |
| DM0DOS-11 | 2026-09-05 23:18:06 | 48.64441 | 9.60776 | 126° | 111km/h | 10839m | 3.3m/s | -45.3°C | 25.2% | 252.5hPa | 2.8V | 08:30:00 | 00:48:41 | 00:00:00 | |
| BIOWL1-15 | 2026-09-05 23:18:05 | 48.64355 | 9.60949 | 129° | 115km/h | 10860m | 3.9m/s | -45.5°C | 26.4% | 251.7hPa | 2.8V | 18:12:15 | 00:48:46 | 00:00:00 | |
| DK7TD | 2026-09-05 23:18:02 | 48.64407 | 9.60845 | 126° | 113km/h | 10848m | 3.8m/s | -45.4°C | 26.3% | 252.2hPa | 2.8V | 18:12:15 | 00:48:43 | 00:00:00 | |
| BIOWL1-15 | 2026-09-05 23:17:58 | 48.64553 | 9.60562 | 129° | 124km/h | 10812m | 4.4m/s | -45.1°C | 25.5% | 253.5hPa | 2.8V | 18:12:15 | 00:48:35 | 00:00:00 | |
| DF3TZ-5 | 2026-09-05 23:17:57 | 48.64494 | 9.60670 | 128° | 119km/h | 10826m | 4.5m/s | -45.2°C | 21.2% | 253.0hPa | 2.8V | 00:00:00 | 00:00:00 | 00:00:00 | |
| DM0DOS-11 | 2026-09-05 23:17:54 | 48.64645 | 9.60380 | 126° | 113km/h | 10791m | 4m/s | -44.9°C | 24.1% | 254.3hPa | 2.8V | 08:30:00 | 00:48:30 | 00:00:00 | |
| DK7TD | 2026-09-05 23:17:51 | 48.64610 | 9.60451 | 127° | 119km/h | 10800m | 4.9m/s | -45°C | 25.2% | 254hPa | 2.8V | 18:12:15 | 00:48:32 | 00:00:00 | |
| DL6DJ-15 | 2026-09-05 23:17:49 | 48.64645 | 9.60380 | 126° | 111km/h | 10791m | 4.0m/s | -44.9°C | 20.6% | 254.3hPa | 2.8V | 00:00:00 | 00:00:00 | 00:00:00 | |
| DL1ZP-14 | 2026-09-05 23:17:46 | 48.64695 | 9.60276 | 125° | 111km/h | 10777m | 4.4m/s | -44.8°C | 20.5% | 254.8hPa | 2.8V | 00:00:00 | 00:00:00 | 00:00:00 | |
| BIOWL1-15 | 2026-09-05 23:17:43 | 48.64747 | 9.60171 | 128° | 120km/h | 10765m | 4.9m/s | -44.7°C | 24.7% | 255.3hPa | 2.8V | 18:12:15 | 00:48:24 | 00:00:00 | |
| DK7TD | 2026-09-05 23:17:40 | 48.64805 | 9.60061 | 128° | 122km/h | 10751m | 5.1m/s | -44.5°C | 24.2% | 255.9hPa | 2.9V | 18:12:15 | 00:48:21 | 00:00:00 | |
| BIOWL1-15 | 2026-09-05 23:17:34 | 48.64943 | 9.59773 | 124° | 113km/h | 10714m | 5.4m/s | -44.2°C | 23.3% | 257.3hPa | 2.8V | 18:12:15 | 00:48:13 | 00:00:00 | |
| DK7TD | 2026-09-05 23:17:30 | 48.64975 | 9.59701 | 125° | 115km/h | 10705m | 4.2m/s | -44.2°C | 23.1% | 257.5hPa | 2.7V | 18:12:15 | 00:48:11 | 00:00:00 | |
| DO3MHA-12 | 2026-09-05 23:17:30 | 48.64975 | 9.59701 | 125° | 115km/h | 10706m | 4.1m/s | -44.1°C | 22.1% | 257.5hPa | 2.9V | 00:00:00 | 00:48:11 | 00:00:00 | |
| DF3TZ-5 | 2026-09-05 23:17:26 | 48.65045 | 9.59560 | 128° | 117km/h | 10687m | 4.0m/s | -44.0°C | 18.9% | 258.2hPa | 2.9V | 00:00:00 | 00:00:00 | 00:00:00 | |
| DM0DOS-11 | 2026-09-05 23:17:25 | 48.65408 | 9.58831 | 126° | 111km/h | 10598m | 4.1m/s | -43.1°C | 20.7% | 261.6hPa | 2.9V | 08:30:00 | 00:47:46 | 00:00:00 | |
| DM7RM-13 | 2026-09-05 23:17:23 | 48.65082 | 9.59491 | 130° | 115km/h | 10679m | 3.4m/s | -43.9°C | 19.1% | 258.6hPa | 2.8V | 00:00:00 | 00:00:00 | 00:00:00 | |
| BIOWL1-15 | 2026-09-05 23:17:22 | 48.65583 | 9.58483 | 126° | 115km/h | 10557m | 4m/s | -42.8°C | 20.6% | 263.3hPa | 2.8V | 18:12:15 | 00:47:36 | 00:00:00 | |
| DK7TD | 2026-09-05 23:17:20 | 48.65165 | 9.59315 | 124° | 110km/h | 10659m | 4.1m/s | -43.7°C | 22.9% | 259.4hPa | 2.8V | 18:12:15 | 00:48:00 | 00:00:00 | |
| DO3MHA-12 | 2026-09-05 23:17:19 | 48.65321 | 9.59003 | 129° | 113km/h | 10620m | 3.4m/s | -43.3°C | 21.1% | 260.8hPa | 2.7V | 00:00:00 | 00:47:51 | 00:00:00 | |
| DG9SBQ-11 | 2026-09-05 23:17:18 | 48.65321 | 9.59003 | 130° | 115km/h | 10620m | 3.5m/s | -43.4°C | 18.0% | 260.8hPa | 2.8V | 00:00:00 | 00:00:00 | 00:00:00 | |
| DM0DOS-11 | 2026-09-05 23:17:16 | 48.65583 | 9.58483 | 126° | 115km/h | 10557m | 4m/s | -42.8°C | 19.6% | 263.3hPa | 2.8V | 08:30:00 | 00:47:36 | 00:00:00 | |
| DK7TD | 2026-09-05 23:17:15 | 48.65357 | 9.58934 | 128° | 115km/h | 10611m | 4.1m/s | -43.3°C | 22% | 261.2hPa | 2.8V | 18:12:15 | 00:47:49 | 00:00:00 | |
| BIOWL1-15 | 2026-09-05 23:17:05 | 48.65600 | 9.58447 | 126° | 113km/h | 10553m | 4m/s | -42.7°C | 20.5% | 263.4hPa | 2.9V | 18:12:15 | 00:47:35 | 00:00:00 | |
| DK7TD | 2026-09-05 23:17:05 | 48.65529 | 9.58590 | 128° | 119km/h | 10570m | 2.8m/s | -42.9°C | 21.1% | 262.8hPa | 2.9V | 18:12:15 | 00:47:39 | 00:00:00 | |
| DB0UT-7 | 2026-09-05 23:17:04 | 48.65442 | 9.58761 | 127° | 113km/h | 10590m | 3.7m/s | -43.0°C | 20.6% | 262.0hPa | 2.8V | 00:00:00 | 00:00:00 | 00:00:00 | |
| DF3TZ-5 | 2026-09-05 23:16:55 | 48.65583 | 9.58483 | 126° | 113km/h | 10557m | 4.0m/s | -42.8°C | 16.6% | 263.3hPa | 2.8V | 00:00:00 | 00:00:00 | 00:00:00 | |
| DG9SBQ-11 | 2026-09-05 23:16:53 | 48.65599 | 9.58447 | 127° | 113km/h | 10553m | 4.0m/s | -42.7°C | 16.5% | 263.4hPa | 2.8V | 00:00:00 | 00:00:00 | 00:00:00 | |
| DO3MHA-11 | 2026-09-05 23:16:52 | 48.65634 | 9.58378 | 127° | 113km/h | 10544m | 4.3m/s | -42.6°C | 19.0% | 263.7hPa | 2.8V | 00:00:00 | 00:47:33 | 00:00:00 | |
| DF1GD-15 | 2026-09-05 23:16:51 | 48.65634 | 9.58377 | 128° | 113km/h | 10544m | 4.3m/s | -42.6°C | 16.2% | 263.8hPa | 2.8V | 00:00:00 | 00:00:00 | 00:00:00 | |
| DM0DOS-11 | 2026-09-05 23:16:50 | 48.65754 | 9.58134 | 126° | 113km/h | 10515m | 4.4m/s | -42.4°C | 18.2% | 265hPa | 2.8V | 08:30:00 | 00:47:26 | 00:00:00 | |
| BIOWL1-15 | 2026-09-05 23:16:47 | 48.65788 | 9.58065 | 127° | 113km/h | 10508m | 3.8m/s | -42.3°C | 18.9% | 265.2hPa | 2.8V | 18:12:15 | 00:47:24 | 00:00:00 | |
| DK7TD | 2026-09-05 23:16:47 | 48.65719 | 9.58205 | 126° | 117km/h | 10523m | 4m/s | -42.4°C | 19.2% | 264.7hPa | 2.9V | 18:12:15 | 00:47:28 | 00:00:00 | |
| DL6DJ-15 | 2026-09-05 23:16:47 | 48.65737 | 9.58169 | 125° | 115km/h | 10519m | 4.0m/s | -42.4°C | 15.5% | 264.8hPa | 2.8V | 00:00:00 | 00:00:00 | 00:00:00 | |
| DL1ZP-14 | 2026-09-05 23:16:44 | 48.65771 | 9.58099 | 126° | 111km/h | 10511m | 3.0m/s | -42.3°C | 15.4% | 265.2hPa | 2.8V | 00:00:00 | 00:00:00 | 00:00:00 | |
| DO3MHA-11 | 2026-09-05 23:16:42 | 48.65805 | 9.58030 | 128° | 113km/h | 10504m | 4.9m/s | -42.2°C | 17.8% | 265.4hPa | 2.9V | 00:00:00 | 00:47:23 | 00:00:00 | |
| DM7RM-13 | 2026-09-05 23:16:41 | 48.65805 | 9.58030 | 128° | 115km/h | 10504m | 4.9m/s | -42.2°C | 15.1% | 265.4hPa | 2.9V | 00:00:00 | 00:00:00 | 00:00:00 | |
| DM0DOS-11 | 2026-09-05 23:16:40 | 48.65929 | 9.57792 | 127° | 113km/h | 10475m | 3.8m/s | -42°C | 17.2% | 266.6hPa | 2.9V | 08:30:00 | 00:47:16 | 00:00:00 | |
| DK7TD | 2026-09-05 23:16:36 | 48.65912 | 9.57826 | 128° | 111km/h | 10480m | 4.4m/s | -42°C | 18.2% | 266.4hPa | 2.9V | 18:12:15 | 00:47:17 | 00:00:00 | |
| BIOWL1-15 | 2026-09-05 23:16:35 | 48.65929 | 9.57792 | 128° | 113km/h | 10475m | 3.8m/s | -42°C | 18.1% | 266.6hPa | 2.9V | 18:12:15 | 00:47:16 | 00:00:00 | |
| NBG1-10 | 2026-09-05 23:16:34 | 48.65947 | 9.57757 | 128° | 115km/h | 10472m | 4.1m/s | -41.9°C | 17.0% | 266.7hPa | 2.8V | 00:00:00 | 00:47:15 | 00:00:00 | |
| DB0UT-7 | 2026-09-05 23:16:33 | 48.65964 | 9.57722 | 127° | 115km/h | 10467m | 4.4m/s | -41.8°C | 16.8% | 266.8hPa | 2.8V | 00:00:00 | 00:47:14 | 00:00:00 | |
| DO3MHA-11 | 2026-09-05 23:16:32 | 48.65980 | 9.57688 | 126° | 115km/h | 10463m | 5.0m/s | -41.8°C | 16.7% | 267.0hPa | 2.8V | 00:00:00 | 00:47:13 | 00:00:00 | |
| DM0DOS-11 | 2026-09-05 23:16:30 | 48.66098 | 9.57436 | 127° | 115km/h | 10433m | 3.6m/s | -41.6°C | 15.6% | 268.1hPa | 2.8V | 08:30:00 | 00:47:06 | 00:00:00 | |
| DK7TD | 2026-09-05 23:16:26 | 48.66081 | 9.57471 | 127° | 117km/h | 10436m | 3.8m/s | -41.6°C | 16.7% | 268.1hPa | 2.8V | 18:12:15 | 00:47:07 | 00:00:00 | |
| BIOWL1-15 | 2026-09-05 23:16:25 | 48.66099 | 9.57436 | 128° | 115km/h | 10433m | 3.6m/s | -41.6°C | 16.4% | 268.1hPa | 2.8V | 18:12:15 | 00:47:06 | 00:00:00 | |
| DF3TZ-5 | 2026-09-05 23:16:24 | 48.66135 | 9.57366 | 128° | 115km/h | 10424m | 4.0m/s | -41.5°C | 12.8% | 268.6hPa | 2.8V | 00:00:00 | 00:00:00 | 00:00:00 | |
| DO3MHA-11 | 2026-09-05 23:16:22 | 48.66153 | 9.57332 | 129° | 115km/h | 10420m | 4.8m/s | -41.4°C | 15.0% | 268.6hPa | 2.8V | 00:00:00 | 00:47:03 | 00:00:00 | |
| DM0DOS-11 | 2026-09-05 23:16:20 | 48.66274 | 9.57086 | 125° | 119km/h | 10390m | 4.1m/s | -41.3°C | 14.6% | 269.8hPa | 2.8V | 08:30:00 | 00:46:56 | 00:00:00 | |
| BIOWL1-15 | 2026-09-05 23:16:16 | 48.66292 | 9.57050 | 127° | 117km/h | 10385m | 4.3m/s | -41.2°C | 15.4% | 270.1hPa | 2.8V | 18:12:15 | 00:46:55 | 00:00:00 | |
| DK7TD | 2026-09-05 23:16:16 | 48.66257 | 9.57123 | 125° | 119km/h | 10394m | 4.6m/s | -41.3°C | 15.3% | 269.7hPa | 2.9V | 18:12:15 | 00:46:57 | 00:00:00 | |
| DL6DJ-15 | 2026-09-05 23:16:16 | 48.66274 | 9.57086 | 125° | 117km/h | 10390m | 4.1m/s | -41.3°C | 12.2% | 269.8hPa | 2.8V | 00:00:00 | 00:00:00 | 00:00:00 | |
| DL1ZP-14 | 2026-09-05 23:16:13 | 48.66310 | 9.57014 | 127° | 117km/h | 10381m | 4.8m/s | -41.2°C | 12.2% | 270.2hPa | 2.8V | 00:00:00 | 00:00:00 | 00:00:00 | |
| DO3MHA-11 | 2026-09-05 23:16:12 | 48.66328 | 9.56979 | 129° | 115km/h | 10377m | 4.1m/s | -41.1°C | 14.7% | 270.4hPa | 2.9V | 00:00:00 | 00:46:53 | 00:00:00 | |
| DG9SBQ-11 | 2026-09-05 23:16:11 | 48.66328 | 9.56979 | 129° | 117km/h | 10377m | 4.2m/s | -41.2°C | 12.3% | 270.4hPa | 2.9V | 00:00:00 | 00:00:00 | 00:00:00 | |
| DM0DOS-11 | 2026-09-05 23:16:10 | 48.66446 | 9.56730 | 126° | 117km/h | 10346m | 5.5m/s | -41°C | 15.5% | 271.6hPa | 2.9V | 08:30:00 | 00:46:46 | 00:00:00 | |
| DK7TD | 2026-09-05 23:16:06 | 48.66428 | 9.56766 | 126° | 117km/h | 10350m | 3.5m/s | -41°C | 16.4% | 271.5hPa | 2.9V | 18:12:15 | 00:46:47 | 00:00:00 | |
| BIOWL1-15 | 2026-09-05 23:16:04 | 48.66464 | 9.56694 | 128° | 117km/h | 10340m | 5.4m/s | -41.1°C | 16.9% | 271.9hPa | 2.8V | 18:12:15 | 00:46:45 | 00:00:00 | |
| DB0UT-7 | 2026-09-05 23:16:03 | 48.66482 | 9.56658 | 128° | 117km/h | 10335m | 4.4m/s | -41.1°C | 16.2% | 272.0hPa | 2.9V | 00:00:00 | 00:00:00 | 00:00:00 | |
| HARRO8 | 2026-09-05 23:16:02 | 48.66518 | 9.56585 | 124° | 117km/h | 10326m | 3.2m/s | -41.0°C | 13.9% | 272.4hPa | 2.7V | 00:00:00 | 00:00:00 | 00:00:00 | |
| NBG1-10 | 2026-09-05 23:16:01 | 48.66518 | 9.56585 | 125° | 117km/h | 10327m | 3.2m/s | -41.0°C | 16.5% | 272.4hPa | 2.7V | 00:00:00 | 00:46:42 | 00:00:00 | |
| DM0DOS-11 | 2026-09-05 23:16:00 | 48.66615 | 9.56368 | 124° | 117km/h | 10301m | 4m/s | -40.9°C | 16.4% | 273.4hPa | 2.8V | 08:30:00 | 00:46:36 | 00:00:00 | |
| DK7TD | 2026-09-05 23:15:55 | 48.66615 | 9.56368 | 125° | 117km/h | 10301m | 4.1m/s | -40.9°C | 17.2% | 273.4hPa | 2.8V | 18:12:15 | 00:46:36 | 00:00:00 | |
| BIOWL1-15 | 2026-09-05 23:15:53 | 48.66669 | 9.56260 | 129° | 120km/h | 10289m | 3.7m/s | -40.8°C | 17% | 273.9hPa | 2.9V | 18:12:15 | 00:46:33 | 00:00:00 | |
| DF3TZ-5 | 2026-09-05 23:15:53 | 48.66669 | 9.56260 | 128° | 119km/h | 10289m | 3.7m/s | -40.8°C | 13.6% | 273.9hPa | 2.9V | 00:00:00 | 00:00:00 | 00:00:00 | |
| DO3MHA-11 | 2026-09-05 23:15:52 | 48.66669 | 9.56260 | 129° | 117km/h | 10289m | 3.7m/s | -40.7°C | 16.0% | 273.9hPa | 2.9V | 00:00:00 | 00:46:33 | 00:00:00 | |
| DM0DOS-11 | 2026-09-05 23:15:50 | 48.66792 | 9.56006 | 122° | 113km/h | 10260m | 5m/s | -40.5°C | 15.6% | 275.1hPa | 2.9V | 08:30:00 | 00:46:26 | 00:00:00 | |
| DK7TD | 2026-09-05 23:15:44 | 48.66807 | 9.55970 | 123° | 117km/h | 10255m | 4.4m/s | -40.5°C | 16.4% | 275.3hPa | 2.9V | 18:12:15 | 00:46:25 | 00:00:00 | |
| BIOWL1-15 | 2026-09-05 23:15:43 | 48.66908 | 9.55743 | 124° | 124km/h | 10231m | 3.9m/s | -40.3°C | 15.2% | 276.3hPa | 2.9V | 18:12:15 | 00:46:19 | 00:00:00 | |
| DO3MHA-11 | 2026-09-05 23:15:42 | 48.66840 | 9.55895 | 125° | 119km/h | 10247m | 4.4m/s | -40.4°C | 15.1% | 275.6hPa | 2.7V | 00:00:00 | 00:46:23 | 08:30:00 | |
| DB0NH | 2026-09-05 23:15:40 | 48.66873 | 9.55820 | 124° | 117km/h | 10239m | 4.9m/s | -40.3°C | 14.4% | 275.8hPa | 2.9V | 00:00:00 | 00:46:21 | 00:00:00 | |
| DM7RM-13 | 2026-09-05 23:15:39 | 48.66873 | 9.55820 | 125° | 120km/h | 10239m | 5.0m/s | -40.4°C | 12.1% | 275.9hPa | 2.9V | 00:00:00 | 00:00:00 | 00:00:00 | |
| DM0DOS-11 | 2026-09-05 23:15:38 | 48.66959 | 9.55628 | 123° | 117km/h | 10219m | 4.2m/s | -40.2°C | 14.7% | 276.8hPa | 2.9V | 08:30:00 | 00:46:16 | 00:00:00 | |
| DK7TD | 2026-09-05 23:15:33 | 48.66991 | 9.55552 | 122° | 115km/h | 10210m | 3.9m/s | -40.1°C | 15.4% | 277.1hPa | 2.9V | 18:12:15 | 00:46:14 | 00:00:00 | |
| DB0UT-7 | 2026-09-05 23:15:33 | 48.66991 | 9.55552 | 122° | 115km/h | 10210m | 3.9m/s | -40.1°C | 14.8% | 277.1hPa | 2.9V | 00:00:00 | 00:46:14 | 00:00:00 | |
| DO3MHA-11 | 2026-09-05 23:15:32 | 48.67006 | 9.55515 | 123° | 115km/h | 10206m | 5.3m/s | -40.0°C | 14.8% | 277.3hPa | 2.9V | 00:00:00 | 00:46:13 | 00:00:00 | |
| DM0DOS-11 | 2026-09-05 23:15:30 | 48.67117 | 9.55257 | 122° | 115km/h | 10176m | 4.4m/s | -39.8°C | 14.5% | 278.5hPa | 2.9V | 08:30:00 | 00:46:06 | 00:00:00 | |
| BIOWL1-15 | 2026-09-05 23:15:29 | 48.67132 | 9.55219 | 122° | 117km/h | 10171m | 4.3m/s | -39.8°C | 14.9% | 278.7hPa | 2.8V | 18:12:15 | 00:46:05 | 00:00:00 | |
| DK7TD | 2026-09-05 23:15:22 | 48.67165 | 9.55143 | 123° | 117km/h | 10164m | 5.1m/s | -39.7°C | 14.4% | 279hPa | 2.9V | 18:12:15 | 00:46:03 | 00:00:00 | |
| DK7TD | 2026-09-05 23:15:11 | 48.67337 | 9.54738 | 123° | 111km/h | 10119m | 3.7m/s | -39.3°C | 11.8% | 280.9hPa | 2.8V | 18:12:15 | 00:45:52 | 00:00:00 | |
| BIOWL1-15 | 2026-09-05 23:15:07 | 48.67520 | 9.54291 | 119° | 111km/h | 10070m | 3.7m/s | -38.8°C | 10.6% | 282.9hPa | 2.9V | 18:12:15 | 00:45:40 | 00:00:00 | |
| DK7TD | 2026-09-05 23:15:00 | 48.67507 | 9.54329 | 119° | 111km/h | 10074m | 4.8m/s | -38.8°C | 10.6% | 282.7hPa | 2.9V | 18:12:15 | 00:45:41 | 00:00:00 | |
| HARRO8 | 2026-09-05 23:14:59 | 48.67520 | 9.54291 | 118° | 111km/h | 10070m | 3.7m/s | -38.8°C | 8.6% | 282.9hPa | 2.9V | 00:00:00 | 00:00:00 | 00:00:00 | |
| DJ8HS-15 | 2026-09-05 23:14:58 | 48.67534 | 9.54253 | 119° | 115km/h | 10066m | 3.4m/s | -38.7°C | 10.4% | 283.0hPa | 2.9V | 00:00:00 | 00:45:39 | 00:00:00 | |
| DM0DOS-11 | 2026-09-05 23:14:57 | 48.67578 | 9.54142 | 122° | 115km/h | 10054m | 3.6m/s | -38.6°C | 10.3% | 0hPa | 2.9V | 08:30:00 | 00:45:36 | 00:00:00 | |
| BIOWL1-15 | 2026-09-05 23:14:51 | 48.67642 | 9.53989 | 122° | 117km/h | 10037m | 5.1m/s | -38.5°C | 9.8% | 284.2hPa | 2.8V | 18:12:15 | 00:45:32 | 00:00:00 | |
| DF3TZ-5 | 2026-09-05 23:14:51 | 48.67658 | 9.53952 | 121° | 113km/h | 10033m | 3.5m/s | -38.4°C | 8.0% | 284.4hPa | 2.8V | 00:00:00 | 00:00:00 | 00:00:00 | |
| DM0DOS-11 | 2026-09-05 23:14:50 | 48.67730 | 9.53763 | 120° | 111km/h | 10012m | 4.1m/s | -38.2°C | 9.5% | 0hPa | 2.8V | 08:30:00 | 00:45:26 | 00:00:00 | |
| DK7TD | 2026-09-05 23:14:49 | 48.67673 | 9.53914 | 121° | 113km/h | 10029m | 4.6m/s | -38.4°C | 9.6% | 284.5hPa | 2.9V | 18:12:15 | 00:45:30 | 00:00:00 | |
| BIOWL1-15 | 2026-09-05 23:14:40 | 48.67804 | 9.53573 | 122° | 120km/h | 9992m | 4.5m/s | -38°C | 8.9% | 286.2hPa | 2.9V | 18:12:15 | 00:45:21 | 00:00:00 | |
| DK7TD | 2026-09-05 23:14:38 | 48.67837 | 9.53497 | 125° | 119km/h | 9983m | 4m/s | -37.9°C | 8.8% | 286.5hPa | 2.8V | 18:12:15 | 00:45:19 | 00:00:00 | |
| DJ8HS-15 | 2026-09-05 23:14:38 | 48.67837 | 9.53497 | 125° | 117km/h | 9983m | 3.9m/s | -37.9°C | 8.9% | 286.5hPa | 2.7V | 00:00:00 | 00:45:19 | 00:00:00 | |
| DM0DOS-11 | 2026-09-05 23:14:37 | 48.67887 | 9.53385 | 122° | 115km/h | 9970m | 3m/s | -37.8°C | 0% | 0hPa | 2.9V | 08:30:00 | 00:45:16 | 00:00:00 | |
| BIOWL1-15 | 2026-09-05 23:14:30 | 48.68076 | 9.52928 | 124° | 113km/h | 9914m | 4.6m/s | -37.4°C | 8.3% | 289.4hPa | 2.9V | 18:12:15 | 00:45:04 | 00:00:00 | |
| DK7TD | 2026-09-05 23:14:29 | 48.68014 | 9.53079 | 121° | 120km/h | 9933m | 4.7m/s | -37.5°C | 8.5% | 288.6hPa | 2.9V | 18:12:15 | 00:45:08 | 00:00:00 | |
| BIOWL1-15 | 2026-09-05 23:14:20 | 48.68125 | 9.52823 | 125° | 110km/h | 9901m | 6.6m/s | -37.3°C | 8.5% | 289.9hPa | 2.9V | 18:12:15 | 00:45:01 | 00:00:00 | |
| DK7TD | 2026-09-05 23:14:16 | 48.68185 | 9.52677 | 121° | 120km/h | 9881m | 6.7m/s | -37.2°C | 9.2% | 290.7hPa | 2.9V | 18:12:15 | 00:44:57 | 00:00:00 | |
| BIOWL1-15 | 2026-09-05 23:14:11 | 48.68305 | 9.52400 | 122° | 115km/h | 9851m | 3.1m/s | -37.1°C | 10.2% | 292hPa | 2.9V | 18:12:15 | 00:44:50 | 00:00:00 | |
| DK7TD | 2026-09-05 23:14:05 | 48.68369 | 9.52257 | 128° | 115km/h | 9830m | 4.2m/s | -37°C | 10.4% | 292.9hPa | 2.9V | 18:12:15 | 00:44:46 | 00:00:00 | |
| BIOWL1-15 | 2026-09-05 23:14:01 | 48.68468 | 9.52041 | 120° | 111km/h | 9803m | 4.2m/s | -36.8°C | 11.1% | 294.1hPa | 2.9V | 18:12:15 | 00:44:40 | 00:00:00 | |
| DK7TD | 2026-09-05 23:13:55 | 48.68525 | 9.51887 | 120° | 117km/h | 9776m | 7.2m/s | -36.7°C | 11% | 295.1hPa | 2.9V | 18:12:15 | 00:44:36 | 00:00:00 | |
| BIOWL1-15 | 2026-09-05 23:13:48 | 48.68645 | 9.51607 | 123° | 102km/h | 9727m | 5m/s | -36.4°C | 11.4% | 297.2hPa | 2.9V | 18:12:15 | 00:44:28 | 00:00:00 | |
| DK7TD | 2026-09-05 23:13:44 | 48.68688 | 9.51508 | 125° | 106km/h | 9710m | 7.5m/s | -36.3°C | 11.5% | 297.9hPa | 2.9V | 18:12:15 | 00:44:25 | 00:00:00 | |
| BIOWL1-15 | 2026-09-05 23:13:39 | 48.68803 | 9.51267 | 127° | 110km/h | 9670m | 5.2m/s | -36°C | 12.2% | 299.6hPa | 2.9V | 18:12:15 | 00:44:18 | 00:00:00 | |
| DK7TD | 2026-09-05 23:13:34 | 48.68849 | 9.51167 | 122° | 104km/h | 9651m | 5.5m/s | -35.9°C | 13% | 300.5hPa | 2.9V | 18:12:15 | 00:44:15 | 00:00:00 | |
| BIOWL1-15 | 2026-09-05 23:13:29 | 48.68944 | 9.50923 | 119° | 110km/h | 9615m | 6.4m/s | -35.7°C | 15.1% | 302hPa | 2.9V | 18:12:15 | 00:44:08 | 00:00:00 | |
| DK7TD | 2026-09-05 23:13:24 | 48.68987 | 9.50818 | 125° | 106km/h | 9600m | 2.7m/s | -35.6°C | 15.8% | 302.8hPa | 2.9V | 18:12:15 | 00:44:05 | 00:00:00 | |
| BIOWL1-15 | 2026-09-05 23:13:16 | 48.69124 | 9.50577 | 131° | 99km/h | 9560m | 7.4m/s | -35.4°C | 17.2% | 304.4hPa | 2.9V | 18:12:15 | 00:43:57 | 00:00:00 | |
| DK7TD | 2026-09-05 23:13:14 | 48.69154 | 9.50517 | 124° | 99km/h | 9546m | 5m/s | -35.2°C | 17.3% | 305.1hPa | 2.8V | 18:12:15 | 00:43:55 | 00:00:00 | |
| BIOWL1-15 | 2026-09-05 23:13:06 | 48.69253 | 9.50272 | 119° | 97km/h | 9484m | 6.6m/s | -34.7°C | 17.5% | 307.8hPa | 2.9V | 18:12:15 | 00:43:47 | 00:00:00 | |
| DK7TD | 2026-09-05 23:13:04 | 48.69279 | 9.50208 | 124° | 100km/h | 9473m | 4.6m/s | -34.6°C | 18.4% | 308.2hPa | 2.9V | 18:12:15 | 00:43:45 | 00:00:00 | |
| DK7TD | 2026-09-05 23:12:53 | 48.69423 | 9.49887 | 124° | 91km/h | 9411m | 6m/s | -34.2°C | 18.3% | 311hPa | 2.9V | 18:12:15 | 00:43:34 | 00:00:00 | |
| DF7PN | 2026-09-05 23:12:53 | 48.69436 | 9.49857 | 121° | 95km/h | 9406m | 4.5m/s | -34.2°C | 14.8% | 311.3hPa | 2.9V | 00:00:00 | 00:00:00 | 00:00:00 | |
| DB0ND-19 | 2026-09-05 23:12:51 | 48.69462 | 9.49793 | 120° | 99km/h | 9397m | 5.0m/s | -34.1°C | 14.6% | 311.7hPa | 2.9V | 00:00:00 | 00:00:00 | 00:00:00 | |
| DF3TZ-5 | 2026-09-05 23:12:47 | 48.69514 | 9.49671 | 124° | 86km/h | 9379m | 3.6m/s | -33.9°C | 14.2% | 312.5hPa | 2.9V | 00:00:00 | 00:00:00 | 00:00:00 | |
| BIOWL1-15 | 2026-09-05 23:12:43 | 48.69548 | 9.49588 | 116° | 86km/h | 9365m | 5.9m/s | 0°C | 0% | 313.1hPa | 2.9V | 18:12:15 | 00:43:24 | 00:00:00 | |
| DK7TD | 2026-09-05 23:12:42 | 48.69557 | 9.49558 | 115° | 89km/h | 9360m | 3.6m/s | -33.8°C | 16.8% | 313.2hPa | 2.9V | 18:12:15 | 00:43:23 | 00:00:00 | |
| BIOWL1-15 | 2026-09-05 23:12:33 | 48.69722 | 9.49122 | 122° | 93km/h | 9274m | 6.2m/s | 0°C | 0% | 0hPa | 2.9V | 18:12:15 | 00:43:09 | 00:00:00 | |
| DK7TD | 2026-09-05 23:12:31 | 48.69687 | 9.49211 | 118° | 91km/h | 9293m | 5.9m/s | -33.4°C | 21.2% | 316.3hPa | 2.8V | 18:12:15 | 00:43:12 | 00:00:00 | |
| DK7TD | 2026-09-05 23:12:21 | 48.69812 | 9.48916 | 122° | 86km/h | 9232m | 7.4m/s | -33°C | 24.2% | 318.9hPa | 2.9V | 18:12:15 | 00:43:02 | 00:00:00 | |
| BIOWL1-15 | 2026-09-05 23:12:19 | 48.69836 | 9.48860 | 125° | 88km/h | 9220m | 5.4m/s | 0°C | 0% | 0hPa | 2.9V | 18:12:15 | 00:43:00 | 00:00:00 | |
| DK7TD | 2026-09-05 23:12:10 | 48.69952 | 9.48606 | 126° | 88km/h | 9172m | 4.4m/s | -32.6°C | 20.5% | 321.8hPa | 2.9V | 18:12:15 | 00:42:51 | 00:00:00 | |
| BIOWL1-15 | 2026-09-05 23:12:08 | 48.69977 | 9.48549 | 122° | 93km/h | 9163m | 4m/s | 0°C | 0% | 0hPa | 2.8V | 18:12:15 | 00:42:49 | 00:00:00 | |
| DK7TD | 2026-09-05 23:11:59 | 48.70096 | 9.48280 | 126° | 93km/h | 9114m | 5.6m/s | -32.2°C | 20.6% | 324.4hPa | 2.9V | 18:12:15 | 00:42:40 | 00:00:00 | |
| BIOWL1-15 | 2026-09-05 23:11:58 | 48.70110 | 9.48250 | 125° | 97km/h | 9109m | 4m/s | 0°C | 0% | 0hPa | 2.8V | 18:12:15 | 00:42:39 | 00:00:00 | |
| DK7TD | 2026-09-05 23:11:49 | 48.70220 | 9.47989 | 123° | 97km/h | 9060m | 7m/s | -31.7°C | 21.1% | 326.9hPa | 2.9V | 18:12:15 | 00:42:30 | 00:00:00 | |
| DB0ND-19 | 2026-09-05 23:11:48 | 48.70233 | 9.47958 | 122° | 99km/h | 9054m | 6.4m/s | -31.7°C | 17.7% | 327.1hPa | 2.9V | 00:00:00 | 00:00:00 | 00:00:00 | |
| DF3TZ-5 | 2026-09-05 23:11:44 | 48.70286 | 9.47829 | 122° | 95km/h | 9029m | 5.3m/s | -31.6°C | 23.2% | 328.3hPa | 2.9V | 00:00:00 | 00:00:00 | 00:00:00 | |
| DK7TD | 2026-09-05 23:11:38 | 48.70364 | 9.47659 | 122° | 89km/h | 8993m | 4.9m/s | -31.4°C | 34.3% | 330hPa | 2.9V | 18:12:15 | 00:42:19 | 00:00:00 | |
| DK7TD | 2026-09-05 23:11:28 | 48.70491 | 9.47377 | 123° | 89km/h | 8943m | 4.6m/s | -31°C | 36.4% | 332.4hPa | 2.9V | 18:12:15 | 00:42:09 | 00:00:00 | |
| DK7TD | 2026-09-05 23:11:18 | 48.70613 | 9.47100 | 122° | 78km/h | 8895m | 5.1m/s | -30.7°C | 34.7% | 334.6hPa | 2.9V | 18:12:15 | 00:41:59 | 00:00:00 | |
| DK7TD | 2026-09-05 23:11:07 | 48.70755 | 9.46793 | 133° | 91km/h | 8848m | 5.1m/s | -30.4°C | 36% | 336.8hPa | 2.8V | 18:12:15 | 00:41:48 | 00:00:00 | |
| DK7TD | 2026-09-05 23:10:57 | 48.70884 | 9.46511 | 126° | 91km/h | 8789m | 6.8m/s | -29.8°C | 36.2% | 339.6hPa | 2.9V | 18:12:15 | 00:41:38 | 00:00:00 | |
| DK7TD | 2026-09-05 23:10:46 | 48.71013 | 9.46180 | 119° | 78km/h | 8736m | 3.4m/s | -29.3°C | 34.5% | 342.3hPa | 2.9V | 18:12:15 | 00:41:27 | 00:00:00 | |
| DK7TD | 2026-09-05 23:10:36 | 48.71139 | 9.45891 | 123° | 95km/h | 8671m | 4.2m/s | -28.8°C | 32.6% | 345.3hPa | 2.9V | 18:12:15 | 00:41:17 | 00:00:00 | |
| DK7TD | 2026-09-05 23:10:26 | 48.71252 | 9.45602 | 122° | 88km/h | 8609m | 3.4m/s | -28.2°C | 31% | 348.4hPa | 2.9V | 18:12:15 | 00:41:07 | 00:00:00 | |
| DK7TD | 2026-09-05 23:10:15 | 48.71377 | 9.45302 | 122° | 89km/h | 8544m | 5.6m/s | -27.8°C | 30% | 351.7hPa | 2.9V | 18:12:15 | 00:40:56 | 00:00:00 | |
| DK7TD | 2026-09-05 23:10:05 | 48.71487 | 9.45026 | 120° | 88km/h | 8486m | 5.7m/s | -27.3°C | 30.3% | 354.3hPa | 2.9V | 18:12:15 | 00:40:46 | 00:00:00 | |
| DK7TD | 2026-09-05 23:09:54 | 48.71616 | 9.44711 | 122° | 77km/h | 8430m | 5.9m/s | -26.9°C | 29.2% | 357.1hPa | 2.9V | 18:12:15 | 00:40:35 | 00:00:00 | |
| DK7TD | 2026-09-05 23:09:44 | 48.71713 | 9.44435 | 118° | 77km/h | 8377m | 5m/s | -26.4°C | 30.9% | 359.8hPa | 2.8V | 18:12:15 | 00:40:25 | 00:00:00 | |
| DK7TD | 2026-09-05 23:09:33 | 48.71831 | 9.44163 | 139° | 78km/h | 8312m | 6.2m/s | -25.8°C | 30.6% | 363.1hPa | 2.8V | 18:12:15 | 00:40:14 | 00:00:00 | |
| DK7TD | 2026-09-05 23:09:22 | 48.71952 | 9.43888 | 124° | 75km/h | 8243m | 5.8m/s | -25.4°C | 39.4% | 366.4hPa | 2.8V | 18:12:15 | 00:40:03 | 00:00:00 | |
| DK7TD | 2026-09-05 23:09:12 | 48.72090 | 9.43648 | 131° | 80km/h | 8191m | 5.6m/s | -24.9°C | 35.6% | 369hPa | 2.9V | 18:12:15 | 00:39:53 | 00:00:00 | |
| DK7TD | 2026-09-05 23:09:01 | 48.72242 | 9.43381 | 132° | 78km/h | 8138m | 5.9m/s | -24.6°C | 36.7% | 371.8hPa | 2.8V | 18:12:15 | 00:39:42 | 00:00:00 | |
| DK7TD | 2026-09-05 23:08:51 | 48.72365 | 9.43141 | 130° | 91km/h | 8089m | 5m/s | -24.2°C | 35.7% | 374.2hPa | 2.8V | 18:12:15 | 00:39:32 | 00:00:00 | |
| HARRO8 | 2026-09-05 23:08:47 | 48.72432 | 9.43011 | 125° | 82km/h | 8064m | 4.2m/s | -24.0°C | 33.3% | 375.6hPa | 2.8V | 00:00:00 | 00:00:00 | 00:00:00 | |
| DF7PN | 2026-09-05 23:08:44 | 48.72454 | 9.42961 | 123° | 73km/h | 8054m | 6.4m/s | -23.9°C | 33.6% | 376.0hPa | 2.8V | 00:00:00 | 00:00:00 | 00:00:00 | |
| DK7TD | 2026-09-05 23:08:40 | 48.72490 | 9.42860 | 120° | 82km/h | 8035m | 3.5m/s | -23.8°C | 38.2% | 377hPa | 2.8V | 18:12:15 | 00:39:21 | 00:00:00 | |
| DK7TD | 2026-09-05 23:08:30 | 48.72619 | 9.42591 | 116° | 82km/h | 7974m | 5.7m/s | -23.5°C | 45.4% | 380.2hPa | 2.9V | 18:12:15 | 00:39:11 | 00:00:00 | |
| DK7TD | 2026-09-05 23:08:21 | 48.72729 | 9.42307 | 126° | 86km/h | 7909m | 7.1m/s | -22.9°C | 45.8% | 383.5hPa | 2.8V | 18:12:15 | 00:39:01 | 00:00:00 | |
| DK7TD | 2026-09-05 23:08:09 | 48.72865 | 9.42014 | 123° | 80km/h | 7855m | 3.7m/s | -22.5°C | 45.2% | 386.5hPa | 2.9V | 18:12:15 | 00:38:50 | 00:00:00 | |
| DK7TD | 2026-09-05 23:07:59 | 48.72999 | 9.41756 | 134° | 86km/h | 7810m | 4m/s | -22.1°C | 45.5% | 388.8hPa | 2.9V | 18:12:15 | 00:38:40 | 00:00:00 | |
| DK7TD | 2026-09-05 23:07:49 | 48.73126 | 9.41477 | 124° | 88km/h | 7750m | 4.8m/s | -21.5°C | 42.2% | 392hPa | 2.9V | 18:12:15 | 00:38:30 | 00:00:00 | |
| HARRO8 | 2026-09-05 23:07:45 | 48.73193 | 9.41345 | 123° | 84km/h | 7725m | 4.6m/s | -21.3°C | 39.7% | 393.4hPa | 2.9V | 00:00:00 | 00:00:00 | 00:00:00 | |
| DK7TD | 2026-09-05 23:07:38 | 48.73257 | 9.41173 | 121° | 95km/h | 7697m | 3.7m/s | -21°C | 38.2% | 394.8hPa | 2.9V | 18:12:15 | 00:38:19 | 00:00:00 | |
| DK7TD | 2026-09-05 23:07:28 | 48.73397 | 9.40877 | 128° | 97km/h | 7637m | 5.7m/s | -20.5°C | 34.7% | 398hPa | 2.9V | 18:12:15 | 00:38:09 | 00:00:00 | |
| DK7TD | 2026-09-05 23:07:18 | 48.73529 | 9.40574 | 122° | 104km/h | 7590m | 3.8m/s | -20.1°C | 36.4% | 400.6hPa | 2.9V | 18:12:15 | 00:37:59 | 00:00:00 | |
| DK7TD | 2026-09-05 23:07:07 | 48.73680 | 9.40234 | 124° | 91km/h | 7517m | 5.5m/s | -19.5°C | 34.9% | 404.6hPa | 2.9V | 18:12:15 | 00:37:48 | 00:00:00 | |
| DK7TD | 2026-09-05 23:06:56 | 48.73840 | 9.39914 | 131° | 89km/h | 7461m | 5.5m/s | -19°C | 34.1% | 407.6hPa | 2.9V | 18:12:15 | 00:37:37 | 00:00:00 | |
| DK7TD | 2026-09-05 23:06:45 | 48.74002 | 9.39608 | 127° | 95km/h | 7398m | 6.1m/s | -18.5°C | 33.8% | 411.1hPa | 2.9V | 18:12:15 | 00:37:26 | 00:00:00 | |
| DK7TD | 2026-09-05 23:06:34 | 48.74171 | 9.39306 | 124° | 97km/h | 7344m | 8.4m/s | -18.1°C | 36.3% | 414.1hPa | 2.9V | 18:12:15 | 00:37:15 | 00:00:00 | |
| DK7TD | 2026-09-05 23:06:23 | 48.74339 | 9.38993 | 135° | 95km/h | 7284m | 4.7m/s | -17.8°C | 41.5% | 417.4hPa | 2.9V | 18:12:15 | 00:37:04 | 00:00:00 | |
| DK7TD | 2026-09-05 23:06:14 | 48.74487 | 9.38696 | 123° | 100km/h | 7223m | 7.9m/s | -17.5°C | 46.6% | 420.8hPa | 2.9V | 18:12:15 | 00:36:54 | 00:00:00 | |
| DK7TD | 2026-09-05 23:06:02 | 48.74662 | 9.38386 | 130° | 84km/h | 7157m | 5m/s | -17°C | 48.9% | 424.4hPa | 2.9V | 18:12:15 | 00:36:43 | 00:00:00 | |
| DK7TD | 2026-09-05 23:05:51 | 48.74814 | 9.38080 | 122° | 91km/h | 7094m | 5.2m/s | -16.5°C | 51.1% | 427.9hPa | 2.9V | 18:12:15 | 00:36:32 | 00:00:00 | |
| DK7TD | 2026-09-05 23:05:40 | 48.74958 | 9.37752 | 125° | 100km/h | 7036m | 4.1m/s | -15.9°C | 49.5% | 431.3hPa | 2.9V | 18:12:15 | 00:36:21 | 00:00:00 | |
| DK7TD | 2026-09-05 23:05:29 | 48.75118 | 9.37414 | 125° | 99km/h | 6980m | 5m/s | -15.4°C | 46.8% | 434.6hPa | 2.9V | 18:12:15 | 00:36:10 | 00:00:00 | |
| DK7TD | 2026-09-05 23:05:18 | 48.75279 | 9.37081 | 123° | 89km/h | 6927m | 5.7m/s | -15°C | 44.1% | 437.7hPa | 2.9V | 18:12:15 | 00:35:59 | 00:00:00 | |
| DK7TD | 2026-09-05 23:05:07 | 48.75420 | 9.36783 | 125° | 93km/h | 6873m | 4.9m/s | -14.5°C | 42.3% | 440.8hPa | 2.9V | 18:12:15 | 00:35:48 | 00:00:00 | |
| DK7TD | 2026-09-05 23:04:56 | 48.75575 | 9.36468 | 122° | 84km/h | 6809m | 5.4m/s | -13.9°C | 42.8% | 444.5hPa | 2.9V | 18:12:15 | 00:35:37 | 00:00:00 | |
| DK7TD | 2026-09-05 23:04:46 | 48.75715 | 9.36204 | 128° | 91km/h | 6746m | 7.2m/s | -13.3°C | 41.7% | 448.2hPa | 2.9V | 18:12:15 | 00:35:27 | 00:00:00 | |
| DK7TD | 2026-09-05 23:04:35 | 48.75851 | 9.35895 | 134° | 95km/h | 6685m | 6.5m/s | -12.7°C | 40.6% | 451.7hPa | 2.9V | 18:12:15 | 00:35:16 | 00:00:00 | |
| DK7TD | 2026-09-05 23:04:25 | 48.76011 | 9.35640 | 131° | 84km/h | 6631m | 7.9m/s | -12.2°C | 40.3% | 454.9hPa | 2.9V | 18:12:15 | 00:35:06 | 00:00:00 | |
| DK7TD | 2026-09-05 23:04:14 | 48.76172 | 9.35363 | 139° | 86km/h | 6564m | 6.7m/s | -11.7°C | 40.1% | 458.9hPa | 2.9V | 18:12:15 | 00:34:55 | 00:00:00 | |
| DK7TD | 2026-09-05 23:04:03 | 48.76338 | 9.35093 | 133° | 88km/h | 6505m | 5m/s | -11.3°C | 39.6% | 462.4hPa | 2.9V | 18:12:15 | 00:34:44 | 00:00:00 | |
| DK7TD | 2026-09-05 23:03:52 | 48.76507 | 9.34827 | 139° | 86km/h | 6457m | 4.4m/s | -10.8°C | 37.2% | 465.4hPa | 2.9V | 18:12:15 | 00:34:33 | 00:00:00 | |
| DL1ZP-14 | 2026-09-05 23:03:47 | 48.76594 | 9.34722 | 137° | 88km/h | 6435m | 5.4m/s | -10.6°C | 34.0% | 466.8hPa | 2.9V | 00:00:00 | 00:00:00 | 00:00:00 | |
| DK7TD | 2026-09-05 23:03:42 | 48.76664 | 9.34611 | 129° | 73km/h | 6403m | 5.6m/s | -10.3°C | 37% | 468.6hPa | 2.9V | 18:12:15 | 00:34:23 | 00:00:00 | |
| DK7TD | 2026-09-05 23:03:31 | 48.76819 | 9.34352 | 143° | 78km/h | 6346m | 4.6m/s | -9.8°C | 34.5% | 472.2hPa | 2.9V | 18:12:15 | 00:34:12 | 00:00:00 | |
| DK7TD | 2026-09-05 23:03:21 | 48.76975 | 9.34143 | 141° | 86km/h | 6282m | 6.5m/s | -9.3°C | 36.7% | 476.1hPa | 2.9V | 18:12:15 | 00:34:02 | 00:00:00 | |
| DK7TD | 2026-09-05 23:03:11 | 48.77134 | 9.33929 | 136° | 80km/h | 6230m | 3.8m/s | -8.9°C | 33.9% | 479.4hPa | 2.9V | 18:12:15 | 00:33:52 | 00:00:00 | |
| DK7TD | 2026-09-05 23:03:00 | 48.77306 | 9.33689 | 138° | 77km/h | 6175m | 6.4m/s | -8.7°C | 35.8% | 482.8hPa | 2.9V | 18:12:15 | 00:33:41 | 00:00:00 | |
| DK7TD | 2026-09-05 23:02:50 | 48.77452 | 9.33484 | 143° | 86km/h | 6126m | 4.8m/s | -8.4°C | 37% | 485.8hPa | 2.9V | 18:12:15 | 00:33:31 | 00:00:00 | |
| DL1ZP-14 | 2026-09-05 23:02:45 | 48.77537 | 9.33387 | 142° | 77km/h | 6102m | 5.4m/s | -8.2°C | 32.5% | 487.2hPa | 2.9V | 00:00:00 | 00:00:00 | 00:00:00 | |
| DK7TD | 2026-09-05 23:02:39 | 48.77613 | 9.33261 | 129° | 75km/h | 6073m | 4.4m/s | -8°C | 36% | 489.3hPa | 2.9V | 18:12:15 | 00:33:20 | 00:00:00 | |
| DK7TD | 2026-09-05 23:02:29 | 48.77752 | 9.33051 | 135° | 73km/h | 6014m | 4.2m/s | -7.9°C | 38% | 492.9hPa | 2.9V | 18:12:15 | 00:33:10 | 00:00:00 | |
| DK7TD | 2026-09-05 23:02:19 | 48.77871 | 9.32880 | 127° | 62km/h | 5970m | 7.1m/s | -7.5°C | 38.7% | 495.6hPa | 2.9V | 18:12:15 | 00:33:00 | 00:00:00 | |
| DK7TD | 2026-09-05 23:02:08 | 48.77996 | 9.32681 | 126° | 66km/h | 5895m | 5.3m/s | -7.1°C | 38.3% | 500.4hPa | 2.9V | 18:12:15 | 00:32:49 | 00:00:00 | |
| DK7TD | 2026-09-05 23:01:58 | 48.78125 | 9.32487 | 133° | 75km/h | 5840m | 7.2m/s | -7.1°C | 39.2% | 504.1hPa | 2.9V | 18:12:15 | 00:32:39 | 00:00:00 | |
| DK7TD | 2026-09-05 23:01:48 | 48.78256 | 9.32277 | 124° | 86km/h | 5781m | 5m/s | -7°C | 39.9% | 507.9hPa | 2.9V | 18:12:15 | 00:32:29 | 00:00:00 | |
| DK7TD | 2026-09-05 23:01:37 | 48.78393 | 9.32023 | 121° | 77km/h | 5716m | 6.4m/s | -6.7°C | 39.8% | 512.1hPa | 2.9V | 18:12:15 | 00:32:18 | 00:00:00 | |
| DK7TD | 2026-09-05 23:01:26 | 48.78521 | 9.31767 | 128° | 80km/h | 5666m | 4.5m/s | -6.7°C | 41% | 515.3hPa | 2.9V | 18:12:15 | 00:32:07 | 00:00:00 | |
| DK7TD | 2026-09-05 23:01:16 | 48.78633 | 9.31527 | 122° | 84km/h | 5615m | 4.3m/s | -7°C | 45.5% | 518.6hPa | 2.9V | 18:12:15 | 00:31:57 | 00:00:00 | |
| DK7TD | 2026-09-05 23:01:04 | 48.78772 | 9.31275 | 126° | 78km/h | 5551m | 5.2m/s | -6.9°C | 50.7% | 523hPa | 2.9V | 18:12:15 | 00:31:45 | 00:00:00 | |
| DK7TD | 2026-09-05 23:00:54 | 48.78904 | 9.31029 | 130° | 73km/h | 5507m | 7m/s | -6.7°C | 46.8% | 525.9hPa | 2.9V | 18:12:15 | 00:31:35 | 00:00:00 | |
| DF3TZ-5 | 2026-09-05 23:00:52 | 48.78928 | 9.30987 | 131° | 69km/h | 5496m | 4.9m/s | -6.6°C | 37.9% | 526.8hPa | 2.9V | 00:00:00 | 00:00:00 | 00:00:00 | |
| DK7TD | 2026-09-05 23:00:43 | 48.79029 | 9.30784 | 127° | 68km/h | 5456m | 4.2m/s | -6.3°C | 24.7% | 529.4hPa | 2.9V | 18:12:15 | 00:31:24 | 00:00:00 | |
| DK7TD | 2026-09-05 23:00:32 | 48.79126 | 9.30571 | 125° | 64km/h | 5407m | 7.6m/s | -6°C | 9.5% | 532.6hPa | 2.9V | 18:12:15 | 00:31:13 | 00:00:00 | |
| DK7TD | 2026-09-05 23:00:22 | 48.79230 | 9.30329 | 111° | 77km/h | 5349m | 6.8m/s | -5.8°C | 0% | 536.5hPa | 2.9V | 18:12:15 | 00:31:03 | 00:00:00 | |
| DK7TD | 2026-09-05 23:00:12 | 48.79303 | 9.30101 | 125° | 69km/h | 5290m | 8m/s | -5.6°C | 0% | 540.6hPa | 2.9V | 18:12:15 | 00:30:53 | 00:00:00 | |
| DK7TD | 2026-09-05 23:00:02 | 48.79379 | 9.29871 | 120° | 62km/h | 5236m | 4.8m/s | -5.4°C | 0.6% | 544.3hPa | 2.9V | 18:12:15 | 00:30:43 | 00:00:00 | |
| DK7TD | 2026-09-05 22:59:51 | 48.79471 | 9.29632 | 121° | 75km/h | 5169m | 4.7m/s | -4.9°C | 2.1% | 548.9hPa | 2.9V | 18:12:15 | 00:30:32 | 00:00:00 | |
| DF3TZ-5 | 2026-09-05 22:59:50 | 48.79481 | 9.29608 | 123° | 75km/h | 5163m | 6.7m/s | -4.9°C | 4.0% | 549.2hPa | 2.9V | 00:00:00 | 00:00:00 | 00:00:00 | |
| DK7TD | 2026-09-05 22:59:41 | 48.79566 | 9.29447 | 117° | 60km/h | 5113m | 6.8m/s | -4.6°C | 2.4% | 552.7hPa | 2.9V | 18:12:15 | 00:30:22 | 00:00:00 | |
| DK7TD | 2026-09-05 22:59:31 | 48.79637 | 9.29244 | 109° | 53km/h | 5056m | 4.4m/s | -4.3°C | 1.7% | 556.9hPa | 2.9V | 18:12:15 | 00:30:12 | 00:00:00 | |
| DK7TD | 2026-09-05 22:59:20 | 48.79717 | 9.29014 | 124° | 71km/h | 5004m | 4.4m/s | -3.9°C | 1.3% | 560.7hPa | 2.9V | 18:12:15 | 00:30:01 | 00:00:00 | |
| DK7TD | 2026-09-05 22:59:10 | 48.79800 | 9.28805 | 133° | 60km/h | 4946m | 5.6m/s | -3.8°C | 0.1% | 564.7hPa | 2.9V | 18:12:15 | 00:29:51 | 00:00:00 | |
| DK7TD | 2026-09-05 22:58:59 | 48.79902 | 9.28578 | 118° | 53km/h | 4897m | 6.2m/s | -3.6°C | 0.2% | 568.2hPa | 2.9V | 18:12:15 | 00:29:40 | 00:00:00 | |
| DK7TD | 2026-09-05 22:58:48 | 48.79980 | 9.28386 | 132° | 55km/h | 4844m | 3.6m/s | -3.5°C | 0.4% | 572hPa | 2.9V | 18:12:15 | 00:29:29 | 00:00:00 | |
| DK7TD | 2026-09-05 22:58:37 | 48.80071 | 9.28185 | 115° | 55km/h | 4784m | 6.9m/s | -3.1°C | 2.5% | 576.3hPa | 2.9V | 18:12:15 | 00:29:18 | 00:00:00 | |
| DK7TD | 2026-09-05 22:58:26 | 48.80133 | 9.27958 | 113° | 55km/h | 4719m | 5.9m/s | -2.9°C | 0.8% | 581hPa | 2.9V | 18:12:15 | 00:29:07 | 00:00:00 | |
| DK7TD | 2026-09-05 22:58:16 | 48.80185 | 9.27828 | 126° | 37km/h | 4660m | 5.2m/s | -2.6°C | 4.6% | 585.5hPa | 2.9V | 18:12:15 | 00:28:57 | 00:00:00 | |
| DK7TD | 2026-09-05 22:58:06 | 48.80242 | 9.27676 | 126° | 42km/h | 4607m | 5.3m/s | -2.3°C | 4.4% | 589.4hPa | 2.9V | 18:12:15 | 00:28:47 | 00:00:00 | |
| DK7TD | 2026-09-05 22:57:55 | 48.80294 | 9.27496 | 106° | 53km/h | 4550m | 4.1m/s | -2.1°C | 5.5% | 593.6hPa | 2.9V | 18:12:15 | 00:28:36 | 00:00:00 | |
| DK7TD | 2026-09-05 22:57:45 | 48.80364 | 9.27326 | 121° | 51km/h | 4492m | 7.3m/s | -2.1°C | 6.3% | 597.9hPa | 2.9V | 18:12:15 | 00:28:26 | 00:00:00 | |
| DK7TD | 2026-09-05 22:57:34 | 48.80457 | 9.27126 | 132° | 62km/h | 4427m | 5.6m/s | -2.3°C | 12.7% | 602.9hPa | 2.9V | 18:12:15 | 00:28:15 | 00:00:00 | |
| DK7TD | 2026-09-05 22:57:24 | 48.80519 | 9.26952 | 130° | 51km/h | 4370m | 6.6m/s | -2°C | 13.3% | 607.3hPa | 2.9V | 18:12:15 | 00:28:05 | 00:00:00 | |
| DK7TD | 2026-09-05 22:57:14 | 48.80584 | 9.26818 | 135° | 49km/h | 4310m | 5.2m/s | -1.7°C | 12.4% | 612hPa | 2.9V | 18:12:15 | 00:27:55 | 00:00:00 | |
| DK7TD | 2026-09-05 22:57:04 | 48.80667 | 9.26676 | 118° | 35km/h | 4264m | 6.7m/s | -1.5°C | 11.5% | 615.5hPa | 2.9V | 18:12:15 | 00:27:45 | 00:00:00 | |
| DK7TD | 2026-09-05 22:56:53 | 48.80742 | 9.26505 | 132° | 53km/h | 4203m | 3.4m/s | -1.2°C | 10.1% | 620.4hPa | 2.9V | 18:12:15 | 00:27:34 | 00:00:00 | |
| HARRO8 | 2026-09-05 22:56:53 | 48.80751 | 9.26490 | 133° | 51km/h | 4198m | 7.2m/s | -1.2°C | 9.7% | 620.7hPa | 2.9V | 00:00:00 | 00:00:00 | 00:00:00 | |
| DF7PN | 2026-09-05 22:56:50 | 48.80768 | 9.26458 | 124° | 57km/h | 4185m | 5.2m/s | -1.1°C | 9.7% | 621.7hPa | 2.9V | 00:00:00 | 00:00:00 | 00:00:00 | |
| DB0ND-19 | 2026-09-05 22:56:48 | 48.80784 | 9.26420 | 119° | 55km/h | 4176m | 4.2m/s | -1.0°C | 9.8% | 622.5hPa | 2.9V | 00:00:00 | 00:00:00 | 00:00:00 | |
| DK7TD | 2026-09-05 22:56:42 | 48.80816 | 9.26336 | 112° | 42km/h | 4137m | 7.1m/s | -0.8°C | 10% | 625.7hPa | 2.9V | 18:12:15 | 00:27:23 | 00:00:00 | |
| DK7TD | 2026-09-05 22:56:32 | 48.80877 | 9.26168 | 118° | 53km/h | 4076m | 6.4m/s | -0.7°C | 11.3% | 630.5hPa | 2.9V | 18:12:15 | 00:27:13 | 00:00:00 | |
| DK7TD | 2026-09-05 22:56:21 | 48.80948 | 9.25995 | 110° | 47km/h | 4002m | 6.1m/s | -0.8°C | 15.7% | 636.3hPa | 2.9V | 18:12:15 | 00:27:02 | 00:00:00 | |
| DK7TD | 2026-09-05 22:56:10 | 48.80993 | 9.25826 | 105° | 53km/h | 3943m | 4.8m/s | -0.4°C | 16.9% | 640.9hPa | 2.9V | 18:12:15 | 00:26:51 | 00:00:00 | |
| DK7TD | 2026-09-05 22:56:00 | 48.81056 | 9.25689 | 123° | 38km/h | 3886m | 5.1m/s | -0.1°C | 18.1% | 645.5hPa | 2.9V | 18:12:15 | 00:26:41 | 00:00:00 | |
| DK7TD | 2026-09-05 22:55:49 | 48.81119 | 9.25531 | 119° | 47km/h | 3828m | 6.2m/s | 0.3°C | 17.9% | 650.3hPa | 2.9V | 18:12:15 | 00:26:30 | 00:00:00 | |
| DF7PN | 2026-09-05 22:55:48 | 48.81128 | 9.25500 | 110° | 40km/h | 3817m | 5.7m/s | 0.4°C | 16.0% | 651.1hPa | 2.9V | 00:00:00 | 00:00:00 | 00:00:00 | |
| DB0ND-19 | 2026-09-05 22:55:46 | 48.81131 | 9.25486 | 114° | 37km/h | 3811m | 6.4m/s | 0.5°C | 16.0% | 651.6hPa | 2.9V | 00:00:00 | 00:00:00 | 00:00:00 | |
| DK7TD | 2026-09-05 22:55:38 | 48.81169 | 9.25392 | 105° | 44km/h | 3773m | 4.7m/s | 0.8°C | 18% | 654.7hPa | 2.9V | 18:12:15 | 00:26:19 | 00:00:00 | |
| DK7TD | 2026-09-05 22:55:28 | 48.81207 | 9.25246 | 134° | 40km/h | 3720m | 6.6m/s | 1.1°C | 17.5% | 659.1hPa | 2.9V | 18:12:15 | 00:26:09 | 00:00:00 | |
| DK7TD | 2026-09-05 22:55:17 | 48.81272 | 9.25070 | 133° | 42km/h | 3661m | 5.7m/s | 1.3°C | 16.1% | 663.9hPa | 2.9V | 18:12:15 | 00:25:58 | 00:00:00 | |
| DK7TD | 2026-09-05 22:55:07 | 48.81315 | 9.24943 | 108° | 49km/h | 3613m | 4.6m/s | 1.5°C | 15.9% | 667.9hPa | 2.9V | 18:12:15 | 00:25:48 | 00:00:00 | |
| DK7TD | 2026-09-05 22:54:56 | 48.81375 | 9.24769 | 120° | 31km/h | 3547m | 6.3m/s | 1.8°C | 18.8% | 673.3hPa | 2.9V | 18:12:15 | 00:25:37 | 00:00:00 | |
| DK7TD | 2026-09-05 22:54:46 | 48.81411 | 9.24630 | 112° | 35km/h | 3494m | 6.7m/s | 2.1°C | 19.6% | 677.9hPa | 2.9V | 18:12:15 | 00:25:27 | 00:00:00 | |
| DF7PN | 2026-09-05 22:54:46 | 48.81413 | 9.24618 | 100° | 33km/h | 3487m | 7.2m/s | 2.2°C | 17.5% | 678.4hPa | 2.9V | 00:00:00 | 00:00:00 | 00:00:00 | |
| DB0ND-19 | 2026-09-05 22:54:44 | 48.81414 | 9.24604 | 91° | 37km/h | 3481m | 6.2m/s | 2.2°C | 17.7% | 678.9hPa | 2.9V | 00:00:00 | 00:00:00 | 00:00:00 | |
| DK7TD | 2026-09-05 22:54:35 | 48.81447 | 9.24450 | 104° | 44km/h | 3431m | 4.3m/s | 2.5°C | 19.9% | 683hPa | 2.9V | 18:12:15 | 00:25:16 | 00:00:00 | |
| DK7TD | 2026-09-05 22:54:25 | 48.81475 | 9.24292 | 116° | 42km/h | 3370m | 6m/s | 3°C | 20.1% | 688.2hPa | 2.9V | 18:12:15 | 00:25:06 | 00:00:00 | |
| DK7TD | 2026-09-05 22:54:14 | 48.81512 | 9.24141 | 94° | 42km/h | 3313m | 3.9m/s | 3.3°C | 18.7% | 693hPa | 2.9V | 18:12:15 | 00:24:55 | 00:00:00 | |
| DK7TD | 2026-09-05 22:54:03 | 48.81546 | 9.23987 | 109° | 35km/h | 3249m | 6.9m/s | 3.5°C | 23.4% | 698.6hPa | 2.9V | 18:12:15 | 00:24:44 | 00:00:00 | |
| DK7TD | 2026-09-05 22:53:53 | 48.81576 | 9.23832 | 121° | 46km/h | 3203m | 3.8m/s | 3.8°C | 22.8% | 702.7hPa | 2.9V | 18:12:15 | 00:24:34 | 00:00:00 | |
| Es werden nur die letzten 3500 von 3632 Frames angezeigt. GPX/KML und Diagramme bleiben verfügbar. | |||||||||||||||